<?xml version='1.0' encoding='UTF-8'?><gpx version="1.1" creator="JPX - https://github.com/jenetics/jpx" xmlns="http://www.topografix.com/GPX/1/1"><trk><trkseg><trkpt lat="40.7206915" lon="14.8736923"><ele>351.0</ele><time>2026-05-01T06:38:51.917Z</time></trkpt><trkpt lat="40.720658" lon="14.8735758"><ele>351.0</ele><time>2026-05-01T06:39:24.98Z</time></trkpt><trkpt lat="40.7207197" lon="14.8736629"><ele>351.0</ele><time>2026-05-01T06:40:44.981Z</time></trkpt><trkpt lat="40.7207309" lon="14.8738748"><ele>351.0</ele><time>2026-05-01T06:50:26.106Z</time></trkpt><trkpt lat="40.7207627" lon="14.8738027"><ele>351.0</ele><time>2026-05-01T06:50:34.941Z</time></trkpt><trkpt lat="40.7207395" lon="14.8736924"><ele>351.0</ele><time>2026-05-01T06:51:44.973Z</time></trkpt><trkpt lat="40.720705" lon="14.8736221"><ele>351.0</ele><time>2026-05-01T06:52:14.951Z</time></trkpt><trkpt lat="40.7207458" lon="14.8737338"><ele>351.0</ele><time>2026-05-01T06:54:48.912Z</time></trkpt><trkpt lat="40.7206871" lon="14.873701"><ele>351.0</ele><time>2026-05-01T06:54:58.977Z</time></trkpt><trkpt lat="40.7206771" lon="14.8736121"><ele>351.0</ele><time>2026-05-01T06:55:35.975Z</time></trkpt><trkpt lat="40.7206568" lon="14.8734894"><ele>351.0</ele><time>2026-05-01T06:55:39.977Z</time></trkpt><trkpt lat="40.720628" lon="14.8735781"><ele>351.0</ele><time>2026-05-01T06:55:42.97Z</time></trkpt><trkpt lat="40.7206382" lon="14.8736882"><ele>351.0</ele><time>2026-05-01T06:55:44.028Z</time></trkpt><trkpt lat="40.7206447" lon="14.8737813"><ele>351.0</ele><time>2026-05-01T06:55:44.967Z</time></trkpt><trkpt lat="40.7206423" lon="14.8739069"><ele>351.0</ele><time>2026-05-01T06:55:46.965Z</time></trkpt><trkpt lat="40.7206725" lon="14.8740091"><ele>351.0</ele><time>2026-05-01T06:55:48.969Z</time></trkpt><trkpt lat="40.7207536" lon="14.8740534"><ele>351.0</ele><time>2026-05-01T06:55:50.989Z</time></trkpt><trkpt lat="40.7209588" lon="14.8740298"><ele>351.0</ele><time>2026-05-01T06:55:53.96Z</time></trkpt><trkpt lat="40.7210507" lon="14.8739878"><ele>351.0</ele><time>2026-05-01T06:55:54.957Z</time></trkpt><trkpt lat="40.7211389" lon="14.8739447"><ele>351.0</ele><time>2026-05-01T06:55:55.964Z</time></trkpt><trkpt lat="40.7212233" lon="14.8739104"><ele>351.0</ele><time>2026-05-01T06:55:56.957Z</time></trkpt><trkpt lat="40.7213036" lon="14.8738746"><ele>351.0</ele><time>2026-05-01T06:55:58.037Z</time></trkpt><trkpt lat="40.7213681" lon="14.8738485"><ele>351.0</ele><time>2026-05-01T06:55:58.965Z</time></trkpt><trkpt lat="40.7214759" lon="14.8738029"><ele>353.1666666666667</ele><time>2026-05-01T06:56:00.979Z</time></trkpt><trkpt lat="40.7215457" lon="14.8737803"><ele>355.3333333333333</ele><time>2026-05-01T06:56:02.968Z</time></trkpt><trkpt lat="40.7215466" lon="14.8736516"><ele>357.5</ele><time>2026-05-01T06:56:04.975Z</time></trkpt><trkpt lat="40.7215049" lon="14.8735511"><ele>359.66666666666663</ele><time>2026-05-01T06:56:06.017Z</time></trkpt><trkpt lat="40.7214736" lon="14.8734389"><ele>361.8333333333333</ele><time>2026-05-01T06:56:06.978Z</time></trkpt><trkpt lat="40.7214639" lon="14.8733102"><ele>364.0</ele><time>2026-05-01T06:56:08.037Z</time></trkpt><trkpt lat="40.7214774" lon="14.8731742"><ele>365.6</ele><time>2026-05-01T06:56:08.979Z</time></trkpt><trkpt lat="40.7214956" lon="14.87303"><ele>367.2</ele><time>2026-05-01T06:56:09.977Z</time></trkpt><trkpt lat="40.7215009" lon="14.8728984"><ele>368.8</ele><time>2026-05-01T06:56:10.981Z</time></trkpt><trkpt lat="40.7214916" lon="14.8727703"><ele>370.40000000000003</ele><time>2026-05-01T06:56:11.97Z</time></trkpt><trkpt lat="40.7214765" lon="14.8726428"><ele>372.0</ele><time>2026-05-01T06:56:12.969Z</time></trkpt><trkpt lat="40.7214559" lon="14.8725181"><ele>374.0</ele><time>2026-05-01T06:56:13.969Z</time></trkpt><trkpt lat="40.7214265" lon="14.8723823"><ele>376.0</ele><time>2026-05-01T06:56:14.967Z</time></trkpt><trkpt lat="40.721389" lon="14.8722499"><ele>378.0</ele><time>2026-05-01T06:56:15.968Z</time></trkpt><trkpt lat="40.7213357" lon="14.8721217"><ele>380.0</ele><time>2026-05-01T06:56:17.006Z</time></trkpt><trkpt lat="40.7212643" lon="14.8720045"><ele>382.0</ele><time>2026-05-01T06:56:17.972Z</time></trkpt><trkpt lat="40.7212002" lon="14.8718738"><ele>381.25</ele><time>2026-05-01T06:56:18.976Z</time></trkpt><trkpt lat="40.721146" lon="14.871729"><ele>380.5</ele><time>2026-05-01T06:56:19.959Z</time></trkpt><trkpt lat="40.7211084" lon="14.8715578"><ele>379.75</ele><time>2026-05-01T06:56:20.978Z</time></trkpt><trkpt lat="40.7210814" lon="14.8713949"><ele>379.0</ele><time>2026-05-01T06:56:21.971Z</time></trkpt><trkpt lat="40.7210634" lon="14.8712587"><ele>379.0</ele><time>2026-05-01T06:56:22.974Z</time></trkpt><trkpt lat="40.7210502" lon="14.8711556"><ele>379.0</ele><time>2026-05-01T06:56:23.97Z</time></trkpt><trkpt lat="40.7210473" lon="14.8710543"><ele>379.0</ele><time>2026-05-01T06:56:25.973Z</time></trkpt><trkpt lat="40.7211412" lon="14.8710291"><ele>379.0</ele><time>2026-05-01T06:56:28.98Z</time></trkpt><trkpt lat="40.7211995" lon="14.8710613"><ele>379.0</ele><time>2026-05-01T06:56:29.974Z</time></trkpt><trkpt lat="40.7212848" lon="14.871132"><ele>379.0</ele><time>2026-05-01T06:56:30.967Z</time></trkpt><trkpt lat="40.7214001" lon="14.8711941"><ele>381.5</ele><time>2026-05-01T06:56:31.973Z</time></trkpt><trkpt lat="40.7215379" lon="14.8712005"><ele>384.0</ele><time>2026-05-01T06:56:32.975Z</time></trkpt><trkpt lat="40.7216781" lon="14.871171"><ele>386.5</ele><time>2026-05-01T06:56:33.975Z</time></trkpt><trkpt lat="40.7217997" lon="14.8711365"><ele>389.0</ele><time>2026-05-01T06:56:34.981Z</time></trkpt><trkpt lat="40.7219089" lon="14.8711301"><ele>391.4</ele><time>2026-05-01T06:56:35.972Z</time></trkpt><trkpt lat="40.7220089" lon="14.8711493"><ele>393.79999999999995</ele><time>2026-05-01T06:56:36.974Z</time></trkpt><trkpt lat="40.7220996" lon="14.8711854"><ele>396.20000000000005</ele><time>2026-05-01T06:56:37.97Z</time></trkpt><trkpt lat="40.7221896" lon="14.8712155"><ele>398.6</ele><time>2026-05-01T06:56:38.966Z</time></trkpt><trkpt lat="40.7222784" lon="14.8712352"><ele>401.0</ele><time>2026-05-01T06:56:39.972Z</time></trkpt><trkpt lat="40.7223651" lon="14.8712573"><ele>400.99999999999994</ele><time>2026-05-01T06:56:40.975Z</time></trkpt><trkpt lat="40.7224488" lon="14.871281"><ele>401.0</ele><time>2026-05-01T06:56:41.977Z</time></trkpt><trkpt lat="40.7225256" lon="14.8712999"><ele>401.0</ele><time>2026-05-01T06:56:42.986Z</time></trkpt><trkpt lat="40.7226006" lon="14.8713241"><ele>401.0</ele><time>2026-05-01T06:56:43.98Z</time></trkpt><trkpt lat="40.7226825" lon="14.8713223"><ele>400.99999999999994</ele><time>2026-05-01T06:56:44.979Z</time></trkpt><trkpt lat="40.7227573" lon="14.8712853"><ele>401.0</ele><time>2026-05-01T06:56:45.974Z</time></trkpt><trkpt lat="40.722844" lon="14.8711975"><ele>402.5</ele><time>2026-05-01T06:56:46.972Z</time></trkpt><trkpt lat="40.7229344" lon="14.8710936"><ele>404.0</ele><time>2026-05-01T06:56:47.974Z</time></trkpt><trkpt lat="40.7230158" lon="14.8709896"><ele>405.5</ele><time>2026-05-01T06:56:48.977Z</time></trkpt><trkpt lat="40.723094" lon="14.8708826"><ele>407.0</ele><time>2026-05-01T06:56:49.963Z</time></trkpt><trkpt lat="40.7231734" lon="14.8707833"><ele>409.20000000000005</ele><time>2026-05-01T06:56:50.972Z</time></trkpt><trkpt lat="40.7232559" lon="14.8706817"><ele>411.4</ele><time>2026-05-01T06:56:51.978Z</time></trkpt><trkpt lat="40.7233213" lon="14.8705939"><ele>413.6</ele><time>2026-05-01T06:56:52.979Z</time></trkpt><trkpt lat="40.7233608" lon="14.8705283"><ele>415.79999999999995</ele><time>2026-05-01T06:56:53.972Z</time></trkpt><trkpt lat="40.7234417" lon="14.8704513"><ele>418.0</ele><time>2026-05-01T06:56:55.982Z</time></trkpt><trkpt lat="40.7235223" lon="14.8704595"><ele>420.79999999999995</ele><time>2026-05-01T06:56:57.978Z</time></trkpt><trkpt lat="40.723583" lon="14.8704912"><ele>423.6</ele><time>2026-05-01T06:56:58.974Z</time></trkpt><trkpt lat="40.723669" lon="14.8705415"><ele>426.40000000000003</ele><time>2026-05-01T06:56:59.979Z</time></trkpt><trkpt lat="40.7237532" lon="14.870622"><ele>429.20000000000005</ele><time>2026-05-01T06:57:00.976Z</time></trkpt><trkpt lat="40.7238414" lon="14.8706948"><ele>432.0</ele><time>2026-05-01T06:57:01.974Z</time></trkpt><trkpt lat="40.723934" lon="14.8707567"><ele>432.0</ele><time>2026-05-01T06:57:02.976Z</time></trkpt><trkpt lat="40.724027" lon="14.8708112"><ele>432.0</ele><time>2026-05-01T06:57:03.976Z</time></trkpt><trkpt lat="40.7241264" lon="14.8708349"><ele>432.0</ele><time>2026-05-01T06:57:04.976Z</time></trkpt><trkpt lat="40.7242054" lon="14.8708403"><ele>432.0</ele><time>2026-05-01T06:57:05.981Z</time></trkpt><trkpt lat="40.7242784" lon="14.8708376"><ele>432.0</ele><time>2026-05-01T06:57:06.973Z</time></trkpt><trkpt lat="40.7243467" lon="14.8708326"><ele>432.0</ele><time>2026-05-01T06:57:07.978Z</time></trkpt><trkpt lat="40.7244354" lon="14.870835"><ele>432.20000000000005</ele><time>2026-05-01T06:57:08.981Z</time></trkpt><trkpt lat="40.7245376" lon="14.8708535"><ele>432.40000000000003</ele><time>2026-05-01T06:57:09.975Z</time></trkpt><trkpt lat="40.7246479" lon="14.870895"><ele>432.59999999999997</ele><time>2026-05-01T06:57:10.975Z</time></trkpt><trkpt lat="40.7247548" lon="14.8709385"><ele>432.79999999999995</ele><time>2026-05-01T06:57:11.977Z</time></trkpt><trkpt lat="40.7248566" lon="14.8709653"><ele>433.0</ele><time>2026-05-01T06:57:12.972Z</time></trkpt><trkpt lat="40.7249532" lon="14.8709801"><ele>432.99999999999994</ele><time>2026-05-01T06:57:13.971Z</time></trkpt><trkpt lat="40.7250462" lon="14.8710025"><ele>433.0</ele><time>2026-05-01T06:57:14.966Z</time></trkpt><trkpt lat="40.7251269" lon="14.8710247"><ele>433.0</ele><time>2026-05-01T06:57:15.95Z</time></trkpt><trkpt lat="40.7251964" lon="14.8710424"><ele>433.0</ele><time>2026-05-01T06:57:16.946Z</time></trkpt><trkpt lat="40.7252489" lon="14.8710895"><ele>433.0</ele><time>2026-05-01T06:57:17.95Z</time></trkpt><trkpt lat="40.7252813" lon="14.8711657"><ele>432.99999999999994</ele><time>2026-05-01T06:57:18.956Z</time></trkpt><trkpt lat="40.7253061" lon="14.8712454"><ele>433.0</ele><time>2026-05-01T06:57:19.959Z</time></trkpt><trkpt lat="40.7253322" lon="14.8713252"><ele>437.33333333333337</ele><time>2026-05-01T06:57:20.948Z</time></trkpt><trkpt lat="40.7253557" lon="14.8714201"><ele>441.6666666666667</ele><time>2026-05-01T06:57:21.949Z</time></trkpt><trkpt lat="40.7253758" lon="14.8715225"><ele>446.0</ele><time>2026-05-01T06:57:22.972Z</time></trkpt><trkpt lat="40.7254114" lon="14.8716453"><ele>450.33333333333337</ele><time>2026-05-01T06:57:23.951Z</time></trkpt><trkpt lat="40.7254551" lon="14.8717588"><ele>454.6666666666667</ele><time>2026-05-01T06:57:24.971Z</time></trkpt><trkpt lat="40.7255101" lon="14.8718637"><ele>459.0</ele><time>2026-05-01T06:57:25.948Z</time></trkpt><trkpt lat="40.7255626" lon="14.8719792"><ele>460.5</ele><time>2026-05-01T06:57:26.967Z</time></trkpt><trkpt lat="40.7256017" lon="14.8721118"><ele>462.0</ele><time>2026-05-01T06:57:27.966Z</time></trkpt><trkpt lat="40.7256287" lon="14.8722793"><ele>463.5</ele><time>2026-05-01T06:57:28.974Z</time></trkpt><trkpt lat="40.7256402" lon="14.8724331"><ele>465.0</ele><time>2026-05-01T06:57:29.95Z</time></trkpt><trkpt lat="40.7256499" lon="14.8726"><ele>465.75</ele><time>2026-05-01T06:57:30.973Z</time></trkpt><trkpt lat="40.7256665" lon="14.8727824"><ele>466.5</ele><time>2026-05-01T06:57:31.953Z</time></trkpt><trkpt lat="40.7257017" lon="14.8729678"><ele>467.25</ele><time>2026-05-01T06:57:32.97Z</time></trkpt><trkpt lat="40.7257418" lon="14.8731489"><ele>468.0</ele><time>2026-05-01T06:57:33.973Z</time></trkpt><trkpt lat="40.7257806" lon="14.8733467"><ele>466.75</ele><time>2026-05-01T06:57:34.974Z</time></trkpt><trkpt lat="40.7258115" lon="14.8735428"><ele>465.5</ele><time>2026-05-01T06:57:35.962Z</time></trkpt><trkpt lat="40.7258403" lon="14.8737353"><ele>464.25</ele><time>2026-05-01T06:57:36.956Z</time></trkpt><trkpt lat="40.725865" lon="14.8739045"><ele>463.0</ele><time>2026-05-01T06:57:37.97Z</time></trkpt><trkpt lat="40.725904" lon="14.8740499"><ele>463.0</ele><time>2026-05-01T06:57:38.966Z</time></trkpt><trkpt lat="40.7259522" lon="14.8741863"><ele>462.99999999999994</ele><time>2026-05-01T06:57:39.958Z</time></trkpt><trkpt lat="40.7260064" lon="14.8743117"><ele>462.99999999999994</ele><time>2026-05-01T06:57:40.955Z</time></trkpt><trkpt lat="40.726062" lon="14.8744334"><ele>463.0</ele><time>2026-05-01T06:57:41.955Z</time></trkpt><trkpt lat="40.7261203" lon="14.8745432"><ele>463.0</ele><time>2026-05-01T06:57:42.956Z</time></trkpt><trkpt lat="40.7261876" lon="14.8746076"><ele>465.59999999999997</ele><time>2026-05-01T06:57:43.967Z</time></trkpt><trkpt lat="40.7262708" lon="14.8746653"><ele>468.19999999999993</ele><time>2026-05-01T06:57:44.976Z</time></trkpt><trkpt lat="40.7263604" lon="14.8746998"><ele>470.8</ele><time>2026-05-01T06:57:45.964Z</time></trkpt><trkpt lat="40.7264477" lon="14.8747003"><ele>473.4</ele><time>2026-05-01T06:57:47.033Z</time></trkpt><trkpt lat="40.7265428" lon="14.8746764"><ele>476.0</ele><time>2026-05-01T06:57:48.033Z</time></trkpt><trkpt lat="40.7266427" lon="14.8746349"><ele>476.0</ele><time>2026-05-01T06:57:48.986Z</time></trkpt><trkpt lat="40.7267386" lon="14.874599"><ele>476.0</ele><time>2026-05-01T06:57:49.966Z</time></trkpt><trkpt lat="40.7268131" lon="14.8745571"><ele>476.0</ele><time>2026-05-01T06:57:50.967Z</time></trkpt><trkpt lat="40.7268938" lon="14.8744935"><ele>476.0</ele><time>2026-05-01T06:57:53.035Z</time></trkpt><trkpt lat="40.7267875" lon="14.8744626"><ele>476.0</ele><time>2026-05-01T06:57:59.957Z</time></trkpt><trkpt lat="40.7267157" lon="14.874395"><ele>476.0</ele><time>2026-05-01T06:58:01.963Z</time></trkpt><trkpt lat="40.7266509" lon="14.8742971"><ele>476.0</ele><time>2026-05-01T06:58:03.979Z</time></trkpt><trkpt lat="40.7266855" lon="14.874221"><ele>476.0</ele><time>2026-05-01T06:58:08.976Z</time></trkpt><trkpt lat="40.7267833" lon="14.874162"><ele>476.0</ele><time>2026-05-01T06:58:10.979Z</time></trkpt><trkpt lat="40.7268544" lon="14.8741292"><ele>476.0</ele><time>2026-05-01T06:58:12.088Z</time></trkpt><trkpt lat="40.7270014" lon="14.8740297"><ele>482.75</ele><time>2026-05-01T06:58:13.976Z</time></trkpt><trkpt lat="40.7270839" lon="14.8739613"><ele>489.5</ele><time>2026-05-01T06:58:14.96Z</time></trkpt><trkpt lat="40.7271804" lon="14.8738741"><ele>496.25</ele><time>2026-05-01T06:58:15.965Z</time></trkpt><trkpt lat="40.7272798" lon="14.8737746"><ele>503.0</ele><time>2026-05-01T06:58:17.021Z</time></trkpt><trkpt lat="40.7273761" lon="14.8736734"><ele>503.0</ele><time>2026-05-01T06:58:18.036Z</time></trkpt><trkpt lat="40.7274793" lon="14.8735516"><ele>503.0</ele><time>2026-05-01T06:58:19.022Z</time></trkpt><trkpt lat="40.7275778" lon="14.8734228"><ele>503.0</ele><time>2026-05-01T06:58:19.946Z</time></trkpt><trkpt lat="40.7276751" lon="14.8732868"><ele>503.0</ele><time>2026-05-01T06:58:20.943Z</time></trkpt><trkpt lat="40.7277715" lon="14.8731484"><ele>509.5</ele><time>2026-05-01T06:58:21.956Z</time></trkpt><trkpt lat="40.7278659" lon="14.8730158"><ele>516.0</ele><time>2026-05-01T06:58:22.971Z</time></trkpt><trkpt lat="40.7279679" lon="14.8728811"><ele>522.5</ele><time>2026-05-01T06:58:23.951Z</time></trkpt><trkpt lat="40.7280623" lon="14.8727492"><ele>529.0</ele><time>2026-05-01T06:58:24.943Z</time></trkpt><trkpt lat="40.7281569" lon="14.8726207"><ele>534.25</ele><time>2026-05-01T06:58:25.945Z</time></trkpt><trkpt lat="40.7282579" lon="14.8725062"><ele>539.5</ele><time>2026-05-01T06:58:27.031Z</time></trkpt><trkpt lat="40.7283812" lon="14.8723983"><ele>544.75</ele><time>2026-05-01T06:58:27.953Z</time></trkpt><trkpt lat="40.7285058" lon="14.8723022"><ele>550.0</ele><time>2026-05-01T06:58:28.969Z</time></trkpt><trkpt lat="40.7286303" lon="14.8721927"><ele>550.0</ele><time>2026-05-01T06:58:29.968Z</time></trkpt><trkpt lat="40.728743" lon="14.8720695"><ele>550.0</ele><time>2026-05-01T06:58:30.968Z</time></trkpt><trkpt lat="40.7288635" lon="14.8719426"><ele>550.0</ele><time>2026-05-01T06:58:31.968Z</time></trkpt><trkpt lat="40.7289758" lon="14.8718116"><ele>553.5</ele><time>2026-05-01T06:58:33.057Z</time></trkpt><trkpt lat="40.7290869" lon="14.871679"><ele>557.0</ele><time>2026-05-01T06:58:34.023Z</time></trkpt><trkpt lat="40.7291952" lon="14.8715643"><ele>560.5</ele><time>2026-05-01T06:58:34.966Z</time></trkpt><trkpt lat="40.7293051" lon="14.8714475"><ele>564.0</ele><time>2026-05-01T06:58:35.974Z</time></trkpt><trkpt lat="40.7294256" lon="14.8713472"><ele>566.0</ele><time>2026-05-01T06:58:36.984Z</time></trkpt><trkpt lat="40.72956" lon="14.8712521"><ele>568.0</ele><time>2026-05-01T06:58:38.038Z</time></trkpt><trkpt lat="40.7296947" lon="14.8711719"><ele>570.0</ele><time>2026-05-01T06:58:38.963Z</time></trkpt><trkpt lat="40.7298331" lon="14.8710882"><ele>570.0</ele><time>2026-05-01T06:58:39.964Z</time></trkpt><trkpt lat="40.7299701" lon="14.8710056"><ele>570.0</ele><time>2026-05-01T06:58:40.974Z</time></trkpt><trkpt lat="40.7300964" lon="14.8709213"><ele>570.0</ele><time>2026-05-01T06:58:42.026Z</time></trkpt><trkpt lat="40.7302196" lon="14.8708248"><ele>570.0</ele><time>2026-05-01T06:58:43.042Z</time></trkpt><trkpt lat="40.730333" lon="14.8707565"><ele>576.25</ele><time>2026-05-01T06:58:44.031Z</time></trkpt><trkpt lat="40.7304568" lon="14.8707075"><ele>582.5</ele><time>2026-05-01T06:58:44.972Z</time></trkpt><trkpt lat="40.7305715" lon="14.870643"><ele>588.75</ele><time>2026-05-01T06:58:45.973Z</time></trkpt><trkpt lat="40.730672" lon="14.8705684"><ele>595.0</ele><time>2026-05-01T06:58:46.959Z</time></trkpt><trkpt lat="40.7307655" lon="14.870511"><ele>595.0</ele><time>2026-05-01T06:58:48.028Z</time></trkpt><trkpt lat="40.7308657" lon="14.8704606"><ele>595.0</ele><time>2026-05-01T06:58:49.038Z</time></trkpt><trkpt lat="40.7309728" lon="14.8704187"><ele>595.0</ele><time>2026-05-01T06:58:49.96Z</time></trkpt><trkpt lat="40.7310776" lon="14.8703969"><ele>595.0</ele><time>2026-05-01T06:58:50.968Z</time></trkpt><trkpt lat="40.7311742" lon="14.8703847"><ele>595.0</ele><time>2026-05-01T06:58:51.99Z</time></trkpt><trkpt lat="40.7312519" lon="14.8704074"><ele>600.8</ele><time>2026-05-01T06:58:52.96Z</time></trkpt><trkpt lat="40.7312359" lon="14.8705159"><ele>606.6</ele><time>2026-05-01T06:58:59.968Z</time></trkpt><trkpt lat="40.7312108" lon="14.8706223"><ele>612.4</ele><time>2026-05-01T06:59:00.965Z</time></trkpt><trkpt lat="40.7311738" lon="14.8707189"><ele>618.2</ele><time>2026-05-01T06:59:01.969Z</time></trkpt><trkpt lat="40.7311162" lon="14.8708827"><ele>624.0</ele><time>2026-05-01T06:59:03.965Z</time></trkpt><trkpt lat="40.7310884" lon="14.8710348"><ele>624.3333333333334</ele><time>2026-05-01T06:59:05.974Z</time></trkpt><trkpt lat="40.7310666" lon="14.8711522"><ele>624.6666666666666</ele><time>2026-05-01T06:59:06.995Z</time></trkpt><trkpt lat="40.7310306" lon="14.8712213"><ele>625.0</ele><time>2026-05-01T06:59:07.965Z</time></trkpt><trkpt lat="40.731007" lon="14.8713205"><ele>625.3333333333333</ele><time>2026-05-01T06:59:08.941Z</time></trkpt><trkpt lat="40.7309847" lon="14.8714568"><ele>625.6666666666666</ele><time>2026-05-01T06:59:09.965Z</time></trkpt><trkpt lat="40.7309712" lon="14.8715889"><ele>626.0</ele><time>2026-05-01T06:59:10.973Z</time></trkpt><trkpt lat="40.7309703" lon="14.8717268"><ele>627.0</ele><time>2026-05-01T06:59:11.968Z</time></trkpt><trkpt lat="40.7309756" lon="14.8718652"><ele>628.0</ele><time>2026-05-01T06:59:13.045Z</time></trkpt><trkpt lat="40.7309893" lon="14.8719623"><ele>629.0</ele><time>2026-05-01T06:59:14.037Z</time></trkpt><trkpt lat="40.7310069" lon="14.8720631"><ele>630.0</ele><time>2026-05-01T06:59:14.972Z</time></trkpt><trkpt lat="40.7310591" lon="14.8721374"><ele>631.0</ele><time>2026-05-01T06:59:15.967Z</time></trkpt><trkpt lat="40.731137" lon="14.872181"><ele>632.0</ele><time>2026-05-01T06:59:16.963Z</time></trkpt><trkpt lat="40.7312487" lon="14.8721167"><ele>632.0</ele><time>2026-05-01T06:59:18.969Z</time></trkpt><trkpt lat="40.7313291" lon="14.8719612"><ele>632.0</ele><time>2026-05-01T06:59:19.963Z</time></trkpt><trkpt lat="40.7313973" lon="14.8717883"><ele>632.0</ele><time>2026-05-01T06:59:20.961Z</time></trkpt><trkpt lat="40.7314576" lon="14.8716363"><ele>632.0</ele><time>2026-05-01T06:59:21.962Z</time></trkpt><trkpt lat="40.7315148" lon="14.8715031"><ele>632.0</ele><time>2026-05-01T06:59:22.966Z</time></trkpt><trkpt lat="40.7315747" lon="14.8714003"><ele>632.0</ele><time>2026-05-01T06:59:23.96Z</time></trkpt><trkpt lat="40.7316425" lon="14.8713295"><ele>632.0</ele><time>2026-05-01T06:59:24.953Z</time></trkpt><trkpt lat="40.7317184" lon="14.8713112"><ele>632.0</ele><time>2026-05-01T06:59:25.958Z</time></trkpt><trkpt lat="40.7318004" lon="14.8712953"><ele>632.0</ele><time>2026-05-01T06:59:26.969Z</time></trkpt><trkpt lat="40.7318935" lon="14.8712886"><ele>632.0</ele><time>2026-05-01T06:59:27.969Z</time></trkpt><trkpt lat="40.7319954" lon="14.8712901"><ele>632.0</ele><time>2026-05-01T06:59:29.028Z</time></trkpt><trkpt lat="40.7321085" lon="14.871287"><ele>632.0</ele><time>2026-05-01T06:59:29.959Z</time></trkpt><trkpt lat="40.7322181" lon="14.8712665"><ele>632.0</ele><time>2026-05-01T06:59:30.968Z</time></trkpt><trkpt lat="40.7323298" lon="14.8712194"><ele>632.0</ele><time>2026-05-01T06:59:31.961Z</time></trkpt><trkpt lat="40.7324421" lon="14.8711571"><ele>632.0</ele><time>2026-05-01T06:59:32.96Z</time></trkpt><trkpt lat="40.7325461" lon="14.8710986"><ele>632.0</ele><time>2026-05-01T06:59:33.967Z</time></trkpt><trkpt lat="40.7326329" lon="14.8710479"><ele>632.0</ele><time>2026-05-01T06:59:35.014Z</time></trkpt><trkpt lat="40.7327046" lon="14.8709868"><ele>632.0</ele><time>2026-05-01T06:59:36.058Z</time></trkpt><trkpt lat="40.7327534" lon="14.870896"><ele>632.0</ele><time>2026-05-01T06:59:37.039Z</time></trkpt><trkpt lat="40.7328132" lon="14.8707704"><ele>631.0</ele><time>2026-05-01T06:59:37.962Z</time></trkpt><trkpt lat="40.7328642" lon="14.8706466"><ele>630.0</ele><time>2026-05-01T06:59:39.026Z</time></trkpt><trkpt lat="40.7329163" lon="14.8705534"><ele>629.0</ele><time>2026-05-01T06:59:39.979Z</time></trkpt><trkpt lat="40.733013" lon="14.8704757"><ele>628.0</ele><time>2026-05-01T06:59:42.038Z</time></trkpt><trkpt lat="40.7330776" lon="14.8704042"><ele>627.0</ele><time>2026-05-01T06:59:43.028Z</time></trkpt><trkpt lat="40.7331343" lon="14.8703061"><ele>627.0</ele><time>2026-05-01T06:59:44.04Z</time></trkpt><trkpt lat="40.7331885" lon="14.8702021"><ele>627.0</ele><time>2026-05-01T06:59:44.962Z</time></trkpt><trkpt lat="40.7332532" lon="14.8701431"><ele>627.0</ele><time>2026-05-01T06:59:47.068Z</time></trkpt><trkpt lat="40.7333378" lon="14.8701723"><ele>627.0</ele><time>2026-05-01T06:59:48.965Z</time></trkpt><trkpt lat="40.7334279" lon="14.8701907"><ele>627.0</ele><time>2026-05-01T06:59:51.024Z</time></trkpt><trkpt lat="40.7334935" lon="14.8701665"><ele>627.0</ele><time>2026-05-01T06:59:52.03Z</time></trkpt><trkpt lat="40.7335566" lon="14.8701327"><ele>628.6666666666666</ele><time>2026-05-01T06:59:53.022Z</time></trkpt><trkpt lat="40.7336207" lon="14.870097"><ele>630.3333333333334</ele><time>2026-05-01T06:59:53.981Z</time></trkpt><trkpt lat="40.7336973" lon="14.8700819"><ele>632.0</ele><time>2026-05-01T06:59:54.994Z</time></trkpt><trkpt lat="40.7337766" lon="14.8700824"><ele>633.6666666666667</ele><time>2026-05-01T06:59:55.964Z</time></trkpt><trkpt lat="40.733849" lon="14.8700848"><ele>635.3333333333334</ele><time>2026-05-01T06:59:56.973Z</time></trkpt><trkpt lat="40.7339362" lon="14.8701099"><ele>637.0</ele><time>2026-05-01T06:59:58.972Z</time></trkpt><trkpt lat="40.7339822" lon="14.8702136"><ele>637.0</ele><time>2026-05-01T07:00:01.962Z</time></trkpt><trkpt lat="40.733993" lon="14.870304"><ele>637.0</ele><time>2026-05-01T07:00:03.059Z</time></trkpt><trkpt lat="40.7340215" lon="14.8704162"><ele>637.0</ele><time>2026-05-01T07:00:03.969Z</time></trkpt><trkpt lat="40.7340616" lon="14.8705098"><ele>637.0</ele><time>2026-05-01T07:00:04.972Z</time></trkpt><trkpt lat="40.7341199" lon="14.8705783"><ele>637.0</ele><time>2026-05-01T07:00:05.952Z</time></trkpt><trkpt lat="40.734188" lon="14.870644"><ele>637.0</ele><time>2026-05-01T07:00:06.97Z</time></trkpt><trkpt lat="40.7342528" lon="14.8707226"><ele>637.0</ele><time>2026-05-01T07:00:07.971Z</time></trkpt><trkpt lat="40.7343251" lon="14.8708066"><ele>637.0</ele><time>2026-05-01T07:00:08.967Z</time></trkpt><trkpt lat="40.7343952" lon="14.8708687"><ele>637.0</ele><time>2026-05-01T07:00:09.964Z</time></trkpt><trkpt lat="40.7344702" lon="14.8709208"><ele>637.0</ele><time>2026-05-01T07:00:10.967Z</time></trkpt><trkpt lat="40.7345518" lon="14.8709508"><ele>637.0</ele><time>2026-05-01T07:00:12.05Z</time></trkpt><trkpt lat="40.7346324" lon="14.8709435"><ele>637.0</ele><time>2026-05-01T07:00:13.035Z</time></trkpt><trkpt lat="40.7347209" lon="14.870904"><ele>636.4</ele><time>2026-05-01T07:00:14.032Z</time></trkpt><trkpt lat="40.7348074" lon="14.8708386"><ele>635.8000000000001</ele><time>2026-05-01T07:00:14.98Z</time></trkpt><trkpt lat="40.7348842" lon="14.870752"><ele>635.2</ele><time>2026-05-01T07:00:15.987Z</time></trkpt><trkpt lat="40.7349458" lon="14.8706576"><ele>634.6</ele><time>2026-05-01T07:00:16.985Z</time></trkpt><trkpt lat="40.7349777" lon="14.8705568"><ele>634.0</ele><time>2026-05-01T07:00:17.964Z</time></trkpt><trkpt lat="40.734998" lon="14.8704531"><ele>634.0</ele><time>2026-05-01T07:00:18.988Z</time></trkpt><trkpt lat="40.7350299" lon="14.8703499"><ele>634.0</ele><time>2026-05-01T07:00:19.985Z</time></trkpt><trkpt lat="40.7350807" lon="14.8702679"><ele>634.0</ele><time>2026-05-01T07:00:20.987Z</time></trkpt><trkpt lat="40.7351314" lon="14.8702022"><ele>634.0</ele><time>2026-05-01T07:00:22.072Z</time></trkpt><trkpt lat="40.7351696" lon="14.8701309"><ele>634.0</ele><time>2026-05-01T07:00:22.994Z</time></trkpt><trkpt lat="40.7351919" lon="14.8700297"><ele>634.0</ele><time>2026-05-01T07:00:23.989Z</time></trkpt><trkpt lat="40.7351993" lon="14.8699006"><ele>637.4</ele><time>2026-05-01T07:00:24.981Z</time></trkpt><trkpt lat="40.7352097" lon="14.869782"><ele>640.8</ele><time>2026-05-01T07:00:25.978Z</time></trkpt><trkpt lat="40.7352869" lon="14.869628"><ele>644.1999999999999</ele><time>2026-05-01T07:00:27.982Z</time></trkpt><trkpt lat="40.7353267" lon="14.8695487"><ele>647.5999999999999</ele><time>2026-05-01T07:00:29.043Z</time></trkpt><trkpt lat="40.7354011" lon="14.8694547"><ele>651.0</ele><time>2026-05-01T07:00:30.995Z</time></trkpt><trkpt lat="40.7355228" lon="14.8693338"><ele>649.1999999999999</ele><time>2026-05-01T07:00:33.001Z</time></trkpt><trkpt lat="40.7356024" lon="14.8692371"><ele>647.4</ele><time>2026-05-01T07:00:33.987Z</time></trkpt><trkpt lat="40.7356744" lon="14.8691107"><ele>645.6</ele><time>2026-05-01T07:00:34.981Z</time></trkpt><trkpt lat="40.7357209" lon="14.8690179"><ele>643.8</ele><time>2026-05-01T07:00:35.993Z</time></trkpt><trkpt lat="40.73581" lon="14.8689917"><ele>642.0</ele><time>2026-05-01T07:00:38.988Z</time></trkpt><trkpt lat="40.7359443" lon="14.8690449"><ele>642.0</ele><time>2026-05-01T07:00:40.991Z</time></trkpt><trkpt lat="40.7360391" lon="14.8690609"><ele>642.0</ele><time>2026-05-01T07:00:42.006Z</time></trkpt><trkpt lat="40.7361374" lon="14.8690737"><ele>642.0</ele><time>2026-05-01T07:00:43.051Z</time></trkpt><trkpt lat="40.7362295" lon="14.8690808"><ele>642.0</ele><time>2026-05-01T07:00:44.035Z</time></trkpt><trkpt lat="40.7363116" lon="14.8690455"><ele>642.0</ele><time>2026-05-01T07:00:44.979Z</time></trkpt><trkpt lat="40.7363573" lon="14.8689729"><ele>642.0</ele><time>2026-05-01T07:00:45.985Z</time></trkpt><trkpt lat="40.7364003" lon="14.8688603"><ele>639.6</ele><time>2026-05-01T07:00:46.985Z</time></trkpt><trkpt lat="40.7364427" lon="14.8687289"><ele>637.2</ele><time>2026-05-01T07:00:47.981Z</time></trkpt><trkpt lat="40.7364677" lon="14.8686171"><ele>634.8</ele><time>2026-05-01T07:00:48.976Z</time></trkpt><trkpt lat="40.7364733" lon="14.8684991"><ele>632.4</ele><time>2026-05-01T07:00:49.978Z</time></trkpt><trkpt lat="40.7364706" lon="14.8683833"><ele>630.0</ele><time>2026-05-01T07:00:50.973Z</time></trkpt><trkpt lat="40.7364562" lon="14.8682755"><ele>630.0</ele><time>2026-05-01T07:00:51.976Z</time></trkpt><trkpt lat="40.7364225" lon="14.8681737"><ele>630.0</ele><time>2026-05-01T07:00:52.979Z</time></trkpt><trkpt lat="40.7363881" lon="14.8680913"><ele>630.0</ele><time>2026-05-01T07:00:53.968Z</time></trkpt><trkpt lat="40.7363743" lon="14.8679814"><ele>630.0</ele><time>2026-05-01T07:00:56.983Z</time></trkpt><trkpt lat="40.7364588" lon="14.8679327"><ele>630.0</ele><time>2026-05-01T07:00:58.986Z</time></trkpt><trkpt lat="40.736547" lon="14.8678451"><ele>630.0</ele><time>2026-05-01T07:01:00.984Z</time></trkpt><trkpt lat="40.7366223" lon="14.8677711"><ele>630.0</ele><time>2026-05-01T07:01:02.048Z</time></trkpt><trkpt lat="40.736712" lon="14.867709"><ele>630.0</ele><time>2026-05-01T07:01:03.034Z</time></trkpt><trkpt lat="40.7368202" lon="14.8676668"><ele>630.0</ele><time>2026-05-01T07:01:04.055Z</time></trkpt><trkpt lat="40.7369174" lon="14.8676131"><ele>630.0</ele><time>2026-05-01T07:01:04.96Z</time></trkpt><trkpt lat="40.7369874" lon="14.8675509"><ele>630.0</ele><time>2026-05-01T07:01:05.95Z</time></trkpt><trkpt lat="40.7370444" lon="14.8674414"><ele>624.8333333333334</ele><time>2026-05-01T07:01:06.968Z</time></trkpt><trkpt lat="40.7370621" lon="14.8673272"><ele>619.6666666666666</ele><time>2026-05-01T07:01:07.969Z</time></trkpt><trkpt lat="40.7370552" lon="14.8672174"><ele>614.5</ele><time>2026-05-01T07:01:08.968Z</time></trkpt><trkpt lat="40.737022" lon="14.8671184"><ele>609.3333333333333</ele><time>2026-05-01T07:01:09.958Z</time></trkpt><trkpt lat="40.7369915" lon="14.8670279"><ele>604.1666666666666</ele><time>2026-05-01T07:01:11.029Z</time></trkpt><trkpt lat="40.7369769" lon="14.8668911"><ele>599.0</ele><time>2026-05-01T07:01:12.968Z</time></trkpt><trkpt lat="40.7369767" lon="14.8668021"><ele>604.0</ele><time>2026-05-01T07:01:13.963Z</time></trkpt><trkpt lat="40.7369709" lon="14.8667191"><ele>609.0</ele><time>2026-05-01T07:01:14.966Z</time></trkpt><trkpt lat="40.7370195" lon="14.8666049"><ele>614.0</ele><time>2026-05-01T07:01:16.97Z</time></trkpt><trkpt lat="40.737114" lon="14.8665368"><ele>619.0</ele><time>2026-05-01T07:01:18.965Z</time></trkpt><trkpt lat="40.7371792" lon="14.866532"><ele>624.0</ele><time>2026-05-01T07:01:19.944Z</time></trkpt><trkpt lat="40.7372482" lon="14.8665254"><ele>629.0</ele><time>2026-05-01T07:01:20.967Z</time></trkpt><trkpt lat="40.7373297" lon="14.8664892"><ele>629.0</ele><time>2026-05-01T07:01:21.968Z</time></trkpt><trkpt lat="40.737438" lon="14.8664094"><ele>629.0</ele><time>2026-05-01T07:01:22.989Z</time></trkpt><trkpt lat="40.7375377" lon="14.866316"><ele>629.0</ele><time>2026-05-01T07:01:23.956Z</time></trkpt><trkpt lat="40.7376325" lon="14.8662322"><ele>629.0</ele><time>2026-05-01T07:01:24.961Z</time></trkpt><trkpt lat="40.7377091" lon="14.8661828"><ele>629.0</ele><time>2026-05-01T07:01:25.961Z</time></trkpt><trkpt lat="40.7377717" lon="14.866137"><ele>629.3333333333333</ele><time>2026-05-01T07:01:26.963Z</time></trkpt><trkpt lat="40.7378319" lon="14.8660709"><ele>629.6666666666666</ele><time>2026-05-01T07:01:27.968Z</time></trkpt><trkpt lat="40.7379143" lon="14.865991"><ele>630.0</ele><time>2026-05-01T07:01:28.97Z</time></trkpt><trkpt lat="40.7379896" lon="14.8659284"><ele>630.3333333333334</ele><time>2026-05-01T07:01:29.969Z</time></trkpt><trkpt lat="40.738056" lon="14.8658732"><ele>630.6666666666667</ele><time>2026-05-01T07:01:30.97Z</time></trkpt><trkpt lat="40.7381185" lon="14.8658027"><ele>631.0</ele><time>2026-05-01T07:01:31.965Z</time></trkpt><trkpt lat="40.7381896" lon="14.8657034"><ele>631.0</ele><time>2026-05-01T07:01:32.968Z</time></trkpt><trkpt lat="40.7382606" lon="14.865578"><ele>631.0</ele><time>2026-05-01T07:01:33.97Z</time></trkpt><trkpt lat="40.7383123" lon="14.8655131"><ele>631.0</ele><time>2026-05-01T07:01:34.973Z</time></trkpt><trkpt lat="40.7383943" lon="14.8654676"><ele>631.0</ele><time>2026-05-01T07:01:36.966Z</time></trkpt><trkpt lat="40.7385054" lon="14.8654027"><ele>631.0</ele><time>2026-05-01T07:01:38.958Z</time></trkpt><trkpt lat="40.7385729" lon="14.8653344"><ele>631.1666666666667</ele><time>2026-05-01T07:01:39.966Z</time></trkpt><trkpt lat="40.7386218" lon="14.8652515"><ele>631.3333333333334</ele><time>2026-05-01T07:01:40.959Z</time></trkpt><trkpt lat="40.73865" lon="14.8651639"><ele>631.5</ele><time>2026-05-01T07:01:42.022Z</time></trkpt><trkpt lat="40.7386825" lon="14.8650104"><ele>631.6666666666666</ele><time>2026-05-01T07:01:43.962Z</time></trkpt><trkpt lat="40.7386777" lon="14.8648986"><ele>631.8333333333333</ele><time>2026-05-01T07:01:45.965Z</time></trkpt><trkpt lat="40.7387256" lon="14.8648347"><ele>632.0</ele><time>2026-05-01T07:01:51.052Z</time></trkpt><trkpt lat="40.7388283" lon="14.8648508"><ele>636.6666666666666</ele><time>2026-05-01T07:01:52.967Z</time></trkpt><trkpt lat="40.7389022" lon="14.864877"><ele>641.3333333333333</ele><time>2026-05-01T07:01:53.965Z</time></trkpt><trkpt lat="40.7389762" lon="14.8649127"><ele>646.0</ele><time>2026-05-01T07:01:54.964Z</time></trkpt><trkpt lat="40.7390475" lon="14.8649564"><ele>650.6666666666666</ele><time>2026-05-01T07:01:55.962Z</time></trkpt><trkpt lat="40.7391256" lon="14.864998"><ele>655.3333333333334</ele><time>2026-05-01T07:01:57.03Z</time></trkpt><trkpt lat="40.7392114" lon="14.8650221"><ele>660.0</ele><time>2026-05-01T07:01:58.032Z</time></trkpt><trkpt lat="40.7392775" lon="14.8650273"><ele>660.0</ele><time>2026-05-01T07:01:58.972Z</time></trkpt><trkpt lat="40.7393488" lon="14.8650158"><ele>660.0</ele><time>2026-05-01T07:01:59.971Z</time></trkpt><trkpt lat="40.7394305" lon="14.8650035"><ele>660.0</ele><time>2026-05-01T07:02:01.017Z</time></trkpt><trkpt lat="40.7395092" lon="14.8649644"><ele>660.0</ele><time>2026-05-01T07:02:02.962Z</time></trkpt><trkpt lat="40.7394659" lon="14.8648803"><ele>660.0</ele><time>2026-05-01T07:02:06.971Z</time></trkpt><trkpt lat="40.7395036" lon="14.8647828"><ele>660.0</ele><time>2026-05-01T07:02:09.965Z</time></trkpt><trkpt lat="40.7396126" lon="14.8648084"><ele>666.0</ele><time>2026-05-01T07:02:11.969Z</time></trkpt><trkpt lat="40.7396905" lon="14.8648341"><ele>672.0</ele><time>2026-05-01T07:02:12.974Z</time></trkpt><trkpt lat="40.7397707" lon="14.8648505"><ele>678.0</ele><time>2026-05-01T07:02:13.972Z</time></trkpt><trkpt lat="40.7398525" lon="14.8648482"><ele>684.0</ele><time>2026-05-01T07:02:14.963Z</time></trkpt><trkpt lat="40.7399374" lon="14.8648457"><ele>690.0</ele><time>2026-05-01T07:02:16.042Z</time></trkpt><trkpt lat="40.7400116" lon="14.8648301"><ele>696.0</ele><time>2026-05-01T07:02:16.963Z</time></trkpt><trkpt lat="40.740079" lon="14.8648094"><ele>696.0</ele><time>2026-05-01T07:02:17.939Z</time></trkpt><trkpt lat="40.7401423" lon="14.8647763"><ele>696.0</ele><time>2026-05-01T07:02:18.974Z</time></trkpt><trkpt lat="40.7402396" lon="14.864646"><ele>696.0</ele><time>2026-05-01T07:02:20.966Z</time></trkpt><trkpt lat="40.7402862" lon="14.8645556"><ele>696.0</ele><time>2026-05-01T07:02:21.995Z</time></trkpt><trkpt lat="40.7403236" lon="14.8644802"><ele>696.0</ele><time>2026-05-01T07:02:22.961Z</time></trkpt><trkpt lat="40.7403279" lon="14.8643922"><ele>696.0</ele><time>2026-05-01T07:02:23.973Z</time></trkpt><trkpt lat="40.7403288" lon="14.8643018"><ele>695.6666666666666</ele><time>2026-05-01T07:02:24.965Z</time></trkpt><trkpt lat="40.7403137" lon="14.8642148"><ele>695.3333333333334</ele><time>2026-05-01T07:02:25.958Z</time></trkpt><trkpt lat="40.7403054" lon="14.8640872"><ele>695.0</ele><time>2026-05-01T07:02:27.956Z</time></trkpt><trkpt lat="40.7403567" lon="14.8640327"><ele>694.6666666666667</ele><time>2026-05-01T07:02:29.971Z</time></trkpt><trkpt lat="40.7404273" lon="14.8640145"><ele>694.3333333333334</ele><time>2026-05-01T07:02:30.968Z</time></trkpt><trkpt lat="40.740505" lon="14.864002"><ele>694.0</ele><time>2026-05-01T07:02:32.08Z</time></trkpt><trkpt lat="40.7406014" lon="14.8640034"><ele>694.0</ele><time>2026-05-01T07:02:33.022Z</time></trkpt><trkpt lat="40.7406945" lon="14.8639731"><ele>694.0</ele><time>2026-05-01T07:02:33.96Z</time></trkpt><trkpt lat="40.7407805" lon="14.8639601"><ele>694.0</ele><time>2026-05-01T07:02:34.957Z</time></trkpt><trkpt lat="40.7408645" lon="14.8639483"><ele>694.0</ele><time>2026-05-01T07:02:35.973Z</time></trkpt><trkpt lat="40.7409517" lon="14.8639367"><ele>694.0</ele><time>2026-05-01T07:02:36.949Z</time></trkpt><trkpt lat="40.7410354" lon="14.8639222"><ele>694.0</ele><time>2026-05-01T07:02:37.965Z</time></trkpt><trkpt lat="40.7411058" lon="14.8638969"><ele>689.8000000000001</ele><time>2026-05-01T07:02:38.977Z</time></trkpt><trkpt lat="40.7411874" lon="14.863843"><ele>685.6</ele><time>2026-05-01T07:02:39.97Z</time></trkpt><trkpt lat="40.741256" lon="14.8637602"><ele>681.4</ele><time>2026-05-01T07:02:40.958Z</time></trkpt><trkpt lat="40.7413161" lon="14.863676"><ele>677.2</ele><time>2026-05-01T07:02:41.958Z</time></trkpt><trkpt lat="40.7413842" lon="14.8635774"><ele>673.0</ele><time>2026-05-01T07:02:43.049Z</time></trkpt><trkpt lat="40.7414563" lon="14.8634679"><ele>673.6666666666667</ele><time>2026-05-01T07:02:44.017Z</time></trkpt><trkpt lat="40.7414952" lon="14.8633671"><ele>674.3333333333334</ele><time>2026-05-01T07:02:44.971Z</time></trkpt><trkpt lat="40.7415048" lon="14.8632838"><ele>675.0</ele><time>2026-05-01T07:02:45.963Z</time></trkpt><trkpt lat="40.7415041" lon="14.8631914"><ele>675.6666666666666</ele><time>2026-05-01T07:02:46.97Z</time></trkpt><trkpt lat="40.7415049" lon="14.863088"><ele>676.3333333333333</ele><time>2026-05-01T07:02:48.022Z</time></trkpt><trkpt lat="40.7414933" lon="14.862979"><ele>677.0</ele><time>2026-05-01T07:02:49.02Z</time></trkpt><trkpt lat="40.7414671" lon="14.8628807"><ele>677.0</ele><time>2026-05-01T07:02:49.962Z</time></trkpt><trkpt lat="40.7414336" lon="14.8627929"><ele>677.0</ele><time>2026-05-01T07:02:50.969Z</time></trkpt><trkpt lat="40.7413658" lon="14.86267"><ele>677.0</ele><time>2026-05-01T07:02:53.041Z</time></trkpt><trkpt lat="40.7413132" lon="14.862618"><ele>677.0</ele><time>2026-05-01T07:02:54.022Z</time></trkpt><trkpt lat="40.7412617" lon="14.8625683"><ele>677.0</ele><time>2026-05-01T07:02:54.968Z</time></trkpt><trkpt lat="40.7411905" lon="14.8625191"><ele>677.0</ele><time>2026-05-01T07:02:57.039Z</time></trkpt><trkpt lat="40.7412691" lon="14.8625109"><ele>676.6</ele><time>2026-05-01T07:03:01.02Z</time></trkpt><trkpt lat="40.7413534" lon="14.8625073"><ele>676.2</ele><time>2026-05-01T07:03:03.047Z</time></trkpt><trkpt lat="40.7414159" lon="14.862443"><ele>675.8</ele><time>2026-05-01T07:04:35.974Z</time></trkpt><trkpt lat="40.7414972" lon="14.8624339"><ele>675.4</ele><time>2026-05-01T07:04:38.966Z</time></trkpt><trkpt lat="40.7416285" lon="14.8623874"><ele>675.0</ele><time>2026-05-01T07:04:40.976Z</time></trkpt><trkpt lat="40.7417037" lon="14.8623219"><ele>675.0</ele><time>2026-05-01T07:04:41.971Z</time></trkpt><trkpt lat="40.7417592" lon="14.8621989"><ele>675.0</ele><time>2026-05-01T07:04:42.97Z</time></trkpt><trkpt lat="40.7417951" lon="14.8620702"><ele>675.0</ele><time>2026-05-01T07:04:43.971Z</time></trkpt><trkpt lat="40.7418332" lon="14.861957"><ele>675.0</ele><time>2026-05-01T07:04:44.961Z</time></trkpt><trkpt lat="40.7418739" lon="14.8618745"><ele>675.0</ele><time>2026-05-01T07:04:45.967Z</time></trkpt><trkpt lat="40.7419209" lon="14.8617907"><ele>672.1666666666666</ele><time>2026-05-01T07:04:46.967Z</time></trkpt><trkpt lat="40.7419635" lon="14.8617033"><ele>669.3333333333334</ele><time>2026-05-01T07:04:47.973Z</time></trkpt><trkpt lat="40.7419728" lon="14.8615857"><ele>666.5</ele><time>2026-05-01T07:04:48.97Z</time></trkpt><trkpt lat="40.7419466" lon="14.8614726"><ele>663.6666666666667</ele><time>2026-05-01T07:04:49.965Z</time></trkpt><trkpt lat="40.7419288" lon="14.8613683"><ele>660.8333333333334</ele><time>2026-05-01T07:04:50.962Z</time></trkpt><trkpt lat="40.7419106" lon="14.8612642"><ele>658.0</ele><time>2026-05-01T07:04:51.961Z</time></trkpt><trkpt lat="40.7418835" lon="14.8611576"><ele>664.0</ele><time>2026-05-01T07:04:52.972Z</time></trkpt><trkpt lat="40.7418535" lon="14.8610556"><ele>670.0</ele><time>2026-05-01T07:04:53.977Z</time></trkpt><trkpt lat="40.7418085" lon="14.8609478"><ele>676.0</ele><time>2026-05-01T07:04:54.961Z</time></trkpt><trkpt lat="40.7417612" lon="14.8608302"><ele>682.0</ele><time>2026-05-01T07:04:55.972Z</time></trkpt><trkpt lat="40.7417259" lon="14.860737"><ele>688.0</ele><time>2026-05-01T07:04:56.964Z</time></trkpt><trkpt lat="40.7417219" lon="14.8606018"><ele>689.1666666666667</ele><time>2026-05-01T07:04:58.965Z</time></trkpt><trkpt lat="40.7417919" lon="14.8605471"><ele>690.3333333333334</ele><time>2026-05-01T07:05:00.966Z</time></trkpt><trkpt lat="40.7418802" lon="14.8605727"><ele>691.5</ele><time>2026-05-01T07:05:01.959Z</time></trkpt><trkpt lat="40.7419627" lon="14.8606093"><ele>692.6666666666666</ele><time>2026-05-01T07:05:02.971Z</time></trkpt><trkpt lat="40.7420449" lon="14.8606502"><ele>693.8333333333333</ele><time>2026-05-01T07:05:03.961Z</time></trkpt><trkpt lat="40.7421242" lon="14.860681"><ele>695.0</ele><time>2026-05-01T07:05:04.967Z</time></trkpt><trkpt lat="40.742202" lon="14.8607112"><ele>692.1666666666666</ele><time>2026-05-01T07:05:06.035Z</time></trkpt><trkpt lat="40.742289" lon="14.8607569"><ele>689.3333333333333</ele><time>2026-05-01T07:05:07.014Z</time></trkpt><trkpt lat="40.7423626" lon="14.8608255"><ele>686.5</ele><time>2026-05-01T07:05:08.022Z</time></trkpt><trkpt lat="40.7424198" lon="14.8608849"><ele>683.6666666666666</ele><time>2026-05-01T07:05:09.042Z</time></trkpt><trkpt lat="40.7424715" lon="14.8609514"><ele>680.8333333333334</ele><time>2026-05-01T07:05:09.964Z</time></trkpt><trkpt lat="40.7425298" lon="14.8610098"><ele>678.0</ele><time>2026-05-01T07:05:10.971Z</time></trkpt><trkpt lat="40.7425962" lon="14.8610537"><ele>674.6666666666666</ele><time>2026-05-01T07:05:12.066Z</time></trkpt><trkpt lat="40.742669" lon="14.8611002"><ele>671.3333333333334</ele><time>2026-05-01T07:05:13.022Z</time></trkpt><trkpt lat="40.7427406" lon="14.8611432"><ele>668.0</ele><time>2026-05-01T07:05:14.016Z</time></trkpt><trkpt lat="40.7428256" lon="14.8611852"><ele>664.6666666666667</ele><time>2026-05-01T07:05:14.958Z</time></trkpt><trkpt lat="40.7429108" lon="14.8612059"><ele>661.3333333333334</ele><time>2026-05-01T07:05:15.968Z</time></trkpt><trkpt lat="40.7429688" lon="14.8611707"><ele>658.0</ele><time>2026-05-01T07:05:17.042Z</time></trkpt><trkpt lat="40.743053" lon="14.8610653"><ele>657.3333333333334</ele><time>2026-05-01T07:05:19.027Z</time></trkpt><trkpt lat="40.7430933" lon="14.8609934"><ele>656.6666666666667</ele><time>2026-05-01T07:05:19.966Z</time></trkpt><trkpt lat="40.7431302" lon="14.8609128"><ele>656.0</ele><time>2026-05-01T07:05:20.963Z</time></trkpt><trkpt lat="40.7431664" lon="14.8608289"><ele>655.3333333333334</ele><time>2026-05-01T07:05:21.959Z</time></trkpt><trkpt lat="40.7432078" lon="14.8607082"><ele>654.6666666666666</ele><time>2026-05-01T07:05:22.95Z</time></trkpt><trkpt lat="40.7432606" lon="14.8605532"><ele>654.0</ele><time>2026-05-01T07:05:23.959Z</time></trkpt><trkpt lat="40.7433122" lon="14.8604337"><ele>657.0</ele><time>2026-05-01T07:05:24.97Z</time></trkpt><trkpt lat="40.7433518" lon="14.8603278"><ele>660.0</ele><time>2026-05-01T07:05:25.961Z</time></trkpt><trkpt lat="40.743388" lon="14.8602286"><ele>663.0</ele><time>2026-05-01T07:05:27.025Z</time></trkpt><trkpt lat="40.7434113" lon="14.8601347"><ele>666.0</ele><time>2026-05-01T07:05:28.04Z</time></trkpt><trkpt lat="40.7434165" lon="14.8600399"><ele>669.0</ele><time>2026-05-01T07:05:29.014Z</time></trkpt><trkpt lat="40.7433942" lon="14.8599553"><ele>672.0</ele><time>2026-05-01T07:05:29.949Z</time></trkpt><trkpt lat="40.7433392" lon="14.8598275"><ele>673.0</ele><time>2026-05-01T07:05:31.963Z</time></trkpt><trkpt lat="40.7432962" lon="14.8597515"><ele>674.0</ele><time>2026-05-01T07:05:32.967Z</time></trkpt><trkpt lat="40.7432505" lon="14.8596695"><ele>675.0</ele><time>2026-05-01T07:05:33.975Z</time></trkpt><trkpt lat="40.7432062" lon="14.8595537"><ele>676.0</ele><time>2026-05-01T07:05:36.01Z</time></trkpt><trkpt lat="40.7431662" lon="14.8594736"><ele>677.0</ele><time>2026-05-01T07:05:37.978Z</time></trkpt><trkpt lat="40.7430999" lon="14.8594049"><ele>678.0</ele><time>2026-05-01T07:05:39.966Z</time></trkpt><trkpt lat="40.7430466" lon="14.8593484"><ele>678.0</ele><time>2026-05-01T07:05:40.968Z</time></trkpt><trkpt lat="40.7429891" lon="14.8592991"><ele>678.0</ele><time>2026-05-01T07:05:41.963Z</time></trkpt><trkpt lat="40.7429342" lon="14.8592449"><ele>678.0</ele><time>2026-05-01T07:05:42.972Z</time></trkpt><trkpt lat="40.7428882" lon="14.859176"><ele>678.0</ele><time>2026-05-01T07:05:43.974Z</time></trkpt><trkpt lat="40.7428515" lon="14.8591002"><ele>678.0</ele><time>2026-05-01T07:05:44.943Z</time></trkpt><trkpt lat="40.7427869" lon="14.8589671"><ele>678.0</ele><time>2026-05-01T07:05:46.964Z</time></trkpt><trkpt lat="40.7427385" lon="14.8589116"><ele>683.5</ele><time>2026-05-01T07:05:47.972Z</time></trkpt><trkpt lat="40.7426515" lon="14.8588018"><ele>689.0</ele><time>2026-05-01T07:05:49.962Z</time></trkpt><trkpt lat="40.7426063" lon="14.8587277"><ele>694.5</ele><time>2026-05-01T07:05:50.971Z</time></trkpt><trkpt lat="40.7425591" lon="14.8586504"><ele>700.0</ele><time>2026-05-01T07:05:51.963Z</time></trkpt><trkpt lat="40.7425042" lon="14.8585554"><ele>705.5</ele><time>2026-05-01T07:05:52.963Z</time></trkpt><trkpt lat="40.7424611" lon="14.8584497"><ele>711.0</ele><time>2026-05-01T07:05:53.965Z</time></trkpt><trkpt lat="40.7424274" lon="14.8583542"><ele>711.0</ele><time>2026-05-01T07:05:54.965Z</time></trkpt><trkpt lat="40.7423655" lon="14.858287"><ele>711.0</ele><time>2026-05-01T07:05:56.968Z</time></trkpt><trkpt lat="40.7424707" lon="14.8582142"><ele>711.0</ele><time>2026-05-01T07:05:59.972Z</time></trkpt><trkpt lat="40.742548" lon="14.8581858"><ele>711.0</ele><time>2026-05-01T07:06:00.97Z</time></trkpt><trkpt lat="40.7426319" lon="14.858162"><ele>711.0</ele><time>2026-05-01T07:06:01.965Z</time></trkpt><trkpt lat="40.7427264" lon="14.8581572"><ele>704.4</ele><time>2026-05-01T07:06:02.959Z</time></trkpt><trkpt lat="40.7428085" lon="14.8581697"><ele>697.8</ele><time>2026-05-01T07:06:03.96Z</time></trkpt><trkpt lat="40.7429074" lon="14.8581566"><ele>691.1999999999999</ele><time>2026-05-01T07:06:05.958Z</time></trkpt><trkpt lat="40.7429484" lon="14.8580417"><ele>684.5999999999999</ele><time>2026-05-01T07:06:07.964Z</time></trkpt><trkpt lat="40.7429491" lon="14.8579182"><ele>678.0</ele><time>2026-05-01T07:06:08.957Z</time></trkpt><trkpt lat="40.7429416" lon="14.8578077"><ele>678.0</ele><time>2026-05-01T07:06:09.96Z</time></trkpt><trkpt lat="40.7429407" lon="14.8577133"><ele>678.0</ele><time>2026-05-01T07:06:10.958Z</time></trkpt><trkpt lat="40.7429644" lon="14.8576102"><ele>678.0</ele><time>2026-05-01T07:06:11.971Z</time></trkpt><trkpt lat="40.7430242" lon="14.8574854"><ele>678.0</ele><time>2026-05-01T07:06:12.971Z</time></trkpt><trkpt lat="40.7430941" lon="14.8573633"><ele>678.0</ele><time>2026-05-01T07:06:13.958Z</time></trkpt><trkpt lat="40.7431587" lon="14.8572386"><ele>681.0</ele><time>2026-05-01T07:06:14.956Z</time></trkpt><trkpt lat="40.7432016" lon="14.8571105"><ele>684.0</ele><time>2026-05-01T07:06:16.027Z</time></trkpt><trkpt lat="40.7432196" lon="14.8569866"><ele>687.0</ele><time>2026-05-01T07:06:17.048Z</time></trkpt><trkpt lat="40.7432257" lon="14.8568618"><ele>690.0</ele><time>2026-05-01T07:06:18.016Z</time></trkpt><trkpt lat="40.7432487" lon="14.8567622"><ele>693.0</ele><time>2026-05-01T07:06:19.014Z</time></trkpt><trkpt lat="40.7433029" lon="14.8566788"><ele>696.2857142857143</ele><time>2026-05-01T07:06:19.947Z</time></trkpt><trkpt lat="40.7433501" lon="14.8565953"><ele>699.5714285714286</ele><time>2026-05-01T07:06:20.953Z</time></trkpt><trkpt lat="40.7433988" lon="14.8565186"><ele>702.8571428571429</ele><time>2026-05-01T07:06:21.955Z</time></trkpt><trkpt lat="40.7434295" lon="14.8564334"><ele>706.1428571428571</ele><time>2026-05-01T07:06:23.016Z</time></trkpt><trkpt lat="40.7434473" lon="14.8563329"><ele>709.4285714285714</ele><time>2026-05-01T07:06:23.97Z</time></trkpt><trkpt lat="40.7434476" lon="14.856239"><ele>712.7142857142858</ele><time>2026-05-01T07:06:24.96Z</time></trkpt><trkpt lat="40.7434588" lon="14.856148"><ele>716.0</ele><time>2026-05-01T07:06:25.97Z</time></trkpt><trkpt lat="40.7434989" lon="14.8560169"><ele>713.8</ele><time>2026-05-01T07:06:27.968Z</time></trkpt><trkpt lat="40.7435757" lon="14.8559993"><ele>711.5999999999999</ele><time>2026-05-01T07:06:29.953Z</time></trkpt><trkpt lat="40.7436873" lon="14.8560942"><ele>709.4</ele><time>2026-05-01T07:06:31.957Z</time></trkpt><trkpt lat="40.7437681" lon="14.8561615"><ele>707.2</ele><time>2026-05-01T07:06:32.965Z</time></trkpt><trkpt lat="40.743856" lon="14.8562439"><ele>705.0</ele><time>2026-05-01T07:06:34.028Z</time></trkpt><trkpt lat="40.7439225" lon="14.8563071"><ele>705.0</ele><time>2026-05-01T07:06:34.96Z</time></trkpt><trkpt lat="40.743994" lon="14.8563332"><ele>705.0</ele><time>2026-05-01T07:06:35.963Z</time></trkpt><trkpt lat="40.7440968" lon="14.8563071"><ele>705.0</ele><time>2026-05-01T07:06:37.971Z</time></trkpt><trkpt lat="40.7441471" lon="14.8561729"><ele>705.0</ele><time>2026-05-01T07:06:39.959Z</time></trkpt><trkpt lat="40.7441429" lon="14.8559766"><ele>705.0</ele><time>2026-05-01T07:06:41.951Z</time></trkpt><trkpt lat="40.7441138" lon="14.8558543"><ele>707.1666666666666</ele><time>2026-05-01T07:06:42.969Z</time></trkpt><trkpt lat="40.7440872" lon="14.8557589"><ele>709.3333333333334</ele><time>2026-05-01T07:06:43.973Z</time></trkpt><trkpt lat="40.7440653" lon="14.8556575"><ele>711.5</ele><time>2026-05-01T07:06:44.971Z</time></trkpt><trkpt lat="40.744058" lon="14.8555568"><ele>713.6666666666667</ele><time>2026-05-01T07:06:45.967Z</time></trkpt><trkpt lat="40.74406" lon="14.8554602"><ele>715.8333333333334</ele><time>2026-05-01T07:06:46.968Z</time></trkpt><trkpt lat="40.7440875" lon="14.8553817"><ele>718.0</ele><time>2026-05-01T07:06:47.968Z</time></trkpt><trkpt lat="40.7441628" lon="14.855299"><ele>718.0</ele><time>2026-05-01T07:06:49.972Z</time></trkpt><trkpt lat="40.7442357" lon="14.8552684"><ele>718.0</ele><time>2026-05-01T07:06:50.963Z</time></trkpt><trkpt lat="40.7443116" lon="14.855201"><ele>718.0</ele><time>2026-05-01T07:06:51.97Z</time></trkpt><trkpt lat="40.7443942" lon="14.85511"><ele>718.0</ele><time>2026-05-01T07:06:52.97Z</time></trkpt><trkpt lat="40.7444713" lon="14.8550088"><ele>718.0</ele><time>2026-05-01T07:06:53.967Z</time></trkpt><trkpt lat="40.7445502" lon="14.8549189"><ele>715.4</ele><time>2026-05-01T07:06:54.97Z</time></trkpt><trkpt lat="40.7446313" lon="14.8548417"><ele>712.8</ele><time>2026-05-01T07:06:55.971Z</time></trkpt><trkpt lat="40.7447082" lon="14.8547675"><ele>710.2</ele><time>2026-05-01T07:06:56.978Z</time></trkpt><trkpt lat="40.744776" lon="14.854664"><ele>707.6</ele><time>2026-05-01T07:06:57.972Z</time></trkpt><trkpt lat="40.744823" lon="14.8545689"><ele>705.0</ele><time>2026-05-01T07:06:58.975Z</time></trkpt><trkpt lat="40.7448668" lon="14.8544539"><ele>705.0</ele><time>2026-05-01T07:07:00.962Z</time></trkpt><trkpt lat="40.7449331" lon="14.8544557"><ele>705.0</ele><time>2026-05-01T07:07:02.967Z</time></trkpt><trkpt lat="40.7450651" lon="14.8545355"><ele>705.0</ele><time>2026-05-01T07:07:04.953Z</time></trkpt><trkpt lat="40.7451442" lon="14.8545588"><ele>705.0</ele><time>2026-05-01T07:07:06.012Z</time></trkpt><trkpt lat="40.74522" lon="14.8545488"><ele>705.0</ele><time>2026-05-01T07:07:07.02Z</time></trkpt><trkpt lat="40.7452844" lon="14.8545008"><ele>705.0</ele><time>2026-05-01T07:07:08.035Z</time></trkpt><trkpt lat="40.7453178" lon="14.854419"><ele>704.8333333333334</ele><time>2026-05-01T07:07:08.945Z</time></trkpt><trkpt lat="40.7453397" lon="14.8543391"><ele>704.6666666666666</ele><time>2026-05-01T07:07:09.968Z</time></trkpt><trkpt lat="40.7453929" lon="14.8542357"><ele>704.5</ele><time>2026-05-01T07:07:11.968Z</time></trkpt><trkpt lat="40.7454805" lon="14.8542275"><ele>704.3333333333333</ele><time>2026-05-01T07:07:12.944Z</time></trkpt><trkpt lat="40.7455896" lon="14.854206"><ele>704.1666666666666</ele><time>2026-05-01T07:07:13.95Z</time></trkpt><trkpt lat="40.7456758" lon="14.8541977"><ele>704.0</ele><time>2026-05-01T07:07:14.958Z</time></trkpt><trkpt lat="40.7457417" lon="14.8542252"><ele>704.0</ele><time>2026-05-01T07:07:15.976Z</time></trkpt><trkpt lat="40.7458097" lon="14.8542819"><ele>704.0</ele><time>2026-05-01T07:07:16.959Z</time></trkpt><trkpt lat="40.7458861" lon="14.854324"><ele>704.0</ele><time>2026-05-01T07:07:17.957Z</time></trkpt><trkpt lat="40.7459552" lon="14.854373"><ele>704.0</ele><time>2026-05-01T07:07:18.97Z</time></trkpt><trkpt lat="40.7460914" lon="14.8544134"><ele>704.0</ele><time>2026-05-01T07:07:20.973Z</time></trkpt><trkpt lat="40.7461667" lon="14.854395"><ele>705.8333333333333</ele><time>2026-05-01T07:07:21.965Z</time></trkpt><trkpt lat="40.7462421" lon="14.854338"><ele>707.6666666666666</ele><time>2026-05-01T07:07:22.94Z</time></trkpt><trkpt lat="40.746283" lon="14.8542723"><ele>709.5</ele><time>2026-05-01T07:07:23.963Z</time></trkpt><trkpt lat="40.7463141" lon="14.8541826"><ele>711.3333333333334</ele><time>2026-05-01T07:07:24.969Z</time></trkpt><trkpt lat="40.7463408" lon="14.8540815"><ele>713.1666666666667</ele><time>2026-05-01T07:07:25.966Z</time></trkpt><trkpt lat="40.7463888" lon="14.8539736"><ele>715.0</ele><time>2026-05-01T07:07:26.972Z</time></trkpt><trkpt lat="40.7464385" lon="14.8538433"><ele>717.8</ele><time>2026-05-01T07:07:27.964Z</time></trkpt><trkpt lat="40.746483" lon="14.8537138"><ele>720.6</ele><time>2026-05-01T07:07:28.962Z</time></trkpt><trkpt lat="40.7465138" lon="14.853606"><ele>723.4000000000001</ele><time>2026-05-01T07:07:29.967Z</time></trkpt><trkpt lat="40.7465819" lon="14.8535191"><ele>726.2</ele><time>2026-05-01T07:07:31.955Z</time></trkpt><trkpt lat="40.7467037" lon="14.8535354"><ele>729.0</ele><time>2026-05-01T07:07:33.966Z</time></trkpt><trkpt lat="40.7467874" lon="14.8535353"><ele>729.0</ele><time>2026-05-01T07:07:34.963Z</time></trkpt><trkpt lat="40.7468657" lon="14.8535103"><ele>729.0</ele><time>2026-05-01T07:07:35.958Z</time></trkpt><trkpt lat="40.7469316" lon="14.8534564"><ele>729.0</ele><time>2026-05-01T07:07:36.944Z</time></trkpt><trkpt lat="40.7469803" lon="14.8533775"><ele>729.0</ele><time>2026-05-01T07:07:37.955Z</time></trkpt><trkpt lat="40.7470367" lon="14.8533141"><ele>729.0</ele><time>2026-05-01T07:07:38.959Z</time></trkpt><trkpt lat="40.7471519" lon="14.8532798"><ele>729.0</ele><time>2026-05-01T07:07:40.967Z</time></trkpt><trkpt lat="40.7472264" lon="14.8532808"><ele>730.4000000000001</ele><time>2026-05-01T07:07:41.965Z</time></trkpt><trkpt lat="40.7473061" lon="14.8533068"><ele>731.8</ele><time>2026-05-01T07:07:42.972Z</time></trkpt><trkpt lat="40.7473934" lon="14.8533259"><ele>733.2</ele><time>2026-05-01T07:07:43.956Z</time></trkpt><trkpt lat="40.7474951" lon="14.8533365"><ele>734.5999999999999</ele><time>2026-05-01T07:07:44.946Z</time></trkpt><trkpt lat="40.7476083" lon="14.8533363"><ele>736.0</ele><time>2026-05-01T07:07:45.963Z</time></trkpt><trkpt lat="40.747723" lon="14.8532933"><ele>730.5</ele><time>2026-05-01T07:07:46.972Z</time></trkpt><trkpt lat="40.7478493" lon="14.8532205"><ele>725.0</ele><time>2026-05-01T07:07:47.963Z</time></trkpt><trkpt lat="40.7479535" lon="14.8531444"><ele>719.5</ele><time>2026-05-01T07:07:48.98Z</time></trkpt><trkpt lat="40.7480366" lon="14.8530699"><ele>714.0</ele><time>2026-05-01T07:07:49.966Z</time></trkpt><trkpt lat="40.7481057" lon="14.8529892"><ele>714.0</ele><time>2026-05-01T07:07:50.965Z</time></trkpt><trkpt lat="40.7481454" lon="14.852912"><ele>714.0</ele><time>2026-05-01T07:07:51.964Z</time></trkpt><trkpt lat="40.7481673" lon="14.8528241"><ele>714.0</ele><time>2026-05-01T07:07:53.031Z</time></trkpt><trkpt lat="40.7481833" lon="14.8527299"><ele>714.0</ele><time>2026-05-01T07:07:54.018Z</time></trkpt><trkpt lat="40.7481908" lon="14.8526244"><ele>714.0</ele><time>2026-05-01T07:07:54.963Z</time></trkpt><trkpt lat="40.7481809" lon="14.8525231"><ele>714.0</ele><time>2026-05-01T07:07:55.97Z</time></trkpt><trkpt lat="40.748173" lon="14.8524094"><ele>714.0</ele><time>2026-05-01T07:07:57.976Z</time></trkpt><trkpt lat="40.7481958" lon="14.8524974"><ele>714.0</ele><time>2026-05-01T07:08:04.971Z</time></trkpt><trkpt lat="40.7482486" lon="14.852555"><ele>714.0</ele><time>2026-05-01T07:09:00.956Z</time></trkpt><trkpt lat="40.7482454" lon="14.8526851"><ele>714.0</ele><time>2026-05-01T07:09:09.969Z</time></trkpt><trkpt lat="40.7482397" lon="14.8527765"><ele>714.0</ele><time>2026-05-01T07:09:10.974Z</time></trkpt><trkpt lat="40.7482574" lon="14.8528784"><ele>714.0</ele><time>2026-05-01T07:09:11.963Z</time></trkpt><trkpt lat="40.7482763" lon="14.8529935"><ele>714.0</ele><time>2026-05-01T07:09:12.965Z</time></trkpt><trkpt lat="40.7482556" lon="14.8531156"><ele>714.0</ele><time>2026-05-01T07:09:13.975Z</time></trkpt><trkpt lat="40.7482194" lon="14.8532295"><ele>714.0</ele><time>2026-05-01T07:09:14.974Z</time></trkpt><trkpt lat="40.7481864" lon="14.8533427"><ele>714.0</ele><time>2026-05-01T07:09:15.965Z</time></trkpt><trkpt lat="40.7481597" lon="14.8534567"><ele>714.0</ele><time>2026-05-01T07:09:16.973Z</time></trkpt><trkpt lat="40.7481142" lon="14.8535691"><ele>710.0</ele><time>2026-05-01T07:09:17.964Z</time></trkpt><trkpt lat="40.7480571" lon="14.853661"><ele>706.0</ele><time>2026-05-01T07:09:18.971Z</time></trkpt><trkpt lat="40.7479972" lon="14.8537428"><ele>702.0</ele><time>2026-05-01T07:09:19.969Z</time></trkpt><trkpt lat="40.7479287" lon="14.8538064"><ele>698.0</ele><time>2026-05-01T07:09:20.967Z</time></trkpt><trkpt lat="40.7478811" lon="14.8538641"><ele>694.0</ele><time>2026-05-01T07:09:21.973Z</time></trkpt><trkpt lat="40.7477998" lon="14.8539328"><ele>690.0</ele><time>2026-05-01T07:09:23.961Z</time></trkpt><trkpt lat="40.7477178" lon="14.8539503"><ele>692.6666666666666</ele><time>2026-05-01T07:09:24.964Z</time></trkpt><trkpt lat="40.7476312" lon="14.8539451"><ele>695.3333333333334</ele><time>2026-05-01T07:09:25.953Z</time></trkpt><trkpt lat="40.747539" lon="14.8539451"><ele>698.0</ele><time>2026-05-01T07:09:26.971Z</time></trkpt><trkpt lat="40.7474516" lon="14.8539482"><ele>700.6666666666667</ele><time>2026-05-01T07:09:27.952Z</time></trkpt><trkpt lat="40.7473869" lon="14.8539574"><ele>703.3333333333334</ele><time>2026-05-01T07:09:28.964Z</time></trkpt><trkpt lat="40.7472991" lon="14.854025"><ele>706.0</ele><time>2026-05-01T07:09:30.963Z</time></trkpt><trkpt lat="40.7472246" lon="14.8541343"><ele>706.0</ele><time>2026-05-01T07:09:32.962Z</time></trkpt><trkpt lat="40.7471674" lon="14.8542312"><ele>706.0</ele><time>2026-05-01T07:09:34.969Z</time></trkpt><trkpt lat="40.7471693" lon="14.8543759"><ele>706.0</ele><time>2026-05-01T07:09:36.96Z</time></trkpt><trkpt lat="40.7472509" lon="14.8544583"><ele>706.0</ele><time>2026-05-01T07:09:37.968Z</time></trkpt><trkpt lat="40.7473509" lon="14.8545567"><ele>706.0</ele><time>2026-05-01T07:09:38.959Z</time></trkpt><trkpt lat="40.74743" lon="14.8546684"><ele>704.25</ele><time>2026-05-01T07:09:39.959Z</time></trkpt><trkpt lat="40.7474955" lon="14.854782"><ele>702.5</ele><time>2026-05-01T07:09:40.972Z</time></trkpt><trkpt lat="40.7475522" lon="14.8549134"><ele>700.75</ele><time>2026-05-01T07:09:41.964Z</time></trkpt><trkpt lat="40.7476066" lon="14.8550607"><ele>699.0</ele><time>2026-05-01T07:09:42.949Z</time></trkpt><trkpt lat="40.7476644" lon="14.8551837"><ele>697.6</ele><time>2026-05-01T07:09:43.97Z</time></trkpt><trkpt lat="40.7477158" lon="14.8553015"><ele>696.2</ele><time>2026-05-01T07:09:44.969Z</time></trkpt><trkpt lat="40.7477567" lon="14.8554137"><ele>694.8000000000001</ele><time>2026-05-01T07:09:45.965Z</time></trkpt><trkpt lat="40.7477342" lon="14.8555732"><ele>693.4000000000001</ele><time>2026-05-01T07:09:47.967Z</time></trkpt><trkpt lat="40.747709" lon="14.8556625"><ele>692.0</ele><time>2026-05-01T07:09:48.974Z</time></trkpt><trkpt lat="40.7476822" lon="14.855745"><ele>692.0</ele><time>2026-05-01T07:09:49.966Z</time></trkpt><trkpt lat="40.7476508" lon="14.8558346"><ele>692.0</ele><time>2026-05-01T07:09:50.963Z</time></trkpt><trkpt lat="40.7476174" lon="14.8559421"><ele>692.0</ele><time>2026-05-01T07:09:51.972Z</time></trkpt><trkpt lat="40.7475949" lon="14.8560669"><ele>692.0</ele><time>2026-05-01T07:09:52.968Z</time></trkpt><trkpt lat="40.7475841" lon="14.8561862"><ele>692.0</ele><time>2026-05-01T07:09:54.031Z</time></trkpt><trkpt lat="40.7475817" lon="14.8563102"><ele>692.0</ele><time>2026-05-01T07:09:54.964Z</time></trkpt><trkpt lat="40.7475826" lon="14.8564132"><ele>689.5</ele><time>2026-05-01T07:09:55.974Z</time></trkpt><trkpt lat="40.7475851" lon="14.8565111"><ele>687.0</ele><time>2026-05-01T07:09:56.962Z</time></trkpt><trkpt lat="40.7475862" lon="14.8566086"><ele>684.5</ele><time>2026-05-01T07:09:57.944Z</time></trkpt><trkpt lat="40.7475802" lon="14.8567176"><ele>682.0</ele><time>2026-05-01T07:09:59.046Z</time></trkpt><trkpt lat="40.747589" lon="14.8568236"><ele>679.5</ele><time>2026-05-01T07:09:59.95Z</time></trkpt><trkpt lat="40.7475977" lon="14.8569272"><ele>677.0</ele><time>2026-05-01T07:10:00.965Z</time></trkpt><trkpt lat="40.7475856" lon="14.8570173"><ele>672.4000000000001</ele><time>2026-05-01T07:10:01.936Z</time></trkpt><trkpt lat="40.7475698" lon="14.8571529"><ele>667.8000000000001</ele><time>2026-05-01T07:10:03.958Z</time></trkpt><trkpt lat="40.7476859" lon="14.8572472"><ele>663.2</ele><time>2026-05-01T07:10:05.961Z</time></trkpt><trkpt lat="40.7477792" lon="14.857306"><ele>658.6</ele><time>2026-05-01T07:10:06.94Z</time></trkpt><trkpt lat="40.7478706" lon="14.8573757"><ele>654.0</ele><time>2026-05-01T07:10:07.961Z</time></trkpt><trkpt lat="40.7479666" lon="14.8574301"><ele>654.0</ele><time>2026-05-01T07:10:08.973Z</time></trkpt><trkpt lat="40.748065" lon="14.8574866"><ele>654.0</ele><time>2026-05-01T07:10:09.978Z</time></trkpt><trkpt lat="40.7481661" lon="14.8575719"><ele>654.0</ele><time>2026-05-01T07:10:10.965Z</time></trkpt><trkpt lat="40.7482601" lon="14.8576728"><ele>654.0</ele><time>2026-05-01T07:10:11.969Z</time></trkpt><trkpt lat="40.7483542" lon="14.8577559"><ele>651.5</ele><time>2026-05-01T07:10:12.964Z</time></trkpt><trkpt lat="40.7484539" lon="14.8578196"><ele>649.0</ele><time>2026-05-01T07:10:13.968Z</time></trkpt><trkpt lat="40.7485473" lon="14.8578722"><ele>646.5</ele><time>2026-05-01T07:10:14.967Z</time></trkpt><trkpt lat="40.7486245" lon="14.8579095"><ele>644.0</ele><time>2026-05-01T07:10:15.96Z</time></trkpt><trkpt lat="40.748683" lon="14.8579509"><ele>641.5</ele><time>2026-05-01T07:10:16.968Z</time></trkpt><trkpt lat="40.7487514" lon="14.8580068"><ele>639.0</ele><time>2026-05-01T07:10:17.967Z</time></trkpt><trkpt lat="40.7488134" lon="14.8580718"><ele>638.6666666666666</ele><time>2026-05-01T07:10:18.969Z</time></trkpt><trkpt lat="40.748863" lon="14.8581424"><ele>638.3333333333334</ele><time>2026-05-01T07:10:19.976Z</time></trkpt><trkpt lat="40.7489279" lon="14.8582099"><ele>638.0</ele><time>2026-05-01T07:10:20.968Z</time></trkpt><trkpt lat="40.7489961" lon="14.8582605"><ele>637.6666666666667</ele><time>2026-05-01T07:10:21.965Z</time></trkpt><trkpt lat="40.7490716" lon="14.8583028"><ele>637.3333333333334</ele><time>2026-05-01T07:10:23.964Z</time></trkpt><trkpt lat="40.7490918" lon="14.8584245"><ele>637.0</ele><time>2026-05-01T07:10:25.957Z</time></trkpt><trkpt lat="40.7490903" lon="14.8585176"><ele>634.4</ele><time>2026-05-01T07:10:27.972Z</time></trkpt><trkpt lat="40.7491082" lon="14.8586412"><ele>631.8000000000001</ele><time>2026-05-01T07:10:29.976Z</time></trkpt><trkpt lat="40.7491305" lon="14.8587534"><ele>629.2</ele><time>2026-05-01T07:10:31.943Z</time></trkpt><trkpt lat="40.7491515" lon="14.8588489"><ele>626.6</ele><time>2026-05-01T07:10:33.966Z</time></trkpt><trkpt lat="40.749211" lon="14.8589673"><ele>624.0</ele><time>2026-05-01T07:10:35.977Z</time></trkpt><trkpt lat="40.7492503" lon="14.8590668"><ele>624.0</ele><time>2026-05-01T07:10:38.967Z</time></trkpt><trkpt lat="40.7492377" lon="14.8591706"><ele>624.0</ele><time>2026-05-01T07:10:42.949Z</time></trkpt><trkpt lat="40.7491751" lon="14.8592658"><ele>624.0</ele><time>2026-05-01T07:10:45.964Z</time></trkpt><trkpt lat="40.7491408" lon="14.8593398"><ele>624.0</ele><time>2026-05-01T07:10:47.976Z</time></trkpt><trkpt lat="40.7490878" lon="14.8594202"><ele>624.0</ele><time>2026-05-01T07:10:50.977Z</time></trkpt><trkpt lat="40.7490121" lon="14.8594527"><ele>624.0</ele><time>2026-05-01T07:10:52.983Z</time></trkpt><trkpt lat="40.7489293" lon="14.8594485"><ele>620.5</ele><time>2026-05-01T07:10:54.969Z</time></trkpt><trkpt lat="40.7488715" lon="14.8594935"><ele>617.0</ele><time>2026-05-01T07:10:56.967Z</time></trkpt><trkpt lat="40.7489229" lon="14.859608"><ele>613.5</ele><time>2026-05-01T07:10:59.96Z</time></trkpt><trkpt lat="40.7489864" lon="14.8596746"><ele>610.0</ele><time>2026-05-01T07:11:00.967Z</time></trkpt><trkpt lat="40.7490385" lon="14.8597234"><ele>606.5</ele><time>2026-05-01T07:11:01.964Z</time></trkpt><trkpt lat="40.7491362" lon="14.8597609"><ele>603.0</ele><time>2026-05-01T07:11:03.974Z</time></trkpt><trkpt lat="40.7492181" lon="14.8597545"><ele>603.0</ele><time>2026-05-01T07:11:05.969Z</time></trkpt><trkpt lat="40.7493619" lon="14.8597638"><ele>603.0</ele><time>2026-05-01T07:11:07.973Z</time></trkpt><trkpt lat="40.7494483" lon="14.8597613"><ele>603.0</ele><time>2026-05-01T07:11:08.961Z</time></trkpt><trkpt lat="40.749511" lon="14.8597229"><ele>603.0</ele><time>2026-05-01T07:11:09.977Z</time></trkpt><trkpt lat="40.7494518" lon="14.8598018"><ele>603.0</ele><time>2026-05-01T07:11:15.972Z</time></trkpt><trkpt lat="40.7493688" lon="14.8598747"><ele>603.0</ele><time>2026-05-01T07:11:17.968Z</time></trkpt><trkpt lat="40.7492948" lon="14.8600134"><ele>603.0</ele><time>2026-05-01T07:11:19.96Z</time></trkpt><trkpt lat="40.7492515" lon="14.860079"><ele>603.0</ele><time>2026-05-01T07:11:20.962Z</time></trkpt><trkpt lat="40.7492147" lon="14.8601517"><ele>603.0</ele><time>2026-05-01T07:11:21.963Z</time></trkpt><trkpt lat="40.7491699" lon="14.8602138"><ele>603.0</ele><time>2026-05-01T07:11:22.975Z</time></trkpt><trkpt lat="40.749065" lon="14.8602999"><ele>603.0</ele><time>2026-05-01T07:11:24.979Z</time></trkpt><trkpt lat="40.7489687" lon="14.860371"><ele>599.3333333333334</ele><time>2026-05-01T07:11:26.98Z</time></trkpt><trkpt lat="40.7489797" lon="14.8604576"><ele>595.6666666666666</ele><time>2026-05-01T07:11:28.979Z</time></trkpt><trkpt lat="40.7490396" lon="14.860508"><ele>592.0</ele><time>2026-05-01T07:11:29.973Z</time></trkpt><trkpt lat="40.7491085" lon="14.8605383"><ele>588.3333333333333</ele><time>2026-05-01T07:11:31.012Z</time></trkpt><trkpt lat="40.7491772" lon="14.8605702"><ele>584.6666666666666</ele><time>2026-05-01T07:11:31.965Z</time></trkpt><trkpt lat="40.749247" lon="14.8605915"><ele>581.0</ele><time>2026-05-01T07:11:32.969Z</time></trkpt><trkpt lat="40.7493597" lon="14.8605929"><ele>581.0</ele><time>2026-05-01T07:11:34.956Z</time></trkpt><trkpt lat="40.7494377" lon="14.860605"><ele>581.0</ele><time>2026-05-01T07:11:36.971Z</time></trkpt><trkpt lat="40.7494069" lon="14.8606984"><ele>581.0</ele><time>2026-05-01T07:11:39.967Z</time></trkpt><trkpt lat="40.7493094" lon="14.8607583"><ele>581.0</ele><time>2026-05-01T07:11:41.974Z</time></trkpt><trkpt lat="40.7492091" lon="14.8608236"><ele>581.0</ele><time>2026-05-01T07:11:43.978Z</time></trkpt><trkpt lat="40.7491713" lon="14.8609114"><ele>578.2</ele><time>2026-05-01T07:11:44.968Z</time></trkpt><trkpt lat="40.7491579" lon="14.8610068"><ele>575.4000000000001</ele><time>2026-05-01T07:11:45.969Z</time></trkpt><trkpt lat="40.7491456" lon="14.8611491"><ele>572.6</ele><time>2026-05-01T07:11:47.969Z</time></trkpt><trkpt lat="40.7491933" lon="14.8612779"><ele>569.8000000000001</ele><time>2026-05-01T07:11:49.973Z</time></trkpt><trkpt lat="40.7492699" lon="14.8613719"><ele>567.0</ele><time>2026-05-01T07:11:52.042Z</time></trkpt><trkpt lat="40.7493215" lon="14.8614799"><ele>567.0</ele><time>2026-05-01T07:11:53.98Z</time></trkpt><trkpt lat="40.7492911" lon="14.8616115"><ele>567.0</ele><time>2026-05-01T07:11:55.979Z</time></trkpt><trkpt lat="40.7492587" lon="14.8617598"><ele>567.0</ele><time>2026-05-01T07:11:57.98Z</time></trkpt><trkpt lat="40.7492251" lon="14.861836"><ele>567.0</ele><time>2026-05-01T07:11:59.038Z</time></trkpt><trkpt lat="40.7491803" lon="14.8619275"><ele>567.0</ele><time>2026-05-01T07:11:59.965Z</time></trkpt><trkpt lat="40.7491293" lon="14.8620111"><ele>564.2857142857143</ele><time>2026-05-01T07:12:00.971Z</time></trkpt><trkpt lat="40.7490786" lon="14.8621036"><ele>561.5714285714286</ele><time>2026-05-01T07:12:01.968Z</time></trkpt><trkpt lat="40.7490332" lon="14.8621896"><ele>558.8571428571429</ele><time>2026-05-01T07:12:02.988Z</time></trkpt><trkpt lat="40.7489906" lon="14.8622776"><ele>556.1428571428571</ele><time>2026-05-01T07:12:03.964Z</time></trkpt><trkpt lat="40.7489594" lon="14.8623557"><ele>553.4285714285714</ele><time>2026-05-01T07:12:04.97Z</time></trkpt><trkpt lat="40.7489482" lon="14.862441"><ele>550.7142857142858</ele><time>2026-05-01T07:12:05.969Z</time></trkpt><trkpt lat="40.7489272" lon="14.8625252"><ele>548.0</ele><time>2026-05-01T07:12:06.982Z</time></trkpt><trkpt lat="40.7489636" lon="14.8626086"><ele>548.0</ele><time>2026-05-01T07:12:08.97Z</time></trkpt><trkpt lat="40.7490488" lon="14.8626046"><ele>548.0</ele><time>2026-05-01T07:12:11.026Z</time></trkpt><trkpt lat="40.7490683" lon="14.8624908"><ele>548.0</ele><time>2026-05-01T07:12:13.033Z</time></trkpt><trkpt lat="40.7490897" lon="14.8623911"><ele>548.0</ele><time>2026-05-01T07:12:14.977Z</time></trkpt><trkpt lat="40.7491473" lon="14.8623293"><ele>548.0</ele><time>2026-05-01T07:12:17.971Z</time></trkpt><trkpt lat="40.7491529" lon="14.8624299"><ele>548.0</ele><time>2026-05-01T07:12:22.03Z</time></trkpt><trkpt lat="40.749126" lon="14.8625506"><ele>545.3333333333333</ele><time>2026-05-01T07:12:23.971Z</time></trkpt><trkpt lat="40.7491134" lon="14.862675"><ele>542.6666666666666</ele><time>2026-05-01T07:12:25.973Z</time></trkpt><trkpt lat="40.7490804" lon="14.862819"><ele>540.0</ele><time>2026-05-01T07:12:27.964Z</time></trkpt><trkpt lat="40.7490571" lon="14.8629013"><ele>537.3333333333334</ele><time>2026-05-01T07:12:28.966Z</time></trkpt><trkpt lat="40.7490224" lon="14.8629806"><ele>534.6666666666667</ele><time>2026-05-01T07:12:29.967Z</time></trkpt><trkpt lat="40.7489662" lon="14.8630468"><ele>532.0</ele><time>2026-05-01T07:12:32.004Z</time></trkpt><trkpt lat="40.7489244" lon="14.8631876"><ele>532.0</ele><time>2026-05-01T07:12:33.97Z</time></trkpt><trkpt lat="40.7490126" lon="14.8632872"><ele>532.0</ele><time>2026-05-01T07:12:35.973Z</time></trkpt><trkpt lat="40.7491143" lon="14.863386"><ele>532.0</ele><time>2026-05-01T07:12:37.959Z</time></trkpt><trkpt lat="40.74911" lon="14.8635341"><ele>532.0</ele><time>2026-05-01T07:12:40.976Z</time></trkpt><trkpt lat="40.7490643" lon="14.8636338"><ele>532.0</ele><time>2026-05-01T07:12:42.971Z</time></trkpt><trkpt lat="40.7489852" lon="14.8637068"><ele>528.6</ele><time>2026-05-01T07:12:44.948Z</time></trkpt><trkpt lat="40.7489346" lon="14.8637633"><ele>525.2</ele><time>2026-05-01T07:12:45.966Z</time></trkpt><trkpt lat="40.7488691" lon="14.8638781"><ele>521.8</ele><time>2026-05-01T07:12:48.01Z</time></trkpt><trkpt lat="40.7489114" lon="14.863996"><ele>518.4</ele><time>2026-05-01T07:12:49.972Z</time></trkpt><trkpt lat="40.7490015" lon="14.8640928"><ele>515.0</ele><time>2026-05-01T07:12:51.98Z</time></trkpt><trkpt lat="40.7490441" lon="14.864176"><ele>515.0</ele><time>2026-05-01T07:12:54.968Z</time></trkpt><trkpt lat="40.7489881" lon="14.8642487"><ele>515.0</ele><time>2026-05-01T07:12:57.973Z</time></trkpt><trkpt lat="40.7489407" lon="14.8643036"><ele>515.0</ele><time>2026-05-01T07:12:59.969Z</time></trkpt><trkpt lat="40.7488733" lon="14.8643108"><ele>515.0</ele><time>2026-05-01T07:13:01.955Z</time></trkpt><trkpt lat="40.7487787" lon="14.8643217"><ele>515.0</ele><time>2026-05-01T07:13:04.04Z</time></trkpt><trkpt lat="40.7487568" lon="14.8644143"><ele>515.0</ele><time>2026-05-01T07:13:06.968Z</time></trkpt><trkpt lat="40.7488213" lon="14.8645036"><ele>512.0</ele><time>2026-05-01T07:13:09.967Z</time></trkpt><trkpt lat="40.7488943" lon="14.8645676"><ele>509.0</ele><time>2026-05-01T07:13:12.984Z</time></trkpt><trkpt lat="40.7489582" lon="14.8645963"><ele>506.0</ele><time>2026-05-01T07:13:14.982Z</time></trkpt><trkpt lat="40.7490995" lon="14.8646108"><ele>503.0</ele><time>2026-05-01T07:13:16.974Z</time></trkpt><trkpt lat="40.7491789" lon="14.8646195"><ele>500.0</ele><time>2026-05-01T07:13:18.978Z</time></trkpt><trkpt lat="40.7491909" lon="14.8647236"><ele>499.99999999999994</ele><time>2026-05-01T07:13:24.028Z</time></trkpt><trkpt lat="40.7491544" lon="14.8648492"><ele>500.0</ele><time>2026-05-01T07:13:26.979Z</time></trkpt><trkpt lat="40.7491468" lon="14.864935"><ele>500.0</ele><time>2026-05-01T07:13:28.964Z</time></trkpt><trkpt lat="40.7491559" lon="14.8650219"><ele>500.0</ele><time>2026-05-01T07:13:30.969Z</time></trkpt><trkpt lat="40.7492083" lon="14.8651269"><ele>499.99999999999994</ele><time>2026-05-01T07:13:34.007Z</time></trkpt><trkpt lat="40.7492129" lon="14.865253"><ele>500.0</ele><time>2026-05-01T07:13:35.977Z</time></trkpt><trkpt lat="40.7492388" lon="14.8653379"><ele>497.99999999999994</ele><time>2026-05-01T07:13:36.964Z</time></trkpt><trkpt lat="40.7492512" lon="14.8654344"><ele>496.0</ele><time>2026-05-01T07:13:37.955Z</time></trkpt><trkpt lat="40.7492466" lon="14.8655266"><ele>494.0</ele><time>2026-05-01T07:13:38.967Z</time></trkpt><trkpt lat="40.7492417" lon="14.8656305"><ele>492.0</ele><time>2026-05-01T07:13:39.976Z</time></trkpt><trkpt lat="40.7492341" lon="14.8657305"><ele>489.99999999999994</ele><time>2026-05-01T07:13:40.976Z</time></trkpt><trkpt lat="40.7492217" lon="14.8658397"><ele>488.0</ele><time>2026-05-01T07:13:41.974Z</time></trkpt><trkpt lat="40.7492085" lon="14.8659524"><ele>486.2</ele><time>2026-05-01T07:13:42.971Z</time></trkpt><trkpt lat="40.7491932" lon="14.8660772"><ele>484.4</ele><time>2026-05-01T07:13:43.971Z</time></trkpt><trkpt lat="40.749181" lon="14.8662226"><ele>482.59999999999997</ele><time>2026-05-01T07:13:44.98Z</time></trkpt><trkpt lat="40.7491717" lon="14.866365"><ele>480.79999999999995</ele><time>2026-05-01T07:13:45.969Z</time></trkpt><trkpt lat="40.7491715" lon="14.8665092"><ele>479.0</ele><time>2026-05-01T07:13:46.971Z</time></trkpt><trkpt lat="40.7491673" lon="14.8666414"><ele>477.79999999999995</ele><time>2026-05-01T07:13:47.971Z</time></trkpt><trkpt lat="40.749172" lon="14.8667841"><ele>476.59999999999997</ele><time>2026-05-01T07:13:48.959Z</time></trkpt><trkpt lat="40.7491837" lon="14.8669245"><ele>475.4</ele><time>2026-05-01T07:13:49.966Z</time></trkpt><trkpt lat="40.749188" lon="14.8670558"><ele>474.2</ele><time>2026-05-01T07:13:51.022Z</time></trkpt><trkpt lat="40.7491892" lon="14.8671904"><ele>473.0</ele><time>2026-05-01T07:13:52.036Z</time></trkpt><trkpt lat="40.7492043" lon="14.8672875"><ele>472.99999999999994</ele><time>2026-05-01T07:13:53.024Z</time></trkpt><trkpt lat="40.7492277" lon="14.8673734"><ele>473.0</ele><time>2026-05-01T07:13:54.017Z</time></trkpt><trkpt lat="40.7492621" lon="14.8674753"><ele>473.0</ele><time>2026-05-01T07:13:55.973Z</time></trkpt><trkpt lat="40.7492925" lon="14.867388"><ele>473.0</ele><time>2026-05-01T07:14:01.045Z</time></trkpt><trkpt lat="40.7493038" lon="14.8672113"><ele>472.99999999999994</ele><time>2026-05-01T07:14:02.973Z</time></trkpt><trkpt lat="40.749324" lon="14.867119"><ele>473.0</ele><time>2026-05-01T07:14:03.97Z</time></trkpt><trkpt lat="40.749348" lon="14.8669838"><ele>473.0</ele><time>2026-05-01T07:14:05.969Z</time></trkpt><trkpt lat="40.749377" lon="14.8668689"><ele>472.99999999999994</ele><time>2026-05-01T07:15:00.967Z</time></trkpt><trkpt lat="40.7493701" lon="14.8667812"><ele>472.99999999999994</ele><time>2026-05-01T07:15:03.057Z</time></trkpt><trkpt lat="40.7493913" lon="14.8665947"><ele>473.0</ele><time>2026-05-01T07:15:04.975Z</time></trkpt><trkpt lat="40.7494201" lon="14.8664761"><ele>473.0</ele><time>2026-05-01T07:15:05.974Z</time></trkpt><trkpt lat="40.7494405" lon="14.8663571"><ele>469.25</ele><time>2026-05-01T07:15:06.957Z</time></trkpt><trkpt lat="40.7494696" lon="14.866199"><ele>465.5</ele><time>2026-05-01T07:15:07.971Z</time></trkpt><trkpt lat="40.7495071" lon="14.8660509"><ele>461.75</ele><time>2026-05-01T07:15:08.956Z</time></trkpt><trkpt lat="40.7495459" lon="14.8659083"><ele>458.0</ele><time>2026-05-01T07:15:09.979Z</time></trkpt><trkpt lat="40.7495804" lon="14.8657835"><ele>457.99999999999994</ele><time>2026-05-01T07:15:10.974Z</time></trkpt><trkpt lat="40.7496024" lon="14.8656861"><ele>458.0</ele><time>2026-05-01T07:15:11.98Z</time></trkpt><trkpt lat="40.7496156" lon="14.865595"><ele>458.0</ele><time>2026-05-01T07:15:12.97Z</time></trkpt><trkpt lat="40.7496259" lon="14.8654888"><ele>458.0</ele><time>2026-05-01T07:15:14.019Z</time></trkpt><trkpt lat="40.7496163" lon="14.8653686"><ele>457.99999999999994</ele><time>2026-05-01T07:15:14.959Z</time></trkpt><trkpt lat="40.7496232" lon="14.8652494"><ele>458.0</ele><time>2026-05-01T07:15:15.969Z</time></trkpt><trkpt lat="40.7496369" lon="14.8651377"><ele>459.59999999999997</ele><time>2026-05-01T07:15:16.974Z</time></trkpt><trkpt lat="40.7496774" lon="14.8650141"><ele>461.19999999999993</ele><time>2026-05-01T07:15:17.96Z</time></trkpt><trkpt lat="40.7497184" lon="14.8649065"><ele>462.8</ele><time>2026-05-01T07:15:18.975Z</time></trkpt><trkpt lat="40.7497545" lon="14.8648118"><ele>464.4</ele><time>2026-05-01T07:15:19.961Z</time></trkpt><trkpt lat="40.749786" lon="14.8646459"><ele>466.0</ele><time>2026-05-01T07:15:22.073Z</time></trkpt><trkpt lat="40.7498093" lon="14.8644206"><ele>466.00000000000006</ele><time>2026-05-01T07:15:23.967Z</time></trkpt><trkpt lat="40.7498201" lon="14.8643124"><ele>466.0</ele><time>2026-05-01T07:15:24.976Z</time></trkpt><trkpt lat="40.749822" lon="14.8641936"><ele>466.0</ele><time>2026-05-01T07:15:26.966Z</time></trkpt><trkpt lat="40.7498598" lon="14.8641115"><ele>466.0</ele><time>2026-05-01T07:15:28.97Z</time></trkpt><trkpt lat="40.7499307" lon="14.8639827"><ele>466.00000000000006</ele><time>2026-05-01T07:15:30.969Z</time></trkpt><trkpt lat="40.7499687" lon="14.863897"><ele>466.0</ele><time>2026-05-01T07:15:31.982Z</time></trkpt><trkpt lat="40.7500056" lon="14.8638171"><ele>468.20000000000005</ele><time>2026-05-01T07:15:32.964Z</time></trkpt><trkpt lat="40.7500317" lon="14.8637219"><ele>470.40000000000003</ele><time>2026-05-01T07:15:33.964Z</time></trkpt><trkpt lat="40.7500193" lon="14.8636015"><ele>472.6</ele><time>2026-05-01T07:15:35.97Z</time></trkpt><trkpt lat="40.7501033" lon="14.8634377"><ele>474.8</ele><time>2026-05-01T07:15:37.961Z</time></trkpt><trkpt lat="40.7501576" lon="14.8633229"><ele>477.0</ele><time>2026-05-01T07:15:38.967Z</time></trkpt><trkpt lat="40.750216" lon="14.8632408"><ele>479.2857142857143</ele><time>2026-05-01T07:15:39.967Z</time></trkpt><trkpt lat="40.7502555" lon="14.8631691"><ele>481.57142857142856</ele><time>2026-05-01T07:15:40.965Z</time></trkpt><trkpt lat="40.7502642" lon="14.8630826"><ele>483.85714285714283</ele><time>2026-05-01T07:15:41.973Z</time></trkpt><trkpt lat="40.7502676" lon="14.8629978"><ele>486.1428571428571</ele><time>2026-05-01T07:15:42.966Z</time></trkpt><trkpt lat="40.7502803" lon="14.8629012"><ele>488.42857142857144</ele><time>2026-05-01T07:15:43.975Z</time></trkpt><trkpt lat="40.7503056" lon="14.8628147"><ele>490.71428571428567</ele><time>2026-05-01T07:15:44.973Z</time></trkpt><trkpt lat="40.7503311" lon="14.8627034"><ele>493.0</ele><time>2026-05-01T07:15:46.949Z</time></trkpt><trkpt lat="40.7504301" lon="14.8626672"><ele>493.0</ele><time>2026-05-01T07:15:48.976Z</time></trkpt><trkpt lat="40.7505561" lon="14.8626488"><ele>492.99999999999994</ele><time>2026-05-01T07:15:50.967Z</time></trkpt><trkpt lat="40.7506227" lon="14.8626285"><ele>492.99999999999994</ele><time>2026-05-01T07:15:51.968Z</time></trkpt><trkpt lat="40.7507117" lon="14.8625658"><ele>493.0</ele><time>2026-05-01T07:15:52.971Z</time></trkpt><trkpt lat="40.7508081" lon="14.8625168"><ele>493.0</ele><time>2026-05-01T07:15:53.962Z</time></trkpt><trkpt lat="40.7508894" lon="14.8624573"><ele>492.50000000000006</ele><time>2026-05-01T07:15:54.971Z</time></trkpt><trkpt lat="40.7509407" lon="14.862399"><ele>492.0</ele><time>2026-05-01T07:15:55.969Z</time></trkpt><trkpt lat="40.7509601" lon="14.8622322"><ele>491.5</ele><time>2026-05-01T07:15:57.961Z</time></trkpt><trkpt lat="40.7509751" lon="14.8621459"><ele>491.0</ele><time>2026-05-01T07:15:58.962Z</time></trkpt><trkpt lat="40.7509879" lon="14.862043"><ele>490.50000000000006</ele><time>2026-05-01T07:15:59.971Z</time></trkpt><trkpt lat="40.7510445" lon="14.8619253"><ele>490.0</ele><time>2026-05-01T07:16:00.969Z</time></trkpt><trkpt lat="40.751106" lon="14.8618307"><ele>491.83333333333337</ele><time>2026-05-01T07:16:01.966Z</time></trkpt><trkpt lat="40.7511691" lon="14.8617514"><ele>493.6666666666667</ele><time>2026-05-01T07:16:02.966Z</time></trkpt><trkpt lat="40.7512182" lon="14.8616721"><ele>495.5</ele><time>2026-05-01T07:16:03.966Z</time></trkpt><trkpt lat="40.751276" lon="14.8616074"><ele>497.33333333333337</ele><time>2026-05-01T07:16:04.972Z</time></trkpt><trkpt lat="40.7513346" lon="14.8615499"><ele>499.1666666666667</ele><time>2026-05-01T07:16:05.964Z</time></trkpt><trkpt lat="40.7513979" lon="14.8614943"><ele>501.0</ele><time>2026-05-01T07:16:06.969Z</time></trkpt><trkpt lat="40.7514732" lon="14.8614412"><ele>501.0</ele><time>2026-05-01T07:16:07.954Z</time></trkpt><trkpt lat="40.7515496" lon="14.8613991"><ele>501.0</ele><time>2026-05-01T07:16:08.952Z</time></trkpt><trkpt lat="40.7516188" lon="14.8613551"><ele>501.0</ele><time>2026-05-01T07:16:09.97Z</time></trkpt><trkpt lat="40.7516778" lon="14.8613152"><ele>501.0</ele><time>2026-05-01T07:16:10.967Z</time></trkpt><trkpt lat="40.7517557" lon="14.8612511"><ele>501.0</ele><time>2026-05-01T07:16:12.956Z</time></trkpt><trkpt lat="40.7517675" lon="14.8613507"><ele>501.0</ele><time>2026-05-01T07:16:20.966Z</time></trkpt><trkpt lat="40.7518467" lon="14.8613218"><ele>501.0</ele><time>2026-05-01T07:16:32.018Z</time></trkpt><trkpt lat="40.7519434" lon="14.8613115"><ele>501.0</ele><time>2026-05-01T07:16:33.978Z</time></trkpt><trkpt lat="40.7520158" lon="14.8613099"><ele>501.0</ele><time>2026-05-01T07:16:35.977Z</time></trkpt><trkpt lat="40.7519926" lon="14.8614234"><ele>501.0</ele><time>2026-05-01T07:16:41.966Z</time></trkpt><trkpt lat="40.7519409" lon="14.8615162"><ele>501.0</ele><time>2026-05-01T07:16:43.976Z</time></trkpt><trkpt lat="40.7518575" lon="14.8615871"><ele>501.0</ele><time>2026-05-01T07:16:45.971Z</time></trkpt><trkpt lat="40.7517428" lon="14.8616745"><ele>501.0</ele><time>2026-05-01T07:16:47.971Z</time></trkpt><trkpt lat="40.7516743" lon="14.8617166"><ele>501.0</ele><time>2026-05-01T07:16:48.968Z</time></trkpt><trkpt lat="40.7516061" lon="14.8617835"><ele>501.0</ele><time>2026-05-01T07:16:49.954Z</time></trkpt><trkpt lat="40.7515486" lon="14.8618978"><ele>501.0</ele><time>2026-05-01T07:16:51.955Z</time></trkpt><trkpt lat="40.7515445" lon="14.8619937"><ele>501.0</ele><time>2026-05-01T07:16:52.971Z</time></trkpt><trkpt lat="40.7515488" lon="14.8621017"><ele>501.0</ele><time>2026-05-01T07:16:53.94Z</time></trkpt><trkpt lat="40.751529" lon="14.862284"><ele>503.4</ele><time>2026-05-01T07:16:55.967Z</time></trkpt><trkpt lat="40.751509" lon="14.8623926"><ele>505.8</ele><time>2026-05-01T07:16:56.963Z</time></trkpt><trkpt lat="40.7514755" lon="14.8624905"><ele>508.19999999999993</ele><time>2026-05-01T07:16:57.967Z</time></trkpt><trkpt lat="40.7514152" lon="14.8625993"><ele>510.59999999999997</ele><time>2026-05-01T07:16:58.939Z</time></trkpt><trkpt lat="40.7513543" lon="14.8627162"><ele>513.0</ele><time>2026-05-01T07:16:59.977Z</time></trkpt><trkpt lat="40.7513046" lon="14.8627918"><ele>513.0</ele><time>2026-05-01T07:17:00.954Z</time></trkpt><trkpt lat="40.7512643" lon="14.8629109"><ele>513.0</ele><time>2026-05-01T07:17:02.972Z</time></trkpt><trkpt lat="40.7513211" lon="14.8630386"><ele>513.0</ele><time>2026-05-01T07:17:04.947Z</time></trkpt><trkpt lat="40.7513898" lon="14.8630628"><ele>513.0</ele><time>2026-05-01T07:17:05.971Z</time></trkpt><trkpt lat="40.7514638" lon="14.8630754"><ele>513.0</ele><time>2026-05-01T07:17:06.944Z</time></trkpt><trkpt lat="40.7515297" lon="14.8630785"><ele>513.0</ele><time>2026-05-01T07:17:07.965Z</time></trkpt><trkpt lat="40.7516433" lon="14.8630575"><ele>513.0000000000001</ele><time>2026-05-01T07:17:09.952Z</time></trkpt><trkpt lat="40.7517006" lon="14.8630089"><ele>513.0</ele><time>2026-05-01T07:17:10.973Z</time></trkpt><trkpt lat="40.7517504" lon="14.8629574"><ele>513.0</ele><time>2026-05-01T07:17:11.958Z</time></trkpt><trkpt lat="40.7518051" lon="14.8629035"><ele>513.0</ele><time>2026-05-01T07:17:12.955Z</time></trkpt><trkpt lat="40.7518659" lon="14.8628506"><ele>513.0</ele><time>2026-05-01T07:17:13.968Z</time></trkpt><trkpt lat="40.7519307" lon="14.8627955"><ele>513.0000000000001</ele><time>2026-05-01T07:17:14.961Z</time></trkpt><trkpt lat="40.7519885" lon="14.8627291"><ele>513.0</ele><time>2026-05-01T07:17:15.963Z</time></trkpt><trkpt lat="40.7520384" lon="14.8626533"><ele>516.8333333333334</ele><time>2026-05-01T07:17:16.965Z</time></trkpt><trkpt lat="40.7520841" lon="14.8625668"><ele>520.6666666666666</ele><time>2026-05-01T07:17:17.972Z</time></trkpt><trkpt lat="40.75215" lon="14.8625043"><ele>524.5</ele><time>2026-05-01T07:17:18.965Z</time></trkpt><trkpt lat="40.7522148" lon="14.8624506"><ele>528.3333333333333</ele><time>2026-05-01T07:17:19.965Z</time></trkpt><trkpt lat="40.7522733" lon="14.8623881"><ele>532.1666666666666</ele><time>2026-05-01T07:17:20.967Z</time></trkpt><trkpt lat="40.7523419" lon="14.8623028"><ele>536.0</ele><time>2026-05-01T07:17:21.969Z</time></trkpt><trkpt lat="40.752416" lon="14.8622156"><ele>536.0</ele><time>2026-05-01T07:17:22.961Z</time></trkpt><trkpt lat="40.7524869" lon="14.8621469"><ele>536.0</ele><time>2026-05-01T07:17:23.978Z</time></trkpt><trkpt lat="40.7525582" lon="14.8620834"><ele>536.0</ele><time>2026-05-01T07:17:24.974Z</time></trkpt><trkpt lat="40.7526239" lon="14.8620114"><ele>536.0</ele><time>2026-05-01T07:17:25.972Z</time></trkpt><trkpt lat="40.7526867" lon="14.8619315"><ele>536.0</ele><time>2026-05-01T07:17:26.959Z</time></trkpt><trkpt lat="40.7527475" lon="14.8618547"><ele>536.0</ele><time>2026-05-01T07:17:27.956Z</time></trkpt><trkpt lat="40.7528071" lon="14.8617814"><ele>539.6</ele><time>2026-05-01T07:17:28.973Z</time></trkpt><trkpt lat="40.7528734" lon="14.861714"><ele>543.2</ele><time>2026-05-01T07:17:29.969Z</time></trkpt><trkpt lat="40.752932" lon="14.8616484"><ele>546.8</ele><time>2026-05-01T07:17:30.968Z</time></trkpt><trkpt lat="40.7529799" lon="14.8615918"><ele>550.4</ele><time>2026-05-01T07:17:31.964Z</time></trkpt><trkpt lat="40.7530542" lon="14.8614747"><ele>554.0</ele><time>2026-05-01T07:17:33.957Z</time></trkpt><trkpt lat="40.7531157" lon="14.8613383"><ele>554.0</ele><time>2026-05-01T07:17:35.946Z</time></trkpt><trkpt lat="40.753146" lon="14.861263"><ele>554.0</ele><time>2026-05-01T07:17:36.969Z</time></trkpt><trkpt lat="40.7531838" lon="14.8611878"><ele>554.0</ele><time>2026-05-01T07:17:37.969Z</time></trkpt><trkpt lat="40.7532202" lon="14.8611058"><ele>554.0</ele><time>2026-05-01T07:17:38.945Z</time></trkpt><trkpt lat="40.7532636" lon="14.8610427"><ele>554.0</ele><time>2026-05-01T07:17:39.959Z</time></trkpt><trkpt lat="40.7533114" lon="14.8609728"><ele>554.0</ele><time>2026-05-01T07:17:40.966Z</time></trkpt><trkpt lat="40.7533519" lon="14.8609023"><ele>554.0</ele><time>2026-05-01T07:17:41.965Z</time></trkpt><trkpt lat="40.7534215" lon="14.860762"><ele>555.3333333333333</ele><time>2026-05-01T07:17:43.964Z</time></trkpt><trkpt lat="40.7534477" lon="14.8606721"><ele>556.6666666666666</ele><time>2026-05-01T07:17:44.966Z</time></trkpt><trkpt lat="40.753459" lon="14.8605723"><ele>558.0</ele><time>2026-05-01T07:17:45.969Z</time></trkpt><trkpt lat="40.7534631" lon="14.8604618"><ele>559.3333333333334</ele><time>2026-05-01T07:17:46.975Z</time></trkpt><trkpt lat="40.7534708" lon="14.8603348"><ele>560.6666666666667</ele><time>2026-05-01T07:17:47.972Z</time></trkpt><trkpt lat="40.7534857" lon="14.8602341"><ele>562.0</ele><time>2026-05-01T07:17:48.969Z</time></trkpt><trkpt lat="40.7535418" lon="14.8600983"><ele>566.2</ele><time>2026-05-01T07:17:50.964Z</time></trkpt><trkpt lat="40.7535885" lon="14.8600114"><ele>570.4000000000001</ele><time>2026-05-01T07:17:51.964Z</time></trkpt><trkpt lat="40.7536309" lon="14.8599108"><ele>574.5999999999999</ele><time>2026-05-01T07:17:52.963Z</time></trkpt><trkpt lat="40.7536989" lon="14.8598138"><ele>578.8</ele><time>2026-05-01T07:17:54.973Z</time></trkpt><trkpt lat="40.7537947" lon="14.8598021"><ele>583.0</ele><time>2026-05-01T07:17:56.973Z</time></trkpt><trkpt lat="40.7539175" lon="14.8597827"><ele>583.0</ele><time>2026-05-01T07:17:58.956Z</time></trkpt><trkpt lat="40.7540286" lon="14.8597684"><ele>583.0</ele><time>2026-05-01T07:18:00.964Z</time></trkpt><trkpt lat="40.7540822" lon="14.8597137"><ele>583.0</ele><time>2026-05-01T07:18:02.972Z</time></trkpt><trkpt lat="40.753984" lon="14.8596668"><ele>583.0</ele><time>2026-05-01T07:18:06.969Z</time></trkpt><trkpt lat="40.7540104" lon="14.8595811"><ele>583.0</ele><time>2026-05-01T07:18:09.972Z</time></trkpt><trkpt lat="40.7541298" lon="14.8595708"><ele>583.0000000000001</ele><time>2026-05-01T07:18:11.97Z</time></trkpt><trkpt lat="40.7541993" lon="14.8595491"><ele>583.0</ele><time>2026-05-01T07:18:12.972Z</time></trkpt><trkpt lat="40.7542713" lon="14.859516"><ele>583.0</ele><time>2026-05-01T07:18:13.971Z</time></trkpt><trkpt lat="40.7543336" lon="14.8594975"><ele>583.0</ele><time>2026-05-01T07:18:14.971Z</time></trkpt><trkpt lat="40.7543971" lon="14.8594706"><ele>583.0</ele><time>2026-05-01T07:18:15.972Z</time></trkpt><trkpt lat="40.7544344" lon="14.8593994"><ele>583.0000000000001</ele><time>2026-05-01T07:18:17.973Z</time></trkpt><trkpt lat="40.7543916" lon="14.8593179"><ele>583.0</ele><time>2026-05-01T07:18:19.99Z</time></trkpt><trkpt lat="40.7543253" lon="14.8592735"><ele>587.6</ele><time>2026-05-01T07:18:21.978Z</time></trkpt><trkpt lat="40.7544035" lon="14.8591886"><ele>592.1999999999999</ele><time>2026-05-01T07:18:27.95Z</time></trkpt><trkpt lat="40.7544625" lon="14.8591542"><ele>596.8</ele><time>2026-05-01T07:18:28.957Z</time></trkpt><trkpt lat="40.7545757" lon="14.8590911"><ele>601.4</ele><time>2026-05-01T07:18:29.979Z</time></trkpt><trkpt lat="40.7546893" lon="14.8590108"><ele>606.0</ele><time>2026-05-01T07:18:30.968Z</time></trkpt><trkpt lat="40.7548034" lon="14.8589227"><ele>606.0</ele><time>2026-05-01T07:18:31.972Z</time></trkpt><trkpt lat="40.7549079" lon="14.8588324"><ele>606.0</ele><time>2026-05-01T07:18:32.974Z</time></trkpt><trkpt lat="40.7550088" lon="14.8587367"><ele>606.0</ele><time>2026-05-01T07:18:33.964Z</time></trkpt><trkpt lat="40.7551024" lon="14.8586453"><ele>606.0</ele><time>2026-05-01T07:18:34.964Z</time></trkpt><trkpt lat="40.7551847" lon="14.8585704"><ele>605.6666666666666</ele><time>2026-05-01T07:18:35.975Z</time></trkpt><trkpt lat="40.7552559" lon="14.8585094"><ele>605.3333333333334</ele><time>2026-05-01T07:18:36.964Z</time></trkpt><trkpt lat="40.7553253" lon="14.8584658"><ele>605.0</ele><time>2026-05-01T07:18:37.962Z</time></trkpt><trkpt lat="40.755404" lon="14.8584377"><ele>604.6666666666667</ele><time>2026-05-01T07:18:38.959Z</time></trkpt><trkpt lat="40.7554828" lon="14.8584093"><ele>604.3333333333334</ele><time>2026-05-01T07:18:39.975Z</time></trkpt><trkpt lat="40.7555491" lon="14.8583854"><ele>604.0</ele><time>2026-05-01T07:18:40.972Z</time></trkpt><trkpt lat="40.7556632" lon="14.8583498"><ele>608.8333333333334</ele><time>2026-05-01T07:18:42.971Z</time></trkpt><trkpt lat="40.7557515" lon="14.858264"><ele>613.6666666666667</ele><time>2026-05-01T07:18:44.979Z</time></trkpt><trkpt lat="40.7557226" lon="14.8581581"><ele>618.5</ele><time>2026-05-01T07:18:47.977Z</time></trkpt><trkpt lat="40.7556719" lon="14.8581003"><ele>623.3333333333334</ele><time>2026-05-01T07:18:48.97Z</time></trkpt><trkpt lat="40.7556351" lon="14.8580004"><ele>628.1666666666666</ele><time>2026-05-01T07:18:50.972Z</time></trkpt><trkpt lat="40.7557165" lon="14.8580363"><ele>633.0</ele><time>2026-05-01T07:18:53.972Z</time></trkpt><trkpt lat="40.7558214" lon="14.8580525"><ele>633.0</ele><time>2026-05-01T07:18:55.982Z</time></trkpt><trkpt lat="40.7559493" lon="14.8580384"><ele>633.0</ele><time>2026-05-01T07:18:58.044Z</time></trkpt><trkpt lat="40.7560264" lon="14.8579969"><ele>633.0</ele><time>2026-05-01T07:18:58.957Z</time></trkpt><trkpt lat="40.7561066" lon="14.857936"><ele>633.0</ele><time>2026-05-01T07:18:59.966Z</time></trkpt><trkpt lat="40.7561774" lon="14.8578568"><ele>633.0</ele><time>2026-05-01T07:19:00.972Z</time></trkpt><trkpt lat="40.7562596" lon="14.8577778"><ele>630.0</ele><time>2026-05-01T07:19:01.974Z</time></trkpt><trkpt lat="40.7563601" lon="14.857691"><ele>627.0</ele><time>2026-05-01T07:19:02.953Z</time></trkpt><trkpt lat="40.7564607" lon="14.8576248"><ele>624.0</ele><time>2026-05-01T07:19:04.042Z</time></trkpt><trkpt lat="40.7565531" lon="14.8575674"><ele>621.0</ele><time>2026-05-01T07:19:04.956Z</time></trkpt><trkpt lat="40.7566473" lon="14.8574959"><ele>618.0</ele><time>2026-05-01T07:19:06.037Z</time></trkpt><trkpt lat="40.7567391" lon="14.8574087"><ele>622.5999999999999</ele><time>2026-05-01T07:19:06.968Z</time></trkpt><trkpt lat="40.7568295" lon="14.8573119"><ele>627.1999999999999</ele><time>2026-05-01T07:19:07.972Z</time></trkpt><trkpt lat="40.7569035" lon="14.8572215"><ele>631.8</ele><time>2026-05-01T07:19:08.968Z</time></trkpt><trkpt lat="40.7569823" lon="14.8571238"><ele>636.4</ele><time>2026-05-01T07:19:09.967Z</time></trkpt><trkpt lat="40.7570714" lon="14.8570279"><ele>641.0</ele><time>2026-05-01T07:19:10.968Z</time></trkpt><trkpt lat="40.7571714" lon="14.8569425"><ele>641.0</ele><time>2026-05-01T07:19:11.995Z</time></trkpt><trkpt lat="40.7572578" lon="14.8568836"><ele>641.0</ele><time>2026-05-01T07:19:12.989Z</time></trkpt><trkpt lat="40.7573373" lon="14.8568375"><ele>641.0</ele><time>2026-05-01T07:19:13.97Z</time></trkpt><trkpt lat="40.7573919" lon="14.8567742"><ele>641.0</ele><time>2026-05-01T07:19:14.948Z</time></trkpt><trkpt lat="40.7574258" lon="14.8567039"><ele>641.0</ele><time>2026-05-01T07:19:16.033Z</time></trkpt><trkpt lat="40.7574596" lon="14.8566284"><ele>641.0</ele><time>2026-05-01T07:19:17.046Z</time></trkpt><trkpt lat="40.7575003" lon="14.8565501"><ele>643.8</ele><time>2026-05-01T07:19:18.031Z</time></trkpt><trkpt lat="40.7575497" lon="14.8564676"><ele>646.5999999999999</ele><time>2026-05-01T07:19:18.99Z</time></trkpt><trkpt lat="40.7576166" lon="14.8563828"><ele>649.4</ele><time>2026-05-01T07:19:19.969Z</time></trkpt><trkpt lat="40.7576942" lon="14.8562946"><ele>652.2</ele><time>2026-05-01T07:19:20.972Z</time></trkpt><trkpt lat="40.7577804" lon="14.8562017"><ele>655.0</ele><time>2026-05-01T07:19:22.033Z</time></trkpt><trkpt lat="40.7578753" lon="14.8561134"><ele>655.0</ele><time>2026-05-01T07:19:23.032Z</time></trkpt><trkpt lat="40.757979" lon="14.8560211"><ele>655.0</ele><time>2026-05-01T07:19:24.046Z</time></trkpt><trkpt lat="40.7580741" lon="14.8559163"><ele>655.0</ele><time>2026-05-01T07:19:24.973Z</time></trkpt><trkpt lat="40.7581633" lon="14.8558135"><ele>655.0</ele><time>2026-05-01T07:19:25.978Z</time></trkpt><trkpt lat="40.7582391" lon="14.8556958"><ele>660.2</ele><time>2026-05-01T07:19:26.983Z</time></trkpt><trkpt lat="40.7582882" lon="14.8555931"><ele>665.4</ele><time>2026-05-01T07:19:27.975Z</time></trkpt><trkpt lat="40.7583554" lon="14.8555228"><ele>670.5999999999999</ele><time>2026-05-01T07:19:28.975Z</time></trkpt><trkpt lat="40.7584481" lon="14.8554665"><ele>675.8</ele><time>2026-05-01T07:19:29.982Z</time></trkpt><trkpt lat="40.7585447" lon="14.8553575"><ele>681.0</ele><time>2026-05-01T07:19:30.977Z</time></trkpt><trkpt lat="40.7586218" lon="14.8552588"><ele>681.0</ele><time>2026-05-01T07:19:31.988Z</time></trkpt><trkpt lat="40.7586999" lon="14.8551604"><ele>681.0</ele><time>2026-05-01T07:19:32.983Z</time></trkpt><trkpt lat="40.7587912" lon="14.8550752"><ele>681.0</ele><time>2026-05-01T07:19:33.98Z</time></trkpt><trkpt lat="40.7588823" lon="14.8549855"><ele>681.0</ele><time>2026-05-01T07:19:34.977Z</time></trkpt><trkpt lat="40.7589811" lon="14.8548926"><ele>684.0</ele><time>2026-05-01T07:19:36.047Z</time></trkpt><trkpt lat="40.7590911" lon="14.8548073"><ele>687.0</ele><time>2026-05-01T07:19:36.989Z</time></trkpt><trkpt lat="40.7592017" lon="14.8547488"><ele>690.0</ele><time>2026-05-01T07:19:37.972Z</time></trkpt><trkpt lat="40.7592973" lon="14.8547261"><ele>693.0</ele><time>2026-05-01T07:19:39.07Z</time></trkpt><trkpt lat="40.7593687" lon="14.85472"><ele>696.0</ele><time>2026-05-01T07:19:39.975Z</time></trkpt><trkpt lat="40.7594375" lon="14.8547125"><ele>696.0</ele><time>2026-05-01T07:19:41.982Z</time></trkpt><trkpt lat="40.7594743" lon="14.854639"><ele>696.0</ele><time>2026-05-01T07:19:43.991Z</time></trkpt><trkpt lat="40.7595226" lon="14.8544974"><ele>696.0</ele><time>2026-05-01T07:19:45.985Z</time></trkpt><trkpt lat="40.7595446" lon="14.8543722"><ele>696.0</ele><time>2026-05-01T07:19:46.975Z</time></trkpt><trkpt lat="40.7596067" lon="14.854181"><ele>696.0</ele><time>2026-05-01T07:19:47.966Z</time></trkpt><trkpt lat="40.7596567" lon="14.8540321"><ele>702.25</ele><time>2026-05-01T07:19:48.963Z</time></trkpt><trkpt lat="40.7596918" lon="14.8538924"><ele>708.5</ele><time>2026-05-01T07:19:49.973Z</time></trkpt><trkpt lat="40.7597165" lon="14.853758"><ele>714.75</ele><time>2026-05-01T07:19:50.974Z</time></trkpt><trkpt lat="40.7597311" lon="14.8535963"><ele>721.0</ele><time>2026-05-01T07:19:52.037Z</time></trkpt><trkpt lat="40.7597309" lon="14.8534457"><ele>723.0</ele><time>2026-05-01T07:19:52.989Z</time></trkpt><trkpt lat="40.7596959" lon="14.85331"><ele>725.0</ele><time>2026-05-01T07:19:53.971Z</time></trkpt><trkpt lat="40.7596596" lon="14.8531922"><ele>727.0</ele><time>2026-05-01T07:19:54.978Z</time></trkpt><trkpt lat="40.7596539" lon="14.8530793"><ele>729.0</ele><time>2026-05-01T07:19:55.981Z</time></trkpt><trkpt lat="40.7596776" lon="14.8529476"><ele>731.0</ele><time>2026-05-01T07:19:56.977Z</time></trkpt><trkpt lat="40.7596768" lon="14.852792"><ele>731.0</ele><time>2026-05-01T07:19:57.965Z</time></trkpt><trkpt lat="40.759651" lon="14.8526543"><ele>731.0</ele><time>2026-05-01T07:19:58.967Z</time></trkpt><trkpt lat="40.7596208" lon="14.8525126"><ele>731.0</ele><time>2026-05-01T07:19:59.979Z</time></trkpt><trkpt lat="40.7595837" lon="14.8523895"><ele>731.0</ele><time>2026-05-01T07:20:00.969Z</time></trkpt><trkpt lat="40.7595658" lon="14.852285"><ele>731.0</ele><time>2026-05-01T07:20:01.972Z</time></trkpt><trkpt lat="40.7595835" lon="14.8521959"><ele>730.3333333333333</ele><time>2026-05-01T07:20:02.984Z</time></trkpt><trkpt lat="40.7596417" lon="14.8520995"><ele>729.6666666666666</ele><time>2026-05-01T07:20:03.978Z</time></trkpt><trkpt lat="40.759698" lon="14.8519948"><ele>729.0</ele><time>2026-05-01T07:20:04.965Z</time></trkpt><trkpt lat="40.7597394" lon="14.8518863"><ele>728.3333333333334</ele><time>2026-05-01T07:20:05.971Z</time></trkpt><trkpt lat="40.7597579" lon="14.851804"><ele>727.6666666666667</ele><time>2026-05-01T07:20:06.956Z</time></trkpt><trkpt lat="40.7597842" lon="14.8517035"><ele>727.0</ele><time>2026-05-01T07:20:08.983Z</time></trkpt><trkpt lat="40.75979" lon="14.8516076"><ele>725.6</ele><time>2026-05-01T07:20:10.982Z</time></trkpt><trkpt lat="40.759769" lon="14.8514825"><ele>724.2</ele><time>2026-05-01T07:20:13.032Z</time></trkpt><trkpt lat="40.7597435" lon="14.8513216"><ele>722.8</ele><time>2026-05-01T07:20:14.971Z</time></trkpt><trkpt lat="40.7596962" lon="14.8511634"><ele>721.4</ele><time>2026-05-01T07:20:16.976Z</time></trkpt><trkpt lat="40.759655" lon="14.8510783"><ele>720.0</ele><time>2026-05-01T07:20:17.97Z</time></trkpt><trkpt lat="40.759632" lon="14.8509924"><ele>720.8333333333334</ele><time>2026-05-01T07:20:18.979Z</time></trkpt><trkpt lat="40.7596081" lon="14.8508425"><ele>721.6666666666666</ele><time>2026-05-01T07:20:21.019Z</time></trkpt><trkpt lat="40.7596009" lon="14.8507568"><ele>722.5</ele><time>2026-05-01T07:20:23.959Z</time></trkpt><trkpt lat="40.7595801" lon="14.8506677"><ele>723.3333333333333</ele><time>2026-05-01T07:20:26.958Z</time></trkpt><trkpt lat="40.7595477" lon="14.8505814"><ele>724.1666666666666</ele><time>2026-05-01T07:20:28.976Z</time></trkpt><trkpt lat="40.7595105" lon="14.8504898"><ele>725.0</ele><time>2026-05-01T07:20:31.981Z</time></trkpt><trkpt lat="40.759489" lon="14.8504092"><ele>725.0</ele><time>2026-05-01T07:20:34.035Z</time></trkpt><trkpt lat="40.7594782" lon="14.8502904"><ele>725.0</ele><time>2026-05-01T07:20:35.972Z</time></trkpt><trkpt lat="40.7594425" lon="14.8501112"><ele>725.0</ele><time>2026-05-01T07:20:37.973Z</time></trkpt><trkpt lat="40.7594029" lon="14.8499533"><ele>725.0</ele><time>2026-05-01T07:20:39.965Z</time></trkpt><trkpt lat="40.7594381" lon="14.8498338"><ele>722.4</ele><time>2026-05-01T07:20:42.032Z</time></trkpt><trkpt lat="40.7595115" lon="14.8497622"><ele>719.8</ele><time>2026-05-01T07:20:44.049Z</time></trkpt><trkpt lat="40.7596131" lon="14.8497064"><ele>717.2</ele><time>2026-05-01T07:20:45.974Z</time></trkpt><trkpt lat="40.759721" lon="14.849643"><ele>714.6</ele><time>2026-05-01T07:20:47.985Z</time></trkpt><trkpt lat="40.7597845" lon="14.8495911"><ele>712.0</ele><time>2026-05-01T07:20:49.037Z</time></trkpt><trkpt lat="40.7598486" lon="14.84955"><ele>712.0</ele><time>2026-05-01T07:20:49.979Z</time></trkpt><trkpt lat="40.7599564" lon="14.8494966"><ele>712.0</ele><time>2026-05-01T07:20:51.992Z</time></trkpt><trkpt lat="40.7600213" lon="14.8494429"><ele>712.0</ele><time>2026-05-01T07:20:52.972Z</time></trkpt><trkpt lat="40.7600962" lon="14.8493368"><ele>712.0</ele><time>2026-05-01T07:20:54.978Z</time></trkpt><trkpt lat="40.7601533" lon="14.8492115"><ele>712.0</ele><time>2026-05-01T07:20:56.99Z</time></trkpt><trkpt lat="40.7601994" lon="14.8491269"><ele>707.2</ele><time>2026-05-01T07:20:57.974Z</time></trkpt><trkpt lat="40.7602447" lon="14.849055"><ele>702.4000000000001</ele><time>2026-05-01T07:20:58.977Z</time></trkpt><trkpt lat="40.7602876" lon="14.8489349"><ele>697.5999999999999</ele><time>2026-05-01T07:21:00.979Z</time></trkpt><trkpt lat="40.7603066" lon="14.8487933"><ele>692.8</ele><time>2026-05-01T07:21:02.983Z</time></trkpt><trkpt lat="40.7602916" lon="14.8486368"><ele>688.0</ele><time>2026-05-01T07:21:04.948Z</time></trkpt><trkpt lat="40.7602843" lon="14.8484436"><ele>688.0</ele><time>2026-05-01T07:21:06.974Z</time></trkpt><trkpt lat="40.7602684" lon="14.848354"><ele>688.0</ele><time>2026-05-01T07:21:07.983Z</time></trkpt><trkpt lat="40.7602629" lon="14.8482648"><ele>688.0</ele><time>2026-05-01T07:21:08.984Z</time></trkpt><trkpt lat="40.7602733" lon="14.8481623"><ele>688.0</ele><time>2026-05-01T07:21:10.983Z</time></trkpt><trkpt lat="40.7602946" lon="14.8480468"><ele>688.0</ele><time>2026-05-01T07:21:12.989Z</time></trkpt><trkpt lat="40.7603166" lon="14.8479514"><ele>688.0</ele><time>2026-05-01T07:21:14.98Z</time></trkpt><trkpt lat="40.7603577" lon="14.8478502"><ele>688.0</ele><time>2026-05-01T07:21:17.019Z</time></trkpt><trkpt lat="40.760383" lon="14.8477259"><ele>688.0</ele><time>2026-05-01T07:21:18.986Z</time></trkpt><trkpt lat="40.7603951" lon="14.8476011"><ele>688.0</ele><time>2026-05-01T07:21:20.964Z</time></trkpt><trkpt lat="40.7604187" lon="14.8474866"><ele>688.0</ele><time>2026-05-01T07:21:22.993Z</time></trkpt><trkpt lat="40.7604561" lon="14.8473501"><ele>688.0</ele><time>2026-05-01T07:21:24.986Z</time></trkpt><trkpt lat="40.7605134" lon="14.8472191"><ele>685.4</ele><time>2026-05-01T07:21:26.996Z</time></trkpt><trkpt lat="40.7605479" lon="14.8470832"><ele>682.8</ele><time>2026-05-01T07:21:28.993Z</time></trkpt><trkpt lat="40.7605927" lon="14.8469459"><ele>680.2</ele><time>2026-05-01T07:21:30.99Z</time></trkpt><trkpt lat="40.7606379" lon="14.8468295"><ele>677.6</ele><time>2026-05-01T07:21:32.998Z</time></trkpt><trkpt lat="40.7606604" lon="14.8467321"><ele>675.0</ele><time>2026-05-01T07:21:34.99Z</time></trkpt><trkpt lat="40.7607055" lon="14.8466532"><ele>675.0</ele><time>2026-05-01T07:21:36.999Z</time></trkpt><trkpt lat="40.7607736" lon="14.8466379"><ele>675.0</ele><time>2026-05-01T07:21:38.992Z</time></trkpt><trkpt lat="40.7608229" lon="14.8467213"><ele>675.0</ele><time>2026-05-01T07:21:41.991Z</time></trkpt><trkpt lat="40.760837" lon="14.8468314"><ele>675.0</ele><time>2026-05-01T07:21:43.986Z</time></trkpt><trkpt lat="40.7608495" lon="14.8469544"><ele>675.0</ele><time>2026-05-01T07:21:45.985Z</time></trkpt><trkpt lat="40.7608582" lon="14.8470515"><ele>675.0</ele><time>2026-05-01T07:21:47.99Z</time></trkpt><trkpt lat="40.7609191" lon="14.8471162"><ele>675.0</ele><time>2026-05-01T07:21:49.989Z</time></trkpt><trkpt lat="40.7609998" lon="14.8471582"><ele>675.0</ele><time>2026-05-01T07:21:51.982Z</time></trkpt><trkpt lat="40.7610969" lon="14.8471605"><ele>675.0</ele><time>2026-05-01T07:21:53.987Z</time></trkpt><trkpt lat="40.7612038" lon="14.8471675"><ele>675.0</ele><time>2026-05-01T07:21:55.985Z</time></trkpt><trkpt lat="40.7613208" lon="14.8471884"><ele>675.0</ele><time>2026-05-01T07:21:57.999Z</time></trkpt><trkpt lat="40.7614169" lon="14.8472237"><ele>670.5</ele><time>2026-05-01T07:21:59.986Z</time></trkpt><trkpt lat="40.7614738" lon="14.8471724"><ele>666.0</ele><time>2026-05-01T07:22:02.982Z</time></trkpt><trkpt lat="40.7614113" lon="14.8470859"><ele>661.5</ele><time>2026-05-01T07:22:05.99Z</time></trkpt><trkpt lat="40.7613442" lon="14.8470196"><ele>657.0</ele><time>2026-05-01T07:22:07.988Z</time></trkpt><trkpt lat="40.7612639" lon="14.8469703"><ele>652.5</ele><time>2026-05-01T07:22:09.99Z</time></trkpt><trkpt lat="40.7612237" lon="14.8468916"><ele>648.0</ele><time>2026-05-01T07:22:11.989Z</time></trkpt><trkpt lat="40.7612605" lon="14.846758"><ele>646.3333333333334</ele><time>2026-05-01T07:22:13.991Z</time></trkpt><trkpt lat="40.7612887" lon="14.8466212"><ele>644.6666666666666</ele><time>2026-05-01T07:22:15.989Z</time></trkpt><trkpt lat="40.7612988" lon="14.8465128"><ele>643.0</ele><time>2026-05-01T07:22:16.983Z</time></trkpt><trkpt lat="40.7612945" lon="14.846399"><ele>641.3333333333333</ele><time>2026-05-01T07:22:17.984Z</time></trkpt><trkpt lat="40.7612823" lon="14.8462827"><ele>639.6666666666666</ele><time>2026-05-01T07:22:18.988Z</time></trkpt><trkpt lat="40.7612644" lon="14.8461771"><ele>638.0</ele><time>2026-05-01T07:22:19.993Z</time></trkpt><trkpt lat="40.7612521" lon="14.8460815"><ele>638.0</ele><time>2026-05-01T07:22:20.989Z</time></trkpt><trkpt lat="40.7612454" lon="14.8459837"><ele>638.0</ele><time>2026-05-01T07:22:21.988Z</time></trkpt><trkpt lat="40.7612553" lon="14.8458851"><ele>638.0</ele><time>2026-05-01T07:22:22.967Z</time></trkpt><trkpt lat="40.7612642" lon="14.845778"><ele>638.0</ele><time>2026-05-01T07:22:23.986Z</time></trkpt><trkpt lat="40.7612596" lon="14.845678"><ele>638.0</ele><time>2026-05-01T07:22:25.031Z</time></trkpt><trkpt lat="40.7612552" lon="14.8455786"><ele>638.0</ele><time>2026-05-01T07:22:26.038Z</time></trkpt><trkpt lat="40.7612171" lon="14.8454597"><ele>635.3333333333333</ele><time>2026-05-01T07:22:27.978Z</time></trkpt><trkpt lat="40.7612421" lon="14.8453688"><ele>632.6666666666666</ele><time>2026-05-01T07:22:30.985Z</time></trkpt><trkpt lat="40.7612983" lon="14.8452895"><ele>630.0</ele><time>2026-05-01T07:22:33.058Z</time></trkpt><trkpt lat="40.7613566" lon="14.8452112"><ele>627.3333333333334</ele><time>2026-05-01T07:22:34.965Z</time></trkpt><trkpt lat="40.7614481" lon="14.8451591"><ele>624.6666666666667</ele><time>2026-05-01T07:22:36.979Z</time></trkpt><trkpt lat="40.7615226" lon="14.8451193"><ele>622.0</ele><time>2026-05-01T07:22:38.969Z</time></trkpt><trkpt lat="40.7615713" lon="14.8450442"><ele>621.0</ele><time>2026-05-01T07:22:41.067Z</time></trkpt><trkpt lat="40.7616175" lon="14.844888"><ele>620.0</ele><time>2026-05-01T07:22:43.977Z</time></trkpt><trkpt lat="40.7616855" lon="14.8447993"><ele>619.0</ele><time>2026-05-01T07:22:45.971Z</time></trkpt><trkpt lat="40.7617764" lon="14.8446952"><ele>618.0</ele><time>2026-05-01T07:22:48.021Z</time></trkpt><trkpt lat="40.7618317" lon="14.8446136"><ele>617.0</ele><time>2026-05-01T07:22:48.969Z</time></trkpt><trkpt lat="40.7618943" lon="14.844535"><ele>612.5</ele><time>2026-05-01T07:22:49.956Z</time></trkpt><trkpt lat="40.7619561" lon="14.8444737"><ele>608.0</ele><time>2026-05-01T07:22:50.947Z</time></trkpt><trkpt lat="40.762015" lon="14.8444203"><ele>603.5</ele><time>2026-05-01T07:22:51.972Z</time></trkpt><trkpt lat="40.7620738" lon="14.8443265"><ele>599.0</ele><time>2026-05-01T07:22:53.969Z</time></trkpt><trkpt lat="40.7621507" lon="14.8441969"><ele>594.5</ele><time>2026-05-01T07:22:55.959Z</time></trkpt><trkpt lat="40.7621845" lon="14.8441136"><ele>590.0</ele><time>2026-05-01T07:22:57.972Z</time></trkpt><trkpt lat="40.7621437" lon="14.844195"><ele>590.0</ele><time>2026-05-01T07:23:05.962Z</time></trkpt><trkpt lat="40.762123" lon="14.8442965"><ele>590.0</ele><time>2026-05-01T07:23:08.983Z</time></trkpt><trkpt lat="40.7621453" lon="14.8443809"><ele>590.0</ele><time>2026-05-01T07:23:11.947Z</time></trkpt><trkpt lat="40.7622039" lon="14.8444142"><ele>590.0</ele><time>2026-05-01T07:23:42.973Z</time></trkpt><trkpt lat="40.7622152" lon="14.8445079"><ele>590.0</ele><time>2026-05-01T07:23:50.969Z</time></trkpt><trkpt lat="40.7621993" lon="14.8446226"><ele>590.0</ele><time>2026-05-01T07:23:54.968Z</time></trkpt><trkpt lat="40.7621798" lon="14.844756"><ele>590.0</ele><time>2026-05-01T07:23:59.977Z</time></trkpt><trkpt lat="40.7621864" lon="14.8449191"><ele>590.0</ele><time>2026-05-01T07:24:03.981Z</time></trkpt><trkpt lat="40.7621979" lon="14.8450098"><ele>590.0</ele><time>2026-05-01T07:24:06.057Z</time></trkpt><trkpt lat="40.7622155" lon="14.8451142"><ele>590.0</ele><time>2026-05-01T07:24:07.968Z</time></trkpt><trkpt lat="40.7622531" lon="14.8452465"><ele>590.0</ele><time>2026-05-01T07:24:13.969Z</time></trkpt><trkpt lat="40.7623115" lon="14.8453118"><ele>591.3333333333333</ele><time>2026-05-01T07:24:16.034Z</time></trkpt><trkpt lat="40.7623665" lon="14.8453755"><ele>592.6666666666666</ele><time>2026-05-01T07:24:17.978Z</time></trkpt><trkpt lat="40.762399" lon="14.8455084"><ele>594.0</ele><time>2026-05-01T07:24:25.97Z</time></trkpt><trkpt lat="40.7624288" lon="14.845599"><ele>595.3333333333334</ele><time>2026-05-01T07:24:28.961Z</time></trkpt><trkpt lat="40.7624586" lon="14.8456728"><ele>596.6666666666667</ele><time>2026-05-01T07:24:31.99Z</time></trkpt><trkpt lat="40.7624977" lon="14.8457445"><ele>598.0</ele><time>2026-05-01T07:24:35.97Z</time></trkpt><trkpt lat="40.762522" lon="14.8458262"><ele>598.0</ele><time>2026-05-01T07:27:06.98Z</time></trkpt><trkpt lat="40.7625564" lon="14.8459067"><ele>598.0</ele><time>2026-05-01T07:29:56.959Z</time></trkpt><trkpt lat="40.7625698" lon="14.8459951"><ele>598.0</ele><time>2026-05-01T07:29:59.974Z</time></trkpt><trkpt lat="40.762589" lon="14.8460748"><ele>598.0</ele><time>2026-05-01T07:30:01.974Z</time></trkpt><trkpt lat="40.7626034" lon="14.8461891"><ele>598.0</ele><time>2026-05-01T07:30:04.97Z</time></trkpt><trkpt lat="40.7626182" lon="14.8462936"><ele>598.0</ele><time>2026-05-01T07:30:08.039Z</time></trkpt><trkpt lat="40.7626495" lon="14.846379"><ele>598.0</ele><time>2026-05-01T07:30:10.969Z</time></trkpt><trkpt lat="40.762687" lon="14.8464757"><ele>600.3333333333334</ele><time>2026-05-01T07:30:13.974Z</time></trkpt><trkpt lat="40.7627401" lon="14.8464056"><ele>602.6666666666667</ele><time>2026-05-01T07:30:23.042Z</time></trkpt><trkpt lat="40.7627627" lon="14.8465251"><ele>605.0</ele><time>2026-05-01T07:30:28.976Z</time></trkpt><trkpt lat="40.7627863" lon="14.8466131"><ele>607.3333333333334</ele><time>2026-05-01T07:30:30.987Z</time></trkpt><trkpt lat="40.7627981" lon="14.8467005"><ele>609.6666666666666</ele><time>2026-05-01T07:30:32.969Z</time></trkpt><trkpt lat="40.7627848" lon="14.846821"><ele>612.0</ele><time>2026-05-01T07:30:34.978Z</time></trkpt><trkpt lat="40.7627695" lon="14.8469399"><ele>614.4</ele><time>2026-05-01T07:30:36.976Z</time></trkpt><trkpt lat="40.7627505" lon="14.8470487"><ele>616.8000000000001</ele><time>2026-05-01T07:30:38.979Z</time></trkpt><trkpt lat="40.7627606" lon="14.8471429"><ele>619.2</ele><time>2026-05-01T07:30:40.983Z</time></trkpt><trkpt lat="40.7628106" lon="14.847274"><ele>621.6</ele><time>2026-05-01T07:30:42.98Z</time></trkpt><trkpt lat="40.762845" lon="14.847404"><ele>624.0</ele><time>2026-05-01T07:30:43.98Z</time></trkpt><trkpt lat="40.7628715" lon="14.8475011"><ele>624.0</ele><time>2026-05-01T07:30:44.982Z</time></trkpt><trkpt lat="40.7628934" lon="14.8476234"><ele>624.0</ele><time>2026-05-01T07:30:45.97Z</time></trkpt><trkpt lat="40.7629174" lon="14.8477054"><ele>624.0</ele><time>2026-05-01T07:30:47.012Z</time></trkpt><trkpt lat="40.7629345" lon="14.847834"><ele>624.0</ele><time>2026-05-01T07:30:48.97Z</time></trkpt><trkpt lat="40.7629339" lon="14.8479332"><ele>624.0</ele><time>2026-05-01T07:30:50.976Z</time></trkpt><trkpt lat="40.7628876" lon="14.8478443"><ele>624.0</ele><time>2026-05-01T07:30:58.972Z</time></trkpt><trkpt lat="40.7628531" lon="14.8477314"><ele>624.0</ele><time>2026-05-01T07:31:00.968Z</time></trkpt><trkpt lat="40.7628134" lon="14.8476601"><ele>624.0</ele><time>2026-05-01T07:31:02.975Z</time></trkpt><trkpt lat="40.7627901" lon="14.84758"><ele>624.0</ele><time>2026-05-01T07:31:04.974Z</time></trkpt><trkpt lat="40.7627595" lon="14.847475"><ele>624.0</ele><time>2026-05-01T07:31:07.97Z</time></trkpt><trkpt lat="40.7627683" lon="14.847381"><ele>624.0</ele><time>2026-05-01T07:31:09.976Z</time></trkpt><trkpt lat="40.7628152" lon="14.8472974"><ele>624.0</ele><time>2026-05-01T07:31:11.973Z</time></trkpt><trkpt lat="40.7628794" lon="14.8472019"><ele>624.0</ele><time>2026-05-01T07:31:13.958Z</time></trkpt><trkpt lat="40.762936" lon="14.8471115"><ele>624.0</ele><time>2026-05-01T07:31:15.97Z</time></trkpt><trkpt lat="40.7629642" lon="14.8470201"><ele>624.0</ele><time>2026-05-01T07:31:17.974Z</time></trkpt><trkpt lat="40.7629614" lon="14.8469137"><ele>624.0</ele><time>2026-05-01T07:31:19.973Z</time></trkpt><trkpt lat="40.7629692" lon="14.8468163"><ele>624.0</ele><time>2026-05-01T07:31:21.963Z</time></trkpt><trkpt lat="40.7629795" lon="14.8467143"><ele>624.0</ele><time>2026-05-01T07:31:24.964Z</time></trkpt><trkpt lat="40.7629705" lon="14.8468052"><ele>622.0</ele><time>2026-05-01T07:31:33.965Z</time></trkpt><trkpt lat="40.7629594" lon="14.8467077"><ele>620.0</ele><time>2026-05-01T07:31:38.969Z</time></trkpt><trkpt lat="40.7629547" lon="14.8466171"><ele>618.0</ele><time>2026-05-01T07:31:43.961Z</time></trkpt><trkpt lat="40.7629521" lon="14.8464981"><ele>616.0</ele><time>2026-05-01T07:31:46.966Z</time></trkpt><trkpt lat="40.762913" lon="14.8463967"><ele>614.0</ele><time>2026-05-01T07:31:48.971Z</time></trkpt><trkpt lat="40.7628698" lon="14.846277"><ele>612.0</ele><time>2026-05-01T07:31:50.971Z</time></trkpt><trkpt lat="40.7628403" lon="14.8462017"><ele>612.0</ele><time>2026-05-01T07:31:51.969Z</time></trkpt><trkpt lat="40.7628111" lon="14.8461193"><ele>612.0</ele><time>2026-05-01T07:31:52.964Z</time></trkpt><trkpt lat="40.7627857" lon="14.8460364"><ele>612.0</ele><time>2026-05-01T07:31:53.968Z</time></trkpt><trkpt lat="40.762761" lon="14.8459557"><ele>612.0</ele><time>2026-05-01T07:31:54.966Z</time></trkpt><trkpt lat="40.7627171" lon="14.845894"><ele>612.0</ele><time>2026-05-01T07:31:55.966Z</time></trkpt><trkpt lat="40.762619" lon="14.8458137"><ele>612.0</ele><time>2026-05-01T07:31:57.973Z</time></trkpt><trkpt lat="40.762516" lon="14.8458028"><ele>611.6666666666666</ele><time>2026-05-01T07:31:59.95Z</time></trkpt><trkpt lat="40.7624307" lon="14.8458384"><ele>611.3333333333334</ele><time>2026-05-01T07:32:02.978Z</time></trkpt><trkpt lat="40.7623769" lon="14.8458832"><ele>611.0</ele><time>2026-05-01T07:32:04.967Z</time></trkpt><trkpt lat="40.7623126" lon="14.8459193"><ele>610.6666666666667</ele><time>2026-05-01T07:32:06.972Z</time></trkpt><trkpt lat="40.7622244" lon="14.8459406"><ele>610.3333333333334</ele><time>2026-05-01T07:32:09.972Z</time></trkpt><trkpt lat="40.7621466" lon="14.8460011"><ele>610.0</ele><time>2026-05-01T07:32:12.976Z</time></trkpt><trkpt lat="40.7620832" lon="14.8460241"><ele>610.0</ele><time>2026-05-01T07:32:14.963Z</time></trkpt><trkpt lat="40.7620481" lon="14.8460997"><ele>610.0</ele><time>2026-05-01T07:32:17.969Z</time></trkpt><trkpt lat="40.7620798" lon="14.8461866"><ele>610.0</ele><time>2026-05-01T07:32:20.966Z</time></trkpt><trkpt lat="40.7621654" lon="14.8462011"><ele>610.0</ele><time>2026-05-01T07:32:24.978Z</time></trkpt><trkpt lat="40.7622233" lon="14.8461421"><ele>610.0</ele><time>2026-05-01T07:32:27.971Z</time></trkpt><trkpt lat="40.7622863" lon="14.8461284"><ele>610.0</ele><time>2026-05-01T07:32:29.977Z</time></trkpt><trkpt lat="40.7623683" lon="14.8461201"><ele>610.0</ele><time>2026-05-01T07:32:32.967Z</time></trkpt><trkpt lat="40.7624478" lon="14.8461804"><ele>610.0</ele><time>2026-05-01T07:32:35.972Z</time></trkpt><trkpt lat="40.762498" lon="14.8462459"><ele>610.0</ele><time>2026-05-01T07:32:37.975Z</time></trkpt><trkpt lat="40.7625622" lon="14.8462443"><ele>610.0</ele><time>2026-05-01T07:32:40.97Z</time></trkpt><trkpt lat="40.7625891" lon="14.8461422"><ele>610.0</ele><time>2026-05-01T07:32:43.976Z</time></trkpt><trkpt lat="40.7625993" lon="14.8460478"><ele>610.0</ele><time>2026-05-01T07:32:46.969Z</time></trkpt><trkpt lat="40.7625524" lon="14.8459858"><ele>610.0</ele><time>2026-05-01T07:32:49.967Z</time></trkpt><trkpt lat="40.7624908" lon="14.8459306"><ele>610.0</ele><time>2026-05-01T07:32:52.012Z</time></trkpt><trkpt lat="40.7624545" lon="14.8458581"><ele>610.0</ele><time>2026-05-01T07:32:54.978Z</time></trkpt><trkpt lat="40.7625545" lon="14.8458708"><ele>610.0</ele><time>2026-05-01T07:33:01.028Z</time></trkpt><trkpt lat="40.7625858" lon="14.8459852"><ele>610.0</ele><time>2026-05-01T07:33:03.972Z</time></trkpt><trkpt lat="40.7626204" lon="14.8461024"><ele>610.0</ele><time>2026-05-01T07:33:06.986Z</time></trkpt><trkpt lat="40.7626273" lon="14.8462005"><ele>610.0</ele><time>2026-05-01T07:33:08.98Z</time></trkpt><trkpt lat="40.762649" lon="14.8463403"><ele>610.0</ele><time>2026-05-01T07:33:13.985Z</time></trkpt><trkpt lat="40.7626977" lon="14.8464317"><ele>610.0</ele><time>2026-05-01T07:33:15.979Z</time></trkpt><trkpt lat="40.7627464" lon="14.8464954"><ele>610.0</ele><time>2026-05-01T07:33:28.96Z</time></trkpt><trkpt lat="40.7627524" lon="14.8465994"><ele>610.0</ele><time>2026-05-01T07:33:31.962Z</time></trkpt><trkpt lat="40.7627726" lon="14.8467037"><ele>610.0</ele><time>2026-05-01T07:33:34.945Z</time></trkpt><trkpt lat="40.7627817" lon="14.8468059"><ele>610.0</ele><time>2026-05-01T07:33:36.968Z</time></trkpt><trkpt lat="40.7627798" lon="14.8469651"><ele>612.8</ele><time>2026-05-01T07:33:38.973Z</time></trkpt><trkpt lat="40.7627804" lon="14.8470531"><ele>615.6</ele><time>2026-05-01T07:33:39.975Z</time></trkpt><trkpt lat="40.7627749" lon="14.847184"><ele>618.4</ele><time>2026-05-01T07:33:40.971Z</time></trkpt><trkpt lat="40.7627796" lon="14.8473316"><ele>621.2</ele><time>2026-05-01T07:33:41.962Z</time></trkpt><trkpt lat="40.7628025" lon="14.8474267"><ele>624.0</ele><time>2026-05-01T07:33:42.967Z</time></trkpt><trkpt lat="40.7628293" lon="14.8475553"><ele>625.8333333333334</ele><time>2026-05-01T07:33:43.973Z</time></trkpt><trkpt lat="40.762853" lon="14.8476671"><ele>627.6666666666666</ele><time>2026-05-01T07:33:44.989Z</time></trkpt><trkpt lat="40.7628897" lon="14.8477488"><ele>629.5</ele><time>2026-05-01T07:33:45.964Z</time></trkpt><trkpt lat="40.7629262" lon="14.8478237"><ele>631.3333333333333</ele><time>2026-05-01T07:33:46.969Z</time></trkpt><trkpt lat="40.7629487" lon="14.8479546"><ele>633.1666666666666</ele><time>2026-05-01T07:33:48.965Z</time></trkpt><trkpt lat="40.7629724" lon="14.8480424"><ele>635.0</ele><time>2026-05-01T07:33:51.97Z</time></trkpt><trkpt lat="40.762924" lon="14.8479278"><ele>635.0</ele><time>2026-05-01T07:33:57.959Z</time></trkpt><trkpt lat="40.762886" lon="14.8477996"><ele>635.0</ele><time>2026-05-01T07:33:59.968Z</time></trkpt><trkpt lat="40.7628554" lon="14.8476916"><ele>635.0</ele><time>2026-05-01T07:34:02.96Z</time></trkpt><trkpt lat="40.7628256" lon="14.8475693"><ele>635.0</ele><time>2026-05-01T07:34:05.971Z</time></trkpt><trkpt lat="40.7627993" lon="14.8474863"><ele>635.0</ele><time>2026-05-01T07:34:07.966Z</time></trkpt><trkpt lat="40.7628088" lon="14.8473661"><ele>635.0</ele><time>2026-05-01T07:34:10.961Z</time></trkpt><trkpt lat="40.7628657" lon="14.847296"><ele>633.4285714285713</ele><time>2026-05-01T07:34:12.965Z</time></trkpt><trkpt lat="40.7629004" lon="14.8472154"><ele>631.8571428571429</ele><time>2026-05-01T07:34:14.967Z</time></trkpt><trkpt lat="40.762932" lon="14.8471399"><ele>630.2857142857142</ele><time>2026-05-01T07:34:16.97Z</time></trkpt><trkpt lat="40.7629343" lon="14.8470211"><ele>628.7142857142857</ele><time>2026-05-01T07:34:19.967Z</time></trkpt><trkpt lat="40.7629436" lon="14.8469145"><ele>627.1428571428571</ele><time>2026-05-01T07:34:23.051Z</time></trkpt><trkpt lat="40.7629418" lon="14.846827"><ele>625.5714285714286</ele><time>2026-05-01T07:34:24.979Z</time></trkpt><trkpt lat="40.7629291" lon="14.8467373"><ele>624.0</ele><time>2026-05-01T07:34:39.99Z</time></trkpt><trkpt lat="40.7629202" lon="14.8466425"><ele>621.6</ele><time>2026-05-01T07:34:41.967Z</time></trkpt><trkpt lat="40.7628777" lon="14.8465255"><ele>619.2</ele><time>2026-05-01T07:34:43.976Z</time></trkpt><trkpt lat="40.762828" lon="14.8463585"><ele>616.8000000000001</ele><time>2026-05-01T07:34:45.985Z</time></trkpt><trkpt lat="40.7627956" lon="14.8462525"><ele>614.4</ele><time>2026-05-01T07:34:47.013Z</time></trkpt><trkpt lat="40.7627618" lon="14.846151"><ele>612.0</ele><time>2026-05-01T07:34:47.965Z</time></trkpt><trkpt lat="40.7627351" lon="14.8460553"><ele>612.0</ele><time>2026-05-01T07:34:48.977Z</time></trkpt><trkpt lat="40.762714" lon="14.8459747"><ele>612.0</ele><time>2026-05-01T07:34:49.951Z</time></trkpt><trkpt lat="40.7626866" lon="14.845893"><ele>612.0</ele><time>2026-05-01T07:34:50.952Z</time></trkpt><trkpt lat="40.7626503" lon="14.8457695"><ele>612.0</ele><time>2026-05-01T07:34:53.028Z</time></trkpt><trkpt lat="40.7625998" lon="14.845719"><ele>612.0</ele><time>2026-05-01T07:34:54.972Z</time></trkpt><trkpt lat="40.7625304" lon="14.8457294"><ele>612.0</ele><time>2026-05-01T07:34:56.941Z</time></trkpt><trkpt lat="40.7624492" lon="14.8457742"><ele>611.6666666666666</ele><time>2026-05-01T07:35:00.043Z</time></trkpt><trkpt lat="40.7624012" lon="14.845837"><ele>611.3333333333334</ele><time>2026-05-01T07:35:02.026Z</time></trkpt><trkpt lat="40.7623427" lon="14.8458678"><ele>611.0</ele><time>2026-05-01T07:35:03.967Z</time></trkpt><trkpt lat="40.762269" lon="14.8459109"><ele>610.6666666666667</ele><time>2026-05-01T07:35:05.975Z</time></trkpt><trkpt lat="40.7621788" lon="14.8459396"><ele>610.3333333333334</ele><time>2026-05-01T07:35:07.963Z</time></trkpt><trkpt lat="40.7621147" lon="14.8459858"><ele>610.0</ele><time>2026-05-01T07:35:09.981Z</time></trkpt><trkpt lat="40.7620409" lon="14.8460199"><ele>610.0</ele><time>2026-05-01T07:35:11.977Z</time></trkpt><trkpt lat="40.7619803" lon="14.8460593"><ele>610.0</ele><time>2026-05-01T07:35:13.971Z</time></trkpt><trkpt lat="40.7620344" lon="14.846131"><ele>610.0</ele><time>2026-05-01T07:35:19.985Z</time></trkpt><trkpt lat="40.7620973" lon="14.8461364"><ele>610.0</ele><time>2026-05-01T07:35:21.989Z</time></trkpt><trkpt lat="40.7621725" lon="14.8461028"><ele>610.0</ele><time>2026-05-01T07:35:24.993Z</time></trkpt><trkpt lat="40.7622451" lon="14.8461014"><ele>610.0</ele><time>2026-05-01T07:35:26.999Z</time></trkpt><trkpt lat="40.7623302" lon="14.8461091"><ele>610.0</ele><time>2026-05-01T07:35:28.989Z</time></trkpt><trkpt lat="40.7624048" lon="14.8461415"><ele>610.0</ele><time>2026-05-01T07:35:30.993Z</time></trkpt><trkpt lat="40.7624651" lon="14.8461931"><ele>610.0</ele><time>2026-05-01T07:35:33.044Z</time></trkpt><trkpt lat="40.7625211" lon="14.8462517"><ele>610.0</ele><time>2026-05-01T07:35:34.976Z</time></trkpt><trkpt lat="40.7625781" lon="14.8461936"><ele>610.0</ele><time>2026-05-01T07:35:39.976Z</time></trkpt><trkpt lat="40.7626166" lon="14.846123"><ele>610.0</ele><time>2026-05-01T07:35:42.981Z</time></trkpt><trkpt lat="40.7626229" lon="14.8460199"><ele>610.0</ele><time>2026-05-01T07:36:47.963Z</time></trkpt><trkpt lat="40.7626417" lon="14.8459323"><ele>610.0</ele><time>2026-05-01T07:37:01.971Z</time></trkpt><trkpt lat="40.7626232" lon="14.8460145"><ele>610.0</ele><time>2026-05-01T07:48:03.956Z</time></trkpt><trkpt lat="40.7626408" lon="14.8461094"><ele>610.0</ele><time>2026-05-01T07:48:06.975Z</time></trkpt><trkpt lat="40.762647" lon="14.8462214"><ele>610.0</ele><time>2026-05-01T07:48:09.97Z</time></trkpt><trkpt lat="40.7626639" lon="14.8463171"><ele>610.0</ele><time>2026-05-01T07:48:12.964Z</time></trkpt><trkpt lat="40.7626952" lon="14.8464104"><ele>610.0</ele><time>2026-05-01T07:48:15.973Z</time></trkpt><trkpt lat="40.7627561" lon="14.8464603"><ele>610.0</ele><time>2026-05-01T07:48:27.963Z</time></trkpt><trkpt lat="40.762771" lon="14.846558"><ele>610.4</ele><time>2026-05-01T07:48:30.962Z</time></trkpt><trkpt lat="40.7627779" lon="14.8466465"><ele>610.8</ele><time>2026-05-01T07:48:33.962Z</time></trkpt><trkpt lat="40.7627719" lon="14.8467504"><ele>611.2</ele><time>2026-05-01T07:48:35.97Z</time></trkpt><trkpt lat="40.7627403" lon="14.84698"><ele>611.6</ele><time>2026-05-01T07:48:37.977Z</time></trkpt><trkpt lat="40.762731" lon="14.8470735"><ele>612.0</ele><time>2026-05-01T07:48:38.964Z</time></trkpt><trkpt lat="40.7627257" lon="14.847158"><ele>615.0</ele><time>2026-05-01T07:48:39.969Z</time></trkpt><trkpt lat="40.7627337" lon="14.8473071"><ele>618.0</ele><time>2026-05-01T07:48:41.968Z</time></trkpt><trkpt lat="40.7627783" lon="14.8474569"><ele>621.0</ele><time>2026-05-01T07:48:43.96Z</time></trkpt><trkpt lat="40.7628196" lon="14.8475953"><ele>624.0</ele><time>2026-05-01T07:48:45.982Z</time></trkpt><trkpt lat="40.7628556" lon="14.8477302"><ele>624.0</ele><time>2026-05-01T07:48:47.972Z</time></trkpt><trkpt lat="40.7628593" lon="14.8478184"><ele>624.0</ele><time>2026-05-01T07:48:49.947Z</time></trkpt><trkpt lat="40.7628928" lon="14.8479023"><ele>624.0</ele><time>2026-05-01T07:48:52.965Z</time></trkpt><trkpt lat="40.7628759" lon="14.8478107"><ele>624.0</ele><time>2026-05-01T07:49:00.961Z</time></trkpt><trkpt lat="40.7628542" lon="14.8477232"><ele>624.0</ele><time>2026-05-01T07:49:02.961Z</time></trkpt><trkpt lat="40.7628243" lon="14.8476304"><ele>624.0</ele><time>2026-05-01T07:49:04.954Z</time></trkpt><trkpt lat="40.7628083" lon="14.8475308"><ele>624.0</ele><time>2026-05-01T07:49:06.944Z</time></trkpt><trkpt lat="40.7628013" lon="14.8474387"><ele>624.0</ele><time>2026-05-01T07:49:08.964Z</time></trkpt><trkpt lat="40.7628168" lon="14.8473421"><ele>624.0</ele><time>2026-05-01T07:49:10.956Z</time></trkpt><trkpt lat="40.7628537" lon="14.8472573"><ele>624.0</ele><time>2026-05-01T07:49:12.968Z</time></trkpt><trkpt lat="40.7629176" lon="14.8471523"><ele>624.0</ele><time>2026-05-01T07:49:14.962Z</time></trkpt><trkpt lat="40.7629618" lon="14.8470448"><ele>624.0</ele><time>2026-05-01T07:49:16.962Z</time></trkpt><trkpt lat="40.7629892" lon="14.84696"><ele>624.0</ele><time>2026-05-01T07:49:18.944Z</time></trkpt><trkpt lat="40.762971" lon="14.846846"><ele>622.0</ele><time>2026-05-01T07:49:21.966Z</time></trkpt><trkpt lat="40.7629776" lon="14.8467563"><ele>620.0</ele><time>2026-05-01T07:49:23.959Z</time></trkpt><trkpt lat="40.762962" lon="14.846668"><ele>618.0</ele><time>2026-05-01T07:49:26.963Z</time></trkpt><trkpt lat="40.7629822" lon="14.8465638"><ele>616.0</ele><time>2026-05-01T07:49:42.968Z</time></trkpt><trkpt lat="40.7629565" lon="14.8464723"><ele>614.0</ele><time>2026-05-01T07:49:44.966Z</time></trkpt><trkpt lat="40.7629061" lon="14.8463486"><ele>612.0</ele><time>2026-05-01T07:49:46.968Z</time></trkpt><trkpt lat="40.7628676" lon="14.8461955"><ele>612.0</ele><time>2026-05-01T07:49:48.966Z</time></trkpt><trkpt lat="40.7628166" lon="14.8460482"><ele>612.0</ele><time>2026-05-01T07:49:50.952Z</time></trkpt><trkpt lat="40.7627671" lon="14.8459193"><ele>612.0</ele><time>2026-05-01T07:49:52.966Z</time></trkpt><trkpt lat="40.7626865" lon="14.8458379"><ele>612.0</ele><time>2026-05-01T07:49:54.958Z</time></trkpt><trkpt lat="40.762577" lon="14.8458312"><ele>612.0</ele><time>2026-05-01T07:49:56.96Z</time></trkpt><trkpt lat="40.7624882" lon="14.8458129"><ele>611.6666666666666</ele><time>2026-05-01T07:49:58.965Z</time></trkpt><trkpt lat="40.762404" lon="14.8458282"><ele>611.3333333333334</ele><time>2026-05-01T07:50:00.969Z</time></trkpt><trkpt lat="40.7623388" lon="14.845879"><ele>611.0</ele><time>2026-05-01T07:50:02.967Z</time></trkpt><trkpt lat="40.7622454" lon="14.8458959"><ele>610.6666666666667</ele><time>2026-05-01T07:50:04.965Z</time></trkpt><trkpt lat="40.7621568" lon="14.8459226"><ele>610.3333333333334</ele><time>2026-05-01T07:50:06.966Z</time></trkpt><trkpt lat="40.7620811" lon="14.8459835"><ele>610.0</ele><time>2026-05-01T07:50:08.968Z</time></trkpt><trkpt lat="40.7620112" lon="14.8460529"><ele>610.0</ele><time>2026-05-01T07:50:11.969Z</time></trkpt><trkpt lat="40.7619507" lon="14.8460906"><ele>610.0</ele><time>2026-05-01T07:50:13.97Z</time></trkpt><trkpt lat="40.7620005" lon="14.8461607"><ele>610.0</ele><time>2026-05-01T07:50:18.967Z</time></trkpt><trkpt lat="40.7620895" lon="14.8461764"><ele>610.0</ele><time>2026-05-01T07:50:21.964Z</time></trkpt><trkpt lat="40.7621587" lon="14.8461265"><ele>610.0</ele><time>2026-05-01T07:50:24.972Z</time></trkpt><trkpt lat="40.7622217" lon="14.8461046"><ele>610.0</ele><time>2026-05-01T07:50:26.971Z</time></trkpt><trkpt lat="40.7622849" lon="14.8460892"><ele>610.0</ele><time>2026-05-01T07:50:28.971Z</time></trkpt><trkpt lat="40.7623509" lon="14.8461148"><ele>610.0</ele><time>2026-05-01T07:50:30.963Z</time></trkpt><trkpt lat="40.762417" lon="14.8461855"><ele>610.0</ele><time>2026-05-01T07:50:32.963Z</time></trkpt><trkpt lat="40.7624946" lon="14.846248"><ele>610.0</ele><time>2026-05-01T07:50:34.973Z</time></trkpt><trkpt lat="40.7625612" lon="14.8462032"><ele>610.0</ele><time>2026-05-01T07:50:38.964Z</time></trkpt><trkpt lat="40.762592" lon="14.8461198"><ele>610.0</ele><time>2026-05-01T07:50:40.966Z</time></trkpt><trkpt lat="40.7625739" lon="14.8460358"><ele>610.0</ele><time>2026-05-01T07:50:42.968Z</time></trkpt><trkpt lat="40.7625085" lon="14.8459485"><ele>610.0</ele><time>2026-05-01T07:50:45.979Z</time></trkpt><trkpt lat="40.7624783" lon="14.8458686"><ele>610.0</ele><time>2026-05-01T07:50:48.965Z</time></trkpt><trkpt lat="40.762561" lon="14.8458632"><ele>610.0</ele><time>2026-05-01T07:50:54.966Z</time></trkpt><trkpt lat="40.762603" lon="14.8459635"><ele>610.0</ele><time>2026-05-01T07:50:57.971Z</time></trkpt><trkpt lat="40.762609" lon="14.8460569"><ele>610.0</ele><time>2026-05-01T07:51:00.965Z</time></trkpt><trkpt lat="40.7626201" lon="14.8461934"><ele>610.0</ele><time>2026-05-01T07:51:04.967Z</time></trkpt><trkpt lat="40.7626569" lon="14.846296"><ele>610.0</ele><time>2026-05-01T07:51:07.961Z</time></trkpt><trkpt lat="40.7626738" lon="14.846379"><ele>610.0</ele><time>2026-05-01T07:51:09.965Z</time></trkpt><trkpt lat="40.7627379" lon="14.8463929"><ele>610.0</ele><time>2026-05-01T07:51:18.98Z</time></trkpt><trkpt lat="40.7627692" lon="14.8464908"><ele>610.0</ele><time>2026-05-01T07:51:21.974Z</time></trkpt><trkpt lat="40.762757" lon="14.8465724"><ele>610.0</ele><time>2026-05-01T07:51:23.971Z</time></trkpt><trkpt lat="40.7627613" lon="14.8466574"><ele>610.0</ele><time>2026-05-01T07:51:25.975Z</time></trkpt><trkpt lat="40.7627671" lon="14.846751"><ele>610.0</ele><time>2026-05-01T07:51:27.966Z</time></trkpt><trkpt lat="40.7627758" lon="14.8469287"><ele>612.8</ele><time>2026-05-01T07:51:29.965Z</time></trkpt><trkpt lat="40.7627773" lon="14.8470539"><ele>615.6</ele><time>2026-05-01T07:51:31.966Z</time></trkpt><trkpt lat="40.7627589" lon="14.8471963"><ele>618.4</ele><time>2026-05-01T07:51:33.961Z</time></trkpt><trkpt lat="40.7627517" lon="14.8472861"><ele>621.2</ele><time>2026-05-01T07:51:34.965Z</time></trkpt><trkpt lat="40.7627883" lon="14.847412"><ele>624.0</ele><time>2026-05-01T07:51:35.971Z</time></trkpt><trkpt lat="40.7628209" lon="14.8475325"><ele>625.8333333333334</ele><time>2026-05-01T07:51:36.964Z</time></trkpt><trkpt lat="40.7628442" lon="14.8476276"><ele>627.6666666666666</ele><time>2026-05-01T07:51:37.955Z</time></trkpt><trkpt lat="40.7628712" lon="14.8477296"><ele>629.5</ele><time>2026-05-01T07:51:38.956Z</time></trkpt><trkpt lat="40.7628943" lon="14.8478248"><ele>631.3333333333333</ele><time>2026-05-01T07:51:39.962Z</time></trkpt><trkpt lat="40.762914" lon="14.8479359"><ele>633.1666666666666</ele><time>2026-05-01T07:51:41.959Z</time></trkpt><trkpt lat="40.7629277" lon="14.8480186"><ele>635.0</ele><time>2026-05-01T07:51:44.963Z</time></trkpt><trkpt lat="40.762921" lon="14.8479177"><ele>635.0</ele><time>2026-05-01T07:51:52.966Z</time></trkpt><trkpt lat="40.7629267" lon="14.8478271"><ele>635.0</ele><time>2026-05-01T07:51:55.956Z</time></trkpt><trkpt lat="40.7629137" lon="14.8477341"><ele>635.0</ele><time>2026-05-01T07:52:11.964Z</time></trkpt><trkpt lat="40.7628765" lon="14.8476285"><ele>635.0</ele><time>2026-05-01T07:52:14.958Z</time></trkpt><trkpt lat="40.7628491" lon="14.8475029"><ele>635.0</ele><time>2026-05-01T07:52:17.955Z</time></trkpt><trkpt lat="40.762836" lon="14.8473833"><ele>635.0</ele><time>2026-05-01T07:52:19.953Z</time></trkpt><trkpt lat="40.7628762" lon="14.8472968"><ele>633.1666666666666</ele><time>2026-05-01T07:52:21.966Z</time></trkpt><trkpt lat="40.7629346" lon="14.8472005"><ele>631.3333333333333</ele><time>2026-05-01T07:52:23.96Z</time></trkpt><trkpt lat="40.7629675" lon="14.8471072"><ele>629.5</ele><time>2026-05-01T07:52:25.96Z</time></trkpt><trkpt lat="40.7629764" lon="14.8470152"><ele>627.6666666666666</ele><time>2026-05-01T07:52:27.969Z</time></trkpt><trkpt lat="40.7629724" lon="14.8469186"><ele>625.8333333333334</ele><time>2026-05-01T07:52:29.969Z</time></trkpt><trkpt lat="40.7629548" lon="14.8468201"><ele>624.0</ele><time>2026-05-01T07:52:31.971Z</time></trkpt><trkpt lat="40.7629586" lon="14.8467323"><ele>621.6</ele><time>2026-05-01T07:52:44.96Z</time></trkpt><trkpt lat="40.7629672" lon="14.8466456"><ele>619.2</ele><time>2026-05-01T07:52:46.944Z</time></trkpt><trkpt lat="40.762948" lon="14.8465047"><ele>616.8000000000001</ele><time>2026-05-01T07:52:49.968Z</time></trkpt><trkpt lat="40.7628975" lon="14.8463795"><ele>614.4</ele><time>2026-05-01T07:52:51.97Z</time></trkpt><trkpt lat="40.7628537" lon="14.8463048"><ele>612.0</ele><time>2026-05-01T07:52:52.963Z</time></trkpt><trkpt lat="40.7627341" lon="14.8460514"><ele>611.0</ele><time>2026-05-01T07:52:53.957Z</time></trkpt><trkpt lat="40.762712" lon="14.8459235"><ele>610.0</ele><time>2026-05-01T07:52:54.969Z</time></trkpt><trkpt lat="40.7626786" lon="14.8458203"><ele>609.0</ele><time>2026-05-01T07:52:55.962Z</time></trkpt><trkpt lat="40.7626415" lon="14.8457385"><ele>608.0</ele><time>2026-05-01T07:52:56.97Z</time></trkpt><trkpt lat="40.7625838" lon="14.8456803"><ele>607.0</ele><time>2026-05-01T07:52:57.971Z</time></trkpt><trkpt lat="40.7624735" lon="14.8456557"><ele>606.0</ele><time>2026-05-01T07:52:59.974Z</time></trkpt><trkpt lat="40.7623971" lon="14.8456998"><ele>606.5714285714286</ele><time>2026-05-01T07:53:01.969Z</time></trkpt><trkpt lat="40.7623457" lon="14.8457703"><ele>607.1428571428571</ele><time>2026-05-01T07:53:03.973Z</time></trkpt><trkpt lat="40.7622955" lon="14.8458393"><ele>607.7142857142858</ele><time>2026-05-01T07:53:05.971Z</time></trkpt><trkpt lat="40.7622304" lon="14.8458906"><ele>608.2857142857142</ele><time>2026-05-01T07:53:08.969Z</time></trkpt><trkpt lat="40.762168" lon="14.8459083"><ele>608.8571428571428</ele><time>2026-05-01T07:53:10.972Z</time></trkpt><trkpt lat="40.7621064" lon="14.8459566"><ele>609.4285714285714</ele><time>2026-05-01T07:53:12.97Z</time></trkpt><trkpt lat="40.7620545" lon="14.8460054"><ele>610.0</ele><time>2026-05-01T07:53:14.97Z</time></trkpt><trkpt lat="40.7619965" lon="14.8460505"><ele>610.0</ele><time>2026-05-01T07:53:16.968Z</time></trkpt><trkpt lat="40.7619617" lon="14.8461221"><ele>610.0</ele><time>2026-05-01T07:53:19.954Z</time></trkpt><trkpt lat="40.7620391" lon="14.8461585"><ele>610.0</ele><time>2026-05-01T07:53:31.969Z</time></trkpt><trkpt lat="40.7621209" lon="14.8461103"><ele>610.0</ele><time>2026-05-01T07:53:34.969Z</time></trkpt><trkpt lat="40.7621887" lon="14.8460979"><ele>610.0</ele><time>2026-05-01T07:53:36.976Z</time></trkpt><trkpt lat="40.7622587" lon="14.8460972"><ele>610.0</ele><time>2026-05-01T07:53:38.967Z</time></trkpt><trkpt lat="40.7623345" lon="14.8461253"><ele>610.0</ele><time>2026-05-01T07:53:40.965Z</time></trkpt><trkpt lat="40.7624096" lon="14.8461686"><ele>610.0</ele><time>2026-05-01T07:53:42.968Z</time></trkpt><trkpt lat="40.7624744" lon="14.8462085"><ele>610.0</ele><time>2026-05-01T07:53:44.971Z</time></trkpt><trkpt lat="40.7625682" lon="14.8462064"><ele>610.0</ele><time>2026-05-01T07:53:47.96Z</time></trkpt><trkpt lat="40.7626048" lon="14.8461236"><ele>610.0</ele><time>2026-05-01T07:53:50.965Z</time></trkpt><trkpt lat="40.762558" lon="14.8460187"><ele>610.0</ele><time>2026-05-01T07:53:54.968Z</time></trkpt><trkpt lat="40.762532" lon="14.8459"><ele>610.0</ele><time>2026-05-01T07:53:57.959Z</time></trkpt><trkpt lat="40.7626054" lon="14.8459331"><ele>610.0</ele><time>2026-05-01T07:54:05.961Z</time></trkpt><trkpt lat="40.7626368" lon="14.8460201"><ele>610.0</ele><time>2026-05-01T07:54:07.967Z</time></trkpt><trkpt lat="40.7626333" lon="14.8461441"><ele>610.0</ele><time>2026-05-01T07:54:10.972Z</time></trkpt><trkpt lat="40.7626585" lon="14.8462727"><ele>610.0</ele><time>2026-05-01T07:54:13.971Z</time></trkpt><trkpt lat="40.7626877" lon="14.8463691"><ele>610.0</ele><time>2026-05-01T07:54:15.962Z</time></trkpt><trkpt lat="40.7627229" lon="14.8464681"><ele>610.3333333333334</ele><time>2026-05-01T07:54:17.969Z</time></trkpt><trkpt lat="40.7627867" lon="14.8464868"><ele>610.6666666666667</ele><time>2026-05-01T07:54:30.943Z</time></trkpt><trkpt lat="40.7627706" lon="14.8465758"><ele>611.0</ele><time>2026-05-01T07:54:32.969Z</time></trkpt><trkpt lat="40.7627888" lon="14.8466554"><ele>611.3333333333334</ele><time>2026-05-01T07:54:34.974Z</time></trkpt><trkpt lat="40.7627973" lon="14.8467943"><ele>611.6666666666666</ele><time>2026-05-01T07:54:36.962Z</time></trkpt><trkpt lat="40.7628004" lon="14.8468948"><ele>612.0</ele><time>2026-05-01T07:54:37.968Z</time></trkpt><trkpt lat="40.7627989" lon="14.84701"><ele>614.4</ele><time>2026-05-01T07:54:38.946Z</time></trkpt><trkpt lat="40.7628004" lon="14.8471499"><ele>616.8000000000001</ele><time>2026-05-01T07:54:40.966Z</time></trkpt><trkpt lat="40.7628209" lon="14.8472871"><ele>619.2</ele><time>2026-05-01T07:54:42.961Z</time></trkpt><trkpt lat="40.7628358" lon="14.8473684"><ele>621.6</ele><time>2026-05-01T07:54:43.965Z</time></trkpt><trkpt lat="40.7628787" lon="14.8475226"><ele>624.0</ele><time>2026-05-01T07:54:45.962Z</time></trkpt><trkpt lat="40.7629063" lon="14.8476204"><ele>627.6666666666666</ele><time>2026-05-01T07:54:46.965Z</time></trkpt><trkpt lat="40.762938" lon="14.8477055"><ele>631.3333333333333</ele><time>2026-05-01T07:54:47.966Z</time></trkpt><trkpt lat="40.7629627" lon="14.8478133"><ele>635.0</ele><time>2026-05-01T07:54:49.964Z</time></trkpt><trkpt lat="40.7627867" lon="14.8464868"><ele>633.1666666666666</ele><time>2026-05-01T07:54:30.943Z</time></trkpt><trkpt lat="40.7627706" lon="14.8465758"><ele>631.3333333333333</ele><time>2026-05-01T07:54:32.969Z</time></trkpt><trkpt lat="40.7627888" lon="14.8466554"><ele>629.5</ele><time>2026-05-01T07:54:34.974Z</time></trkpt><trkpt lat="40.7627973" lon="14.8467943"><ele>627.6666666666666</ele><time>2026-05-01T07:54:36.962Z</time></trkpt><trkpt lat="40.7628004" lon="14.8468948"><ele>625.8333333333334</ele><time>2026-05-01T07:54:37.968Z</time></trkpt><trkpt lat="40.7627989" lon="14.84701"><ele>624.0</ele><time>2026-05-01T07:54:38.946Z</time></trkpt><trkpt lat="40.7628004" lon="14.8471499"><ele>624.0</ele><time>2026-05-01T07:54:40.966Z</time></trkpt><trkpt lat="40.7628209" lon="14.8472871"><ele>624.0</ele><time>2026-05-01T07:54:42.961Z</time></trkpt><trkpt lat="40.7628358" lon="14.8473684"><ele>624.0</ele><time>2026-05-01T07:54:43.965Z</time></trkpt><trkpt lat="40.7628787" lon="14.8475226"><ele>624.0</ele><time>2026-05-01T07:54:45.962Z</time></trkpt><trkpt lat="40.7629063" lon="14.8476204"><ele>624.0</ele><time>2026-05-01T07:54:46.965Z</time></trkpt><trkpt lat="40.762938" lon="14.8477055"><ele>624.0</ele><time>2026-05-01T07:54:47.966Z</time></trkpt><trkpt lat="40.7629627" lon="14.8478133"><ele>624.0</ele><time>2026-05-01T07:54:49.964Z</time></trkpt><trkpt lat="40.7629716" lon="14.8479047"><ele>624.0</ele><time>2026-05-01T07:54:53.954Z</time></trkpt><trkpt lat="40.7629368" lon="14.8478262"><ele>624.0</ele><time>2026-05-01T07:55:01.971Z</time></trkpt><trkpt lat="40.762919" lon="14.8477241"><ele>624.0</ele><time>2026-05-01T07:55:03.968Z</time></trkpt><trkpt lat="40.7628867" lon="14.8475978"><ele>624.0</ele><time>2026-05-01T07:55:05.944Z</time></trkpt><trkpt lat="40.7628798" lon="14.8474822"><ele>624.0</ele><time>2026-05-01T07:55:07.964Z</time></trkpt><trkpt lat="40.7628849" lon="14.8473312"><ele>624.0</ele><time>2026-05-01T07:55:09.961Z</time></trkpt><trkpt lat="40.7629036" lon="14.8472429"><ele>624.0</ele><time>2026-05-01T07:55:11.959Z</time></trkpt><trkpt lat="40.7629287" lon="14.8471556"><ele>624.0</ele><time>2026-05-01T07:55:13.94Z</time></trkpt><trkpt lat="40.7629723" lon="14.8470532"><ele>624.0</ele><time>2026-05-01T07:55:16.965Z</time></trkpt><trkpt lat="40.7629737" lon="14.846968"><ele>624.0</ele><time>2026-05-01T07:55:18.961Z</time></trkpt><trkpt lat="40.762979" lon="14.8468783"><ele>624.0</ele><time>2026-05-01T07:55:20.957Z</time></trkpt><trkpt lat="40.7629951" lon="14.8467767"><ele>624.0</ele><time>2026-05-01T07:55:22.959Z</time></trkpt><trkpt lat="40.7629984" lon="14.8466886"><ele>621.6</ele><time>2026-05-01T07:55:35.972Z</time></trkpt><trkpt lat="40.7629784" lon="14.8465806"><ele>619.2</ele><time>2026-05-01T07:55:38.971Z</time></trkpt><trkpt lat="40.762937" lon="14.8464524"><ele>616.8000000000001</ele><time>2026-05-01T07:55:41.005Z</time></trkpt><trkpt lat="40.7628992" lon="14.8463416"><ele>614.4</ele><time>2026-05-01T07:55:41.975Z</time></trkpt><trkpt lat="40.7628643" lon="14.8462406"><ele>612.0</ele><time>2026-05-01T07:55:42.961Z</time></trkpt><trkpt lat="40.7628235" lon="14.8461368"><ele>612.0</ele><time>2026-05-01T07:55:43.956Z</time></trkpt><trkpt lat="40.7627551" lon="14.8460172"><ele>612.0</ele><time>2026-05-01T07:55:44.964Z</time></trkpt><trkpt lat="40.7626893" lon="14.8458945"><ele>612.0</ele><time>2026-05-01T07:55:45.956Z</time></trkpt><trkpt lat="40.7626443" lon="14.8457952"><ele>612.0</ele><time>2026-05-01T07:55:46.963Z</time></trkpt><trkpt lat="40.7625987" lon="14.8457143"><ele>612.0</ele><time>2026-05-01T07:55:47.954Z</time></trkpt><trkpt lat="40.762527" lon="14.8456497"><ele>611.6666666666666</ele><time>2026-05-01T07:55:49.965Z</time></trkpt><trkpt lat="40.7624365" lon="14.8456542"><ele>611.3333333333334</ele><time>2026-05-01T07:55:51.962Z</time></trkpt><trkpt lat="40.7623813" lon="14.8457144"><ele>611.0</ele><time>2026-05-01T07:55:53.973Z</time></trkpt><trkpt lat="40.7623304" lon="14.8457708"><ele>610.6666666666667</ele><time>2026-05-01T07:55:55.967Z</time></trkpt><trkpt lat="40.762274" lon="14.8458611"><ele>610.3333333333334</ele><time>2026-05-01T07:56:00.962Z</time></trkpt><trkpt lat="40.7622095" lon="14.8458995"><ele>610.0</ele><time>2026-05-01T07:56:03.96Z</time></trkpt><trkpt lat="40.7621344" lon="14.8459619"><ele>610.0</ele><time>2026-05-01T07:56:06.974Z</time></trkpt><trkpt lat="40.7620638" lon="14.8460026"><ele>610.0</ele><time>2026-05-01T07:56:10.962Z</time></trkpt><trkpt lat="40.7620446" lon="14.8460866"><ele>610.0</ele><time>2026-05-01T07:56:14.962Z</time></trkpt><trkpt lat="40.7621052" lon="14.8461492"><ele>610.0</ele><time>2026-05-01T07:56:17.97Z</time></trkpt><trkpt lat="40.7621642" lon="14.8461152"><ele>610.0</ele><time>2026-05-01T07:56:21.953Z</time></trkpt><trkpt lat="40.7622453" lon="14.8460857"><ele>610.0</ele><time>2026-05-01T07:56:24.965Z</time></trkpt><trkpt lat="40.7623141" lon="14.8460867"><ele>610.0</ele><time>2026-05-01T07:56:26.978Z</time></trkpt><trkpt lat="40.7623989" lon="14.8461349"><ele>610.0</ele><time>2026-05-01T07:56:29.969Z</time></trkpt><trkpt lat="40.7624677" lon="14.8462033"><ele>610.0</ele><time>2026-05-01T07:56:31.969Z</time></trkpt><trkpt lat="40.7625375" lon="14.8462302"><ele>610.0</ele><time>2026-05-01T07:56:34.966Z</time></trkpt><trkpt lat="40.762572" lon="14.8461603"><ele>610.0</ele><time>2026-05-01T07:56:38.967Z</time></trkpt><trkpt lat="40.7626089" lon="14.846072"><ele>610.0</ele><time>2026-05-01T07:58:26.946Z</time></trkpt><trkpt lat="40.762621" lon="14.8459829"><ele>610.0</ele><time>2026-05-01T08:06:38.973Z</time></trkpt><trkpt lat="40.762586" lon="14.8458851"><ele>610.0</ele><time>2026-05-01T08:07:05.976Z</time></trkpt><trkpt lat="40.7625398" lon="14.8458219"><ele>610.0</ele><time>2026-05-01T08:07:08.988Z</time></trkpt><trkpt lat="40.7624903" lon="14.8457624"><ele>610.0</ele><time>2026-05-01T08:07:10.95Z</time></trkpt><trkpt lat="40.7624069" lon="14.8457462"><ele>610.0</ele><time>2026-05-01T08:07:13.978Z</time></trkpt><trkpt lat="40.7623567" lon="14.8458269"><ele>610.0</ele><time>2026-05-01T08:07:17.976Z</time></trkpt><trkpt lat="40.7623087" lon="14.8458958"><ele>610.0</ele><time>2026-05-01T08:07:19.984Z</time></trkpt><trkpt lat="40.7622448" lon="14.8459294"><ele>610.0</ele><time>2026-05-01T08:07:21.977Z</time></trkpt><trkpt lat="40.7621587" lon="14.8459619"><ele>610.0</ele><time>2026-05-01T08:07:24.967Z</time></trkpt><trkpt lat="40.7621016" lon="14.8460029"><ele>610.0</ele><time>2026-05-01T08:07:26.98Z</time></trkpt><trkpt lat="40.7620131" lon="14.8460586"><ele>610.0</ele><time>2026-05-01T08:07:29.977Z</time></trkpt><trkpt lat="40.761967" lon="14.8461309"><ele>610.0</ele><time>2026-05-01T08:07:32.969Z</time></trkpt><trkpt lat="40.762044" lon="14.8461471"><ele>610.0</ele><time>2026-05-01T08:07:37.952Z</time></trkpt><trkpt lat="40.7621178" lon="14.8461122"><ele>610.0</ele><time>2026-05-01T08:07:40.978Z</time></trkpt><trkpt lat="40.7621999" lon="14.8460915"><ele>610.0</ele><time>2026-05-01T08:07:43.975Z</time></trkpt><trkpt lat="40.7622651" lon="14.8460983"><ele>610.0</ele><time>2026-05-01T08:07:45.972Z</time></trkpt><trkpt lat="40.7623414" lon="14.8461153"><ele>610.0</ele><time>2026-05-01T08:07:47.98Z</time></trkpt><trkpt lat="40.7623972" lon="14.8461784"><ele>610.0</ele><time>2026-05-01T08:07:49.975Z</time></trkpt><trkpt lat="40.7624543" lon="14.8462491"><ele>610.0</ele><time>2026-05-01T08:07:51.984Z</time></trkpt><trkpt lat="40.7625154" lon="14.8462141"><ele>610.0</ele><time>2026-05-01T08:07:55.974Z</time></trkpt><trkpt lat="40.7625389" lon="14.8461338"><ele>610.0</ele><time>2026-05-01T08:07:57.979Z</time></trkpt><trkpt lat="40.762533" lon="14.8460306"><ele>610.0</ele><time>2026-05-01T08:08:00.978Z</time></trkpt><trkpt lat="40.7625115" lon="14.8459437"><ele>610.0</ele><time>2026-05-01T08:08:03.984Z</time></trkpt><trkpt lat="40.7624918" lon="14.8458633"><ele>610.0</ele><time>2026-05-01T08:08:06.975Z</time></trkpt><trkpt lat="40.7625701" lon="14.8459134"><ele>610.0</ele><time>2026-05-01T08:08:10.986Z</time></trkpt><trkpt lat="40.7626255" lon="14.845958"><ele>610.0</ele><time>2026-05-01T08:08:17.97Z</time></trkpt><trkpt lat="40.7626257" lon="14.8460584"><ele>610.0</ele><time>2026-05-01T08:08:21.977Z</time></trkpt><trkpt lat="40.7626335" lon="14.8461619"><ele>610.0</ele><time>2026-05-01T08:08:24.985Z</time></trkpt><trkpt lat="40.7626376" lon="14.8462614"><ele>610.0</ele><time>2026-05-01T08:08:27.98Z</time></trkpt><trkpt lat="40.7626656" lon="14.8463385"><ele>610.0</ele><time>2026-05-01T08:08:30.994Z</time></trkpt><trkpt lat="40.7626835" lon="14.8464455"><ele>610.0</ele><time>2026-05-01T08:08:33.983Z</time></trkpt><trkpt lat="40.7627391" lon="14.8465224"><ele>610.0</ele><time>2026-05-01T08:08:39.983Z</time></trkpt><trkpt lat="40.7627185" lon="14.8464366"><ele>610.0</ele><time>2026-05-01T08:08:46.982Z</time></trkpt><trkpt lat="40.762777" lon="14.8464851"><ele>610.0</ele><time>2026-05-01T08:08:53.983Z</time></trkpt><trkpt lat="40.762813" lon="14.8465866"><ele>610.4</ele><time>2026-05-01T08:08:57.987Z</time></trkpt><trkpt lat="40.7628034" lon="14.846689"><ele>610.8</ele><time>2026-05-01T08:08:59.97Z</time></trkpt><trkpt lat="40.7627604" lon="14.8468321"><ele>611.2</ele><time>2026-05-01T08:09:01.974Z</time></trkpt><trkpt lat="40.7627376" lon="14.846963"><ele>611.6</ele><time>2026-05-01T08:09:03.986Z</time></trkpt><trkpt lat="40.7627291" lon="14.8470824"><ele>612.0</ele><time>2026-05-01T08:09:05.976Z</time></trkpt><trkpt lat="40.7627383" lon="14.8471901"><ele>614.0</ele><time>2026-05-01T08:09:07.984Z</time></trkpt><trkpt lat="40.7627532" lon="14.8472837"><ele>616.0</ele><time>2026-05-01T08:09:09.981Z</time></trkpt><trkpt lat="40.7627722" lon="14.8474045"><ele>618.0</ele><time>2026-05-01T08:09:11.977Z</time></trkpt><trkpt lat="40.7627962" lon="14.8474973"><ele>620.0</ele><time>2026-05-01T08:09:13.98Z</time></trkpt><trkpt lat="40.7628629" lon="14.8476517"><ele>622.0</ele><time>2026-05-01T08:09:20.967Z</time></trkpt><trkpt lat="40.7628027" lon="14.8476013"><ele>624.0</ele><time>2026-05-01T08:09:28.979Z</time></trkpt><trkpt lat="40.7628061" lon="14.8475149"><ele>624.0</ele><time>2026-05-01T08:09:33.983Z</time></trkpt><trkpt lat="40.7628092" lon="14.8474237"><ele>624.0</ele><time>2026-05-01T08:09:36.986Z</time></trkpt><trkpt lat="40.7628454" lon="14.847307"><ele>624.0</ele><time>2026-05-01T08:09:39.98Z</time></trkpt><trkpt lat="40.7628991" lon="14.8472101"><ele>624.0</ele><time>2026-05-01T08:09:42.982Z</time></trkpt><trkpt lat="40.76294" lon="14.8471424"><ele>624.0</ele><time>2026-05-01T08:09:44.992Z</time></trkpt><trkpt lat="40.7629853" lon="14.8470509"><ele>624.0</ele><time>2026-05-01T08:09:47.979Z</time></trkpt><trkpt lat="40.763015" lon="14.8469419"><ele>624.0</ele><time>2026-05-01T08:09:50.981Z</time></trkpt><trkpt lat="40.7630234" lon="14.8468478"><ele>624.0</ele><time>2026-05-01T08:09:53.98Z</time></trkpt><trkpt lat="40.7629843" lon="14.8467819"><ele>624.0</ele><time>2026-05-01T08:09:57.976Z</time></trkpt><trkpt lat="40.7630126" lon="14.8466684"><ele>624.0</ele><time>2026-05-01T08:10:09.979Z</time></trkpt><trkpt lat="40.7629973" lon="14.8465571"><ele>624.0</ele><time>2026-05-01T08:10:11.976Z</time></trkpt><trkpt lat="40.7629526" lon="14.8464037"><ele>624.0</ele><time>2026-05-01T08:10:13.979Z</time></trkpt><trkpt lat="40.7628963" lon="14.8462468"><ele>621.6</ele><time>2026-05-01T08:10:14.967Z</time></trkpt><trkpt lat="40.7628248" lon="14.8460281"><ele>619.2</ele><time>2026-05-01T08:10:15.974Z</time></trkpt><trkpt lat="40.7627762" lon="14.8459086"><ele>616.8000000000001</ele><time>2026-05-01T08:10:16.972Z</time></trkpt><trkpt lat="40.7627389" lon="14.8458132"><ele>614.4</ele><time>2026-05-01T08:10:17.979Z</time></trkpt><trkpt lat="40.7626964" lon="14.845727"><ele>612.0</ele><time>2026-05-01T08:10:18.978Z</time></trkpt><trkpt lat="40.7626489" lon="14.8456688"><ele>610.0</ele><time>2026-05-01T08:10:19.964Z</time></trkpt><trkpt lat="40.7625908" lon="14.8456186"><ele>608.0</ele><time>2026-05-01T08:10:21.988Z</time></trkpt><trkpt lat="40.7625207" lon="14.8456116"><ele>606.0</ele><time>2026-05-01T08:10:23.98Z</time></trkpt><trkpt lat="40.7624414" lon="14.8456569"><ele>604.0</ele><time>2026-05-01T08:10:25.973Z</time></trkpt><trkpt lat="40.76238" lon="14.8457409"><ele>602.0</ele><time>2026-05-01T08:10:28.984Z</time></trkpt><trkpt lat="40.7623375" lon="14.8458023"><ele>600.0</ele><time>2026-05-01T08:10:30.985Z</time></trkpt><trkpt lat="40.7623019" lon="14.8458782"><ele>598.0</ele><time>2026-05-01T08:10:32.979Z</time></trkpt><trkpt lat="40.7622482" lon="14.8459289"><ele>600.0</ele><time>2026-05-01T08:10:34.955Z</time></trkpt><trkpt lat="40.7621732" lon="14.8459665"><ele>602.0</ele><time>2026-05-01T08:10:37.982Z</time></trkpt><trkpt lat="40.7621205" lon="14.8460204"><ele>604.0</ele><time>2026-05-01T08:10:40.978Z</time></trkpt><trkpt lat="40.7620445" lon="14.8460696"><ele>606.0</ele><time>2026-05-01T08:10:43.983Z</time></trkpt><trkpt lat="40.7620212" lon="14.8461655"><ele>608.0</ele><time>2026-05-01T08:10:47.969Z</time></trkpt><trkpt lat="40.7620933" lon="14.8461472"><ele>610.0</ele><time>2026-05-01T08:10:55.952Z</time></trkpt><trkpt lat="40.7621816" lon="14.846105"><ele>610.0</ele><time>2026-05-01T08:11:00.977Z</time></trkpt><trkpt lat="40.7622746" lon="14.8461091"><ele>610.0</ele><time>2026-05-01T08:11:03.971Z</time></trkpt><trkpt lat="40.7623579" lon="14.846145"><ele>610.0</ele><time>2026-05-01T08:11:10.98Z</time></trkpt><trkpt lat="40.7624188" lon="14.8461748"><ele>610.0</ele><time>2026-05-01T08:11:13.986Z</time></trkpt><trkpt lat="40.7624928" lon="14.8461348"><ele>610.0</ele><time>2026-05-01T08:11:17.977Z</time></trkpt><trkpt lat="40.7625409" lon="14.8460566"><ele>610.0</ele><time>2026-05-01T08:11:20.976Z</time></trkpt><trkpt lat="40.7625771" lon="14.845976"><ele>608.2857142857143</ele><time>2026-05-01T08:12:12.976Z</time></trkpt><trkpt lat="40.7625695" lon="14.8458874"><ele>606.5714285714286</ele><time>2026-05-01T08:13:34.964Z</time></trkpt><trkpt lat="40.7625605" lon="14.8457935"><ele>604.8571428571429</ele><time>2026-05-01T08:13:37.947Z</time></trkpt><trkpt lat="40.7625255" lon="14.8457082"><ele>603.1428571428571</ele><time>2026-05-01T08:13:40.957Z</time></trkpt><trkpt lat="40.7624846" lon="14.8456392"><ele>601.4285714285714</ele><time>2026-05-01T08:13:43.95Z</time></trkpt><trkpt lat="40.7624445" lon="14.8455746"><ele>599.7142857142857</ele><time>2026-05-01T08:13:45.969Z</time></trkpt><trkpt lat="40.7624065" lon="14.8454924"><ele>598.0</ele><time>2026-05-01T08:13:48.95Z</time></trkpt><trkpt lat="40.7623446" lon="14.8454211"><ele>598.0</ele><time>2026-05-01T08:13:51.948Z</time></trkpt><trkpt lat="40.7623243" lon="14.8452975"><ele>598.0</ele><time>2026-05-01T08:13:53.948Z</time></trkpt><trkpt lat="40.7623325" lon="14.8451769"><ele>598.0</ele><time>2026-05-01T08:13:55.959Z</time></trkpt><trkpt lat="40.7623266" lon="14.8450616"><ele>598.0</ele><time>2026-05-01T08:13:57.967Z</time></trkpt><trkpt lat="40.7623052" lon="14.8449673"><ele>598.0</ele><time>2026-05-01T08:13:59.952Z</time></trkpt><trkpt lat="40.7623002" lon="14.8448766"><ele>598.0</ele><time>2026-05-01T08:14:01.969Z</time></trkpt><trkpt lat="40.7623006" lon="14.8447693"><ele>596.6666666666667</ele><time>2026-05-01T08:14:04.972Z</time></trkpt><trkpt lat="40.7623203" lon="14.8446825"><ele>595.3333333333334</ele><time>2026-05-01T08:14:07.952Z</time></trkpt><trkpt lat="40.762382" lon="14.8445596"><ele>594.0</ele><time>2026-05-01T08:14:10.964Z</time></trkpt><trkpt lat="40.7624223" lon="14.8444819"><ele>592.6666666666666</ele><time>2026-05-01T08:14:11.965Z</time></trkpt><trkpt lat="40.7624598" lon="14.8443934"><ele>591.3333333333333</ele><time>2026-05-01T08:14:12.965Z</time></trkpt><trkpt lat="40.7625132" lon="14.8442713"><ele>590.0</ele><time>2026-05-01T08:14:13.966Z</time></trkpt><trkpt lat="40.7625749" lon="14.8441498"><ele>590.0</ele><time>2026-05-01T08:14:14.954Z</time></trkpt><trkpt lat="40.7626187" lon="14.8440463"><ele>590.0</ele><time>2026-05-01T08:14:15.961Z</time></trkpt><trkpt lat="40.7626632" lon="14.8439579"><ele>590.0</ele><time>2026-05-01T08:14:16.955Z</time></trkpt><trkpt lat="40.7627017" lon="14.8438637"><ele>590.0</ele><time>2026-05-01T08:14:17.953Z</time></trkpt><trkpt lat="40.7627292" lon="14.8437642"><ele>590.0</ele><time>2026-05-01T08:14:18.971Z</time></trkpt><trkpt lat="40.7627586" lon="14.8436813"><ele>590.0</ele><time>2026-05-01T08:14:19.965Z</time></trkpt><trkpt lat="40.7628261" lon="14.8435301"><ele>586.1666666666666</ele><time>2026-05-01T08:14:21.953Z</time></trkpt><trkpt lat="40.7628508" lon="14.8434041"><ele>582.3333333333333</ele><time>2026-05-01T08:14:22.977Z</time></trkpt><trkpt lat="40.7628711" lon="14.8432907"><ele>578.5</ele><time>2026-05-01T08:14:23.984Z</time></trkpt><trkpt lat="40.7628943" lon="14.8431848"><ele>574.6666666666666</ele><time>2026-05-01T08:14:24.973Z</time></trkpt><trkpt lat="40.7629089" lon="14.8430996"><ele>570.8333333333334</ele><time>2026-05-01T08:14:25.971Z</time></trkpt><trkpt lat="40.7629338" lon="14.8429719"><ele>567.0</ele><time>2026-05-01T08:14:27.97Z</time></trkpt><trkpt lat="40.7629714" lon="14.8428504"><ele>567.0</ele><time>2026-05-01T08:14:29.98Z</time></trkpt><trkpt lat="40.7630406" lon="14.8427641"><ele>567.0</ele><time>2026-05-01T08:14:31.972Z</time></trkpt><trkpt lat="40.7631366" lon="14.8426373"><ele>567.0</ele><time>2026-05-01T08:14:33.972Z</time></trkpt><trkpt lat="40.7631895" lon="14.8425627"><ele>567.0</ele><time>2026-05-01T08:14:34.972Z</time></trkpt><trkpt lat="40.763244" lon="14.8424964"><ele>567.0</ele><time>2026-05-01T08:14:35.974Z</time></trkpt><trkpt lat="40.7633013" lon="14.8424187"><ele>566.7142857142857</ele><time>2026-05-01T08:14:36.965Z</time></trkpt><trkpt lat="40.7633399" lon="14.8423494"><ele>566.4285714285714</ele><time>2026-05-01T08:14:37.975Z</time></trkpt><trkpt lat="40.763388" lon="14.8422787"><ele>566.1428571428571</ele><time>2026-05-01T08:14:38.977Z</time></trkpt><trkpt lat="40.7634322" lon="14.8422001"><ele>565.8571428571429</ele><time>2026-05-01T08:14:39.977Z</time></trkpt><trkpt lat="40.7634719" lon="14.8421261"><ele>565.5714285714286</ele><time>2026-05-01T08:14:40.972Z</time></trkpt><trkpt lat="40.7635087" lon="14.8420459"><ele>565.2857142857142</ele><time>2026-05-01T08:14:41.973Z</time></trkpt><trkpt lat="40.7635371" lon="14.8419634"><ele>565.0</ele><time>2026-05-01T08:14:42.962Z</time></trkpt><trkpt lat="40.763565" lon="14.8418726"><ele>563.1666666666667</ele><time>2026-05-01T08:14:43.97Z</time></trkpt><trkpt lat="40.7635872" lon="14.8417732"><ele>561.3333333333334</ele><time>2026-05-01T08:14:44.971Z</time></trkpt><trkpt lat="40.7635994" lon="14.8416551"><ele>559.5</ele><time>2026-05-01T08:14:45.975Z</time></trkpt><trkpt lat="40.7636103" lon="14.8415347"><ele>557.6666666666666</ele><time>2026-05-01T08:14:46.971Z</time></trkpt><trkpt lat="40.763627" lon="14.8414179"><ele>555.8333333333333</ele><time>2026-05-01T08:14:47.988Z</time></trkpt><trkpt lat="40.7636545" lon="14.841312"><ele>554.0</ele><time>2026-05-01T08:14:48.972Z</time></trkpt><trkpt lat="40.7636972" lon="14.8412233"><ele>554.0</ele><time>2026-05-01T08:14:49.955Z</time></trkpt><trkpt lat="40.7637369" lon="14.8411488"><ele>554.0</ele><time>2026-05-01T08:14:50.971Z</time></trkpt><trkpt lat="40.7638444" lon="14.8410659"><ele>554.0</ele><time>2026-05-01T08:14:52.963Z</time></trkpt><trkpt lat="40.763915" lon="14.8410243"><ele>554.0</ele><time>2026-05-01T08:14:53.974Z</time></trkpt><trkpt lat="40.7639713" lon="14.8409748"><ele>554.0</ele><time>2026-05-01T08:14:54.98Z</time></trkpt><trkpt lat="40.7640269" lon="14.8409262"><ele>554.0</ele><time>2026-05-01T08:14:55.969Z</time></trkpt><trkpt lat="40.76414" lon="14.8408741"><ele>553.6666666666666</ele><time>2026-05-01T08:14:57.976Z</time></trkpt><trkpt lat="40.7642034" lon="14.8408268"><ele>553.3333333333333</ele><time>2026-05-01T08:14:58.977Z</time></trkpt><trkpt lat="40.7642838" lon="14.8407771"><ele>553.0</ele><time>2026-05-01T08:14:59.974Z</time></trkpt><trkpt lat="40.7643492" lon="14.8407356"><ele>552.6666666666666</ele><time>2026-05-01T08:15:00.98Z</time></trkpt><trkpt lat="40.7644103" lon="14.8406958"><ele>552.3333333333334</ele><time>2026-05-01T08:15:01.981Z</time></trkpt><trkpt lat="40.76447" lon="14.8406579"><ele>552.0</ele><time>2026-05-01T08:15:02.976Z</time></trkpt><trkpt lat="40.7645672" lon="14.8405895"><ele>553.8333333333334</ele><time>2026-05-01T08:15:04.973Z</time></trkpt><trkpt lat="40.7645703" lon="14.8407064"><ele>555.6666666666666</ele><time>2026-05-01T08:15:09.957Z</time></trkpt><trkpt lat="40.7646017" lon="14.8408106"><ele>557.5</ele><time>2026-05-01T08:15:12.964Z</time></trkpt><trkpt lat="40.7646831" lon="14.8408301"><ele>559.3333333333333</ele><time>2026-05-01T08:15:14.971Z</time></trkpt><trkpt lat="40.764775" lon="14.840787"><ele>561.1666666666666</ele><time>2026-05-01T08:15:16.982Z</time></trkpt><trkpt lat="40.7648382" lon="14.8407123"><ele>563.0</ele><time>2026-05-01T08:15:18.978Z</time></trkpt><trkpt lat="40.764877" lon="14.8406274"><ele>563.0</ele><time>2026-05-01T08:15:19.985Z</time></trkpt><trkpt lat="40.7649168" lon="14.8404927"><ele>563.0</ele><time>2026-05-01T08:15:21.971Z</time></trkpt><trkpt lat="40.7649151" lon="14.8403107"><ele>563.0</ele><time>2026-05-01T08:15:23.985Z</time></trkpt><trkpt lat="40.7649082" lon="14.8401559"><ele>563.0</ele><time>2026-05-01T08:15:25.982Z</time></trkpt><trkpt lat="40.7649573" lon="14.8399758"><ele>560.5</ele><time>2026-05-01T08:15:27.984Z</time></trkpt><trkpt lat="40.7650094" lon="14.8398345"><ele>558.0</ele><time>2026-05-01T08:15:28.988Z</time></trkpt><trkpt lat="40.7650679" lon="14.8397079"><ele>555.5</ele><time>2026-05-01T08:15:29.969Z</time></trkpt><trkpt lat="40.7651583" lon="14.8395743"><ele>553.0</ele><time>2026-05-01T08:15:30.97Z</time></trkpt><trkpt lat="40.7652769" lon="14.8394613"><ele>552.0</ele><time>2026-05-01T08:15:31.983Z</time></trkpt><trkpt lat="40.7653821" lon="14.839293"><ele>551.0</ele><time>2026-05-01T08:15:32.97Z</time></trkpt><trkpt lat="40.7654425" lon="14.8391859"><ele>550.0</ele><time>2026-05-01T08:15:33.982Z</time></trkpt><trkpt lat="40.7654839" lon="14.8391051"><ele>549.0</ele><time>2026-05-01T08:15:34.976Z</time></trkpt><trkpt lat="40.7655404" lon="14.8390043"><ele>548.0</ele><time>2026-05-01T08:15:35.975Z</time></trkpt><trkpt lat="40.7655873" lon="14.8389072"><ele>548.0</ele><time>2026-05-01T08:15:36.977Z</time></trkpt><trkpt lat="40.7656594" lon="14.83879"><ele>548.0</ele><time>2026-05-01T08:15:38.98Z</time></trkpt><trkpt lat="40.7657875" lon="14.8387291"><ele>548.0</ele><time>2026-05-01T08:15:40.971Z</time></trkpt><trkpt lat="40.765888" lon="14.8387168"><ele>548.0</ele><time>2026-05-01T08:15:41.985Z</time></trkpt><trkpt lat="40.765963" lon="14.8387018"><ele>548.0</ele><time>2026-05-01T08:15:42.982Z</time></trkpt><trkpt lat="40.7660122" lon="14.8386102"><ele>548.0</ele><time>2026-05-01T08:15:45.972Z</time></trkpt><trkpt lat="40.7659915" lon="14.8384953"><ele>548.0</ele><time>2026-05-01T08:15:47.984Z</time></trkpt><trkpt lat="40.7659977" lon="14.8384023"><ele>548.0</ele><time>2026-05-01T08:15:48.98Z</time></trkpt><trkpt lat="40.7660361" lon="14.8383339"><ele>548.0</ele><time>2026-05-01T08:15:49.981Z</time></trkpt><trkpt lat="40.7660833" lon="14.8382698"><ele>548.0</ele><time>2026-05-01T08:15:50.973Z</time></trkpt><trkpt lat="40.7661534" lon="14.8382124"><ele>548.0</ele><time>2026-05-01T08:15:51.958Z</time></trkpt><trkpt lat="40.7662215" lon="14.8381598"><ele>547.5714285714287</ele><time>2026-05-01T08:15:52.96Z</time></trkpt><trkpt lat="40.7662756" lon="14.8381042"><ele>547.1428571428571</ele><time>2026-05-01T08:15:53.973Z</time></trkpt><trkpt lat="40.7663148" lon="14.8380249"><ele>546.7142857142858</ele><time>2026-05-01T08:15:55.984Z</time></trkpt><trkpt lat="40.7662794" lon="14.8379396"><ele>546.2857142857143</ele><time>2026-05-01T08:15:59.981Z</time></trkpt><trkpt lat="40.7661945" lon="14.8379409"><ele>545.8571428571429</ele><time>2026-05-01T08:16:01.983Z</time></trkpt><trkpt lat="40.7661318" lon="14.8379581"><ele>545.4285714285714</ele><time>2026-05-01T08:16:02.979Z</time></trkpt><trkpt lat="40.7660538" lon="14.837997"><ele>545.0</ele><time>2026-05-01T08:16:03.992Z</time></trkpt><trkpt lat="40.7659815" lon="14.838033"><ele>541.6</ele><time>2026-05-01T08:16:04.987Z</time></trkpt><trkpt lat="40.7659087" lon="14.8380792"><ele>538.2</ele><time>2026-05-01T08:16:05.975Z</time></trkpt><trkpt lat="40.7658506" lon="14.8381381"><ele>534.8</ele><time>2026-05-01T08:16:06.981Z</time></trkpt><trkpt lat="40.7657934" lon="14.8382046"><ele>531.4</ele><time>2026-05-01T08:16:07.983Z</time></trkpt><trkpt lat="40.7657258" lon="14.8383411"><ele>528.0</ele><time>2026-05-01T08:16:09.977Z</time></trkpt><trkpt lat="40.7656458" lon="14.8384243"><ele>532.0</ele><time>2026-05-01T08:16:11.984Z</time></trkpt><trkpt lat="40.7655198" lon="14.8384789"><ele>536.0</ele><time>2026-05-01T08:16:13.972Z</time></trkpt><trkpt lat="40.7654622" lon="14.8385312"><ele>540.0</ele><time>2026-05-01T08:16:14.973Z</time></trkpt><trkpt lat="40.7653744" lon="14.838634"><ele>544.0</ele><time>2026-05-01T08:16:16.978Z</time></trkpt><trkpt lat="40.7652868" lon="14.8386892"><ele>548.0</ele><time>2026-05-01T08:16:18.972Z</time></trkpt><trkpt lat="40.765199" lon="14.8387232"><ele>544.4</ele><time>2026-05-01T08:16:20.99Z</time></trkpt><trkpt lat="40.7650959" lon="14.8387661"><ele>540.8</ele><time>2026-05-01T08:16:22.979Z</time></trkpt><trkpt lat="40.7649737" lon="14.8387507"><ele>537.2</ele><time>2026-05-01T08:16:24.972Z</time></trkpt><trkpt lat="40.7649001" lon="14.8387404"><ele>533.6</ele><time>2026-05-01T08:16:25.984Z</time></trkpt><trkpt lat="40.7648195" lon="14.8387524"><ele>530.0</ele><time>2026-05-01T08:16:26.968Z</time></trkpt><trkpt lat="40.7647569" lon="14.8387802"><ele>529.9999999999999</ele><time>2026-05-01T08:16:27.978Z</time></trkpt><trkpt lat="40.7646615" lon="14.8387651"><ele>530.0</ele><time>2026-05-01T08:16:29.974Z</time></trkpt><trkpt lat="40.7645962" lon="14.8387432"><ele>530.0</ele><time>2026-05-01T08:16:30.961Z</time></trkpt><trkpt lat="40.7645273" lon="14.8387257"><ele>530.0</ele><time>2026-05-01T08:16:31.97Z</time></trkpt><trkpt lat="40.7644629" lon="14.8387025"><ele>530.0</ele><time>2026-05-01T08:16:32.976Z</time></trkpt><trkpt lat="40.764395" lon="14.8386717"><ele>529.9999999999999</ele><time>2026-05-01T08:16:33.99Z</time></trkpt><trkpt lat="40.7643303" lon="14.8386272"><ele>530.0</ele><time>2026-05-01T08:16:34.978Z</time></trkpt><trkpt lat="40.7642677" lon="14.8385645"><ele>530.8333333333333</ele><time>2026-05-01T08:16:35.974Z</time></trkpt><trkpt lat="40.7642041" lon="14.8385103"><ele>531.6666666666666</ele><time>2026-05-01T08:16:36.981Z</time></trkpt><trkpt lat="40.7641516" lon="14.8384464"><ele>532.5</ele><time>2026-05-01T08:16:37.967Z</time></trkpt><trkpt lat="40.7640604" lon="14.838373"><ele>533.3333333333334</ele><time>2026-05-01T08:16:39.979Z</time></trkpt><trkpt lat="40.7641263" lon="14.838351"><ele>534.1666666666667</ele><time>2026-05-01T08:16:45.976Z</time></trkpt><trkpt lat="40.7642132" lon="14.838352"><ele>535.0</ele><time>2026-05-01T08:16:47.978Z</time></trkpt><trkpt lat="40.7642903" lon="14.8383428"><ele>532.0</ele><time>2026-05-01T08:16:48.977Z</time></trkpt><trkpt lat="40.7643676" lon="14.8383357"><ele>529.0</ele><time>2026-05-01T08:16:49.978Z</time></trkpt><trkpt lat="40.7644489" lon="14.8383492"><ele>526.0</ele><time>2026-05-01T08:16:50.976Z</time></trkpt><trkpt lat="40.7645349" lon="14.8383447"><ele>523.0</ele><time>2026-05-01T08:16:51.967Z</time></trkpt><trkpt lat="40.7646303" lon="14.8383443"><ele>520.0</ele><time>2026-05-01T08:16:52.973Z</time></trkpt><trkpt lat="40.7647153" lon="14.838327"><ele>517.0</ele><time>2026-05-01T08:16:53.975Z</time></trkpt><trkpt lat="40.7648034" lon="14.8383006"><ele>517.0</ele><time>2026-05-01T08:16:54.972Z</time></trkpt><trkpt lat="40.7648877" lon="14.8382492"><ele>517.0</ele><time>2026-05-01T08:16:55.976Z</time></trkpt><trkpt lat="40.7649353" lon="14.838178"><ele>517.0</ele><time>2026-05-01T08:16:56.964Z</time></trkpt><trkpt lat="40.7649693" lon="14.8380164"><ele>517.0</ele><time>2026-05-01T08:16:58.981Z</time></trkpt><trkpt lat="40.7649713" lon="14.8378894"><ele>517.0</ele><time>2026-05-01T08:16:59.979Z</time></trkpt><trkpt lat="40.7649576" lon="14.837756"><ele>518.8000000000001</ele><time>2026-05-01T08:17:00.951Z</time></trkpt><trkpt lat="40.7649444" lon="14.8376193"><ele>520.6</ele><time>2026-05-01T08:17:01.972Z</time></trkpt><trkpt lat="40.7649269" lon="14.8374778"><ele>522.4000000000001</ele><time>2026-05-01T08:17:02.97Z</time></trkpt><trkpt lat="40.7649169" lon="14.8373717"><ele>524.2</ele><time>2026-05-01T08:17:03.971Z</time></trkpt><trkpt lat="40.764895" lon="14.8372578"><ele>526.0</ele><time>2026-05-01T08:17:05.968Z</time></trkpt><trkpt lat="40.7649453" lon="14.8371405"><ele>526.0</ele><time>2026-05-01T08:17:07.98Z</time></trkpt><trkpt lat="40.7649846" lon="14.8370599"><ele>526.0</ele><time>2026-05-01T08:17:08.981Z</time></trkpt><trkpt lat="40.7650387" lon="14.836957"><ele>526.0</ele><time>2026-05-01T08:17:09.968Z</time></trkpt><trkpt lat="40.7650831" lon="14.8368277"><ele>526.0</ele><time>2026-05-01T08:17:10.975Z</time></trkpt><trkpt lat="40.7651" lon="14.83667"><ele>526.0</ele><time>2026-05-01T08:17:11.971Z</time></trkpt><trkpt lat="40.7651011" lon="14.8365055"><ele>528.3333333333334</ele><time>2026-05-01T08:17:12.979Z</time></trkpt><trkpt lat="40.7651152" lon="14.8363758"><ele>530.6666666666667</ele><time>2026-05-01T08:17:13.966Z</time></trkpt><trkpt lat="40.7651331" lon="14.8362954"><ele>533.0</ele><time>2026-05-01T08:17:14.982Z</time></trkpt><trkpt lat="40.7651471" lon="14.8362134"><ele>535.3333333333334</ele><time>2026-05-01T08:17:16.978Z</time></trkpt><trkpt lat="40.7651523" lon="14.8360942"><ele>537.6666666666666</ele><time>2026-05-01T08:17:18.955Z</time></trkpt><trkpt lat="40.7651348" lon="14.8359641"><ele>540.0</ele><time>2026-05-01T08:17:20.982Z</time></trkpt><trkpt lat="40.7651273" lon="14.8358571"><ele>541.5</ele><time>2026-05-01T08:17:21.978Z</time></trkpt><trkpt lat="40.7651187" lon="14.835757"><ele>543.0</ele><time>2026-05-01T08:17:22.988Z</time></trkpt><trkpt lat="40.765097" lon="14.8356514"><ele>544.5</ele><time>2026-05-01T08:17:23.978Z</time></trkpt><trkpt lat="40.7650629" lon="14.8355405"><ele>546.0</ele><time>2026-05-01T08:17:24.982Z</time></trkpt><trkpt lat="40.7650374" lon="14.8354346"><ele>547.5</ele><time>2026-05-01T08:17:25.967Z</time></trkpt><trkpt lat="40.7650165" lon="14.8353365"><ele>549.0</ele><time>2026-05-01T08:17:26.977Z</time></trkpt><trkpt lat="40.7650034" lon="14.8352301"><ele>548.8333333333334</ele><time>2026-05-01T08:17:27.975Z</time></trkpt><trkpt lat="40.7649874" lon="14.8351231"><ele>548.6666666666666</ele><time>2026-05-01T08:17:28.976Z</time></trkpt><trkpt lat="40.7649826" lon="14.8350154"><ele>548.5</ele><time>2026-05-01T08:17:29.976Z</time></trkpt><trkpt lat="40.764972" lon="14.8349231"><ele>548.3333333333333</ele><time>2026-05-01T08:17:30.971Z</time></trkpt><trkpt lat="40.7649783" lon="14.8348333"><ele>548.1666666666666</ele><time>2026-05-01T08:17:31.977Z</time></trkpt><trkpt lat="40.7649876" lon="14.8347412"><ele>548.0</ele><time>2026-05-01T08:17:32.976Z</time></trkpt><trkpt lat="40.764996" lon="14.8346286"><ele>548.0</ele><time>2026-05-01T08:17:33.973Z</time></trkpt><trkpt lat="40.7650003" lon="14.8345015"><ele>548.0</ele><time>2026-05-01T08:17:34.975Z</time></trkpt><trkpt lat="40.7650148" lon="14.8343792"><ele>548.0</ele><time>2026-05-01T08:17:35.984Z</time></trkpt><trkpt lat="40.7650034" lon="14.834265"><ele>548.0</ele><time>2026-05-01T08:17:36.991Z</time></trkpt><trkpt lat="40.7649754" lon="14.8341483"><ele>548.0</ele><time>2026-05-01T08:17:37.973Z</time></trkpt><trkpt lat="40.7649377" lon="14.8340363"><ele>547.3333333333333</ele><time>2026-05-01T08:17:38.978Z</time></trkpt><trkpt lat="40.7649032" lon="14.8339506"><ele>546.6666666666666</ele><time>2026-05-01T08:17:39.98Z</time></trkpt><trkpt lat="40.7648034" lon="14.833894"><ele>546.0</ele><time>2026-05-01T08:17:41.974Z</time></trkpt><trkpt lat="40.7647374" lon="14.8338516"><ele>545.3333333333334</ele><time>2026-05-01T08:17:42.956Z</time></trkpt><trkpt lat="40.7646724" lon="14.833773"><ele>544.6666666666667</ele><time>2026-05-01T08:17:43.968Z</time></trkpt><trkpt lat="40.7646065" lon="14.8336793"><ele>544.0</ele><time>2026-05-01T08:17:44.97Z</time></trkpt><trkpt lat="40.7645459" lon="14.833598"><ele>544.0</ele><time>2026-05-01T08:17:45.982Z</time></trkpt><trkpt lat="40.7644799" lon="14.8335287"><ele>544.0</ele><time>2026-05-01T08:17:46.976Z</time></trkpt><trkpt lat="40.7644323" lon="14.8334473"><ele>544.0</ele><time>2026-05-01T08:17:47.974Z</time></trkpt><trkpt lat="40.7644002" lon="14.8333553"><ele>544.0</ele><time>2026-05-01T08:17:48.955Z</time></trkpt><trkpt lat="40.7643846" lon="14.8332567"><ele>544.0</ele><time>2026-05-01T08:17:49.966Z</time></trkpt><trkpt lat="40.7643614" lon="14.8331643"><ele>544.0</ele><time>2026-05-01T08:17:50.969Z</time></trkpt><trkpt lat="40.7643379" lon="14.8330838"><ele>543.1666666666667</ele><time>2026-05-01T08:17:51.975Z</time></trkpt><trkpt lat="40.7643182" lon="14.8329989"><ele>542.3333333333334</ele><time>2026-05-01T08:17:52.977Z</time></trkpt><trkpt lat="40.7643062" lon="14.8329116"><ele>541.5</ele><time>2026-05-01T08:17:53.975Z</time></trkpt><trkpt lat="40.7642997" lon="14.8328289"><ele>540.6666666666666</ele><time>2026-05-01T08:17:54.978Z</time></trkpt><trkpt lat="40.764309" lon="14.8326972"><ele>539.8333333333333</ele><time>2026-05-01T08:17:56.979Z</time></trkpt><trkpt lat="40.7643695" lon="14.8325732"><ele>539.0</ele><time>2026-05-01T08:17:58.971Z</time></trkpt><trkpt lat="40.7644228" lon="14.8325056"><ele>539.0</ele><time>2026-05-01T08:17:59.975Z</time></trkpt><trkpt lat="40.7644893" lon="14.8324373"><ele>539.0</ele><time>2026-05-01T08:18:00.981Z</time></trkpt><trkpt lat="40.7645535" lon="14.8323818"><ele>539.0</ele><time>2026-05-01T08:18:01.979Z</time></trkpt><trkpt lat="40.764618" lon="14.8323346"><ele>539.0</ele><time>2026-05-01T08:18:02.979Z</time></trkpt><trkpt lat="40.7646964" lon="14.832288"><ele>539.0</ele><time>2026-05-01T08:18:03.977Z</time></trkpt><trkpt lat="40.7647652" lon="14.8322482"><ele>539.0</ele><time>2026-05-01T08:18:04.979Z</time></trkpt><trkpt lat="40.7648302" lon="14.8322105"><ele>539.0</ele><time>2026-05-01T08:18:05.974Z</time></trkpt><trkpt lat="40.764915" lon="14.8321481"><ele>539.0</ele><time>2026-05-01T08:18:06.975Z</time></trkpt><trkpt lat="40.7650157" lon="14.832072"><ele>539.0</ele><time>2026-05-01T08:18:07.967Z</time></trkpt><trkpt lat="40.7651118" lon="14.8319824"><ele>539.0</ele><time>2026-05-01T08:18:08.972Z</time></trkpt><trkpt lat="40.7651981" lon="14.8319215"><ele>539.0</ele><time>2026-05-01T08:18:09.972Z</time></trkpt><trkpt lat="40.7652791" lon="14.8318539"><ele>538.6666666666666</ele><time>2026-05-01T08:18:11.98Z</time></trkpt><trkpt lat="40.7652462" lon="14.8317644"><ele>538.3333333333333</ele><time>2026-05-01T08:18:15.98Z</time></trkpt><trkpt lat="40.7652114" lon="14.8316928"><ele>538.0</ele><time>2026-05-01T08:18:16.966Z</time></trkpt><trkpt lat="40.7651811" lon="14.831613"><ele>537.6666666666666</ele><time>2026-05-01T08:18:17.977Z</time></trkpt><trkpt lat="40.7651271" lon="14.8315257"><ele>537.3333333333334</ele><time>2026-05-01T08:18:18.98Z</time></trkpt><trkpt lat="40.7650606" lon="14.8314389"><ele>537.0</ele><time>2026-05-01T08:18:19.979Z</time></trkpt><trkpt lat="40.7650021" lon="14.8313639"><ele>539.5</ele><time>2026-05-01T08:18:20.983Z</time></trkpt><trkpt lat="40.7649551" lon="14.831298"><ele>542.0</ele><time>2026-05-01T08:18:21.976Z</time></trkpt><trkpt lat="40.7649038" lon="14.8311774"><ele>544.5</ele><time>2026-05-01T08:18:23.965Z</time></trkpt><trkpt lat="40.7649099" lon="14.8310786"><ele>547.0</ele><time>2026-05-01T08:18:25.977Z</time></trkpt><trkpt lat="40.7649991" lon="14.830991"><ele>549.5</ele><time>2026-05-01T08:18:28.986Z</time></trkpt><trkpt lat="40.7650656" lon="14.8309197"><ele>552.0</ele><time>2026-05-01T08:18:30.97Z</time></trkpt><trkpt lat="40.765092" lon="14.8307587"><ele>553.6</ele><time>2026-05-01T08:18:32.981Z</time></trkpt><trkpt lat="40.7650963" lon="14.8306729"><ele>555.2</ele><time>2026-05-01T08:18:33.979Z</time></trkpt><trkpt lat="40.7651358" lon="14.8305856"><ele>556.8</ele><time>2026-05-01T08:18:35.983Z</time></trkpt><trkpt lat="40.765224" lon="14.8305363"><ele>558.4</ele><time>2026-05-01T08:18:39.984Z</time></trkpt><trkpt lat="40.7653652" lon="14.8305474"><ele>560.0</ele><time>2026-05-01T08:18:41.983Z</time></trkpt><trkpt lat="40.7655039" lon="14.8305656"><ele>560.0</ele><time>2026-05-01T08:18:42.974Z</time></trkpt><trkpt lat="40.7656314" lon="14.830561"><ele>560.0</ele><time>2026-05-01T08:18:43.975Z</time></trkpt><trkpt lat="40.7657527" lon="14.830529"><ele>560.0</ele><time>2026-05-01T08:18:44.979Z</time></trkpt><trkpt lat="40.7658626" lon="14.8304827"><ele>560.0</ele><time>2026-05-01T08:18:45.974Z</time></trkpt><trkpt lat="40.7659663" lon="14.8304433"><ele>559.3333333333333</ele><time>2026-05-01T08:18:46.987Z</time></trkpt><trkpt lat="40.7660521" lon="14.8304167"><ele>558.6666666666666</ele><time>2026-05-01T08:18:47.973Z</time></trkpt><trkpt lat="40.7661358" lon="14.8304141"><ele>558.0</ele><time>2026-05-01T08:18:48.971Z</time></trkpt><trkpt lat="40.7662278" lon="14.8304147"><ele>557.3333333333334</ele><time>2026-05-01T08:18:49.974Z</time></trkpt><trkpt lat="40.7663136" lon="14.8304178"><ele>556.6666666666667</ele><time>2026-05-01T08:18:50.974Z</time></trkpt><trkpt lat="40.7663979" lon="14.8304045"><ele>556.0</ele><time>2026-05-01T08:18:51.976Z</time></trkpt><trkpt lat="40.7664835" lon="14.8303642"><ele>556.0</ele><time>2026-05-01T08:18:52.973Z</time></trkpt><trkpt lat="40.7665637" lon="14.8302981"><ele>556.0</ele><time>2026-05-01T08:18:53.97Z</time></trkpt><trkpt lat="40.7666158" lon="14.8302398"><ele>556.0</ele><time>2026-05-01T08:18:54.98Z</time></trkpt><trkpt lat="40.7666434" lon="14.8301527"><ele>556.0</ele><time>2026-05-01T08:18:56.952Z</time></trkpt><trkpt lat="40.7666134" lon="14.8300762"><ele>556.0</ele><time>2026-05-01T08:18:59.983Z</time></trkpt><trkpt lat="40.7665525" lon="14.8300976"><ele>556.0</ele><time>2026-05-01T08:19:01.979Z</time></trkpt><trkpt lat="40.7664386" lon="14.8300905"><ele>559.6666666666667</ele><time>2026-05-01T08:19:03.975Z</time></trkpt><trkpt lat="40.7663717" lon="14.8300632"><ele>563.3333333333334</ele><time>2026-05-01T08:19:04.984Z</time></trkpt><trkpt lat="40.7662893" lon="14.8300282"><ele>567.0</ele><time>2026-05-01T08:19:05.966Z</time></trkpt><trkpt lat="40.7662117" lon="14.8299958"><ele>570.6666666666666</ele><time>2026-05-01T08:19:06.975Z</time></trkpt><trkpt lat="40.7661373" lon="14.8299545"><ele>574.3333333333333</ele><time>2026-05-01T08:19:07.977Z</time></trkpt><trkpt lat="40.7660428" lon="14.8298986"><ele>578.0</ele><time>2026-05-01T08:19:08.984Z</time></trkpt><trkpt lat="40.76594" lon="14.8298543"><ele>579.4</ele><time>2026-05-01T08:19:09.984Z</time></trkpt><trkpt lat="40.765848" lon="14.8298081"><ele>580.8</ele><time>2026-05-01T08:19:10.987Z</time></trkpt><trkpt lat="40.7657552" lon="14.8297609"><ele>582.2</ele><time>2026-05-01T08:19:11.986Z</time></trkpt><trkpt lat="40.7656596" lon="14.8297056"><ele>583.6</ele><time>2026-05-01T08:19:12.991Z</time></trkpt><trkpt lat="40.7655592" lon="14.8296425"><ele>585.0</ele><time>2026-05-01T08:19:13.953Z</time></trkpt><trkpt lat="40.765468" lon="14.8295926"><ele>585.0</ele><time>2026-05-01T08:19:14.975Z</time></trkpt><trkpt lat="40.7653788" lon="14.8295442"><ele>585.0</ele><time>2026-05-01T08:19:15.977Z</time></trkpt><trkpt lat="40.7652831" lon="14.8295047"><ele>585.0</ele><time>2026-05-01T08:19:16.978Z</time></trkpt><trkpt lat="40.765182" lon="14.8294942"><ele>585.0</ele><time>2026-05-01T08:19:17.979Z</time></trkpt><trkpt lat="40.765079" lon="14.8294953"><ele>585.0</ele><time>2026-05-01T08:19:18.975Z</time></trkpt><trkpt lat="40.7649956" lon="14.8295128"><ele>587.3333333333334</ele><time>2026-05-01T08:19:19.975Z</time></trkpt><trkpt lat="40.7648819" lon="14.8295884"><ele>589.6666666666666</ele><time>2026-05-01T08:19:21.971Z</time></trkpt><trkpt lat="40.7648182" lon="14.829666"><ele>592.0</ele><time>2026-05-01T08:19:22.966Z</time></trkpt><trkpt lat="40.764768" lon="14.8297352"><ele>594.3333333333333</ele><time>2026-05-01T08:19:23.978Z</time></trkpt><trkpt lat="40.7647221" lon="14.8297962"><ele>596.6666666666666</ele><time>2026-05-01T08:19:24.979Z</time></trkpt><trkpt lat="40.7646804" lon="14.8298651"><ele>599.0</ele><time>2026-05-01T08:19:25.975Z</time></trkpt><trkpt lat="40.7646366" lon="14.8299328"><ele>599.0</ele><time>2026-05-01T08:19:26.98Z</time></trkpt><trkpt lat="40.7645867" lon="14.8300021"><ele>599.0</ele><time>2026-05-01T08:19:27.977Z</time></trkpt><trkpt lat="40.7645409" lon="14.8300843"><ele>599.0</ele><time>2026-05-01T08:19:28.971Z</time></trkpt><trkpt lat="40.7644921" lon="14.8301626"><ele>599.0</ele><time>2026-05-01T08:19:29.972Z</time></trkpt><trkpt lat="40.7644368" lon="14.8302294"><ele>599.0</ele><time>2026-05-01T08:19:30.982Z</time></trkpt><trkpt lat="40.7643663" lon="14.8302894"><ele>599.0</ele><time>2026-05-01T08:19:31.981Z</time></trkpt><trkpt lat="40.7642792" lon="14.8303434"><ele>598.0</ele><time>2026-05-01T08:19:32.983Z</time></trkpt><trkpt lat="40.7641926" lon="14.8303937"><ele>597.0</ele><time>2026-05-01T08:19:33.98Z</time></trkpt><trkpt lat="40.7641057" lon="14.830427"><ele>596.0</ele><time>2026-05-01T08:19:34.984Z</time></trkpt><trkpt lat="40.7640197" lon="14.830455"><ele>595.0</ele><time>2026-05-01T08:19:35.982Z</time></trkpt><trkpt lat="40.7639584" lon="14.8304802"><ele>594.0</ele><time>2026-05-01T08:19:36.972Z</time></trkpt><trkpt lat="40.7638891" lon="14.8305348"><ele>593.0</ele><time>2026-05-01T08:19:38.979Z</time></trkpt><trkpt lat="40.7638459" lon="14.8306008"><ele>593.0</ele><time>2026-05-01T08:19:39.972Z</time></trkpt><trkpt lat="40.7637834" lon="14.8306684"><ele>593.0</ele><time>2026-05-01T08:19:40.981Z</time></trkpt><trkpt lat="40.7637356" lon="14.8307337"><ele>593.0</ele><time>2026-05-01T08:19:41.97Z</time></trkpt><trkpt lat="40.7636586" lon="14.8308524"><ele>593.0</ele><time>2026-05-01T08:19:43.969Z</time></trkpt><trkpt lat="40.7635743" lon="14.8308697"><ele>593.0</ele><time>2026-05-01T08:19:45.979Z</time></trkpt><trkpt lat="40.7634662" lon="14.8308392"><ele>597.25</ele><time>2026-05-01T08:19:47.985Z</time></trkpt><trkpt lat="40.7633796" lon="14.8307878"><ele>601.5</ele><time>2026-05-01T08:19:48.98Z</time></trkpt><trkpt lat="40.7632667" lon="14.8307435"><ele>605.75</ele><time>2026-05-01T08:19:49.982Z</time></trkpt><trkpt lat="40.7631483" lon="14.8306987"><ele>610.0</ele><time>2026-05-01T08:19:50.972Z</time></trkpt><trkpt lat="40.7630292" lon="14.8306664"><ele>610.0</ele><time>2026-05-01T08:19:51.981Z</time></trkpt><trkpt lat="40.7629277" lon="14.8306436"><ele>610.0</ele><time>2026-05-01T08:19:52.987Z</time></trkpt><trkpt lat="40.7628406" lon="14.8306239"><ele>610.0</ele><time>2026-05-01T08:19:53.976Z</time></trkpt><trkpt lat="40.7627669" lon="14.830613"><ele>610.0</ele><time>2026-05-01T08:19:54.981Z</time></trkpt><trkpt lat="40.7627001" lon="14.8306031"><ele>610.0</ele><time>2026-05-01T08:19:55.972Z</time></trkpt><trkpt lat="40.7626054" lon="14.830546"><ele>610.0</ele><time>2026-05-01T08:19:57.981Z</time></trkpt><trkpt lat="40.7625483" lon="14.8305075"><ele>610.5</ele><time>2026-05-01T08:19:58.984Z</time></trkpt><trkpt lat="40.7624686" lon="14.8304894"><ele>611.0</ele><time>2026-05-01T08:20:00.978Z</time></trkpt><trkpt lat="40.7623984" lon="14.830525"><ele>611.5</ele><time>2026-05-01T08:20:02.975Z</time></trkpt><trkpt lat="40.7623191" lon="14.8305423"><ele>612.0</ele><time>2026-05-01T08:20:05.981Z</time></trkpt><trkpt lat="40.7622533" lon="14.8306022"><ele>612.5</ele><time>2026-05-01T08:20:07.976Z</time></trkpt><trkpt lat="40.762182" lon="14.8307065"><ele>613.0</ele><time>2026-05-01T08:20:08.973Z</time></trkpt><trkpt lat="40.7621188" lon="14.8307859"><ele>613.0</ele><time>2026-05-01T08:20:09.979Z</time></trkpt><trkpt lat="40.7620538" lon="14.8308573"><ele>613.0</ele><time>2026-05-01T08:20:10.975Z</time></trkpt><trkpt lat="40.7619956" lon="14.830932"><ele>613.0</ele><time>2026-05-01T08:20:11.981Z</time></trkpt><trkpt lat="40.7619396" lon="14.831025"><ele>613.0</ele><time>2026-05-01T08:20:12.968Z</time></trkpt><trkpt lat="40.7618934" lon="14.8311395"><ele>613.0</ele><time>2026-05-01T08:20:13.981Z</time></trkpt><trkpt lat="40.7618566" lon="14.831283"><ele>616.0</ele><time>2026-05-01T08:20:14.975Z</time></trkpt><trkpt lat="40.7618241" lon="14.8314231"><ele>619.0</ele><time>2026-05-01T08:20:15.98Z</time></trkpt><trkpt lat="40.7617891" lon="14.8315653"><ele>622.0</ele><time>2026-05-01T08:20:16.978Z</time></trkpt><trkpt lat="40.7617503" lon="14.8317008"><ele>625.0</ele><time>2026-05-01T08:20:17.969Z</time></trkpt><trkpt lat="40.7617024" lon="14.8318276"><ele>628.0</ele><time>2026-05-01T08:20:18.965Z</time></trkpt><trkpt lat="40.7616536" lon="14.8319487"><ele>629.1999999999999</ele><time>2026-05-01T08:20:19.967Z</time></trkpt><trkpt lat="40.7616033" lon="14.8320586"><ele>630.4</ele><time>2026-05-01T08:20:20.981Z</time></trkpt><trkpt lat="40.7615473" lon="14.8321679"><ele>631.5999999999999</ele><time>2026-05-01T08:20:21.993Z</time></trkpt><trkpt lat="40.7614672" lon="14.8322558"><ele>632.8</ele><time>2026-05-01T08:20:22.98Z</time></trkpt><trkpt lat="40.7613769" lon="14.8323107"><ele>634.0</ele><time>2026-05-01T08:20:23.985Z</time></trkpt><trkpt lat="40.7612896" lon="14.832355"><ele>634.0</ele><time>2026-05-01T08:20:24.972Z</time></trkpt><trkpt lat="40.7611948" lon="14.8323795"><ele>634.0</ele><time>2026-05-01T08:20:25.975Z</time></trkpt><trkpt lat="40.7610988" lon="14.8324006"><ele>634.0</ele><time>2026-05-01T08:20:26.985Z</time></trkpt><trkpt lat="40.7610081" lon="14.832431"><ele>634.0</ele><time>2026-05-01T08:20:27.977Z</time></trkpt><trkpt lat="40.7609115" lon="14.8324521"><ele>634.0</ele><time>2026-05-01T08:20:28.975Z</time></trkpt><trkpt lat="40.7608161" lon="14.832472"><ele>639.4</ele><time>2026-05-01T08:20:29.986Z</time></trkpt><trkpt lat="40.7607236" lon="14.8324921"><ele>644.8</ele><time>2026-05-01T08:20:30.985Z</time></trkpt><trkpt lat="40.7606277" lon="14.8325065"><ele>650.1999999999999</ele><time>2026-05-01T08:20:31.992Z</time></trkpt><trkpt lat="40.7605367" lon="14.8325222"><ele>655.5999999999999</ele><time>2026-05-01T08:20:32.981Z</time></trkpt><trkpt lat="40.7604482" lon="14.8325247"><ele>661.0</ele><time>2026-05-01T08:20:33.986Z</time></trkpt><trkpt lat="40.760368" lon="14.8325055"><ele>661.0</ele><time>2026-05-01T08:20:34.985Z</time></trkpt><trkpt lat="40.7602991" lon="14.8324652"><ele>661.0</ele><time>2026-05-01T08:20:35.983Z</time></trkpt><trkpt lat="40.760224" lon="14.8324326"><ele>661.0</ele><time>2026-05-01T08:20:36.983Z</time></trkpt><trkpt lat="40.7601478" lon="14.8324106"><ele>661.0</ele><time>2026-05-01T08:20:37.978Z</time></trkpt><trkpt lat="40.7600348" lon="14.8324233"><ele>661.0</ele><time>2026-05-01T08:20:39.975Z</time></trkpt><trkpt lat="40.7600168" lon="14.8325079"><ele>661.0</ele><time>2026-05-01T08:20:43.98Z</time></trkpt><trkpt lat="40.7601067" lon="14.8326255"><ele>665.0</ele><time>2026-05-01T08:20:46.989Z</time></trkpt><trkpt lat="40.7601831" lon="14.8327133"><ele>669.0</ele><time>2026-05-01T08:20:47.975Z</time></trkpt><trkpt lat="40.7602525" lon="14.8327959"><ele>673.0</ele><time>2026-05-01T08:20:48.976Z</time></trkpt><trkpt lat="40.7603175" lon="14.8328767"><ele>677.0</ele><time>2026-05-01T08:20:49.99Z</time></trkpt><trkpt lat="40.7604036" lon="14.8329833"><ele>681.0</ele><time>2026-05-01T08:20:51.98Z</time></trkpt><trkpt lat="40.7604416" lon="14.8330846"><ele>681.0</ele><time>2026-05-01T08:20:53.962Z</time></trkpt><trkpt lat="40.7603651" lon="14.8331101"><ele>681.0</ele><time>2026-05-01T08:20:57.984Z</time></trkpt><trkpt lat="40.7602406" lon="14.8331123"><ele>681.0</ele><time>2026-05-01T08:20:59.98Z</time></trkpt><trkpt lat="40.76016" lon="14.8330984"><ele>681.0</ele><time>2026-05-01T08:21:00.989Z</time></trkpt><trkpt lat="40.7600696" lon="14.8330867"><ele>681.0</ele><time>2026-05-01T08:21:01.972Z</time></trkpt><trkpt lat="40.7599673" lon="14.8330908"><ele>686.5</ele><time>2026-05-01T08:21:02.985Z</time></trkpt><trkpt lat="40.7598403" lon="14.8331173"><ele>692.0</ele><time>2026-05-01T08:21:03.98Z</time></trkpt><trkpt lat="40.7596914" lon="14.8331814"><ele>697.5</ele><time>2026-05-01T08:21:04.981Z</time></trkpt><trkpt lat="40.7595828" lon="14.8332338"><ele>703.0</ele><time>2026-05-01T08:21:05.974Z</time></trkpt><trkpt lat="40.7594818" lon="14.8332942"><ele>703.0</ele><time>2026-05-01T08:21:06.981Z</time></trkpt><trkpt lat="40.7593929" lon="14.8333556"><ele>703.0</ele><time>2026-05-01T08:21:07.977Z</time></trkpt><trkpt lat="40.7593238" lon="14.8334372"><ele>703.0</ele><time>2026-05-01T08:21:08.986Z</time></trkpt><trkpt lat="40.7592621" lon="14.8335404"><ele>703.0</ele><time>2026-05-01T08:21:09.958Z</time></trkpt><trkpt lat="40.7592018" lon="14.8336416"><ele>703.0</ele><time>2026-05-01T08:21:10.981Z</time></trkpt><trkpt lat="40.7591353" lon="14.8337426"><ele>706.5999999999999</ele><time>2026-05-01T08:21:11.975Z</time></trkpt><trkpt lat="40.7590659" lon="14.8338544"><ele>710.1999999999999</ele><time>2026-05-01T08:21:12.979Z</time></trkpt><trkpt lat="40.758994" lon="14.8339726"><ele>713.8</ele><time>2026-05-01T08:21:13.956Z</time></trkpt><trkpt lat="40.7589131" lon="14.8340669"><ele>717.4</ele><time>2026-05-01T08:21:14.97Z</time></trkpt><trkpt lat="40.7588343" lon="14.8341457"><ele>721.0</ele><time>2026-05-01T08:21:15.976Z</time></trkpt><trkpt lat="40.7587636" lon="14.8342264"><ele>721.0</ele><time>2026-05-01T08:21:16.978Z</time></trkpt><trkpt lat="40.7587065" lon="14.8342998"><ele>721.0</ele><time>2026-05-01T08:21:17.978Z</time></trkpt><trkpt lat="40.758651" lon="14.834372"><ele>721.0</ele><time>2026-05-01T08:21:18.981Z</time></trkpt><trkpt lat="40.7585916" lon="14.8344448"><ele>721.0</ele><time>2026-05-01T08:21:19.982Z</time></trkpt><trkpt lat="40.7585148" lon="14.8344978"><ele>721.0</ele><time>2026-05-01T08:21:20.984Z</time></trkpt><trkpt lat="40.758427" lon="14.8345442"><ele>721.0</ele><time>2026-05-01T08:21:21.977Z</time></trkpt><trkpt lat="40.7583339" lon="14.8345814"><ele>726.4</ele><time>2026-05-01T08:21:22.982Z</time></trkpt><trkpt lat="40.75824" lon="14.8346097"><ele>731.8</ele><time>2026-05-01T08:21:23.983Z</time></trkpt><trkpt lat="40.7581461" lon="14.8346359"><ele>737.1999999999999</ele><time>2026-05-01T08:21:24.984Z</time></trkpt><trkpt lat="40.7580405" lon="14.8346718"><ele>742.5999999999999</ele><time>2026-05-01T08:21:25.975Z</time></trkpt><trkpt lat="40.7579309" lon="14.8347329"><ele>748.0</ele><time>2026-05-01T08:21:26.99Z</time></trkpt><trkpt lat="40.7578192" lon="14.8348151"><ele>748.0</ele><time>2026-05-01T08:21:27.981Z</time></trkpt><trkpt lat="40.7577169" lon="14.8348894"><ele>748.0</ele><time>2026-05-01T08:21:28.987Z</time></trkpt><trkpt lat="40.7576351" lon="14.834963"><ele>748.0</ele><time>2026-05-01T08:21:29.972Z</time></trkpt><trkpt lat="40.7575607" lon="14.8350365"><ele>748.0</ele><time>2026-05-01T08:21:30.974Z</time></trkpt><trkpt lat="40.757496" lon="14.8350914"><ele>748.0</ele><time>2026-05-01T08:21:31.976Z</time></trkpt><trkpt lat="40.7574332" lon="14.8351343"><ele>749.3333333333334</ele><time>2026-05-01T08:21:32.978Z</time></trkpt><trkpt lat="40.7573226" lon="14.8352205"><ele>750.6666666666667</ele><time>2026-05-01T08:21:34.98Z</time></trkpt><trkpt lat="40.7572662" lon="14.8352763"><ele>752.0</ele><time>2026-05-01T08:21:35.984Z</time></trkpt><trkpt lat="40.7572085" lon="14.8353349"><ele>753.3333333333334</ele><time>2026-05-01T08:21:36.982Z</time></trkpt><trkpt lat="40.7571517" lon="14.8353986"><ele>754.6666666666666</ele><time>2026-05-01T08:21:37.982Z</time></trkpt><trkpt lat="40.7571024" lon="14.8354589"><ele>756.0</ele><time>2026-05-01T08:21:38.985Z</time></trkpt><trkpt lat="40.7570563" lon="14.8355268"><ele>756.0</ele><time>2026-05-01T08:21:39.991Z</time></trkpt><trkpt lat="40.7570224" lon="14.8356104"><ele>756.0</ele><time>2026-05-01T08:21:40.983Z</time></trkpt><trkpt lat="40.7569806" lon="14.8356897"><ele>756.0</ele><time>2026-05-01T08:21:41.978Z</time></trkpt><trkpt lat="40.7569356" lon="14.8357525"><ele>756.0</ele><time>2026-05-01T08:21:42.976Z</time></trkpt><trkpt lat="40.7568864" lon="14.8358045"><ele>756.0</ele><time>2026-05-01T08:21:43.981Z</time></trkpt><trkpt lat="40.7568333" lon="14.8358524"><ele>756.0</ele><time>2026-05-01T08:21:44.974Z</time></trkpt><trkpt lat="40.7567803" lon="14.8359068"><ele>756.0</ele><time>2026-05-01T08:21:45.984Z</time></trkpt><trkpt lat="40.7567207" lon="14.835977"><ele>753.6666666666666</ele><time>2026-05-01T08:21:46.979Z</time></trkpt><trkpt lat="40.7566463" lon="14.8360674"><ele>751.3333333333334</ele><time>2026-05-01T08:21:47.958Z</time></trkpt><trkpt lat="40.7565736" lon="14.8361715"><ele>749.0</ele><time>2026-05-01T08:21:48.988Z</time></trkpt><trkpt lat="40.7565192" lon="14.8362542"><ele>746.6666666666667</ele><time>2026-05-01T08:21:49.979Z</time></trkpt><trkpt lat="40.7564679" lon="14.8363352"><ele>744.3333333333334</ele><time>2026-05-01T08:21:50.979Z</time></trkpt><trkpt lat="40.7564125" lon="14.8364019"><ele>742.0</ele><time>2026-05-01T08:21:51.977Z</time></trkpt><trkpt lat="40.7563546" lon="14.836463"><ele>742.0</ele><time>2026-05-01T08:21:52.979Z</time></trkpt><trkpt lat="40.7562994" lon="14.8365088"><ele>742.0</ele><time>2026-05-01T08:21:53.982Z</time></trkpt><trkpt lat="40.7562072" lon="14.836622"><ele>742.0</ele><time>2026-05-01T08:21:55.987Z</time></trkpt><trkpt lat="40.7561629" lon="14.8366893"><ele>742.0</ele><time>2026-05-01T08:21:56.978Z</time></trkpt><trkpt lat="40.7561076" lon="14.8367485"><ele>742.0</ele><time>2026-05-01T08:21:57.981Z</time></trkpt><trkpt lat="40.7560412" lon="14.8367792"><ele>742.0</ele><time>2026-05-01T08:21:58.981Z</time></trkpt><trkpt lat="40.7559299" lon="14.8368052"><ele>738.25</ele><time>2026-05-01T08:22:00.975Z</time></trkpt><trkpt lat="40.7558309" lon="14.8368858"><ele>734.5</ele><time>2026-05-01T08:22:02.96Z</time></trkpt><trkpt lat="40.7557052" lon="14.8369174"><ele>730.75</ele><time>2026-05-01T08:22:04.977Z</time></trkpt><trkpt lat="40.7556002" lon="14.836914"><ele>727.0</ele><time>2026-05-01T08:22:06.983Z</time></trkpt><trkpt lat="40.7554953" lon="14.8368972"><ele>727.0</ele><time>2026-05-01T08:22:08.979Z</time></trkpt><trkpt lat="40.7553747" lon="14.8368867"><ele>727.0</ele><time>2026-05-01T08:22:10.976Z</time></trkpt><trkpt lat="40.7552519" lon="14.8368766"><ele>727.0</ele><time>2026-05-01T08:22:12.982Z</time></trkpt><trkpt lat="40.7551788" lon="14.8368686"><ele>727.0</ele><time>2026-05-01T08:22:13.981Z</time></trkpt><trkpt lat="40.7551038" lon="14.8368195"><ele>727.0</ele><time>2026-05-01T08:22:14.969Z</time></trkpt><trkpt lat="40.7550258" lon="14.8367904"><ele>728.8333333333334</ele><time>2026-05-01T08:22:15.978Z</time></trkpt><trkpt lat="40.7549507" lon="14.8367664"><ele>730.6666666666667</ele><time>2026-05-01T08:22:16.98Z</time></trkpt><trkpt lat="40.7548952" lon="14.8367226"><ele>732.5</ele><time>2026-05-01T08:22:17.985Z</time></trkpt><trkpt lat="40.7548425" lon="14.8366294"><ele>734.3333333333334</ele><time>2026-05-01T08:22:19.985Z</time></trkpt><trkpt lat="40.754816" lon="14.8365396"><ele>736.1666666666666</ele><time>2026-05-01T08:22:21.979Z</time></trkpt><trkpt lat="40.7547578" lon="14.8364577"><ele>738.0</ele><time>2026-05-01T08:22:24.984Z</time></trkpt><trkpt lat="40.7546979" lon="14.8364252"><ele>738.0</ele><time>2026-05-01T08:22:26.984Z</time></trkpt><trkpt lat="40.7545996" lon="14.8363564"><ele>738.0</ele><time>2026-05-01T08:22:28.983Z</time></trkpt><trkpt lat="40.7545431" lon="14.8363025"><ele>738.0</ele><time>2026-05-01T08:22:31.982Z</time></trkpt><trkpt lat="40.7544636" lon="14.8362448"><ele>738.0</ele><time>2026-05-01T08:22:33.981Z</time></trkpt><trkpt lat="40.7543384" lon="14.8361628"><ele>738.0</ele><time>2026-05-01T08:22:35.983Z</time></trkpt><trkpt lat="40.75423" lon="14.8361238"><ele>735.8</ele><time>2026-05-01T08:22:36.986Z</time></trkpt><trkpt lat="40.7541224" lon="14.8360883"><ele>733.5999999999999</ele><time>2026-05-01T08:22:37.987Z</time></trkpt><trkpt lat="40.7540167" lon="14.8360487"><ele>731.4000000000001</ele><time>2026-05-01T08:22:38.981Z</time></trkpt><trkpt lat="40.7539261" lon="14.8359974"><ele>729.2</ele><time>2026-05-01T08:22:39.985Z</time></trkpt><trkpt lat="40.7538522" lon="14.8359478"><ele>727.0</ele><time>2026-05-01T08:22:40.984Z</time></trkpt><trkpt lat="40.7538015" lon="14.8358706"><ele>733.2</ele><time>2026-05-01T08:22:41.976Z</time></trkpt><trkpt lat="40.7537549" lon="14.8357654"><ele>739.4000000000001</ele><time>2026-05-01T08:22:42.981Z</time></trkpt><trkpt lat="40.7537104" lon="14.8356334"><ele>745.5999999999999</ele><time>2026-05-01T08:22:43.988Z</time></trkpt><trkpt lat="40.7536819" lon="14.8355046"><ele>751.8</ele><time>2026-05-01T08:22:45.022Z</time></trkpt><trkpt lat="40.7536438" lon="14.8354038"><ele>758.0</ele><time>2026-05-01T08:22:46.022Z</time></trkpt><trkpt lat="40.7536034" lon="14.8353148"><ele>758.0</ele><time>2026-05-01T08:22:46.972Z</time></trkpt><trkpt lat="40.7535525" lon="14.8352318"><ele>758.0</ele><time>2026-05-01T08:22:47.98Z</time></trkpt><trkpt lat="40.7534955" lon="14.8351653"><ele>758.0</ele><time>2026-05-01T08:22:48.98Z</time></trkpt><trkpt lat="40.7534259" lon="14.8351165"><ele>758.0</ele><time>2026-05-01T08:22:49.98Z</time></trkpt><trkpt lat="40.753321" lon="14.8350863"><ele>758.0</ele><time>2026-05-01T08:22:50.967Z</time></trkpt><trkpt lat="40.7532028" lon="14.8350646"><ele>754.0</ele><time>2026-05-01T08:22:51.974Z</time></trkpt><trkpt lat="40.7531114" lon="14.8350505"><ele>750.0</ele><time>2026-05-01T08:22:52.97Z</time></trkpt><trkpt lat="40.7530133" lon="14.8350498"><ele>746.0</ele><time>2026-05-01T08:22:53.978Z</time></trkpt><trkpt lat="40.7529179" lon="14.8350257"><ele>742.0</ele><time>2026-05-01T08:22:54.979Z</time></trkpt><trkpt lat="40.7528187" lon="14.8349508"><ele>738.0</ele><time>2026-05-01T08:22:55.983Z</time></trkpt><trkpt lat="40.7527353" lon="14.8348469"><ele>735.2</ele><time>2026-05-01T08:22:56.982Z</time></trkpt><trkpt lat="40.7526607" lon="14.8347034"><ele>732.4</ele><time>2026-05-01T08:22:57.984Z</time></trkpt><trkpt lat="40.7525982" lon="14.8345548"><ele>729.6</ele><time>2026-05-01T08:22:58.982Z</time></trkpt><trkpt lat="40.7525832" lon="14.8344392"><ele>726.8000000000001</ele><time>2026-05-01T08:22:59.97Z</time></trkpt><trkpt lat="40.7525571" lon="14.8343616"><ele>724.0</ele><time>2026-05-01T08:23:00.972Z</time></trkpt><trkpt lat="40.7524517" lon="14.8342807"><ele>723.0</ele><time>2026-05-01T08:23:02.985Z</time></trkpt><trkpt lat="40.7523519" lon="14.8341984"><ele>722.0</ele><time>2026-05-01T08:23:04.968Z</time></trkpt><trkpt lat="40.7522919" lon="14.8341395"><ele>721.0</ele><time>2026-05-01T08:23:05.974Z</time></trkpt><trkpt lat="40.7522311" lon="14.8340752"><ele>720.0</ele><time>2026-05-01T08:23:06.983Z</time></trkpt><trkpt lat="40.7521653" lon="14.8340233"><ele>719.0</ele><time>2026-05-01T08:23:07.974Z</time></trkpt><trkpt lat="40.7520968" lon="14.8339775"><ele>718.0</ele><time>2026-05-01T08:23:08.968Z</time></trkpt><trkpt lat="40.7520283" lon="14.8339123"><ele>718.0</ele><time>2026-05-01T08:23:09.984Z</time></trkpt><trkpt lat="40.7519656" lon="14.8338337"><ele>718.0</ele><time>2026-05-01T08:23:10.961Z</time></trkpt><trkpt lat="40.751906" lon="14.8337416"><ele>718.0</ele><time>2026-05-01T08:23:11.985Z</time></trkpt><trkpt lat="40.7518631" lon="14.833669"><ele>718.0</ele><time>2026-05-01T08:23:12.981Z</time></trkpt><trkpt lat="40.7518037" lon="14.833595"><ele>718.0</ele><time>2026-05-01T08:23:14.987Z</time></trkpt><trkpt lat="40.7517301" lon="14.8335157"><ele>718.0</ele><time>2026-05-01T08:23:16.964Z</time></trkpt><trkpt lat="40.7516607" lon="14.833445"><ele>720.2</ele><time>2026-05-01T08:23:18.992Z</time></trkpt><trkpt lat="40.7515885" lon="14.8333538"><ele>722.4</ele><time>2026-05-01T08:23:20.987Z</time></trkpt><trkpt lat="40.7515179" lon="14.8332325"><ele>724.6</ele><time>2026-05-01T08:23:22.986Z</time></trkpt><trkpt lat="40.7514709" lon="14.8331337"><ele>726.8000000000001</ele><time>2026-05-01T08:23:23.983Z</time></trkpt><trkpt lat="40.7514232" lon="14.8330389"><ele>729.0</ele><time>2026-05-01T08:23:24.985Z</time></trkpt><trkpt lat="40.7513721" lon="14.8329578"><ele>729.0</ele><time>2026-05-01T08:23:25.958Z</time></trkpt><trkpt lat="40.7513139" lon="14.8328787"><ele>729.0</ele><time>2026-05-01T08:23:27.041Z</time></trkpt><trkpt lat="40.7512437" lon="14.8327858"><ele>729.0</ele><time>2026-05-01T08:23:28.044Z</time></trkpt><trkpt lat="40.7511601" lon="14.8326756"><ele>729.0</ele><time>2026-05-01T08:23:28.992Z</time></trkpt><trkpt lat="40.7510862" lon="14.8325641"><ele>729.0</ele><time>2026-05-01T08:23:29.987Z</time></trkpt><trkpt lat="40.7510194" lon="14.8324286"><ele>729.5</ele><time>2026-05-01T08:23:30.984Z</time></trkpt><trkpt lat="40.7509485" lon="14.8323464"><ele>730.0</ele><time>2026-05-01T08:23:31.994Z</time></trkpt><trkpt lat="40.7508387" lon="14.8322957"><ele>730.5</ele><time>2026-05-01T08:23:32.964Z</time></trkpt><trkpt lat="40.7506769" lon="14.8322579"><ele>731.0</ele><time>2026-05-01T08:23:33.985Z</time></trkpt><trkpt lat="40.7505119" lon="14.8322215"><ele>731.0</ele><time>2026-05-01T08:23:35.051Z</time></trkpt><trkpt lat="40.7503555" lon="14.8321909"><ele>731.0</ele><time>2026-05-01T08:23:36.031Z</time></trkpt><trkpt lat="40.75023" lon="14.8321673"><ele>731.0</ele><time>2026-05-01T08:23:37.033Z</time></trkpt><trkpt lat="40.7500919" lon="14.8321635"><ele>731.0</ele><time>2026-05-01T08:23:37.959Z</time></trkpt><trkpt lat="40.7499668" lon="14.8321522"><ele>732.5999999999999</ele><time>2026-05-01T08:23:38.974Z</time></trkpt><trkpt lat="40.749862" lon="14.8321436"><ele>734.2</ele><time>2026-05-01T08:23:39.973Z</time></trkpt><trkpt lat="40.7497873" lon="14.8321243"><ele>735.8</ele><time>2026-05-01T08:23:40.971Z</time></trkpt><trkpt lat="40.7496584" lon="14.8321268"><ele>737.4000000000001</ele><time>2026-05-01T08:23:42.956Z</time></trkpt><trkpt lat="40.749569" lon="14.8321853"><ele>739.0</ele><time>2026-05-01T08:23:44.967Z</time></trkpt><trkpt lat="40.7494878" lon="14.8321827"><ele>739.0</ele><time>2026-05-01T08:23:46.985Z</time></trkpt><trkpt lat="40.749378" lon="14.8321034"><ele>739.0</ele><time>2026-05-01T08:23:48.967Z</time></trkpt><trkpt lat="40.7492717" lon="14.8319896"><ele>739.0</ele><time>2026-05-01T08:23:50.98Z</time></trkpt><trkpt lat="40.7492218" lon="14.8319169"><ele>739.0</ele><time>2026-05-01T08:23:51.973Z</time></trkpt><trkpt lat="40.749163" lon="14.8317914"><ele>739.0</ele><time>2026-05-01T08:23:53.977Z</time></trkpt><trkpt lat="40.7491139" lon="14.8317108"><ele>742.2</ele><time>2026-05-01T08:23:55.981Z</time></trkpt><trkpt lat="40.7490427" lon="14.8316448"><ele>745.4000000000001</ele><time>2026-05-01T08:23:57.981Z</time></trkpt><trkpt lat="40.7489734" lon="14.8315718"><ele>748.6</ele><time>2026-05-01T08:23:58.98Z</time></trkpt><trkpt lat="40.7489174" lon="14.8315184"><ele>751.8</ele><time>2026-05-01T08:23:59.968Z</time></trkpt><trkpt lat="40.748836" lon="14.8314899"><ele>755.0</ele><time>2026-05-01T08:24:01.979Z</time></trkpt><trkpt lat="40.7487066" lon="14.8314253"><ele>755.0</ele><time>2026-05-01T08:24:03.979Z</time></trkpt><trkpt lat="40.7486353" lon="14.8313732"><ele>755.0</ele><time>2026-05-01T08:24:04.965Z</time></trkpt><trkpt lat="40.7485615" lon="14.8313122"><ele>755.0</ele><time>2026-05-01T08:24:06.054Z</time></trkpt><trkpt lat="40.748483" lon="14.831256"><ele>755.0</ele><time>2026-05-01T08:24:07.015Z</time></trkpt><trkpt lat="40.7484012" lon="14.8311952"><ele>755.0</ele><time>2026-05-01T08:24:08.017Z</time></trkpt><trkpt lat="40.748317" lon="14.8311235"><ele>752.8</ele><time>2026-05-01T08:24:08.967Z</time></trkpt><trkpt lat="40.7482373" lon="14.8310548"><ele>750.6</ele><time>2026-05-01T08:24:09.969Z</time></trkpt><trkpt lat="40.7481617" lon="14.8309984"><ele>748.4000000000001</ele><time>2026-05-01T08:24:10.967Z</time></trkpt><trkpt lat="40.7480681" lon="14.8309464"><ele>746.2</ele><time>2026-05-01T08:24:11.974Z</time></trkpt><trkpt lat="40.7479842" lon="14.8309104"><ele>744.0</ele><time>2026-05-01T08:24:12.973Z</time></trkpt><trkpt lat="40.7479122" lon="14.8308702"><ele>745.4000000000001</ele><time>2026-05-01T08:24:13.958Z</time></trkpt><trkpt lat="40.7478427" lon="14.8308349"><ele>746.8</ele><time>2026-05-01T08:24:15.04Z</time></trkpt><trkpt lat="40.7477483" lon="14.830788"><ele>748.2</ele><time>2026-05-01T08:24:16.968Z</time></trkpt><trkpt lat="40.7476597" lon="14.8308791"><ele>749.5999999999999</ele><time>2026-05-01T08:24:20.962Z</time></trkpt><trkpt lat="40.7475679" lon="14.8310415"><ele>751.0</ele><time>2026-05-01T08:24:22.955Z</time></trkpt><trkpt lat="40.7475146" lon="14.8311333"><ele>751.0</ele><time>2026-05-01T08:24:23.96Z</time></trkpt><trkpt lat="40.7474389" lon="14.8312682"><ele>751.0</ele><time>2026-05-01T08:24:24.96Z</time></trkpt><trkpt lat="40.7473771" lon="14.8313949"><ele>751.0</ele><time>2026-05-01T08:24:25.972Z</time></trkpt><trkpt lat="40.7473433" lon="14.8315099"><ele>751.0</ele><time>2026-05-01T08:24:27.025Z</time></trkpt><trkpt lat="40.7473119" lon="14.8316202"><ele>751.0</ele><time>2026-05-01T08:24:28.02Z</time></trkpt><trkpt lat="40.7472748" lon="14.8317404"><ele>747.1999999999999</ele><time>2026-05-01T08:24:28.967Z</time></trkpt><trkpt lat="40.7472346" lon="14.8318469"><ele>743.4</ele><time>2026-05-01T08:24:29.976Z</time></trkpt><trkpt lat="40.7472135" lon="14.8319473"><ele>739.6</ele><time>2026-05-01T08:24:30.966Z</time></trkpt><trkpt lat="40.7471626" lon="14.8320723"><ele>735.8</ele><time>2026-05-01T08:24:32.967Z</time></trkpt><trkpt lat="40.7470566" lon="14.8321275"><ele>732.0</ele><time>2026-05-01T08:24:34.975Z</time></trkpt><trkpt lat="40.7469764" lon="14.8321438"><ele>732.0</ele><time>2026-05-01T08:24:35.976Z</time></trkpt><trkpt lat="40.7468914" lon="14.8321386"><ele>732.0</ele><time>2026-05-01T08:24:36.98Z</time></trkpt><trkpt lat="40.7468146" lon="14.8321171"><ele>732.0</ele><time>2026-05-01T08:24:37.968Z</time></trkpt><trkpt lat="40.7467303" lon="14.8320802"><ele>732.0</ele><time>2026-05-01T08:24:38.976Z</time></trkpt><trkpt lat="40.7466391" lon="14.8320461"><ele>732.0</ele><time>2026-05-01T08:24:39.972Z</time></trkpt><trkpt lat="40.7465442" lon="14.8320295"><ele>732.0</ele><time>2026-05-01T08:24:40.974Z</time></trkpt><trkpt lat="40.7464374" lon="14.8320083"><ele>730.8</ele><time>2026-05-01T08:24:41.972Z</time></trkpt><trkpt lat="40.7463305" lon="14.8319891"><ele>729.6</ele><time>2026-05-01T08:24:42.96Z</time></trkpt><trkpt lat="40.7462318" lon="14.8319631"><ele>728.4</ele><time>2026-05-01T08:24:43.97Z</time></trkpt><trkpt lat="40.746138" lon="14.8319254"><ele>727.1999999999999</ele><time>2026-05-01T08:24:44.976Z</time></trkpt><trkpt lat="40.7460491" lon="14.8318861"><ele>726.0</ele><time>2026-05-01T08:24:45.97Z</time></trkpt><trkpt lat="40.7459554" lon="14.8318151"><ele>734.1999999999999</ele><time>2026-05-01T08:24:46.977Z</time></trkpt><trkpt lat="40.7458627" lon="14.8317097"><ele>742.4</ele><time>2026-05-01T08:24:47.973Z</time></trkpt><trkpt lat="40.7457915" lon="14.8315696"><ele>750.6</ele><time>2026-05-01T08:24:48.981Z</time></trkpt><trkpt lat="40.7457451" lon="14.8314414"><ele>758.8</ele><time>2026-05-01T08:24:49.967Z</time></trkpt><trkpt lat="40.7457067" lon="14.8313431"><ele>767.0</ele><time>2026-05-01T08:24:50.969Z</time></trkpt><trkpt lat="40.7457057" lon="14.8312524"><ele>767.0</ele><time>2026-05-01T08:24:52.968Z</time></trkpt><trkpt lat="40.7456643" lon="14.8311739"><ele>767.0</ele><time>2026-05-01T08:24:54.976Z</time></trkpt><trkpt lat="40.7455816" lon="14.8311503"><ele>767.0</ele><time>2026-05-01T08:24:55.971Z</time></trkpt><trkpt lat="40.7454905" lon="14.8311245"><ele>767.0</ele><time>2026-05-01T08:24:56.963Z</time></trkpt><trkpt lat="40.7453822" lon="14.831116"><ele>767.0</ele><time>2026-05-01T08:24:57.973Z</time></trkpt><trkpt lat="40.7452844" lon="14.8310869"><ele>769.0</ele><time>2026-05-01T08:24:58.97Z</time></trkpt><trkpt lat="40.7451888" lon="14.8310085"><ele>771.0</ele><time>2026-05-01T08:24:59.97Z</time></trkpt><trkpt lat="40.7450833" lon="14.8309051"><ele>773.0</ele><time>2026-05-01T08:25:00.972Z</time></trkpt><trkpt lat="40.7449758" lon="14.8308136"><ele>775.0</ele><time>2026-05-01T08:25:01.976Z</time></trkpt><trkpt lat="40.7448793" lon="14.8307111"><ele>775.0</ele><time>2026-05-01T08:25:02.964Z</time></trkpt><trkpt lat="40.7447825" lon="14.830607"><ele>775.0</ele><time>2026-05-01T08:25:03.973Z</time></trkpt><trkpt lat="40.7446915" lon="14.8305055"><ele>775.0</ele><time>2026-05-01T08:25:04.976Z</time></trkpt><trkpt lat="40.7446127" lon="14.8304224"><ele>775.0</ele><time>2026-05-01T08:25:05.966Z</time></trkpt><trkpt lat="40.7445423" lon="14.8303342"><ele>775.0</ele><time>2026-05-01T08:25:06.974Z</time></trkpt><trkpt lat="40.7444728" lon="14.830275"><ele>775.0</ele><time>2026-05-01T08:25:07.958Z</time></trkpt><trkpt lat="40.7444059" lon="14.8302163"><ele>775.0</ele><time>2026-05-01T08:25:08.966Z</time></trkpt><trkpt lat="40.7443364" lon="14.8301476"><ele>775.0</ele><time>2026-05-01T08:25:09.969Z</time></trkpt><trkpt lat="40.7442584" lon="14.8300638"><ele>775.0</ele><time>2026-05-01T08:25:11.074Z</time></trkpt><trkpt lat="40.7441888" lon="14.8299476"><ele>775.0</ele><time>2026-05-01T08:25:12.037Z</time></trkpt><trkpt lat="40.7441218" lon="14.8298022"><ele>773.5</ele><time>2026-05-01T08:25:12.967Z</time></trkpt><trkpt lat="40.7440678" lon="14.8296653"><ele>772.0</ele><time>2026-05-01T08:25:13.948Z</time></trkpt><trkpt lat="40.7440163" lon="14.829543"><ele>770.5</ele><time>2026-05-01T08:25:14.97Z</time></trkpt><trkpt lat="40.7439661" lon="14.8294049"><ele>769.0</ele><time>2026-05-01T08:25:15.97Z</time></trkpt><trkpt lat="40.7439078" lon="14.8292636"><ele>769.0</ele><time>2026-05-01T08:25:16.966Z</time></trkpt><trkpt lat="40.7438461" lon="14.8291358"><ele>769.0</ele><time>2026-05-01T08:25:17.974Z</time></trkpt><trkpt lat="40.7437876" lon="14.8290224"><ele>769.0</ele><time>2026-05-01T08:25:18.975Z</time></trkpt><trkpt lat="40.7437561" lon="14.8289428"><ele>769.0</ele><time>2026-05-01T08:25:19.972Z</time></trkpt><trkpt lat="40.7437798" lon="14.828832"><ele>769.0</ele><time>2026-05-01T08:25:22.977Z</time></trkpt><trkpt lat="40.743874" lon="14.8288251"><ele>769.0</ele><time>2026-05-01T08:25:24.991Z</time></trkpt><trkpt lat="40.7439893" lon="14.8288288"><ele>769.0</ele><time>2026-05-01T08:25:26.972Z</time></trkpt><trkpt lat="40.7441118" lon="14.8288273"><ele>769.0</ele><time>2026-05-01T08:25:28.973Z</time></trkpt><trkpt lat="40.744175" lon="14.8288209"><ele>769.0</ele><time>2026-05-01T08:25:29.968Z</time></trkpt><trkpt lat="40.7442552" lon="14.8288133"><ele>769.0</ele><time>2026-05-01T08:25:30.978Z</time></trkpt><trkpt lat="40.7443487" lon="14.8288024"><ele>770.2</ele><time>2026-05-01T08:25:31.975Z</time></trkpt><trkpt lat="40.744445" lon="14.8287976"><ele>771.4000000000001</ele><time>2026-05-01T08:25:32.955Z</time></trkpt><trkpt lat="40.7445397" lon="14.8287916"><ele>772.6</ele><time>2026-05-01T08:25:33.958Z</time></trkpt><trkpt lat="40.7446318" lon="14.8287848"><ele>773.8</ele><time>2026-05-01T08:25:34.972Z</time></trkpt><trkpt lat="40.7447408" lon="14.8287842"><ele>775.0</ele><time>2026-05-01T08:25:36.045Z</time></trkpt><trkpt lat="40.7448596" lon="14.8287979"><ele>775.0</ele><time>2026-05-01T08:25:36.962Z</time></trkpt><trkpt lat="40.7449728" lon="14.8288188"><ele>775.0</ele><time>2026-05-01T08:25:37.98Z</time></trkpt><trkpt lat="40.7450785" lon="14.8288325"><ele>775.0</ele><time>2026-05-01T08:25:38.967Z</time></trkpt><trkpt lat="40.7451832" lon="14.8288232"><ele>775.0</ele><time>2026-05-01T08:25:39.97Z</time></trkpt><trkpt lat="40.7452659" lon="14.8288144"><ele>775.0</ele><time>2026-05-01T08:25:40.967Z</time></trkpt><trkpt lat="40.7453751" lon="14.8288202"><ele>777.1666666666666</ele><time>2026-05-01T08:25:43.015Z</time></trkpt><trkpt lat="40.7454147" lon="14.8287322"><ele>779.3333333333333</ele><time>2026-05-01T08:25:44.956Z</time></trkpt><trkpt lat="40.7454155" lon="14.8286139"><ele>781.5</ele><time>2026-05-01T08:25:46.976Z</time></trkpt><trkpt lat="40.745433" lon="14.8285337"><ele>783.6666666666667</ele><time>2026-05-01T08:25:47.972Z</time></trkpt><trkpt lat="40.7454893" lon="14.8284147"><ele>785.8333333333334</ele><time>2026-05-01T08:25:49.969Z</time></trkpt><trkpt lat="40.7455395" lon="14.8283633"><ele>788.0</ele><time>2026-05-01T08:25:50.957Z</time></trkpt><trkpt lat="40.7456343" lon="14.8282869"><ele>781.5</ele><time>2026-05-01T08:25:52.966Z</time></trkpt><trkpt lat="40.7457283" lon="14.828181"><ele>775.0</ele><time>2026-05-01T08:25:54.983Z</time></trkpt><trkpt lat="40.7458179" lon="14.8280508"><ele>768.5</ele><time>2026-05-01T08:25:55.973Z</time></trkpt><trkpt lat="40.7458551" lon="14.8279777"><ele>762.0</ele><time>2026-05-01T08:25:56.975Z</time></trkpt><trkpt lat="40.7459406" lon="14.8278531"><ele>762.0</ele><time>2026-05-01T08:25:58.97Z</time></trkpt><trkpt lat="40.7460357" lon="14.8277538"><ele>762.0</ele><time>2026-05-01T08:25:59.983Z</time></trkpt><trkpt lat="40.746117" lon="14.8276487"><ele>762.0</ele><time>2026-05-01T08:26:01.014Z</time></trkpt><trkpt lat="40.7461748" lon="14.8275349"><ele>762.0</ele><time>2026-05-01T08:26:02.042Z</time></trkpt><trkpt lat="40.7462183" lon="14.8274262"><ele>762.0</ele><time>2026-05-01T08:26:03.03Z</time></trkpt><trkpt lat="40.7462487" lon="14.827293"><ele>756.4000000000001</ele><time>2026-05-01T08:26:03.968Z</time></trkpt><trkpt lat="40.7462641" lon="14.8271303"><ele>750.8000000000001</ele><time>2026-05-01T08:26:04.966Z</time></trkpt><trkpt lat="40.7462658" lon="14.826994"><ele>745.2</ele><time>2026-05-01T08:26:05.965Z</time></trkpt><trkpt lat="40.7462729" lon="14.826853"><ele>739.6</ele><time>2026-05-01T08:26:06.969Z</time></trkpt><trkpt lat="40.7462754" lon="14.826753"><ele>734.0</ele><time>2026-05-01T08:26:07.977Z</time></trkpt><trkpt lat="40.7462854" lon="14.8266585"><ele>734.0</ele><time>2026-05-01T08:26:09.003Z</time></trkpt><trkpt lat="40.7462456" lon="14.8265696"><ele>734.0</ele><time>2026-05-01T08:26:11.973Z</time></trkpt><trkpt lat="40.7462069" lon="14.8266557"><ele>734.0</ele><time>2026-05-01T08:26:14.975Z</time></trkpt><trkpt lat="40.7461785" lon="14.8267523"><ele>734.0</ele><time>2026-05-01T08:26:17.959Z</time></trkpt><trkpt lat="40.7461467" lon="14.8268525"><ele>734.0</ele><time>2026-05-01T08:27:54.972Z</time></trkpt><trkpt lat="40.7460749" lon="14.8269374"><ele>734.0</ele><time>2026-05-01T08:27:57.982Z</time></trkpt><trkpt lat="40.7459791" lon="14.8270281"><ele>734.1666666666666</ele><time>2026-05-01T08:27:59.985Z</time></trkpt><trkpt lat="40.7458919" lon="14.8270808"><ele>734.3333333333333</ele><time>2026-05-01T08:28:01.979Z</time></trkpt><trkpt lat="40.7457873" lon="14.8271766"><ele>734.5</ele><time>2026-05-01T08:28:03.979Z</time></trkpt><trkpt lat="40.7457383" lon="14.8272347"><ele>734.6666666666666</ele><time>2026-05-01T08:28:04.97Z</time></trkpt><trkpt lat="40.7456916" lon="14.8273008"><ele>734.8333333333334</ele><time>2026-05-01T08:28:05.975Z</time></trkpt><trkpt lat="40.7456465" lon="14.8273648"><ele>735.0</ele><time>2026-05-01T08:28:06.971Z</time></trkpt><trkpt lat="40.7455858" lon="14.8274581"><ele>735.0</ele><time>2026-05-01T08:28:08.971Z</time></trkpt><trkpt lat="40.7455039" lon="14.8274792"><ele>735.0</ele><time>2026-05-01T08:28:11.968Z</time></trkpt><trkpt lat="40.7454293" lon="14.827443"><ele>735.0</ele><time>2026-05-01T08:28:13.975Z</time></trkpt><trkpt lat="40.7453088" lon="14.8274098"><ele>735.0</ele><time>2026-05-01T08:28:15.965Z</time></trkpt><trkpt lat="40.7451949" lon="14.8274375"><ele>735.0</ele><time>2026-05-01T08:28:17.97Z</time></trkpt><trkpt lat="40.7451345" lon="14.8274767"><ele>734.8333333333334</ele><time>2026-05-01T08:28:18.968Z</time></trkpt><trkpt lat="40.7450644" lon="14.8275228"><ele>734.6666666666666</ele><time>2026-05-01T08:28:19.966Z</time></trkpt><trkpt lat="40.7449823" lon="14.8276496"><ele>734.5</ele><time>2026-05-01T08:28:21.969Z</time></trkpt><trkpt lat="40.7449356" lon="14.827766"><ele>734.3333333333333</ele><time>2026-05-01T08:28:23.965Z</time></trkpt><trkpt lat="40.744911" lon="14.8278504"><ele>734.1666666666666</ele><time>2026-05-01T08:28:26.973Z</time></trkpt><trkpt lat="40.744846" lon="14.827815"><ele>734.0</ele><time>2026-05-01T08:28:29.972Z</time></trkpt><trkpt lat="40.7447852" lon="14.8277873"><ele>734.0</ele><time>2026-05-01T08:28:30.972Z</time></trkpt><trkpt lat="40.744714" lon="14.8277556"><ele>734.0</ele><time>2026-05-01T08:28:31.969Z</time></trkpt><trkpt lat="40.7446387" lon="14.8277286"><ele>734.0</ele><time>2026-05-01T08:28:32.969Z</time></trkpt><trkpt lat="40.7445679" lon="14.8277118"><ele>734.0</ele><time>2026-05-01T08:28:33.974Z</time></trkpt><trkpt lat="40.7444961" lon="14.827699"><ele>734.0</ele><time>2026-05-01T08:28:34.964Z</time></trkpt><trkpt lat="40.7444308" lon="14.8276843"><ele>734.0</ele><time>2026-05-01T08:28:35.965Z</time></trkpt><trkpt lat="40.7443628" lon="14.8276595"><ele>734.0</ele><time>2026-05-01T08:28:36.965Z</time></trkpt><trkpt lat="40.7442894" lon="14.8276284"><ele>726.6</ele><time>2026-05-01T08:28:37.957Z</time></trkpt><trkpt lat="40.7442145" lon="14.8275951"><ele>719.2</ele><time>2026-05-01T08:28:38.944Z</time></trkpt><trkpt lat="40.7441304" lon="14.8275572"><ele>711.8000000000001</ele><time>2026-05-01T08:28:39.962Z</time></trkpt><trkpt lat="40.7440388" lon="14.827515"><ele>704.4000000000001</ele><time>2026-05-01T08:28:40.968Z</time></trkpt><trkpt lat="40.743925" lon="14.8274858"><ele>697.0</ele><time>2026-05-01T08:28:41.976Z</time></trkpt><trkpt lat="40.7438136" lon="14.8274713"><ele>697.0</ele><time>2026-05-01T08:28:42.969Z</time></trkpt><trkpt lat="40.7436984" lon="14.8274604"><ele>697.0</ele><time>2026-05-01T08:28:43.962Z</time></trkpt><trkpt lat="40.7435816" lon="14.8274572"><ele>697.0</ele><time>2026-05-01T08:28:44.974Z</time></trkpt><trkpt lat="40.7434632" lon="14.8274334"><ele>697.0</ele><time>2026-05-01T08:28:45.964Z</time></trkpt><trkpt lat="40.7433573" lon="14.8274082"><ele>699.2</ele><time>2026-05-01T08:28:46.968Z</time></trkpt><trkpt lat="40.7432441" lon="14.8273876"><ele>701.4000000000001</ele><time>2026-05-01T08:28:47.946Z</time></trkpt><trkpt lat="40.7431361" lon="14.827376"><ele>703.5999999999999</ele><time>2026-05-01T08:28:48.965Z</time></trkpt><trkpt lat="40.7430543" lon="14.8273667"><ele>705.8</ele><time>2026-05-01T08:28:49.964Z</time></trkpt><trkpt lat="40.7429711" lon="14.8273674"><ele>708.0</ele><time>2026-05-01T08:28:50.978Z</time></trkpt><trkpt lat="40.7428772" lon="14.8273891"><ele>708.0</ele><time>2026-05-01T08:28:51.969Z</time></trkpt><trkpt lat="40.7427847" lon="14.8274228"><ele>708.0</ele><time>2026-05-01T08:28:52.966Z</time></trkpt><trkpt lat="40.7427093" lon="14.8274421"><ele>708.0</ele><time>2026-05-01T08:28:53.957Z</time></trkpt><trkpt lat="40.7425849" lon="14.8274595"><ele>708.0</ele><time>2026-05-01T08:28:55.966Z</time></trkpt><trkpt lat="40.7425186" lon="14.8274574"><ele>708.0</ele><time>2026-05-01T08:28:56.972Z</time></trkpt><trkpt lat="40.7424551" lon="14.8274598"><ele>708.0</ele><time>2026-05-01T08:28:57.97Z</time></trkpt><trkpt lat="40.7423831" lon="14.8274646"><ele>706.6666666666666</ele><time>2026-05-01T08:28:58.971Z</time></trkpt><trkpt lat="40.742297" lon="14.8274845"><ele>705.3333333333334</ele><time>2026-05-01T08:28:59.971Z</time></trkpt><trkpt lat="40.7422102" lon="14.827521"><ele>704.0</ele><time>2026-05-01T08:29:00.97Z</time></trkpt><trkpt lat="40.7421268" lon="14.8275593"><ele>702.6666666666667</ele><time>2026-05-01T08:29:01.975Z</time></trkpt><trkpt lat="40.7420553" lon="14.8275868"><ele>701.3333333333334</ele><time>2026-05-01T08:29:02.977Z</time></trkpt><trkpt lat="40.7419839" lon="14.827619"><ele>700.0</ele><time>2026-05-01T08:29:03.976Z</time></trkpt><trkpt lat="40.7419111" lon="14.8276437"><ele>699.0</ele><time>2026-05-01T08:29:04.97Z</time></trkpt><trkpt lat="40.7418346" lon="14.8276764"><ele>698.0</ele><time>2026-05-01T08:29:05.968Z</time></trkpt><trkpt lat="40.7417593" lon="14.8276948"><ele>697.0</ele><time>2026-05-01T08:29:06.969Z</time></trkpt><trkpt lat="40.7416837" lon="14.827702"><ele>696.0</ele><time>2026-05-01T08:29:07.966Z</time></trkpt><trkpt lat="40.7416137" lon="14.8277098"><ele>695.0</ele><time>2026-05-01T08:29:08.973Z</time></trkpt><trkpt lat="40.7415271" lon="14.8277021"><ele>694.0</ele><time>2026-05-01T08:29:09.977Z</time></trkpt><trkpt lat="40.7414399" lon="14.8276629"><ele>692.1666666666667</ele><time>2026-05-01T08:29:10.968Z</time></trkpt><trkpt lat="40.7413514" lon="14.8276421"><ele>690.3333333333334</ele><time>2026-05-01T08:29:11.961Z</time></trkpt><trkpt lat="40.7412657" lon="14.8276207"><ele>688.5</ele><time>2026-05-01T08:29:12.968Z</time></trkpt><trkpt lat="40.7411736" lon="14.8275926"><ele>686.6666666666666</ele><time>2026-05-01T08:29:13.977Z</time></trkpt><trkpt lat="40.7410902" lon="14.8275613"><ele>684.8333333333333</ele><time>2026-05-01T08:29:14.977Z</time></trkpt><trkpt lat="40.74102" lon="14.8275275"><ele>683.0</ele><time>2026-05-01T08:29:15.972Z</time></trkpt><trkpt lat="40.7409188" lon="14.8274561"><ele>681.8</ele><time>2026-05-01T08:29:17.981Z</time></trkpt><trkpt lat="40.7408175" lon="14.8273759"><ele>680.5999999999999</ele><time>2026-05-01T08:29:19.971Z</time></trkpt><trkpt lat="40.7407227" lon="14.8272802"><ele>679.4000000000001</ele><time>2026-05-01T08:29:22.031Z</time></trkpt><trkpt lat="40.7406228" lon="14.8272002"><ele>678.2</ele><time>2026-05-01T08:29:23.976Z</time></trkpt><trkpt lat="40.7405532" lon="14.8271589"><ele>677.0</ele><time>2026-05-01T08:29:24.981Z</time></trkpt><trkpt lat="40.7404683" lon="14.8271188"><ele>676.9999999999999</ele><time>2026-05-01T08:29:25.962Z</time></trkpt><trkpt lat="40.7403827" lon="14.8270843"><ele>677.0</ele><time>2026-05-01T08:29:26.976Z</time></trkpt><trkpt lat="40.7403175" lon="14.8270473"><ele>677.0</ele><time>2026-05-01T08:29:27.976Z</time></trkpt><trkpt lat="40.7402563" lon="14.8269905"><ele>677.0</ele><time>2026-05-01T08:29:28.951Z</time></trkpt><trkpt lat="40.7402011" lon="14.8269457"><ele>677.0</ele><time>2026-05-01T08:29:29.956Z</time></trkpt><trkpt lat="40.7401311" lon="14.8269092"><ele>676.9999999999999</ele><time>2026-05-01T08:29:31.977Z</time></trkpt><trkpt lat="40.7400875" lon="14.8269734"><ele>677.0</ele><time>2026-05-01T08:29:33.979Z</time></trkpt><trkpt lat="40.7400651" lon="14.8271039"><ele>672.6666666666666</ele><time>2026-05-01T08:29:35.975Z</time></trkpt><trkpt lat="40.7400878" lon="14.8272462"><ele>668.3333333333333</ele><time>2026-05-01T08:29:37.969Z</time></trkpt><trkpt lat="40.7401" lon="14.8273374"><ele>664.0</ele><time>2026-05-01T08:29:38.973Z</time></trkpt><trkpt lat="40.7401169" lon="14.8274244"><ele>659.6666666666666</ele><time>2026-05-01T08:29:39.973Z</time></trkpt><trkpt lat="40.7401442" lon="14.827536"><ele>655.3333333333334</ele><time>2026-05-01T08:29:40.969Z</time></trkpt><trkpt lat="40.740166" lon="14.8276644"><ele>651.0</ele><time>2026-05-01T08:29:41.969Z</time></trkpt><trkpt lat="40.7401825" lon="14.8277844"><ele>653.5999999999999</ele><time>2026-05-01T08:29:42.974Z</time></trkpt><trkpt lat="40.7401904" lon="14.8278854"><ele>656.2</ele><time>2026-05-01T08:29:43.97Z</time></trkpt><trkpt lat="40.7402063" lon="14.8279714"><ele>658.8</ele><time>2026-05-01T08:29:44.97Z</time></trkpt><trkpt lat="40.740278" lon="14.8280737"><ele>661.4000000000001</ele><time>2026-05-01T08:29:46.971Z</time></trkpt><trkpt lat="40.7404069" lon="14.8281335"><ele>664.0</ele><time>2026-05-01T08:29:48.975Z</time></trkpt><trkpt lat="40.7404971" lon="14.8281506"><ele>664.0</ele><time>2026-05-01T08:29:49.966Z</time></trkpt><trkpt lat="40.7405791" lon="14.8281705"><ele>664.0</ele><time>2026-05-01T08:29:50.969Z</time></trkpt><trkpt lat="40.740653" lon="14.828277"><ele>664.0</ele><time>2026-05-01T08:29:53.025Z</time></trkpt><trkpt lat="40.7407075" lon="14.8283603"><ele>664.0</ele><time>2026-05-01T08:29:53.972Z</time></trkpt><trkpt lat="40.7407727" lon="14.8284551"><ele>664.0</ele><time>2026-05-01T08:29:54.979Z</time></trkpt><trkpt lat="40.7408222" lon="14.8285336"><ele>658.4000000000001</ele><time>2026-05-01T08:29:55.964Z</time></trkpt><trkpt lat="40.7408754" lon="14.8286943"><ele>652.8000000000001</ele><time>2026-05-01T08:29:57.974Z</time></trkpt><trkpt lat="40.7408812" lon="14.828795"><ele>647.2</ele><time>2026-05-01T08:29:58.97Z</time></trkpt><trkpt lat="40.7409119" lon="14.8289261"><ele>641.6</ele><time>2026-05-01T08:30:01.034Z</time></trkpt><trkpt lat="40.7409581" lon="14.8289986"><ele>636.0</ele><time>2026-05-01T08:30:02.056Z</time></trkpt><trkpt lat="40.7410081" lon="14.8290625"><ele>637.4</ele><time>2026-05-01T08:30:02.99Z</time></trkpt><trkpt lat="40.7410998" lon="14.8291285"><ele>638.8</ele><time>2026-05-01T08:30:04.992Z</time></trkpt><trkpt lat="40.7411877" lon="14.8292219"><ele>640.1999999999999</ele><time>2026-05-01T08:30:06.987Z</time></trkpt><trkpt lat="40.7411823" lon="14.8293574"><ele>641.6</ele><time>2026-05-01T08:30:08.977Z</time></trkpt><trkpt lat="40.7411104" lon="14.8294537"><ele>643.0</ele><time>2026-05-01T08:30:11.065Z</time></trkpt><trkpt lat="40.7410647" lon="14.8295226"><ele>638.6666666666667</ele><time>2026-05-01T08:30:11.975Z</time></trkpt><trkpt lat="40.7410121" lon="14.8296093"><ele>634.3333333333334</ele><time>2026-05-01T08:30:12.988Z</time></trkpt><trkpt lat="40.7409589" lon="14.8296913"><ele>630.0</ele><time>2026-05-01T08:30:13.995Z</time></trkpt><trkpt lat="40.7409154" lon="14.8297585"><ele>625.6666666666666</ele><time>2026-05-01T08:30:14.995Z</time></trkpt><trkpt lat="40.7408669" lon="14.829881"><ele>621.3333333333333</ele><time>2026-05-01T08:30:16.989Z</time></trkpt><trkpt lat="40.7408483" lon="14.8299721"><ele>617.0</ele><time>2026-05-01T08:30:18.042Z</time></trkpt><trkpt lat="40.740829" lon="14.8300762"><ele>614.0</ele><time>2026-05-01T08:30:18.988Z</time></trkpt><trkpt lat="40.7408169" lon="14.8301816"><ele>611.0</ele><time>2026-05-01T08:30:19.992Z</time></trkpt><trkpt lat="40.7408121" lon="14.8302764"><ele>608.0</ele><time>2026-05-01T08:30:20.96Z</time></trkpt><trkpt lat="40.7407899" lon="14.830363"><ele>605.0</ele><time>2026-05-01T08:30:21.991Z</time></trkpt><trkpt lat="40.7407633" lon="14.8304512"><ele>602.0</ele><time>2026-05-01T08:30:22.993Z</time></trkpt><trkpt lat="40.7407509" lon="14.8305376"><ele>599.0</ele><time>2026-05-01T08:30:24.001Z</time></trkpt><trkpt lat="40.7407564" lon="14.8306799"><ele>599.0</ele><time>2026-05-01T08:30:26.027Z</time></trkpt><trkpt lat="40.7408228" lon="14.8307987"><ele>599.0</ele><time>2026-05-01T08:30:28.044Z</time></trkpt><trkpt lat="40.7409464" lon="14.8308661"><ele>599.0</ele><time>2026-05-01T08:30:29.995Z</time></trkpt><trkpt lat="40.7410127" lon="14.830896"><ele>599.0</ele><time>2026-05-01T08:30:30.988Z</time></trkpt><trkpt lat="40.7411177" lon="14.8309533"><ele>599.0</ele><time>2026-05-01T08:30:33.042Z</time></trkpt><trkpt lat="40.741203" lon="14.8309206"><ele>600.5</ele><time>2026-05-01T08:30:34.98Z</time></trkpt><trkpt lat="40.7412868" lon="14.8308949"><ele>602.0</ele><time>2026-05-01T08:30:36.984Z</time></trkpt><trkpt lat="40.7413657" lon="14.8308531"><ele>603.5</ele><time>2026-05-01T08:30:39.984Z</time></trkpt><trkpt lat="40.7413527" lon="14.8309713"><ele>605.0</ele><time>2026-05-01T08:30:45.994Z</time></trkpt><trkpt lat="40.7413456" lon="14.8310699"><ele>606.5</ele><time>2026-05-01T08:30:47.044Z</time></trkpt><trkpt lat="40.7413461" lon="14.8311632"><ele>608.0</ele><time>2026-05-01T08:30:48.032Z</time></trkpt><trkpt lat="40.7413477" lon="14.8312621"><ele>608.0</ele><time>2026-05-01T08:30:48.988Z</time></trkpt><trkpt lat="40.7413663" lon="14.8313958"><ele>608.0</ele><time>2026-05-01T08:30:50.978Z</time></trkpt><trkpt lat="40.7414616" lon="14.8313721"><ele>608.0</ele><time>2026-05-01T08:30:56.985Z</time></trkpt><trkpt lat="40.7415665" lon="14.8313939"><ele>608.0</ele><time>2026-05-01T08:30:58.991Z</time></trkpt><trkpt lat="40.7416326" lon="14.831402"><ele>608.0</ele><time>2026-05-01T08:31:00.992Z</time></trkpt><trkpt lat="40.7416869" lon="14.8313525"><ele>608.0</ele><time>2026-05-01T08:31:02Z</time></trkpt><trkpt lat="40.7417612" lon="14.8312886"><ele>608.0</ele><time>2026-05-01T08:31:02.988Z</time></trkpt><trkpt lat="40.7418339" lon="14.831224"><ele>608.0</ele><time>2026-05-01T08:31:03.991Z</time></trkpt><trkpt lat="40.7419212" lon="14.8311552"><ele>608.0</ele><time>2026-05-01T08:31:04.979Z</time></trkpt><trkpt lat="40.742002" lon="14.8310975"><ele>608.0</ele><time>2026-05-01T08:31:05.985Z</time></trkpt><trkpt lat="40.7420788" lon="14.8310437"><ele>608.0</ele><time>2026-05-01T08:31:06.986Z</time></trkpt><trkpt lat="40.7421456" lon="14.8309807"><ele>612.5</ele><time>2026-05-01T08:31:08.986Z</time></trkpt><trkpt lat="40.7421069" lon="14.8310875"><ele>617.0</ele><time>2026-05-01T08:31:11.987Z</time></trkpt><trkpt lat="40.742078" lon="14.8311618"><ele>621.5</ele><time>2026-05-01T08:31:13.009Z</time></trkpt><trkpt lat="40.7420612" lon="14.831253"><ele>626.0</ele><time>2026-05-01T08:31:13.974Z</time></trkpt><trkpt lat="40.7420553" lon="14.8313548"><ele>630.5</ele><time>2026-05-01T08:31:14.978Z</time></trkpt><trkpt lat="40.7420578" lon="14.8314742"><ele>635.0</ele><time>2026-05-01T08:31:15.981Z</time></trkpt><trkpt lat="40.7420808" lon="14.8315798"><ele>635.0</ele><time>2026-05-01T08:31:16.986Z</time></trkpt><trkpt lat="40.7421073" lon="14.8316641"><ele>635.0</ele><time>2026-05-01T08:31:17.983Z</time></trkpt><trkpt lat="40.7421931" lon="14.8317698"><ele>635.0</ele><time>2026-05-01T08:31:19.989Z</time></trkpt><trkpt lat="40.7422804" lon="14.831825"><ele>635.0</ele><time>2026-05-01T08:31:21.989Z</time></trkpt><trkpt lat="40.7423996" lon="14.8318193"><ele>635.0</ele><time>2026-05-01T08:31:24.002Z</time></trkpt><trkpt lat="40.7424658" lon="14.8318106"><ele>635.0</ele><time>2026-05-01T08:31:24.984Z</time></trkpt><trkpt lat="40.7425623" lon="14.831777"><ele>635.0</ele><time>2026-05-01T08:31:26.989Z</time></trkpt><trkpt lat="40.7425652" lon="14.8318649"><ele>635.0</ele><time>2026-05-01T08:31:29.991Z</time></trkpt><trkpt lat="40.7425458" lon="14.8319804"><ele>635.0</ele><time>2026-05-01T08:31:31.983Z</time></trkpt><trkpt lat="40.7425938" lon="14.8321145"><ele>635.0</ele><time>2026-05-01T08:31:33.99Z</time></trkpt><trkpt lat="40.742621" lon="14.8321957"><ele>635.0</ele><time>2026-05-01T08:31:34.989Z</time></trkpt><trkpt lat="40.7426569" lon="14.8322718"><ele>636.0</ele><time>2026-05-01T08:31:35.984Z</time></trkpt><trkpt lat="40.7427166" lon="14.8323541"><ele>637.0</ele><time>2026-05-01T08:31:37.055Z</time></trkpt><trkpt lat="40.74278" lon="14.8324278"><ele>638.0</ele><time>2026-05-01T08:31:38.038Z</time></trkpt><trkpt lat="40.7428441" lon="14.8324823"><ele>639.0</ele><time>2026-05-01T08:31:38.982Z</time></trkpt><trkpt lat="40.7429011" lon="14.8325225"><ele>640.0</ele><time>2026-05-01T08:31:39.983Z</time></trkpt><trkpt lat="40.7429938" lon="14.8325145"><ele>641.0</ele><time>2026-05-01T08:31:40.984Z</time></trkpt><trkpt lat="40.7430744" lon="14.8324979"><ele>641.0</ele><time>2026-05-01T08:31:41.979Z</time></trkpt><trkpt lat="40.7431286" lon="14.8324491"><ele>641.0</ele><time>2026-05-01T08:31:42.981Z</time></trkpt><trkpt lat="40.7431693" lon="14.832576"><ele>641.0</ele><time>2026-05-01T08:31:47.985Z</time></trkpt><trkpt lat="40.7431698" lon="14.8327367"><ele>641.0</ele><time>2026-05-01T08:31:49.99Z</time></trkpt><trkpt lat="40.7432163" lon="14.832845"><ele>641.0</ele><time>2026-05-01T08:31:51.975Z</time></trkpt><trkpt lat="40.7433404" lon="14.8328962"><ele>641.1666666666666</ele><time>2026-05-01T08:31:53.985Z</time></trkpt><trkpt lat="40.7434358" lon="14.8329129"><ele>641.3333333333333</ele><time>2026-05-01T08:31:55.069Z</time></trkpt><trkpt lat="40.7435119" lon="14.832917"><ele>641.5</ele><time>2026-05-01T08:31:55.986Z</time></trkpt><trkpt lat="40.7435918" lon="14.8329018"><ele>641.6666666666666</ele><time>2026-05-01T08:31:56.977Z</time></trkpt><trkpt lat="40.7436601" lon="14.8328737"><ele>641.8333333333334</ele><time>2026-05-01T08:31:57.992Z</time></trkpt><trkpt lat="40.7437352" lon="14.832853"><ele>642.0</ele><time>2026-05-01T08:31:59.995Z</time></trkpt><trkpt lat="40.7437754" lon="14.8329655"><ele>642.0</ele><time>2026-05-01T08:32:02.984Z</time></trkpt><trkpt lat="40.7438234" lon="14.8330725"><ele>642.0</ele><time>2026-05-01T08:32:04.984Z</time></trkpt><trkpt lat="40.7438674" lon="14.8331826"><ele>642.0</ele><time>2026-05-01T08:32:06.99Z</time></trkpt><trkpt lat="40.7439543" lon="14.8333027"><ele>642.0</ele><time>2026-05-01T08:32:08.961Z</time></trkpt><trkpt lat="40.744009" lon="14.8333658"><ele>642.0</ele><time>2026-05-01T08:32:09.958Z</time></trkpt><trkpt lat="40.7440952" lon="14.833426"><ele>642.0</ele><time>2026-05-01T08:32:10.955Z</time></trkpt><trkpt lat="40.7441792" lon="14.833453"><ele>642.0</ele><time>2026-05-01T08:32:11.967Z</time></trkpt><trkpt lat="40.7442686" lon="14.8334945"><ele>642.0</ele><time>2026-05-01T08:32:12.982Z</time></trkpt><trkpt lat="40.7443449" lon="14.8335077"><ele>642.0</ele><time>2026-05-01T08:32:13.96Z</time></trkpt><trkpt lat="40.744413" lon="14.8335065"><ele>642.0</ele><time>2026-05-01T08:32:14.953Z</time></trkpt><trkpt lat="40.7445287" lon="14.8334793"><ele>642.0</ele><time>2026-05-01T08:32:16.987Z</time></trkpt><trkpt lat="40.7446127" lon="14.8334359"><ele>641.6666666666666</ele><time>2026-05-01T08:32:17.991Z</time></trkpt><trkpt lat="40.7446765" lon="14.833399"><ele>641.3333333333334</ele><time>2026-05-01T08:32:18.982Z</time></trkpt><trkpt lat="40.7447443" lon="14.8333437"><ele>641.0</ele><time>2026-05-01T08:32:20.993Z</time></trkpt><trkpt lat="40.7448251" lon="14.8333986"><ele>640.6666666666667</ele><time>2026-05-01T08:32:23.97Z</time></trkpt><trkpt lat="40.7448549" lon="14.8335058"><ele>640.3333333333334</ele><time>2026-05-01T08:32:24.965Z</time></trkpt><trkpt lat="40.7448654" lon="14.833619"><ele>640.0</ele><time>2026-05-01T08:32:25.982Z</time></trkpt><trkpt lat="40.7448745" lon="14.8337318"><ele>640.0</ele><time>2026-05-01T08:32:26.976Z</time></trkpt><trkpt lat="40.7449003" lon="14.8338276"><ele>640.0</ele><time>2026-05-01T08:32:27.978Z</time></trkpt><trkpt lat="40.744953" lon="14.8338881"><ele>640.0</ele><time>2026-05-01T08:32:28.977Z</time></trkpt><trkpt lat="40.745003" lon="14.8339492"><ele>640.0</ele><time>2026-05-01T08:32:29.996Z</time></trkpt><trkpt lat="40.7450648" lon="14.8339969"><ele>640.0</ele><time>2026-05-01T08:32:30.986Z</time></trkpt><trkpt lat="40.745159" lon="14.8340568"><ele>640.0</ele><time>2026-05-01T08:32:33.073Z</time></trkpt><trkpt lat="40.7452661" lon="14.8340767"><ele>645.0</ele><time>2026-05-01T08:32:34.998Z</time></trkpt><trkpt lat="40.7453291" lon="14.8340735"><ele>650.0</ele><time>2026-05-01T08:32:35.988Z</time></trkpt><trkpt lat="40.7454022" lon="14.8340635"><ele>655.0</ele><time>2026-05-01T08:32:36.975Z</time></trkpt><trkpt lat="40.7455094" lon="14.8340196"><ele>660.0</ele><time>2026-05-01T08:32:37.991Z</time></trkpt><trkpt lat="40.745602" lon="14.8339674"><ele>665.0</ele><time>2026-05-01T08:32:38.994Z</time></trkpt><trkpt lat="40.7456753" lon="14.8339062"><ele>670.0</ele><time>2026-05-01T08:32:39.988Z</time></trkpt><trkpt lat="40.7457171" lon="14.8338415"><ele>670.0</ele><time>2026-05-01T08:32:42.048Z</time></trkpt><trkpt lat="40.7457713" lon="14.8339221"><ele>670.0</ele><time>2026-05-01T08:32:45.99Z</time></trkpt><trkpt lat="40.7457803" lon="14.8340233"><ele>670.0</ele><time>2026-05-01T08:32:48.042Z</time></trkpt><trkpt lat="40.7457976" lon="14.8341512"><ele>670.0</ele><time>2026-05-01T08:32:49.998Z</time></trkpt><trkpt lat="40.7458932" lon="14.8342466"><ele>670.0</ele><time>2026-05-01T08:32:51.985Z</time></trkpt><trkpt lat="40.7459805" lon="14.8343073"><ele>670.1666666666667</ele><time>2026-05-01T08:32:52.989Z</time></trkpt><trkpt lat="40.7460728" lon="14.8343355"><ele>670.3333333333334</ele><time>2026-05-01T08:32:53.991Z</time></trkpt><trkpt lat="40.746166" lon="14.8343564"><ele>670.5</ele><time>2026-05-01T08:32:55.012Z</time></trkpt><trkpt lat="40.7462382" lon="14.8343615"><ele>670.6666666666666</ele><time>2026-05-01T08:32:55.995Z</time></trkpt><trkpt lat="40.7463051" lon="14.8344025"><ele>670.8333333333333</ele><time>2026-05-01T08:32:56.988Z</time></trkpt><trkpt lat="40.7463573" lon="14.8344726"><ele>671.0</ele><time>2026-05-01T08:32:57.99Z</time></trkpt><trkpt lat="40.7464025" lon="14.8345481"><ele>671.0</ele><time>2026-05-01T08:32:58.985Z</time></trkpt><trkpt lat="40.7464483" lon="14.8346439"><ele>671.0</ele><time>2026-05-01T08:33:00.082Z</time></trkpt><trkpt lat="40.7465002" lon="14.8347268"><ele>671.0</ele><time>2026-05-01T08:33:01.039Z</time></trkpt><trkpt lat="40.7466209" lon="14.8348338"><ele>671.0</ele><time>2026-05-01T08:33:02.993Z</time></trkpt><trkpt lat="40.746684" lon="14.8348847"><ele>671.0</ele><time>2026-05-01T08:33:03.986Z</time></trkpt><trkpt lat="40.7467526" lon="14.8349355"><ele>671.0</ele><time>2026-05-01T08:33:04.99Z</time></trkpt><trkpt lat="40.7468231" lon="14.834975"><ele>671.0</ele><time>2026-05-01T08:33:05.984Z</time></trkpt><trkpt lat="40.7469629" lon="14.8349848"><ele>671.0</ele><time>2026-05-01T08:33:08.007Z</time></trkpt><trkpt lat="40.7470455" lon="14.8349737"><ele>671.0</ele><time>2026-05-01T08:33:08.992Z</time></trkpt><trkpt lat="40.7471359" lon="14.8349438"><ele>671.0</ele><time>2026-05-01T08:33:09.988Z</time></trkpt><trkpt lat="40.7472444" lon="14.8349057"><ele>671.3333333333333</ele><time>2026-05-01T08:33:10.982Z</time></trkpt><trkpt lat="40.7473351" lon="14.8348606"><ele>671.6666666666666</ele><time>2026-05-01T08:33:12.068Z</time></trkpt><trkpt lat="40.7474127" lon="14.8348158"><ele>672.0</ele><time>2026-05-01T08:33:13.043Z</time></trkpt><trkpt lat="40.7474696" lon="14.834763"><ele>672.3333333333334</ele><time>2026-05-01T08:33:13.99Z</time></trkpt><trkpt lat="40.7475138" lon="14.8346976"><ele>672.6666666666667</ele><time>2026-05-01T08:33:14.985Z</time></trkpt><trkpt lat="40.7475513" lon="14.8346185"><ele>673.0</ele><time>2026-05-01T08:33:15.965Z</time></trkpt><trkpt lat="40.7475807" lon="14.8345372"><ele>673.0</ele><time>2026-05-01T08:33:16.984Z</time></trkpt><trkpt lat="40.7476045" lon="14.8344414"><ele>673.0</ele><time>2026-05-01T08:33:17.986Z</time></trkpt><trkpt lat="40.7476249" lon="14.8343343"><ele>673.0</ele><time>2026-05-01T08:33:18.981Z</time></trkpt><trkpt lat="40.7476377" lon="14.8342142"><ele>673.0</ele><time>2026-05-01T08:33:19.973Z</time></trkpt><trkpt lat="40.7476445" lon="14.834087"><ele>673.0</ele><time>2026-05-01T08:33:20.999Z</time></trkpt><trkpt lat="40.7476534" lon="14.8339571"><ele>673.0</ele><time>2026-05-01T08:33:21.989Z</time></trkpt><trkpt lat="40.7476583" lon="14.8338229"><ele>677.6666666666667</ele><time>2026-05-01T08:33:23.061Z</time></trkpt><trkpt lat="40.7476511" lon="14.8337021"><ele>682.3333333333334</ele><time>2026-05-01T08:33:23.984Z</time></trkpt><trkpt lat="40.7476486" lon="14.8335859"><ele>687.0</ele><time>2026-05-01T08:33:24.972Z</time></trkpt><trkpt lat="40.7476532" lon="14.8334953"><ele>691.6666666666666</ele><time>2026-05-01T08:33:25.991Z</time></trkpt><trkpt lat="40.747656" lon="14.8333996"><ele>696.3333333333333</ele><time>2026-05-01T08:33:26.987Z</time></trkpt><trkpt lat="40.7476565" lon="14.8332921"><ele>701.0</ele><time>2026-05-01T08:33:27.99Z</time></trkpt><trkpt lat="40.7476673" lon="14.8331696"><ele>704.4</ele><time>2026-05-01T08:33:28.982Z</time></trkpt><trkpt lat="40.7476729" lon="14.8330498"><ele>707.8</ele><time>2026-05-01T08:33:29.982Z</time></trkpt><trkpt lat="40.7476862" lon="14.8329232"><ele>711.1999999999999</ele><time>2026-05-01T08:33:31.054Z</time></trkpt><trkpt lat="40.7476887" lon="14.8327967"><ele>714.5999999999999</ele><time>2026-05-01T08:33:31.981Z</time></trkpt><trkpt lat="40.7476837" lon="14.8326839"><ele>718.0</ele><time>2026-05-01T08:33:32.992Z</time></trkpt><trkpt lat="40.7476757" lon="14.8325606"><ele>720.8</ele><time>2026-05-01T08:33:33.985Z</time></trkpt><trkpt lat="40.7476695" lon="14.8324234"><ele>723.5999999999999</ele><time>2026-05-01T08:33:34.984Z</time></trkpt><trkpt lat="40.7476731" lon="14.8322817"><ele>726.4000000000001</ele><time>2026-05-01T08:33:35.985Z</time></trkpt><trkpt lat="40.7476915" lon="14.8321538"><ele>729.2</ele><time>2026-05-01T08:33:36.994Z</time></trkpt><trkpt lat="40.7476998" lon="14.8320426"><ele>732.0</ele><time>2026-05-01T08:33:38.056Z</time></trkpt><trkpt lat="40.7476838" lon="14.8319252"><ele>732.0</ele><time>2026-05-01T08:33:38.986Z</time></trkpt><trkpt lat="40.7476722" lon="14.8318104"><ele>732.0</ele><time>2026-05-01T08:33:40.033Z</time></trkpt><trkpt lat="40.747668" lon="14.8317169"><ele>732.0</ele><time>2026-05-01T08:33:40.972Z</time></trkpt><trkpt lat="40.7477065" lon="14.8316434"><ele>732.0</ele><time>2026-05-01T08:33:43.971Z</time></trkpt><trkpt lat="40.7477767" lon="14.8316438"><ele>732.0</ele><time>2026-05-01T08:33:48.958Z</time></trkpt><trkpt lat="40.7478796" lon="14.8317265"><ele>732.0</ele><time>2026-05-01T08:33:50.974Z</time></trkpt><trkpt lat="40.7479937" lon="14.8317779"><ele>728.8</ele><time>2026-05-01T08:33:51.978Z</time></trkpt><trkpt lat="40.7481018" lon="14.8318324"><ele>725.6</ele><time>2026-05-01T08:33:53.039Z</time></trkpt><trkpt lat="40.7482061" lon="14.8318634"><ele>722.4</ele><time>2026-05-01T08:33:53.975Z</time></trkpt><trkpt lat="40.7483224" lon="14.8318766"><ele>719.1999999999999</ele><time>2026-05-01T08:33:54.983Z</time></trkpt><trkpt lat="40.748414" lon="14.8319017"><ele>716.0</ele><time>2026-05-01T08:33:55.955Z</time></trkpt><trkpt lat="40.7485136" lon="14.8319262"><ele>719.6666666666666</ele><time>2026-05-01T08:33:56.974Z</time></trkpt><trkpt lat="40.7486088" lon="14.831943"><ele>723.3333333333333</ele><time>2026-05-01T08:33:57.976Z</time></trkpt><trkpt lat="40.7487101" lon="14.8319674"><ele>727.0</ele><time>2026-05-01T08:33:58.975Z</time></trkpt><trkpt lat="40.7488034" lon="14.831972"><ele>730.6666666666666</ele><time>2026-05-01T08:33:59.972Z</time></trkpt><trkpt lat="40.748867" lon="14.8320009"><ele>734.3333333333334</ele><time>2026-05-01T08:34:00.978Z</time></trkpt><trkpt lat="40.7489319" lon="14.8320575"><ele>738.0</ele><time>2026-05-01T08:34:01.981Z</time></trkpt><trkpt lat="40.7490035" lon="14.8321069"><ele>738.0</ele><time>2026-05-01T08:34:02.981Z</time></trkpt><trkpt lat="40.7490715" lon="14.8321496"><ele>738.0</ele><time>2026-05-01T08:34:03.96Z</time></trkpt><trkpt lat="40.7491544" lon="14.8321964"><ele>738.0</ele><time>2026-05-01T08:34:04.973Z</time></trkpt><trkpt lat="40.7492207" lon="14.8322431"><ele>738.0</ele><time>2026-05-01T08:34:05.97Z</time></trkpt><trkpt lat="40.7493186" lon="14.8323327"><ele>738.0</ele><time>2026-05-01T08:34:07.981Z</time></trkpt><trkpt lat="40.7493929" lon="14.8323605"><ele>738.0</ele><time>2026-05-01T08:34:10.023Z</time></trkpt><trkpt lat="40.7493947" lon="14.8322609"><ele>738.0</ele><time>2026-05-01T08:34:12.982Z</time></trkpt><trkpt lat="40.7493562" lon="14.8321261"><ele>738.0</ele><time>2026-05-01T08:34:14.964Z</time></trkpt><trkpt lat="40.7492929" lon="14.8320028"><ele>738.0</ele><time>2026-05-01T08:34:16.023Z</time></trkpt><trkpt lat="40.7492386" lon="14.8319006"><ele>738.0</ele><time>2026-05-01T08:34:17.026Z</time></trkpt><trkpt lat="40.7491945" lon="14.8318217"><ele>738.0</ele><time>2026-05-01T08:34:17.978Z</time></trkpt><trkpt lat="40.7491469" lon="14.8317062"><ele>741.4</ele><time>2026-05-01T08:34:19.977Z</time></trkpt><trkpt lat="40.7490967" lon="14.8316473"><ele>744.8</ele><time>2026-05-01T08:34:20.981Z</time></trkpt><trkpt lat="40.7490055" lon="14.8315766"><ele>748.2</ele><time>2026-05-01T08:34:21.975Z</time></trkpt><trkpt lat="40.7488873" lon="14.831518"><ele>751.6</ele><time>2026-05-01T08:34:22.979Z</time></trkpt><trkpt lat="40.7487893" lon="14.8314964"><ele>755.0</ele><time>2026-05-01T08:34:23.978Z</time></trkpt><trkpt lat="40.7486847" lon="14.8314911"><ele>755.0</ele><time>2026-05-01T08:34:24.983Z</time></trkpt><trkpt lat="40.7485579" lon="14.8314472"><ele>755.0</ele><time>2026-05-01T08:34:26.06Z</time></trkpt><trkpt lat="40.7484458" lon="14.8313843"><ele>755.0</ele><time>2026-05-01T08:34:26.973Z</time></trkpt><trkpt lat="40.7483421" lon="14.8313074"><ele>755.0</ele><time>2026-05-01T08:34:27.983Z</time></trkpt><trkpt lat="40.7482489" lon="14.8312356"><ele>752.8</ele><time>2026-05-01T08:34:28.982Z</time></trkpt><trkpt lat="40.7481611" lon="14.8311418"><ele>750.6</ele><time>2026-05-01T08:34:29.981Z</time></trkpt><trkpt lat="40.7480673" lon="14.8310518"><ele>748.4000000000001</ele><time>2026-05-01T08:34:30.985Z</time></trkpt><trkpt lat="40.7479657" lon="14.8309727"><ele>746.2</ele><time>2026-05-01T08:34:32.021Z</time></trkpt><trkpt lat="40.7478741" lon="14.830916"><ele>744.0</ele><time>2026-05-01T08:34:33.033Z</time></trkpt><trkpt lat="40.7477876" lon="14.8308646"><ele>745.1666666666666</ele><time>2026-05-01T08:34:33.956Z</time></trkpt><trkpt lat="40.7477242" lon="14.830837"><ele>746.3333333333334</ele><time>2026-05-01T08:34:34.972Z</time></trkpt><trkpt lat="40.7476348" lon="14.8308837"><ele>747.5</ele><time>2026-05-01T08:34:40.057Z</time></trkpt><trkpt lat="40.747597" lon="14.8309914"><ele>748.6666666666667</ele><time>2026-05-01T08:34:41.974Z</time></trkpt><trkpt lat="40.747556" lon="14.8310753"><ele>749.8333333333334</ele><time>2026-05-01T08:34:42.96Z</time></trkpt><trkpt lat="40.7474994" lon="14.8312126"><ele>751.0</ele><time>2026-05-01T08:34:43.972Z</time></trkpt><trkpt lat="40.7474078" lon="14.8313828"><ele>751.0</ele><time>2026-05-01T08:34:44.969Z</time></trkpt><trkpt lat="40.7473407" lon="14.8315208"><ele>751.0</ele><time>2026-05-01T08:34:45.97Z</time></trkpt><trkpt lat="40.7472526" lon="14.8317129"><ele>751.0</ele><time>2026-05-01T08:34:47.026Z</time></trkpt><trkpt lat="40.7471807" lon="14.8318642"><ele>751.0</ele><time>2026-05-01T08:34:48.015Z</time></trkpt><trkpt lat="40.7471157" lon="14.8319778"><ele>751.1999999999999</ele><time>2026-05-01T08:34:48.976Z</time></trkpt><trkpt lat="40.747071" lon="14.8320834"><ele>751.4</ele><time>2026-05-01T08:34:49.973Z</time></trkpt><trkpt lat="40.7470152" lon="14.8321552"><ele>751.6</ele><time>2026-05-01T08:34:50.971Z</time></trkpt><trkpt lat="40.7469368" lon="14.8321627"><ele>751.8</ele><time>2026-05-01T08:34:51.981Z</time></trkpt><trkpt lat="40.7468424" lon="14.8321451"><ele>752.0</ele><time>2026-05-01T08:34:52.973Z</time></trkpt><trkpt lat="40.7466979" lon="14.8320832"><ele>752.0</ele><time>2026-05-01T08:34:53.985Z</time></trkpt><trkpt lat="40.7465703" lon="14.8320157"><ele>752.0</ele><time>2026-05-01T08:34:54.975Z</time></trkpt><trkpt lat="40.7464359" lon="14.8319772"><ele>752.0</ele><time>2026-05-01T08:34:56.017Z</time></trkpt><trkpt lat="40.7463033" lon="14.8319549"><ele>752.0</ele><time>2026-05-01T08:34:57.041Z</time></trkpt><trkpt lat="40.7461864" lon="14.8319417"><ele>752.0</ele><time>2026-05-01T08:34:57.975Z</time></trkpt><trkpt lat="40.7460874" lon="14.8319189"><ele>752.0</ele><time>2026-05-01T08:34:58.978Z</time></trkpt><trkpt lat="40.7460006" lon="14.8318891"><ele>752.0</ele><time>2026-05-01T08:34:59.972Z</time></trkpt><trkpt lat="40.7459083" lon="14.8318476"><ele>752.0</ele><time>2026-05-01T08:35:00.964Z</time></trkpt><trkpt lat="40.7458294" lon="14.8317566"><ele>752.0</ele><time>2026-05-01T08:35:01.97Z</time></trkpt><trkpt lat="40.7457712" lon="14.8316179"><ele>755.0</ele><time>2026-05-01T08:35:02.972Z</time></trkpt><trkpt lat="40.7457222" lon="14.8315024"><ele>758.0</ele><time>2026-05-01T08:35:03.951Z</time></trkpt><trkpt lat="40.7457195" lon="14.8313667"><ele>761.0</ele><time>2026-05-01T08:35:05.968Z</time></trkpt><trkpt lat="40.7456744" lon="14.8312749"><ele>764.0</ele><time>2026-05-01T08:35:07.981Z</time></trkpt><trkpt lat="40.7455605" lon="14.8312043"><ele>767.0</ele><time>2026-05-01T08:35:09.972Z</time></trkpt><trkpt lat="40.7454939" lon="14.8311636"><ele>767.0</ele><time>2026-05-01T08:35:10.969Z</time></trkpt><trkpt lat="40.7454141" lon="14.8311338"><ele>767.0</ele><time>2026-05-01T08:35:11.97Z</time></trkpt><trkpt lat="40.7453288" lon="14.8311053"><ele>767.0</ele><time>2026-05-01T08:35:12.981Z</time></trkpt><trkpt lat="40.7452277" lon="14.8310525"><ele>767.0</ele><time>2026-05-01T08:35:13.967Z</time></trkpt><trkpt lat="40.7450965" lon="14.8309452"><ele>767.0</ele><time>2026-05-01T08:35:14.968Z</time></trkpt><trkpt lat="40.7449764" lon="14.8308301"><ele>769.0</ele><time>2026-05-01T08:35:15.964Z</time></trkpt><trkpt lat="40.7448561" lon="14.8306852"><ele>771.0</ele><time>2026-05-01T08:35:16.976Z</time></trkpt><trkpt lat="40.7447513" lon="14.830563"><ele>773.0</ele><time>2026-05-01T08:35:17.968Z</time></trkpt><trkpt lat="40.7446545" lon="14.8304662"><ele>775.0</ele><time>2026-05-01T08:35:18.959Z</time></trkpt><trkpt lat="40.7445574" lon="14.8303687"><ele>775.0</ele><time>2026-05-01T08:35:19.968Z</time></trkpt><trkpt lat="40.7444629" lon="14.830272"><ele>775.0</ele><time>2026-05-01T08:35:20.971Z</time></trkpt><trkpt lat="40.7443757" lon="14.8301947"><ele>775.0</ele><time>2026-05-01T08:35:21.968Z</time></trkpt><trkpt lat="40.7442945" lon="14.8301159"><ele>775.0</ele><time>2026-05-01T08:35:22.981Z</time></trkpt><trkpt lat="40.7442135" lon="14.8300087"><ele>775.0</ele><time>2026-05-01T08:35:23.974Z</time></trkpt><trkpt lat="40.7441407" lon="14.8298869"><ele>773.5</ele><time>2026-05-01T08:35:24.984Z</time></trkpt><trkpt lat="40.7440788" lon="14.8297445"><ele>772.0</ele><time>2026-05-01T08:35:25.979Z</time></trkpt><trkpt lat="40.7440285" lon="14.829585"><ele>770.5</ele><time>2026-05-01T08:35:26.97Z</time></trkpt><trkpt lat="40.7439624" lon="14.8294196"><ele>769.0</ele><time>2026-05-01T08:35:28.049Z</time></trkpt><trkpt lat="40.743889" lon="14.8292468"><ele>769.0</ele><time>2026-05-01T08:35:28.972Z</time></trkpt><trkpt lat="40.743825" lon="14.8290939"><ele>769.0</ele><time>2026-05-01T08:35:29.987Z</time></trkpt><trkpt lat="40.7437778" lon="14.8289939"><ele>769.0</ele><time>2026-05-01T08:35:30.988Z</time></trkpt><trkpt lat="40.7437726" lon="14.8288802"><ele>769.0</ele><time>2026-05-01T08:35:32.984Z</time></trkpt><trkpt lat="40.7438277" lon="14.8288373"><ele>769.0</ele><time>2026-05-01T08:35:34.964Z</time></trkpt><trkpt lat="40.7439453" lon="14.8288734"><ele>769.0</ele><time>2026-05-01T08:35:37.029Z</time></trkpt><trkpt lat="40.7440254" lon="14.8288788"><ele>769.0</ele><time>2026-05-01T08:35:38.027Z</time></trkpt><trkpt lat="40.7441108" lon="14.828869"><ele>769.0</ele><time>2026-05-01T08:35:38.985Z</time></trkpt><trkpt lat="40.7441986" lon="14.8288499"><ele>769.0</ele><time>2026-05-01T08:35:39.986Z</time></trkpt><trkpt lat="40.7442974" lon="14.8288305"><ele>769.0</ele><time>2026-05-01T08:35:40.98Z</time></trkpt><trkpt lat="40.7443994" lon="14.8288214"><ele>770.2</ele><time>2026-05-01T08:35:41.987Z</time></trkpt><trkpt lat="40.7445182" lon="14.8288063"><ele>771.4000000000001</ele><time>2026-05-01T08:35:42.978Z</time></trkpt><trkpt lat="40.7446303" lon="14.8287915"><ele>772.6</ele><time>2026-05-01T08:35:43.986Z</time></trkpt><trkpt lat="40.7447344" lon="14.8287893"><ele>773.8</ele><time>2026-05-01T08:35:44.977Z</time></trkpt><trkpt lat="40.744841" lon="14.8287957"><ele>775.0</ele><time>2026-05-01T08:35:45.979Z</time></trkpt><trkpt lat="40.7449531" lon="14.8288228"><ele>775.0</ele><time>2026-05-01T08:35:47.046Z</time></trkpt><trkpt lat="40.7450523" lon="14.8288508"><ele>775.0</ele><time>2026-05-01T08:35:48.04Z</time></trkpt><trkpt lat="40.7451636" lon="14.828865"><ele>775.0</ele><time>2026-05-01T08:35:48.979Z</time></trkpt><trkpt lat="40.7452621" lon="14.8288594"><ele>775.0</ele><time>2026-05-01T08:35:49.988Z</time></trkpt><trkpt lat="40.7453253" lon="14.8288379"><ele>775.0</ele><time>2026-05-01T08:35:50.979Z</time></trkpt><trkpt lat="40.7453978" lon="14.8288359"><ele>777.1666666666666</ele><time>2026-05-01T08:35:52.981Z</time></trkpt><trkpt lat="40.7454224" lon="14.8287084"><ele>779.3333333333333</ele><time>2026-05-01T08:35:56.039Z</time></trkpt><trkpt lat="40.745431" lon="14.8286205"><ele>781.5</ele><time>2026-05-01T08:35:57.055Z</time></trkpt><trkpt lat="40.7454445" lon="14.8285349"><ele>783.6666666666667</ele><time>2026-05-01T08:35:58.064Z</time></trkpt><trkpt lat="40.745493" lon="14.8284576"><ele>785.8333333333334</ele><time>2026-05-01T08:35:58.973Z</time></trkpt><trkpt lat="40.7455721" lon="14.828376"><ele>788.0</ele><time>2026-05-01T08:35:59.98Z</time></trkpt><trkpt lat="40.7456375" lon="14.8283183"><ele>781.5</ele><time>2026-05-01T08:36:00.986Z</time></trkpt><trkpt lat="40.7457316" lon="14.8282419"><ele>775.0</ele><time>2026-05-01T08:36:02.975Z</time></trkpt><trkpt lat="40.7458378" lon="14.8280793"><ele>768.5</ele><time>2026-05-01T08:36:04.973Z</time></trkpt><trkpt lat="40.7458703" lon="14.8279771"><ele>762.0</ele><time>2026-05-01T08:36:05.988Z</time></trkpt><trkpt lat="40.7459152" lon="14.8278626"><ele>762.0</ele><time>2026-05-01T08:36:07.982Z</time></trkpt><trkpt lat="40.7459562" lon="14.8277987"><ele>762.0</ele><time>2026-05-01T08:36:08.975Z</time></trkpt><trkpt lat="40.746021" lon="14.8276992"><ele>762.0</ele><time>2026-05-01T08:36:09.975Z</time></trkpt><trkpt lat="40.7460814" lon="14.8276011"><ele>762.0</ele><time>2026-05-01T08:36:10.98Z</time></trkpt><trkpt lat="40.7461452" lon="14.8274657"><ele>762.0</ele><time>2026-05-01T08:36:11.975Z</time></trkpt><trkpt lat="40.7461995" lon="14.8273241"><ele>756.4000000000001</ele><time>2026-05-01T08:36:12.98Z</time></trkpt><trkpt lat="40.7462298" lon="14.8271728"><ele>750.8000000000001</ele><time>2026-05-01T08:36:13.96Z</time></trkpt><trkpt lat="40.746253" lon="14.8270203"><ele>745.2</ele><time>2026-05-01T08:36:15.065Z</time></trkpt><trkpt lat="40.7462644" lon="14.8268961"><ele>739.6</ele><time>2026-05-01T08:36:16.041Z</time></trkpt><trkpt lat="40.7462749" lon="14.8267999"><ele>734.0</ele><time>2026-05-01T08:36:16.953Z</time></trkpt><trkpt lat="40.7462896" lon="14.8267148"><ele>734.0</ele><time>2026-05-01T08:36:17.971Z</time></trkpt><trkpt lat="40.7461997" lon="14.826775"><ele>734.0</ele><time>2026-05-01T08:36:23.958Z</time></trkpt><trkpt lat="40.7461573" lon="14.8268441"><ele>734.0</ele><time>2026-05-01T08:36:24.978Z</time></trkpt><trkpt lat="40.7461133" lon="14.826911"><ele>734.0</ele><time>2026-05-01T08:36:26.077Z</time></trkpt><trkpt lat="40.746052" lon="14.8269681"><ele>734.0</ele><time>2026-05-01T08:36:27.022Z</time></trkpt><trkpt lat="40.7459914" lon="14.8269989"><ele>734.0</ele><time>2026-05-01T08:36:27.978Z</time></trkpt><trkpt lat="40.745933" lon="14.8270326"><ele>734.0</ele><time>2026-05-01T08:36:28.976Z</time></trkpt><trkpt lat="40.7458122" lon="14.8271096"><ele>734.1666666666666</ele><time>2026-05-01T08:36:30.955Z</time></trkpt><trkpt lat="40.7457534" lon="14.8271639"><ele>734.3333333333333</ele><time>2026-05-01T08:36:31.974Z</time></trkpt><trkpt lat="40.7456909" lon="14.8272247"><ele>734.5</ele><time>2026-05-01T08:36:32.976Z</time></trkpt><trkpt lat="40.7456405" lon="14.8272878"><ele>734.6666666666666</ele><time>2026-05-01T08:36:33.977Z</time></trkpt><trkpt lat="40.7455861" lon="14.8273928"><ele>734.8333333333334</ele><time>2026-05-01T08:36:36.016Z</time></trkpt><trkpt lat="40.7455039" lon="14.8274025"><ele>735.0</ele><time>2026-05-01T08:36:38.978Z</time></trkpt><trkpt lat="40.7454088" lon="14.8273826"><ele>735.0</ele><time>2026-05-01T08:36:40.981Z</time></trkpt><trkpt lat="40.7452826" lon="14.8273951"><ele>735.0</ele><time>2026-05-01T08:36:43.044Z</time></trkpt><trkpt lat="40.745207" lon="14.8274148"><ele>735.0</ele><time>2026-05-01T08:36:43.963Z</time></trkpt><trkpt lat="40.7451508" lon="14.8274545"><ele>735.0</ele><time>2026-05-01T08:36:44.985Z</time></trkpt><trkpt lat="40.7450739" lon="14.8275359"><ele>735.0</ele><time>2026-05-01T08:36:45.954Z</time></trkpt><trkpt lat="40.7450139" lon="14.8276084"><ele>735.0</ele><time>2026-05-01T08:36:46.974Z</time></trkpt><trkpt lat="40.744965" lon="14.8277212"><ele>734.8333333333334</ele><time>2026-05-01T08:36:48.967Z</time></trkpt><trkpt lat="40.7449129" lon="14.827793"><ele>734.6666666666666</ele><time>2026-05-01T08:36:50.966Z</time></trkpt><trkpt lat="40.7448256" lon="14.8278014"><ele>734.5</ele><time>2026-05-01T08:36:52.977Z</time></trkpt><trkpt lat="40.7447554" lon="14.8277855"><ele>734.3333333333333</ele><time>2026-05-01T08:36:53.972Z</time></trkpt><trkpt lat="40.744652" lon="14.8277645"><ele>734.1666666666666</ele><time>2026-05-01T08:36:54.974Z</time></trkpt><trkpt lat="40.7445483" lon="14.8277381"><ele>734.0</ele><time>2026-05-01T08:36:55.973Z</time></trkpt><trkpt lat="40.7444303" lon="14.8277018"><ele>735.0</ele><time>2026-05-01T08:36:56.962Z</time></trkpt><trkpt lat="40.7443086" lon="14.8276648"><ele>736.0</ele><time>2026-05-01T08:36:57.958Z</time></trkpt><trkpt lat="40.7442029" lon="14.8276162"><ele>737.0</ele><time>2026-05-01T08:36:58.973Z</time></trkpt><trkpt lat="40.744108" lon="14.8275715"><ele>738.0</ele><time>2026-05-01T08:36:59.972Z</time></trkpt><trkpt lat="40.7440162" lon="14.8275242"><ele>739.0</ele><time>2026-05-01T08:37:00.967Z</time></trkpt><trkpt lat="40.7439133" lon="14.8274953"><ele>732.8000000000001</ele><time>2026-05-01T08:37:02.042Z</time></trkpt><trkpt lat="40.7437963" lon="14.8274795"><ele>726.6</ele><time>2026-05-01T08:37:03.039Z</time></trkpt><trkpt lat="40.7436815" lon="14.827461"><ele>720.4</ele><time>2026-05-01T08:37:03.967Z</time></trkpt><trkpt lat="40.7435793" lon="14.8274414"><ele>714.2</ele><time>2026-05-01T08:37:04.97Z</time></trkpt><trkpt lat="40.7434682" lon="14.8274232"><ele>708.0</ele><time>2026-05-01T08:37:05.964Z</time></trkpt><trkpt lat="40.7433529" lon="14.8273899"><ele>708.0</ele><time>2026-05-01T08:37:06.969Z</time></trkpt><trkpt lat="40.743223" lon="14.8273727"><ele>708.0</ele><time>2026-05-01T08:37:07.968Z</time></trkpt><trkpt lat="40.7430977" lon="14.8273607"><ele>708.0</ele><time>2026-05-01T08:37:08.957Z</time></trkpt><trkpt lat="40.7429991" lon="14.8273493"><ele>708.0</ele><time>2026-05-01T08:37:09.967Z</time></trkpt><trkpt lat="40.7428989" lon="14.8273623"><ele>708.0</ele><time>2026-05-01T08:37:10.977Z</time></trkpt><trkpt lat="40.7428137" lon="14.8273962"><ele>708.0</ele><time>2026-05-01T08:37:11.952Z</time></trkpt><trkpt lat="40.7427373" lon="14.827429"><ele>708.0</ele><time>2026-05-01T08:37:12.963Z</time></trkpt><trkpt lat="40.7426667" lon="14.8274588"><ele>708.0</ele><time>2026-05-01T08:37:13.964Z</time></trkpt><trkpt lat="40.7425506" lon="14.8274584"><ele>708.0</ele><time>2026-05-01T08:37:15.973Z</time></trkpt><trkpt lat="40.7424724" lon="14.8274415"><ele>708.0</ele><time>2026-05-01T08:37:16.965Z</time></trkpt><trkpt lat="40.742388" lon="14.8274406"><ele>706.4</ele><time>2026-05-01T08:37:18.041Z</time></trkpt><trkpt lat="40.7422932" lon="14.8274686"><ele>704.8</ele><time>2026-05-01T08:37:18.967Z</time></trkpt><trkpt lat="40.7422043" lon="14.8275124"><ele>703.2</ele><time>2026-05-01T08:37:19.946Z</time></trkpt><trkpt lat="40.7421157" lon="14.8275443"><ele>701.6</ele><time>2026-05-01T08:37:20.977Z</time></trkpt><trkpt lat="40.7420323" lon="14.8275675"><ele>700.0</ele><time>2026-05-01T08:37:21.971Z</time></trkpt><trkpt lat="40.7419458" lon="14.8275886"><ele>698.8</ele><time>2026-05-01T08:37:22.976Z</time></trkpt><trkpt lat="40.7418605" lon="14.8276174"><ele>697.6</ele><time>2026-05-01T08:37:23.973Z</time></trkpt><trkpt lat="40.7417785" lon="14.8276421"><ele>696.4000000000001</ele><time>2026-05-01T08:37:24.974Z</time></trkpt><trkpt lat="40.7416816" lon="14.8276571"><ele>695.2</ele><time>2026-05-01T08:37:26.051Z</time></trkpt><trkpt lat="40.7415899" lon="14.8276708"><ele>694.0</ele><time>2026-05-01T08:37:26.971Z</time></trkpt><trkpt lat="40.7415" lon="14.8276668"><ele>691.8000000000001</ele><time>2026-05-01T08:37:27.985Z</time></trkpt><trkpt lat="40.7414134" lon="14.8276325"><ele>689.6</ele><time>2026-05-01T08:37:28.977Z</time></trkpt><trkpt lat="40.741307" lon="14.827587"><ele>687.4</ele><time>2026-05-01T08:37:29.982Z</time></trkpt><trkpt lat="40.7411917" lon="14.8275575"><ele>685.2</ele><time>2026-05-01T08:37:30.98Z</time></trkpt><trkpt lat="40.7410744" lon="14.8275213"><ele>683.0</ele><time>2026-05-01T08:37:31.978Z</time></trkpt><trkpt lat="40.7409684" lon="14.827474"><ele>681.8</ele><time>2026-05-01T08:37:32.994Z</time></trkpt><trkpt lat="40.740875" lon="14.8274093"><ele>680.5999999999999</ele><time>2026-05-01T08:37:33.998Z</time></trkpt><trkpt lat="40.7408004" lon="14.8273484"><ele>679.4000000000001</ele><time>2026-05-01T08:37:34.979Z</time></trkpt><trkpt lat="40.74074" lon="14.8272839"><ele>678.2</ele><time>2026-05-01T08:37:35.971Z</time></trkpt><trkpt lat="40.7406684" lon="14.8272244"><ele>677.0</ele><time>2026-05-01T08:37:36.967Z</time></trkpt><trkpt lat="40.7405781" lon="14.827167"><ele>677.0</ele><time>2026-05-01T08:37:37.968Z</time></trkpt><trkpt lat="40.7404838" lon="14.827126"><ele>677.0</ele><time>2026-05-01T08:37:38.984Z</time></trkpt><trkpt lat="40.7403971" lon="14.8270909"><ele>677.0</ele><time>2026-05-01T08:37:39.977Z</time></trkpt><trkpt lat="40.7403212" lon="14.8270405"><ele>677.0</ele><time>2026-05-01T08:37:41.038Z</time></trkpt><trkpt lat="40.7402522" lon="14.8269858"><ele>677.0</ele><time>2026-05-01T08:37:42.05Z</time></trkpt><trkpt lat="40.7401734" lon="14.8269006"><ele>671.8</ele><time>2026-05-01T08:37:43.974Z</time></trkpt><trkpt lat="40.7401181" lon="14.8269762"><ele>666.6</ele><time>2026-05-01T08:37:46.974Z</time></trkpt><trkpt lat="40.7401069" lon="14.8271242"><ele>661.4</ele><time>2026-05-01T08:37:48.97Z</time></trkpt><trkpt lat="40.7401111" lon="14.8272389"><ele>656.1999999999999</ele><time>2026-05-01T08:37:50.954Z</time></trkpt><trkpt lat="40.7401268" lon="14.8273891"><ele>651.0</ele><time>2026-05-01T08:37:52.974Z</time></trkpt><trkpt lat="40.7401513" lon="14.8274793"><ele>651.0</ele><time>2026-05-01T08:37:53.98Z</time></trkpt><trkpt lat="40.7401818" lon="14.8275901"><ele>651.0</ele><time>2026-05-01T08:37:54.984Z</time></trkpt><trkpt lat="40.740205" lon="14.827715"><ele>651.0</ele><time>2026-05-01T08:37:55.964Z</time></trkpt><trkpt lat="40.7402161" lon="14.8278299"><ele>651.0</ele><time>2026-05-01T08:37:56.996Z</time></trkpt><trkpt lat="40.74022" lon="14.827918"><ele>651.0</ele><time>2026-05-01T08:37:57.972Z</time></trkpt><trkpt lat="40.740264" lon="14.8280477"><ele>651.0</ele><time>2026-05-01T08:37:59.976Z</time></trkpt><trkpt lat="40.7403788" lon="14.8281191"><ele>653.5999999999999</ele><time>2026-05-01T08:38:01.983Z</time></trkpt><trkpt lat="40.740465" lon="14.8281394"><ele>656.2</ele><time>2026-05-01T08:38:02.971Z</time></trkpt><trkpt lat="40.7405614" lon="14.8281637"><ele>658.8</ele><time>2026-05-01T08:38:03.976Z</time></trkpt><trkpt lat="40.740635" lon="14.8282086"><ele>661.4000000000001</ele><time>2026-05-01T08:38:04.97Z</time></trkpt><trkpt lat="40.7407127" lon="14.8283319"><ele>664.0</ele><time>2026-05-01T08:38:06.964Z</time></trkpt><trkpt lat="40.7407647" lon="14.8284139"><ele>659.3333333333334</ele><time>2026-05-01T08:38:07.967Z</time></trkpt><trkpt lat="40.7408235" lon="14.8284965"><ele>654.6666666666667</ele><time>2026-05-01T08:38:08.972Z</time></trkpt><trkpt lat="40.740866" lon="14.8285958"><ele>650.0</ele><time>2026-05-01T08:38:09.966Z</time></trkpt><trkpt lat="40.7408866" lon="14.828711"><ele>645.3333333333334</ele><time>2026-05-01T08:38:10.976Z</time></trkpt><trkpt lat="40.7408984" lon="14.8288296"><ele>640.6666666666666</ele><time>2026-05-01T08:38:11.975Z</time></trkpt><trkpt lat="40.7409155" lon="14.8289168"><ele>636.0</ele><time>2026-05-01T08:38:12.984Z</time></trkpt><trkpt lat="40.740988" lon="14.8290375"><ele>637.4</ele><time>2026-05-01T08:38:14.967Z</time></trkpt><trkpt lat="40.741078" lon="14.829107"><ele>638.8</ele><time>2026-05-01T08:38:16.973Z</time></trkpt><trkpt lat="40.7411372" lon="14.8291409"><ele>640.1999999999999</ele><time>2026-05-01T08:38:17.987Z</time></trkpt><trkpt lat="40.741213" lon="14.8292679"><ele>641.6</ele><time>2026-05-01T08:38:19.974Z</time></trkpt><trkpt lat="40.7411879" lon="14.8294002"><ele>643.0</ele><time>2026-05-01T08:38:21.949Z</time></trkpt><trkpt lat="40.7411036" lon="14.8295197"><ele>643.0</ele><time>2026-05-01T08:38:23.975Z</time></trkpt><trkpt lat="40.7410584" lon="14.8295912"><ele>643.0</ele><time>2026-05-01T08:38:24.969Z</time></trkpt><trkpt lat="40.7409977" lon="14.8296659"><ele>643.0</ele><time>2026-05-01T08:38:25.979Z</time></trkpt><trkpt lat="40.7409439" lon="14.8297269"><ele>643.0</ele><time>2026-05-01T08:38:26.969Z</time></trkpt><trkpt lat="40.7408851" lon="14.8298486"><ele>643.0</ele><time>2026-05-01T08:38:28.973Z</time></trkpt><trkpt lat="40.740879" lon="14.8299417"><ele>643.0</ele><time>2026-05-01T08:38:29.973Z</time></trkpt><trkpt lat="40.7408681" lon="14.8300661"><ele>635.6666666666667</ele><time>2026-05-01T08:38:30.969Z</time></trkpt><trkpt lat="40.7408509" lon="14.8301902"><ele>628.3333333333334</ele><time>2026-05-01T08:38:31.974Z</time></trkpt><trkpt lat="40.7408377" lon="14.8303039"><ele>621.0</ele><time>2026-05-01T08:38:32.972Z</time></trkpt><trkpt lat="40.7408104" lon="14.8303987"><ele>613.6666666666666</ele><time>2026-05-01T08:38:33.969Z</time></trkpt><trkpt lat="40.7407826" lon="14.8304919"><ele>606.3333333333333</ele><time>2026-05-01T08:38:34.969Z</time></trkpt><trkpt lat="40.7407789" lon="14.8306423"><ele>599.0</ele><time>2026-05-01T08:38:36.98Z</time></trkpt><trkpt lat="40.7408174" lon="14.830759"><ele>599.0</ele><time>2026-05-01T08:38:38.973Z</time></trkpt><trkpt lat="40.7409002" lon="14.8308463"><ele>599.0</ele><time>2026-05-01T08:38:40.975Z</time></trkpt><trkpt lat="40.7410102" lon="14.8309026"><ele>599.0</ele><time>2026-05-01T08:38:42.971Z</time></trkpt><trkpt lat="40.741112" lon="14.8309503"><ele>599.0</ele><time>2026-05-01T08:38:44.984Z</time></trkpt><trkpt lat="40.7412066" lon="14.8308928"><ele>599.0</ele><time>2026-05-01T08:38:46.981Z</time></trkpt><trkpt lat="40.7412871" lon="14.8308515"><ele>600.8</ele><time>2026-05-01T08:38:48.972Z</time></trkpt><trkpt lat="40.7413723" lon="14.8308039"><ele>602.5999999999999</ele><time>2026-05-01T08:38:51.973Z</time></trkpt><trkpt lat="40.7413852" lon="14.8309062"><ele>604.4</ele><time>2026-05-01T08:38:57.965Z</time></trkpt><trkpt lat="40.7413592" lon="14.8310489"><ele>606.1999999999999</ele><time>2026-05-01T08:38:59.984Z</time></trkpt><trkpt lat="40.7413693" lon="14.8311879"><ele>608.0</ele><time>2026-05-01T08:39:01.966Z</time></trkpt><trkpt lat="40.7414258" lon="14.8312924"><ele>608.0</ele><time>2026-05-01T08:39:03.978Z</time></trkpt><trkpt lat="40.7414703" lon="14.8313518"><ele>608.0</ele><time>2026-05-01T08:39:05.974Z</time></trkpt><trkpt lat="40.7415341" lon="14.8313719"><ele>608.0</ele><time>2026-05-01T08:39:10.981Z</time></trkpt><trkpt lat="40.7416254" lon="14.8313534"><ele>608.0</ele><time>2026-05-01T08:39:12.976Z</time></trkpt><trkpt lat="40.7416988" lon="14.8313251"><ele>608.0</ele><time>2026-05-01T08:39:13.975Z</time></trkpt><trkpt lat="40.7418124" lon="14.8312606"><ele>608.0</ele><time>2026-05-01T08:39:15.974Z</time></trkpt><trkpt lat="40.7418776" lon="14.8312092"><ele>613.4</ele><time>2026-05-01T08:39:16.972Z</time></trkpt><trkpt lat="40.7419519" lon="14.8311536"><ele>618.8</ele><time>2026-05-01T08:39:17.972Z</time></trkpt><trkpt lat="40.7420201" lon="14.8311053"><ele>624.2</ele><time>2026-05-01T08:39:18.97Z</time></trkpt><trkpt lat="40.7421323" lon="14.831017"><ele>629.6</ele><time>2026-05-01T08:39:20.977Z</time></trkpt><trkpt lat="40.7421025" lon="14.8311061"><ele>635.0</ele><time>2026-05-01T08:39:25.98Z</time></trkpt><trkpt lat="40.7420576" lon="14.8312524"><ele>635.0</ele><time>2026-05-01T08:39:27.98Z</time></trkpt><trkpt lat="40.7420252" lon="14.8313773"><ele>635.0</ele><time>2026-05-01T08:39:29.979Z</time></trkpt><trkpt lat="40.742031" lon="14.8314794"><ele>635.0</ele><time>2026-05-01T08:39:30.977Z</time></trkpt><trkpt lat="40.7420646" lon="14.831613"><ele>635.0</ele><time>2026-05-01T08:39:32.972Z</time></trkpt><trkpt lat="40.7421141" lon="14.8316658"><ele>635.0</ele><time>2026-05-01T08:39:33.977Z</time></trkpt><trkpt lat="40.7422018" lon="14.8317104"><ele>635.0</ele><time>2026-05-01T08:39:34.971Z</time></trkpt><trkpt lat="40.7422793" lon="14.8317328"><ele>635.0</ele><time>2026-05-01T08:39:35.966Z</time></trkpt><trkpt lat="40.7423501" lon="14.8317314"><ele>635.0</ele><time>2026-05-01T08:39:36.97Z</time></trkpt><trkpt lat="40.7424237" lon="14.8317241"><ele>635.0</ele><time>2026-05-01T08:39:37.986Z</time></trkpt><trkpt lat="40.7424911" lon="14.831724"><ele>635.0</ele><time>2026-05-01T08:39:38.981Z</time></trkpt><trkpt lat="40.7425729" lon="14.8317045"><ele>635.0</ele><time>2026-05-01T08:39:40.973Z</time></trkpt><trkpt lat="40.7425684" lon="14.831815"><ele>635.0</ele><time>2026-05-01T08:39:43.974Z</time></trkpt><trkpt lat="40.7425444" lon="14.8319277"><ele>636.0</ele><time>2026-05-01T08:39:45.98Z</time></trkpt><trkpt lat="40.7425632" lon="14.8320362"><ele>637.0</ele><time>2026-05-01T08:39:47.983Z</time></trkpt><trkpt lat="40.7425951" lon="14.8321589"><ele>638.0</ele><time>2026-05-01T08:39:49.979Z</time></trkpt><trkpt lat="40.7426867" lon="14.8322595"><ele>639.0</ele><time>2026-05-01T08:39:51.98Z</time></trkpt><trkpt lat="40.7427473" lon="14.8323105"><ele>640.0</ele><time>2026-05-01T08:39:52.98Z</time></trkpt><trkpt lat="40.7428142" lon="14.8323356"><ele>641.0</ele><time>2026-05-01T08:39:53.976Z</time></trkpt><trkpt lat="40.7429196" lon="14.8323548"><ele>641.0</ele><time>2026-05-01T08:39:54.979Z</time></trkpt><trkpt lat="40.7430242" lon="14.8323585"><ele>641.0</ele><time>2026-05-01T08:39:55.966Z</time></trkpt><trkpt lat="40.7431062" lon="14.8323703"><ele>641.0</ele><time>2026-05-01T08:39:56.967Z</time></trkpt><trkpt lat="40.7431841" lon="14.8323411"><ele>641.0</ele><time>2026-05-01T08:39:58.978Z</time></trkpt><trkpt lat="40.7431916" lon="14.8324511"><ele>641.0</ele><time>2026-05-01T08:40:01.973Z</time></trkpt><trkpt lat="40.7431982" lon="14.8325451"><ele>641.0</ele><time>2026-05-01T08:40:02.975Z</time></trkpt><trkpt lat="40.743208" lon="14.832634"><ele>641.1666666666666</ele><time>2026-05-01T08:40:03.984Z</time></trkpt><trkpt lat="40.7432674" lon="14.832794"><ele>641.3333333333333</ele><time>2026-05-01T08:40:05.971Z</time></trkpt><trkpt lat="40.7433308" lon="14.8328551"><ele>641.5</ele><time>2026-05-01T08:40:06.974Z</time></trkpt><trkpt lat="40.7434132" lon="14.8328856"><ele>641.6666666666666</ele><time>2026-05-01T08:40:07.97Z</time></trkpt><trkpt lat="40.7434899" lon="14.832899"><ele>641.8333333333334</ele><time>2026-05-01T08:40:08.949Z</time></trkpt><trkpt lat="40.7435543" lon="14.8329013"><ele>642.0</ele><time>2026-05-01T08:40:09.978Z</time></trkpt><trkpt lat="40.7436565" lon="14.8328645"><ele>642.0</ele><time>2026-05-01T08:40:11.97Z</time></trkpt><trkpt lat="40.7437143" lon="14.8328302"><ele>642.0</ele><time>2026-05-01T08:40:12.972Z</time></trkpt><trkpt lat="40.7437858" lon="14.8328157"><ele>642.0</ele><time>2026-05-01T08:40:14.97Z</time></trkpt><trkpt lat="40.7438478" lon="14.8329298"><ele>642.0</ele><time>2026-05-01T08:40:17.973Z</time></trkpt><trkpt lat="40.7438908" lon="14.8330298"><ele>642.0</ele><time>2026-05-01T08:40:18.974Z</time></trkpt><trkpt lat="40.7439411" lon="14.8331233"><ele>642.0</ele><time>2026-05-01T08:40:19.976Z</time></trkpt><trkpt lat="40.7439986" lon="14.8332025"><ele>642.0</ele><time>2026-05-01T08:40:20.97Z</time></trkpt><trkpt lat="40.7440461" lon="14.8332774"><ele>642.0</ele><time>2026-05-01T08:40:21.979Z</time></trkpt><trkpt lat="40.7440971" lon="14.8333442"><ele>642.0</ele><time>2026-05-01T08:40:22.97Z</time></trkpt><trkpt lat="40.7441905" lon="14.8334524"><ele>642.0</ele><time>2026-05-01T08:40:24.971Z</time></trkpt><trkpt lat="40.7442542" lon="14.8334856"><ele>642.0</ele><time>2026-05-01T08:40:26.988Z</time></trkpt><trkpt lat="40.7443702" lon="14.8334725"><ele>645.6666666666666</ele><time>2026-05-01T08:40:28.969Z</time></trkpt><trkpt lat="40.744437" lon="14.8334401"><ele>649.3333333333334</ele><time>2026-05-01T08:40:29.98Z</time></trkpt><trkpt lat="40.7445042" lon="14.8334061"><ele>653.0</ele><time>2026-05-01T08:40:30.965Z</time></trkpt><trkpt lat="40.7445767" lon="14.8333528"><ele>656.6666666666667</ele><time>2026-05-01T08:40:31.972Z</time></trkpt><trkpt lat="40.7446414" lon="14.8333187"><ele>660.3333333333334</ele><time>2026-05-01T08:40:32.973Z</time></trkpt><trkpt lat="40.7447032" lon="14.8332965"><ele>664.0</ele><time>2026-05-01T08:40:33.977Z</time></trkpt><trkpt lat="40.7448108" lon="14.833258"><ele>664.0</ele><time>2026-05-01T08:40:35.971Z</time></trkpt><trkpt lat="40.7448706" lon="14.8333272"><ele>664.0</ele><time>2026-05-01T08:40:40.96Z</time></trkpt><trkpt lat="40.7448864" lon="14.8334614"><ele>664.0</ele><time>2026-05-01T08:40:42.97Z</time></trkpt><trkpt lat="40.7449168" lon="14.8336525"><ele>664.0</ele><time>2026-05-01T08:40:44.964Z</time></trkpt><trkpt lat="40.7449513" lon="14.8337399"><ele>664.0</ele><time>2026-05-01T08:40:45.972Z</time></trkpt><trkpt lat="40.7450362" lon="14.8338468"><ele>665.2</ele><time>2026-05-01T08:40:47.954Z</time></trkpt><trkpt lat="40.7450948" lon="14.8338907"><ele>666.4000000000001</ele><time>2026-05-01T08:40:48.977Z</time></trkpt><trkpt lat="40.7452149" lon="14.8339269"><ele>667.6</ele><time>2026-05-01T08:40:50.979Z</time></trkpt><trkpt lat="40.7453195" lon="14.8339193"><ele>668.8</ele><time>2026-05-01T08:40:51.958Z</time></trkpt><trkpt lat="40.7454032" lon="14.8339184"><ele>670.0</ele><time>2026-05-01T08:40:52.968Z</time></trkpt><trkpt lat="40.7454985" lon="14.8339085"><ele>669.9999999999999</ele><time>2026-05-01T08:40:53.973Z</time></trkpt><trkpt lat="40.7455932" lon="14.8338881"><ele>670.0</ele><time>2026-05-01T08:40:54.97Z</time></trkpt><trkpt lat="40.7456562" lon="14.8338861"><ele>670.0</ele><time>2026-05-01T08:40:55.979Z</time></trkpt><trkpt lat="40.7457178" lon="14.8338678"><ele>670.0</ele><time>2026-05-01T08:40:58.977Z</time></trkpt><trkpt lat="40.7457664" lon="14.8339293"><ele>670.0</ele><time>2026-05-01T08:41:05.976Z</time></trkpt><trkpt lat="40.7457918" lon="14.8340286"><ele>669.9999999999999</ele><time>2026-05-01T08:41:07.978Z</time></trkpt><trkpt lat="40.745813" lon="14.8341078"><ele>670.0</ele><time>2026-05-01T08:41:08.952Z</time></trkpt><trkpt lat="40.7458355" lon="14.8342093"><ele>670.2</ele><time>2026-05-01T08:41:10.972Z</time></trkpt><trkpt lat="40.7458644" lon="14.8343157"><ele>670.4</ele><time>2026-05-01T08:41:12.98Z</time></trkpt><trkpt lat="40.7459572" lon="14.8344056"><ele>670.5999999999999</ele><time>2026-05-01T08:41:14.978Z</time></trkpt><trkpt lat="40.7460429" lon="14.8344347"><ele>670.8</ele><time>2026-05-01T08:41:15.972Z</time></trkpt><trkpt lat="40.746141" lon="14.8344469"><ele>671.0</ele><time>2026-05-01T08:41:16.973Z</time></trkpt><trkpt lat="40.7462161" lon="14.8344463"><ele>671.0</ele><time>2026-05-01T08:41:17.973Z</time></trkpt><trkpt lat="40.7463262" lon="14.834437"><ele>671.0</ele><time>2026-05-01T08:41:19.977Z</time></trkpt><trkpt lat="40.7464203" lon="14.8345399"><ele>671.0</ele><time>2026-05-01T08:41:21.977Z</time></trkpt><trkpt lat="40.7464664" lon="14.8346568"><ele>671.0</ele><time>2026-05-01T08:41:22.978Z</time></trkpt><trkpt lat="40.7465151" lon="14.8347519"><ele>671.0</ele><time>2026-05-01T08:41:23.975Z</time></trkpt><trkpt lat="40.7465656" lon="14.8348184"><ele>671.0</ele><time>2026-05-01T08:41:24.969Z</time></trkpt><trkpt lat="40.7466296" lon="14.834872"><ele>671.0</ele><time>2026-05-01T08:41:25.968Z</time></trkpt><trkpt lat="40.7466867" lon="14.8349104"><ele>671.0</ele><time>2026-05-01T08:41:26.981Z</time></trkpt><trkpt lat="40.7467534" lon="14.8349366"><ele>671.0</ele><time>2026-05-01T08:41:27.977Z</time></trkpt><trkpt lat="40.7468127" lon="14.8349718"><ele>671.0</ele><time>2026-05-01T08:41:28.979Z</time></trkpt><trkpt lat="40.7468876" lon="14.8349943"><ele>671.0</ele><time>2026-05-01T08:41:29.98Z</time></trkpt><trkpt lat="40.7469706" lon="14.8349852"><ele>671.0</ele><time>2026-05-01T08:41:30.975Z</time></trkpt><trkpt lat="40.7470624" lon="14.8349483"><ele>671.3333333333333</ele><time>2026-05-01T08:41:31.975Z</time></trkpt><trkpt lat="40.7471549" lon="14.8349119"><ele>671.6666666666666</ele><time>2026-05-01T08:41:32.968Z</time></trkpt><trkpt lat="40.7472357" lon="14.8348577"><ele>672.0</ele><time>2026-05-01T08:41:33.972Z</time></trkpt><trkpt lat="40.7473089" lon="14.8348026"><ele>672.3333333333334</ele><time>2026-05-01T08:41:34.972Z</time></trkpt><trkpt lat="40.7473838" lon="14.834749"><ele>672.6666666666667</ele><time>2026-05-01T08:41:35.979Z</time></trkpt><trkpt lat="40.7474538" lon="14.8346926"><ele>673.0</ele><time>2026-05-01T08:41:36.979Z</time></trkpt><trkpt lat="40.7475109" lon="14.8346426"><ele>673.0</ele><time>2026-05-01T08:41:37.986Z</time></trkpt><trkpt lat="40.7475591" lon="14.8345859"><ele>673.0</ele><time>2026-05-01T08:41:38.95Z</time></trkpt><trkpt lat="40.7476053" lon="14.8344475"><ele>673.0</ele><time>2026-05-01T08:41:40.969Z</time></trkpt><trkpt lat="40.7476276" lon="14.8343593"><ele>673.0</ele><time>2026-05-01T08:41:41.976Z</time></trkpt><trkpt lat="40.7476523" lon="14.8342663"><ele>673.0</ele><time>2026-05-01T08:41:42.98Z</time></trkpt><trkpt lat="40.7476684" lon="14.8341684"><ele>673.0</ele><time>2026-05-01T08:41:43.971Z</time></trkpt><trkpt lat="40.7476825" lon="14.8340735"><ele>677.6666666666667</ele><time>2026-05-01T08:41:44.969Z</time></trkpt><trkpt lat="40.7476943" lon="14.833975"><ele>682.3333333333334</ele><time>2026-05-01T08:41:45.972Z</time></trkpt><trkpt lat="40.7477024" lon="14.8338555"><ele>687.0</ele><time>2026-05-01T08:41:46.979Z</time></trkpt><trkpt lat="40.7477057" lon="14.8337387"><ele>691.6666666666666</ele><time>2026-05-01T08:41:47.971Z</time></trkpt><trkpt lat="40.7477019" lon="14.8336091"><ele>696.3333333333333</ele><time>2026-05-01T08:41:48.972Z</time></trkpt><trkpt lat="40.7476916" lon="14.8334939"><ele>701.0</ele><time>2026-05-01T08:41:49.977Z</time></trkpt><trkpt lat="40.7476841" lon="14.8334066"><ele>700.5999999999999</ele><time>2026-05-01T08:41:50.971Z</time></trkpt><trkpt lat="40.7477029" lon="14.8332523"><ele>700.2</ele><time>2026-05-01T08:41:52.977Z</time></trkpt><trkpt lat="40.7477125" lon="14.8331611"><ele>699.8</ele><time>2026-05-01T08:41:53.969Z</time></trkpt><trkpt lat="40.7477235" lon="14.8330609"><ele>699.4000000000001</ele><time>2026-05-01T08:41:54.975Z</time></trkpt><trkpt lat="40.7477222" lon="14.8329297"><ele>699.0</ele><time>2026-05-01T08:41:56.974Z</time></trkpt><trkpt lat="40.7477038" lon="14.8327483"><ele>701.8333333333334</ele><time>2026-05-01T08:41:58.976Z</time></trkpt><trkpt lat="40.7476985" lon="14.8326567"><ele>704.6666666666666</ele><time>2026-05-01T08:41:59.986Z</time></trkpt><trkpt lat="40.7477029" lon="14.8325533"><ele>707.5</ele><time>2026-05-01T08:42:00.978Z</time></trkpt><trkpt lat="40.7477117" lon="14.8324425"><ele>710.3333333333333</ele><time>2026-05-01T08:42:01.971Z</time></trkpt><trkpt lat="40.7477238" lon="14.8323225"><ele>713.1666666666666</ele><time>2026-05-01T08:42:02.975Z</time></trkpt><trkpt lat="40.74774" lon="14.8322263"><ele>716.0</ele><time>2026-05-01T08:42:03.964Z</time></trkpt><trkpt lat="40.7477545" lon="14.8321262"><ele>716.0</ele><time>2026-05-01T08:42:04.969Z</time></trkpt><trkpt lat="40.7477577" lon="14.8320149"><ele>716.0</ele><time>2026-05-01T08:42:05.983Z</time></trkpt><trkpt lat="40.7477649" lon="14.831869"><ele>716.0</ele><time>2026-05-01T08:42:07.976Z</time></trkpt><trkpt lat="40.7477803" lon="14.831787"><ele>716.0</ele><time>2026-05-01T08:42:09.969Z</time></trkpt><trkpt lat="40.7478486" lon="14.8317473"><ele>716.0</ele><time>2026-05-01T08:42:15.974Z</time></trkpt><trkpt lat="40.7479276" lon="14.8318"><ele>716.0</ele><time>2026-05-01T08:42:17.952Z</time></trkpt><trkpt lat="40.748051" lon="14.8318779"><ele>716.0</ele><time>2026-05-01T08:42:19.972Z</time></trkpt><trkpt lat="40.7481818" lon="14.8318909"><ele>716.0</ele><time>2026-05-01T08:42:20.965Z</time></trkpt><trkpt lat="40.748393" lon="14.8319144"><ele>716.0</ele><time>2026-05-01T08:42:21.972Z</time></trkpt><trkpt lat="40.7485241" lon="14.8319228"><ele>719.6666666666666</ele><time>2026-05-01T08:42:22.971Z</time></trkpt><trkpt lat="40.7486147" lon="14.8319362"><ele>723.3333333333333</ele><time>2026-05-01T08:42:23.97Z</time></trkpt><trkpt lat="40.748718" lon="14.8319613"><ele>727.0</ele><time>2026-05-01T08:42:24.971Z</time></trkpt><trkpt lat="40.7488081" lon="14.8319791"><ele>730.6666666666666</ele><time>2026-05-01T08:42:25.961Z</time></trkpt><trkpt lat="40.7488932" lon="14.8320024"><ele>734.3333333333334</ele><time>2026-05-01T08:42:26.968Z</time></trkpt><trkpt lat="40.7489576" lon="14.8320412"><ele>738.0</ele><time>2026-05-01T08:42:28.977Z</time></trkpt><trkpt lat="40.7490244" lon="14.8320962"><ele>738.0</ele><time>2026-05-01T08:42:29.98Z</time></trkpt><trkpt lat="40.7491057" lon="14.8321578"><ele>738.0</ele><time>2026-05-01T08:42:30.966Z</time></trkpt><trkpt lat="40.7491813" lon="14.8322199"><ele>738.0</ele><time>2026-05-01T08:42:31.977Z</time></trkpt><trkpt lat="40.7492498" lon="14.8322714"><ele>738.0</ele><time>2026-05-01T08:42:32.972Z</time></trkpt><trkpt lat="40.7493317" lon="14.8323198"><ele>738.0</ele><time>2026-05-01T08:42:34.975Z</time></trkpt><trkpt lat="40.7493843" lon="14.8323753"><ele>738.0</ele><time>2026-05-01T08:42:36.975Z</time></trkpt><trkpt lat="40.7494266" lon="14.8323057"><ele>738.0</ele><time>2026-05-01T08:42:40.959Z</time></trkpt><trkpt lat="40.7493919" lon="14.8321462"><ele>738.0</ele><time>2026-05-01T08:42:42.984Z</time></trkpt><trkpt lat="40.7493586" lon="14.8320609"><ele>738.0</ele><time>2026-05-01T08:42:43.979Z</time></trkpt><trkpt lat="40.7493461" lon="14.8319737"><ele>738.0</ele><time>2026-05-01T08:42:44.977Z</time></trkpt><trkpt lat="40.7493196" lon="14.8318932"><ele>738.0</ele><time>2026-05-01T08:42:45.979Z</time></trkpt><trkpt lat="40.7492913" lon="14.831814"><ele>738.0</ele><time>2026-05-01T08:42:46.975Z</time></trkpt><trkpt lat="40.7492578" lon="14.8316678"><ele>741.4</ele><time>2026-05-01T08:42:48.981Z</time></trkpt><trkpt lat="40.7491992" lon="14.8315554"><ele>744.8</ele><time>2026-05-01T08:42:50.97Z</time></trkpt><trkpt lat="40.7491317" lon="14.8314654"><ele>748.2</ele><time>2026-05-01T08:42:52.985Z</time></trkpt><trkpt lat="40.7490434" lon="14.831428"><ele>751.6</ele><time>2026-05-01T08:42:53.98Z</time></trkpt><trkpt lat="40.7489412" lon="14.8314119"><ele>755.0</ele><time>2026-05-01T08:42:54.973Z</time></trkpt><trkpt lat="40.7488469" lon="14.8313963"><ele>755.0</ele><time>2026-05-01T08:42:55.975Z</time></trkpt><trkpt lat="40.7487452" lon="14.8313569"><ele>755.0</ele><time>2026-05-01T08:42:56.972Z</time></trkpt><trkpt lat="40.7486395" lon="14.8313005"><ele>755.0</ele><time>2026-05-01T08:42:57.984Z</time></trkpt><trkpt lat="40.7485352" lon="14.8312278"><ele>755.0</ele><time>2026-05-01T08:42:58.98Z</time></trkpt><trkpt lat="40.7484408" lon="14.8311538"><ele>755.0</ele><time>2026-05-01T08:42:59.98Z</time></trkpt><trkpt lat="40.748339" lon="14.8310752"><ele>752.25</ele><time>2026-05-01T08:43:00.993Z</time></trkpt><trkpt lat="40.7482025" lon="14.8309956"><ele>749.5</ele><time>2026-05-01T08:43:01.951Z</time></trkpt><trkpt lat="40.7480715" lon="14.8309313"><ele>746.75</ele><time>2026-05-01T08:43:02.969Z</time></trkpt><trkpt lat="40.7479448" lon="14.8308746"><ele>744.0</ele><time>2026-05-01T08:43:03.976Z</time></trkpt><trkpt lat="40.7478001" lon="14.8308448"><ele>745.1666666666666</ele><time>2026-05-01T08:43:04.979Z</time></trkpt><trkpt lat="40.7477101" lon="14.8308305"><ele>746.3333333333334</ele><time>2026-05-01T08:43:05.977Z</time></trkpt><trkpt lat="40.7476329" lon="14.8308014"><ele>747.5</ele><time>2026-05-01T08:43:08.973Z</time></trkpt><trkpt lat="40.7475515" lon="14.8308406"><ele>748.6666666666667</ele><time>2026-05-01T08:43:10.972Z</time></trkpt><trkpt lat="40.7475064" lon="14.8308987"><ele>749.8333333333334</ele><time>2026-05-01T08:43:11.947Z</time></trkpt><trkpt lat="40.747466" lon="14.8309796"><ele>751.0</ele><time>2026-05-01T08:43:12.975Z</time></trkpt><trkpt lat="40.7474063" lon="14.8310782"><ele>751.0</ele><time>2026-05-01T08:43:13.981Z</time></trkpt><trkpt lat="40.747332" lon="14.8311934"><ele>751.0</ele><time>2026-05-01T08:43:14.977Z</time></trkpt><trkpt lat="40.7472606" lon="14.8312988"><ele>751.0</ele><time>2026-05-01T08:43:15.979Z</time></trkpt><trkpt lat="40.7472099" lon="14.8313965"><ele>751.0</ele><time>2026-05-01T08:43:16.975Z</time></trkpt><trkpt lat="40.7471599" lon="14.8315088"><ele>751.0</ele><time>2026-05-01T08:43:17.975Z</time></trkpt><trkpt lat="40.7470994" lon="14.83163"><ele>751.0</ele><time>2026-05-01T08:43:18.972Z</time></trkpt><trkpt lat="40.7470624" lon="14.8317456"><ele>751.0</ele><time>2026-05-01T08:43:19.966Z</time></trkpt><trkpt lat="40.7470348" lon="14.8318456"><ele>751.0</ele><time>2026-05-01T08:43:20.971Z</time></trkpt><trkpt lat="40.7470064" lon="14.8319372"><ele>751.0</ele><time>2026-05-01T08:43:21.983Z</time></trkpt><trkpt lat="40.7469697" lon="14.8320596"><ele>751.0</ele><time>2026-05-01T08:43:23.987Z</time></trkpt><trkpt lat="40.7468987" lon="14.8320782"><ele>751.0</ele><time>2026-05-01T08:43:24.973Z</time></trkpt><trkpt lat="40.7468351" lon="14.8320554"><ele>751.1999999999999</ele><time>2026-05-01T08:43:25.972Z</time></trkpt><trkpt lat="40.7467681" lon="14.8320236"><ele>751.4</ele><time>2026-05-01T08:43:26.97Z</time></trkpt><trkpt lat="40.7466916" lon="14.8319883"><ele>751.6</ele><time>2026-05-01T08:43:27.975Z</time></trkpt><trkpt lat="40.7465965" lon="14.8319539"><ele>751.8</ele><time>2026-05-01T08:43:28.977Z</time></trkpt><trkpt lat="40.7464832" lon="14.8319228"><ele>752.0</ele><time>2026-05-01T08:43:29.973Z</time></trkpt><trkpt lat="40.7463652" lon="14.8319102"><ele>752.0</ele><time>2026-05-01T08:43:30.975Z</time></trkpt><trkpt lat="40.7462385" lon="14.8318881"><ele>752.0</ele><time>2026-05-01T08:43:31.973Z</time></trkpt><trkpt lat="40.7461315" lon="14.8318641"><ele>752.0</ele><time>2026-05-01T08:43:32.975Z</time></trkpt><trkpt lat="40.7460395" lon="14.8318324"><ele>752.0</ele><time>2026-05-01T08:43:33.962Z</time></trkpt><trkpt lat="40.7459468" lon="14.8318016"><ele>752.0</ele><time>2026-05-01T08:43:34.979Z</time></trkpt><trkpt lat="40.7458547" lon="14.8317308"><ele>755.0</ele><time>2026-05-01T08:43:35.978Z</time></trkpt><trkpt lat="40.7457751" lon="14.8316282"><ele>758.0</ele><time>2026-05-01T08:43:36.968Z</time></trkpt><trkpt lat="40.745725" lon="14.8315225"><ele>761.0</ele><time>2026-05-01T08:43:37.977Z</time></trkpt><trkpt lat="40.7457006" lon="14.8314426"><ele>764.0</ele><time>2026-05-01T08:43:38.971Z</time></trkpt><trkpt lat="40.7456679" lon="14.8313184"><ele>767.0</ele><time>2026-05-01T08:43:40.971Z</time></trkpt><trkpt lat="40.745599" lon="14.8312328"><ele>767.0</ele><time>2026-05-01T08:43:42.974Z</time></trkpt><trkpt lat="40.745483" lon="14.83119"><ele>767.0</ele><time>2026-05-01T08:43:44.987Z</time></trkpt><trkpt lat="40.7454032" lon="14.8311674"><ele>767.0</ele><time>2026-05-01T08:43:45.965Z</time></trkpt><trkpt lat="40.7453182" lon="14.8311437"><ele>767.0</ele><time>2026-05-01T08:43:46.98Z</time></trkpt><trkpt lat="40.7452386" lon="14.8311127"><ele>767.0</ele><time>2026-05-01T08:43:47.972Z</time></trkpt><trkpt lat="40.7451446" lon="14.8310488"><ele>769.0</ele><time>2026-05-01T08:43:48.974Z</time></trkpt><trkpt lat="40.7450291" lon="14.8309391"><ele>771.0</ele><time>2026-05-01T08:43:49.971Z</time></trkpt><trkpt lat="40.7449247" lon="14.8308212"><ele>773.0</ele><time>2026-05-01T08:43:50.976Z</time></trkpt><trkpt lat="40.7448262" lon="14.8307024"><ele>775.0</ele><time>2026-05-01T08:43:51.974Z</time></trkpt><trkpt lat="40.7447351" lon="14.8305879"><ele>775.0</ele><time>2026-05-01T08:43:52.982Z</time></trkpt><trkpt lat="40.7446513" lon="14.8304714"><ele>775.0</ele><time>2026-05-01T08:43:53.976Z</time></trkpt><trkpt lat="40.7445715" lon="14.8303805"><ele>775.0</ele><time>2026-05-01T08:43:54.975Z</time></trkpt><trkpt lat="40.7444917" lon="14.8303045"><ele>775.0</ele><time>2026-05-01T08:43:55.981Z</time></trkpt><trkpt lat="40.7444148" lon="14.8302335"><ele>775.0</ele><time>2026-05-01T08:43:56.97Z</time></trkpt><trkpt lat="40.7443334" lon="14.8301602"><ele>772.4</ele><time>2026-05-01T08:43:57.971Z</time></trkpt><trkpt lat="40.7442507" lon="14.8300837"><ele>769.8</ele><time>2026-05-01T08:43:58.98Z</time></trkpt><trkpt lat="40.7441763" lon="14.8300123"><ele>767.2</ele><time>2026-05-01T08:43:59.987Z</time></trkpt><trkpt lat="40.7441104" lon="14.8299162"><ele>764.6</ele><time>2026-05-01T08:44:00.97Z</time></trkpt><trkpt lat="40.7440621" lon="14.8297987"><ele>762.0</ele><time>2026-05-01T08:44:01.974Z</time></trkpt><trkpt lat="40.7440149" lon="14.8296658"><ele>762.0</ele><time>2026-05-01T08:44:02.973Z</time></trkpt><trkpt lat="40.7439651" lon="14.8295181"><ele>762.0</ele><time>2026-05-01T08:44:03.972Z</time></trkpt><trkpt lat="40.7439061" lon="14.82937"><ele>762.0</ele><time>2026-05-01T08:44:04.972Z</time></trkpt><trkpt lat="40.7438498" lon="14.8292225"><ele>762.0</ele><time>2026-05-01T08:44:05.972Z</time></trkpt><trkpt lat="40.7437971" lon="14.8290969"><ele>763.1666666666666</ele><time>2026-05-01T08:44:06.979Z</time></trkpt><trkpt lat="40.7437528" lon="14.8289926"><ele>764.3333333333333</ele><time>2026-05-01T08:44:07.971Z</time></trkpt><trkpt lat="40.7437527" lon="14.8288818"><ele>765.5</ele><time>2026-05-01T08:44:09.977Z</time></trkpt><trkpt lat="40.7438162" lon="14.8288203"><ele>766.6666666666666</ele><time>2026-05-01T08:44:11.977Z</time></trkpt><trkpt lat="40.7439157" lon="14.8288494"><ele>767.8333333333333</ele><time>2026-05-01T08:44:13.969Z</time></trkpt><trkpt lat="40.7439798" lon="14.8288624"><ele>769.0</ele><time>2026-05-01T08:44:14.99Z</time></trkpt><trkpt lat="40.7440525" lon="14.8288727"><ele>768.9999999999999</ele><time>2026-05-01T08:44:15.982Z</time></trkpt><trkpt lat="40.744131" lon="14.8288822"><ele>769.0</ele><time>2026-05-01T08:44:16.977Z</time></trkpt><trkpt lat="40.7442142" lon="14.8288918"><ele>769.0</ele><time>2026-05-01T08:44:17.984Z</time></trkpt><trkpt lat="40.7443" lon="14.8288947"><ele>769.0</ele><time>2026-05-01T08:44:18.955Z</time></trkpt><trkpt lat="40.7443993" lon="14.8289009"><ele>768.9999999999999</ele><time>2026-05-01T08:44:19.976Z</time></trkpt><trkpt lat="40.7444946" lon="14.8289054"><ele>769.0</ele><time>2026-05-01T08:44:20.978Z</time></trkpt><trkpt lat="40.7445892" lon="14.8288887"><ele>770.2</ele><time>2026-05-01T08:44:21.96Z</time></trkpt><trkpt lat="40.744694" lon="14.8288889"><ele>771.4000000000001</ele><time>2026-05-01T08:44:22.974Z</time></trkpt><trkpt lat="40.7448052" lon="14.8288996"><ele>772.6</ele><time>2026-05-01T08:44:23.977Z</time></trkpt><trkpt lat="40.7449152" lon="14.8289113"><ele>773.8</ele><time>2026-05-01T08:44:24.978Z</time></trkpt><trkpt lat="40.7450116" lon="14.8289318"><ele>775.0</ele><time>2026-05-01T08:44:25.979Z</time></trkpt><trkpt lat="40.7451037" lon="14.8289437"><ele>774.9999999999999</ele><time>2026-05-01T08:44:26.965Z</time></trkpt><trkpt lat="40.7451865" lon="14.8289413"><ele>775.0</ele><time>2026-05-01T08:44:27.976Z</time></trkpt><trkpt lat="40.7452512" lon="14.8289255"><ele>775.0</ele><time>2026-05-01T08:44:28.974Z</time></trkpt><trkpt lat="40.7453206" lon="14.82884"><ele>775.0</ele><time>2026-05-01T08:44:30.976Z</time></trkpt><trkpt lat="40.7453473" lon="14.8286706"><ele>774.9999999999999</ele><time>2026-05-01T08:44:32.972Z</time></trkpt><trkpt lat="40.7453559" lon="14.828583"><ele>775.0</ele><time>2026-05-01T08:44:33.947Z</time></trkpt><trkpt lat="40.7453795" lon="14.8285"><ele>772.4</ele><time>2026-05-01T08:44:34.969Z</time></trkpt><trkpt lat="40.7454489" lon="14.8283908"><ele>769.8</ele><time>2026-05-01T08:44:36.966Z</time></trkpt><trkpt lat="40.745518" lon="14.8283177"><ele>767.2</ele><time>2026-05-01T08:44:37.978Z</time></trkpt><trkpt lat="40.745594" lon="14.8282694"><ele>764.6</ele><time>2026-05-01T08:44:38.966Z</time></trkpt><trkpt lat="40.7456576" lon="14.8282472"><ele>762.0</ele><time>2026-05-01T08:44:39.965Z</time></trkpt><trkpt lat="40.7457582" lon="14.8281514"><ele>762.0</ele><time>2026-05-01T08:44:41.973Z</time></trkpt><trkpt lat="40.7458091" lon="14.8280732"><ele>762.0</ele><time>2026-05-01T08:44:42.962Z</time></trkpt><trkpt lat="40.7458462" lon="14.8279944"><ele>762.0</ele><time>2026-05-01T08:44:43.952Z</time></trkpt><trkpt lat="40.7458709" lon="14.8279135"><ele>762.0</ele><time>2026-05-01T08:44:44.95Z</time></trkpt><trkpt lat="40.7458961" lon="14.8278192"><ele>762.0</ele><time>2026-05-01T08:44:45.95Z</time></trkpt><trkpt lat="40.7459316" lon="14.8277235"><ele>762.0</ele><time>2026-05-01T08:44:46.973Z</time></trkpt><trkpt lat="40.7459709" lon="14.8276414"><ele>762.0</ele><time>2026-05-01T08:44:47.983Z</time></trkpt><trkpt lat="40.7460437" lon="14.8275593"><ele>757.3333333333334</ele><time>2026-05-01T08:44:48.968Z</time></trkpt><trkpt lat="40.7460877" lon="14.8274804"><ele>752.6666666666666</ele><time>2026-05-01T08:44:49.97Z</time></trkpt><trkpt lat="40.7461333" lon="14.827396"><ele>748.0</ele><time>2026-05-01T08:44:50.979Z</time></trkpt><trkpt lat="40.7461686" lon="14.8273054"><ele>743.3333333333333</ele><time>2026-05-01T08:44:51.975Z</time></trkpt><trkpt lat="40.7462084" lon="14.8272077"><ele>738.6666666666666</ele><time>2026-05-01T08:44:52.954Z</time></trkpt><trkpt lat="40.7462465" lon="14.8270962"><ele>734.0</ele><time>2026-05-01T08:44:53.949Z</time></trkpt><trkpt lat="40.7462618" lon="14.8269776"><ele>734.0</ele><time>2026-05-01T08:44:54.973Z</time></trkpt><trkpt lat="40.7462654" lon="14.8268717"><ele>734.0</ele><time>2026-05-01T08:44:55.971Z</time></trkpt><trkpt lat="40.7462716" lon="14.8267753"><ele>734.0</ele><time>2026-05-01T08:44:56.976Z</time></trkpt><trkpt lat="40.7462835" lon="14.8266752"><ele>734.0</ele><time>2026-05-01T08:44:58.946Z</time></trkpt><trkpt lat="40.7463099" lon="14.8265873"><ele>734.0</ele><time>2026-05-01T08:45:00.955Z</time></trkpt><trkpt lat="40.7463781" lon="14.8265433"><ele>734.0</ele><time>2026-05-01T08:47:36.947Z</time></trkpt><trkpt lat="40.7463455" lon="14.8264515"><ele>731.0</ele><time>2026-05-01T08:47:48.972Z</time></trkpt><trkpt lat="40.7462986" lon="14.8265077"><ele>728.0</ele><time>2026-05-01T08:47:53.966Z</time></trkpt><trkpt lat="40.7462856" lon="14.8264139"><ele>725.0</ele><time>2026-05-01T08:52:19.972Z</time></trkpt><trkpt lat="40.7462525" lon="14.8263312"><ele>722.0</ele><time>2026-05-01T08:52:21.985Z</time></trkpt><trkpt lat="40.7461914" lon="14.8262046"><ele>719.0</ele><time>2026-05-01T08:52:23.978Z</time></trkpt><trkpt lat="40.7461317" lon="14.8260636"><ele>716.0</ele><time>2026-05-01T08:52:25.97Z</time></trkpt><trkpt lat="40.7460849" lon="14.8259142"><ele>716.3333333333333</ele><time>2026-05-01T08:52:27.971Z</time></trkpt><trkpt lat="40.7460697" lon="14.8258256"><ele>716.6666666666666</ele><time>2026-05-01T08:52:28.977Z</time></trkpt><trkpt lat="40.7460577" lon="14.8257315"><ele>717.0</ele><time>2026-05-01T08:52:29.976Z</time></trkpt><trkpt lat="40.7460504" lon="14.8256283"><ele>717.3333333333334</ele><time>2026-05-01T08:52:30.966Z</time></trkpt><trkpt lat="40.746044" lon="14.8255264"><ele>717.6666666666667</ele><time>2026-05-01T08:52:31.971Z</time></trkpt><trkpt lat="40.746038" lon="14.8254319"><ele>718.0</ele><time>2026-05-01T08:52:32.965Z</time></trkpt><trkpt lat="40.7460243" lon="14.8252969"><ele>718.0</ele><time>2026-05-01T08:52:35.041Z</time></trkpt><trkpt lat="40.7459584" lon="14.8252057"><ele>718.0</ele><time>2026-05-01T08:52:36.981Z</time></trkpt><trkpt lat="40.7458925" lon="14.8250754"><ele>718.0</ele><time>2026-05-01T08:52:38.982Z</time></trkpt><trkpt lat="40.7457956" lon="14.8249687"><ele>718.0</ele><time>2026-05-01T08:52:40.984Z</time></trkpt><trkpt lat="40.7457369" lon="14.8249124"><ele>718.0</ele><time>2026-05-01T08:52:41.976Z</time></trkpt><trkpt lat="40.745693" lon="14.8248447"><ele>719.8</ele><time>2026-05-01T08:52:42.985Z</time></trkpt><trkpt lat="40.7456308" lon="14.8247153"><ele>721.5999999999999</ele><time>2026-05-01T08:52:44.984Z</time></trkpt><trkpt lat="40.7455864" lon="14.8246387"><ele>723.4000000000001</ele><time>2026-05-01T08:52:46.974Z</time></trkpt><trkpt lat="40.7455529" lon="14.8245152"><ele>725.2</ele><time>2026-05-01T08:52:49.98Z</time></trkpt><trkpt lat="40.7455044" lon="14.8244361"><ele>727.0</ele><time>2026-05-01T08:52:51.985Z</time></trkpt><trkpt lat="40.7454467" lon="14.8243441"><ele>727.1666666666667</ele><time>2026-05-01T08:52:54.99Z</time></trkpt><trkpt lat="40.7453951" lon="14.82421"><ele>727.3333333333334</ele><time>2026-05-01T08:52:56.987Z</time></trkpt><trkpt lat="40.7453702" lon="14.8241251"><ele>727.5</ele><time>2026-05-01T08:52:57.991Z</time></trkpt><trkpt lat="40.7453472" lon="14.8240391"><ele>727.6666666666666</ele><time>2026-05-01T08:52:58.986Z</time></trkpt><trkpt lat="40.745329" lon="14.823949"><ele>727.8333333333333</ele><time>2026-05-01T08:53:00.02Z</time></trkpt><trkpt lat="40.7452711" lon="14.8238164"><ele>728.0</ele><time>2026-05-01T08:53:01.975Z</time></trkpt><trkpt lat="40.745208" lon="14.8236983"><ele>728.0</ele><time>2026-05-01T08:53:03.978Z</time></trkpt><trkpt lat="40.7451648" lon="14.8236202"><ele>728.0</ele><time>2026-05-01T08:53:05.985Z</time></trkpt><trkpt lat="40.7451148" lon="14.8235592"><ele>728.0</ele><time>2026-05-01T08:53:09.979Z</time></trkpt><trkpt lat="40.7450416" lon="14.8235004"><ele>728.0</ele><time>2026-05-01T08:53:15.027Z</time></trkpt><trkpt lat="40.7449805" lon="14.8234543"><ele>728.0</ele><time>2026-05-01T08:53:17.979Z</time></trkpt><trkpt lat="40.7448879" lon="14.8233938"><ele>728.0</ele><time>2026-05-01T08:53:19.983Z</time></trkpt><trkpt lat="40.7448277" lon="14.8233587"><ele>728.2</ele><time>2026-05-01T08:53:20.984Z</time></trkpt><trkpt lat="40.7447446" lon="14.8233053"><ele>728.4</ele><time>2026-05-01T08:53:22.98Z</time></trkpt><trkpt lat="40.7446526" lon="14.823277"><ele>728.6</ele><time>2026-05-01T08:53:24.983Z</time></trkpt><trkpt lat="40.7445635" lon="14.8232259"><ele>728.8000000000001</ele><time>2026-05-01T08:53:26.958Z</time></trkpt><trkpt lat="40.7444859" lon="14.8231913"><ele>729.0</ele><time>2026-05-01T08:53:28.989Z</time></trkpt><trkpt lat="40.7444065" lon="14.8231503"><ele>727.4000000000001</ele><time>2026-05-01T08:53:30.992Z</time></trkpt><trkpt lat="40.7442797" lon="14.8230679"><ele>725.8</ele><time>2026-05-01T08:53:33.051Z</time></trkpt><trkpt lat="40.7442051" lon="14.8230052"><ele>724.2</ele><time>2026-05-01T08:53:33.97Z</time></trkpt><trkpt lat="40.7441383" lon="14.8229433"><ele>722.5999999999999</ele><time>2026-05-01T08:53:34.979Z</time></trkpt><trkpt lat="40.7440811" lon="14.8228841"><ele>721.0</ele><time>2026-05-01T08:53:35.976Z</time></trkpt><trkpt lat="40.7440193" lon="14.8228188"><ele>721.0</ele><time>2026-05-01T08:53:36.979Z</time></trkpt><trkpt lat="40.7439637" lon="14.8227617"><ele>721.0</ele><time>2026-05-01T08:53:37.983Z</time></trkpt><trkpt lat="40.743912" lon="14.8227119"><ele>721.0</ele><time>2026-05-01T08:53:38.977Z</time></trkpt><trkpt lat="40.7438656" lon="14.8226538"><ele>721.0</ele><time>2026-05-01T08:53:39.979Z</time></trkpt><trkpt lat="40.743815" lon="14.8225948"><ele>721.0</ele><time>2026-05-01T08:53:40.982Z</time></trkpt><trkpt lat="40.7437244" lon="14.8224972"><ele>721.0</ele><time>2026-05-01T08:53:42.976Z</time></trkpt><trkpt lat="40.7436395" lon="14.8224017"><ele>720.8</ele><time>2026-05-01T08:53:44.98Z</time></trkpt><trkpt lat="40.7435873" lon="14.8223125"><ele>720.5999999999999</ele><time>2026-05-01T08:53:46.984Z</time></trkpt><trkpt lat="40.7435724" lon="14.822179"><ele>720.4</ele><time>2026-05-01T08:53:48.974Z</time></trkpt><trkpt lat="40.7435765" lon="14.8220173"><ele>720.2</ele><time>2026-05-01T08:53:50.97Z</time></trkpt><trkpt lat="40.7435784" lon="14.8219158"><ele>720.0</ele><time>2026-05-01T08:53:51.965Z</time></trkpt><trkpt lat="40.7435731" lon="14.8217892"><ele>717.2</ele><time>2026-05-01T08:53:52.972Z</time></trkpt><trkpt lat="40.7435706" lon="14.821663"><ele>714.4</ele><time>2026-05-01T08:53:53.966Z</time></trkpt><trkpt lat="40.7435752" lon="14.8215548"><ele>711.5999999999999</ele><time>2026-05-01T08:53:54.966Z</time></trkpt><trkpt lat="40.7435814" lon="14.8214577"><ele>708.8</ele><time>2026-05-01T08:53:55.979Z</time></trkpt><trkpt lat="40.7435697" lon="14.8213093"><ele>706.0</ele><time>2026-05-01T08:53:57.952Z</time></trkpt><trkpt lat="40.7435564" lon="14.8211528"><ele>709.5</ele><time>2026-05-01T08:53:59.968Z</time></trkpt><trkpt lat="40.7435359" lon="14.8210458"><ele>713.0</ele><time>2026-05-01T08:54:00.987Z</time></trkpt><trkpt lat="40.7435121" lon="14.8209258"><ele>716.5</ele><time>2026-05-01T08:54:01.972Z</time></trkpt><trkpt lat="40.7434861" lon="14.8208078"><ele>720.0</ele><time>2026-05-01T08:54:02.967Z</time></trkpt><trkpt lat="40.7434551" lon="14.820699"><ele>723.5</ele><time>2026-05-01T08:54:03.969Z</time></trkpt><trkpt lat="40.7434211" lon="14.8206093"><ele>727.0</ele><time>2026-05-01T08:54:04.969Z</time></trkpt><trkpt lat="40.7433714" lon="14.8204631"><ele>728.1666666666667</ele><time>2026-05-01T08:54:06.988Z</time></trkpt><trkpt lat="40.7433612" lon="14.8203763"><ele>729.3333333333334</ele><time>2026-05-01T08:54:07.971Z</time></trkpt><trkpt lat="40.7433578" lon="14.8202744"><ele>730.5</ele><time>2026-05-01T08:54:08.959Z</time></trkpt><trkpt lat="40.7433587" lon="14.8201736"><ele>731.6666666666666</ele><time>2026-05-01T08:54:09.971Z</time></trkpt><trkpt lat="40.7433746" lon="14.8200915"><ele>732.8333333333333</ele><time>2026-05-01T08:54:10.977Z</time></trkpt><trkpt lat="40.7433956" lon="14.819956"><ele>734.0</ele><time>2026-05-01T08:54:12.979Z</time></trkpt><trkpt lat="40.7434258" lon="14.8197947"><ele>734.7142857142857</ele><time>2026-05-01T08:54:14.969Z</time></trkpt><trkpt lat="40.7434429" lon="14.8197044"><ele>735.4285714285714</ele><time>2026-05-01T08:54:15.968Z</time></trkpt><trkpt lat="40.7434569" lon="14.8196119"><ele>736.1428571428571</ele><time>2026-05-01T08:54:16.967Z</time></trkpt><trkpt lat="40.7434669" lon="14.8195151"><ele>736.8571428571429</ele><time>2026-05-01T08:54:17.968Z</time></trkpt><trkpt lat="40.7434728" lon="14.8194278"><ele>737.5714285714287</ele><time>2026-05-01T08:54:18.979Z</time></trkpt><trkpt lat="40.7434606" lon="14.8193137"><ele>738.2857142857143</ele><time>2026-05-01T08:54:21.05Z</time></trkpt><trkpt lat="40.7434304" lon="14.8192268"><ele>739.0</ele><time>2026-05-01T08:54:22.982Z</time></trkpt><trkpt lat="40.7433841" lon="14.8191371"><ele>736.6666666666667</ele><time>2026-05-01T08:54:25.033Z</time></trkpt><trkpt lat="40.743342" lon="14.8190475"><ele>734.3333333333334</ele><time>2026-05-01T08:54:26.977Z</time></trkpt><trkpt lat="40.7433005" lon="14.8189433"><ele>732.0</ele><time>2026-05-01T08:54:28.974Z</time></trkpt><trkpt lat="40.743257" lon="14.8188639"><ele>729.6666666666666</ele><time>2026-05-01T08:54:30.975Z</time></trkpt><trkpt lat="40.7432011" lon="14.8187807"><ele>727.3333333333333</ele><time>2026-05-01T08:54:32.972Z</time></trkpt><trkpt lat="40.7431402" lon="14.8187"><ele>725.0</ele><time>2026-05-01T08:54:34.972Z</time></trkpt><trkpt lat="40.7430683" lon="14.8186305"><ele>725.0</ele><time>2026-05-01T08:54:36.969Z</time></trkpt><trkpt lat="40.7429978" lon="14.8185557"><ele>725.0</ele><time>2026-05-01T08:54:38.981Z</time></trkpt><trkpt lat="40.7429351" lon="14.8185177"><ele>725.0</ele><time>2026-05-01T08:54:40.952Z</time></trkpt><trkpt lat="40.7428686" lon="14.818483"><ele>725.0</ele><time>2026-05-01T08:54:42.974Z</time></trkpt><trkpt lat="40.7428085" lon="14.8184293"><ele>725.0</ele><time>2026-05-01T08:54:45.006Z</time></trkpt><trkpt lat="40.7427529" lon="14.8183721"><ele>725.0</ele><time>2026-05-01T08:54:46.975Z</time></trkpt><trkpt lat="40.7427086" lon="14.8182794"><ele>718.8333333333333</ele><time>2026-05-01T08:54:49.98Z</time></trkpt><trkpt lat="40.74268" lon="14.8181819"><ele>712.6666666666666</ele><time>2026-05-01T08:54:54.945Z</time></trkpt><trkpt lat="40.742664" lon="14.8180883"><ele>706.5</ele><time>2026-05-01T08:54:58.984Z</time></trkpt><trkpt lat="40.7426638" lon="14.8179881"><ele>700.3333333333334</ele><time>2026-05-01T08:55:02.968Z</time></trkpt><trkpt lat="40.7426748" lon="14.8178899"><ele>694.1666666666667</ele><time>2026-05-01T08:55:05.973Z</time></trkpt><trkpt lat="40.7426667" lon="14.8177912"><ele>688.0</ele><time>2026-05-01T08:55:08.993Z</time></trkpt><trkpt lat="40.7426585" lon="14.8176794"><ele>686.0</ele><time>2026-05-01T08:55:11.951Z</time></trkpt><trkpt lat="40.7426493" lon="14.8175827"><ele>684.0</ele><time>2026-05-01T08:55:14.977Z</time></trkpt><trkpt lat="40.7426855" lon="14.8175017"><ele>682.0</ele><time>2026-05-01T08:55:25.976Z</time></trkpt><trkpt lat="40.7427717" lon="14.8174807"><ele>680.0</ele><time>2026-05-01T08:55:27.979Z</time></trkpt><trkpt lat="40.7428784" lon="14.817466"><ele>678.0</ele><time>2026-05-01T08:55:30.03Z</time></trkpt><trkpt lat="40.742975" lon="14.8174986"><ele>676.0</ele><time>2026-05-01T08:55:32.04Z</time></trkpt><trkpt lat="40.7430688" lon="14.8175599"><ele>675.4</ele><time>2026-05-01T08:55:33.971Z</time></trkpt><trkpt lat="40.74317" lon="14.8176432"><ele>674.8</ele><time>2026-05-01T08:55:35.97Z</time></trkpt><trkpt lat="40.7432537" lon="14.8177279"><ele>674.1999999999999</ele><time>2026-05-01T08:55:37.993Z</time></trkpt><trkpt lat="40.7433338" lon="14.817821"><ele>673.5999999999999</ele><time>2026-05-01T08:55:39.974Z</time></trkpt><trkpt lat="40.7433781" lon="14.8178828"><ele>673.0</ele><time>2026-05-01T08:55:46.037Z</time></trkpt><trkpt lat="40.7434511" lon="14.8179126"><ele>675.1666666666667</ele><time>2026-05-01T08:55:48.973Z</time></trkpt><trkpt lat="40.743536" lon="14.8179787"><ele>677.3333333333334</ele><time>2026-05-01T08:55:50.98Z</time></trkpt><trkpt lat="40.7436284" lon="14.8180888"><ele>679.5</ele><time>2026-05-01T08:55:53Z</time></trkpt><trkpt lat="40.7436874" lon="14.8181525"><ele>681.6666666666666</ele><time>2026-05-01T08:55:54.963Z</time></trkpt><trkpt lat="40.743753" lon="14.8181814"><ele>683.8333333333333</ele><time>2026-05-01T08:55:56.978Z</time></trkpt><trkpt lat="40.7438312" lon="14.8181726"><ele>686.0</ele><time>2026-05-01T08:55:58.977Z</time></trkpt><trkpt lat="40.743923" lon="14.8181923"><ele>686.0</ele><time>2026-05-01T08:56:00.983Z</time></trkpt><trkpt lat="40.7440119" lon="14.8182067"><ele>686.0</ele><time>2026-05-01T08:56:02.994Z</time></trkpt><trkpt lat="40.7440926" lon="14.818219"><ele>686.0</ele><time>2026-05-01T08:56:04.992Z</time></trkpt><trkpt lat="40.744189" lon="14.8182459"><ele>686.0</ele><time>2026-05-01T08:56:06.986Z</time></trkpt><trkpt lat="40.7442585" lon="14.8182915"><ele>686.0</ele><time>2026-05-01T08:56:08.984Z</time></trkpt><trkpt lat="40.744342" lon="14.8183357"><ele>686.0</ele><time>2026-05-01T08:56:10.992Z</time></trkpt><trkpt lat="40.7444228" lon="14.8183732"><ele>680.3333333333333</ele><time>2026-05-01T08:56:12.989Z</time></trkpt><trkpt lat="40.7445043" lon="14.8183893"><ele>674.6666666666666</ele><time>2026-05-01T08:56:14.99Z</time></trkpt><trkpt lat="40.7445892" lon="14.8184105"><ele>669.0</ele><time>2026-05-01T08:56:16.979Z</time></trkpt><trkpt lat="40.744674" lon="14.818434"><ele>663.3333333333334</ele><time>2026-05-01T08:56:18.975Z</time></trkpt><trkpt lat="40.7447486" lon="14.8184559"><ele>657.6666666666667</ele><time>2026-05-01T08:56:20.975Z</time></trkpt><trkpt lat="40.7448359" lon="14.8184738"><ele>652.0</ele><time>2026-05-01T08:56:23.041Z</time></trkpt><trkpt lat="40.7448977" lon="14.818511"><ele>650.6</ele><time>2026-05-01T08:56:25.964Z</time></trkpt><trkpt lat="40.7449018" lon="14.8186263"><ele>649.2</ele><time>2026-05-01T08:56:28.968Z</time></trkpt><trkpt lat="40.744918" lon="14.8187105"><ele>647.8</ele><time>2026-05-01T08:56:31.966Z</time></trkpt><trkpt lat="40.7449011" lon="14.8187946"><ele>646.4</ele><time>2026-05-01T08:56:34.977Z</time></trkpt><trkpt lat="40.7448617" lon="14.8189392"><ele>645.0</ele><time>2026-05-01T08:56:37.962Z</time></trkpt><trkpt lat="40.7448432" lon="14.8190924"><ele>645.0</ele><time>2026-05-01T08:56:39.971Z</time></trkpt><trkpt lat="40.7448002" lon="14.8192251"><ele>645.0</ele><time>2026-05-01T08:56:42.085Z</time></trkpt><trkpt lat="40.7447875" lon="14.8193133"><ele>645.0</ele><time>2026-05-01T08:56:43.97Z</time></trkpt><trkpt lat="40.7447984" lon="14.8194197"><ele>645.0</ele><time>2026-05-01T08:56:46.97Z</time></trkpt><trkpt lat="40.744815" lon="14.8195128"><ele>645.0</ele><time>2026-05-01T08:56:48.95Z</time></trkpt><trkpt lat="40.7448272" lon="14.819634"><ele>645.0</ele><time>2026-05-01T08:56:50.976Z</time></trkpt><trkpt lat="40.7448253" lon="14.8197411"><ele>643.1666666666666</ele><time>2026-05-01T08:56:52.961Z</time></trkpt><trkpt lat="40.7448303" lon="14.8198594"><ele>641.3333333333334</ele><time>2026-05-01T08:56:54.973Z</time></trkpt><trkpt lat="40.7448217" lon="14.8199597"><ele>639.5</ele><time>2026-05-01T08:56:56.958Z</time></trkpt><trkpt lat="40.7448092" lon="14.820051"><ele>637.6666666666667</ele><time>2026-05-01T08:56:57.963Z</time></trkpt><trkpt lat="40.7448008" lon="14.8201547"><ele>635.8333333333334</ele><time>2026-05-01T08:56:59.966Z</time></trkpt><trkpt lat="40.7448105" lon="14.8202532"><ele>634.0</ele><time>2026-05-01T08:57:02.048Z</time></trkpt><trkpt lat="40.7448082" lon="14.8203414"><ele>634.0</ele><time>2026-05-01T08:57:03.976Z</time></trkpt><trkpt lat="40.7448064" lon="14.8204363"><ele>634.0</ele><time>2026-05-01T08:57:06.975Z</time></trkpt><trkpt lat="40.7448599" lon="14.8204939"><ele>634.0</ele><time>2026-05-01T08:57:11.97Z</time></trkpt><trkpt lat="40.7448909" lon="14.820576"><ele>634.0</ele><time>2026-05-01T08:57:16.973Z</time></trkpt><trkpt lat="40.7449005" lon="14.820681"><ele>634.0</ele><time>2026-05-01T08:57:21.976Z</time></trkpt><trkpt lat="40.7448922" lon="14.8208089"><ele>634.0</ele><time>2026-05-01T08:57:24.974Z</time></trkpt><trkpt lat="40.7448679" lon="14.8209174"><ele>637.4285714285714</ele><time>2026-05-01T08:57:27.073Z</time></trkpt><trkpt lat="40.7448856" lon="14.8210047"><ele>640.8571428571429</ele><time>2026-05-01T08:57:31.949Z</time></trkpt><trkpt lat="40.7448733" lon="14.821102"><ele>644.2857142857142</ele><time>2026-05-01T08:57:35.028Z</time></trkpt><trkpt lat="40.7448552" lon="14.8211997"><ele>647.7142857142858</ele><time>2026-05-01T08:57:37.967Z</time></trkpt><trkpt lat="40.744875" lon="14.82129"><ele>651.1428571428571</ele><time>2026-05-01T08:57:42.973Z</time></trkpt><trkpt lat="40.7448717" lon="14.8213745"><ele>654.5714285714286</ele><time>2026-05-01T08:57:45.05Z</time></trkpt><trkpt lat="40.7449215" lon="14.8214263"><ele>658.0</ele><time>2026-05-01T08:57:48.961Z</time></trkpt><trkpt lat="40.7449667" lon="14.8214862"><ele>658.0</ele><time>2026-05-01T08:57:54.966Z</time></trkpt><trkpt lat="40.7450155" lon="14.8215592"><ele>658.0</ele><time>2026-05-01T08:58:25.971Z</time></trkpt><trkpt lat="40.7450952" lon="14.8216013"><ele>658.0</ele><time>2026-05-01T08:58:29.968Z</time></trkpt><trkpt lat="40.7451771" lon="14.8216429"><ele>658.0</ele><time>2026-05-01T08:58:32.974Z</time></trkpt><trkpt lat="40.7452478" lon="14.8216619"><ele>658.0</ele><time>2026-05-01T08:58:34.97Z</time></trkpt><trkpt lat="40.745322" lon="14.8216759"><ele>658.0</ele><time>2026-05-01T08:58:37.032Z</time></trkpt><trkpt lat="40.7454123" lon="14.821705"><ele>653.1999999999999</ele><time>2026-05-01T08:58:39.975Z</time></trkpt><trkpt lat="40.7455016" lon="14.8217261"><ele>648.4</ele><time>2026-05-01T08:58:42.044Z</time></trkpt><trkpt lat="40.7455649" lon="14.8217358"><ele>643.5999999999999</ele><time>2026-05-01T08:58:42.98Z</time></trkpt><trkpt lat="40.7456529" lon="14.8217332"><ele>638.8</ele><time>2026-05-01T08:58:43.98Z</time></trkpt><trkpt lat="40.74573" lon="14.8217232"><ele>634.0</ele><time>2026-05-01T08:58:44.972Z</time></trkpt><trkpt lat="40.745874" lon="14.8217119"><ele>634.0</ele><time>2026-05-01T08:58:46.966Z</time></trkpt><trkpt lat="40.7459641" lon="14.8217046"><ele>634.0</ele><time>2026-05-01T08:58:47.97Z</time></trkpt><trkpt lat="40.7460573" lon="14.8216843"><ele>634.0</ele><time>2026-05-01T08:58:48.98Z</time></trkpt><trkpt lat="40.7461361" lon="14.8216732"><ele>634.0</ele><time>2026-05-01T08:58:49.99Z</time></trkpt><trkpt lat="40.746204" lon="14.821663"><ele>634.0</ele><time>2026-05-01T08:58:50.963Z</time></trkpt><trkpt lat="40.7462767" lon="14.8216962"><ele>634.0</ele><time>2026-05-01T08:58:52.97Z</time></trkpt><trkpt lat="40.7463263" lon="14.8217682"><ele>633.4285714285714</ele><time>2026-05-01T08:58:54.975Z</time></trkpt><trkpt lat="40.7463536" lon="14.8218439"><ele>632.8571428571429</ele><time>2026-05-01T08:58:56.973Z</time></trkpt><trkpt lat="40.7463907" lon="14.82192"><ele>632.2857142857142</ele><time>2026-05-01T08:58:59.974Z</time></trkpt><trkpt lat="40.7464138" lon="14.8220035"><ele>631.7142857142858</ele><time>2026-05-01T08:59:02.966Z</time></trkpt><trkpt lat="40.7464645" lon="14.8221091"><ele>631.1428571428571</ele><time>2026-05-01T08:59:06.047Z</time></trkpt><trkpt lat="40.7464828" lon="14.8222161"><ele>630.5714285714286</ele><time>2026-05-01T08:59:07.969Z</time></trkpt><trkpt lat="40.7465406" lon="14.8222695"><ele>630.0</ele><time>2026-05-01T08:59:10.973Z</time></trkpt><trkpt lat="40.7466313" lon="14.8223147"><ele>630.0</ele><time>2026-05-01T08:59:13.979Z</time></trkpt><trkpt lat="40.7467347" lon="14.8223722"><ele>630.0</ele><time>2026-05-01T08:59:15.969Z</time></trkpt><trkpt lat="40.7468149" lon="14.8224303"><ele>630.0</ele><time>2026-05-01T08:59:18.035Z</time></trkpt><trkpt lat="40.7468921" lon="14.8224824"><ele>630.0</ele><time>2026-05-01T08:59:19.972Z</time></trkpt><trkpt lat="40.7469033" lon="14.8226044"><ele>630.0</ele><time>2026-05-01T08:59:21.978Z</time></trkpt><trkpt lat="40.7469028" lon="14.8226896"><ele>630.0</ele><time>2026-05-01T08:59:22.972Z</time></trkpt><trkpt lat="40.7469273" lon="14.8228213"><ele>628.4</ele><time>2026-05-01T08:59:24.967Z</time></trkpt><trkpt lat="40.7469227" lon="14.822951"><ele>626.8</ele><time>2026-05-01T08:59:27.055Z</time></trkpt><trkpt lat="40.7469184" lon="14.8230464"><ele>625.2</ele><time>2026-05-01T08:59:28.968Z</time></trkpt><trkpt lat="40.7470211" lon="14.8230786"><ele>623.6</ele><time>2026-05-01T08:59:31.97Z</time></trkpt><trkpt lat="40.7471093" lon="14.8230907"><ele>622.0</ele><time>2026-05-01T08:59:33.963Z</time></trkpt><trkpt lat="40.7472154" lon="14.8230543"><ele>622.0</ele><time>2026-05-01T08:59:35.954Z</time></trkpt><trkpt lat="40.7472877" lon="14.8230471"><ele>622.0</ele><time>2026-05-01T08:59:36.963Z</time></trkpt><trkpt lat="40.7473677" lon="14.8230289"><ele>622.0</ele><time>2026-05-01T08:59:37.967Z</time></trkpt><trkpt lat="40.7474498" lon="14.8230244"><ele>622.0</ele><time>2026-05-01T08:59:38.954Z</time></trkpt><trkpt lat="40.7475299" lon="14.8230189"><ele>622.0</ele><time>2026-05-01T08:59:39.964Z</time></trkpt><trkpt lat="40.7476083" lon="14.8230162"><ele>622.0</ele><time>2026-05-01T08:59:40.973Z</time></trkpt><trkpt lat="40.7476898" lon="14.8230081"><ele>618.4285714285714</ele><time>2026-05-01T08:59:41.951Z</time></trkpt><trkpt lat="40.7477553" lon="14.8230145"><ele>614.8571428571429</ele><time>2026-05-01T08:59:42.97Z</time></trkpt><trkpt lat="40.7478288" lon="14.8230476"><ele>611.2857142857143</ele><time>2026-05-01T08:59:43.972Z</time></trkpt><trkpt lat="40.7478909" lon="14.8230882"><ele>607.7142857142858</ele><time>2026-05-01T08:59:44.965Z</time></trkpt><trkpt lat="40.7479487" lon="14.8231369"><ele>604.1428571428571</ele><time>2026-05-01T08:59:46.066Z</time></trkpt><trkpt lat="40.7479934" lon="14.8231998"><ele>600.5714285714287</ele><time>2026-05-01T08:59:47.03Z</time></trkpt><trkpt lat="40.7480511" lon="14.8232841"><ele>597.0</ele><time>2026-05-01T08:59:48.969Z</time></trkpt><trkpt lat="40.7481294" lon="14.8233326"><ele>597.0</ele><time>2026-05-01T08:59:50.973Z</time></trkpt><trkpt lat="40.7482285" lon="14.8233844"><ele>597.0</ele><time>2026-05-01T08:59:52.97Z</time></trkpt><trkpt lat="40.7483097" lon="14.8233979"><ele>597.0</ele><time>2026-05-01T08:59:55.962Z</time></trkpt><trkpt lat="40.7483795" lon="14.8234217"><ele>597.0</ele><time>2026-05-01T08:59:58.963Z</time></trkpt><trkpt lat="40.7484167" lon="14.823504"><ele>597.0</ele><time>2026-05-01T09:00:02.977Z</time></trkpt><trkpt lat="40.7484471" lon="14.8235885"><ele>597.0</ele><time>2026-05-01T09:00:04.971Z</time></trkpt><trkpt lat="40.7485119" lon="14.8236604"><ele>591.8333333333334</ele><time>2026-05-01T09:00:06.97Z</time></trkpt><trkpt lat="40.7485797" lon="14.8236942"><ele>586.6666666666666</ele><time>2026-05-01T09:00:08.952Z</time></trkpt><trkpt lat="40.7486904" lon="14.8237278"><ele>581.5</ele><time>2026-05-01T09:00:10.97Z</time></trkpt><trkpt lat="40.7487463" lon="14.8236694"><ele>576.3333333333333</ele><time>2026-05-01T09:00:12.972Z</time></trkpt><trkpt lat="40.7487946" lon="14.8236"><ele>571.1666666666666</ele><time>2026-05-01T09:00:14.987Z</time></trkpt><trkpt lat="40.7488727" lon="14.8235896"><ele>566.0</ele><time>2026-05-01T09:00:16.972Z</time></trkpt><trkpt lat="40.7489334" lon="14.8235471"><ele>566.0</ele><time>2026-05-01T09:00:18.975Z</time></trkpt><trkpt lat="40.7489999" lon="14.8235094"><ele>566.0</ele><time>2026-05-01T09:00:20.978Z</time></trkpt><trkpt lat="40.7490829" lon="14.8234901"><ele>566.0</ele><time>2026-05-01T09:00:22.982Z</time></trkpt><trkpt lat="40.7491554" lon="14.823501"><ele>566.0</ele><time>2026-05-01T09:00:25.968Z</time></trkpt><trkpt lat="40.7492148" lon="14.8235346"><ele>566.0</ele><time>2026-05-01T09:00:27.976Z</time></trkpt><trkpt lat="40.7492986" lon="14.8235485"><ele>566.0</ele><time>2026-05-01T09:00:29.978Z</time></trkpt><trkpt lat="40.7494183" lon="14.8235204"><ele>561.2</ele><time>2026-05-01T09:00:31.982Z</time></trkpt><trkpt lat="40.7495001" lon="14.8234782"><ele>556.4000000000001</ele><time>2026-05-01T09:00:32.947Z</time></trkpt><trkpt lat="40.7495768" lon="14.8233976"><ele>551.6</ele><time>2026-05-01T09:00:34.965Z</time></trkpt><trkpt lat="40.7496279" lon="14.8232939"><ele>546.8000000000001</ele><time>2026-05-01T09:00:36.972Z</time></trkpt><trkpt lat="40.7496957" lon="14.8232072"><ele>542.0</ele><time>2026-05-01T09:00:38.979Z</time></trkpt><trkpt lat="40.7497767" lon="14.823147"><ele>542.0</ele><time>2026-05-01T09:00:40.974Z</time></trkpt><trkpt lat="40.7498728" lon="14.8231031"><ele>542.0</ele><time>2026-05-01T09:00:42.974Z</time></trkpt><trkpt lat="40.7499447" lon="14.8230365"><ele>542.0</ele><time>2026-05-01T09:00:44.975Z</time></trkpt><trkpt lat="40.7499977" lon="14.8229788"><ele>542.0</ele><time>2026-05-01T09:00:46.97Z</time></trkpt><trkpt lat="40.7500292" lon="14.8228993"><ele>542.0</ele><time>2026-05-01T09:00:49.981Z</time></trkpt><trkpt lat="40.7500926" lon="14.8228731"><ele>542.0</ele><time>2026-05-01T09:00:53.975Z</time></trkpt><trkpt lat="40.7501783" lon="14.8228272"><ele>543.0</ele><time>2026-05-01T09:00:57.973Z</time></trkpt><trkpt lat="40.7502526" lon="14.8227322"><ele>544.0</ele><time>2026-05-01T09:01:00.973Z</time></trkpt><trkpt lat="40.7502972" lon="14.8226604"><ele>545.0</ele><time>2026-05-01T09:01:02.952Z</time></trkpt><trkpt lat="40.7503476" lon="14.8225774"><ele>546.0</ele><time>2026-05-01T09:01:05.97Z</time></trkpt><trkpt lat="40.7503799" lon="14.8224798"><ele>547.0</ele><time>2026-05-01T09:01:07.986Z</time></trkpt><trkpt lat="40.7504115" lon="14.8223549"><ele>548.0</ele><time>2026-05-01T09:01:09.974Z</time></trkpt><trkpt lat="40.7504357" lon="14.8222064"><ele>543.0</ele><time>2026-05-01T09:01:11.975Z</time></trkpt><trkpt lat="40.7504802" lon="14.8221189"><ele>538.0</ele><time>2026-05-01T09:01:13.977Z</time></trkpt><trkpt lat="40.7505543" lon="14.8220474"><ele>533.0</ele><time>2026-05-01T09:01:15.956Z</time></trkpt><trkpt lat="40.7506534" lon="14.8220242"><ele>528.0</ele><time>2026-05-01T09:01:17.975Z</time></trkpt><trkpt lat="40.7507524" lon="14.821973"><ele>523.0</ele><time>2026-05-01T09:01:18.968Z</time></trkpt><trkpt lat="40.7508498" lon="14.8219393"><ele>523.0</ele><time>2026-05-01T09:01:19.974Z</time></trkpt><trkpt lat="40.7509553" lon="14.8218929"><ele>523.0</ele><time>2026-05-01T09:01:21.972Z</time></trkpt><trkpt lat="40.751035" lon="14.8217513"><ele>523.0</ele><time>2026-05-01T09:01:23.972Z</time></trkpt><trkpt lat="40.7510766" lon="14.8216858"><ele>523.0</ele><time>2026-05-01T09:01:24.976Z</time></trkpt><trkpt lat="40.7511675" lon="14.821576"><ele>523.0</ele><time>2026-05-01T09:01:26.976Z</time></trkpt><trkpt lat="40.7512138" lon="14.8215171"><ele>519.4</ele><time>2026-05-01T09:01:27.971Z</time></trkpt><trkpt lat="40.7513027" lon="14.8214258"><ele>515.8</ele><time>2026-05-01T09:01:29.967Z</time></trkpt><trkpt lat="40.7513916" lon="14.821374"><ele>512.2</ele><time>2026-05-01T09:01:31.96Z</time></trkpt><trkpt lat="40.7514658" lon="14.8213284"><ele>508.6</ele><time>2026-05-01T09:01:33.945Z</time></trkpt><trkpt lat="40.7515397" lon="14.8212365"><ele>505.0</ele><time>2026-05-01T09:01:35.965Z</time></trkpt><trkpt lat="40.7515965" lon="14.8211732"><ele>505.0</ele><time>2026-05-01T09:01:37.984Z</time></trkpt><trkpt lat="40.7516425" lon="14.8211139"><ele>504.99999999999994</ele><time>2026-05-01T09:01:39.968Z</time></trkpt><trkpt lat="40.7517023" lon="14.8210671"><ele>505.0</ele><time>2026-05-01T09:01:41.975Z</time></trkpt><trkpt lat="40.7517739" lon="14.8210284"><ele>505.0</ele><time>2026-05-01T09:01:43.973Z</time></trkpt><trkpt lat="40.7518509" lon="14.8209979"><ele>504.99999999999994</ele><time>2026-05-01T09:01:45.943Z</time></trkpt><trkpt lat="40.751919" lon="14.8209384"><ele>505.0</ele><time>2026-05-01T09:01:47.974Z</time></trkpt><trkpt lat="40.7519735" lon="14.8208849"><ele>505.0</ele><time>2026-05-01T09:01:48.974Z</time></trkpt><trkpt lat="40.7520593" lon="14.8208059"><ele>501.33333333333337</ele><time>2026-05-01T09:01:50.977Z</time></trkpt><trkpt lat="40.7521268" lon="14.8207623"><ele>497.6666666666667</ele><time>2026-05-01T09:01:52.966Z</time></trkpt><trkpt lat="40.752126" lon="14.8206778"><ele>494.0</ele><time>2026-05-01T09:01:54.969Z</time></trkpt><trkpt lat="40.7521284" lon="14.8205545"><ele>490.33333333333337</ele><time>2026-05-01T09:01:56.984Z</time></trkpt><trkpt lat="40.7521705" lon="14.8204322"><ele>486.6666666666667</ele><time>2026-05-01T09:01:58.975Z</time></trkpt><trkpt lat="40.7522071" lon="14.8203582"><ele>483.0</ele><time>2026-05-01T09:01:59.976Z</time></trkpt><trkpt lat="40.7522454" lon="14.8202813"><ele>479.0</ele><time>2026-05-01T09:02:00.968Z</time></trkpt><trkpt lat="40.7523801" lon="14.8200661"><ele>475.0</ele><time>2026-05-01T09:02:01.981Z</time></trkpt><trkpt lat="40.7524274" lon="14.819884"><ele>471.0</ele><time>2026-05-01T09:02:02.978Z</time></trkpt><trkpt lat="40.7524685" lon="14.8197221"><ele>471.0</ele><time>2026-05-01T09:02:03.973Z</time></trkpt><trkpt lat="40.7525129" lon="14.8196115"><ele>471.0</ele><time>2026-05-01T09:02:04.966Z</time></trkpt><trkpt lat="40.7525588" lon="14.8195258"><ele>471.0</ele><time>2026-05-01T09:02:05.977Z</time></trkpt><trkpt lat="40.7526149" lon="14.8194196"><ele>471.0</ele><time>2026-05-01T09:02:06.965Z</time></trkpt><trkpt lat="40.7526812" lon="14.8192969"><ele>471.0</ele><time>2026-05-01T09:02:07.963Z</time></trkpt><trkpt lat="40.7527595" lon="14.8191664"><ele>468.6</ele><time>2026-05-01T09:02:08.96Z</time></trkpt><trkpt lat="40.7528346" lon="14.8190516"><ele>466.20000000000005</ele><time>2026-05-01T09:02:09.981Z</time></trkpt><trkpt lat="40.7529059" lon="14.8189399"><ele>463.79999999999995</ele><time>2026-05-01T09:02:10.961Z</time></trkpt><trkpt lat="40.7529686" lon="14.8188254"><ele>461.4</ele><time>2026-05-01T09:02:11.968Z</time></trkpt><trkpt lat="40.7530363" lon="14.8187229"><ele>459.0</ele><time>2026-05-01T09:02:12.972Z</time></trkpt><trkpt lat="40.7530993" lon="14.8186419"><ele>459.0</ele><time>2026-05-01T09:02:13.972Z</time></trkpt><trkpt lat="40.7531701" lon="14.8185778"><ele>459.0</ele><time>2026-05-01T09:02:14.971Z</time></trkpt><trkpt lat="40.7532324" lon="14.8185312"><ele>459.0</ele><time>2026-05-01T09:02:15.966Z</time></trkpt><trkpt lat="40.7532898" lon="14.8184908"><ele>459.0</ele><time>2026-05-01T09:02:16.973Z</time></trkpt><trkpt lat="40.7533502" lon="14.8184447"><ele>459.0</ele><time>2026-05-01T09:02:18.98Z</time></trkpt><trkpt lat="40.7534088" lon="14.8184989"><ele>459.0</ele><time>2026-05-01T09:02:20.972Z</time></trkpt><trkpt lat="40.7534904" lon="14.8185902"><ele>456.2</ele><time>2026-05-01T09:02:21.982Z</time></trkpt><trkpt lat="40.7535763" lon="14.8186765"><ele>453.4</ele><time>2026-05-01T09:02:22.974Z</time></trkpt><trkpt lat="40.7536427" lon="14.8187659"><ele>450.6</ele><time>2026-05-01T09:02:23.948Z</time></trkpt><trkpt lat="40.753689" lon="14.8188639"><ele>447.8</ele><time>2026-05-01T09:02:24.947Z</time></trkpt><trkpt lat="40.753731" lon="14.8189668"><ele>445.0</ele><time>2026-05-01T09:02:25.972Z</time></trkpt><trkpt lat="40.7537681" lon="14.819075"><ele>445.00000000000006</ele><time>2026-05-01T09:02:26.968Z</time></trkpt><trkpt lat="40.7537829" lon="14.8191759"><ele>445.0</ele><time>2026-05-01T09:02:27.974Z</time></trkpt><trkpt lat="40.7537878" lon="14.819295"><ele>445.0</ele><time>2026-05-01T09:02:28.961Z</time></trkpt><trkpt lat="40.753783" lon="14.8194131"><ele>445.0</ele><time>2026-05-01T09:02:29.972Z</time></trkpt><trkpt lat="40.7537792" lon="14.8195228"><ele>445.00000000000006</ele><time>2026-05-01T09:02:30.978Z</time></trkpt><trkpt lat="40.7537807" lon="14.8196288"><ele>445.0</ele><time>2026-05-01T09:02:31.986Z</time></trkpt><trkpt lat="40.7538002" lon="14.8197373"><ele>446.1666666666667</ele><time>2026-05-01T09:02:32.97Z</time></trkpt><trkpt lat="40.7538172" lon="14.8198386"><ele>447.33333333333337</ele><time>2026-05-01T09:02:33.971Z</time></trkpt><trkpt lat="40.753847" lon="14.8199441"><ele>448.5</ele><time>2026-05-01T09:02:34.976Z</time></trkpt><trkpt lat="40.7538729" lon="14.820035"><ele>449.66666666666663</ele><time>2026-05-01T09:02:35.968Z</time></trkpt><trkpt lat="40.7539312" lon="14.8201023"><ele>450.8333333333333</ele><time>2026-05-01T09:02:36.967Z</time></trkpt><trkpt lat="40.7539987" lon="14.8201753"><ele>452.0</ele><time>2026-05-01T09:02:37.959Z</time></trkpt><trkpt lat="40.7540749" lon="14.8202355"><ele>452.6</ele><time>2026-05-01T09:02:38.963Z</time></trkpt><trkpt lat="40.7541674" lon="14.8202976"><ele>453.20000000000005</ele><time>2026-05-01T09:02:39.972Z</time></trkpt><trkpt lat="40.7542707" lon="14.8203444"><ele>453.8</ele><time>2026-05-01T09:02:40.98Z</time></trkpt><trkpt lat="40.7543727" lon="14.8203955"><ele>454.4</ele><time>2026-05-01T09:02:41.972Z</time></trkpt><trkpt lat="40.7544577" lon="14.8204625"><ele>455.0</ele><time>2026-05-01T09:02:42.964Z</time></trkpt><trkpt lat="40.7545436" lon="14.8205406"><ele>455.0</ele><time>2026-05-01T09:02:43.967Z</time></trkpt><trkpt lat="40.754635" lon="14.8206295"><ele>455.0</ele><time>2026-05-01T09:02:44.963Z</time></trkpt><trkpt lat="40.7547222" lon="14.8207052"><ele>455.0</ele><time>2026-05-01T09:02:45.972Z</time></trkpt><trkpt lat="40.7547984" lon="14.8207898"><ele>455.0</ele><time>2026-05-01T09:02:46.977Z</time></trkpt><trkpt lat="40.7548679" lon="14.8208853"><ele>455.0</ele><time>2026-05-01T09:02:47.974Z</time></trkpt><trkpt lat="40.7549286" lon="14.8209984"><ele>457.0</ele><time>2026-05-01T09:02:48.978Z</time></trkpt><trkpt lat="40.7549777" lon="14.8211186"><ele>459.0</ele><time>2026-05-01T09:02:49.977Z</time></trkpt><trkpt lat="40.7550075" lon="14.8212492"><ele>461.0</ele><time>2026-05-01T09:02:50.983Z</time></trkpt><trkpt lat="40.755033" lon="14.8213735"><ele>463.0</ele><time>2026-05-01T09:02:51.973Z</time></trkpt><trkpt lat="40.7550661" lon="14.8214807"><ele>465.0</ele><time>2026-05-01T09:02:52.966Z</time></trkpt><trkpt lat="40.7551027" lon="14.8215727"><ele>465.0</ele><time>2026-05-01T09:02:53.975Z</time></trkpt><trkpt lat="40.7551502" lon="14.8216574"><ele>465.0</ele><time>2026-05-01T09:02:55.98Z</time></trkpt><trkpt lat="40.75522" lon="14.8216909"><ele>465.0</ele><time>2026-05-01T09:02:57.944Z</time></trkpt><trkpt lat="40.7552899" lon="14.821666"><ele>465.0</ele><time>2026-05-01T09:02:58.984Z</time></trkpt><trkpt lat="40.7553943" lon="14.821601"><ele>465.0</ele><time>2026-05-01T09:03:00.979Z</time></trkpt><trkpt lat="40.7554897" lon="14.8215297"><ele>464.3333333333333</ele><time>2026-05-01T09:03:02.965Z</time></trkpt><trkpt lat="40.7555551" lon="14.8214828"><ele>463.66666666666663</ele><time>2026-05-01T09:03:05.976Z</time></trkpt><trkpt lat="40.7554612" lon="14.8215131"><ele>463.0</ele><time>2026-05-01T09:03:09.971Z</time></trkpt><trkpt lat="40.7554089" lon="14.8215797"><ele>462.3333333333333</ele><time>2026-05-01T09:03:10.965Z</time></trkpt><trkpt lat="40.7553752" lon="14.8216584"><ele>461.66666666666663</ele><time>2026-05-01T09:03:11.975Z</time></trkpt><trkpt lat="40.7553504" lon="14.8217682"><ele>461.0</ele><time>2026-05-01T09:03:12.981Z</time></trkpt><trkpt lat="40.7553518" lon="14.8219019"><ele>461.0</ele><time>2026-05-01T09:03:13.974Z</time></trkpt><trkpt lat="40.755392" lon="14.8220581"><ele>461.0</ele><time>2026-05-01T09:03:14.956Z</time></trkpt><trkpt lat="40.7554478" lon="14.8222071"><ele>461.0</ele><time>2026-05-01T09:03:15.963Z</time></trkpt><trkpt lat="40.7554852" lon="14.8223441"><ele>461.0</ele><time>2026-05-01T09:03:16.968Z</time></trkpt><trkpt lat="40.7555247" lon="14.822483"><ele>461.0</ele><time>2026-05-01T09:03:17.975Z</time></trkpt><trkpt lat="40.7555552" lon="14.8226109"><ele>461.0</ele><time>2026-05-01T09:03:18.964Z</time></trkpt><trkpt lat="40.7555564" lon="14.8227377"><ele>461.0</ele><time>2026-05-01T09:03:19.976Z</time></trkpt><trkpt lat="40.7555396" lon="14.8228641"><ele>461.0</ele><time>2026-05-01T09:03:20.97Z</time></trkpt><trkpt lat="40.7555067" lon="14.8229915"><ele>461.0</ele><time>2026-05-01T09:03:21.979Z</time></trkpt><trkpt lat="40.7554658" lon="14.8230988"><ele>462.16666666666663</ele><time>2026-05-01T09:03:22.971Z</time></trkpt><trkpt lat="40.7554499" lon="14.8232048"><ele>463.3333333333333</ele><time>2026-05-01T09:03:23.97Z</time></trkpt><trkpt lat="40.7554412" lon="14.8233033"><ele>464.5</ele><time>2026-05-01T09:03:24.968Z</time></trkpt><trkpt lat="40.7554458" lon="14.8233912"><ele>465.66666666666663</ele><time>2026-05-01T09:03:25.981Z</time></trkpt><trkpt lat="40.7554614" lon="14.8234893"><ele>466.8333333333333</ele><time>2026-05-01T09:03:26.966Z</time></trkpt><trkpt lat="40.7554825" lon="14.8235859"><ele>468.0</ele><time>2026-05-01T09:03:27.971Z</time></trkpt><trkpt lat="40.7555294" lon="14.823671"><ele>470.25</ele><time>2026-05-01T09:03:28.971Z</time></trkpt><trkpt lat="40.7555785" lon="14.8237557"><ele>472.5</ele><time>2026-05-01T09:03:29.978Z</time></trkpt><trkpt lat="40.7556707" lon="14.8238832"><ele>474.75</ele><time>2026-05-01T09:03:30.972Z</time></trkpt><trkpt lat="40.7557814" lon="14.8240241"><ele>477.0</ele><time>2026-05-01T09:03:31.95Z</time></trkpt><trkpt lat="40.7558776" lon="14.8241636"><ele>477.0</ele><time>2026-05-01T09:03:32.97Z</time></trkpt><trkpt lat="40.7559714" lon="14.8242975"><ele>477.0</ele><time>2026-05-01T09:03:33.973Z</time></trkpt><trkpt lat="40.7560653" lon="14.8244289"><ele>477.0</ele><time>2026-05-01T09:03:34.964Z</time></trkpt><trkpt lat="40.756149" lon="14.8245564"><ele>477.0</ele><time>2026-05-01T09:03:35.972Z</time></trkpt><trkpt lat="40.7562361" lon="14.8246717"><ele>480.0</ele><time>2026-05-01T09:03:36.97Z</time></trkpt><trkpt lat="40.7563324" lon="14.8247644"><ele>483.0</ele><time>2026-05-01T09:03:37.973Z</time></trkpt><trkpt lat="40.7564451" lon="14.8248394"><ele>486.0</ele><time>2026-05-01T09:03:38.973Z</time></trkpt><trkpt lat="40.7565462" lon="14.8249125"><ele>489.0</ele><time>2026-05-01T09:03:39.969Z</time></trkpt><trkpt lat="40.7566404" lon="14.8250113"><ele>489.0</ele><time>2026-05-01T09:03:40.966Z</time></trkpt><trkpt lat="40.756751" lon="14.8251352"><ele>489.0</ele><time>2026-05-01T09:03:41.979Z</time></trkpt><trkpt lat="40.7568476" lon="14.8252798"><ele>489.0</ele><time>2026-05-01T09:03:42.972Z</time></trkpt><trkpt lat="40.7569418" lon="14.825418"><ele>489.0</ele><time>2026-05-01T09:03:43.978Z</time></trkpt><trkpt lat="40.7570145" lon="14.8255554"><ele>491.0</ele><time>2026-05-01T09:03:44.953Z</time></trkpt><trkpt lat="40.7570501" lon="14.825686"><ele>493.0</ele><time>2026-05-01T09:03:45.95Z</time></trkpt><trkpt lat="40.757075" lon="14.8258216"><ele>495.0</ele><time>2026-05-01T09:03:46.963Z</time></trkpt><trkpt lat="40.7570836" lon="14.8259776"><ele>497.0</ele><time>2026-05-01T09:03:47.977Z</time></trkpt><trkpt lat="40.7571003" lon="14.8261366"><ele>499.40000000000003</ele><time>2026-05-01T09:03:48.972Z</time></trkpt><trkpt lat="40.7571125" lon="14.8263058"><ele>501.80000000000007</ele><time>2026-05-01T09:03:49.962Z</time></trkpt><trkpt lat="40.7571224" lon="14.8264484"><ele>504.2</ele><time>2026-05-01T09:03:50.977Z</time></trkpt><trkpt lat="40.7571371" lon="14.8265432"><ele>506.6</ele><time>2026-05-01T09:03:51.977Z</time></trkpt><trkpt lat="40.7572053" lon="14.8266634"><ele>509.0</ele><time>2026-05-01T09:03:53.972Z</time></trkpt><trkpt lat="40.7572932" lon="14.826756"><ele>509.0</ele><time>2026-05-01T09:03:54.974Z</time></trkpt><trkpt lat="40.7573992" lon="14.8268092"><ele>509.0</ele><time>2026-05-01T09:03:55.966Z</time></trkpt><trkpt lat="40.7575121" lon="14.826842"><ele>509.0</ele><time>2026-05-01T09:03:56.981Z</time></trkpt><trkpt lat="40.7576032" lon="14.8268266"><ele>509.0</ele><time>2026-05-01T09:03:57.946Z</time></trkpt><trkpt lat="40.7576851" lon="14.8267824"><ele>509.0</ele><time>2026-05-01T09:03:58.962Z</time></trkpt><trkpt lat="40.757751" lon="14.8267259"><ele>509.16666666666663</ele><time>2026-05-01T09:03:59.967Z</time></trkpt><trkpt lat="40.7578321" lon="14.8266499"><ele>509.3333333333333</ele><time>2026-05-01T09:04:01.968Z</time></trkpt><trkpt lat="40.7579075" lon="14.8266282"><ele>509.5</ele><time>2026-05-01T09:04:03.96Z</time></trkpt><trkpt lat="40.7579287" lon="14.826721"><ele>509.66666666666663</ele><time>2026-05-01T09:04:06.024Z</time></trkpt><trkpt lat="40.7579269" lon="14.82681"><ele>509.8333333333333</ele><time>2026-05-01T09:04:07.984Z</time></trkpt><trkpt lat="40.7579324" lon="14.8269076"><ele>510.0</ele><time>2026-05-01T09:04:09.973Z</time></trkpt><trkpt lat="40.7579299" lon="14.8270033"><ele>511.5</ele><time>2026-05-01T09:04:11.981Z</time></trkpt><trkpt lat="40.757911" lon="14.8271123"><ele>513.0</ele><time>2026-05-01T09:04:13.954Z</time></trkpt><trkpt lat="40.7578753" lon="14.8271927"><ele>514.5</ele><time>2026-05-01T09:04:15.962Z</time></trkpt><trkpt lat="40.7578467" lon="14.8272788"><ele>516.0</ele><time>2026-05-01T09:04:17.972Z</time></trkpt><trkpt lat="40.757844" lon="14.8273838"><ele>517.5</ele><time>2026-05-01T09:04:19.985Z</time></trkpt><trkpt lat="40.7578116" lon="14.827534"><ele>519.0</ele><time>2026-05-01T09:04:21.988Z</time></trkpt><trkpt lat="40.7578024" lon="14.827624"><ele>521.0</ele><time>2026-05-01T09:04:22.979Z</time></trkpt><trkpt lat="40.7577841" lon="14.8277693"><ele>523.0</ele><time>2026-05-01T09:04:24.979Z</time></trkpt><trkpt lat="40.7577688" lon="14.8278726"><ele>525.0</ele><time>2026-05-01T09:04:27.031Z</time></trkpt><trkpt lat="40.7577323" lon="14.8279625"><ele>527.0</ele><time>2026-05-01T09:04:28.974Z</time></trkpt><trkpt lat="40.7577163" lon="14.8280484"><ele>529.0</ele><time>2026-05-01T09:04:30.968Z</time></trkpt><trkpt lat="40.7576711" lon="14.8281426"><ele>531.0</ele><time>2026-05-01T09:04:32.978Z</time></trkpt><trkpt lat="40.7576453" lon="14.8282536"><ele>531.3333333333334</ele><time>2026-05-01T09:04:35.028Z</time></trkpt><trkpt lat="40.7576258" lon="14.8283718"><ele>531.6666666666666</ele><time>2026-05-01T09:04:37.034Z</time></trkpt><trkpt lat="40.7576084" lon="14.8284544"><ele>532.0</ele><time>2026-05-01T09:04:37.978Z</time></trkpt><trkpt lat="40.7575804" lon="14.8285444"><ele>532.3333333333333</ele><time>2026-05-01T09:04:38.982Z</time></trkpt><trkpt lat="40.7575514" lon="14.8286373"><ele>532.6666666666666</ele><time>2026-05-01T09:04:39.985Z</time></trkpt><trkpt lat="40.7575298" lon="14.8287407"><ele>533.0</ele><time>2026-05-01T09:04:40.978Z</time></trkpt><trkpt lat="40.7575135" lon="14.8288515"><ele>536.0</ele><time>2026-05-01T09:04:41.98Z</time></trkpt><trkpt lat="40.7574947" lon="14.8289678"><ele>539.0</ele><time>2026-05-01T09:04:43.051Z</time></trkpt><trkpt lat="40.7574749" lon="14.8290821"><ele>542.0</ele><time>2026-05-01T09:04:43.971Z</time></trkpt><trkpt lat="40.7574505" lon="14.8291958"><ele>545.0</ele><time>2026-05-01T09:04:44.985Z</time></trkpt><trkpt lat="40.7574227" lon="14.8293048"><ele>548.0</ele><time>2026-05-01T09:04:45.988Z</time></trkpt><trkpt lat="40.7573974" lon="14.8294255"><ele>550.6666666666666</ele><time>2026-05-01T09:04:47.031Z</time></trkpt><trkpt lat="40.7573893" lon="14.8295348"><ele>553.3333333333333</ele><time>2026-05-01T09:04:48.04Z</time></trkpt><trkpt lat="40.7573845" lon="14.8296305"><ele>556.0</ele><time>2026-05-01T09:04:48.97Z</time></trkpt><trkpt lat="40.7573921" lon="14.8297258"><ele>558.6666666666666</ele><time>2026-05-01T09:04:49.967Z</time></trkpt><trkpt lat="40.7573955" lon="14.8298139"><ele>561.3333333333334</ele><time>2026-05-01T09:04:50.985Z</time></trkpt><trkpt lat="40.7573985" lon="14.8299003"><ele>564.0</ele><time>2026-05-01T09:04:52.063Z</time></trkpt><trkpt lat="40.7574045" lon="14.8300297"><ele>564.0</ele><time>2026-05-01T09:04:53.973Z</time></trkpt><trkpt lat="40.7574339" lon="14.8301119"><ele>564.0</ele><time>2026-05-01T09:04:56.969Z</time></trkpt><trkpt lat="40.7574691" lon="14.8301895"><ele>564.0</ele><time>2026-05-01T09:05:04.973Z</time></trkpt><trkpt lat="40.7575418" lon="14.8302198"><ele>564.0</ele><time>2026-05-01T09:05:22.953Z</time></trkpt><trkpt lat="40.757509" lon="14.8302951"><ele>564.0</ele><time>2026-05-01T09:05:44.961Z</time></trkpt><trkpt lat="40.7574702" lon="14.8303706"><ele>564.0</ele><time>2026-05-01T09:06:36.972Z</time></trkpt><trkpt lat="40.7575134" lon="14.8304463"><ele>564.0</ele><time>2026-05-01T09:06:39.971Z</time></trkpt><trkpt lat="40.7575508" lon="14.8305356"><ele>567.3333333333334</ele><time>2026-05-01T09:06:42.975Z</time></trkpt><trkpt lat="40.7575666" lon="14.8306442"><ele>570.6666666666666</ele><time>2026-05-01T09:06:46.984Z</time></trkpt><trkpt lat="40.7575858" lon="14.8307456"><ele>574.0</ele><time>2026-05-01T09:06:49.974Z</time></trkpt><trkpt lat="40.7575817" lon="14.8308339"><ele>577.3333333333333</ele><time>2026-05-01T09:06:51.973Z</time></trkpt><trkpt lat="40.7575746" lon="14.8309512"><ele>580.6666666666666</ele><time>2026-05-01T09:06:54.98Z</time></trkpt><trkpt lat="40.7575817" lon="14.8310378"><ele>584.0</ele><time>2026-05-01T09:06:58.956Z</time></trkpt><trkpt lat="40.757582" lon="14.8311291"><ele>588.4</ele><time>2026-05-01T09:07:01.98Z</time></trkpt><trkpt lat="40.7575137" lon="14.8313596"><ele>592.8</ele><time>2026-05-01T09:07:03.967Z</time></trkpt><trkpt lat="40.7574881" lon="14.8314619"><ele>597.2</ele><time>2026-05-01T09:07:04.978Z</time></trkpt><trkpt lat="40.7574771" lon="14.8315585"><ele>601.6</ele><time>2026-05-01T09:07:06.985Z</time></trkpt><trkpt lat="40.7574278" lon="14.831667"><ele>606.0</ele><time>2026-05-01T09:07:09.988Z</time></trkpt><trkpt lat="40.7573844" lon="14.8317615"><ele>609.1428571428571</ele><time>2026-05-01T09:07:11.905Z</time></trkpt><trkpt lat="40.7573691" lon="14.8318428"><ele>612.2857142857142</ele><time>2026-05-01T09:07:13.982Z</time></trkpt><trkpt lat="40.7573493" lon="14.8319258"><ele>615.4285714285713</ele><time>2026-05-01T09:07:16.981Z</time></trkpt><trkpt lat="40.7573219" lon="14.8320238"><ele>618.5714285714286</ele><time>2026-05-01T09:07:17.978Z</time></trkpt><trkpt lat="40.7572823" lon="14.8321355"><ele>621.7142857142857</ele><time>2026-05-01T09:07:19.907Z</time></trkpt><trkpt lat="40.7572673" lon="14.8322288"><ele>624.8571428571428</ele><time>2026-05-01T09:07:22.888Z</time></trkpt><trkpt lat="40.7572259" lon="14.8322989"><ele>628.0</ele><time>2026-05-01T09:07:24.976Z</time></trkpt><trkpt lat="40.7572037" lon="14.8324089"><ele>628.0</ele><time>2026-05-01T09:07:27.914Z</time></trkpt><trkpt lat="40.7572126" lon="14.8325099"><ele>628.0</ele><time>2026-05-01T09:07:29.977Z</time></trkpt><trkpt lat="40.7572033" lon="14.8325981"><ele>628.0</ele><time>2026-05-01T09:07:32.048Z</time></trkpt><trkpt lat="40.7571905" lon="14.8326969"><ele>628.0</ele><time>2026-05-01T09:07:35.905Z</time></trkpt><trkpt lat="40.7571678" lon="14.832786"><ele>628.0</ele><time>2026-05-01T09:07:38.994Z</time></trkpt><trkpt lat="40.7571468" lon="14.832884"><ele>628.0</ele><time>2026-05-01T09:07:43.973Z</time></trkpt><trkpt lat="40.7572029" lon="14.833023"><ele>632.6666666666667</ele><time>2026-05-01T09:08:07.046Z</time></trkpt><trkpt lat="40.7572504" lon="14.8330939"><ele>637.3333333333334</ele><time>2026-05-01T09:08:10.95Z</time></trkpt><trkpt lat="40.7573907" lon="14.8330462"><ele>642.0</ele><time>2026-05-01T09:08:17.977Z</time></trkpt><trkpt lat="40.7574361" lon="14.8329875"><ele>646.6666666666666</ele><time>2026-05-01T09:08:19.966Z</time></trkpt><trkpt lat="40.757534" lon="14.8329718"><ele>651.3333333333333</ele><time>2026-05-01T09:08:23.037Z</time></trkpt><trkpt lat="40.7575982" lon="14.832968"><ele>656.0</ele><time>2026-05-01T09:08:24.977Z</time></trkpt><trkpt lat="40.7576847" lon="14.8329505"><ele>660.1999999999999</ele><time>2026-05-01T09:08:26.972Z</time></trkpt><trkpt lat="40.7577821" lon="14.8329246"><ele>664.4</ele><time>2026-05-01T09:08:28.966Z</time></trkpt><trkpt lat="40.7578885" lon="14.8328976"><ele>668.6</ele><time>2026-05-01T09:08:30.987Z</time></trkpt><trkpt lat="40.7579885" lon="14.8328785"><ele>672.8</ele><time>2026-05-01T09:08:32.967Z</time></trkpt><trkpt lat="40.7580903" lon="14.8328776"><ele>677.0</ele><time>2026-05-01T09:08:34.964Z</time></trkpt><trkpt lat="40.7581532" lon="14.832888"><ele>677.0</ele><time>2026-05-01T09:08:35.957Z</time></trkpt><trkpt lat="40.7582716" lon="14.8329094"><ele>677.0</ele><time>2026-05-01T09:08:37.97Z</time></trkpt><trkpt lat="40.758361" lon="14.8329331"><ele>677.0</ele><time>2026-05-01T09:08:39.964Z</time></trkpt><trkpt lat="40.7584163" lon="14.8329747"><ele>677.0</ele><time>2026-05-01T09:08:42.975Z</time></trkpt><trkpt lat="40.7584334" lon="14.8330672"><ele>677.0</ele><time>2026-05-01T09:08:45.957Z</time></trkpt><trkpt lat="40.7584706" lon="14.8331393"><ele>677.0</ele><time>2026-05-01T09:08:47.942Z</time></trkpt><trkpt lat="40.7585175" lon="14.8332143"><ele>679.3333333333333</ele><time>2026-05-01T09:08:49.971Z</time></trkpt><trkpt lat="40.7585796" lon="14.8332688"><ele>681.6666666666666</ele><time>2026-05-01T09:08:52.058Z</time></trkpt><trkpt lat="40.7586533" lon="14.8332865"><ele>684.0</ele><time>2026-05-01T09:08:53.966Z</time></trkpt><trkpt lat="40.7587529" lon="14.8332846"><ele>686.3333333333334</ele><time>2026-05-01T09:08:55.971Z</time></trkpt><trkpt lat="40.7588598" lon="14.8332556"><ele>688.6666666666667</ele><time>2026-05-01T09:08:58.028Z</time></trkpt><trkpt lat="40.7589216" lon="14.8332271"><ele>691.0</ele><time>2026-05-01T09:08:58.964Z</time></trkpt><trkpt lat="40.7589857" lon="14.8331772"><ele>691.0</ele><time>2026-05-01T09:08:59.968Z</time></trkpt><trkpt lat="40.7590869" lon="14.8330956"><ele>691.0</ele><time>2026-05-01T09:09:00.975Z</time></trkpt><trkpt lat="40.7591638" lon="14.8330243"><ele>691.0</ele><time>2026-05-01T09:09:01.954Z</time></trkpt><trkpt lat="40.7592364" lon="14.8329672"><ele>691.0</ele><time>2026-05-01T09:09:03.039Z</time></trkpt><trkpt lat="40.759314" lon="14.8329143"><ele>691.0</ele><time>2026-05-01T09:09:03.971Z</time></trkpt><trkpt lat="40.7594097" lon="14.832849"><ele>693.4</ele><time>2026-05-01T09:09:05.992Z</time></trkpt><trkpt lat="40.7595134" lon="14.8328075"><ele>695.8</ele><time>2026-05-01T09:09:07.966Z</time></trkpt><trkpt lat="40.7596565" lon="14.8327477"><ele>698.1999999999999</ele><time>2026-05-01T09:09:09.977Z</time></trkpt><trkpt lat="40.7597391" lon="14.832707"><ele>700.5999999999999</ele><time>2026-05-01T09:09:10.994Z</time></trkpt><trkpt lat="40.7598173" lon="14.8326675"><ele>703.0</ele><time>2026-05-01T09:09:12.003Z</time></trkpt><trkpt lat="40.7598821" lon="14.8326282"><ele>697.8333333333334</ele><time>2026-05-01T09:09:12.97Z</time></trkpt><trkpt lat="40.7599572" lon="14.8326013"><ele>692.6666666666667</ele><time>2026-05-01T09:09:13.97Z</time></trkpt><trkpt lat="40.7600381" lon="14.8325825"><ele>687.5</ele><time>2026-05-01T09:09:14.973Z</time></trkpt><trkpt lat="40.7601165" lon="14.8325615"><ele>682.3333333333334</ele><time>2026-05-01T09:09:15.969Z</time></trkpt><trkpt lat="40.7602002" lon="14.8325552"><ele>677.1666666666666</ele><time>2026-05-01T09:09:16.981Z</time></trkpt><trkpt lat="40.7602755" lon="14.8325584"><ele>672.0</ele><time>2026-05-01T09:09:17.968Z</time></trkpt><trkpt lat="40.7603412" lon="14.8325693"><ele>670.1666666666666</ele><time>2026-05-01T09:09:18.979Z</time></trkpt><trkpt lat="40.7604216" lon="14.8325815"><ele>668.3333333333334</ele><time>2026-05-01T09:09:19.974Z</time></trkpt><trkpt lat="40.760499" lon="14.8325941"><ele>666.5</ele><time>2026-05-01T09:09:20.972Z</time></trkpt><trkpt lat="40.7605791" lon="14.8326084"><ele>664.6666666666667</ele><time>2026-05-01T09:09:21.966Z</time></trkpt><trkpt lat="40.7606526" lon="14.8326146"><ele>662.8333333333334</ele><time>2026-05-01T09:09:22.986Z</time></trkpt><trkpt lat="40.7607332" lon="14.83262"><ele>661.0</ele><time>2026-05-01T09:09:23.973Z</time></trkpt><trkpt lat="40.7608247" lon="14.8326194"><ele>661.0</ele><time>2026-05-01T09:09:24.975Z</time></trkpt><trkpt lat="40.7609344" lon="14.8326131"><ele>661.0</ele><time>2026-05-01T09:09:26.04Z</time></trkpt><trkpt lat="40.7610521" lon="14.8325696"><ele>661.0</ele><time>2026-05-01T09:09:26.974Z</time></trkpt><trkpt lat="40.7611649" lon="14.8324952"><ele>661.0</ele><time>2026-05-01T09:09:27.969Z</time></trkpt><trkpt lat="40.7612655" lon="14.8324025"><ele>654.25</ele><time>2026-05-01T09:09:28.983Z</time></trkpt><trkpt lat="40.7613517" lon="14.8322868"><ele>647.5</ele><time>2026-05-01T09:09:29.982Z</time></trkpt><trkpt lat="40.7614246" lon="14.8321476"><ele>640.75</ele><time>2026-05-01T09:09:30.976Z</time></trkpt><trkpt lat="40.7614952" lon="14.8320085"><ele>634.0</ele><time>2026-05-01T09:09:31.964Z</time></trkpt><trkpt lat="40.7615635" lon="14.831872"><ele>632.5</ele><time>2026-05-01T09:09:33.04Z</time></trkpt><trkpt lat="40.7616451" lon="14.8317164"><ele>631.0</ele><time>2026-05-01T09:09:33.97Z</time></trkpt><trkpt lat="40.7617109" lon="14.8315539"><ele>629.5</ele><time>2026-05-01T09:09:34.979Z</time></trkpt><trkpt lat="40.7617679" lon="14.8313936"><ele>628.0</ele><time>2026-05-01T09:09:35.982Z</time></trkpt><trkpt lat="40.7618135" lon="14.8312491"><ele>628.0</ele><time>2026-05-01T09:09:37.038Z</time></trkpt><trkpt lat="40.7618531" lon="14.8311159"><ele>628.0</ele><time>2026-05-01T09:09:38.037Z</time></trkpt><trkpt lat="40.7618994" lon="14.8310064"><ele>628.0</ele><time>2026-05-01T09:09:38.973Z</time></trkpt><trkpt lat="40.7619723" lon="14.8309103"><ele>628.0</ele><time>2026-05-01T09:09:40.046Z</time></trkpt><trkpt lat="40.7620565" lon="14.8308212"><ele>628.0</ele><time>2026-05-01T09:09:40.984Z</time></trkpt><trkpt lat="40.7621297" lon="14.830732"><ele>625.0</ele><time>2026-05-01T09:09:42.047Z</time></trkpt><trkpt lat="40.7621884" lon="14.8306405"><ele>622.0</ele><time>2026-05-01T09:09:43.043Z</time></trkpt><trkpt lat="40.7622255" lon="14.8305371"><ele>619.0</ele><time>2026-05-01T09:09:43.993Z</time></trkpt><trkpt lat="40.7622279" lon="14.8304178"><ele>616.0</ele><time>2026-05-01T09:09:44.988Z</time></trkpt><trkpt lat="40.7622204" lon="14.8302947"><ele>613.0</ele><time>2026-05-01T09:09:46.021Z</time></trkpt><trkpt lat="40.7622271" lon="14.8301669"><ele>614.4</ele><time>2026-05-01T09:09:46.998Z</time></trkpt><trkpt lat="40.7622463" lon="14.8300336"><ele>615.8</ele><time>2026-05-01T09:09:47.975Z</time></trkpt><trkpt lat="40.7622701" lon="14.8298922"><ele>617.2</ele><time>2026-05-01T09:09:48.974Z</time></trkpt><trkpt lat="40.762288" lon="14.8297532"><ele>618.6</ele><time>2026-05-01T09:09:50.044Z</time></trkpt><trkpt lat="40.7623033" lon="14.8296149"><ele>620.0</ele><time>2026-05-01T09:09:51.048Z</time></trkpt><trkpt lat="40.7623072" lon="14.8294789"><ele>620.0</ele><time>2026-05-01T09:09:52.049Z</time></trkpt><trkpt lat="40.7623056" lon="14.82937"><ele>620.0</ele><time>2026-05-01T09:09:53.041Z</time></trkpt><trkpt lat="40.7622953" lon="14.8292811"><ele>620.0</ele><time>2026-05-01T09:09:53.975Z</time></trkpt><trkpt lat="40.7622791" lon="14.8291961"><ele>620.0</ele><time>2026-05-01T09:09:54.971Z</time></trkpt><trkpt lat="40.7622587" lon="14.829053"><ele>620.0</ele><time>2026-05-01T09:09:56.947Z</time></trkpt><trkpt lat="40.7621849" lon="14.8290561"><ele>620.0</ele><time>2026-05-01T09:09:58.975Z</time></trkpt><trkpt lat="40.7621249" lon="14.8292246"><ele>620.0</ele><time>2026-05-01T09:10:00.98Z</time></trkpt><trkpt lat="40.7620607" lon="14.8293317"><ele>620.0</ele><time>2026-05-01T09:10:01.973Z</time></trkpt><trkpt lat="40.7619961" lon="14.8294327"><ele>620.0</ele><time>2026-05-01T09:10:02.974Z</time></trkpt><trkpt lat="40.7619345" lon="14.8295316"><ele>620.0</ele><time>2026-05-01T09:10:03.975Z</time></trkpt><trkpt lat="40.761874" lon="14.8296352"><ele>620.0</ele><time>2026-05-01T09:10:04.974Z</time></trkpt><trkpt lat="40.7618157" lon="14.829741"><ele>613.8</ele><time>2026-05-01T09:10:05.971Z</time></trkpt><trkpt lat="40.7617428" lon="14.829827"><ele>607.6</ele><time>2026-05-01T09:10:06.958Z</time></trkpt><trkpt lat="40.7616558" lon="14.8299025"><ele>601.4</ele><time>2026-05-01T09:10:07.993Z</time></trkpt><trkpt lat="40.7615626" lon="14.8299676"><ele>595.2</ele><time>2026-05-01T09:10:08.987Z</time></trkpt><trkpt lat="40.7614791" lon="14.8300486"><ele>589.0</ele><time>2026-05-01T09:10:09.965Z</time></trkpt><trkpt lat="40.7614074" lon="14.8301365"><ele>590.3333333333334</ele><time>2026-05-01T09:10:10.959Z</time></trkpt><trkpt lat="40.7613405" lon="14.8302155"><ele>591.6666666666667</ele><time>2026-05-01T09:10:11.973Z</time></trkpt><trkpt lat="40.7612776" lon="14.8302789"><ele>593.0</ele><time>2026-05-01T09:10:12.967Z</time></trkpt><trkpt lat="40.7612158" lon="14.8303065"><ele>594.3333333333334</ele><time>2026-05-01T09:10:13.974Z</time></trkpt><trkpt lat="40.7611465" lon="14.8302981"><ele>595.6666666666666</ele><time>2026-05-01T09:10:15.052Z</time></trkpt><trkpt lat="40.7610216" lon="14.8303029"><ele>597.0</ele><time>2026-05-01T09:10:16.963Z</time></trkpt><trkpt lat="40.76094" lon="14.8303327"><ele>597.0</ele><time>2026-05-01T09:10:17.949Z</time></trkpt><trkpt lat="40.7608615" lon="14.8303775"><ele>597.0</ele><time>2026-05-01T09:10:18.962Z</time></trkpt><trkpt lat="40.7607741" lon="14.8304276"><ele>597.0</ele><time>2026-05-01T09:10:21.029Z</time></trkpt><trkpt lat="40.7606946" lon="14.830367"><ele>597.0</ele><time>2026-05-01T09:10:22.979Z</time></trkpt><trkpt lat="40.7606308" lon="14.8302078"><ele>597.0</ele><time>2026-05-01T09:10:24.982Z</time></trkpt><trkpt lat="40.7605703" lon="14.8301293"><ele>591.4</ele><time>2026-05-01T09:10:25.967Z</time></trkpt><trkpt lat="40.7605043" lon="14.8300439"><ele>585.8000000000001</ele><time>2026-05-01T09:10:27.001Z</time></trkpt><trkpt lat="40.7604296" lon="14.8299403"><ele>580.2</ele><time>2026-05-01T09:10:28.04Z</time></trkpt><trkpt lat="40.7603424" lon="14.8298547"><ele>574.6</ele><time>2026-05-01T09:10:28.978Z</time></trkpt><trkpt lat="40.7602434" lon="14.8297761"><ele>569.0</ele><time>2026-05-01T09:10:29.973Z</time></trkpt><trkpt lat="40.7601424" lon="14.8296872"><ele>569.0</ele><time>2026-05-01T09:10:30.974Z</time></trkpt><trkpt lat="40.7600314" lon="14.8296073"><ele>569.0</ele><time>2026-05-01T09:10:31.975Z</time></trkpt><trkpt lat="40.7599181" lon="14.8295156"><ele>569.0</ele><time>2026-05-01T09:10:32.977Z</time></trkpt><trkpt lat="40.7598131" lon="14.8294279"><ele>569.0</ele><time>2026-05-01T09:10:33.953Z</time></trkpt><trkpt lat="40.7597071" lon="14.8293347"><ele>565.25</ele><time>2026-05-01T09:10:35.036Z</time></trkpt><trkpt lat="40.7596133" lon="14.8292338"><ele>561.5</ele><time>2026-05-01T09:10:36.027Z</time></trkpt><trkpt lat="40.7595198" lon="14.8291421"><ele>557.75</ele><time>2026-05-01T09:10:37.041Z</time></trkpt><trkpt lat="40.7594287" lon="14.8290495"><ele>554.0</ele><time>2026-05-01T09:10:38.051Z</time></trkpt><trkpt lat="40.7593431" lon="14.8289563"><ele>554.0</ele><time>2026-05-01T09:10:38.967Z</time></trkpt><trkpt lat="40.7592512" lon="14.8288655"><ele>554.0</ele><time>2026-05-01T09:10:39.971Z</time></trkpt><trkpt lat="40.7591664" lon="14.8287689"><ele>554.0</ele><time>2026-05-01T09:10:40.98Z</time></trkpt><trkpt lat="40.7590963" lon="14.8286629"><ele>554.0</ele><time>2026-05-01T09:10:42.031Z</time></trkpt><trkpt lat="40.7590306" lon="14.8285812"><ele>554.0</ele><time>2026-05-01T09:10:42.967Z</time></trkpt><trkpt lat="40.758938" lon="14.8285287"><ele>554.0</ele><time>2026-05-01T09:10:43.97Z</time></trkpt><trkpt lat="40.7588206" lon="14.8285418"><ele>554.0</ele><time>2026-05-01T09:10:44.97Z</time></trkpt><trkpt lat="40.7586912" lon="14.8285956"><ele>554.0</ele><time>2026-05-01T09:10:45.954Z</time></trkpt><trkpt lat="40.7585752" lon="14.82866"><ele>554.0</ele><time>2026-05-01T09:10:46.962Z</time></trkpt><trkpt lat="40.7584734" lon="14.8287381"><ele>552.4</ele><time>2026-05-01T09:10:48.046Z</time></trkpt><trkpt lat="40.7583856" lon="14.828824"><ele>550.8</ele><time>2026-05-01T09:10:48.979Z</time></trkpt><trkpt lat="40.7583075" lon="14.8289162"><ele>549.2</ele><time>2026-05-01T09:10:49.983Z</time></trkpt><trkpt lat="40.7582573" lon="14.8290362"><ele>547.6</ele><time>2026-05-01T09:10:50.973Z</time></trkpt><trkpt lat="40.7582232" lon="14.8291576"><ele>546.0</ele><time>2026-05-01T09:10:52.048Z</time></trkpt><trkpt lat="40.7582068" lon="14.8292664"><ele>547.6</ele><time>2026-05-01T09:10:53.034Z</time></trkpt><trkpt lat="40.758181" lon="14.8293706"><ele>549.2</ele><time>2026-05-01T09:10:53.969Z</time></trkpt><trkpt lat="40.7581284" lon="14.8294607"><ele>550.8</ele><time>2026-05-01T09:10:54.963Z</time></trkpt><trkpt lat="40.7580587" lon="14.8295134"><ele>552.4</ele><time>2026-05-01T09:10:55.974Z</time></trkpt><trkpt lat="40.7579328" lon="14.8294594"><ele>554.0</ele><time>2026-05-01T09:10:58.04Z</time></trkpt><trkpt lat="40.7578901" lon="14.8293819"><ele>552.6666666666666</ele><time>2026-05-01T09:10:58.958Z</time></trkpt><trkpt lat="40.7578623" lon="14.8292856"><ele>551.3333333333333</ele><time>2026-05-01T09:10:59.971Z</time></trkpt><trkpt lat="40.7578423" lon="14.8291884"><ele>550.0</ele><time>2026-05-01T09:11:00.956Z</time></trkpt><trkpt lat="40.7578354" lon="14.8290803"><ele>548.6666666666666</ele><time>2026-05-01T09:11:01.939Z</time></trkpt><trkpt lat="40.7578466" lon="14.8289717"><ele>547.3333333333334</ele><time>2026-05-01T09:11:02.958Z</time></trkpt><trkpt lat="40.7578657" lon="14.8288674"><ele>546.0</ele><time>2026-05-01T09:11:03.961Z</time></trkpt><trkpt lat="40.7578923" lon="14.8287689"><ele>546.0</ele><time>2026-05-01T09:11:04.957Z</time></trkpt><trkpt lat="40.7579306" lon="14.8286606"><ele>546.0</ele><time>2026-05-01T09:11:05.959Z</time></trkpt><trkpt lat="40.7579652" lon="14.8285387"><ele>546.0</ele><time>2026-05-01T09:11:07.024Z</time></trkpt><trkpt lat="40.7580023" lon="14.8284087"><ele>546.0</ele><time>2026-05-01T09:11:08.034Z</time></trkpt><trkpt lat="40.7580304" lon="14.8282789"><ele>546.0</ele><time>2026-05-01T09:11:08.947Z</time></trkpt><trkpt lat="40.7580437" lon="14.8281451"><ele>543.0</ele><time>2026-05-01T09:11:09.955Z</time></trkpt><trkpt lat="40.7580393" lon="14.8280162"><ele>540.0</ele><time>2026-05-01T09:11:10.947Z</time></trkpt><trkpt lat="40.7580382" lon="14.8278802"><ele>537.0</ele><time>2026-05-01T09:11:11.961Z</time></trkpt><trkpt lat="40.758029" lon="14.8277788"><ele>534.0</ele><time>2026-05-01T09:11:12.959Z</time></trkpt><trkpt lat="40.758029" lon="14.8276383"><ele>531.0</ele><time>2026-05-01T09:11:14.968Z</time></trkpt><trkpt lat="40.7580128" lon="14.8275381"><ele>531.0</ele><time>2026-05-01T09:11:17.952Z</time></trkpt><trkpt lat="40.7579907" lon="14.8274339"><ele>531.0</ele><time>2026-05-01T09:11:43.062Z</time></trkpt><trkpt lat="40.7579132" lon="14.8274185"><ele>531.0</ele><time>2026-05-01T09:11:46.96Z</time></trkpt><trkpt lat="40.7578462" lon="14.8275042"><ele>531.0</ele><time>2026-05-01T09:11:50.973Z</time></trkpt><trkpt lat="40.7578134" lon="14.8275886"><ele>531.0</ele><time>2026-05-01T09:11:52.97Z</time></trkpt><trkpt lat="40.7577645" lon="14.8276638"><ele>531.0</ele><time>2026-05-01T09:11:54.965Z</time></trkpt><trkpt lat="40.7577406" lon="14.8277418"><ele>531.0</ele><time>2026-05-01T09:11:56.966Z</time></trkpt><trkpt lat="40.7577076" lon="14.8278523"><ele>531.0</ele><time>2026-05-01T09:11:59.964Z</time></trkpt><trkpt lat="40.7576624" lon="14.8279595"><ele>531.0</ele><time>2026-05-01T09:12:01.965Z</time></trkpt><trkpt lat="40.7576281" lon="14.828044"><ele>531.0</ele><time>2026-05-01T09:12:02.967Z</time></trkpt><trkpt lat="40.7576102" lon="14.8281237"><ele>531.0</ele><time>2026-05-01T09:12:03.961Z</time></trkpt><trkpt lat="40.7575945" lon="14.8282178"><ele>531.0</ele><time>2026-05-01T09:12:05.966Z</time></trkpt><trkpt lat="40.7575755" lon="14.8283294"><ele>534.4</ele><time>2026-05-01T09:12:08.037Z</time></trkpt><trkpt lat="40.7575157" lon="14.8285034"><ele>537.8</ele><time>2026-05-01T09:12:09.974Z</time></trkpt><trkpt lat="40.7574876" lon="14.8286067"><ele>541.1999999999999</ele><time>2026-05-01T09:12:10.97Z</time></trkpt><trkpt lat="40.7574705" lon="14.8287106"><ele>544.6</ele><time>2026-05-01T09:12:11.961Z</time></trkpt><trkpt lat="40.7574514" lon="14.8288075"><ele>548.0</ele><time>2026-05-01T09:12:12.966Z</time></trkpt><trkpt lat="40.7574341" lon="14.8289054"><ele>548.0</ele><time>2026-05-01T09:12:13.971Z</time></trkpt><trkpt lat="40.7574141" lon="14.8290095"><ele>548.0</ele><time>2026-05-01T09:12:15.006Z</time></trkpt><trkpt lat="40.7573904" lon="14.8291188"><ele>548.0</ele><time>2026-05-01T09:12:15.969Z</time></trkpt><trkpt lat="40.7573688" lon="14.8291978"><ele>548.0</ele><time>2026-05-01T09:12:16.963Z</time></trkpt><trkpt lat="40.7573575" lon="14.8292921"><ele>548.0</ele><time>2026-05-01T09:12:18.064Z</time></trkpt><trkpt lat="40.7573581" lon="14.8293885"><ele>548.0</ele><time>2026-05-01T09:12:18.965Z</time></trkpt><trkpt lat="40.7573667" lon="14.8294889"><ele>550.6666666666666</ele><time>2026-05-01T09:12:19.956Z</time></trkpt><trkpt lat="40.7573744" lon="14.8295841"><ele>553.3333333333333</ele><time>2026-05-01T09:12:20.967Z</time></trkpt><trkpt lat="40.7573856" lon="14.8296823"><ele>556.0</ele><time>2026-05-01T09:12:21.967Z</time></trkpt><trkpt lat="40.7573976" lon="14.8297826"><ele>558.6666666666666</ele><time>2026-05-01T09:12:22.953Z</time></trkpt><trkpt lat="40.7574169" lon="14.8299042"><ele>561.3333333333334</ele><time>2026-05-01T09:12:24.966Z</time></trkpt><trkpt lat="40.7574439" lon="14.8300136"><ele>564.0</ele><time>2026-05-01T09:12:27.963Z</time></trkpt><trkpt lat="40.757472" lon="14.8301209"><ele>567.3333333333334</ele><time>2026-05-01T09:12:30.974Z</time></trkpt><trkpt lat="40.7575011" lon="14.8302084"><ele>570.6666666666666</ele><time>2026-05-01T09:12:32.955Z</time></trkpt><trkpt lat="40.7575294" lon="14.8303119"><ele>574.0</ele><time>2026-05-01T09:12:36.955Z</time></trkpt><trkpt lat="40.7575474" lon="14.8304114"><ele>577.3333333333333</ele><time>2026-05-01T09:12:43.966Z</time></trkpt><trkpt lat="40.7575365" lon="14.8305001"><ele>580.6666666666666</ele><time>2026-05-01T09:12:46.964Z</time></trkpt><trkpt lat="40.7575407" lon="14.8305989"><ele>584.0</ele><time>2026-05-01T09:12:49.962Z</time></trkpt><trkpt lat="40.7575501" lon="14.8307112"><ele>584.0</ele><time>2026-05-01T09:12:52.962Z</time></trkpt><trkpt lat="40.7575602" lon="14.83082"><ele>584.0</ele><time>2026-05-01T09:12:55.956Z</time></trkpt><trkpt lat="40.7575486" lon="14.8309313"><ele>584.0</ele><time>2026-05-01T09:12:58.968Z</time></trkpt><trkpt lat="40.7575245" lon="14.8310236"><ele>584.0</ele><time>2026-05-01T09:13:00.963Z</time></trkpt><trkpt lat="40.7574796" lon="14.8311488"><ele>584.0</ele><time>2026-05-01T09:13:05.974Z</time></trkpt><trkpt lat="40.7574837" lon="14.8312458"><ele>584.0</ele><time>2026-05-01T09:13:06.954Z</time></trkpt><trkpt lat="40.7574646" lon="14.8313271"><ele>588.4</ele><time>2026-05-01T09:13:08.954Z</time></trkpt><trkpt lat="40.757454" lon="14.8314229"><ele>592.8</ele><time>2026-05-01T09:13:11.887Z</time></trkpt><trkpt lat="40.7574009" lon="14.8315368"><ele>597.2</ele><time>2026-05-01T09:13:14.962Z</time></trkpt><trkpt lat="40.757361" lon="14.8316153"><ele>601.6</ele><time>2026-05-01T09:13:17.954Z</time></trkpt><trkpt lat="40.7573042" lon="14.831786"><ele>606.0</ele><time>2026-05-01T09:13:21.961Z</time></trkpt><trkpt lat="40.7572606" lon="14.8318761"><ele>609.6666666666666</ele><time>2026-05-01T09:13:22.964Z</time></trkpt><trkpt lat="40.7572311" lon="14.831961"><ele>613.3333333333334</ele><time>2026-05-01T09:13:25.962Z</time></trkpt><trkpt lat="40.7572071" lon="14.8320408"><ele>617.0</ele><time>2026-05-01T09:13:28.961Z</time></trkpt><trkpt lat="40.757173" lon="14.8321609"><ele>620.6666666666667</ele><time>2026-05-01T09:13:31.962Z</time></trkpt><trkpt lat="40.7571564" lon="14.8322456"><ele>624.3333333333334</ele><time>2026-05-01T09:13:33.979Z</time></trkpt><trkpt lat="40.7571413" lon="14.8323837"><ele>628.0</ele><time>2026-05-01T09:13:36.989Z</time></trkpt><trkpt lat="40.7571194" lon="14.8324878"><ele>628.0</ele><time>2026-05-01T09:13:38.982Z</time></trkpt><trkpt lat="40.7570854" lon="14.8325618"><ele>628.0</ele><time>2026-05-01T09:13:41.055Z</time></trkpt><trkpt lat="40.7570391" lon="14.8326328"><ele>628.0</ele><time>2026-05-01T09:13:43.985Z</time></trkpt><trkpt lat="40.7570935" lon="14.8328579"><ele>628.0</ele><time>2026-05-01T09:13:44.982Z</time></trkpt><trkpt lat="40.7571256" lon="14.8329296"><ele>628.0</ele><time>2026-05-01T09:13:47.988Z</time></trkpt><trkpt lat="40.7571698" lon="14.8330057"><ele>633.5999999999999</ele><time>2026-05-01T09:13:52.977Z</time></trkpt><trkpt lat="40.7572356" lon="14.8330292"><ele>639.1999999999999</ele><time>2026-05-01T09:13:56.981Z</time></trkpt><trkpt lat="40.7573093" lon="14.8330337"><ele>644.8</ele><time>2026-05-01T09:14:01.988Z</time></trkpt><trkpt lat="40.7573832" lon="14.8330146"><ele>650.4</ele><time>2026-05-01T09:14:07.028Z</time></trkpt><trkpt lat="40.7574462" lon="14.8329954"><ele>656.0</ele><time>2026-05-01T09:14:10.982Z</time></trkpt><trkpt lat="40.7576488" lon="14.8329267"><ele>660.1999999999999</ele><time>2026-05-01T09:14:13.932Z</time></trkpt><trkpt lat="40.757727" lon="14.8329198"><ele>664.4</ele><time>2026-05-01T09:14:14.915Z</time></trkpt><trkpt lat="40.7578593" lon="14.8329334"><ele>668.6</ele><time>2026-05-01T09:14:16.994Z</time></trkpt><trkpt lat="40.7579448" lon="14.8329399"><ele>672.8</ele><time>2026-05-01T09:14:18.98Z</time></trkpt><trkpt lat="40.7580639" lon="14.8329446"><ele>677.0</ele><time>2026-05-01T09:14:19.989Z</time></trkpt><trkpt lat="40.7581397" lon="14.8329618"><ele>677.0</ele><time>2026-05-01T09:14:20.995Z</time></trkpt><trkpt lat="40.7582612" lon="14.8330039"><ele>677.0</ele><time>2026-05-01T09:14:21.98Z</time></trkpt><trkpt lat="40.7583295" lon="14.8330153"><ele>677.0</ele><time>2026-05-01T09:14:23.064Z</time></trkpt><trkpt lat="40.7583934" lon="14.8330282"><ele>677.0</ele><time>2026-05-01T09:14:23.99Z</time></trkpt><trkpt lat="40.7584291" lon="14.8331022"><ele>677.0</ele><time>2026-05-01T09:14:26.984Z</time></trkpt><trkpt lat="40.758492" lon="14.833094"><ele>677.0</ele><time>2026-05-01T09:14:33.042Z</time></trkpt><trkpt lat="40.7586049" lon="14.8332354"><ele>679.3333333333333</ele><time>2026-05-01T09:14:38.972Z</time></trkpt><trkpt lat="40.7586484" lon="14.833327"><ele>681.6666666666666</ele><time>2026-05-01T09:14:39.978Z</time></trkpt><trkpt lat="40.7587298" lon="14.833365"><ele>684.0</ele><time>2026-05-01T09:14:42.981Z</time></trkpt><trkpt lat="40.7587947" lon="14.8333666"><ele>686.3333333333334</ele><time>2026-05-01T09:14:44.983Z</time></trkpt><trkpt lat="40.7588588" lon="14.8333099"><ele>688.6666666666667</ele><time>2026-05-01T09:14:47.981Z</time></trkpt><trkpt lat="40.7589344" lon="14.8332731"><ele>691.0</ele><time>2026-05-01T09:14:51.974Z</time></trkpt><trkpt lat="40.7591766" lon="14.8331815"><ele>691.0</ele><time>2026-05-01T09:14:56.912Z</time></trkpt><trkpt lat="40.7593088" lon="14.8331395"><ele>691.0</ele><time>2026-05-01T09:14:57.978Z</time></trkpt><trkpt lat="40.7593891" lon="14.8331564"><ele>691.0</ele><time>2026-05-01T09:14:59.958Z</time></trkpt><trkpt lat="40.75952" lon="14.8331035"><ele>691.0</ele><time>2026-05-01T09:15:00.985Z</time></trkpt><trkpt lat="40.7597109" lon="14.8330021"><ele>693.4</ele><time>2026-05-01T09:15:01.982Z</time></trkpt><trkpt lat="40.7598158" lon="14.8329899"><ele>695.8</ele><time>2026-05-01T09:15:02.975Z</time></trkpt><trkpt lat="40.7599184" lon="14.8329788"><ele>698.1999999999999</ele><time>2026-05-01T09:15:03.982Z</time></trkpt><trkpt lat="40.7600182" lon="14.8329641"><ele>700.5999999999999</ele><time>2026-05-01T09:15:04.977Z</time></trkpt><trkpt lat="40.7601053" lon="14.8329367"><ele>703.0</ele><time>2026-05-01T09:15:06.038Z</time></trkpt><trkpt lat="40.7601921" lon="14.8329062"><ele>695.6666666666667</ele><time>2026-05-01T09:15:07.034Z</time></trkpt><trkpt lat="40.7602855" lon="14.8328775"><ele>688.3333333333334</ele><time>2026-05-01T09:15:07.97Z</time></trkpt><trkpt lat="40.7604929" lon="14.832797"><ele>681.0</ele><time>2026-05-01T09:15:08.99Z</time></trkpt><trkpt lat="40.7606512" lon="14.8327344"><ele>681.0</ele><time>2026-05-01T09:15:09.981Z</time></trkpt><trkpt lat="40.7608097" lon="14.8326745"><ele>681.0</ele><time>2026-05-01T09:15:10.983Z</time></trkpt><trkpt lat="40.7609653" lon="14.8326191"><ele>681.0</ele><time>2026-05-01T09:15:11.981Z</time></trkpt><trkpt lat="40.7611059" lon="14.8325461"><ele>669.25</ele><time>2026-05-01T09:15:12.981Z</time></trkpt><trkpt lat="40.761231" lon="14.8324713"><ele>657.5</ele><time>2026-05-01T09:15:13.975Z</time></trkpt><trkpt lat="40.7613681" lon="14.8323659"><ele>645.75</ele><time>2026-05-01T09:15:14.988Z</time></trkpt><trkpt lat="40.7614797" lon="14.8322671"><ele>634.0</ele><time>2026-05-01T09:15:15.975Z</time></trkpt><trkpt lat="40.7615653" lon="14.8321543"><ele>634.0</ele><time>2026-05-01T09:15:17.003Z</time></trkpt><trkpt lat="40.7616284" lon="14.8320454"><ele>634.0</ele><time>2026-05-01T09:15:17.969Z</time></trkpt><trkpt lat="40.761677" lon="14.8319425"><ele>634.0</ele><time>2026-05-01T09:15:18.975Z</time></trkpt><trkpt lat="40.7617158" lon="14.8318454"><ele>634.0</ele><time>2026-05-01T09:15:19.977Z</time></trkpt><trkpt lat="40.7617599" lon="14.8317536"><ele>634.0</ele><time>2026-05-01T09:15:20.984Z</time></trkpt><trkpt lat="40.7617895" lon="14.8316679"><ele>634.0</ele><time>2026-05-01T09:15:21.983Z</time></trkpt><trkpt lat="40.7618108" lon="14.8315822"><ele>632.8</ele><time>2026-05-01T09:15:23.058Z</time></trkpt><trkpt lat="40.7618285" lon="14.8314992"><ele>631.5999999999999</ele><time>2026-05-01T09:15:23.981Z</time></trkpt><trkpt lat="40.7618485" lon="14.8314154"><ele>630.4</ele><time>2026-05-01T09:15:24.976Z</time></trkpt><trkpt lat="40.7618732" lon="14.831269"><ele>629.1999999999999</ele><time>2026-05-01T09:15:26.982Z</time></trkpt><trkpt lat="40.761906" lon="14.8311262"><ele>628.0</ele><time>2026-05-01T09:15:28.98Z</time></trkpt><trkpt lat="40.7619635" lon="14.8310033"><ele>625.5</ele><time>2026-05-01T09:15:30.979Z</time></trkpt><trkpt lat="40.762043" lon="14.8308995"><ele>623.0</ele><time>2026-05-01T09:15:32.987Z</time></trkpt><trkpt lat="40.7620931" lon="14.8308453"><ele>620.5</ele><time>2026-05-01T09:15:33.984Z</time></trkpt><trkpt lat="40.7621459" lon="14.8307817"><ele>618.0</ele><time>2026-05-01T09:15:35.035Z</time></trkpt><trkpt lat="40.7621888" lon="14.8307195"><ele>615.5</ele><time>2026-05-01T09:15:35.984Z</time></trkpt><trkpt lat="40.7622324" lon="14.8306496"><ele>613.0</ele><time>2026-05-01T09:15:36.969Z</time></trkpt><trkpt lat="40.7622955" lon="14.8305851"><ele>613.0</ele><time>2026-05-01T09:15:37.971Z</time></trkpt><trkpt lat="40.7623686" lon="14.8305358"><ele>613.0</ele><time>2026-05-01T09:15:38.976Z</time></trkpt><trkpt lat="40.7624512" lon="14.8304958"><ele>613.0</ele><time>2026-05-01T09:15:40.967Z</time></trkpt><trkpt lat="40.7625311" lon="14.8305117"><ele>613.0</ele><time>2026-05-01T09:15:43.964Z</time></trkpt><trkpt lat="40.7625824" lon="14.8305605"><ele>613.0</ele><time>2026-05-01T09:15:45.975Z</time></trkpt><trkpt lat="40.7626993" lon="14.8306236"><ele>613.0</ele><time>2026-05-01T09:15:47.967Z</time></trkpt><trkpt lat="40.7627783" lon="14.8306621"><ele>612.4</ele><time>2026-05-01T09:15:48.971Z</time></trkpt><trkpt lat="40.7628629" lon="14.8306964"><ele>611.8</ele><time>2026-05-01T09:15:49.969Z</time></trkpt><trkpt lat="40.762949" lon="14.8307275"><ele>611.2</ele><time>2026-05-01T09:15:50.969Z</time></trkpt><trkpt lat="40.7630456" lon="14.8307567"><ele>610.6</ele><time>2026-05-01T09:15:52.045Z</time></trkpt><trkpt lat="40.7631366" lon="14.8307819"><ele>610.0</ele><time>2026-05-01T09:15:53.032Z</time></trkpt><trkpt lat="40.7632308" lon="14.8308229"><ele>610.0</ele><time>2026-05-01T09:15:53.975Z</time></trkpt><trkpt lat="40.7633268" lon="14.8308691"><ele>610.0</ele><time>2026-05-01T09:15:54.978Z</time></trkpt><trkpt lat="40.7618485" lon="14.8314154"><ele>610.6</ele><time>2026-05-01T09:15:24.976Z</time></trkpt><trkpt lat="40.7618732" lon="14.831269"><ele>611.2</ele><time>2026-05-01T09:15:26.982Z</time></trkpt><trkpt lat="40.761906" lon="14.8311262"><ele>611.8</ele><time>2026-05-01T09:15:28.98Z</time></trkpt><trkpt lat="40.7619635" lon="14.8310033"><ele>612.4</ele><time>2026-05-01T09:15:30.979Z</time></trkpt><trkpt lat="40.762043" lon="14.8308995"><ele>613.0</ele><time>2026-05-01T09:15:32.987Z</time></trkpt><trkpt lat="40.7620931" lon="14.8308453"><ele>613.0</ele><time>2026-05-01T09:15:33.984Z</time></trkpt><trkpt lat="40.7621459" lon="14.8307817"><ele>613.0</ele><time>2026-05-01T09:15:35.035Z</time></trkpt><trkpt lat="40.7621888" lon="14.8307195"><ele>613.0</ele><time>2026-05-01T09:15:35.984Z</time></trkpt><trkpt lat="40.7622324" lon="14.8306496"><ele>613.0</ele><time>2026-05-01T09:15:36.969Z</time></trkpt><trkpt lat="40.7622955" lon="14.8305851"><ele>613.0</ele><time>2026-05-01T09:15:37.971Z</time></trkpt><trkpt lat="40.7623686" lon="14.8305358"><ele>613.0</ele><time>2026-05-01T09:15:38.976Z</time></trkpt><trkpt lat="40.7624512" lon="14.8304958"><ele>613.0</ele><time>2026-05-01T09:15:40.967Z</time></trkpt><trkpt lat="40.7625311" lon="14.8305117"><ele>613.0</ele><time>2026-05-01T09:15:43.964Z</time></trkpt><trkpt lat="40.7625824" lon="14.8305605"><ele>613.0</ele><time>2026-05-01T09:15:45.975Z</time></trkpt><trkpt lat="40.7626993" lon="14.8306236"><ele>613.0</ele><time>2026-05-01T09:15:47.967Z</time></trkpt><trkpt lat="40.7627783" lon="14.8306621"><ele>613.0</ele><time>2026-05-01T09:15:48.971Z</time></trkpt><trkpt lat="40.7628629" lon="14.8306964"><ele>613.0</ele><time>2026-05-01T09:15:49.969Z</time></trkpt><trkpt lat="40.762949" lon="14.8307275"><ele>612.4</ele><time>2026-05-01T09:15:50.969Z</time></trkpt><trkpt lat="40.7630456" lon="14.8307567"><ele>611.8</ele><time>2026-05-01T09:15:52.045Z</time></trkpt><trkpt lat="40.7631366" lon="14.8307819"><ele>611.2</ele><time>2026-05-01T09:15:53.032Z</time></trkpt><trkpt lat="40.7632308" lon="14.8308229"><ele>610.6</ele><time>2026-05-01T09:15:53.975Z</time></trkpt><trkpt lat="40.7633268" lon="14.8308691"><ele>610.0</ele><time>2026-05-01T09:15:54.978Z</time></trkpt><trkpt lat="40.763406" lon="14.8309119"><ele>610.0</ele><time>2026-05-01T09:15:55.953Z</time></trkpt><trkpt lat="40.7634799" lon="14.8309503"><ele>610.0</ele><time>2026-05-01T09:15:56.977Z</time></trkpt><trkpt lat="40.7635462" lon="14.8309639"><ele>610.0</ele><time>2026-05-01T09:15:57.973Z</time></trkpt><trkpt lat="40.7636207" lon="14.8309598"><ele>610.0</ele><time>2026-05-01T09:15:58.986Z</time></trkpt><trkpt lat="40.7636786" lon="14.8309211"><ele>610.0</ele><time>2026-05-01T09:15:59.972Z</time></trkpt><trkpt lat="40.7637231" lon="14.8307881"><ele>610.0</ele><time>2026-05-01T09:16:01.975Z</time></trkpt><trkpt lat="40.7637612" lon="14.8306718"><ele>607.1666666666667</ele><time>2026-05-01T09:16:03.977Z</time></trkpt><trkpt lat="40.7638258" lon="14.8306122"><ele>604.3333333333334</ele><time>2026-05-01T09:16:05.98Z</time></trkpt><trkpt lat="40.7639022" lon="14.8306058"><ele>601.5</ele><time>2026-05-01T09:16:06.976Z</time></trkpt><trkpt lat="40.763989" lon="14.8305899"><ele>598.6666666666666</ele><time>2026-05-01T09:16:07.986Z</time></trkpt><trkpt lat="40.7640769" lon="14.8305702"><ele>595.8333333333333</ele><time>2026-05-01T09:16:08.975Z</time></trkpt><trkpt lat="40.7641641" lon="14.8305345"><ele>593.0</ele><time>2026-05-01T09:16:09.972Z</time></trkpt><trkpt lat="40.7642448" lon="14.8304925"><ele>593.0</ele><time>2026-05-01T09:16:10.98Z</time></trkpt><trkpt lat="40.7643243" lon="14.830445"><ele>593.0</ele><time>2026-05-01T09:16:11.991Z</time></trkpt><trkpt lat="40.7644038" lon="14.8304041"><ele>593.0</ele><time>2026-05-01T09:16:12.98Z</time></trkpt><trkpt lat="40.764469" lon="14.8303687"><ele>593.0</ele><time>2026-05-01T09:16:13.973Z</time></trkpt><trkpt lat="40.7645371" lon="14.8303258"><ele>593.0</ele><time>2026-05-01T09:16:14.967Z</time></trkpt><trkpt lat="40.7645962" lon="14.830272"><ele>593.0</ele><time>2026-05-01T09:16:16.016Z</time></trkpt><trkpt lat="40.7646832" lon="14.8301612"><ele>594.0</ele><time>2026-05-01T09:16:17.974Z</time></trkpt><trkpt lat="40.7647274" lon="14.8300728"><ele>595.0</ele><time>2026-05-01T09:16:18.976Z</time></trkpt><trkpt lat="40.7647659" lon="14.8299894"><ele>596.0</ele><time>2026-05-01T09:16:19.979Z</time></trkpt><trkpt lat="40.7648125" lon="14.8299209"><ele>597.0</ele><time>2026-05-01T09:16:20.972Z</time></trkpt><trkpt lat="40.7648914" lon="14.8298537"><ele>598.0</ele><time>2026-05-01T09:16:23.012Z</time></trkpt><trkpt lat="40.764968" lon="14.8298245"><ele>599.0</ele><time>2026-05-01T09:16:24.976Z</time></trkpt><trkpt lat="40.7650385" lon="14.8298121"><ele>599.0</ele><time>2026-05-01T09:16:25.959Z</time></trkpt><trkpt lat="40.7651117" lon="14.8298114"><ele>599.0</ele><time>2026-05-01T09:16:26.969Z</time></trkpt><trkpt lat="40.7651878" lon="14.8298231"><ele>599.0</ele><time>2026-05-01T09:16:27.968Z</time></trkpt><trkpt lat="40.7652705" lon="14.8298417"><ele>599.0</ele><time>2026-05-01T09:16:28.972Z</time></trkpt><trkpt lat="40.7653464" lon="14.8298644"><ele>599.0</ele><time>2026-05-01T09:16:29.973Z</time></trkpt><trkpt lat="40.7654166" lon="14.829887"><ele>599.0</ele><time>2026-05-01T09:16:30.973Z</time></trkpt><trkpt lat="40.7654909" lon="14.8299231"><ele>596.2</ele><time>2026-05-01T09:16:31.973Z</time></trkpt><trkpt lat="40.7655752" lon="14.8299554"><ele>593.4</ele><time>2026-05-01T09:16:33.055Z</time></trkpt><trkpt lat="40.7656697" lon="14.8299924"><ele>590.6</ele><time>2026-05-01T09:16:33.971Z</time></trkpt><trkpt lat="40.7657646" lon="14.8300278"><ele>587.8</ele><time>2026-05-01T09:16:34.976Z</time></trkpt><trkpt lat="40.7658599" lon="14.8300695"><ele>585.0</ele><time>2026-05-01T09:16:35.985Z</time></trkpt><trkpt lat="40.765946" lon="14.8301154"><ele>579.2</ele><time>2026-05-01T09:16:36.975Z</time></trkpt><trkpt lat="40.7660384" lon="14.8301614"><ele>573.4</ele><time>2026-05-01T09:16:37.973Z</time></trkpt><trkpt lat="40.7661286" lon="14.8301967"><ele>567.6</ele><time>2026-05-01T09:16:38.975Z</time></trkpt><trkpt lat="40.766217" lon="14.8302037"><ele>561.8</ele><time>2026-05-01T09:16:39.979Z</time></trkpt><trkpt lat="40.7662946" lon="14.8302071"><ele>556.0</ele><time>2026-05-01T09:16:40.983Z</time></trkpt><trkpt lat="40.7663845" lon="14.8301875"><ele>556.0</ele><time>2026-05-01T09:16:41.974Z</time></trkpt><trkpt lat="40.7664673" lon="14.8301548"><ele>556.0</ele><time>2026-05-01T09:16:42.957Z</time></trkpt><trkpt lat="40.7665415" lon="14.8301327"><ele>556.0</ele><time>2026-05-01T09:16:43.954Z</time></trkpt><trkpt lat="40.7666081" lon="14.8301002"><ele>556.0</ele><time>2026-05-01T09:16:45.972Z</time></trkpt><trkpt lat="40.7665852" lon="14.8302038"><ele>556.0</ele><time>2026-05-01T09:16:47.953Z</time></trkpt><trkpt lat="40.766537" lon="14.8302859"><ele>556.0</ele><time>2026-05-01T09:16:48.981Z</time></trkpt><trkpt lat="40.7664396" lon="14.830376"><ele>556.0</ele><time>2026-05-01T09:16:50.985Z</time></trkpt><trkpt lat="40.7663663" lon="14.8304044"><ele>556.0</ele><time>2026-05-01T09:16:51.955Z</time></trkpt><trkpt lat="40.7662762" lon="14.8304104"><ele>556.0</ele><time>2026-05-01T09:16:52.974Z</time></trkpt><trkpt lat="40.7661966" lon="14.8304196"><ele>556.0</ele><time>2026-05-01T09:16:53.967Z</time></trkpt><trkpt lat="40.7660721" lon="14.8304649"><ele>556.0</ele><time>2026-05-01T09:16:55.97Z</time></trkpt><trkpt lat="40.7659892" lon="14.8304936"><ele>556.8</ele><time>2026-05-01T09:16:56.969Z</time></trkpt><trkpt lat="40.7658962" lon="14.830524"><ele>557.6</ele><time>2026-05-01T09:16:58.013Z</time></trkpt><trkpt lat="40.7657991" lon="14.8305591"><ele>558.4</ele><time>2026-05-01T09:16:58.965Z</time></trkpt><trkpt lat="40.7657035" lon="14.8305759"><ele>559.2</ele><time>2026-05-01T09:16:59.966Z</time></trkpt><trkpt lat="40.7656012" lon="14.8305791"><ele>560.0</ele><time>2026-05-01T09:17:00.967Z</time></trkpt><trkpt lat="40.7654905" lon="14.8305722"><ele>560.0</ele><time>2026-05-01T09:17:01.975Z</time></trkpt><trkpt lat="40.7653926" lon="14.830548"><ele>560.0</ele><time>2026-05-01T09:17:02.972Z</time></trkpt><trkpt lat="40.7653077" lon="14.8304991"><ele>560.0</ele><time>2026-05-01T09:17:03.958Z</time></trkpt><trkpt lat="40.7652391" lon="14.8304211"><ele>560.0</ele><time>2026-05-01T09:17:05.968Z</time></trkpt><trkpt lat="40.7651774" lon="14.8304828"><ele>560.0</ele><time>2026-05-01T09:17:10.972Z</time></trkpt><trkpt lat="40.7651562" lon="14.8305873"><ele>560.0</ele><time>2026-05-01T09:17:12.964Z</time></trkpt><trkpt lat="40.7651029" lon="14.8307037"><ele>561.6</ele><time>2026-05-01T09:17:14.975Z</time></trkpt><trkpt lat="40.7650327" lon="14.8308223"><ele>563.2</ele><time>2026-05-01T09:17:16.974Z</time></trkpt><trkpt lat="40.7649848" lon="14.8308914"><ele>564.8</ele><time>2026-05-01T09:17:17.967Z</time></trkpt><trkpt lat="40.7649367" lon="14.8309622"><ele>566.4</ele><time>2026-05-01T09:17:18.968Z</time></trkpt><trkpt lat="40.7648973" lon="14.8310839"><ele>568.0</ele><time>2026-05-01T09:17:21.017Z</time></trkpt><trkpt lat="40.7649367" lon="14.8312292"><ele>565.3333333333334</ele><time>2026-05-01T09:17:22.967Z</time></trkpt><trkpt lat="40.7649761" lon="14.831316"><ele>562.6666666666667</ele><time>2026-05-01T09:17:23.967Z</time></trkpt><trkpt lat="40.7650195" lon="14.8313946"><ele>560.0</ele><time>2026-05-01T09:17:24.959Z</time></trkpt><trkpt lat="40.7650812" lon="14.8314699"><ele>557.3333333333334</ele><time>2026-05-01T09:17:25.965Z</time></trkpt><trkpt lat="40.7651382" lon="14.8315381"><ele>554.6666666666666</ele><time>2026-05-01T09:17:27.023Z</time></trkpt><trkpt lat="40.7651994" lon="14.8316057"><ele>552.0</ele><time>2026-05-01T09:17:28.019Z</time></trkpt><trkpt lat="40.7652587" lon="14.8316725"><ele>549.4</ele><time>2026-05-01T09:17:28.957Z</time></trkpt><trkpt lat="40.7653023" lon="14.8317375"><ele>546.8000000000001</ele><time>2026-05-01T09:17:30.968Z</time></trkpt><trkpt lat="40.7652431" lon="14.8318869"><ele>544.2</ele><time>2026-05-01T09:17:33.98Z</time></trkpt><trkpt lat="40.7651757" lon="14.8319636"><ele>541.6</ele><time>2026-05-01T09:17:35.038Z</time></trkpt><trkpt lat="40.7650895" lon="14.8320437"><ele>539.0</ele><time>2026-05-01T09:17:35.961Z</time></trkpt><trkpt lat="40.7650012" lon="14.8321141"><ele>539.0</ele><time>2026-05-01T09:17:37.038Z</time></trkpt><trkpt lat="40.7649192" lon="14.8321699"><ele>539.0</ele><time>2026-05-01T09:17:38.028Z</time></trkpt><trkpt lat="40.7648322" lon="14.8322252"><ele>539.0</ele><time>2026-05-01T09:17:38.964Z</time></trkpt><trkpt lat="40.7647454" lon="14.8322791"><ele>539.0</ele><time>2026-05-01T09:17:39.972Z</time></trkpt><trkpt lat="40.7646684" lon="14.8323289"><ele>539.0</ele><time>2026-05-01T09:17:40.974Z</time></trkpt><trkpt lat="40.7645867" lon="14.8323714"><ele>539.0</ele><time>2026-05-01T09:17:42.012Z</time></trkpt><trkpt lat="40.7645141" lon="14.8324222"><ele>539.0</ele><time>2026-05-01T09:17:43.025Z</time></trkpt><trkpt lat="40.7644463" lon="14.8324707"><ele>539.0</ele><time>2026-05-01T09:17:43.972Z</time></trkpt><trkpt lat="40.7643851" lon="14.8325243"><ele>539.0</ele><time>2026-05-01T09:17:44.971Z</time></trkpt><trkpt lat="40.7643289" lon="14.8326003"><ele>539.0</ele><time>2026-05-01T09:17:45.978Z</time></trkpt><trkpt lat="40.7643087" lon="14.8326861"><ele>539.0</ele><time>2026-05-01T09:17:47.044Z</time></trkpt><trkpt lat="40.7642889" lon="14.8327716"><ele>539.0</ele><time>2026-05-01T09:17:48.03Z</time></trkpt><trkpt lat="40.7642913" lon="14.8328641"><ele>541.6666666666666</ele><time>2026-05-01T09:17:48.965Z</time></trkpt><trkpt lat="40.7643089" lon="14.8329672"><ele>544.3333333333333</ele><time>2026-05-01T09:17:51.047Z</time></trkpt><trkpt lat="40.7642702" lon="14.8330425"><ele>547.0</ele><time>2026-05-01T09:17:53.97Z</time></trkpt><trkpt lat="40.7642435" lon="14.8331208"><ele>549.6666666666666</ele><time>2026-05-01T09:17:57.968Z</time></trkpt><trkpt lat="40.7642131" lon="14.8332152"><ele>552.3333333333334</ele><time>2026-05-01T09:18:00.979Z</time></trkpt><trkpt lat="40.7641831" lon="14.8333332"><ele>555.0</ele><time>2026-05-01T09:18:03.961Z</time></trkpt><trkpt lat="40.7642447" lon="14.8334629"><ele>552.8</ele><time>2026-05-01T09:18:06.964Z</time></trkpt><trkpt lat="40.7643366" lon="14.833541"><ele>550.6</ele><time>2026-05-01T09:18:07.972Z</time></trkpt><trkpt lat="40.7644301" lon="14.8336179"><ele>548.4</ele><time>2026-05-01T09:18:08.973Z</time></trkpt><trkpt lat="40.7645138" lon="14.8336977"><ele>546.2</ele><time>2026-05-01T09:18:09.958Z</time></trkpt><trkpt lat="40.7645862" lon="14.833784"><ele>544.0</ele><time>2026-05-01T09:18:10.978Z</time></trkpt><trkpt lat="40.7646448" lon="14.8338803"><ele>544.0</ele><time>2026-05-01T09:18:11.965Z</time></trkpt><trkpt lat="40.7646949" lon="14.833949"><ele>544.0</ele><time>2026-05-01T09:18:12.972Z</time></trkpt><trkpt lat="40.7647849" lon="14.8340153"><ele>544.0</ele><time>2026-05-01T09:18:14.954Z</time></trkpt><trkpt lat="40.7648628" lon="14.8340716"><ele>544.0</ele><time>2026-05-01T09:18:16.954Z</time></trkpt><trkpt lat="40.7649185" lon="14.8341891"><ele>544.0</ele><time>2026-05-01T09:18:18.98Z</time></trkpt><trkpt lat="40.7649295" lon="14.8342721"><ele>544.0</ele><time>2026-05-01T09:18:19.971Z</time></trkpt><trkpt lat="40.7649228" lon="14.8343715"><ele>544.6666666666667</ele><time>2026-05-01T09:18:20.975Z</time></trkpt><trkpt lat="40.7649043" lon="14.8344731"><ele>545.3333333333334</ele><time>2026-05-01T09:18:21.972Z</time></trkpt><trkpt lat="40.7648971" lon="14.834585"><ele>546.0</ele><time>2026-05-01T09:18:22.972Z</time></trkpt><trkpt lat="40.7648945" lon="14.8346981"><ele>546.6666666666666</ele><time>2026-05-01T09:18:23.971Z</time></trkpt><trkpt lat="40.7649037" lon="14.8348068"><ele>547.3333333333333</ele><time>2026-05-01T09:18:24.974Z</time></trkpt><trkpt lat="40.7649125" lon="14.8349093"><ele>548.0</ele><time>2026-05-01T09:18:25.976Z</time></trkpt><trkpt lat="40.7649236" lon="14.8350159"><ele>548.0</ele><time>2026-05-01T09:18:26.971Z</time></trkpt><trkpt lat="40.7649279" lon="14.8351163"><ele>548.0</ele><time>2026-05-01T09:18:27.973Z</time></trkpt><trkpt lat="40.7649545" lon="14.8352232"><ele>548.0</ele><time>2026-05-01T09:18:28.972Z</time></trkpt><trkpt lat="40.7649884" lon="14.8353445"><ele>548.0</ele><time>2026-05-01T09:18:29.975Z</time></trkpt><trkpt lat="40.7650216" lon="14.8354554"><ele>548.0</ele><time>2026-05-01T09:18:30.975Z</time></trkpt><trkpt lat="40.765051" lon="14.8355605"><ele>548.0</ele><time>2026-05-01T09:18:31.97Z</time></trkpt><trkpt lat="40.7650811" lon="14.8356607"><ele>548.1999999999999</ele><time>2026-05-01T09:18:32.973Z</time></trkpt><trkpt lat="40.7651179" lon="14.8357582"><ele>548.4</ele><time>2026-05-01T09:18:34.974Z</time></trkpt><trkpt lat="40.7651113" lon="14.835876"><ele>548.5999999999999</ele><time>2026-05-01T09:18:37.97Z</time></trkpt><trkpt lat="40.7650837" lon="14.8359749"><ele>548.8</ele><time>2026-05-01T09:18:39.966Z</time></trkpt><trkpt lat="40.7650625" lon="14.83609"><ele>549.0</ele><time>2026-05-01T09:18:41.972Z</time></trkpt><trkpt lat="40.7650473" lon="14.8362709"><ele>547.5</ele><time>2026-05-01T09:18:43.979Z</time></trkpt><trkpt lat="40.7650235" lon="14.8363704"><ele>546.0</ele><time>2026-05-01T09:18:44.98Z</time></trkpt><trkpt lat="40.765002" lon="14.8364726"><ele>544.5</ele><time>2026-05-01T09:18:45.97Z</time></trkpt><trkpt lat="40.7649661" lon="14.836582"><ele>543.0</ele><time>2026-05-01T09:18:46.972Z</time></trkpt><trkpt lat="40.7649366" lon="14.8366832"><ele>541.5</ele><time>2026-05-01T09:18:47.966Z</time></trkpt><trkpt lat="40.764903" lon="14.8367881"><ele>540.0</ele><time>2026-05-01T09:18:48.97Z</time></trkpt><trkpt lat="40.7648818" lon="14.8368752"><ele>537.6666666666666</ele><time>2026-05-01T09:18:49.972Z</time></trkpt><trkpt lat="40.7648777" lon="14.836994"><ele>535.3333333333334</ele><time>2026-05-01T09:18:51.974Z</time></trkpt><trkpt lat="40.7649228" lon="14.8371174"><ele>533.0</ele><time>2026-05-01T09:18:53.976Z</time></trkpt><trkpt lat="40.7649509" lon="14.8372583"><ele>530.6666666666667</ele><time>2026-05-01T09:18:55.976Z</time></trkpt><trkpt lat="40.76497" lon="14.8373388"><ele>528.3333333333334</ele><time>2026-05-01T09:18:56.968Z</time></trkpt><trkpt lat="40.7649883" lon="14.8374214"><ele>526.0</ele><time>2026-05-01T09:18:57.967Z</time></trkpt><trkpt lat="40.7650033" lon="14.8375309"><ele>526.0</ele><time>2026-05-01T09:18:58.965Z</time></trkpt><trkpt lat="40.7650091" lon="14.837634"><ele>526.0</ele><time>2026-05-01T09:18:59.973Z</time></trkpt><trkpt lat="40.7649949" lon="14.8377297"><ele>526.0</ele><time>2026-05-01T09:19:00.969Z</time></trkpt><trkpt lat="40.7649635" lon="14.8378238"><ele>526.0</ele><time>2026-05-01T09:19:01.968Z</time></trkpt><trkpt lat="40.764927" lon="14.8379067"><ele>526.0</ele><time>2026-05-01T09:19:02.976Z</time></trkpt><trkpt lat="40.7648816" lon="14.8379795"><ele>526.0</ele><time>2026-05-01T09:19:03.978Z</time></trkpt><trkpt lat="40.7648299" lon="14.8380554"><ele>524.2</ele><time>2026-05-01T09:19:05.088Z</time></trkpt><trkpt lat="40.7646875" lon="14.8381696"><ele>522.4000000000001</ele><time>2026-05-01T09:19:06.96Z</time></trkpt><trkpt lat="40.7646144" lon="14.8381826"><ele>520.6</ele><time>2026-05-01T09:19:07.968Z</time></trkpt><trkpt lat="40.7645151" lon="14.8381995"><ele>518.8000000000001</ele><time>2026-05-01T09:19:09.976Z</time></trkpt><trkpt lat="40.7644331" lon="14.8381812"><ele>517.0</ele><time>2026-05-01T09:19:11.969Z</time></trkpt><trkpt lat="40.7643706" lon="14.8381574"><ele>517.0</ele><time>2026-05-01T09:19:12.976Z</time></trkpt><trkpt lat="40.7643004" lon="14.8381886"><ele>517.0</ele><time>2026-05-01T09:19:15.956Z</time></trkpt><trkpt lat="40.7642324" lon="14.8381864"><ele>517.0</ele><time>2026-05-01T09:19:17.968Z</time></trkpt><trkpt lat="40.7642759" lon="14.8382681"><ele>517.0</ele><time>2026-05-01T09:19:23.971Z</time></trkpt><trkpt lat="40.7643381" lon="14.8383681"><ele>517.0</ele><time>2026-05-01T09:19:25.973Z</time></trkpt><trkpt lat="40.7643979" lon="14.8384373"><ele>517.0</ele><time>2026-05-01T09:19:28.032Z</time></trkpt><trkpt lat="40.7645066" lon="14.8384819"><ele>519.6</ele><time>2026-05-01T09:19:29.966Z</time></trkpt><trkpt lat="40.7645976" lon="14.8384953"><ele>522.2</ele><time>2026-05-01T09:19:31.983Z</time></trkpt><trkpt lat="40.7646669" lon="14.8385115"><ele>524.8</ele><time>2026-05-01T09:19:33.971Z</time></trkpt><trkpt lat="40.7647594" lon="14.83853"><ele>527.4</ele><time>2026-05-01T09:19:35.952Z</time></trkpt><trkpt lat="40.7649006" lon="14.8385449"><ele>530.0</ele><time>2026-05-01T09:19:37.974Z</time></trkpt><trkpt lat="40.7649682" lon="14.8385371"><ele>530.0</ele><time>2026-05-01T09:19:38.979Z</time></trkpt><trkpt lat="40.7650418" lon="14.8385264"><ele>530.0</ele><time>2026-05-01T09:19:40.03Z</time></trkpt><trkpt lat="40.7651137" lon="14.8385341"><ele>530.0</ele><time>2026-05-01T09:19:40.969Z</time></trkpt><trkpt lat="40.7652297" lon="14.8385437"><ele>530.0</ele><time>2026-05-01T09:19:42.965Z</time></trkpt><trkpt lat="40.7653415" lon="14.8385314"><ele>530.0</ele><time>2026-05-01T09:19:44.967Z</time></trkpt><trkpt lat="40.7654545" lon="14.8384937"><ele>529.6</ele><time>2026-05-01T09:19:46.999Z</time></trkpt><trkpt lat="40.7655193" lon="14.8384751"><ele>529.2</ele><time>2026-05-01T09:19:47.964Z</time></trkpt><trkpt lat="40.7655942" lon="14.8384438"><ele>528.8</ele><time>2026-05-01T09:19:48.967Z</time></trkpt><trkpt lat="40.7656566" lon="14.8383849"><ele>528.4</ele><time>2026-05-01T09:19:49.961Z</time></trkpt><trkpt lat="40.7657213" lon="14.8382475"><ele>528.0</ele><time>2026-05-01T09:19:51.969Z</time></trkpt><trkpt lat="40.7658049" lon="14.8381337"><ele>528.0</ele><time>2026-05-01T09:19:53.969Z</time></trkpt><trkpt lat="40.7659144" lon="14.8380554"><ele>528.0</ele><time>2026-05-01T09:19:55.962Z</time></trkpt><trkpt lat="40.76597" lon="14.8380137"><ele>528.0</ele><time>2026-05-01T09:19:56.974Z</time></trkpt><trkpt lat="40.7660301" lon="14.8379682"><ele>528.0</ele><time>2026-05-01T09:19:57.973Z</time></trkpt><trkpt lat="40.7660903" lon="14.8379348"><ele>528.0</ele><time>2026-05-01T09:19:58.969Z</time></trkpt><trkpt lat="40.7661654" lon="14.8379374"><ele>528.0</ele><time>2026-05-01T09:20:00.976Z</time></trkpt><trkpt lat="40.7661551" lon="14.8380614"><ele>528.0</ele><time>2026-05-01T09:20:05.984Z</time></trkpt><trkpt lat="40.7660851" lon="14.838155"><ele>528.0</ele><time>2026-05-01T09:20:07.969Z</time></trkpt><trkpt lat="40.766023" lon="14.8382617"><ele>528.0</ele><time>2026-05-01T09:20:09.985Z</time></trkpt><trkpt lat="40.7660028" lon="14.8384131"><ele>528.0</ele><time>2026-05-01T09:20:11.967Z</time></trkpt><trkpt lat="40.7659633" lon="14.838531"><ele>528.0</ele><time>2026-05-01T09:20:13.961Z</time></trkpt><trkpt lat="40.7658732" lon="14.8385814"><ele>531.3333333333334</ele><time>2026-05-01T09:20:15.982Z</time></trkpt><trkpt lat="40.7657921" lon="14.8385908"><ele>534.6666666666666</ele><time>2026-05-01T09:20:16.966Z</time></trkpt><trkpt lat="40.7657256" lon="14.8386251"><ele>538.0</ele><time>2026-05-01T09:20:17.966Z</time></trkpt><trkpt lat="40.7656768" lon="14.838687"><ele>541.3333333333333</ele><time>2026-05-01T09:20:18.975Z</time></trkpt><trkpt lat="40.7656268" lon="14.8387561"><ele>544.6666666666666</ele><time>2026-05-01T09:20:19.973Z</time></trkpt><trkpt lat="40.7655758" lon="14.8388325"><ele>548.0</ele><time>2026-05-01T09:20:20.965Z</time></trkpt><trkpt lat="40.7655249" lon="14.8389193"><ele>548.0</ele><time>2026-05-01T09:20:21.978Z</time></trkpt><trkpt lat="40.7654686" lon="14.8389952"><ele>548.0</ele><time>2026-05-01T09:20:22.973Z</time></trkpt><trkpt lat="40.765394" lon="14.8390637"><ele>548.0</ele><time>2026-05-01T09:20:23.982Z</time></trkpt><trkpt lat="40.7653108" lon="14.8391141"><ele>548.0</ele><time>2026-05-01T09:20:24.964Z</time></trkpt><trkpt lat="40.7652166" lon="14.8391683"><ele>548.0</ele><time>2026-05-01T09:20:25.97Z</time></trkpt><trkpt lat="40.7651408" lon="14.8392257"><ele>549.0</ele><time>2026-05-01T09:20:26.975Z</time></trkpt><trkpt lat="40.7650814" lon="14.8392964"><ele>550.0</ele><time>2026-05-01T09:20:27.974Z</time></trkpt><trkpt lat="40.7650418" lon="14.8393852"><ele>551.0</ele><time>2026-05-01T09:20:28.965Z</time></trkpt><trkpt lat="40.7649924" lon="14.8394966"><ele>552.0</ele><time>2026-05-01T09:20:29.965Z</time></trkpt><trkpt lat="40.7649555" lon="14.8395936"><ele>553.0</ele><time>2026-05-01T09:20:30.963Z</time></trkpt><trkpt lat="40.7649369" lon="14.8397551"><ele>553.0</ele><time>2026-05-01T09:20:32.979Z</time></trkpt><trkpt lat="40.7649433" lon="14.8398661"><ele>553.0</ele><time>2026-05-01T09:20:33.974Z</time></trkpt><trkpt lat="40.7649462" lon="14.8399774"><ele>553.0</ele><time>2026-05-01T09:20:34.97Z</time></trkpt><trkpt lat="40.7649384" lon="14.8400992"><ele>553.0</ele><time>2026-05-01T09:20:35.955Z</time></trkpt><trkpt lat="40.7649186" lon="14.8402289"><ele>553.0</ele><time>2026-05-01T09:20:36.964Z</time></trkpt><trkpt lat="40.7649043" lon="14.8403498"><ele>554.6666666666667</ele><time>2026-05-01T09:20:37.969Z</time></trkpt><trkpt lat="40.7648949" lon="14.8404618"><ele>556.3333333333334</ele><time>2026-05-01T09:20:38.97Z</time></trkpt><trkpt lat="40.7648716" lon="14.8405561"><ele>558.0</ele><time>2026-05-01T09:20:39.968Z</time></trkpt><trkpt lat="40.7648472" lon="14.8406347"><ele>559.6666666666666</ele><time>2026-05-01T09:20:40.964Z</time></trkpt><trkpt lat="40.7648021" lon="14.8407011"><ele>561.3333333333333</ele><time>2026-05-01T09:20:41.965Z</time></trkpt><trkpt lat="40.7647197" lon="14.840748"><ele>563.0</ele><time>2026-05-01T09:20:43.973Z</time></trkpt><trkpt lat="40.7646855" lon="14.8406705"><ele>563.0</ele><time>2026-05-01T09:20:48.965Z</time></trkpt><trkpt lat="40.7646164" lon="14.8406293"><ele>563.0</ele><time>2026-05-01T09:20:54.965Z</time></trkpt><trkpt lat="40.7644831" lon="14.8406922"><ele>563.0</ele><time>2026-05-01T09:20:56.978Z</time></trkpt><trkpt lat="40.7643778" lon="14.8407777"><ele>563.0</ele><time>2026-05-01T09:20:57.964Z</time></trkpt><trkpt lat="40.764265" lon="14.8408393"><ele>561.1999999999999</ele><time>2026-05-01T09:20:58.97Z</time></trkpt><trkpt lat="40.7641682" lon="14.840893"><ele>559.4</ele><time>2026-05-01T09:20:59.966Z</time></trkpt><trkpt lat="40.7640858" lon="14.8409478"><ele>557.5999999999999</ele><time>2026-05-01T09:21:00.967Z</time></trkpt><trkpt lat="40.7639931" lon="14.8409776"><ele>555.8</ele><time>2026-05-01T09:21:01.97Z</time></trkpt><trkpt lat="40.7639008" lon="14.8410116"><ele>554.0</ele><time>2026-05-01T09:21:02.966Z</time></trkpt><trkpt lat="40.7638335" lon="14.841053"><ele>554.0</ele><time>2026-05-01T09:21:03.973Z</time></trkpt><trkpt lat="40.7637873" lon="14.8411166"><ele>554.0</ele><time>2026-05-01T09:21:04.947Z</time></trkpt><trkpt lat="40.7637583" lon="14.8411919"><ele>554.0</ele><time>2026-05-01T09:21:05.973Z</time></trkpt><trkpt lat="40.763725" lon="14.8412641"><ele>554.0</ele><time>2026-05-01T09:21:06.976Z</time></trkpt><trkpt lat="40.7636867" lon="14.8413426"><ele>554.0</ele><time>2026-05-01T09:21:07.972Z</time></trkpt><trkpt lat="40.7636587" lon="14.8414391"><ele>554.0</ele><time>2026-05-01T09:21:08.97Z</time></trkpt><trkpt lat="40.7636423" lon="14.8415453"><ele>554.0</ele><time>2026-05-01T09:21:09.979Z</time></trkpt><trkpt lat="40.7636228" lon="14.8416486"><ele>554.0</ele><time>2026-05-01T09:21:10.971Z</time></trkpt><trkpt lat="40.7635935" lon="14.8417528"><ele>554.0</ele><time>2026-05-01T09:21:11.976Z</time></trkpt><trkpt lat="40.7635511" lon="14.8418562"><ele>554.0</ele><time>2026-05-01T09:21:12.981Z</time></trkpt><trkpt lat="40.7635074" lon="14.8419552"><ele>554.0</ele><time>2026-05-01T09:21:13.975Z</time></trkpt><trkpt lat="40.7634679" lon="14.8420574"><ele>554.0</ele><time>2026-05-01T09:21:14.966Z</time></trkpt><trkpt lat="40.7634266" lon="14.8421608"><ele>554.0</ele><time>2026-05-01T09:21:15.983Z</time></trkpt><trkpt lat="40.7633779" lon="14.8422589"><ele>556.1666666666666</ele><time>2026-05-01T09:21:16.978Z</time></trkpt><trkpt lat="40.7633251" lon="14.8423407"><ele>558.3333333333333</ele><time>2026-05-01T09:21:17.976Z</time></trkpt><trkpt lat="40.7632777" lon="14.8424054"><ele>560.5</ele><time>2026-05-01T09:21:18.97Z</time></trkpt><trkpt lat="40.7632304" lon="14.8424672"><ele>562.6666666666666</ele><time>2026-05-01T09:21:19.975Z</time></trkpt><trkpt lat="40.7631798" lon="14.8425353"><ele>564.8333333333334</ele><time>2026-05-01T09:21:20.946Z</time></trkpt><trkpt lat="40.7631393" lon="14.8426086"><ele>567.0</ele><time>2026-05-01T09:21:21.981Z</time></trkpt><trkpt lat="40.7630483" lon="14.8427421"><ele>567.0</ele><time>2026-05-01T09:21:23.98Z</time></trkpt><trkpt lat="40.7630016" lon="14.8428018"><ele>567.0</ele><time>2026-05-01T09:21:24.972Z</time></trkpt><trkpt lat="40.7629387" lon="14.8429043"><ele>567.0</ele><time>2026-05-01T09:21:26.972Z</time></trkpt><trkpt lat="40.7629074" lon="14.8430105"><ele>567.0</ele><time>2026-05-01T09:21:28.962Z</time></trkpt><trkpt lat="40.7628671" lon="14.8431402"><ele>567.0</ele><time>2026-05-01T09:21:31.046Z</time></trkpt><trkpt lat="40.7628214" lon="14.8432363"><ele>567.0</ele><time>2026-05-01T09:21:32.968Z</time></trkpt><trkpt lat="40.7627763" lon="14.8433356"><ele>567.0</ele><time>2026-05-01T09:21:34.982Z</time></trkpt><trkpt lat="40.7627474" lon="14.8434162"><ele>567.0</ele><time>2026-05-01T09:21:35.975Z</time></trkpt><trkpt lat="40.7627056" lon="14.8435224"><ele>567.0</ele><time>2026-05-01T09:21:36.979Z</time></trkpt><trkpt lat="40.7626646" lon="14.8436204"><ele>567.0</ele><time>2026-05-01T09:21:37.948Z</time></trkpt><trkpt lat="40.7626259" lon="14.8437083"><ele>567.0</ele><time>2026-05-01T09:21:38.971Z</time></trkpt><trkpt lat="40.7625867" lon="14.8437817"><ele>567.0</ele><time>2026-05-01T09:21:39.963Z</time></trkpt><trkpt lat="40.7625369" lon="14.8438573"><ele>570.8333333333334</ele><time>2026-05-01T09:21:40.95Z</time></trkpt><trkpt lat="40.7624779" lon="14.8439517"><ele>574.6666666666666</ele><time>2026-05-01T09:21:41.97Z</time></trkpt><trkpt lat="40.7624182" lon="14.8440526"><ele>578.5</ele><time>2026-05-01T09:21:42.979Z</time></trkpt><trkpt lat="40.7623628" lon="14.8441427"><ele>582.3333333333333</ele><time>2026-05-01T09:21:43.967Z</time></trkpt><trkpt lat="40.7623073" lon="14.8442238"><ele>586.1666666666666</ele><time>2026-05-01T09:21:44.972Z</time></trkpt><trkpt lat="40.762261" lon="14.8442851"><ele>590.0</ele><time>2026-05-01T09:21:45.982Z</time></trkpt><trkpt lat="40.7622175" lon="14.8443543"><ele>590.0</ele><time>2026-05-01T09:21:47.974Z</time></trkpt><trkpt lat="40.7622067" lon="14.8442637"><ele>590.0</ele><time>2026-05-01T09:22:00.975Z</time></trkpt><trkpt lat="40.7622554" lon="14.8441569"><ele>590.0</ele><time>2026-05-01T09:22:03.962Z</time></trkpt><trkpt lat="40.762294" lon="14.8440801"><ele>590.0</ele><time>2026-05-01T09:22:05.974Z</time></trkpt><trkpt lat="40.7623208" lon="14.8440022"><ele>590.0</ele><time>2026-05-01T09:22:07.969Z</time></trkpt><trkpt lat="40.762244" lon="14.8440076"><ele>590.0</ele><time>2026-05-01T09:22:11.969Z</time></trkpt><trkpt lat="40.7621626" lon="14.8440481"><ele>590.0000000000001</ele><time>2026-05-01T09:22:13.969Z</time></trkpt><trkpt lat="40.7621012" lon="14.844095"><ele>590.0</ele><time>2026-05-01T09:22:14.98Z</time></trkpt><trkpt lat="40.7620347" lon="14.8441481"><ele>590.0</ele><time>2026-05-01T09:22:15.971Z</time></trkpt><trkpt lat="40.7619741" lon="14.8442067"><ele>590.0</ele><time>2026-05-01T09:22:16.97Z</time></trkpt><trkpt lat="40.761925" lon="14.8442642"><ele>590.0</ele><time>2026-05-01T09:22:17.969Z</time></trkpt><trkpt lat="40.7618747" lon="14.8443272"><ele>590.0000000000001</ele><time>2026-05-01T09:22:18.973Z</time></trkpt><trkpt lat="40.7618177" lon="14.8443965"><ele>590.0</ele><time>2026-05-01T09:22:20.958Z</time></trkpt><trkpt lat="40.7617687" lon="14.8444824"><ele>594.5</ele><time>2026-05-01T09:22:23.974Z</time></trkpt><trkpt lat="40.7617174" lon="14.8445848"><ele>599.0</ele><time>2026-05-01T09:22:26.973Z</time></trkpt><trkpt lat="40.7616913" lon="14.8446894"><ele>603.5</ele><time>2026-05-01T09:22:29.965Z</time></trkpt><trkpt lat="40.761664" lon="14.8447709"><ele>608.0</ele><time>2026-05-01T09:22:31.977Z</time></trkpt><trkpt lat="40.7616311" lon="14.8448537"><ele>612.5</ele><time>2026-05-01T09:22:33.972Z</time></trkpt><trkpt lat="40.7616045" lon="14.8449326"><ele>617.0</ele><time>2026-05-01T09:22:35.977Z</time></trkpt><trkpt lat="40.7615377" lon="14.8450189"><ele>617.0</ele><time>2026-05-01T09:22:38.97Z</time></trkpt><trkpt lat="40.761475" lon="14.845074"><ele>617.0</ele><time>2026-05-01T09:22:40.973Z</time></trkpt><trkpt lat="40.7614035" lon="14.8451396"><ele>617.0</ele><time>2026-05-01T09:22:42.978Z</time></trkpt><trkpt lat="40.7613264" lon="14.8452226"><ele>617.0</ele><time>2026-05-01T09:22:45.977Z</time></trkpt><trkpt lat="40.7612595" lon="14.8453325"><ele>617.0</ele><time>2026-05-01T09:22:47.97Z</time></trkpt><trkpt lat="40.7612128" lon="14.8454528"><ele>618.0</ele><time>2026-05-01T09:22:49.969Z</time></trkpt><trkpt lat="40.7612314" lon="14.8455855"><ele>619.0</ele><time>2026-05-01T09:22:51.977Z</time></trkpt><trkpt lat="40.761251" lon="14.8457082"><ele>620.0</ele><time>2026-05-01T09:22:53.957Z</time></trkpt><trkpt lat="40.7612368" lon="14.8458218"><ele>621.0</ele><time>2026-05-01T09:22:55.947Z</time></trkpt><trkpt lat="40.761221" lon="14.8459598"><ele>622.0</ele><time>2026-05-01T09:22:57.961Z</time></trkpt><trkpt lat="40.7612247" lon="14.8460759"><ele>624.6666666666667</ele><time>2026-05-01T09:22:59.951Z</time></trkpt><trkpt lat="40.7612765" lon="14.8461463"><ele>627.3333333333334</ele><time>2026-05-01T09:23:01.964Z</time></trkpt><trkpt lat="40.7613272" lon="14.8461964"><ele>630.0</ele><time>2026-05-01T09:23:03.946Z</time></trkpt><trkpt lat="40.7613845" lon="14.8462565"><ele>632.6666666666666</ele><time>2026-05-01T09:23:05.975Z</time></trkpt><trkpt lat="40.7614607" lon="14.8463505"><ele>635.3333333333333</ele><time>2026-05-01T09:23:07.977Z</time></trkpt><trkpt lat="40.7614909" lon="14.8465036"><ele>638.0</ele><time>2026-05-01T09:23:09.955Z</time></trkpt><trkpt lat="40.7614855" lon="14.8466363"><ele>638.0</ele><time>2026-05-01T09:23:11.978Z</time></trkpt><trkpt lat="40.7614533" lon="14.8467321"><ele>638.0</ele><time>2026-05-01T09:23:14.959Z</time></trkpt><trkpt lat="40.7613881" lon="14.8468075"><ele>638.0</ele><time>2026-05-01T09:23:16.97Z</time></trkpt><trkpt lat="40.7613087" lon="14.8468882"><ele>638.0</ele><time>2026-05-01T09:23:18.977Z</time></trkpt><trkpt lat="40.7612179" lon="14.8469625"><ele>638.0</ele><time>2026-05-01T09:23:20.981Z</time></trkpt><trkpt lat="40.7611653" lon="14.8470099"><ele>638.0</ele><time>2026-05-01T09:23:21.977Z</time></trkpt><trkpt lat="40.7611036" lon="14.8470535"><ele>639.6666666666666</ele><time>2026-05-01T09:23:23.99Z</time></trkpt><trkpt lat="40.7610383" lon="14.8470622"><ele>641.3333333333333</ele><time>2026-05-01T09:23:26.977Z</time></trkpt><trkpt lat="40.7609981" lon="14.8469874"><ele>643.0</ele><time>2026-05-01T09:23:29.963Z</time></trkpt><trkpt lat="40.760969" lon="14.8469132"><ele>644.6666666666666</ele><time>2026-05-01T09:23:31.979Z</time></trkpt><trkpt lat="40.7609524" lon="14.8468179"><ele>646.3333333333334</ele><time>2026-05-01T09:23:33.975Z</time></trkpt><trkpt lat="40.7609442" lon="14.8467018"><ele>648.0</ele><time>2026-05-01T09:23:35.972Z</time></trkpt><trkpt lat="40.7608951" lon="14.8465805"><ele>650.8</ele><time>2026-05-01T09:23:37.974Z</time></trkpt><trkpt lat="40.7608093" lon="14.8465327"><ele>653.5999999999999</ele><time>2026-05-01T09:23:39.977Z</time></trkpt><trkpt lat="40.7607331" lon="14.8465639"><ele>656.4000000000001</ele><time>2026-05-01T09:23:41.956Z</time></trkpt><trkpt lat="40.7606567" lon="14.8466251"><ele>659.2</ele><time>2026-05-01T09:23:43.979Z</time></trkpt><trkpt lat="40.7605952" lon="14.8467276"><ele>662.0</ele><time>2026-05-01T09:23:45.972Z</time></trkpt><trkpt lat="40.7605429" lon="14.8468642"><ele>664.1666666666666</ele><time>2026-05-01T09:23:47.964Z</time></trkpt><trkpt lat="40.7604926" lon="14.8469636"><ele>666.3333333333333</ele><time>2026-05-01T09:23:49.973Z</time></trkpt><trkpt lat="40.7604481" lon="14.8470581"><ele>668.5</ele><time>2026-05-01T09:23:51.948Z</time></trkpt><trkpt lat="40.7604208" lon="14.8471416"><ele>670.6666666666666</ele><time>2026-05-01T09:23:53.965Z</time></trkpt><trkpt lat="40.7603809" lon="14.8472836"><ele>672.8333333333334</ele><time>2026-05-01T09:23:57.978Z</time></trkpt><trkpt lat="40.7603468" lon="14.8473596"><ele>675.0</ele><time>2026-05-01T09:23:59.975Z</time></trkpt><trkpt lat="40.7602944" lon="14.8474376"><ele>675.0</ele><time>2026-05-01T09:24:01.977Z</time></trkpt><trkpt lat="40.7602526" lon="14.8475299"><ele>675.0</ele><time>2026-05-01T09:24:03.979Z</time></trkpt><trkpt lat="40.7602125" lon="14.8476461"><ele>675.0</ele><time>2026-05-01T09:24:05.971Z</time></trkpt><trkpt lat="40.7601691" lon="14.8477663"><ele>675.0</ele><time>2026-05-01T09:24:07.95Z</time></trkpt><trkpt lat="40.7601715" lon="14.8478698"><ele>675.0</ele><time>2026-05-01T09:24:09.982Z</time></trkpt><trkpt lat="40.7601808" lon="14.8479636"><ele>675.0</ele><time>2026-05-01T09:24:11.975Z</time></trkpt><trkpt lat="40.7602065" lon="14.8480395"><ele>677.6</ele><time>2026-05-01T09:24:13.951Z</time></trkpt><trkpt lat="40.76022" lon="14.8481381"><ele>680.2</ele><time>2026-05-01T09:24:15.967Z</time></trkpt><trkpt lat="40.760221" lon="14.8482517"><ele>682.8</ele><time>2026-05-01T09:24:17.968Z</time></trkpt><trkpt lat="40.7601736" lon="14.8483965"><ele>685.4</ele><time>2026-05-01T09:24:19.981Z</time></trkpt><trkpt lat="40.7601478" lon="14.8485022"><ele>688.0</ele><time>2026-05-01T09:24:20.981Z</time></trkpt><trkpt lat="40.7601064" lon="14.8486426"><ele>694.25</ele><time>2026-05-01T09:24:22.964Z</time></trkpt><trkpt lat="40.7600418" lon="14.848767"><ele>700.5</ele><time>2026-05-01T09:24:24.974Z</time></trkpt><trkpt lat="40.7600014" lon="14.8488331"><ele>706.75</ele><time>2026-05-01T09:24:25.97Z</time></trkpt><trkpt lat="40.7599639" lon="14.8491319"><ele>713.0</ele><time>2026-05-01T09:24:26.981Z</time></trkpt><trkpt lat="40.7599148" lon="14.849256"><ele>712.8333333333333</ele><time>2026-05-01T09:24:27.979Z</time></trkpt><trkpt lat="40.7598792" lon="14.8493533"><ele>712.6666666666666</ele><time>2026-05-01T09:24:28.977Z</time></trkpt><trkpt lat="40.7598307" lon="14.849447"><ele>712.5</ele><time>2026-05-01T09:24:29.967Z</time></trkpt><trkpt lat="40.7597599" lon="14.8494995"><ele>712.3333333333334</ele><time>2026-05-01T09:24:30.981Z</time></trkpt><trkpt lat="40.7596871" lon="14.8495381"><ele>712.1666666666667</ele><time>2026-05-01T09:24:31.965Z</time></trkpt><trkpt lat="40.7595844" lon="14.8495981"><ele>712.0</ele><time>2026-05-01T09:24:33.971Z</time></trkpt><trkpt lat="40.7594788" lon="14.8496449"><ele>712.0</ele><time>2026-05-01T09:24:35.967Z</time></trkpt><trkpt lat="40.7594345" lon="14.8497054"><ele>712.0</ele><time>2026-05-01T09:24:37.972Z</time></trkpt><trkpt lat="40.7593951" lon="14.8498079"><ele>712.0</ele><time>2026-05-01T09:24:39.966Z</time></trkpt><trkpt lat="40.7593457" lon="14.849895"><ele>712.0</ele><time>2026-05-01T09:24:41.984Z</time></trkpt><trkpt lat="40.7593336" lon="14.8499921"><ele>712.0</ele><time>2026-05-01T09:24:43.975Z</time></trkpt><trkpt lat="40.7593372" lon="14.8500897"><ele>712.0</ele><time>2026-05-01T09:24:45.973Z</time></trkpt><trkpt lat="40.7593516" lon="14.8502137"><ele>713.8333333333334</ele><time>2026-05-01T09:24:47.973Z</time></trkpt><trkpt lat="40.7593531" lon="14.8503602"><ele>715.6666666666667</ele><time>2026-05-01T09:24:49.951Z</time></trkpt><trkpt lat="40.759369" lon="14.8504751"><ele>717.5</ele><time>2026-05-01T09:24:51.976Z</time></trkpt><trkpt lat="40.7594141" lon="14.850554"><ele>719.3333333333334</ele><time>2026-05-01T09:24:53.987Z</time></trkpt><trkpt lat="40.7594355" lon="14.8506437"><ele>721.1666666666666</ele><time>2026-05-01T09:24:56.986Z</time></trkpt><trkpt lat="40.7594853" lon="14.85072"><ele>723.0</ele><time>2026-05-01T09:26:12.982Z</time></trkpt><trkpt lat="40.7595433" lon="14.8508067"><ele>723.4</ele><time>2026-05-01T09:26:34.98Z</time></trkpt><trkpt lat="40.7595604" lon="14.8509352"><ele>723.8</ele><time>2026-05-01T09:26:36.985Z</time></trkpt><trkpt lat="40.7595687" lon="14.851023"><ele>724.2</ele><time>2026-05-01T09:26:37.983Z</time></trkpt><trkpt lat="40.7595866" lon="14.8511421"><ele>724.6</ele><time>2026-05-01T09:26:38.978Z</time></trkpt><trkpt lat="40.7596167" lon="14.8512789"><ele>725.0</ele><time>2026-05-01T09:26:39.97Z</time></trkpt><trkpt lat="40.7596376" lon="14.8514228"><ele>725.4</ele><time>2026-05-01T09:26:40.974Z</time></trkpt><trkpt lat="40.7596666" lon="14.8515625"><ele>725.8</ele><time>2026-05-01T09:26:41.981Z</time></trkpt><trkpt lat="40.7597128" lon="14.851681"><ele>726.2</ele><time>2026-05-01T09:26:42.978Z</time></trkpt><trkpt lat="40.7597702" lon="14.8517748"><ele>726.6</ele><time>2026-05-01T09:26:43.974Z</time></trkpt><trkpt lat="40.7598435" lon="14.8518532"><ele>727.0</ele><time>2026-05-01T09:26:44.973Z</time></trkpt><trkpt lat="40.7599136" lon="14.8519213"><ele>727.0</ele><time>2026-05-01T09:26:45.963Z</time></trkpt><trkpt lat="40.7599917" lon="14.8519791"><ele>727.0</ele><time>2026-05-01T09:26:46.967Z</time></trkpt><trkpt lat="40.7600813" lon="14.8520275"><ele>727.0</ele><time>2026-05-01T09:26:47.973Z</time></trkpt><trkpt lat="40.7601802" lon="14.8520677"><ele>727.0</ele><time>2026-05-01T09:26:48.977Z</time></trkpt><trkpt lat="40.7602888" lon="14.8521329"><ele>727.0</ele><time>2026-05-01T09:26:49.971Z</time></trkpt><trkpt lat="40.7604065" lon="14.8522188"><ele>724.0</ele><time>2026-05-01T09:26:50.967Z</time></trkpt><trkpt lat="40.7605219" lon="14.8523003"><ele>721.0</ele><time>2026-05-01T09:26:51.975Z</time></trkpt><trkpt lat="40.7606302" lon="14.8523703"><ele>718.0</ele><time>2026-05-01T09:26:52.976Z</time></trkpt><trkpt lat="40.7607244" lon="14.8524407"><ele>715.0</ele><time>2026-05-01T09:26:53.965Z</time></trkpt><trkpt lat="40.7608049" lon="14.852521"><ele>715.0</ele><time>2026-05-01T09:26:54.968Z</time></trkpt><trkpt lat="40.7608712" lon="14.8526217"><ele>715.0</ele><time>2026-05-01T09:26:55.972Z</time></trkpt><trkpt lat="40.7609232" lon="14.8527135"><ele>715.0</ele><time>2026-05-01T09:26:56.974Z</time></trkpt><trkpt lat="40.7609732" lon="14.8527842"><ele>715.0</ele><time>2026-05-01T09:26:57.973Z</time></trkpt><trkpt lat="40.7610284" lon="14.8528337"><ele>715.0</ele><time>2026-05-01T09:26:58.974Z</time></trkpt><trkpt lat="40.7610892" lon="14.8528868"><ele>715.0</ele><time>2026-05-01T09:26:59.97Z</time></trkpt><trkpt lat="40.7611568" lon="14.8528949"><ele>715.2</ele><time>2026-05-01T09:27:00.977Z</time></trkpt><trkpt lat="40.7612276" lon="14.8528523"><ele>715.4</ele><time>2026-05-01T09:27:01.97Z</time></trkpt><trkpt lat="40.7613122" lon="14.8527543"><ele>715.5999999999999</ele><time>2026-05-01T09:27:02.964Z</time></trkpt><trkpt lat="40.7613972" lon="14.8526442"><ele>715.8</ele><time>2026-05-01T09:27:03.968Z</time></trkpt><trkpt lat="40.7614686" lon="14.8525396"><ele>716.0</ele><time>2026-05-01T09:27:04.974Z</time></trkpt><trkpt lat="40.7615279" lon="14.8524459"><ele>716.0</ele><time>2026-05-01T09:27:05.978Z</time></trkpt><trkpt lat="40.7615675" lon="14.8523323"><ele>716.0</ele><time>2026-05-01T09:27:06.969Z</time></trkpt><trkpt lat="40.7616087" lon="14.8522108"><ele>716.0</ele><time>2026-05-01T09:27:07.97Z</time></trkpt><trkpt lat="40.7616592" lon="14.8520904"><ele>716.0</ele><time>2026-05-01T09:27:08.978Z</time></trkpt><trkpt lat="40.761723" lon="14.8520029"><ele>716.0</ele><time>2026-05-01T09:27:09.978Z</time></trkpt><trkpt lat="40.7617904" lon="14.8519252"><ele>716.6666666666666</ele><time>2026-05-01T09:27:10.978Z</time></trkpt><trkpt lat="40.7618655" lon="14.8518613"><ele>717.3333333333333</ele><time>2026-05-01T09:27:11.967Z</time></trkpt><trkpt lat="40.7619464" lon="14.8518127"><ele>718.0</ele><time>2026-05-01T09:27:12.974Z</time></trkpt><trkpt lat="40.7620183" lon="14.8517926"><ele>718.6666666666666</ele><time>2026-05-01T09:27:13.982Z</time></trkpt><trkpt lat="40.7620948" lon="14.851803"><ele>719.3333333333334</ele><time>2026-05-01T09:27:14.975Z</time></trkpt><trkpt lat="40.7621829" lon="14.8518398"><ele>720.0</ele><time>2026-05-01T09:27:15.974Z</time></trkpt><trkpt lat="40.7622551" lon="14.851874"><ele>720.0</ele><time>2026-05-01T09:27:16.973Z</time></trkpt><trkpt lat="40.7623234" lon="14.8519087"><ele>720.0</ele><time>2026-05-01T09:27:17.967Z</time></trkpt><trkpt lat="40.7623981" lon="14.8519278"><ele>720.0</ele><time>2026-05-01T09:27:18.966Z</time></trkpt><trkpt lat="40.7624637" lon="14.8519328"><ele>720.0</ele><time>2026-05-01T09:27:19.975Z</time></trkpt><trkpt lat="40.7625439" lon="14.8518594"><ele>720.0</ele><time>2026-05-01T09:27:21.966Z</time></trkpt><trkpt lat="40.7625677" lon="14.8517729"><ele>720.0</ele><time>2026-05-01T09:27:22.967Z</time></trkpt><trkpt lat="40.7625996" lon="14.8516912"><ele>717.6666666666666</ele><time>2026-05-01T09:27:23.97Z</time></trkpt><trkpt lat="40.762642" lon="14.8515989"><ele>715.3333333333334</ele><time>2026-05-01T09:27:24.968Z</time></trkpt><trkpt lat="40.7626894" lon="14.8515329"><ele>713.0</ele><time>2026-05-01T09:27:25.986Z</time></trkpt><trkpt lat="40.7627485" lon="14.8514661"><ele>710.6666666666667</ele><time>2026-05-01T09:27:26.966Z</time></trkpt><trkpt lat="40.7628103" lon="14.851432"><ele>708.3333333333334</ele><time>2026-05-01T09:27:27.966Z</time></trkpt><trkpt lat="40.7628816" lon="14.8514162"><ele>706.0</ele><time>2026-05-01T09:27:28.968Z</time></trkpt><trkpt lat="40.7629658" lon="14.8514427"><ele>706.0</ele><time>2026-05-01T09:27:29.974Z</time></trkpt><trkpt lat="40.7630619" lon="14.8514802"><ele>706.0</ele><time>2026-05-01T09:27:30.949Z</time></trkpt><trkpt lat="40.7631743" lon="14.8515208"><ele>706.0</ele><time>2026-05-01T09:27:31.962Z</time></trkpt><trkpt lat="40.7633017" lon="14.8515476"><ele>706.0</ele><time>2026-05-01T09:27:32.977Z</time></trkpt><trkpt lat="40.7634232" lon="14.8515738"><ele>703.25</ele><time>2026-05-01T09:27:33.973Z</time></trkpt><trkpt lat="40.7635491" lon="14.8516087"><ele>700.5</ele><time>2026-05-01T09:27:34.968Z</time></trkpt><trkpt lat="40.7636702" lon="14.8516564"><ele>697.75</ele><time>2026-05-01T09:27:35.968Z</time></trkpt><trkpt lat="40.7637846" lon="14.851708"><ele>695.0</ele><time>2026-05-01T09:27:36.966Z</time></trkpt><trkpt lat="40.7638804" lon="14.8517709"><ele>696.0</ele><time>2026-05-01T09:27:37.974Z</time></trkpt><trkpt lat="40.7639612" lon="14.8518376"><ele>697.0</ele><time>2026-05-01T09:27:38.948Z</time></trkpt><trkpt lat="40.764038" lon="14.8519098"><ele>698.0</ele><time>2026-05-01T09:27:39.974Z</time></trkpt><trkpt lat="40.7640945" lon="14.8520002"><ele>699.0</ele><time>2026-05-01T09:27:40.977Z</time></trkpt><trkpt lat="40.7641154" lon="14.8521153"><ele>700.0</ele><time>2026-05-01T09:27:41.969Z</time></trkpt><trkpt lat="40.7641071" lon="14.8522467"><ele>700.0</ele><time>2026-05-01T09:27:42.965Z</time></trkpt><trkpt lat="40.7640791" lon="14.8523835"><ele>700.0</ele><time>2026-05-01T09:27:43.966Z</time></trkpt><trkpt lat="40.7640687" lon="14.8525014"><ele>700.0</ele><time>2026-05-01T09:27:44.969Z</time></trkpt><trkpt lat="40.7640713" lon="14.8526024"><ele>700.0</ele><time>2026-05-01T09:27:45.974Z</time></trkpt><trkpt lat="40.7640851" lon="14.8526857"><ele>700.0</ele><time>2026-05-01T09:27:46.981Z</time></trkpt><trkpt lat="40.764148" lon="14.8527981"><ele>700.0</ele><time>2026-05-01T09:27:48.972Z</time></trkpt><trkpt lat="40.7642111" lon="14.8528271"><ele>699.4</ele><time>2026-05-01T09:27:49.982Z</time></trkpt><trkpt lat="40.7642948" lon="14.8528347"><ele>698.8</ele><time>2026-05-01T09:27:50.946Z</time></trkpt><trkpt lat="40.7643858" lon="14.8528502"><ele>698.2</ele><time>2026-05-01T09:27:51.968Z</time></trkpt><trkpt lat="40.7644707" lon="14.8529051"><ele>697.6</ele><time>2026-05-01T09:27:52.969Z</time></trkpt><trkpt lat="40.7645492" lon="14.8529814"><ele>697.0</ele><time>2026-05-01T09:27:53.971Z</time></trkpt><trkpt lat="40.764634" lon="14.8530384"><ele>697.0</ele><time>2026-05-01T09:27:54.968Z</time></trkpt><trkpt lat="40.76473" lon="14.853087"><ele>697.0</ele><time>2026-05-01T09:27:55.969Z</time></trkpt><trkpt lat="40.7648223" lon="14.8531009"><ele>697.0</ele><time>2026-05-01T09:27:56.962Z</time></trkpt><trkpt lat="40.7649264" lon="14.8530803"><ele>697.0</ele><time>2026-05-01T09:27:57.975Z</time></trkpt><trkpt lat="40.7650567" lon="14.8530607"><ele>697.0</ele><time>2026-05-01T09:27:58.968Z</time></trkpt><trkpt lat="40.7651755" lon="14.8530595"><ele>695.0</ele><time>2026-05-01T09:27:59.952Z</time></trkpt><trkpt lat="40.7652772" lon="14.8530678"><ele>693.0</ele><time>2026-05-01T09:28:00.973Z</time></trkpt><trkpt lat="40.7653776" lon="14.8530985"><ele>691.0</ele><time>2026-05-01T09:28:01.966Z</time></trkpt><trkpt lat="40.7654776" lon="14.853149"><ele>689.0</ele><time>2026-05-01T09:28:02.966Z</time></trkpt><trkpt lat="40.765546" lon="14.8532338"><ele>687.0</ele><time>2026-05-01T09:28:03.971Z</time></trkpt><trkpt lat="40.7655771" lon="14.8533363"><ele>686.0</ele><time>2026-05-01T09:28:04.977Z</time></trkpt><trkpt lat="40.7655606" lon="14.8534782"><ele>685.0</ele><time>2026-05-01T09:28:05.965Z</time></trkpt><trkpt lat="40.765526" lon="14.8536168"><ele>684.0</ele><time>2026-05-01T09:28:06.964Z</time></trkpt><trkpt lat="40.7654863" lon="14.8537596"><ele>683.0</ele><time>2026-05-01T09:28:07.97Z</time></trkpt><trkpt lat="40.7654653" lon="14.853912"><ele>683.0</ele><time>2026-05-01T09:28:08.973Z</time></trkpt><trkpt lat="40.7654612" lon="14.8540481"><ele>683.0</ele><time>2026-05-01T09:28:09.968Z</time></trkpt><trkpt lat="40.7654726" lon="14.8541636"><ele>683.0</ele><time>2026-05-01T09:28:10.968Z</time></trkpt><trkpt lat="40.7655196" lon="14.8542626"><ele>683.0</ele><time>2026-05-01T09:28:11.969Z</time></trkpt><trkpt lat="40.7655846" lon="14.8543521"><ele>683.0</ele><time>2026-05-01T09:28:12.969Z</time></trkpt><trkpt lat="40.7656675" lon="14.8543913"><ele>682.5999999999999</ele><time>2026-05-01T09:28:13.976Z</time></trkpt><trkpt lat="40.7657638" lon="14.8544036"><ele>682.1999999999999</ele><time>2026-05-01T09:28:14.971Z</time></trkpt><trkpt lat="40.7658595" lon="14.8543858"><ele>681.8</ele><time>2026-05-01T09:28:15.976Z</time></trkpt><trkpt lat="40.7659559" lon="14.8543495"><ele>681.4</ele><time>2026-05-01T09:28:16.973Z</time></trkpt><trkpt lat="40.7660667" lon="14.8542974"><ele>681.0</ele><time>2026-05-01T09:28:17.97Z</time></trkpt><trkpt lat="40.76618" lon="14.8542358"><ele>681.0</ele><time>2026-05-01T09:28:18.979Z</time></trkpt><trkpt lat="40.7662858" lon="14.8541813"><ele>681.0</ele><time>2026-05-01T09:28:19.959Z</time></trkpt><trkpt lat="40.766392" lon="14.8541244"><ele>681.0</ele><time>2026-05-01T09:28:20.971Z</time></trkpt><trkpt lat="40.766489" lon="14.8540694"><ele>681.0</ele><time>2026-05-01T09:28:21.969Z</time></trkpt><trkpt lat="40.7665905" lon="14.8540145"><ele>681.0</ele><time>2026-05-01T09:28:22.974Z</time></trkpt><trkpt lat="40.76669" lon="14.8539591"><ele>681.0</ele><time>2026-05-01T09:28:23.971Z</time></trkpt><trkpt lat="40.7667809" lon="14.8539039"><ele>681.0</ele><time>2026-05-01T09:28:24.98Z</time></trkpt><trkpt lat="40.7668699" lon="14.8538563"><ele>681.0</ele><time>2026-05-01T09:28:25.967Z</time></trkpt><trkpt lat="40.7669604" lon="14.8538123"><ele>681.0</ele><time>2026-05-01T09:28:26.978Z</time></trkpt><trkpt lat="40.767048" lon="14.8537656"><ele>681.0</ele><time>2026-05-01T09:28:27.976Z</time></trkpt><trkpt lat="40.7671231" lon="14.8537201"><ele>680.3333333333334</ele><time>2026-05-01T09:28:28.971Z</time></trkpt><trkpt lat="40.7671927" lon="14.8536687"><ele>679.6666666666666</ele><time>2026-05-01T09:28:29.982Z</time></trkpt><trkpt lat="40.7672527" lon="14.8536113"><ele>679.0</ele><time>2026-05-01T09:28:30.974Z</time></trkpt><trkpt lat="40.7673001" lon="14.853543"><ele>678.3333333333333</ele><time>2026-05-01T09:28:31.971Z</time></trkpt><trkpt lat="40.7673441" lon="14.8534529"><ele>677.6666666666666</ele><time>2026-05-01T09:28:32.949Z</time></trkpt><trkpt lat="40.7673739" lon="14.8533674"><ele>677.0</ele><time>2026-05-01T09:28:33.973Z</time></trkpt><trkpt lat="40.7674039" lon="14.8532749"><ele>676.4000000000001</ele><time>2026-05-01T09:28:34.975Z</time></trkpt><trkpt lat="40.7674749" lon="14.8531669"><ele>675.8000000000001</ele><time>2026-05-01T09:28:36.974Z</time></trkpt><trkpt lat="40.7675783" lon="14.8531611"><ele>675.2</ele><time>2026-05-01T09:28:38.979Z</time></trkpt><trkpt lat="40.7676763" lon="14.8532471"><ele>674.6</ele><time>2026-05-01T09:28:40.973Z</time></trkpt><trkpt lat="40.7677402" lon="14.8533197"><ele>674.0</ele><time>2026-05-01T09:28:41.972Z</time></trkpt><trkpt lat="40.7678081" lon="14.8533922"><ele>674.1666666666666</ele><time>2026-05-01T09:28:42.971Z</time></trkpt><trkpt lat="40.7678687" lon="14.8534588"><ele>674.3333333333333</ele><time>2026-05-01T09:28:43.966Z</time></trkpt><trkpt lat="40.7679239" lon="14.853525"><ele>674.5</ele><time>2026-05-01T09:28:44.966Z</time></trkpt><trkpt lat="40.7679795" lon="14.8535906"><ele>674.6666666666666</ele><time>2026-05-01T09:28:45.978Z</time></trkpt><trkpt lat="40.7680315" lon="14.8536398"><ele>674.8333333333334</ele><time>2026-05-01T09:28:46.978Z</time></trkpt><trkpt lat="40.7681386" lon="14.8536951"><ele>675.0</ele><time>2026-05-01T09:28:48.973Z</time></trkpt><trkpt lat="40.7682481" lon="14.8537528"><ele>675.0</ele><time>2026-05-01T09:28:50.97Z</time></trkpt><trkpt lat="40.7683352" lon="14.8537742"><ele>675.0</ele><time>2026-05-01T09:28:52.974Z</time></trkpt><trkpt lat="40.7683003" lon="14.8538527"><ele>675.0</ele><time>2026-05-01T09:28:59.975Z</time></trkpt><trkpt lat="40.7682757" lon="14.8539609"><ele>675.0</ele><time>2026-05-01T09:29:02.946Z</time></trkpt><trkpt lat="40.7682908" lon="14.8540536"><ele>675.0</ele><time>2026-05-01T09:29:57.977Z</time></trkpt><trkpt lat="40.7683235" lon="14.8541472"><ele>675.0</ele><time>2026-05-01T09:29:59.985Z</time></trkpt><trkpt lat="40.768361" lon="14.8542589"><ele>673.6</ele><time>2026-05-01T09:30:01.98Z</time></trkpt><trkpt lat="40.768407" lon="14.8543883"><ele>672.2</ele><time>2026-05-01T09:30:03.984Z</time></trkpt><trkpt lat="40.7684836" lon="14.8544997"><ele>670.8</ele><time>2026-05-01T09:30:05.96Z</time></trkpt><trkpt lat="40.7685687" lon="14.8545717"><ele>669.4</ele><time>2026-05-01T09:30:07.984Z</time></trkpt><trkpt lat="40.7686668" lon="14.8545706"><ele>668.0</ele><time>2026-05-01T09:30:09.978Z</time></trkpt><trkpt lat="40.7688033" lon="14.8545007"><ele>668.0</ele><time>2026-05-01T09:30:11.987Z</time></trkpt><trkpt lat="40.7688721" lon="14.8544595"><ele>668.0</ele><time>2026-05-01T09:30:12.983Z</time></trkpt><trkpt lat="40.7689492" lon="14.8544301"><ele>668.0</ele><time>2026-05-01T09:30:13.976Z</time></trkpt><trkpt lat="40.7690289" lon="14.8544021"><ele>668.0</ele><time>2026-05-01T09:30:14.978Z</time></trkpt><trkpt lat="40.769111" lon="14.8543796"><ele>668.0</ele><time>2026-05-01T09:30:15.972Z</time></trkpt><trkpt lat="40.7692098" lon="14.8543675"><ele>668.0</ele><time>2026-05-01T09:30:17.988Z</time></trkpt><trkpt lat="40.7693058" lon="14.8543925"><ele>672.5</ele><time>2026-05-01T09:30:20.963Z</time></trkpt><trkpt lat="40.7694113" lon="14.854465"><ele>677.0</ele><time>2026-05-01T09:30:22.978Z</time></trkpt><trkpt lat="40.7694736" lon="14.8545028"><ele>681.5</ele><time>2026-05-01T09:30:23.98Z</time></trkpt><trkpt lat="40.7695332" lon="14.8545501"><ele>686.0</ele><time>2026-05-01T09:30:24.983Z</time></trkpt><trkpt lat="40.7696046" lon="14.8545821"><ele>690.5</ele><time>2026-05-01T09:30:25.973Z</time></trkpt><trkpt lat="40.7696776" lon="14.8546119"><ele>695.0</ele><time>2026-05-01T09:30:26.978Z</time></trkpt><trkpt lat="40.7697466" lon="14.8546598"><ele>695.0</ele><time>2026-05-01T09:30:27.974Z</time></trkpt><trkpt lat="40.7697994" lon="14.8547219"><ele>695.0</ele><time>2026-05-01T09:30:28.97Z</time></trkpt><trkpt lat="40.7698269" lon="14.8548123"><ele>695.0</ele><time>2026-05-01T09:30:29.947Z</time></trkpt><trkpt lat="40.7698567" lon="14.8549253"><ele>695.0</ele><time>2026-05-01T09:30:30.971Z</time></trkpt><trkpt lat="40.7698796" lon="14.8550334"><ele>695.0</ele><time>2026-05-01T09:30:31.98Z</time></trkpt><trkpt lat="40.7698548" lon="14.8552011"><ele>695.0</ele><time>2026-05-01T09:30:33.946Z</time></trkpt><trkpt lat="40.7698032" lon="14.8552891"><ele>695.0</ele><time>2026-05-01T09:30:34.966Z</time></trkpt><trkpt lat="40.7697609" lon="14.855378"><ele>695.0</ele><time>2026-05-01T09:30:35.965Z</time></trkpt><trkpt lat="40.7697382" lon="14.8554842"><ele>695.0</ele><time>2026-05-01T09:30:36.964Z</time></trkpt><trkpt lat="40.7697255" lon="14.8556071"><ele>695.0</ele><time>2026-05-01T09:30:37.97Z</time></trkpt><trkpt lat="40.7697158" lon="14.8557069"><ele>695.0</ele><time>2026-05-01T09:30:38.971Z</time></trkpt><trkpt lat="40.7697204" lon="14.8557997"><ele>695.0</ele><time>2026-05-01T09:30:39.972Z</time></trkpt><trkpt lat="40.7697482" lon="14.8558778"><ele>695.0</ele><time>2026-05-01T09:30:40.975Z</time></trkpt><trkpt lat="40.7698667" lon="14.8559748"><ele>695.0</ele><time>2026-05-01T09:30:42.956Z</time></trkpt><trkpt lat="40.7699418" lon="14.8560348"><ele>695.0</ele><time>2026-05-01T09:30:43.98Z</time></trkpt><trkpt lat="40.770004" lon="14.8560842"><ele>695.0</ele><time>2026-05-01T09:30:44.981Z</time></trkpt><trkpt lat="40.7700672" lon="14.8561266"><ele>695.0</ele><time>2026-05-01T09:30:46.981Z</time></trkpt><trkpt lat="40.7701511" lon="14.8561607"><ele>695.2</ele><time>2026-05-01T09:30:49.976Z</time></trkpt><trkpt lat="40.7702229" lon="14.8562117"><ele>695.4</ele><time>2026-05-01T09:30:51.976Z</time></trkpt><trkpt lat="40.7703029" lon="14.8562427"><ele>695.5999999999999</ele><time>2026-05-01T09:30:52.978Z</time></trkpt><trkpt lat="40.7704003" lon="14.856265"><ele>695.8</ele><time>2026-05-01T09:30:53.982Z</time></trkpt><trkpt lat="40.7704897" lon="14.8562866"><ele>696.0</ele><time>2026-05-01T09:30:54.984Z</time></trkpt><trkpt lat="40.7705864" lon="14.8563086"><ele>696.0</ele><time>2026-05-01T09:30:55.973Z</time></trkpt><trkpt lat="40.7706661" lon="14.8563405"><ele>696.0</ele><time>2026-05-01T09:30:56.962Z</time></trkpt><trkpt lat="40.7707342" lon="14.8563857"><ele>696.0</ele><time>2026-05-01T09:30:57.972Z</time></trkpt><trkpt lat="40.7708094" lon="14.8564379"><ele>696.0</ele><time>2026-05-01T09:30:58.97Z</time></trkpt><trkpt lat="40.7709023" lon="14.8564648"><ele>696.0</ele><time>2026-05-01T09:30:59.967Z</time></trkpt><trkpt lat="40.7709901" lon="14.8564616"><ele>696.0</ele><time>2026-05-01T09:31:00.972Z</time></trkpt><trkpt lat="40.7710772" lon="14.8564434"><ele>698.8</ele><time>2026-05-01T09:31:01.953Z</time></trkpt><trkpt lat="40.7711664" lon="14.8564434"><ele>701.5999999999999</ele><time>2026-05-01T09:31:02.97Z</time></trkpt><trkpt lat="40.7712549" lon="14.856458"><ele>704.4</ele><time>2026-05-01T09:31:03.971Z</time></trkpt><trkpt lat="40.7713457" lon="14.856486"><ele>707.2</ele><time>2026-05-01T09:31:04.978Z</time></trkpt><trkpt lat="40.7714346" lon="14.8565127"><ele>710.0</ele><time>2026-05-01T09:31:05.97Z</time></trkpt><trkpt lat="40.7715304" lon="14.8565318"><ele>710.0</ele><time>2026-05-01T09:31:06.976Z</time></trkpt><trkpt lat="40.7716192" lon="14.8565567"><ele>710.0</ele><time>2026-05-01T09:31:07.961Z</time></trkpt><trkpt lat="40.7717057" lon="14.856584"><ele>710.0</ele><time>2026-05-01T09:31:08.967Z</time></trkpt><trkpt lat="40.7717734" lon="14.8566316"><ele>710.0</ele><time>2026-05-01T09:31:09.977Z</time></trkpt><trkpt lat="40.7718374" lon="14.8566997"><ele>710.0</ele><time>2026-05-01T09:31:10.974Z</time></trkpt><trkpt lat="40.7718928" lon="14.8567639"><ele>710.0</ele><time>2026-05-01T09:31:11.969Z</time></trkpt><trkpt lat="40.7719525" lon="14.8568116"><ele>713.1666666666666</ele><time>2026-05-01T09:31:12.975Z</time></trkpt><trkpt lat="40.7720119" lon="14.8568466"><ele>716.3333333333333</ele><time>2026-05-01T09:31:13.978Z</time></trkpt><trkpt lat="40.772079" lon="14.8568867"><ele>719.5</ele><time>2026-05-01T09:31:14.954Z</time></trkpt><trkpt lat="40.7721468" lon="14.8569219"><ele>722.6666666666666</ele><time>2026-05-01T09:31:15.986Z</time></trkpt><trkpt lat="40.7722064" lon="14.856982"><ele>725.8333333333334</ele><time>2026-05-01T09:31:16.967Z</time></trkpt><trkpt lat="40.7722601" lon="14.8570592"><ele>729.0</ele><time>2026-05-01T09:31:17.983Z</time></trkpt><trkpt lat="40.7723111" lon="14.8571532"><ele>729.0</ele><time>2026-05-01T09:31:18.971Z</time></trkpt><trkpt lat="40.7723488" lon="14.857255"><ele>729.0</ele><time>2026-05-01T09:31:19.97Z</time></trkpt><trkpt lat="40.7723948" lon="14.8573607"><ele>729.0</ele><time>2026-05-01T09:31:20.973Z</time></trkpt><trkpt lat="40.7724464" lon="14.8574741"><ele>729.0</ele><time>2026-05-01T09:31:21.979Z</time></trkpt><trkpt lat="40.7725003" lon="14.8575817"><ele>729.0</ele><time>2026-05-01T09:31:22.971Z</time></trkpt><trkpt lat="40.7725507" lon="14.857687"><ele>728.6666666666666</ele><time>2026-05-01T09:31:23.978Z</time></trkpt><trkpt lat="40.7725959" lon="14.8577933"><ele>728.3333333333334</ele><time>2026-05-01T09:31:24.975Z</time></trkpt><trkpt lat="40.7726267" lon="14.8579052"><ele>728.0</ele><time>2026-05-01T09:31:25.964Z</time></trkpt><trkpt lat="40.7726492" lon="14.8580108"><ele>727.6666666666667</ele><time>2026-05-01T09:31:26.973Z</time></trkpt><trkpt lat="40.7726638" lon="14.8581228"><ele>727.3333333333334</ele><time>2026-05-01T09:31:27.978Z</time></trkpt><trkpt lat="40.7726799" lon="14.8582487"><ele>727.0</ele><time>2026-05-01T09:31:28.967Z</time></trkpt><trkpt lat="40.7727002" lon="14.8583892"><ele>731.8</ele><time>2026-05-01T09:31:29.981Z</time></trkpt><trkpt lat="40.7727147" lon="14.8585234"><ele>736.6</ele><time>2026-05-01T09:31:30.975Z</time></trkpt><trkpt lat="40.7727355" lon="14.8586597"><ele>741.4</ele><time>2026-05-01T09:31:31.968Z</time></trkpt><trkpt lat="40.7727521" lon="14.8587862"><ele>746.1999999999999</ele><time>2026-05-01T09:31:32.962Z</time></trkpt><trkpt lat="40.7727462" lon="14.8589227"><ele>751.0</ele><time>2026-05-01T09:31:33.947Z</time></trkpt><trkpt lat="40.7727361" lon="14.8590427"><ele>751.0</ele><time>2026-05-01T09:31:34.965Z</time></trkpt><trkpt lat="40.7727481" lon="14.8591546"><ele>751.0</ele><time>2026-05-01T09:31:35.948Z</time></trkpt><trkpt lat="40.7727756" lon="14.859277"><ele>751.0</ele><time>2026-05-01T09:31:36.97Z</time></trkpt><trkpt lat="40.7728165" lon="14.8593975"><ele>751.0</ele><time>2026-05-01T09:31:37.973Z</time></trkpt><trkpt lat="40.7728667" lon="14.8595204"><ele>751.0</ele><time>2026-05-01T09:31:38.965Z</time></trkpt><trkpt lat="40.7729149" lon="14.8596425"><ele>751.25</ele><time>2026-05-01T09:31:39.974Z</time></trkpt><trkpt lat="40.7729572" lon="14.8597725"><ele>751.5</ele><time>2026-05-01T09:31:40.965Z</time></trkpt><trkpt lat="40.772996" lon="14.8599128"><ele>751.75</ele><time>2026-05-01T09:31:41.969Z</time></trkpt><trkpt lat="40.7730343" lon="14.8600606"><ele>752.0</ele><time>2026-05-01T09:31:42.974Z</time></trkpt><trkpt lat="40.7730816" lon="14.8601958"><ele>752.0</ele><time>2026-05-01T09:31:43.974Z</time></trkpt><trkpt lat="40.773141" lon="14.8603272"><ele>752.0</ele><time>2026-05-01T09:31:44.979Z</time></trkpt><trkpt lat="40.7731995" lon="14.8604597"><ele>752.0</ele><time>2026-05-01T09:31:45.967Z</time></trkpt><trkpt lat="40.7732532" lon="14.8605749"><ele>752.0</ele><time>2026-05-01T09:31:46.965Z</time></trkpt><trkpt lat="40.7733001" lon="14.8606868"><ele>752.0</ele><time>2026-05-01T09:31:47.977Z</time></trkpt><trkpt lat="40.7733384" lon="14.8607928"><ele>752.0</ele><time>2026-05-01T09:31:48.974Z</time></trkpt><trkpt lat="40.7733718" lon="14.8609076"><ele>752.0</ele><time>2026-05-01T09:31:49.97Z</time></trkpt><trkpt lat="40.7734052" lon="14.861039"><ele>752.0</ele><time>2026-05-01T09:31:50.98Z</time></trkpt><trkpt lat="40.7734444" lon="14.8611713"><ele>752.0</ele><time>2026-05-01T09:31:51.974Z</time></trkpt><trkpt lat="40.7734809" lon="14.8612997"><ele>752.0</ele><time>2026-05-01T09:31:52.967Z</time></trkpt><trkpt lat="40.7735175" lon="14.8614168"><ele>758.6</ele><time>2026-05-01T09:31:53.974Z</time></trkpt><trkpt lat="40.7735578" lon="14.8615351"><ele>765.2</ele><time>2026-05-01T09:31:54.972Z</time></trkpt><trkpt lat="40.7736117" lon="14.8616625"><ele>771.8</ele><time>2026-05-01T09:31:55.982Z</time></trkpt><trkpt lat="40.7736633" lon="14.8617928"><ele>778.4</ele><time>2026-05-01T09:31:56.952Z</time></trkpt><trkpt lat="40.7736952" lon="14.8619169"><ele>785.0</ele><time>2026-05-01T09:31:57.969Z</time></trkpt><trkpt lat="40.7737158" lon="14.8620378"><ele>786.5714285714286</ele><time>2026-05-01T09:31:58.965Z</time></trkpt><trkpt lat="40.7737428" lon="14.8621233"><ele>788.1428571428571</ele><time>2026-05-01T09:31:59.973Z</time></trkpt><trkpt lat="40.773785" lon="14.8622012"><ele>789.7142857142857</ele><time>2026-05-01T09:32:00.974Z</time></trkpt><trkpt lat="40.7738378" lon="14.8622686"><ele>791.2857142857142</ele><time>2026-05-01T09:32:01.959Z</time></trkpt><trkpt lat="40.773901" lon="14.8623349"><ele>792.8571428571429</ele><time>2026-05-01T09:32:02.955Z</time></trkpt><trkpt lat="40.7739639" lon="14.8623938"><ele>794.4285714285713</ele><time>2026-05-01T09:32:03.969Z</time></trkpt><trkpt lat="40.7740279" lon="14.8624375"><ele>796.0</ele><time>2026-05-01T09:32:04.969Z</time></trkpt><trkpt lat="40.7741075" lon="14.8624763"><ele>795.9999999999999</ele><time>2026-05-01T09:32:05.969Z</time></trkpt><trkpt lat="40.7741915" lon="14.8625086"><ele>796.0</ele><time>2026-05-01T09:32:06.971Z</time></trkpt><trkpt lat="40.7742536" lon="14.8625376"><ele>796.0</ele><time>2026-05-01T09:32:07.978Z</time></trkpt><trkpt lat="40.7743669" lon="14.8626114"><ele>796.0</ele><time>2026-05-01T09:32:09.985Z</time></trkpt><trkpt lat="40.7744318" lon="14.8626714"><ele>795.9999999999999</ele><time>2026-05-01T09:32:10.976Z</time></trkpt><trkpt lat="40.7744825" lon="14.8627428"><ele>796.0</ele><time>2026-05-01T09:32:11.975Z</time></trkpt><trkpt lat="40.7745352" lon="14.8628169"><ele>799.4</ele><time>2026-05-01T09:32:12.973Z</time></trkpt><trkpt lat="40.774591" lon="14.8628902"><ele>802.8</ele><time>2026-05-01T09:32:13.968Z</time></trkpt><trkpt lat="40.7746617" lon="14.8629532"><ele>806.1999999999999</ele><time>2026-05-01T09:32:14.977Z</time></trkpt><trkpt lat="40.7747241" lon="14.8630013"><ele>809.5999999999999</ele><time>2026-05-01T09:32:15.978Z</time></trkpt><trkpt lat="40.7748181" lon="14.8630707"><ele>813.0</ele><time>2026-05-01T09:32:17.986Z</time></trkpt><trkpt lat="40.7749071" lon="14.8631496"><ele>813.0</ele><time>2026-05-01T09:32:19.974Z</time></trkpt><trkpt lat="40.7749643" lon="14.8632388"><ele>813.0</ele><time>2026-05-01T09:32:21.959Z</time></trkpt><trkpt lat="40.7749571" lon="14.8633952"><ele>813.0</ele><time>2026-05-01T09:32:23.977Z</time></trkpt><trkpt lat="40.7749439" lon="14.8634889"><ele>813.0</ele><time>2026-05-01T09:32:24.977Z</time></trkpt><trkpt lat="40.7749351" lon="14.8636193"><ele>813.0</ele><time>2026-05-01T09:32:26.975Z</time></trkpt><trkpt lat="40.7749391" lon="14.8637296"><ele>816.2</ele><time>2026-05-01T09:32:28.974Z</time></trkpt><trkpt lat="40.7749207" lon="14.8638943"><ele>819.4</ele><time>2026-05-01T09:32:30.975Z</time></trkpt><trkpt lat="40.7749098" lon="14.8639835"><ele>822.6</ele><time>2026-05-01T09:32:31.975Z</time></trkpt><trkpt lat="40.7749013" lon="14.864077"><ele>825.8000000000001</ele><time>2026-05-01T09:32:32.97Z</time></trkpt><trkpt lat="40.7748992" lon="14.8641652"><ele>829.0</ele><time>2026-05-01T09:32:33.97Z</time></trkpt><trkpt lat="40.7749022" lon="14.8643331"><ele>831.9999999999999</ele><time>2026-05-01T09:32:35.971Z</time></trkpt><trkpt lat="40.7749207" lon="14.8644275"><ele>835.0</ele><time>2026-05-01T09:32:36.967Z</time></trkpt><trkpt lat="40.7749588" lon="14.8645277"><ele>838.0</ele><time>2026-05-01T09:32:37.971Z</time></trkpt><trkpt lat="40.774998" lon="14.8646258"><ele>841.0</ele><time>2026-05-01T09:32:38.967Z</time></trkpt><trkpt lat="40.7750374" lon="14.864722"><ele>843.9999999999999</ele><time>2026-05-01T09:32:39.966Z</time></trkpt><trkpt lat="40.7750782" lon="14.8648194"><ele>847.0</ele><time>2026-05-01T09:32:40.97Z</time></trkpt><trkpt lat="40.7751222" lon="14.8649139"><ele>846.9999999999999</ele><time>2026-05-01T09:32:41.949Z</time></trkpt><trkpt lat="40.7751624" lon="14.8650157"><ele>847.0</ele><time>2026-05-01T09:32:42.979Z</time></trkpt><trkpt lat="40.7752061" lon="14.8651184"><ele>847.0</ele><time>2026-05-01T09:32:43.971Z</time></trkpt><trkpt lat="40.7752549" lon="14.8652106"><ele>847.0</ele><time>2026-05-01T09:32:44.969Z</time></trkpt><trkpt lat="40.7752975" lon="14.8652834"><ele>846.9999999999999</ele><time>2026-05-01T09:32:45.98Z</time></trkpt><trkpt lat="40.7753478" lon="14.865421"><ele>847.0</ele><time>2026-05-01T09:32:47.976Z</time></trkpt><trkpt lat="40.7753675" lon="14.8655055"><ele>851.6666666666666</ele><time>2026-05-01T09:32:48.973Z</time></trkpt><trkpt lat="40.7753832" lon="14.8655947"><ele>856.3333333333333</ele><time>2026-05-01T09:32:49.98Z</time></trkpt><trkpt lat="40.7753886" lon="14.8656815"><ele>861.0</ele><time>2026-05-01T09:32:50.974Z</time></trkpt><trkpt lat="40.7753823" lon="14.8658374"><ele>865.6666666666667</ele><time>2026-05-01T09:32:52.971Z</time></trkpt><trkpt lat="40.7753884" lon="14.8659223"><ele>870.3333333333334</ele><time>2026-05-01T09:32:53.973Z</time></trkpt><trkpt lat="40.775407" lon="14.8660081"><ele>875.0</ele><time>2026-05-01T09:32:54.976Z</time></trkpt><trkpt lat="40.7754161" lon="14.8660921"><ele>875.0000000000001</ele><time>2026-05-01T09:32:55.968Z</time></trkpt><trkpt lat="40.7753869" lon="14.8661764"><ele>875.0</ele><time>2026-05-01T09:32:57.971Z</time></trkpt><trkpt lat="40.7753224" lon="14.8661786"><ele>875.0</ele><time>2026-05-01T09:33:00.973Z</time></trkpt><trkpt lat="40.7752556" lon="14.8661297"><ele>875.0</ele><time>2026-05-01T09:33:03.957Z</time></trkpt><trkpt lat="40.7752272" lon="14.8659824"><ele>875.0000000000001</ele><time>2026-05-01T09:33:05.971Z</time></trkpt><trkpt lat="40.7752253" lon="14.8658779"><ele>875.0</ele><time>2026-05-01T09:33:06.97Z</time></trkpt><trkpt lat="40.7752128" lon="14.8657661"><ele>875.0000000000001</ele><time>2026-05-01T09:33:07.97Z</time></trkpt><trkpt lat="40.7751937" lon="14.8656509"><ele>875.0</ele><time>2026-05-01T09:33:08.969Z</time></trkpt><trkpt lat="40.7751701" lon="14.8655539"><ele>875.0</ele><time>2026-05-01T09:33:09.949Z</time></trkpt><trkpt lat="40.7751209" lon="14.8654682"><ele>875.0</ele><time>2026-05-01T09:33:11.972Z</time></trkpt><trkpt lat="40.7750398" lon="14.8654869"><ele>875.0000000000001</ele><time>2026-05-01T09:33:13.98Z</time></trkpt><trkpt lat="40.7749361" lon="14.8654877"><ele>875.0</ele><time>2026-05-01T09:33:15.974Z</time></trkpt><trkpt lat="40.7748553" lon="14.865434"><ele>872.8333333333334</ele><time>2026-05-01T09:33:16.959Z</time></trkpt><trkpt lat="40.774779" lon="14.8653821"><ele>870.6666666666667</ele><time>2026-05-01T09:33:17.963Z</time></trkpt><trkpt lat="40.7747065" lon="14.8653525"><ele>868.5</ele><time>2026-05-01T09:33:18.966Z</time></trkpt><trkpt lat="40.7746223" lon="14.8653127"><ele>866.3333333333333</ele><time>2026-05-01T09:33:19.969Z</time></trkpt><trkpt lat="40.7745566" lon="14.8652733"><ele>864.1666666666666</ele><time>2026-05-01T09:33:20.975Z</time></trkpt><trkpt lat="40.7744857" lon="14.8652331"><ele>862.0</ele><time>2026-05-01T09:33:22.959Z</time></trkpt><trkpt lat="40.7744098" lon="14.8652629"><ele>861.9999999999999</ele><time>2026-05-01T09:33:25.973Z</time></trkpt><trkpt lat="40.7744056" lon="14.8653907"><ele>862.0</ele><time>2026-05-01T09:33:27.967Z</time></trkpt><trkpt lat="40.7744444" lon="14.865487"><ele>862.0</ele><time>2026-05-01T09:33:28.952Z</time></trkpt><trkpt lat="40.7745084" lon="14.8655702"><ele>862.0</ele><time>2026-05-01T09:33:29.978Z</time></trkpt><trkpt lat="40.7745757" lon="14.8656499"><ele>861.9999999999999</ele><time>2026-05-01T09:33:30.975Z</time></trkpt><trkpt lat="40.7746373" lon="14.8657307"><ele>862.0</ele><time>2026-05-01T09:33:31.971Z</time></trkpt><trkpt lat="40.7746723" lon="14.8658106"><ele>862.0</ele><time>2026-05-01T09:33:32.975Z</time></trkpt><trkpt lat="40.7746973" lon="14.8659208"><ele>862.0</ele><time>2026-05-01T09:33:34.966Z</time></trkpt><trkpt lat="40.7747826" lon="14.8658841"><ele>862.0</ele><time>2026-05-01T09:33:36.95Z</time></trkpt><trkpt lat="40.7748698" lon="14.8657839"><ele>862.0</ele><time>2026-05-01T09:33:37.961Z</time></trkpt><trkpt lat="40.7749299" lon="14.8657146"><ele>862.0</ele><time>2026-05-01T09:33:38.982Z</time></trkpt><trkpt lat="40.7749453" lon="14.8658211"><ele>862.0</ele><time>2026-05-01T09:33:43.979Z</time></trkpt><trkpt lat="40.7748842" lon="14.8659786"><ele>862.0</ele><time>2026-05-01T09:33:45.973Z</time></trkpt><trkpt lat="40.7748949" lon="14.8661183"><ele>862.0</ele><time>2026-05-01T09:33:47.968Z</time></trkpt><trkpt lat="40.7749409" lon="14.8661922"><ele>862.0</ele><time>2026-05-01T09:33:48.969Z</time></trkpt><trkpt lat="40.7749867" lon="14.8662529"><ele>862.0</ele><time>2026-05-01T09:33:49.971Z</time></trkpt><trkpt lat="40.7750481" lon="14.8663126"><ele>861.9999999999999</ele><time>2026-05-01T09:33:51.965Z</time></trkpt><trkpt lat="40.7750595" lon="14.8662082"><ele>862.0</ele><time>2026-05-01T09:33:54.97Z</time></trkpt><trkpt lat="40.7751215" lon="14.8661922"><ele>862.0</ele><time>2026-05-01T09:33:58.963Z</time></trkpt><trkpt lat="40.7752048" lon="14.8663504"><ele>862.0</ele><time>2026-05-01T09:34:00.969Z</time></trkpt><trkpt lat="40.7752487" lon="14.8664171"><ele>861.9999999999999</ele><time>2026-05-01T09:34:01.975Z</time></trkpt><trkpt lat="40.7753259" lon="14.8664373"><ele>862.0</ele><time>2026-05-01T09:34:03.968Z</time></trkpt><trkpt lat="40.7754395" lon="14.866319"><ele>864.1666666666666</ele><time>2026-05-01T09:34:05.942Z</time></trkpt><trkpt lat="40.7754826" lon="14.8662194"><ele>866.3333333333333</ele><time>2026-05-01T09:34:06.971Z</time></trkpt><trkpt lat="40.7754948" lon="14.8661224"><ele>868.5</ele><time>2026-05-01T09:34:07.972Z</time></trkpt><trkpt lat="40.7754923" lon="14.8660267"><ele>870.6666666666667</ele><time>2026-05-01T09:34:08.968Z</time></trkpt><trkpt lat="40.7754894" lon="14.8659188"><ele>872.8333333333334</ele><time>2026-05-01T09:34:10.969Z</time></trkpt><trkpt lat="40.7754111" lon="14.8659199"><ele>875.0</ele><time>2026-05-01T09:34:14.974Z</time></trkpt><trkpt lat="40.7753724" lon="14.8660026"><ele>875.0</ele><time>2026-05-01T09:34:16.971Z</time></trkpt><trkpt lat="40.7753252" lon="14.866135"><ele>875.0</ele><time>2026-05-01T09:34:18.978Z</time></trkpt><trkpt lat="40.7752416" lon="14.8661854"><ele>875.0</ele><time>2026-05-01T09:34:20.973Z</time></trkpt><trkpt lat="40.7752134" lon="14.8660933"><ele>875.0</ele><time>2026-05-01T09:34:22.977Z</time></trkpt><trkpt lat="40.7752098" lon="14.8659603"><ele>875.0</ele><time>2026-05-01T09:34:23.973Z</time></trkpt><trkpt lat="40.7752066" lon="14.8658221"><ele>875.0</ele><time>2026-05-01T09:34:24.973Z</time></trkpt><trkpt lat="40.7751952" lon="14.8656778"><ele>875.0</ele><time>2026-05-01T09:34:25.977Z</time></trkpt><trkpt lat="40.7751663" lon="14.8655663"><ele>875.0</ele><time>2026-05-01T09:34:26.979Z</time></trkpt><trkpt lat="40.775119" lon="14.8654747"><ele>875.0</ele><time>2026-05-01T09:34:28.981Z</time></trkpt><trkpt lat="40.7750408" lon="14.8655033"><ele>875.0</ele><time>2026-05-01T09:34:30.952Z</time></trkpt><trkpt lat="40.7749299" lon="14.8654999"><ele>872.4</ele><time>2026-05-01T09:34:32.98Z</time></trkpt><trkpt lat="40.7748419" lon="14.8654383"><ele>869.8</ele><time>2026-05-01T09:34:33.961Z</time></trkpt><trkpt lat="40.7747452" lon="14.8653759"><ele>867.2</ele><time>2026-05-01T09:34:34.972Z</time></trkpt><trkpt lat="40.7746581" lon="14.8653261"><ele>864.6</ele><time>2026-05-01T09:34:35.98Z</time></trkpt><trkpt lat="40.7745833" lon="14.8652843"><ele>862.0</ele><time>2026-05-01T09:34:36.97Z</time></trkpt><trkpt lat="40.774521" lon="14.865242"><ele>861.9999999999999</ele><time>2026-05-01T09:34:37.97Z</time></trkpt><trkpt lat="40.7744481" lon="14.8652175"><ele>862.0</ele><time>2026-05-01T09:34:39.971Z</time></trkpt><trkpt lat="40.7743794" lon="14.8652476"><ele>862.0</ele><time>2026-05-01T09:34:41.979Z</time></trkpt><trkpt lat="40.7743486" lon="14.8653365"><ele>862.0</ele><time>2026-05-01T09:34:43.971Z</time></trkpt><trkpt lat="40.7743884" lon="14.8654266"><ele>861.9999999999999</ele><time>2026-05-01T09:34:44.982Z</time></trkpt><trkpt lat="40.774469" lon="14.8655192"><ele>862.0</ele><time>2026-05-01T09:34:45.983Z</time></trkpt><trkpt lat="40.7745397" lon="14.8656084"><ele>861.9999999999999</ele><time>2026-05-01T09:34:46.961Z</time></trkpt><trkpt lat="40.774593" lon="14.8657355"><ele>862.0</ele><time>2026-05-01T09:34:47.968Z</time></trkpt><trkpt lat="40.7746337" lon="14.8658445"><ele>862.0</ele><time>2026-05-01T09:34:48.974Z</time></trkpt><trkpt lat="40.7746755" lon="14.8659286"><ele>862.0</ele><time>2026-05-01T09:34:49.971Z</time></trkpt><trkpt lat="40.7747682" lon="14.8659132"><ele>861.9999999999999</ele><time>2026-05-01T09:34:52.977Z</time></trkpt><trkpt lat="40.7748178" lon="14.8658455"><ele>862.0</ele><time>2026-05-01T09:34:53.976Z</time></trkpt><trkpt lat="40.7749004" lon="14.8657591"><ele>861.9999999999999</ele><time>2026-05-01T09:34:54.98Z</time></trkpt><trkpt lat="40.7749625" lon="14.8657177"><ele>862.0</ele><time>2026-05-01T09:34:55.968Z</time></trkpt><trkpt lat="40.7749364" lon="14.8658239"><ele>862.0</ele><time>2026-05-01T09:34:59.942Z</time></trkpt><trkpt lat="40.7748871" lon="14.8659177"><ele>862.0</ele><time>2026-05-01T09:35:00.977Z</time></trkpt><trkpt lat="40.7748429" lon="14.8659902"><ele>861.9999999999999</ele><time>2026-05-01T09:35:01.964Z</time></trkpt><trkpt lat="40.77483" lon="14.866083"><ele>862.0</ele><time>2026-05-01T09:35:03.96Z</time></trkpt><trkpt lat="40.7749225" lon="14.8662207"><ele>861.9999999999999</ele><time>2026-05-01T09:35:05.973Z</time></trkpt><trkpt lat="40.7749875" lon="14.8662761"><ele>862.0</ele><time>2026-05-01T09:35:06.977Z</time></trkpt><trkpt lat="40.7750136" lon="14.8661814"><ele>862.0</ele><time>2026-05-01T09:35:08.971Z</time></trkpt><trkpt lat="40.7750377" lon="14.8660993"><ele>862.0</ele><time>2026-05-01T09:35:11.981Z</time></trkpt><trkpt lat="40.7751115" lon="14.8661914"><ele>861.9999999999999</ele><time>2026-05-01T09:35:14.981Z</time></trkpt><trkpt lat="40.7751649" lon="14.8662979"><ele>862.0</ele><time>2026-05-01T09:35:15.971Z</time></trkpt><trkpt lat="40.7752325" lon="14.8664155"><ele>866.3333333333333</ele><time>2026-05-01T09:35:16.953Z</time></trkpt><trkpt lat="40.7753039" lon="14.866473"><ele>870.6666666666666</ele><time>2026-05-01T09:35:18.975Z</time></trkpt><trkpt lat="40.7753989" lon="14.8663644"><ele>875.0</ele><time>2026-05-01T09:35:20.966Z</time></trkpt><trkpt lat="40.7754469" lon="14.8662539"><ele>879.3333333333333</ele><time>2026-05-01T09:35:21.97Z</time></trkpt><trkpt lat="40.775471" lon="14.8661569"><ele>883.6666666666666</ele><time>2026-05-01T09:35:22.968Z</time></trkpt><trkpt lat="40.7754802" lon="14.8660736"><ele>888.0</ele><time>2026-05-01T09:35:23.976Z</time></trkpt><trkpt lat="40.7754833" lon="14.8659476"><ele>888.0</ele><time>2026-05-01T09:35:25.97Z</time></trkpt><trkpt lat="40.775416" lon="14.8659374"><ele>888.0</ele><time>2026-05-01T09:35:29.981Z</time></trkpt><trkpt lat="40.7753584" lon="14.8660515"><ele>888.0</ele><time>2026-05-01T09:35:31.963Z</time></trkpt><trkpt lat="40.7753224" lon="14.8661609"><ele>888.0</ele><time>2026-05-01T09:35:33.966Z</time></trkpt><trkpt lat="40.7752433" lon="14.8661593"><ele>888.0</ele><time>2026-05-01T09:35:35.946Z</time></trkpt><trkpt lat="40.7752197" lon="14.8659958"><ele>885.8333333333334</ele><time>2026-05-01T09:35:37.965Z</time></trkpt><trkpt lat="40.7752201" lon="14.8658529"><ele>883.6666666666667</ele><time>2026-05-01T09:35:38.965Z</time></trkpt><trkpt lat="40.7752121" lon="14.865729"><ele>881.5</ele><time>2026-05-01T09:35:39.97Z</time></trkpt><trkpt lat="40.7751911" lon="14.8656156"><ele>879.3333333333334</ele><time>2026-05-01T09:35:40.961Z</time></trkpt><trkpt lat="40.7751607" lon="14.8655307"><ele>877.1666666666667</ele><time>2026-05-01T09:35:41.963Z</time></trkpt><trkpt lat="40.7751177" lon="14.8654665"><ele>875.0</ele><time>2026-05-01T09:35:43.968Z</time></trkpt><trkpt lat="40.7750486" lon="14.8654929"><ele>872.4</ele><time>2026-05-01T09:35:45.979Z</time></trkpt><trkpt lat="40.7749264" lon="14.8654777"><ele>869.8</ele><time>2026-05-01T09:35:47.962Z</time></trkpt><trkpt lat="40.7748298" lon="14.8654167"><ele>867.2</ele><time>2026-05-01T09:35:48.97Z</time></trkpt><trkpt lat="40.7747248" lon="14.8653647"><ele>864.6</ele><time>2026-05-01T09:35:49.967Z</time></trkpt><trkpt lat="40.7746396" lon="14.8653118"><ele>862.0</ele><time>2026-05-01T09:35:50.968Z</time></trkpt><trkpt lat="40.7745703" lon="14.8652737"><ele>862.0</ele><time>2026-05-01T09:35:51.949Z</time></trkpt><trkpt lat="40.7744802" lon="14.8652247"><ele>862.0</ele><time>2026-05-01T09:35:53.971Z</time></trkpt><trkpt lat="40.7744138" lon="14.8652088"><ele>862.0</ele><time>2026-05-01T09:35:55.967Z</time></trkpt><trkpt lat="40.7743741" lon="14.8652892"><ele>862.0</ele><time>2026-05-01T09:35:57.974Z</time></trkpt><trkpt lat="40.7744048" lon="14.8653999"><ele>862.0</ele><time>2026-05-01T09:35:58.982Z</time></trkpt><trkpt lat="40.7744905" lon="14.8655266"><ele>862.0</ele><time>2026-05-01T09:35:59.971Z</time></trkpt><trkpt lat="40.7745598" lon="14.8656271"><ele>862.0</ele><time>2026-05-01T09:36:00.971Z</time></trkpt><trkpt lat="40.7746156" lon="14.8657239"><ele>862.0</ele><time>2026-05-01T09:36:01.968Z</time></trkpt><trkpt lat="40.7746539" lon="14.8658279"><ele>862.0</ele><time>2026-05-01T09:36:02.966Z</time></trkpt><trkpt lat="40.7747022" lon="14.8659246"><ele>862.0</ele><time>2026-05-01T09:36:04.974Z</time></trkpt><trkpt lat="40.7747952" lon="14.8658717"><ele>862.0</ele><time>2026-05-01T09:36:06.971Z</time></trkpt><trkpt lat="40.7748746" lon="14.8657776"><ele>862.0</ele><time>2026-05-01T09:36:07.982Z</time></trkpt><trkpt lat="40.7749298" lon="14.8657224"><ele>862.0</ele><time>2026-05-01T09:36:08.98Z</time></trkpt><trkpt lat="40.7749239" lon="14.8658607"><ele>862.0</ele><time>2026-05-01T09:36:12.973Z</time></trkpt><trkpt lat="40.7748723" lon="14.8659726"><ele>862.0</ele><time>2026-05-01T09:36:13.971Z</time></trkpt><trkpt lat="40.774858" lon="14.8660753"><ele>861.9999999999999</ele><time>2026-05-01T09:36:15.973Z</time></trkpt><trkpt lat="40.7748927" lon="14.8661605"><ele>862.0</ele><time>2026-05-01T09:36:16.977Z</time></trkpt><trkpt lat="40.7749431" lon="14.8662271"><ele>862.0</ele><time>2026-05-01T09:36:17.983Z</time></trkpt><trkpt lat="40.7750091" lon="14.8662956"><ele>862.0</ele><time>2026-05-01T09:36:18.981Z</time></trkpt><trkpt lat="40.7750524" lon="14.8662348"><ele>861.9999999999999</ele><time>2026-05-01T09:36:21.98Z</time></trkpt><trkpt lat="40.7750257" lon="14.8661149"><ele>862.0</ele><time>2026-05-01T09:36:23.964Z</time></trkpt><trkpt lat="40.7751129" lon="14.8661776"><ele>862.0</ele><time>2026-05-01T09:36:26.974Z</time></trkpt><trkpt lat="40.7751528" lon="14.8662784"><ele>862.0</ele><time>2026-05-01T09:36:27.974Z</time></trkpt><trkpt lat="40.77521" lon="14.8663655"><ele>862.0</ele><time>2026-05-01T09:36:28.981Z</time></trkpt><trkpt lat="40.7752879" lon="14.8664626"><ele>862.0</ele><time>2026-05-01T09:36:30.985Z</time></trkpt><trkpt lat="40.7753826" lon="14.8664132"><ele>862.0</ele><time>2026-05-01T09:36:32.96Z</time></trkpt><trkpt lat="40.775426" lon="14.8663199"><ele>864.1666666666666</ele><time>2026-05-01T09:36:33.971Z</time></trkpt><trkpt lat="40.7754647" lon="14.866217"><ele>866.3333333333333</ele><time>2026-05-01T09:36:34.97Z</time></trkpt><trkpt lat="40.7754837" lon="14.8661287"><ele>868.5</ele><time>2026-05-01T09:36:35.974Z</time></trkpt><trkpt lat="40.7754863" lon="14.8660456"><ele>870.6666666666667</ele><time>2026-05-01T09:36:36.967Z</time></trkpt><trkpt lat="40.7754903" lon="14.8659115"><ele>872.8333333333334</ele><time>2026-05-01T09:36:38.965Z</time></trkpt><trkpt lat="40.775425" lon="14.865872"><ele>875.0</ele><time>2026-05-01T09:36:40.978Z</time></trkpt><trkpt lat="40.775377" lon="14.8660009"><ele>875.0000000000001</ele><time>2026-05-01T09:36:42.976Z</time></trkpt><trkpt lat="40.7753547" lon="14.8661048"><ele>875.0</ele><time>2026-05-01T09:36:43.97Z</time></trkpt><trkpt lat="40.7753133" lon="14.8661778"><ele>875.0</ele><time>2026-05-01T09:36:45.978Z</time></trkpt><trkpt lat="40.7752389" lon="14.8661619"><ele>875.0</ele><time>2026-05-01T09:36:47.985Z</time></trkpt><trkpt lat="40.7752078" lon="14.8660627"><ele>875.0000000000001</ele><time>2026-05-01T09:36:48.978Z</time></trkpt><trkpt lat="40.7752106" lon="14.8659126"><ele>875.0</ele><time>2026-05-01T09:36:49.974Z</time></trkpt><trkpt lat="40.7752022" lon="14.8657733"><ele>872.8333333333334</ele><time>2026-05-01T09:36:50.975Z</time></trkpt><trkpt lat="40.7751824" lon="14.8656462"><ele>870.6666666666667</ele><time>2026-05-01T09:36:51.972Z</time></trkpt><trkpt lat="40.7751562" lon="14.8655506"><ele>868.5</ele><time>2026-05-01T09:36:52.976Z</time></trkpt><trkpt lat="40.7751048" lon="14.8654737"><ele>866.3333333333333</ele><time>2026-05-01T09:36:54.964Z</time></trkpt><trkpt lat="40.7750323" lon="14.8655038"><ele>864.1666666666666</ele><time>2026-05-01T09:36:56.971Z</time></trkpt><trkpt lat="40.7749714" lon="14.8655338"><ele>862.0</ele><time>2026-05-01T09:36:57.97Z</time></trkpt><trkpt lat="40.7749088" lon="14.8654848"><ele>862.0</ele><time>2026-05-01T09:36:58.978Z</time></trkpt><trkpt lat="40.7748129" lon="14.8654129"><ele>862.0</ele><time>2026-05-01T09:36:59.947Z</time></trkpt><trkpt lat="40.7747218" lon="14.8653592"><ele>862.0</ele><time>2026-05-01T09:37:00.966Z</time></trkpt><trkpt lat="40.774627" lon="14.8653178"><ele>862.0</ele><time>2026-05-01T09:37:01.969Z</time></trkpt><trkpt lat="40.7745592" lon="14.865276"><ele>862.0</ele><time>2026-05-01T09:37:02.972Z</time></trkpt><trkpt lat="40.7744799" lon="14.86522"><ele>862.0</ele><time>2026-05-01T09:37:04.96Z</time></trkpt><trkpt lat="40.7744387" lon="14.8653153"><ele>862.0</ele><time>2026-05-01T09:37:09.98Z</time></trkpt><trkpt lat="40.7744866" lon="14.8654349"><ele>862.0</ele><time>2026-05-01T09:37:10.968Z</time></trkpt><trkpt lat="40.7745518" lon="14.8655416"><ele>862.0</ele><time>2026-05-01T09:37:11.965Z</time></trkpt><trkpt lat="40.7746104" lon="14.8656673"><ele>862.0</ele><time>2026-05-01T09:37:12.967Z</time></trkpt><trkpt lat="40.7746413" lon="14.8657816"><ele>861.9999999999999</ele><time>2026-05-01T09:37:13.975Z</time></trkpt><trkpt lat="40.7746674" lon="14.8658592"><ele>862.0</ele><time>2026-05-01T09:37:14.972Z</time></trkpt><trkpt lat="40.7747276" lon="14.86593"><ele>862.0</ele><time>2026-05-01T09:37:16.965Z</time></trkpt><trkpt lat="40.7748227" lon="14.8658419"><ele>862.0</ele><time>2026-05-01T09:37:18.974Z</time></trkpt><trkpt lat="40.7748975" lon="14.8657722"><ele>861.9999999999999</ele><time>2026-05-01T09:37:19.969Z</time></trkpt><trkpt lat="40.7749787" lon="14.865721"><ele>862.0</ele><time>2026-05-01T09:37:21.98Z</time></trkpt><trkpt lat="40.7749197" lon="14.8658655"><ele>861.9999999999999</ele><time>2026-05-01T09:37:23.966Z</time></trkpt><trkpt lat="40.7748675" lon="14.8659488"><ele>862.0</ele><time>2026-05-01T09:37:24.972Z</time></trkpt><trkpt lat="40.7748399" lon="14.8660657"><ele>862.0</ele><time>2026-05-01T09:37:26.973Z</time></trkpt><trkpt lat="40.7748607" lon="14.8661769"><ele>862.0</ele><time>2026-05-01T09:37:28.968Z</time></trkpt><trkpt lat="40.7749131" lon="14.8662488"><ele>861.9999999999999</ele><time>2026-05-01T09:37:29.975Z</time></trkpt><trkpt lat="40.7749926" lon="14.8662965"><ele>862.0</ele><time>2026-05-01T09:37:31.974Z</time></trkpt><trkpt lat="40.7750133" lon="14.866202"><ele>862.0</ele><time>2026-05-01T09:37:33.979Z</time></trkpt><trkpt lat="40.7750432" lon="14.8661037"><ele>862.0</ele><time>2026-05-01T09:37:36.978Z</time></trkpt><trkpt lat="40.7751201" lon="14.8662038"><ele>862.0</ele><time>2026-05-01T09:37:38.983Z</time></trkpt><trkpt lat="40.7751671" lon="14.8663291"><ele>862.0</ele><time>2026-05-01T09:37:39.971Z</time></trkpt><trkpt lat="40.7752218" lon="14.8664194"><ele>862.0</ele><time>2026-05-01T09:37:40.962Z</time></trkpt><trkpt lat="40.7753185" lon="14.8664474"><ele>864.6</ele><time>2026-05-01T09:37:42.969Z</time></trkpt><trkpt lat="40.7754166" lon="14.8663238"><ele>867.2</ele><time>2026-05-01T09:37:44.977Z</time></trkpt><trkpt lat="40.7754669" lon="14.8662158"><ele>869.8</ele><time>2026-05-01T09:37:45.975Z</time></trkpt><trkpt lat="40.7754793" lon="14.8661171"><ele>872.4</ele><time>2026-05-01T09:37:46.946Z</time></trkpt><trkpt lat="40.775482" lon="14.8660301"><ele>875.0</ele><time>2026-05-01T09:37:47.972Z</time></trkpt><trkpt lat="40.7754796" lon="14.8659205"><ele>875.0000000000001</ele><time>2026-05-01T09:37:49.973Z</time></trkpt><trkpt lat="40.7754348" lon="14.8658608"><ele>875.0</ele><time>2026-05-01T09:37:51.974Z</time></trkpt><trkpt lat="40.7753856" lon="14.8659234"><ele>875.0</ele><time>2026-05-01T09:37:53.971Z</time></trkpt><trkpt lat="40.7753221" lon="14.8660394"><ele>875.0</ele><time>2026-05-01T09:37:55.968Z</time></trkpt><trkpt lat="40.7752979" lon="14.8661244"><ele>875.0000000000001</ele><time>2026-05-01T09:37:57.956Z</time></trkpt><trkpt lat="40.7752184" lon="14.8660767"><ele>875.0</ele><time>2026-05-01T09:38:00.954Z</time></trkpt><trkpt lat="40.7752084" lon="14.8659273"><ele>875.0000000000001</ele><time>2026-05-01T09:38:02.973Z</time></trkpt><trkpt lat="40.7752012" lon="14.8657841"><ele>875.0</ele><time>2026-05-01T09:38:03.97Z</time></trkpt><trkpt lat="40.7751776" lon="14.8656433"><ele>875.0</ele><time>2026-05-01T09:38:04.976Z</time></trkpt><trkpt lat="40.7751519" lon="14.8655486"><ele>875.0</ele><time>2026-05-01T09:38:05.954Z</time></trkpt><trkpt lat="40.7751094" lon="14.8654809"><ele>875.0000000000001</ele><time>2026-05-01T09:38:07.954Z</time></trkpt><trkpt lat="40.7750398" lon="14.8654914"><ele>875.0</ele><time>2026-05-01T09:38:09.972Z</time></trkpt><trkpt lat="40.7749636" lon="14.8654966"><ele>872.4</ele><time>2026-05-01T09:38:10.981Z</time></trkpt><trkpt lat="40.7748852" lon="14.8654548"><ele>869.8</ele><time>2026-05-01T09:38:11.944Z</time></trkpt><trkpt lat="40.7747852" lon="14.8653941"><ele>867.2</ele><time>2026-05-01T09:38:12.949Z</time></trkpt><trkpt lat="40.7746902" lon="14.8653435"><ele>864.6</ele><time>2026-05-01T09:38:13.948Z</time></trkpt><trkpt lat="40.7746076" lon="14.8652906"><ele>862.0</ele><time>2026-05-01T09:38:14.942Z</time></trkpt><trkpt lat="40.7745383" lon="14.8652459"><ele>862.0</ele><time>2026-05-01T09:38:15.964Z</time></trkpt><trkpt lat="40.7744628" lon="14.8652104"><ele>862.0</ele><time>2026-05-01T09:38:17.953Z</time></trkpt><trkpt lat="40.77439" lon="14.8652533"><ele>862.0</ele><time>2026-05-01T09:38:20.988Z</time></trkpt><trkpt lat="40.774418" lon="14.8653474"><ele>862.0</ele><time>2026-05-01T09:38:21.984Z</time></trkpt><trkpt lat="40.7744812" lon="14.865495"><ele>862.0</ele><time>2026-05-01T09:38:22.955Z</time></trkpt><trkpt lat="40.7745528" lon="14.8656058"><ele>862.0</ele><time>2026-05-01T09:38:23.951Z</time></trkpt><trkpt lat="40.7746183" lon="14.8657058"><ele>862.0</ele><time>2026-05-01T09:38:24.946Z</time></trkpt><trkpt lat="40.7746694" lon="14.8658261"><ele>862.0</ele><time>2026-05-01T09:38:25.959Z</time></trkpt><trkpt lat="40.7746993" lon="14.8659163"><ele>862.0</ele><time>2026-05-01T09:38:26.996Z</time></trkpt><trkpt lat="40.7747732" lon="14.865901"><ele>862.0</ele><time>2026-05-01T09:38:29.958Z</time></trkpt><trkpt lat="40.7748499" lon="14.8658084"><ele>861.9999999999999</ele><time>2026-05-01T09:38:30.966Z</time></trkpt><trkpt lat="40.7748967" lon="14.865751"><ele>862.0</ele><time>2026-05-01T09:38:31.946Z</time></trkpt><trkpt lat="40.7749641" lon="14.865727"><ele>862.0</ele><time>2026-05-01T09:38:33.975Z</time></trkpt><trkpt lat="40.7749356" lon="14.8658576"><ele>862.0</ele><time>2026-05-01T09:38:35.972Z</time></trkpt><trkpt lat="40.7748879" lon="14.8659387"><ele>861.9999999999999</ele><time>2026-05-01T09:38:36.981Z</time></trkpt><trkpt lat="40.7748592" lon="14.8660208"><ele>862.0</ele><time>2026-05-01T09:38:37.963Z</time></trkpt><trkpt lat="40.7748851" lon="14.8661654"><ele>861.9999999999999</ele><time>2026-05-01T09:38:40Z</time></trkpt><trkpt lat="40.7749371" lon="14.8662424"><ele>862.0</ele><time>2026-05-01T09:38:40.978Z</time></trkpt><trkpt lat="40.7749957" lon="14.8662986"><ele>862.0</ele><time>2026-05-01T09:38:41.947Z</time></trkpt><trkpt lat="40.7750501" lon="14.8661994"><ele>862.0</ele><time>2026-05-01T09:38:44.964Z</time></trkpt><trkpt lat="40.7750497" lon="14.8661155"><ele>861.9999999999999</ele><time>2026-05-01T09:38:46.97Z</time></trkpt><trkpt lat="40.7751119" lon="14.8661356"><ele>862.0</ele><time>2026-05-01T09:38:48.974Z</time></trkpt><trkpt lat="40.7751334" lon="14.8662375"><ele>862.0</ele><time>2026-05-01T09:38:49.977Z</time></trkpt><trkpt lat="40.7751861" lon="14.8663515"><ele>862.0</ele><time>2026-05-01T09:38:50.978Z</time></trkpt><trkpt lat="40.7752657" lon="14.8664629"><ele>862.0</ele><time>2026-05-01T09:38:51.969Z</time></trkpt><trkpt lat="40.77532" lon="14.8665101"><ele>862.0</ele><time>2026-05-01T09:38:52.977Z</time></trkpt><trkpt lat="40.775371" lon="14.8664342"><ele>862.0</ele><time>2026-05-01T09:38:54.95Z</time></trkpt><trkpt lat="40.7754325" lon="14.8663406"><ele>864.6</ele><time>2026-05-01T09:38:55.966Z</time></trkpt><trkpt lat="40.77548" lon="14.8662081"><ele>867.2</ele><time>2026-05-01T09:38:56.97Z</time></trkpt><trkpt lat="40.7754951" lon="14.8661032"><ele>869.8</ele><time>2026-05-01T09:38:57.968Z</time></trkpt><trkpt lat="40.775484" lon="14.8659554"><ele>872.4</ele><time>2026-05-01T09:38:59.959Z</time></trkpt><trkpt lat="40.7754705" lon="14.8658659"><ele>875.0</ele><time>2026-05-01T09:39:01.967Z</time></trkpt><trkpt lat="40.7753994" lon="14.865914"><ele>875.0</ele><time>2026-05-01T09:39:04.954Z</time></trkpt><trkpt lat="40.775362" lon="14.8659854"><ele>875.0</ele><time>2026-05-01T09:39:05.953Z</time></trkpt><trkpt lat="40.7753045" lon="14.8661155"><ele>875.0</ele><time>2026-05-01T09:39:07.974Z</time></trkpt><trkpt lat="40.7752329" lon="14.8661687"><ele>875.0</ele><time>2026-05-01T09:39:09.97Z</time></trkpt><trkpt lat="40.7752112" lon="14.8660478"><ele>875.0</ele><time>2026-05-01T09:39:11.954Z</time></trkpt><trkpt lat="40.7752167" lon="14.8659091"><ele>875.0</ele><time>2026-05-01T09:39:12.968Z</time></trkpt><trkpt lat="40.7752004" lon="14.8657636"><ele>875.0</ele><time>2026-05-01T09:39:13.969Z</time></trkpt><trkpt lat="40.7751751" lon="14.8656357"><ele>875.0</ele><time>2026-05-01T09:39:14.967Z</time></trkpt><trkpt lat="40.7751473" lon="14.8655318"><ele>875.0</ele><time>2026-05-01T09:39:15.953Z</time></trkpt><trkpt lat="40.7750981" lon="14.8654761"><ele>875.0</ele><time>2026-05-01T09:39:17.973Z</time></trkpt><trkpt lat="40.7749882" lon="14.8655142"><ele>872.4</ele><time>2026-05-01T09:39:19.974Z</time></trkpt><trkpt lat="40.7749243" lon="14.8655047"><ele>869.8</ele><time>2026-05-01T09:39:20.963Z</time></trkpt><trkpt lat="40.7748344" lon="14.8654436"><ele>867.2</ele><time>2026-05-01T09:39:21.974Z</time></trkpt><trkpt lat="40.7747337" lon="14.8653705"><ele>864.6</ele><time>2026-05-01T09:39:22.97Z</time></trkpt><trkpt lat="40.7746415" lon="14.865319"><ele>862.0</ele><time>2026-05-01T09:39:23.963Z</time></trkpt><trkpt lat="40.7745686" lon="14.8652786"><ele>862.0</ele><time>2026-05-01T09:39:24.976Z</time></trkpt><trkpt lat="40.7744769" lon="14.8652194"><ele>862.0</ele><time>2026-05-01T09:39:26.978Z</time></trkpt><trkpt lat="40.7744112" lon="14.8652204"><ele>862.0</ele><time>2026-05-01T09:39:28.955Z</time></trkpt><trkpt lat="40.7743792" lon="14.8653572"><ele>862.0</ele><time>2026-05-01T09:39:30.975Z</time></trkpt><trkpt lat="40.7744376" lon="14.8654867"><ele>862.0</ele><time>2026-05-01T09:39:31.966Z</time></trkpt><trkpt lat="40.774519" lon="14.8655985"><ele>862.0</ele><time>2026-05-01T09:39:32.955Z</time></trkpt><trkpt lat="40.7745934" lon="14.8656906"><ele>862.0</ele><time>2026-05-01T09:39:33.967Z</time></trkpt><trkpt lat="40.7746469" lon="14.8657745"><ele>862.0</ele><time>2026-05-01T09:39:34.973Z</time></trkpt><trkpt lat="40.7746795" lon="14.8658721"><ele>862.0</ele><time>2026-05-01T09:39:35.975Z</time></trkpt><trkpt lat="40.7747179" lon="14.8659677"><ele>862.0</ele><time>2026-05-01T09:39:37.958Z</time></trkpt><trkpt lat="40.7748285" lon="14.8658337"><ele>862.0</ele><time>2026-05-01T09:39:39.965Z</time></trkpt><trkpt lat="40.774893" lon="14.8657481"><ele>862.0</ele><time>2026-05-01T09:39:40.969Z</time></trkpt><trkpt lat="40.7749821" lon="14.865702"><ele>862.0</ele><time>2026-05-01T09:39:42.977Z</time></trkpt><trkpt lat="40.7749488" lon="14.8658206"><ele>862.0</ele><time>2026-05-01T09:39:44.98Z</time></trkpt><trkpt lat="40.7748874" lon="14.8659159"><ele>862.0</ele><time>2026-05-01T09:39:45.975Z</time></trkpt><trkpt lat="40.7748394" lon="14.8660016"><ele>861.9999999999999</ele><time>2026-05-01T09:39:46.985Z</time></trkpt><trkpt lat="40.7748407" lon="14.8661316"><ele>862.0</ele><time>2026-05-01T09:39:48.976Z</time></trkpt><trkpt lat="40.7748874" lon="14.8661985"><ele>862.0</ele><time>2026-05-01T09:39:49.979Z</time></trkpt><trkpt lat="40.7749605" lon="14.8662739"><ele>862.0</ele><time>2026-05-01T09:39:50.973Z</time></trkpt><trkpt lat="40.775016" lon="14.8663253"><ele>861.9999999999999</ele><time>2026-05-01T09:39:51.975Z</time></trkpt><trkpt lat="40.7750296" lon="14.8662406"><ele>862.0</ele><time>2026-05-01T09:39:53.98Z</time></trkpt><trkpt lat="40.7750072" lon="14.8661512"><ele>862.0</ele><time>2026-05-01T09:39:54.957Z</time></trkpt><trkpt lat="40.7750288" lon="14.8660267"><ele>862.0</ele><time>2026-05-01T09:39:56.973Z</time></trkpt><trkpt lat="40.7750513" lon="14.8658928"><ele>862.0</ele><time>2026-05-01T09:39:58.982Z</time></trkpt><trkpt lat="40.775055" lon="14.8657789"><ele>862.0</ele><time>2026-05-01T09:40:00.956Z</time></trkpt><trkpt lat="40.7750668" lon="14.86569"><ele>862.0</ele><time>2026-05-01T09:48:19.974Z</time></trkpt><trkpt lat="40.7750382" lon="14.8655658"><ele>861.9999999999999</ele><time>2026-05-01T09:48:22.969Z</time></trkpt><trkpt lat="40.7749647" lon="14.8655222"><ele>862.0</ele><time>2026-05-01T09:48:25.972Z</time></trkpt><trkpt lat="40.7748776" lon="14.8654466"><ele>862.0</ele><time>2026-05-01T09:48:27.976Z</time></trkpt><trkpt lat="40.7748123" lon="14.8654095"><ele>862.0</ele><time>2026-05-01T09:48:28.975Z</time></trkpt><trkpt lat="40.7747374" lon="14.8653648"><ele>861.9999999999999</ele><time>2026-05-01T09:48:29.975Z</time></trkpt><trkpt lat="40.7746636" lon="14.8653225"><ele>862.0</ele><time>2026-05-01T09:48:30.959Z</time></trkpt><trkpt lat="40.7745976" lon="14.86528"><ele>862.0</ele><time>2026-05-01T09:48:31.948Z</time></trkpt><trkpt lat="40.7745032" lon="14.8652346"><ele>862.0</ele><time>2026-05-01T09:48:33.968Z</time></trkpt><trkpt lat="40.7744222" lon="14.8652356"><ele>862.0</ele><time>2026-05-01T09:48:36.974Z</time></trkpt><trkpt lat="40.7743886" lon="14.8653077"><ele>862.0</ele><time>2026-05-01T09:48:38.979Z</time></trkpt><trkpt lat="40.7744381" lon="14.8654506"><ele>862.0</ele><time>2026-05-01T09:48:40.985Z</time></trkpt><trkpt lat="40.7744926" lon="14.8655395"><ele>861.9999999999999</ele><time>2026-05-01T09:48:41.946Z</time></trkpt><trkpt lat="40.7745463" lon="14.8656293"><ele>862.0</ele><time>2026-05-01T09:48:42.969Z</time></trkpt><trkpt lat="40.7745967" lon="14.8657216"><ele>862.0</ele><time>2026-05-01T09:48:43.968Z</time></trkpt><trkpt lat="40.7746369" lon="14.8658237"><ele>862.0</ele><time>2026-05-01T09:48:44.978Z</time></trkpt><trkpt lat="40.7746773" lon="14.8659089"><ele>861.9999999999999</ele><time>2026-05-01T09:48:45.963Z</time></trkpt><trkpt lat="40.7747348" lon="14.8659462"><ele>862.0</ele><time>2026-05-01T09:48:47.958Z</time></trkpt><trkpt lat="40.7747944" lon="14.8658822"><ele>861.9999999999999</ele><time>2026-05-01T09:48:48.978Z</time></trkpt><trkpt lat="40.7748637" lon="14.8657983"><ele>862.0</ele><time>2026-05-01T09:48:49.973Z</time></trkpt><trkpt lat="40.7749199" lon="14.8657409"><ele>862.0</ele><time>2026-05-01T09:48:51.974Z</time></trkpt><trkpt lat="40.7748708" lon="14.8659058"><ele>862.0</ele><time>2026-05-01T09:48:54.969Z</time></trkpt><trkpt lat="40.7748359" lon="14.8659785"><ele>861.9999999999999</ele><time>2026-05-01T09:48:55.977Z</time></trkpt><trkpt lat="40.7748282" lon="14.8660789"><ele>862.0</ele><time>2026-05-01T09:48:57.965Z</time></trkpt><trkpt lat="40.7749047" lon="14.8662096"><ele>862.0</ele><time>2026-05-01T09:48:59.975Z</time></trkpt><trkpt lat="40.774968" lon="14.8662894"><ele>862.0</ele><time>2026-05-01T09:49:00.98Z</time></trkpt><trkpt lat="40.7749987" lon="14.8661867"><ele>862.0</ele><time>2026-05-01T09:49:04.977Z</time></trkpt><trkpt lat="40.7750605" lon="14.8661229"><ele>862.0</ele><time>2026-05-01T09:49:07.953Z</time></trkpt><trkpt lat="40.7751486" lon="14.8662435"><ele>862.0</ele><time>2026-05-01T09:49:09.945Z</time></trkpt><trkpt lat="40.775201" lon="14.8663559"><ele>867.2</ele><time>2026-05-01T09:49:10.971Z</time></trkpt><trkpt lat="40.7752541" lon="14.8664524"><ele>872.4000000000001</ele><time>2026-05-01T09:49:11.973Z</time></trkpt><trkpt lat="40.7753373" lon="14.8665048"><ele>877.5999999999999</ele><time>2026-05-01T09:49:13.984Z</time></trkpt><trkpt lat="40.7754295" lon="14.866331"><ele>882.8</ele><time>2026-05-01T09:49:15.98Z</time></trkpt><trkpt lat="40.7754674" lon="14.8662114"><ele>888.0</ele><time>2026-05-01T09:49:16.979Z</time></trkpt><trkpt lat="40.7754828" lon="14.8661058"><ele>888.0</ele><time>2026-05-01T09:49:17.97Z</time></trkpt><trkpt lat="40.7754848" lon="14.8660114"><ele>888.0</ele><time>2026-05-01T09:49:18.977Z</time></trkpt><trkpt lat="40.7754782" lon="14.8659098"><ele>888.0</ele><time>2026-05-01T09:49:20.977Z</time></trkpt><trkpt lat="40.7753992" lon="14.8658878"><ele>888.0</ele><time>2026-05-01T09:49:23.979Z</time></trkpt><trkpt lat="40.7753487" lon="14.8659908"><ele>888.0</ele><time>2026-05-01T09:49:25.974Z</time></trkpt><trkpt lat="40.7753292" lon="14.8660823"><ele>888.0</ele><time>2026-05-01T09:49:26.966Z</time></trkpt><trkpt lat="40.7752946" lon="14.8661769"><ele>888.0</ele><time>2026-05-01T09:49:28.972Z</time></trkpt><trkpt lat="40.7752347" lon="14.8661431"><ele>888.0</ele><time>2026-05-01T09:49:30.95Z</time></trkpt><trkpt lat="40.7752308" lon="14.8660565"><ele>888.0</ele><time>2026-05-01T09:49:31.972Z</time></trkpt><trkpt lat="40.775232" lon="14.8659214"><ele>888.0</ele><time>2026-05-01T09:49:32.975Z</time></trkpt><trkpt lat="40.7752187" lon="14.8657692"><ele>888.0</ele><time>2026-05-01T09:49:33.983Z</time></trkpt><trkpt lat="40.7751941" lon="14.8656435"><ele>888.0</ele><time>2026-05-01T09:49:34.979Z</time></trkpt><trkpt lat="40.7751615" lon="14.8655492"><ele>882.8</ele><time>2026-05-01T09:49:35.959Z</time></trkpt><trkpt lat="40.7751227" lon="14.8654614"><ele>877.5999999999999</ele><time>2026-05-01T09:49:37.975Z</time></trkpt><trkpt lat="40.7750362" lon="14.8655009"><ele>872.4000000000001</ele><time>2026-05-01T09:49:39.968Z</time></trkpt><trkpt lat="40.774923" lon="14.8654883"><ele>867.2</ele><time>2026-05-01T09:49:41.978Z</time></trkpt><trkpt lat="40.7748287" lon="14.8654179"><ele>862.0</ele><time>2026-05-01T09:49:43.054Z</time></trkpt><trkpt lat="40.7747329" lon="14.8653583"><ele>862.0</ele><time>2026-05-01T09:49:43.975Z</time></trkpt><trkpt lat="40.7746406" lon="14.8653127"><ele>862.0</ele><time>2026-05-01T09:49:44.98Z</time></trkpt><trkpt lat="40.7745658" lon="14.8652713"><ele>862.0</ele><time>2026-05-01T09:49:45.971Z</time></trkpt><trkpt lat="40.7744688" lon="14.8652221"><ele>862.0</ele><time>2026-05-01T09:49:48.037Z</time></trkpt><trkpt lat="40.7743846" lon="14.8652482"><ele>862.0</ele><time>2026-05-01T09:49:50.953Z</time></trkpt><trkpt lat="40.774372" lon="14.8653895"><ele>862.0</ele><time>2026-05-01T09:49:53.026Z</time></trkpt><trkpt lat="40.7744169" lon="14.8654797"><ele>862.0</ele><time>2026-05-01T09:49:53.969Z</time></trkpt><trkpt lat="40.7744979" lon="14.8655859"><ele>862.0</ele><time>2026-05-01T09:49:54.972Z</time></trkpt><trkpt lat="40.7745696" lon="14.865699"><ele>862.0</ele><time>2026-05-01T09:49:55.959Z</time></trkpt><trkpt lat="40.7746247" lon="14.8658224"><ele>862.0</ele><time>2026-05-01T09:49:56.992Z</time></trkpt><trkpt lat="40.7746607" lon="14.8659118"><ele>862.0</ele><time>2026-05-01T09:49:57.968Z</time></trkpt><trkpt lat="40.7747578" lon="14.865932"><ele>862.0</ele><time>2026-05-01T09:49:59.969Z</time></trkpt><trkpt lat="40.7748301" lon="14.8658503"><ele>862.0</ele><time>2026-05-01T09:50:00.955Z</time></trkpt><trkpt lat="40.7749025" lon="14.8657564"><ele>862.0</ele><time>2026-05-01T09:50:01.953Z</time></trkpt><trkpt lat="40.7749518" lon="14.8656821"><ele>862.0</ele><time>2026-05-01T09:50:03.087Z</time></trkpt><trkpt lat="40.7749848" lon="14.8657792"><ele>862.0</ele><time>2026-05-01T09:50:06.974Z</time></trkpt><trkpt lat="40.7749331" lon="14.8659016"><ele>862.0</ele><time>2026-05-01T09:50:07.975Z</time></trkpt><trkpt lat="40.7748923" lon="14.8659941"><ele>862.0</ele><time>2026-05-01T09:50:08.982Z</time></trkpt><trkpt lat="40.7749238" lon="14.8661559"><ele>862.0</ele><time>2026-05-01T09:50:10.963Z</time></trkpt><trkpt lat="40.7749814" lon="14.8662423"><ele>862.0</ele><time>2026-05-01T09:50:11.966Z</time></trkpt><trkpt lat="40.7750297" lon="14.8663137"><ele>862.0</ele><time>2026-05-01T09:50:13.054Z</time></trkpt><trkpt lat="40.7750314" lon="14.86621"><ele>862.0</ele><time>2026-05-01T09:50:14.983Z</time></trkpt><trkpt lat="40.7751126" lon="14.8662345"><ele>862.0</ele><time>2026-05-01T09:50:19.986Z</time></trkpt><trkpt lat="40.7751707" lon="14.8663611"><ele>862.0</ele><time>2026-05-01T09:50:20.99Z</time></trkpt><trkpt lat="40.7752296" lon="14.8664496"><ele>862.0</ele><time>2026-05-01T09:50:22.045Z</time></trkpt><trkpt lat="40.7753176" lon="14.8664911"><ele>864.6</ele><time>2026-05-01T09:50:23.983Z</time></trkpt><trkpt lat="40.7753795" lon="14.8664189"><ele>867.2</ele><time>2026-05-01T09:50:24.989Z</time></trkpt><trkpt lat="40.7754279" lon="14.8662958"><ele>869.8</ele><time>2026-05-01T09:50:25.975Z</time></trkpt><trkpt lat="40.7754565" lon="14.8661627"><ele>872.4</ele><time>2026-05-01T09:50:26.975Z</time></trkpt><trkpt lat="40.7754648" lon="14.8660575"><ele>875.0</ele><time>2026-05-01T09:50:27.982Z</time></trkpt><trkpt lat="40.7754699" lon="14.8659317"><ele>875.0</ele><time>2026-05-01T09:50:29.976Z</time></trkpt><trkpt lat="40.7753976" lon="14.8660172"><ele>875.0</ele><time>2026-05-01T09:50:34.976Z</time></trkpt><trkpt lat="40.7753716" lon="14.8661602"><ele>875.0</ele><time>2026-05-01T09:50:36.979Z</time></trkpt><trkpt lat="40.7753025" lon="14.8661963"><ele>875.0</ele><time>2026-05-01T09:50:38.984Z</time></trkpt><trkpt lat="40.7752269" lon="14.8660821"><ele>875.0</ele><time>2026-05-01T09:50:40.973Z</time></trkpt><trkpt lat="40.7752276" lon="14.8659183"><ele>875.0</ele><time>2026-05-01T09:50:41.998Z</time></trkpt><trkpt lat="40.7752121" lon="14.8657537"><ele>875.0</ele><time>2026-05-01T09:50:42.982Z</time></trkpt><trkpt lat="40.7751821" lon="14.8656244"><ele>875.0</ele><time>2026-05-01T09:50:43.983Z</time></trkpt><trkpt lat="40.7751499" lon="14.8655324"><ele>875.0</ele><time>2026-05-01T09:50:44.98Z</time></trkpt><trkpt lat="40.7751047" lon="14.8654563"><ele>875.0</ele><time>2026-05-01T09:50:46.993Z</time></trkpt><trkpt lat="40.7750279" lon="14.8655102"><ele>872.8333333333334</ele><time>2026-05-01T09:50:48.989Z</time></trkpt><trkpt lat="40.7749643" lon="14.8655298"><ele>870.6666666666667</ele><time>2026-05-01T09:50:49.989Z</time></trkpt><trkpt lat="40.7749036" lon="14.8654975"><ele>868.5</ele><time>2026-05-01T09:50:50.98Z</time></trkpt><trkpt lat="40.7748172" lon="14.8654257"><ele>866.3333333333333</ele><time>2026-05-01T09:50:51.981Z</time></trkpt><trkpt lat="40.7747216" lon="14.8653623"><ele>864.1666666666666</ele><time>2026-05-01T09:50:53.04Z</time></trkpt><trkpt lat="40.7746401" lon="14.865318"><ele>862.0</ele><time>2026-05-01T09:50:53.984Z</time></trkpt><trkpt lat="40.7745689" lon="14.8652796"><ele>861.9999999999999</ele><time>2026-05-01T09:50:54.984Z</time></trkpt><trkpt lat="40.7744734" lon="14.8652236"><ele>862.0</ele><time>2026-05-01T09:50:57.106Z</time></trkpt><trkpt lat="40.7743995" lon="14.8652256"><ele>862.0</ele><time>2026-05-01T09:50:58.982Z</time></trkpt><trkpt lat="40.7743449" lon="14.8653222"><ele>862.0</ele><time>2026-05-01T09:51:00.985Z</time></trkpt><trkpt lat="40.7743659" lon="14.8654153"><ele>861.9999999999999</ele><time>2026-05-01T09:51:02.004Z</time></trkpt><trkpt lat="40.7744205" lon="14.8655091"><ele>862.0</ele><time>2026-05-01T09:51:03.028Z</time></trkpt><trkpt lat="40.774493" lon="14.8656033"><ele>862.0</ele><time>2026-05-01T09:51:03.949Z</time></trkpt><trkpt lat="40.7745634" lon="14.8657167"><ele>862.0</ele><time>2026-05-01T09:51:04.97Z</time></trkpt><trkpt lat="40.7746143" lon="14.8658272"><ele>862.0</ele><time>2026-05-01T09:51:05.968Z</time></trkpt><trkpt lat="40.7746661" lon="14.8659216"><ele>862.0</ele><time>2026-05-01T09:51:06.983Z</time></trkpt><trkpt lat="40.7747377" lon="14.8659369"><ele>862.0</ele><time>2026-05-01T09:51:08.981Z</time></trkpt><trkpt lat="40.7748261" lon="14.8658346"><ele>862.0</ele><time>2026-05-01T09:51:09.974Z</time></trkpt><trkpt lat="40.7748992" lon="14.8657436"><ele>862.0</ele><time>2026-05-01T09:51:10.973Z</time></trkpt><trkpt lat="40.7749679" lon="14.8657039"><ele>862.0</ele><time>2026-05-01T09:51:13.038Z</time></trkpt><trkpt lat="40.7749134" lon="14.8658781"><ele>862.0</ele><time>2026-05-01T09:51:15.958Z</time></trkpt><trkpt lat="40.774863" lon="14.8659806"><ele>862.0</ele><time>2026-05-01T09:51:16.981Z</time></trkpt><trkpt lat="40.7748399" lon="14.8661058"><ele>862.0</ele><time>2026-05-01T09:51:18.967Z</time></trkpt><trkpt lat="40.7749034" lon="14.8662239"><ele>862.0</ele><time>2026-05-01T09:51:20.977Z</time></trkpt><trkpt lat="40.7749752" lon="14.8662812"><ele>862.0</ele><time>2026-05-01T09:51:21.977Z</time></trkpt><trkpt lat="40.7750417" lon="14.8663181"><ele>862.0</ele><time>2026-05-01T09:51:23.98Z</time></trkpt><trkpt lat="40.7750042" lon="14.8661784"><ele>862.0</ele><time>2026-05-01T09:51:25.961Z</time></trkpt><trkpt lat="40.7750783" lon="14.8661217"><ele>862.0</ele><time>2026-05-01T09:51:28.971Z</time></trkpt><trkpt lat="40.7751454" lon="14.8662842"><ele>862.0</ele><time>2026-05-01T09:51:30.971Z</time></trkpt><trkpt lat="40.7751885" lon="14.8663858"><ele>862.0</ele><time>2026-05-01T09:51:31.98Z</time></trkpt><trkpt lat="40.7752412" lon="14.8664744"><ele>862.0</ele><time>2026-05-01T09:51:33.051Z</time></trkpt><trkpt lat="40.7753465" lon="14.8664901"><ele>862.0</ele><time>2026-05-01T09:51:34.987Z</time></trkpt><trkpt lat="40.7754419" lon="14.8663487"><ele>864.1666666666666</ele><time>2026-05-01T09:51:36.974Z</time></trkpt><trkpt lat="40.7754789" lon="14.8662251"><ele>866.3333333333333</ele><time>2026-05-01T09:51:37.993Z</time></trkpt><trkpt lat="40.7754979" lon="14.8661092"><ele>868.5</ele><time>2026-05-01T09:51:38.971Z</time></trkpt><trkpt lat="40.7754987" lon="14.8660248"><ele>870.6666666666667</ele><time>2026-05-01T09:51:39.986Z</time></trkpt><trkpt lat="40.7754951" lon="14.8659169"><ele>872.8333333333334</ele><time>2026-05-01T09:51:41.989Z</time></trkpt><trkpt lat="40.7754088" lon="14.8659129"><ele>875.0</ele><time>2026-05-01T09:51:44.965Z</time></trkpt><trkpt lat="40.7753376" lon="14.8660868"><ele>877.6</ele><time>2026-05-01T09:51:46.993Z</time></trkpt><trkpt lat="40.7753093" lon="14.8661649"><ele>880.2</ele><time>2026-05-01T09:51:47.992Z</time></trkpt><trkpt lat="40.7752037" lon="14.8661809"><ele>882.8</ele><time>2026-05-01T09:51:49.989Z</time></trkpt><trkpt lat="40.7751663" lon="14.8660214"><ele>885.4</ele><time>2026-05-01T09:51:51.977Z</time></trkpt><trkpt lat="40.7751818" lon="14.8658641"><ele>888.0</ele><time>2026-05-01T09:51:52.999Z</time></trkpt><trkpt lat="40.7751805" lon="14.8657102"><ele>883.6666666666666</ele><time>2026-05-01T09:51:53.978Z</time></trkpt><trkpt lat="40.7751616" lon="14.8655865"><ele>879.3333333333333</ele><time>2026-05-01T09:51:54.984Z</time></trkpt><trkpt lat="40.7751378" lon="14.8655044"><ele>875.0</ele><time>2026-05-01T09:51:55.992Z</time></trkpt><trkpt lat="40.7750794" lon="14.865465"><ele>870.6666666666666</ele><time>2026-05-01T09:51:57.978Z</time></trkpt><trkpt lat="40.7749733" lon="14.8655152"><ele>866.3333333333333</ele><time>2026-05-01T09:51:59.987Z</time></trkpt><trkpt lat="40.7748966" lon="14.8654811"><ele>862.0</ele><time>2026-05-01T09:52:00.984Z</time></trkpt><trkpt lat="40.774804" lon="14.8654229"><ele>861.9999999999999</ele><time>2026-05-01T09:52:02.037Z</time></trkpt><trkpt lat="40.7747192" lon="14.8653749"><ele>862.0</ele><time>2026-05-01T09:52:03.076Z</time></trkpt><trkpt lat="40.7746362" lon="14.8653273"><ele>862.0</ele><time>2026-05-01T09:52:04.045Z</time></trkpt><trkpt lat="40.7745662" lon="14.8652788"><ele>862.0</ele><time>2026-05-01T09:52:05.032Z</time></trkpt><trkpt lat="40.7744731" lon="14.8652181"><ele>861.9999999999999</ele><time>2026-05-01T09:52:06.983Z</time></trkpt><trkpt lat="40.7744035" lon="14.8652207"><ele>862.0</ele><time>2026-05-01T09:52:08.98Z</time></trkpt><trkpt lat="40.7743866" lon="14.8653028"><ele>862.0</ele><time>2026-05-01T09:52:10.987Z</time></trkpt><trkpt lat="40.7744273" lon="14.8654143"><ele>862.0</ele><time>2026-05-01T09:52:11.964Z</time></trkpt><trkpt lat="40.7744958" lon="14.8655242"><ele>862.0</ele><time>2026-05-01T09:52:13.035Z</time></trkpt><trkpt lat="40.7745651" lon="14.8656195"><ele>862.0</ele><time>2026-05-01T09:52:13.981Z</time></trkpt><trkpt lat="40.7746196" lon="14.865726"><ele>862.0</ele><time>2026-05-01T09:52:14.984Z</time></trkpt><trkpt lat="40.7746611" lon="14.8658461"><ele>861.9999999999999</ele><time>2026-05-01T09:52:15.974Z</time></trkpt><trkpt lat="40.7746884" lon="14.8659471"><ele>862.0</ele><time>2026-05-01T09:52:17.983Z</time></trkpt><trkpt lat="40.7747602" lon="14.865891"><ele>862.0</ele><time>2026-05-01T09:52:19.989Z</time></trkpt><trkpt lat="40.7748401" lon="14.8658038"><ele>862.0</ele><time>2026-05-01T09:52:20.991Z</time></trkpt><trkpt lat="40.7748963" lon="14.8657518"><ele>861.9999999999999</ele><time>2026-05-01T09:52:21.975Z</time></trkpt><trkpt lat="40.774974" lon="14.8657191"><ele>862.0</ele><time>2026-05-01T09:52:23.965Z</time></trkpt><trkpt lat="40.7749407" lon="14.8657934"><ele>862.0</ele><time>2026-05-01T09:52:24.988Z</time></trkpt><trkpt lat="40.7748889" lon="14.8659262"><ele>862.0</ele><time>2026-05-01T09:52:25.98Z</time></trkpt><trkpt lat="40.7748544" lon="14.8660166"><ele>862.0</ele><time>2026-05-01T09:52:26.993Z</time></trkpt><trkpt lat="40.7748618" lon="14.8661302"><ele>862.0</ele><time>2026-05-01T09:52:28.995Z</time></trkpt><trkpt lat="40.7749469" lon="14.8662561"><ele>862.0</ele><time>2026-05-01T09:52:30.962Z</time></trkpt><trkpt lat="40.7749935" lon="14.8663126"><ele>861.9999999999999</ele><time>2026-05-01T09:52:31.98Z</time></trkpt><trkpt lat="40.775024" lon="14.8661945"><ele>862.0</ele><time>2026-05-01T09:52:34.991Z</time></trkpt><trkpt lat="40.7750262" lon="14.8661108"><ele>862.0</ele><time>2026-05-01T09:52:36.988Z</time></trkpt><trkpt lat="40.7750916" lon="14.8661658"><ele>862.0</ele><time>2026-05-01T09:52:39.994Z</time></trkpt><trkpt lat="40.7751377" lon="14.8662839"><ele>861.9999999999999</ele><time>2026-05-01T09:52:40.995Z</time></trkpt><trkpt lat="40.7751909" lon="14.8663827"><ele>862.0</ele><time>2026-05-01T09:52:41.99Z</time></trkpt><trkpt lat="40.7752532" lon="14.8664507"><ele>864.1666666666666</ele><time>2026-05-01T09:52:43.081Z</time></trkpt><trkpt lat="40.7753625" lon="14.8664182"><ele>866.3333333333333</ele><time>2026-05-01T09:52:44.988Z</time></trkpt><trkpt lat="40.7754154" lon="14.8663524"><ele>868.5</ele><time>2026-05-01T09:52:45.985Z</time></trkpt><trkpt lat="40.7754502" lon="14.8662443"><ele>870.6666666666667</ele><time>2026-05-01T09:52:46.985Z</time></trkpt><trkpt lat="40.7754698" lon="14.8661427"><ele>872.8333333333334</ele><time>2026-05-01T09:52:48.051Z</time></trkpt><trkpt lat="40.7754749" lon="14.8660487"><ele>875.0</ele><time>2026-05-01T09:52:48.986Z</time></trkpt><trkpt lat="40.7754624" lon="14.8659446"><ele>875.0000000000001</ele><time>2026-05-01T09:52:50.966Z</time></trkpt><trkpt lat="40.7754133" lon="14.8658875"><ele>875.0</ele><time>2026-05-01T09:52:53Z</time></trkpt><trkpt lat="40.7753636" lon="14.8660039"><ele>875.0</ele><time>2026-05-01T09:52:55.993Z</time></trkpt><trkpt lat="40.7753427" lon="14.8660829"><ele>875.0</ele><time>2026-05-01T09:52:56.986Z</time></trkpt><trkpt lat="40.7752994" lon="14.8661575"><ele>875.0000000000001</ele><time>2026-05-01T09:52:59.009Z</time></trkpt><trkpt lat="40.7752338" lon="14.866111"><ele>875.0</ele><time>2026-05-01T09:53:01.035Z</time></trkpt><trkpt lat="40.7752206" lon="14.8659679"><ele>875.0</ele><time>2026-05-01T09:53:01.979Z</time></trkpt><trkpt lat="40.7752188" lon="14.8658235"><ele>875.0</ele><time>2026-05-01T09:53:02.986Z</time></trkpt><trkpt lat="40.7751929" lon="14.8656978"><ele>875.0</ele><time>2026-05-01T09:53:03.985Z</time></trkpt><trkpt lat="40.775167" lon="14.8655784"><ele>875.0</ele><time>2026-05-01T09:53:04.992Z</time></trkpt><trkpt lat="40.7751119" lon="14.8654611"><ele>875.0</ele><time>2026-05-01T09:53:06.971Z</time></trkpt><trkpt lat="40.7750222" lon="14.8654957"><ele>872.4</ele><time>2026-05-01T09:53:08.991Z</time></trkpt><trkpt lat="40.7749134" lon="14.8654877"><ele>869.8</ele><time>2026-05-01T09:53:10.985Z</time></trkpt><trkpt lat="40.7748171" lon="14.8654275"><ele>867.2</ele><time>2026-05-01T09:53:12.053Z</time></trkpt><trkpt lat="40.7747174" lon="14.86537"><ele>864.6</ele><time>2026-05-01T09:53:12.969Z</time></trkpt><trkpt lat="40.774632" lon="14.8653264"><ele>862.0</ele><time>2026-05-01T09:53:13.973Z</time></trkpt><trkpt lat="40.7745659" lon="14.8652848"><ele>861.9999999999999</ele><time>2026-05-01T09:53:15.042Z</time></trkpt><trkpt lat="40.7744756" lon="14.8652236"><ele>862.0</ele><time>2026-05-01T09:53:17.017Z</time></trkpt><trkpt lat="40.7744415" lon="14.8651122"><ele>862.0</ele><time>2026-05-01T09:54:15.977Z</time></trkpt><trkpt lat="40.7743797" lon="14.8650759"><ele>862.0</ele><time>2026-05-01T09:54:16.979Z</time></trkpt><trkpt lat="40.7743113" lon="14.8650264"><ele>861.9999999999999</ele><time>2026-05-01T09:54:17.98Z</time></trkpt><trkpt lat="40.7742543" lon="14.8649547"><ele>862.0</ele><time>2026-05-01T09:54:18.98Z</time></trkpt><trkpt lat="40.7742144" lon="14.8648816"><ele>859.4999999999999</ele><time>2026-05-01T09:54:20.007Z</time></trkpt><trkpt lat="40.7742102" lon="14.8647696"><ele>857.0</ele><time>2026-05-01T09:54:22.066Z</time></trkpt><trkpt lat="40.7742957" lon="14.8646611"><ele>854.5</ele><time>2026-05-01T09:54:23.987Z</time></trkpt><trkpt lat="40.7743556" lon="14.8645975"><ele>852.0</ele><time>2026-05-01T09:54:24.952Z</time></trkpt><trkpt lat="40.7744241" lon="14.8645414"><ele>849.4999999999999</ele><time>2026-05-01T09:54:25.989Z</time></trkpt><trkpt lat="40.7744848" lon="14.8644898"><ele>847.0</ele><time>2026-05-01T09:54:27.043Z</time></trkpt><trkpt lat="40.7745273" lon="14.8644139"><ele>847.0</ele><time>2026-05-01T09:54:28.045Z</time></trkpt><trkpt lat="40.7745655" lon="14.8643146"><ele>847.0</ele><time>2026-05-01T09:54:28.962Z</time></trkpt><trkpt lat="40.7746154" lon="14.8642145"><ele>847.0</ele><time>2026-05-01T09:54:30.037Z</time></trkpt><trkpt lat="40.7746684" lon="14.8641109"><ele>847.0</ele><time>2026-05-01T09:54:31.062Z</time></trkpt><trkpt lat="40.7747403" lon="14.864014"><ele>847.0</ele><time>2026-05-01T09:54:32.051Z</time></trkpt><trkpt lat="40.7747989" lon="14.863922"><ele>843.9999999999999</ele><time>2026-05-01T09:54:33.033Z</time></trkpt><trkpt lat="40.7748409" lon="14.8638312"><ele>841.0</ele><time>2026-05-01T09:54:33.975Z</time></trkpt><trkpt lat="40.7748813" lon="14.863728"><ele>838.0</ele><time>2026-05-01T09:54:34.973Z</time></trkpt><trkpt lat="40.774917" lon="14.8636374"><ele>835.0</ele><time>2026-05-01T09:54:35.981Z</time></trkpt><trkpt lat="40.7749451" lon="14.863554"><ele>831.9999999999999</ele><time>2026-05-01T09:54:37.037Z</time></trkpt><trkpt lat="40.7749599" lon="14.8634525"><ele>829.0</ele><time>2026-05-01T09:54:38.036Z</time></trkpt><trkpt lat="40.7749632" lon="14.8633465"><ele>826.3333333333333</ele><time>2026-05-01T09:54:38.973Z</time></trkpt><trkpt lat="40.7749522" lon="14.8631923"><ele>823.6666666666666</ele><time>2026-05-01T09:54:40.994Z</time></trkpt><trkpt lat="40.7748619" lon="14.8630889"><ele>821.0</ele><time>2026-05-01T09:54:42.978Z</time></trkpt><trkpt lat="40.7747973" lon="14.8630546"><ele>818.3333333333333</ele><time>2026-05-01T09:54:43.97Z</time></trkpt><trkpt lat="40.7747382" lon="14.8630205"><ele>815.6666666666666</ele><time>2026-05-01T09:54:44.979Z</time></trkpt><trkpt lat="40.7746766" lon="14.862977"><ele>813.0</ele><time>2026-05-01T09:54:45.957Z</time></trkpt><trkpt lat="40.7746134" lon="14.8629127"><ele>813.0</ele><time>2026-05-01T09:54:46.99Z</time></trkpt><trkpt lat="40.7745462" lon="14.8628446"><ele>813.0</ele><time>2026-05-01T09:54:47.964Z</time></trkpt><trkpt lat="40.7744968" lon="14.8627878"><ele>813.0</ele><time>2026-05-01T09:54:48.962Z</time></trkpt><trkpt lat="40.7744555" lon="14.862719"><ele>813.0</ele><time>2026-05-01T09:54:49.965Z</time></trkpt><trkpt lat="40.774401" lon="14.8626513"><ele>813.0</ele><time>2026-05-01T09:54:50.967Z</time></trkpt><trkpt lat="40.7743363" lon="14.8626"><ele>813.0</ele><time>2026-05-01T09:54:51.964Z</time></trkpt><trkpt lat="40.7742743" lon="14.8625628"><ele>813.0</ele><time>2026-05-01T09:54:52.966Z</time></trkpt><trkpt lat="40.7741668" lon="14.8624866"><ele>810.1666666666666</ele><time>2026-05-01T09:54:54.947Z</time></trkpt><trkpt lat="40.7740828" lon="14.8624443"><ele>807.3333333333333</ele><time>2026-05-01T09:54:55.966Z</time></trkpt><trkpt lat="40.7739857" lon="14.8624023"><ele>804.5</ele><time>2026-05-01T09:54:56.978Z</time></trkpt><trkpt lat="40.7739107" lon="14.8623502"><ele>801.6666666666666</ele><time>2026-05-01T09:54:57.978Z</time></trkpt><trkpt lat="40.7738502" lon="14.8622799"><ele>798.8333333333333</ele><time>2026-05-01T09:54:58.976Z</time></trkpt><trkpt lat="40.7737884" lon="14.8621919"><ele>796.0</ele><time>2026-05-01T09:55:00.03Z</time></trkpt><trkpt lat="40.7737386" lon="14.8621033"><ele>795.9999999999999</ele><time>2026-05-01T09:55:01.035Z</time></trkpt><trkpt lat="40.7737024" lon="14.8620294"><ele>796.0</ele><time>2026-05-01T09:55:01.968Z</time></trkpt><trkpt lat="40.7736776" lon="14.8619341"><ele>796.0</ele><time>2026-05-01T09:55:02.979Z</time></trkpt><trkpt lat="40.7736575" lon="14.8618227"><ele>796.0</ele><time>2026-05-01T09:55:03.966Z</time></trkpt><trkpt lat="40.77363" lon="14.8617085"><ele>795.9999999999999</ele><time>2026-05-01T09:55:04.974Z</time></trkpt><trkpt lat="40.7735895" lon="14.8615955"><ele>796.0</ele><time>2026-05-01T09:55:05.972Z</time></trkpt><trkpt lat="40.77354" lon="14.8614862"><ele>788.9999999999999</ele><time>2026-05-01T09:55:07.026Z</time></trkpt><trkpt lat="40.7735013" lon="14.861383"><ele>782.0</ele><time>2026-05-01T09:55:07.974Z</time></trkpt><trkpt lat="40.7734758" lon="14.861287"><ele>775.0</ele><time>2026-05-01T09:55:08.976Z</time></trkpt><trkpt lat="40.7734526" lon="14.8611867"><ele>768.0</ele><time>2026-05-01T09:55:09.982Z</time></trkpt><trkpt lat="40.7734162" lon="14.8610779"><ele>761.0</ele><time>2026-05-01T09:55:10.976Z</time></trkpt><trkpt lat="40.7733776" lon="14.86097"><ele>754.0</ele><time>2026-05-01T09:55:11.972Z</time></trkpt><trkpt lat="40.7733367" lon="14.8608488"><ele>753.6</ele><time>2026-05-01T09:55:12.974Z</time></trkpt><trkpt lat="40.7732925" lon="14.8607323"><ele>753.2</ele><time>2026-05-01T09:55:13.975Z</time></trkpt><trkpt lat="40.7732526" lon="14.8606195"><ele>752.8000000000001</ele><time>2026-05-01T09:55:14.979Z</time></trkpt><trkpt lat="40.7732069" lon="14.8605154"><ele>752.4000000000001</ele><time>2026-05-01T09:55:16.056Z</time></trkpt><trkpt lat="40.7731654" lon="14.8604048"><ele>752.0</ele><time>2026-05-01T09:55:16.976Z</time></trkpt><trkpt lat="40.7731094" lon="14.860276"><ele>752.0</ele><time>2026-05-01T09:55:17.971Z</time></trkpt><trkpt lat="40.7730577" lon="14.8601512"><ele>752.0</ele><time>2026-05-01T09:55:18.971Z</time></trkpt><trkpt lat="40.7730057" lon="14.8600217"><ele>752.0</ele><time>2026-05-01T09:55:19.982Z</time></trkpt><trkpt lat="40.7729665" lon="14.8599"><ele>752.0</ele><time>2026-05-01T09:55:20.978Z</time></trkpt><trkpt lat="40.7729394" lon="14.8597715"><ele>752.0</ele><time>2026-05-01T09:55:21.982Z</time></trkpt><trkpt lat="40.7729136" lon="14.8596459"><ele>752.2</ele><time>2026-05-01T09:55:22.968Z</time></trkpt><trkpt lat="40.7728734" lon="14.8595291"><ele>752.4000000000001</ele><time>2026-05-01T09:55:23.984Z</time></trkpt><trkpt lat="40.7728313" lon="14.8594125"><ele>752.5999999999999</ele><time>2026-05-01T09:55:24.973Z</time></trkpt><trkpt lat="40.7727966" lon="14.8592975"><ele>752.8</ele><time>2026-05-01T09:55:25.97Z</time></trkpt><trkpt lat="40.7727725" lon="14.8591865"><ele>753.0</ele><time>2026-05-01T09:55:26.976Z</time></trkpt><trkpt lat="40.7727551" lon="14.8590902"><ele>752.6666666666666</ele><time>2026-05-01T09:55:28.056Z</time></trkpt><trkpt lat="40.7727439" lon="14.8589943"><ele>752.3333333333334</ele><time>2026-05-01T09:55:28.963Z</time></trkpt><trkpt lat="40.7727499" lon="14.85891"><ele>752.0</ele><time>2026-05-01T09:55:29.97Z</time></trkpt><trkpt lat="40.7727929" lon="14.8587636"><ele>751.6666666666667</ele><time>2026-05-01T09:55:31.966Z</time></trkpt><trkpt lat="40.7728171" lon="14.8586788"><ele>751.3333333333334</ele><time>2026-05-01T09:55:33.027Z</time></trkpt><trkpt lat="40.7728268" lon="14.8585827"><ele>751.0</ele><time>2026-05-01T09:55:33.991Z</time></trkpt><trkpt lat="40.7728232" lon="14.8584944"><ele>749.5999999999999</ele><time>2026-05-01T09:55:34.985Z</time></trkpt><trkpt lat="40.772777" lon="14.8583391"><ele>748.2</ele><time>2026-05-01T09:55:37.05Z</time></trkpt><trkpt lat="40.7727395" lon="14.8582632"><ele>746.8</ele><time>2026-05-01T09:55:38.031Z</time></trkpt><trkpt lat="40.7726796" lon="14.8581361"><ele>745.4000000000001</ele><time>2026-05-01T09:55:39.971Z</time></trkpt><trkpt lat="40.772641" lon="14.8579752"><ele>744.0</ele><time>2026-05-01T09:55:42.03Z</time></trkpt><trkpt lat="40.7726142" lon="14.8578854"><ele>741.5</ele><time>2026-05-01T09:55:42.977Z</time></trkpt><trkpt lat="40.772585" lon="14.8577911"><ele>739.0</ele><time>2026-05-01T09:55:43.979Z</time></trkpt><trkpt lat="40.7725504" lon="14.8576855"><ele>736.5</ele><time>2026-05-01T09:55:44.944Z</time></trkpt><trkpt lat="40.772522" lon="14.8575919"><ele>734.0</ele><time>2026-05-01T09:55:45.949Z</time></trkpt><trkpt lat="40.7724922" lon="14.8574958"><ele>731.5</ele><time>2026-05-01T09:55:46.954Z</time></trkpt><trkpt lat="40.772456" lon="14.8574029"><ele>729.0</ele><time>2026-05-01T09:55:47.961Z</time></trkpt><trkpt lat="40.7724409" lon="14.8573067"><ele>729.0</ele><time>2026-05-01T09:55:48.949Z</time></trkpt><trkpt lat="40.7724457" lon="14.8571743"><ele>729.0</ele><time>2026-05-01T09:55:50.946Z</time></trkpt><trkpt lat="40.7724172" lon="14.8570411"><ele>729.0</ele><time>2026-05-01T09:55:52.943Z</time></trkpt><trkpt lat="40.7723834" lon="14.8569572"><ele>729.0</ele><time>2026-05-01T09:55:53.948Z</time></trkpt><trkpt lat="40.7723328" lon="14.8569048"><ele>729.0</ele><time>2026-05-01T09:55:54.943Z</time></trkpt><trkpt lat="40.7722565" lon="14.8568738"><ele>729.0</ele><time>2026-05-01T09:55:55.963Z</time></trkpt><trkpt lat="40.7721952" lon="14.8568446"><ele>728.5</ele><time>2026-05-01T09:55:56.94Z</time></trkpt><trkpt lat="40.772062" lon="14.8567644"><ele>728.0</ele><time>2026-05-01T09:55:58.944Z</time></trkpt><trkpt lat="40.7719758" lon="14.856703"><ele>727.5</ele><time>2026-05-01T09:55:59.968Z</time></trkpt><trkpt lat="40.7718691" lon="14.8566329"><ele>727.0</ele><time>2026-05-01T09:56:01.04Z</time></trkpt><trkpt lat="40.7717531" lon="14.8565766"><ele>722.75</ele><time>2026-05-01T09:56:02.047Z</time></trkpt><trkpt lat="40.7716443" lon="14.8565353"><ele>718.5</ele><time>2026-05-01T09:56:02.984Z</time></trkpt><trkpt lat="40.7715256" lon="14.8565013"><ele>714.25</ele><time>2026-05-01T09:56:03.97Z</time></trkpt><trkpt lat="40.7714112" lon="14.856478"><ele>710.0</ele><time>2026-05-01T09:56:04.947Z</time></trkpt><trkpt lat="40.7713036" lon="14.8564605"><ele>710.0</ele><time>2026-05-01T09:56:06.04Z</time></trkpt><trkpt lat="40.7712053" lon="14.856454"><ele>710.0</ele><time>2026-05-01T09:56:07.042Z</time></trkpt><trkpt lat="40.7711293" lon="14.8564511"><ele>710.0</ele><time>2026-05-01T09:56:08.035Z</time></trkpt><trkpt lat="40.771038" lon="14.8564517"><ele>710.0</ele><time>2026-05-01T09:56:09.971Z</time></trkpt><trkpt lat="40.7710887" lon="14.8565205"><ele>710.0</ele><time>2026-05-01T09:56:46.959Z</time></trkpt><trkpt lat="40.7711836" lon="14.8565498"><ele>710.0</ele><time>2026-05-01T09:56:48.959Z</time></trkpt><trkpt lat="40.7712509" lon="14.8565926"><ele>710.0</ele><time>2026-05-01T09:56:50.028Z</time></trkpt><trkpt lat="40.7713085" lon="14.856636"><ele>710.0</ele><time>2026-05-01T09:56:50.96Z</time></trkpt><trkpt lat="40.7713792" lon="14.856691"><ele>710.0</ele><time>2026-05-01T09:56:51.964Z</time></trkpt><trkpt lat="40.7714317" lon="14.8567381"><ele>710.0</ele><time>2026-05-01T09:56:52.979Z</time></trkpt><trkpt lat="40.771481" lon="14.8567983"><ele>710.0</ele><time>2026-05-01T09:56:53.968Z</time></trkpt><trkpt lat="40.7715254" lon="14.8568722"><ele>710.0</ele><time>2026-05-01T09:56:54.972Z</time></trkpt><trkpt lat="40.771574" lon="14.8569404"><ele>710.0</ele><time>2026-05-01T09:56:56.042Z</time></trkpt><trkpt lat="40.771671" lon="14.8570504"><ele>706.6666666666666</ele><time>2026-05-01T09:56:57.98Z</time></trkpt><trkpt lat="40.7717492" lon="14.8571402"><ele>703.3333333333333</ele><time>2026-05-01T09:56:59.946Z</time></trkpt><trkpt lat="40.7716785" lon="14.8570975"><ele>700.0</ele><time>2026-05-01T09:57:04.956Z</time></trkpt><trkpt lat="40.7716041" lon="14.8570602"><ele>696.6666666666666</ele><time>2026-05-01T09:57:05.944Z</time></trkpt><trkpt lat="40.7715203" lon="14.8570314"><ele>693.3333333333334</ele><time>2026-05-01T09:57:06.962Z</time></trkpt><trkpt lat="40.7714254" lon="14.857022"><ele>690.0</ele><time>2026-05-01T09:57:07.94Z</time></trkpt><trkpt lat="40.7713418" lon="14.857027"><ele>690.0</ele><time>2026-05-01T09:57:08.967Z</time></trkpt><trkpt lat="40.7712489" lon="14.8570285"><ele>690.0</ele><time>2026-05-01T09:57:09.966Z</time></trkpt><trkpt lat="40.7711705" lon="14.8570254"><ele>690.0</ele><time>2026-05-01T09:57:10.965Z</time></trkpt><trkpt lat="40.7711061" lon="14.8570177"><ele>690.0</ele><time>2026-05-01T09:57:11.96Z</time></trkpt><trkpt lat="40.7709859" lon="14.8570022"><ele>690.0</ele><time>2026-05-01T09:57:13.957Z</time></trkpt><trkpt lat="40.7709146" lon="14.8569784"><ele>690.0</ele><time>2026-05-01T09:57:15.961Z</time></trkpt><trkpt lat="40.7708504" lon="14.8569162"><ele>690.0</ele><time>2026-05-01T09:57:18.977Z</time></trkpt><trkpt lat="40.7708491" lon="14.8570149"><ele>690.0</ele><time>2026-05-01T09:57:21.967Z</time></trkpt><trkpt lat="40.7708747" lon="14.8571171"><ele>690.0</ele><time>2026-05-01T09:57:23.962Z</time></trkpt><trkpt lat="40.7710135" lon="14.857206"><ele>690.0</ele><time>2026-05-01T09:57:25.967Z</time></trkpt><trkpt lat="40.7710944" lon="14.8572587"><ele>690.0</ele><time>2026-05-01T09:57:26.949Z</time></trkpt><trkpt lat="40.7711741" lon="14.8573157"><ele>690.0</ele><time>2026-05-01T09:57:27.973Z</time></trkpt><trkpt lat="40.7712517" lon="14.857376"><ele>690.0</ele><time>2026-05-01T09:57:28.962Z</time></trkpt><trkpt lat="40.7713353" lon="14.8574254"><ele>690.0</ele><time>2026-05-01T09:57:29.959Z</time></trkpt><trkpt lat="40.7714078" lon="14.8574856"><ele>690.0</ele><time>2026-05-01T09:57:30.971Z</time></trkpt><trkpt lat="40.7714742" lon="14.8575524"><ele>690.0</ele><time>2026-05-01T09:57:31.971Z</time></trkpt><trkpt lat="40.7715328" lon="14.8576747"><ele>687.0</ele><time>2026-05-01T09:57:33.967Z</time></trkpt><trkpt lat="40.7715505" lon="14.8577688"><ele>684.0</ele><time>2026-05-01T09:57:34.96Z</time></trkpt><trkpt lat="40.7715648" lon="14.8578704"><ele>681.0</ele><time>2026-05-01T09:57:35.959Z</time></trkpt><trkpt lat="40.7715719" lon="14.8579652"><ele>678.0</ele><time>2026-05-01T09:57:36.968Z</time></trkpt><trkpt lat="40.7715867" lon="14.8580543"><ele>675.0</ele><time>2026-05-01T09:57:37.975Z</time></trkpt><trkpt lat="40.7716028" lon="14.8581414"><ele>672.0</ele><time>2026-05-01T09:57:38.969Z</time></trkpt><trkpt lat="40.7716212" lon="14.8582325"><ele>669.0</ele><time>2026-05-01T09:57:39.976Z</time></trkpt><trkpt lat="40.7716647" lon="14.8583264"><ele>669.0</ele><time>2026-05-01T09:57:40.97Z</time></trkpt><trkpt lat="40.7717295" lon="14.858437"><ele>669.0</ele><time>2026-05-01T09:57:41.949Z</time></trkpt><trkpt lat="40.7717826" lon="14.8585335"><ele>669.0</ele><time>2026-05-01T09:57:42.97Z</time></trkpt><trkpt lat="40.7718216" lon="14.8586296"><ele>669.0</ele><time>2026-05-01T09:57:43.952Z</time></trkpt><trkpt lat="40.7718384" lon="14.8587184"><ele>669.0</ele><time>2026-05-01T09:57:44.965Z</time></trkpt><trkpt lat="40.7718406" lon="14.8588025"><ele>669.0</ele><time>2026-05-01T09:57:45.959Z</time></trkpt><trkpt lat="40.7718356" lon="14.8589598"><ele>665.3333333333334</ele><time>2026-05-01T09:57:47.969Z</time></trkpt><trkpt lat="40.7718247" lon="14.8590469"><ele>661.6666666666666</ele><time>2026-05-01T09:57:48.967Z</time></trkpt><trkpt lat="40.7718036" lon="14.8592118"><ele>658.0</ele><time>2026-05-01T09:57:50.975Z</time></trkpt><trkpt lat="40.7717868" lon="14.8593023"><ele>654.3333333333333</ele><time>2026-05-01T09:57:51.962Z</time></trkpt><trkpt lat="40.7717664" lon="14.8593952"><ele>650.6666666666666</ele><time>2026-05-01T09:57:52.965Z</time></trkpt><trkpt lat="40.7717499" lon="14.8594896"><ele>647.0</ele><time>2026-05-01T09:57:53.969Z</time></trkpt><trkpt lat="40.7717367" lon="14.8595864"><ele>646.1666666666666</ele><time>2026-05-01T09:57:54.964Z</time></trkpt><trkpt lat="40.7717334" lon="14.8596807"><ele>645.3333333333333</ele><time>2026-05-01T09:57:55.964Z</time></trkpt><trkpt lat="40.7717404" lon="14.8597822"><ele>644.5</ele><time>2026-05-01T09:57:56.963Z</time></trkpt><trkpt lat="40.7717518" lon="14.859883"><ele>643.6666666666666</ele><time>2026-05-01T09:57:57.962Z</time></trkpt><trkpt lat="40.7717527" lon="14.8599964"><ele>642.8333333333334</ele><time>2026-05-01T09:57:58.959Z</time></trkpt><trkpt lat="40.7717423" lon="14.860103"><ele>642.0</ele><time>2026-05-01T09:57:59.971Z</time></trkpt><trkpt lat="40.7717436" lon="14.8602051"><ele>642.0</ele><time>2026-05-01T09:58:01.035Z</time></trkpt><trkpt lat="40.7717381" lon="14.8603014"><ele>642.0</ele><time>2026-05-01T09:58:02.016Z</time></trkpt><trkpt lat="40.7717252" lon="14.8603992"><ele>642.0</ele><time>2026-05-01T09:58:03.015Z</time></trkpt><trkpt lat="40.7717118" lon="14.8605044"><ele>642.0</ele><time>2026-05-01T09:58:03.96Z</time></trkpt><trkpt lat="40.7717083" lon="14.8606343"><ele>642.0</ele><time>2026-05-01T09:58:04.963Z</time></trkpt><trkpt lat="40.7717037" lon="14.8607676"><ele>642.0</ele><time>2026-05-01T09:58:05.997Z</time></trkpt><trkpt lat="40.7716998" lon="14.8608863"><ele>645.0</ele><time>2026-05-01T09:58:07.066Z</time></trkpt><trkpt lat="40.7716946" lon="14.8609808"><ele>648.0</ele><time>2026-05-01T09:58:08.04Z</time></trkpt><trkpt lat="40.7716971" lon="14.8610655"><ele>651.0</ele><time>2026-05-01T09:58:08.96Z</time></trkpt><trkpt lat="40.7716987" lon="14.8611625"><ele>654.0</ele><time>2026-05-01T09:58:10.942Z</time></trkpt><trkpt lat="40.7716229" lon="14.8611826"><ele>657.0</ele><time>2026-05-01T09:58:16.966Z</time></trkpt><trkpt lat="40.7715081" lon="14.8611122"><ele>660.0</ele><time>2026-05-01T09:58:18.977Z</time></trkpt><trkpt lat="40.7714547" lon="14.8610651"><ele>660.0</ele><time>2026-05-01T09:58:20.024Z</time></trkpt><trkpt lat="40.7713936" lon="14.8610022"><ele>660.0</ele><time>2026-05-01T09:58:21.028Z</time></trkpt><trkpt lat="40.7713415" lon="14.8609427"><ele>660.0</ele><time>2026-05-01T09:58:22.052Z</time></trkpt><trkpt lat="40.7713002" lon="14.8608759"><ele>660.0</ele><time>2026-05-01T09:58:22.976Z</time></trkpt><trkpt lat="40.771255" lon="14.86081"><ele>660.0</ele><time>2026-05-01T09:58:23.977Z</time></trkpt><trkpt lat="40.7711783" lon="14.8607143"><ele>660.0</ele><time>2026-05-01T09:58:25.975Z</time></trkpt><trkpt lat="40.7710716" lon="14.8606545"><ele>653.4</ele><time>2026-05-01T09:58:27.983Z</time></trkpt><trkpt lat="40.7709416" lon="14.8606367"><ele>646.8</ele><time>2026-05-01T09:58:29.973Z</time></trkpt><trkpt lat="40.7708743" lon="14.8606573"><ele>640.2</ele><time>2026-05-01T09:58:30.982Z</time></trkpt><trkpt lat="40.7708005" lon="14.8607013"><ele>633.6</ele><time>2026-05-01T09:58:31.973Z</time></trkpt><trkpt lat="40.7707263" lon="14.8607591"><ele>627.0</ele><time>2026-05-01T09:58:32.976Z</time></trkpt><trkpt lat="40.7706557" lon="14.8606718"><ele>627.0</ele><time>2026-05-01T09:58:37.973Z</time></trkpt><trkpt lat="40.770603" lon="14.8605529"><ele>627.0</ele><time>2026-05-01T09:58:40.045Z</time></trkpt><trkpt lat="40.7705482" lon="14.8605029"><ele>627.0</ele><time>2026-05-01T09:58:40.988Z</time></trkpt><trkpt lat="40.770489" lon="14.8604719"><ele>627.0</ele><time>2026-05-01T09:58:41.969Z</time></trkpt><trkpt lat="40.7704202" lon="14.860428"><ele>627.0</ele><time>2026-05-01T09:58:42.973Z</time></trkpt><trkpt lat="40.7703327" lon="14.8603673"><ele>627.0</ele><time>2026-05-01T09:58:43.964Z</time></trkpt><trkpt lat="40.7702466" lon="14.8602902"><ele>629.3333333333334</ele><time>2026-05-01T09:58:44.963Z</time></trkpt><trkpt lat="40.7701751" lon="14.8602187"><ele>631.6666666666666</ele><time>2026-05-01T09:58:45.971Z</time></trkpt><trkpt lat="40.7701059" lon="14.8601519"><ele>634.0</ele><time>2026-05-01T09:58:46.957Z</time></trkpt><trkpt lat="40.7700326" lon="14.8601022"><ele>636.3333333333333</ele><time>2026-05-01T09:58:47.952Z</time></trkpt><trkpt lat="40.7699573" lon="14.8600647"><ele>638.6666666666666</ele><time>2026-05-01T09:58:48.959Z</time></trkpt><trkpt lat="40.7698956" lon="14.8600389"><ele>641.0</ele><time>2026-05-01T09:58:49.954Z</time></trkpt><trkpt lat="40.7698164" lon="14.8600028"><ele>635.0</ele><time>2026-05-01T09:58:50.962Z</time></trkpt><trkpt lat="40.7697296" lon="14.8599527"><ele>629.0</ele><time>2026-05-01T09:58:51.958Z</time></trkpt><trkpt lat="40.7696671" lon="14.8599341"><ele>623.0</ele><time>2026-05-01T09:58:52.963Z</time></trkpt><trkpt lat="40.7695788" lon="14.859929"><ele>617.0</ele><time>2026-05-01T09:58:54.964Z</time></trkpt><trkpt lat="40.7694893" lon="14.8599144"><ele>611.0</ele><time>2026-05-01T09:58:57.979Z</time></trkpt><trkpt lat="40.7695607" lon="14.8598859"><ele>605.0</ele><time>2026-05-01T09:59:03.972Z</time></trkpt><trkpt lat="40.7696305" lon="14.8598735"><ele>605.0</ele><time>2026-05-01T09:59:04.971Z</time></trkpt><trkpt lat="40.7696965" lon="14.8598669"><ele>605.0</ele><time>2026-05-01T09:59:05.966Z</time></trkpt><trkpt lat="40.7697735" lon="14.8598609"><ele>605.0</ele><time>2026-05-01T09:59:06.964Z</time></trkpt><trkpt lat="40.7698479" lon="14.859848"><ele>605.0</ele><time>2026-05-01T09:59:07.96Z</time></trkpt><trkpt lat="40.7699244" lon="14.8598216"><ele>605.0</ele><time>2026-05-01T09:59:08.96Z</time></trkpt><trkpt lat="40.7699946" lon="14.8598083"><ele>605.0</ele><time>2026-05-01T09:59:09.964Z</time></trkpt><trkpt lat="40.7700654" lon="14.8598172"><ele>605.0</ele><time>2026-05-01T09:59:10.969Z</time></trkpt><trkpt lat="40.7701432" lon="14.8598424"><ele>605.1666666666666</ele><time>2026-05-01T09:59:11.972Z</time></trkpt><trkpt lat="40.7702317" lon="14.8598637"><ele>605.3333333333333</ele><time>2026-05-01T09:59:12.96Z</time></trkpt><trkpt lat="40.7703146" lon="14.8598798"><ele>605.5</ele><time>2026-05-01T09:59:13.971Z</time></trkpt><trkpt lat="40.7703992" lon="14.8598756"><ele>605.6666666666666</ele><time>2026-05-01T09:59:14.969Z</time></trkpt><trkpt lat="40.7704793" lon="14.8598757"><ele>605.8333333333334</ele><time>2026-05-01T09:59:15.966Z</time></trkpt><trkpt lat="40.7705792" lon="14.8599254"><ele>606.0</ele><time>2026-05-01T09:59:17.963Z</time></trkpt><trkpt lat="40.770568" lon="14.859798"><ele>606.0</ele><time>2026-05-01T09:59:20.972Z</time></trkpt><trkpt lat="40.7705093" lon="14.8597166"><ele>606.0</ele><time>2026-05-01T09:59:23.037Z</time></trkpt><trkpt lat="40.770377" lon="14.8596924"><ele>606.0</ele><time>2026-05-01T09:59:24.965Z</time></trkpt><trkpt lat="40.7702949" lon="14.8596478"><ele>606.0</ele><time>2026-05-01T09:59:26.966Z</time></trkpt><trkpt lat="40.7703545" lon="14.8595955"><ele>606.0</ele><time>2026-05-01T09:59:31.05Z</time></trkpt><trkpt lat="40.7704498" lon="14.8595262"><ele>606.0</ele><time>2026-05-01T09:59:32.964Z</time></trkpt><trkpt lat="40.7705102" lon="14.8594778"><ele>606.0</ele><time>2026-05-01T09:59:34.964Z</time></trkpt><trkpt lat="40.7704623" lon="14.8594113"><ele>606.0</ele><time>2026-05-01T09:59:37.963Z</time></trkpt><trkpt lat="40.7703987" lon="14.8593508"><ele>606.0</ele><time>2026-05-01T09:59:40.972Z</time></trkpt><trkpt lat="40.7703507" lon="14.8592851"><ele>606.0</ele><time>2026-05-01T09:59:43.954Z</time></trkpt><trkpt lat="40.7703408" lon="14.8591835"><ele>606.0</ele><time>2026-05-01T09:59:51.971Z</time></trkpt><trkpt lat="40.770271" lon="14.8591302"><ele>606.0</ele><time>2026-05-01T09:59:59.969Z</time></trkpt><trkpt lat="40.7702092" lon="14.8590945"><ele>602.2857142857143</ele><time>2026-05-01T10:00:03.969Z</time></trkpt><trkpt lat="40.7701384" lon="14.8590716"><ele>598.5714285714286</ele><time>2026-05-01T10:00:17.032Z</time></trkpt><trkpt lat="40.7700592" lon="14.8590807"><ele>594.8571428571429</ele><time>2026-05-01T10:00:24.965Z</time></trkpt><trkpt lat="40.7700021" lon="14.8591328"><ele>591.1428571428571</ele><time>2026-05-01T10:00:28.97Z</time></trkpt><trkpt lat="40.7699444" lon="14.8590791"><ele>587.4285714285714</ele><time>2026-05-01T10:00:33.964Z</time></trkpt><trkpt lat="40.7698929" lon="14.8590224"><ele>583.7142857142858</ele><time>2026-05-01T10:00:36.963Z</time></trkpt><trkpt lat="40.7698318" lon="14.8589971"><ele>580.0</ele><time>2026-05-01T10:00:38.965Z</time></trkpt><trkpt lat="40.7697555" lon="14.8589756"><ele>580.0</ele><time>2026-05-01T10:00:40.964Z</time></trkpt><trkpt lat="40.7696792" lon="14.8589525"><ele>580.0</ele><time>2026-05-01T10:00:42.969Z</time></trkpt><trkpt lat="40.7695997" lon="14.8589368"><ele>580.0</ele><time>2026-05-01T10:00:45.031Z</time></trkpt><trkpt lat="40.7695312" lon="14.858921"><ele>580.0</ele><time>2026-05-01T10:00:47.032Z</time></trkpt><trkpt lat="40.7694832" lon="14.8588652"><ele>580.0</ele><time>2026-05-01T10:00:48.961Z</time></trkpt><trkpt lat="40.7694255" lon="14.8588318"><ele>580.0</ele><time>2026-05-01T10:00:52.967Z</time></trkpt><trkpt lat="40.7693656" lon="14.8588025"><ele>580.0</ele><time>2026-05-01T10:00:56.977Z</time></trkpt><trkpt lat="40.7692611" lon="14.8588045"><ele>578.3333333333334</ele><time>2026-05-01T10:01:02.972Z</time></trkpt><trkpt lat="40.7691802" lon="14.8588122"><ele>576.6666666666667</ele><time>2026-05-01T10:01:05.983Z</time></trkpt><trkpt lat="40.7691077" lon="14.8588355"><ele>575.0</ele><time>2026-05-01T10:01:07.97Z</time></trkpt><trkpt lat="40.769039" lon="14.8588816"><ele>573.3333333333334</ele><time>2026-05-01T10:01:09.979Z</time></trkpt><trkpt lat="40.7689608" lon="14.8589451"><ele>571.6666666666666</ele><time>2026-05-01T10:01:11.98Z</time></trkpt><trkpt lat="40.7688861" lon="14.8590125"><ele>570.0</ele><time>2026-05-01T10:01:13.979Z</time></trkpt><trkpt lat="40.7688207" lon="14.8590946"><ele>570.0</ele><time>2026-05-01T10:01:15.978Z</time></trkpt><trkpt lat="40.7687551" lon="14.8591749"><ele>570.0</ele><time>2026-05-01T10:01:17.972Z</time></trkpt><trkpt lat="40.768703" lon="14.8592954"><ele>570.0</ele><time>2026-05-01T10:01:20.084Z</time></trkpt><trkpt lat="40.7686595" lon="14.8594121"><ele>570.0</ele><time>2026-05-01T10:01:21.98Z</time></trkpt><trkpt lat="40.7686033" lon="14.8595258"><ele>570.0</ele><time>2026-05-01T10:01:23.977Z</time></trkpt><trkpt lat="40.7685703" lon="14.8596624"><ele>569.8</ele><time>2026-05-01T10:01:25.954Z</time></trkpt><trkpt lat="40.7685341" lon="14.8597724"><ele>569.6</ele><time>2026-05-01T10:01:27.981Z</time></trkpt><trkpt lat="40.7684901" lon="14.859876"><ele>569.4</ele><time>2026-05-01T10:01:30.064Z</time></trkpt><trkpt lat="40.768435" lon="14.8599937"><ele>569.2</ele><time>2026-05-01T10:01:32.022Z</time></trkpt><trkpt lat="40.7683704" lon="14.8600928"><ele>569.0</ele><time>2026-05-01T10:01:33.963Z</time></trkpt><trkpt lat="40.768299" lon="14.8601745"><ele>569.0</ele><time>2026-05-01T10:01:35.972Z</time></trkpt><trkpt lat="40.7682404" lon="14.8603026"><ele>569.0</ele><time>2026-05-01T10:01:37.972Z</time></trkpt><trkpt lat="40.7681799" lon="14.8604351"><ele>569.0</ele><time>2026-05-01T10:01:40.111Z</time></trkpt><trkpt lat="40.7681236" lon="14.8605661"><ele>569.0</ele><time>2026-05-01T10:01:41.974Z</time></trkpt><trkpt lat="40.7680671" lon="14.8606627"><ele>569.0</ele><time>2026-05-01T10:01:43.972Z</time></trkpt><trkpt lat="40.7680164" lon="14.8607347"><ele>569.0</ele><time>2026-05-01T10:01:44.982Z</time></trkpt><trkpt lat="40.7679652" lon="14.8608092"><ele>569.0</ele><time>2026-05-01T10:01:45.974Z</time></trkpt><trkpt lat="40.7679203" lon="14.8608785"><ele>569.0</ele><time>2026-05-01T10:01:46.965Z</time></trkpt><trkpt lat="40.7678605" lon="14.8609791"><ele>569.0</ele><time>2026-05-01T10:01:48.961Z</time></trkpt><trkpt lat="40.7678446" lon="14.8611113"><ele>569.0</ele><time>2026-05-01T10:01:51.021Z</time></trkpt><trkpt lat="40.7678061" lon="14.8612338"><ele>569.0</ele><time>2026-05-01T10:01:52.972Z</time></trkpt><trkpt lat="40.767744" lon="14.8612942"><ele>565.8333333333333</ele><time>2026-05-01T10:01:54.963Z</time></trkpt><trkpt lat="40.7676367" lon="14.8613509"><ele>562.6666666666666</ele><time>2026-05-01T10:01:56.968Z</time></trkpt><trkpt lat="40.7675667" lon="14.8614001"><ele>559.5</ele><time>2026-05-01T10:01:58.012Z</time></trkpt><trkpt lat="40.7674954" lon="14.8614626"><ele>556.3333333333334</ele><time>2026-05-01T10:01:59.039Z</time></trkpt><trkpt lat="40.7674276" lon="14.8615174"><ele>553.1666666666667</ele><time>2026-05-01T10:02:00.032Z</time></trkpt><trkpt lat="40.7673507" lon="14.8615489"><ele>550.0</ele><time>2026-05-01T10:02:01.948Z</time></trkpt><trkpt lat="40.7672616" lon="14.8615464"><ele>550.0</ele><time>2026-05-01T10:02:04.97Z</time></trkpt><trkpt lat="40.767193" lon="14.8615887"><ele>550.0</ele><time>2026-05-01T10:02:06.961Z</time></trkpt><trkpt lat="40.7671157" lon="14.8616358"><ele>550.0</ele><time>2026-05-01T10:02:08.943Z</time></trkpt><trkpt lat="40.7670471" lon="14.8616545"><ele>550.0</ele><time>2026-05-01T10:02:09.962Z</time></trkpt><trkpt lat="40.7669711" lon="14.8616743"><ele>550.0</ele><time>2026-05-01T10:02:10.984Z</time></trkpt><trkpt lat="40.766897" lon="14.8616601"><ele>550.0</ele><time>2026-05-01T10:02:12.024Z</time></trkpt><trkpt lat="40.7668159" lon="14.8616462"><ele>546.0</ele><time>2026-05-01T10:02:12.966Z</time></trkpt><trkpt lat="40.7667189" lon="14.8616557"><ele>542.0</ele><time>2026-05-01T10:02:13.957Z</time></trkpt><trkpt lat="40.7666359" lon="14.8616527"><ele>538.0</ele><time>2026-05-01T10:02:14.963Z</time></trkpt><trkpt lat="40.7665149" lon="14.861647"><ele>534.0</ele><time>2026-05-01T10:02:15.962Z</time></trkpt><trkpt lat="40.7663854" lon="14.8616363"><ele>530.0</ele><time>2026-05-01T10:02:16.956Z</time></trkpt><trkpt lat="40.7662827" lon="14.8616384"><ele>530.0</ele><time>2026-05-01T10:02:17.963Z</time></trkpt><trkpt lat="40.7661979" lon="14.8616645"><ele>530.0</ele><time>2026-05-01T10:02:18.968Z</time></trkpt><trkpt lat="40.7661094" lon="14.8616933"><ele>530.0</ele><time>2026-05-01T10:02:19.962Z</time></trkpt><trkpt lat="40.7660315" lon="14.8617307"><ele>530.0</ele><time>2026-05-01T10:02:21.025Z</time></trkpt><trkpt lat="40.7659579" lon="14.8617604"><ele>530.0</ele><time>2026-05-01T10:02:21.965Z</time></trkpt><trkpt lat="40.7658803" lon="14.8618001"><ele>530.0</ele><time>2026-05-01T10:02:22.953Z</time></trkpt><trkpt lat="40.7658161" lon="14.8618586"><ele>534.5</ele><time>2026-05-01T10:02:23.967Z</time></trkpt><trkpt lat="40.7657595" lon="14.8619152"><ele>539.0</ele><time>2026-05-01T10:02:24.971Z</time></trkpt><trkpt lat="40.7656987" lon="14.8619793"><ele>543.5</ele><time>2026-05-01T10:02:25.969Z</time></trkpt><trkpt lat="40.7656219" lon="14.8620446"><ele>548.0</ele><time>2026-05-01T10:02:27.01Z</time></trkpt><trkpt lat="40.765543" lon="14.8620795"><ele>552.5</ele><time>2026-05-01T10:02:27.964Z</time></trkpt><trkpt lat="40.7654647" lon="14.8621107"><ele>557.0</ele><time>2026-05-01T10:02:28.97Z</time></trkpt><trkpt lat="40.7653787" lon="14.862159"><ele>557.0</ele><time>2026-05-01T10:02:29.96Z</time></trkpt><trkpt lat="40.7653164" lon="14.8622132"><ele>557.0</ele><time>2026-05-01T10:02:31.053Z</time></trkpt><trkpt lat="40.765216" lon="14.8622984"><ele>557.0</ele><time>2026-05-01T10:02:32.971Z</time></trkpt><trkpt lat="40.7651596" lon="14.8623614"><ele>557.0</ele><time>2026-05-01T10:02:33.971Z</time></trkpt><trkpt lat="40.7651039" lon="14.862434"><ele>557.0</ele><time>2026-05-01T10:02:34.967Z</time></trkpt><trkpt lat="40.7650469" lon="14.8625271"><ele>557.0</ele><time>2026-05-01T10:02:36.975Z</time></trkpt><trkpt lat="40.764953" lon="14.8625765"><ele>553.5</ele><time>2026-05-01T10:02:39.974Z</time></trkpt><trkpt lat="40.7648529" lon="14.8626724"><ele>550.0</ele><time>2026-05-01T10:02:41.974Z</time></trkpt><trkpt lat="40.764805" lon="14.8627399"><ele>546.5</ele><time>2026-05-01T10:02:42.961Z</time></trkpt><trkpt lat="40.7647563" lon="14.8628034"><ele>543.0</ele><time>2026-05-01T10:02:43.961Z</time></trkpt><trkpt lat="40.7647076" lon="14.8628703"><ele>539.5</ele><time>2026-05-01T10:02:44.97Z</time></trkpt><trkpt lat="40.7646593" lon="14.8629377"><ele>536.0</ele><time>2026-05-01T10:02:45.951Z</time></trkpt><trkpt lat="40.7646151" lon="14.86301"><ele>536.0</ele><time>2026-05-01T10:02:46.965Z</time></trkpt><trkpt lat="40.7645868" lon="14.8630904"><ele>536.0</ele><time>2026-05-01T10:02:47.945Z</time></trkpt><trkpt lat="40.7645672" lon="14.8631697"><ele>536.0</ele><time>2026-05-01T10:02:48.973Z</time></trkpt><trkpt lat="40.7645428" lon="14.8632916"><ele>536.0</ele><time>2026-05-01T10:02:50.951Z</time></trkpt><trkpt lat="40.7645294" lon="14.8634203"><ele>536.0</ele><time>2026-05-01T10:02:52.974Z</time></trkpt><trkpt lat="40.7645503" lon="14.8635409"><ele>536.0</ele><time>2026-05-01T10:02:53.965Z</time></trkpt><trkpt lat="40.7645793" lon="14.8636626"><ele>534.1666666666666</ele><time>2026-05-01T10:02:54.968Z</time></trkpt><trkpt lat="40.7646048" lon="14.8637848"><ele>532.3333333333333</ele><time>2026-05-01T10:02:55.972Z</time></trkpt><trkpt lat="40.7646252" lon="14.8639002"><ele>530.5</ele><time>2026-05-01T10:02:56.97Z</time></trkpt><trkpt lat="40.7646328" lon="14.8640231"><ele>528.6666666666666</ele><time>2026-05-01T10:02:57.972Z</time></trkpt><trkpt lat="40.7646352" lon="14.8641295"><ele>526.8333333333334</ele><time>2026-05-01T10:02:58.968Z</time></trkpt><trkpt lat="40.764653" lon="14.8642177"><ele>525.0</ele><time>2026-05-01T10:02:59.955Z</time></trkpt><trkpt lat="40.7647035" lon="14.8643217"><ele>521.7142857142857</ele><time>2026-05-01T10:03:01.973Z</time></trkpt><trkpt lat="40.7647506" lon="14.8644139"><ele>518.4285714285714</ele><time>2026-05-01T10:03:03.971Z</time></trkpt><trkpt lat="40.7648055" lon="14.8644941"><ele>515.1428571428571</ele><time>2026-05-01T10:03:07.015Z</time></trkpt><trkpt lat="40.7648655" lon="14.8645303"><ele>511.85714285714283</ele><time>2026-05-01T10:03:08.979Z</time></trkpt><trkpt lat="40.764907" lon="14.8646188"><ele>508.57142857142856</ele><time>2026-05-01T10:03:11.965Z</time></trkpt><trkpt lat="40.7649218" lon="14.8647011"><ele>505.2857142857142</ele><time>2026-05-01T10:03:13.978Z</time></trkpt><trkpt lat="40.7649411" lon="14.8647853"><ele>501.99999999999994</ele><time>2026-05-01T10:03:15.972Z</time></trkpt><trkpt lat="40.7649519" lon="14.8648962"><ele>502.00000000000006</ele><time>2026-05-01T10:03:18.978Z</time></trkpt><trkpt lat="40.7650008" lon="14.8649785"><ele>502.0</ele><time>2026-05-01T10:03:21.958Z</time></trkpt><trkpt lat="40.7650423" lon="14.8650425"><ele>502.0</ele><time>2026-05-01T10:03:23.973Z</time></trkpt><trkpt lat="40.7651177" lon="14.8651056"><ele>502.0</ele><time>2026-05-01T10:03:25.968Z</time></trkpt><trkpt lat="40.7651814" lon="14.8651319"><ele>502.00000000000006</ele><time>2026-05-01T10:03:27.01Z</time></trkpt><trkpt lat="40.7652917" lon="14.8651881"><ele>502.0</ele><time>2026-05-01T10:03:28.975Z</time></trkpt><trkpt lat="40.7654046" lon="14.8652225"><ele>502.00000000000006</ele><time>2026-05-01T10:03:30.974Z</time></trkpt><trkpt lat="40.7654935" lon="14.8652369"><ele>502.0</ele><time>2026-05-01T10:03:32.974Z</time></trkpt><trkpt lat="40.7655689" lon="14.8653044"><ele>502.0</ele><time>2026-05-01T10:03:36.025Z</time></trkpt><trkpt lat="40.7655837" lon="14.8654254"><ele>502.0</ele><time>2026-05-01T10:03:39.974Z</time></trkpt><trkpt lat="40.7655829" lon="14.8655255"><ele>502.00000000000006</ele><time>2026-05-01T10:03:41.97Z</time></trkpt><trkpt lat="40.7655727" lon="14.865631"><ele>502.0</ele><time>2026-05-01T10:03:43.976Z</time></trkpt><trkpt lat="40.7655885" lon="14.8657441"><ele>502.00000000000006</ele><time>2026-05-01T10:03:45.971Z</time></trkpt><trkpt lat="40.7656441" lon="14.8658742"><ele>502.0</ele><time>2026-05-01T10:03:47.967Z</time></trkpt><trkpt lat="40.7656884" lon="14.8659365"><ele>502.0</ele><time>2026-05-01T10:03:48.975Z</time></trkpt><trkpt lat="40.765738" lon="14.8659878"><ele>502.0</ele><time>2026-05-01T10:03:49.97Z</time></trkpt><trkpt lat="40.765819" lon="14.8660475"><ele>502.00000000000006</ele><time>2026-05-01T10:03:50.993Z</time></trkpt><trkpt lat="40.7658731" lon="14.8660926"><ele>502.0</ele><time>2026-05-01T10:03:51.985Z</time></trkpt><trkpt lat="40.7659853" lon="14.8661682"><ele>502.50000000000006</ele><time>2026-05-01T10:03:53.972Z</time></trkpt><trkpt lat="40.7660565" lon="14.866191"><ele>503.0</ele><time>2026-05-01T10:03:54.969Z</time></trkpt><trkpt lat="40.7661457" lon="14.8662045"><ele>503.5</ele><time>2026-05-01T10:03:55.962Z</time></trkpt><trkpt lat="40.7662357" lon="14.8661692"><ele>504.0</ele><time>2026-05-01T10:03:57.959Z</time></trkpt><trkpt lat="40.7662989" lon="14.8661706"><ele>504.50000000000006</ele><time>2026-05-01T10:03:59.949Z</time></trkpt><trkpt lat="40.7663511" lon="14.8662202"><ele>505.0</ele><time>2026-05-01T10:04:01.965Z</time></trkpt><trkpt lat="40.7664151" lon="14.8662895"><ele>505.0</ele><time>2026-05-01T10:04:03.974Z</time></trkpt><trkpt lat="40.7665026" lon="14.866328"><ele>505.0</ele><time>2026-05-01T10:04:05.971Z</time></trkpt><trkpt lat="40.766617" lon="14.8663247"><ele>505.0</ele><time>2026-05-01T10:04:07.948Z</time></trkpt><trkpt lat="40.766703" lon="14.8663269"><ele>505.0</ele><time>2026-05-01T10:04:10.978Z</time></trkpt><trkpt lat="40.7667552" lon="14.8663759"><ele>505.0</ele><time>2026-05-01T10:04:12.973Z</time></trkpt><trkpt lat="40.7668519" lon="14.8664274"><ele>509.8</ele><time>2026-05-01T10:04:15.041Z</time></trkpt><trkpt lat="40.7669627" lon="14.8664591"><ele>514.6</ele><time>2026-05-01T10:04:17.035Z</time></trkpt><trkpt lat="40.7670411" lon="14.8664756"><ele>519.4</ele><time>2026-05-01T10:04:19.958Z</time></trkpt><trkpt lat="40.7670159" lon="14.8665703"><ele>524.2</ele><time>2026-05-01T10:04:22.971Z</time></trkpt><trkpt lat="40.7669559" lon="14.8667258"><ele>529.0</ele><time>2026-05-01T10:04:25.061Z</time></trkpt><trkpt lat="40.766913" lon="14.8667964"><ele>530.1666666666667</ele><time>2026-05-01T10:04:25.975Z</time></trkpt><trkpt lat="40.7668655" lon="14.8668633"><ele>531.3333333333334</ele><time>2026-05-01T10:04:26.964Z</time></trkpt><trkpt lat="40.7668141" lon="14.8669196"><ele>532.5</ele><time>2026-05-01T10:04:27.961Z</time></trkpt><trkpt lat="40.7667527" lon="14.8669818"><ele>533.6666666666666</ele><time>2026-05-01T10:04:28.969Z</time></trkpt><trkpt lat="40.7666995" lon="14.867057"><ele>534.8333333333333</ele><time>2026-05-01T10:04:29.968Z</time></trkpt><trkpt lat="40.7666455" lon="14.8671382"><ele>536.0</ele><time>2026-05-01T10:04:30.968Z</time></trkpt><trkpt lat="40.7665742" lon="14.8672606"><ele>530.0</ele><time>2026-05-01T10:04:32.943Z</time></trkpt><trkpt lat="40.766577" lon="14.8673915"><ele>524.0</ele><time>2026-05-01T10:04:34.956Z</time></trkpt><trkpt lat="40.7666007" lon="14.8675034"><ele>518.0</ele><time>2026-05-01T10:04:36.975Z</time></trkpt><trkpt lat="40.7666287" lon="14.8676251"><ele>512.0</ele><time>2026-05-01T10:04:38.976Z</time></trkpt><trkpt lat="40.7666939" lon="14.8676994"><ele>506.0</ele><time>2026-05-01T10:04:40.972Z</time></trkpt><trkpt lat="40.766739" lon="14.8677942"><ele>503.99999999999994</ele><time>2026-05-01T10:04:43.968Z</time></trkpt><trkpt lat="40.7666733" lon="14.8677864"><ele>502.0</ele><time>2026-05-01T10:04:50.975Z</time></trkpt><trkpt lat="40.7665995" lon="14.8677655"><ele>500.0</ele><time>2026-05-01T10:04:52.961Z</time></trkpt><trkpt lat="40.766472" lon="14.8677473"><ele>498.0</ele><time>2026-05-01T10:04:54.977Z</time></trkpt><trkpt lat="40.7664083" lon="14.8677364"><ele>495.99999999999994</ele><time>2026-05-01T10:04:55.978Z</time></trkpt><trkpt lat="40.7663453" lon="14.8677241"><ele>494.0</ele><time>2026-05-01T10:04:57.092Z</time></trkpt><trkpt lat="40.7662365" lon="14.8676982"><ele>493.99999999999994</ele><time>2026-05-01T10:04:58.966Z</time></trkpt><trkpt lat="40.7661772" lon="14.8677385"><ele>494.0</ele><time>2026-05-01T10:05:01.98Z</time></trkpt><trkpt lat="40.7661972" lon="14.8678288"><ele>494.0</ele><time>2026-05-01T10:05:03.979Z</time></trkpt><trkpt lat="40.7662104" lon="14.8679382"><ele>494.0</ele><time>2026-05-01T10:05:05.961Z</time></trkpt><trkpt lat="40.7662148" lon="14.868056"><ele>493.99999999999994</ele><time>2026-05-01T10:05:07.973Z</time></trkpt><trkpt lat="40.7662394" lon="14.8681849"><ele>494.0</ele><time>2026-05-01T10:05:09.971Z</time></trkpt><trkpt lat="40.766319" lon="14.8683276"><ele>493.99999999999994</ele><time>2026-05-01T10:05:11.978Z</time></trkpt><trkpt lat="40.7663768" lon="14.8684184"><ele>494.0</ele><time>2026-05-01T10:05:12.979Z</time></trkpt><trkpt lat="40.7664297" lon="14.8685082"><ele>494.0</ele><time>2026-05-01T10:05:13.992Z</time></trkpt><trkpt lat="40.7664843" lon="14.8685861"><ele>494.0</ele><time>2026-05-01T10:05:14.966Z</time></trkpt><trkpt lat="40.7665343" lon="14.8686716"><ele>493.99999999999994</ele><time>2026-05-01T10:05:16.024Z</time></trkpt><trkpt lat="40.7665961" lon="14.8687612"><ele>494.0</ele><time>2026-05-01T10:05:17.049Z</time></trkpt><trkpt lat="40.7666584" lon="14.8688387"><ele>493.66666666666663</ele><time>2026-05-01T10:05:17.971Z</time></trkpt><trkpt lat="40.7667341" lon="14.8689232"><ele>493.3333333333333</ele><time>2026-05-01T10:05:18.983Z</time></trkpt><trkpt lat="40.7667887" lon="14.8689747"><ele>493.0</ele><time>2026-05-01T10:05:19.982Z</time></trkpt><trkpt lat="40.7668135" lon="14.8690796"><ele>492.66666666666663</ele><time>2026-05-01T10:05:22.986Z</time></trkpt><trkpt lat="40.7668276" lon="14.8691639"><ele>492.3333333333333</ele><time>2026-05-01T10:05:25.973Z</time></trkpt><trkpt lat="40.7668737" lon="14.8692247"><ele>492.0</ele><time>2026-05-01T10:05:27.977Z</time></trkpt><trkpt lat="40.7669522" lon="14.8692811"><ele>491.5</ele><time>2026-05-01T10:05:31.046Z</time></trkpt><trkpt lat="40.766963" lon="14.869364"><ele>491.0</ele><time>2026-05-01T10:05:41.034Z</time></trkpt><trkpt lat="40.766944" lon="14.8694474"><ele>490.5</ele><time>2026-05-01T10:05:45.975Z</time></trkpt><trkpt lat="40.7668699" lon="14.869398"><ele>490.0</ele><time>2026-05-01T10:05:50.029Z</time></trkpt><trkpt lat="40.7667889" lon="14.8693925"><ele>489.5</ele><time>2026-05-01T10:05:52.953Z</time></trkpt><trkpt lat="40.7667031" lon="14.8693355"><ele>489.0</ele><time>2026-05-01T10:05:56.036Z</time></trkpt><trkpt lat="40.7666313" lon="14.869319"><ele>488.0</ele><time>2026-05-01T10:05:57.967Z</time></trkpt><trkpt lat="40.7665613" lon="14.8693151"><ele>487.0</ele><time>2026-05-01T10:05:59.969Z</time></trkpt><trkpt lat="40.7664747" lon="14.8693174"><ele>486.0</ele><time>2026-05-01T10:06:01.973Z</time></trkpt><trkpt lat="40.7663779" lon="14.8692689"><ele>485.0</ele><time>2026-05-01T10:06:03.971Z</time></trkpt><trkpt lat="40.7663166" lon="14.8692212"><ele>484.0</ele><time>2026-05-01T10:06:04.976Z</time></trkpt><trkpt lat="40.7662215" lon="14.8691118"><ele>481.83333333333337</ele><time>2026-05-01T10:06:06.978Z</time></trkpt><trkpt lat="40.7661602" lon="14.869051"><ele>479.6666666666667</ele><time>2026-05-01T10:06:07.975Z</time></trkpt><trkpt lat="40.7660991" lon="14.8689869"><ele>477.5</ele><time>2026-05-01T10:06:09.029Z</time></trkpt><trkpt lat="40.7660208" lon="14.868952"><ele>475.33333333333337</ele><time>2026-05-01T10:06:10.032Z</time></trkpt><trkpt lat="40.7659441" lon="14.8689364"><ele>473.1666666666667</ele><time>2026-05-01T10:06:11.027Z</time></trkpt><trkpt lat="40.7658617" lon="14.8689237"><ele>471.0</ele><time>2026-05-01T10:06:11.972Z</time></trkpt><trkpt lat="40.7657834" lon="14.868894"><ele>470.5</ele><time>2026-05-01T10:06:12.976Z</time></trkpt><trkpt lat="40.7657127" lon="14.8688413"><ele>470.0</ele><time>2026-05-01T10:06:13.975Z</time></trkpt><trkpt lat="40.7656296" lon="14.8687874"><ele>469.5</ele><time>2026-05-01T10:06:14.976Z</time></trkpt><trkpt lat="40.7655483" lon="14.8687465"><ele>469.0</ele><time>2026-05-01T10:06:15.977Z</time></trkpt><trkpt lat="40.7654715" lon="14.8687148"><ele>468.5</ele><time>2026-05-01T10:06:17.027Z</time></trkpt><trkpt lat="40.7653885" lon="14.8686875"><ele>468.0</ele><time>2026-05-01T10:06:17.973Z</time></trkpt><trkpt lat="40.7653013" lon="14.8686578"><ele>468.0</ele><time>2026-05-01T10:06:18.979Z</time></trkpt><trkpt lat="40.7652201" lon="14.8686367"><ele>467.99999999999994</ele><time>2026-05-01T10:06:19.983Z</time></trkpt><trkpt lat="40.765133" lon="14.8686089"><ele>467.99999999999994</ele><time>2026-05-01T10:06:20.975Z</time></trkpt><trkpt lat="40.7650456" lon="14.8685738"><ele>468.0</ele><time>2026-05-01T10:06:21.976Z</time></trkpt><trkpt lat="40.7649503" lon="14.8685372"><ele>468.0</ele><time>2026-05-01T10:06:22.983Z</time></trkpt><trkpt lat="40.7648614" lon="14.8684978"><ele>470.4</ele><time>2026-05-01T10:06:23.976Z</time></trkpt><trkpt lat="40.7647766" lon="14.8684653"><ele>472.79999999999995</ele><time>2026-05-01T10:06:24.955Z</time></trkpt><trkpt lat="40.7646792" lon="14.868456"><ele>475.2</ele><time>2026-05-01T10:06:26.046Z</time></trkpt><trkpt lat="40.7645689" lon="14.8684532"><ele>477.6</ele><time>2026-05-01T10:06:27.04Z</time></trkpt><trkpt lat="40.7644745" lon="14.8684417"><ele>480.0</ele><time>2026-05-01T10:06:27.977Z</time></trkpt><trkpt lat="40.7643914" lon="14.8684226"><ele>474.3333333333333</ele><time>2026-05-01T10:06:28.978Z</time></trkpt><trkpt lat="40.7643032" lon="14.8683868"><ele>468.66666666666663</ele><time>2026-05-01T10:06:29.972Z</time></trkpt><trkpt lat="40.7642155" lon="14.8683316"><ele>463.0</ele><time>2026-05-01T10:06:30.975Z</time></trkpt><trkpt lat="40.7641531" lon="14.8682733"><ele>457.3333333333333</ele><time>2026-05-01T10:06:31.963Z</time></trkpt><trkpt lat="40.7640873" lon="14.8681985"><ele>451.66666666666663</ele><time>2026-05-01T10:06:34.976Z</time></trkpt><trkpt lat="40.7640545" lon="14.8680827"><ele>446.0</ele><time>2026-05-01T10:06:36.972Z</time></trkpt><trkpt lat="40.764002" lon="14.8680093"><ele>446.0</ele><time>2026-05-01T10:06:38.974Z</time></trkpt><trkpt lat="40.7639605" lon="14.8678794"><ele>446.0</ele><time>2026-05-01T10:06:40.982Z</time></trkpt><trkpt lat="40.763943" lon="14.8677341"><ele>446.0</ele><time>2026-05-01T10:06:41.977Z</time></trkpt><trkpt lat="40.7639484" lon="14.8675798"><ele>446.0</ele><time>2026-05-01T10:06:42.97Z</time></trkpt><trkpt lat="40.7639371" lon="14.8674567"><ele>446.0</ele><time>2026-05-01T10:06:43.973Z</time></trkpt><trkpt lat="40.7639168" lon="14.8673422"><ele>443.99999999999994</ele><time>2026-05-01T10:06:44.95Z</time></trkpt><trkpt lat="40.7638866" lon="14.8672527"><ele>442.0</ele><time>2026-05-01T10:06:45.967Z</time></trkpt><trkpt lat="40.7638462" lon="14.8671804"><ele>440.0</ele><time>2026-05-01T10:06:46.962Z</time></trkpt><trkpt lat="40.7637861" lon="14.8671059"><ele>438.0</ele><time>2026-05-01T10:06:47.978Z</time></trkpt><trkpt lat="40.7637162" lon="14.8670507"><ele>435.99999999999994</ele><time>2026-05-01T10:06:48.979Z</time></trkpt><trkpt lat="40.7636458" lon="14.8670153"><ele>434.0</ele><time>2026-05-01T10:06:49.996Z</time></trkpt><trkpt lat="40.7635687" lon="14.8669989"><ele>434.79999999999995</ele><time>2026-05-01T10:06:50.97Z</time></trkpt><trkpt lat="40.7634738" lon="14.8670056"><ele>435.59999999999997</ele><time>2026-05-01T10:06:51.98Z</time></trkpt><trkpt lat="40.7633694" lon="14.8670181"><ele>436.4</ele><time>2026-05-01T10:06:52.974Z</time></trkpt><trkpt lat="40.7632697" lon="14.8670154"><ele>437.2</ele><time>2026-05-01T10:06:53.974Z</time></trkpt><trkpt lat="40.7631603" lon="14.8670139"><ele>438.0</ele><time>2026-05-01T10:06:54.978Z</time></trkpt><trkpt lat="40.7630446" lon="14.8670166"><ele>438.0</ele><time>2026-05-01T10:06:55.978Z</time></trkpt><trkpt lat="40.7629405" lon="14.8670161"><ele>438.0</ele><time>2026-05-01T10:06:56.977Z</time></trkpt><trkpt lat="40.7628496" lon="14.8670192"><ele>438.0</ele><time>2026-05-01T10:06:57.978Z</time></trkpt><trkpt lat="40.7627741" lon="14.8670054"><ele>438.0</ele><time>2026-05-01T10:06:58.977Z</time></trkpt><trkpt lat="40.7627119" lon="14.866986"><ele>438.0</ele><time>2026-05-01T10:06:59.972Z</time></trkpt><trkpt lat="40.7626363" lon="14.8670045"><ele>438.0</ele><time>2026-05-01T10:07:00.969Z</time></trkpt><trkpt lat="40.7625825" lon="14.8670693"><ele>433.2</ele><time>2026-05-01T10:07:01.973Z</time></trkpt><trkpt lat="40.7624948" lon="14.8671469"><ele>428.4</ele><time>2026-05-01T10:07:02.974Z</time></trkpt><trkpt lat="40.7624304" lon="14.8672343"><ele>423.59999999999997</ele><time>2026-05-01T10:07:03.979Z</time></trkpt><trkpt lat="40.7623722" lon="14.8673088"><ele>418.79999999999995</ele><time>2026-05-01T10:07:04.98Z</time></trkpt><trkpt lat="40.7622745" lon="14.8673551"><ele>414.0</ele><time>2026-05-01T10:07:05.979Z</time></trkpt><trkpt lat="40.7621769" lon="14.8673907"><ele>414.0</ele><time>2026-05-01T10:07:06.97Z</time></trkpt><trkpt lat="40.7620998" lon="14.8674217"><ele>414.0</ele><time>2026-05-01T10:07:07.974Z</time></trkpt><trkpt lat="40.762004" lon="14.8673839"><ele>414.0</ele><time>2026-05-01T10:07:09.97Z</time></trkpt><trkpt lat="40.7619406" lon="14.8673573"><ele>414.0</ele><time>2026-05-01T10:07:12.959Z</time></trkpt><trkpt lat="40.761929" lon="14.867246"><ele>414.0</ele><time>2026-05-01T10:07:47.974Z</time></trkpt><trkpt lat="40.7618998" lon="14.8671321"><ele>414.0</ele><time>2026-05-01T10:07:49.966Z</time></trkpt><trkpt lat="40.7619046" lon="14.8670029"><ele>414.0</ele><time>2026-05-01T10:07:50.975Z</time></trkpt><trkpt lat="40.7619176" lon="14.8668641"><ele>414.0</ele><time>2026-05-01T10:07:51.971Z</time></trkpt><trkpt lat="40.7619062" lon="14.8667048"><ele>414.0</ele><time>2026-05-01T10:07:52.98Z</time></trkpt><trkpt lat="40.7619086" lon="14.8665756"><ele>414.0</ele><time>2026-05-01T10:07:53.98Z</time></trkpt><trkpt lat="40.7619134" lon="14.866472"><ele>414.0</ele><time>2026-05-01T10:07:54.98Z</time></trkpt><trkpt lat="40.7619156" lon="14.866375"><ele>413.6666666666667</ele><time>2026-05-01T10:07:55.979Z</time></trkpt><trkpt lat="40.7619521" lon="14.8662438"><ele>413.33333333333337</ele><time>2026-05-01T10:07:57.978Z</time></trkpt><trkpt lat="40.7619941" lon="14.8661165"><ele>413.0</ele><time>2026-05-01T10:07:59.975Z</time></trkpt><trkpt lat="40.7620323" lon="14.8660273"><ele>412.6666666666667</ele><time>2026-05-01T10:08:00.981Z</time></trkpt><trkpt lat="40.7620631" lon="14.8659457"><ele>412.33333333333337</ele><time>2026-05-01T10:08:01.99Z</time></trkpt><trkpt lat="40.762095" lon="14.8658477"><ele>412.0</ele><time>2026-05-01T10:08:02.981Z</time></trkpt><trkpt lat="40.762118" lon="14.8657499"><ele>414.6</ele><time>2026-05-01T10:08:03.983Z</time></trkpt><trkpt lat="40.7621414" lon="14.8656356"><ele>417.20000000000005</ele><time>2026-05-01T10:08:04.977Z</time></trkpt><trkpt lat="40.7621837" lon="14.8655062"><ele>419.8</ele><time>2026-05-01T10:08:05.953Z</time></trkpt><trkpt lat="40.7622497" lon="14.8653673"><ele>422.4</ele><time>2026-05-01T10:08:06.974Z</time></trkpt><trkpt lat="40.7622956" lon="14.8652577"><ele>425.0</ele><time>2026-05-01T10:08:07.987Z</time></trkpt><trkpt lat="40.7623346" lon="14.8651839"><ele>425.16666666666663</ele><time>2026-05-01T10:08:08.978Z</time></trkpt><trkpt lat="40.7623898" lon="14.8650697"><ele>425.3333333333333</ele><time>2026-05-01T10:08:10.975Z</time></trkpt><trkpt lat="40.7624346" lon="14.8649521"><ele>425.5</ele><time>2026-05-01T10:08:12.978Z</time></trkpt><trkpt lat="40.762478" lon="14.8648809"><ele>425.66666666666663</ele><time>2026-05-01T10:08:13.98Z</time></trkpt><trkpt lat="40.7625014" lon="14.8648033"><ele>425.8333333333333</ele><time>2026-05-01T10:08:14.978Z</time></trkpt><trkpt lat="40.7625348" lon="14.8646881"><ele>426.0</ele><time>2026-05-01T10:08:15.971Z</time></trkpt><trkpt lat="40.7625864" lon="14.8645491"><ele>426.0</ele><time>2026-05-01T10:08:16.972Z</time></trkpt><trkpt lat="40.7626456" lon="14.864411"><ele>426.0</ele><time>2026-05-01T10:08:17.973Z</time></trkpt><trkpt lat="40.7627144" lon="14.8642877"><ele>426.0</ele><time>2026-05-01T10:08:18.976Z</time></trkpt><trkpt lat="40.7627839" lon="14.864155"><ele>426.0</ele><time>2026-05-01T10:08:19.976Z</time></trkpt><trkpt lat="40.7628471" lon="14.864014"><ele>430.0</ele><time>2026-05-01T10:08:20.976Z</time></trkpt><trkpt lat="40.7629109" lon="14.8638676"><ele>434.0</ele><time>2026-05-01T10:08:21.969Z</time></trkpt><trkpt lat="40.7629775" lon="14.8637252"><ele>438.0</ele><time>2026-05-01T10:08:22.969Z</time></trkpt><trkpt lat="40.7630226" lon="14.863592"><ele>442.0</ele><time>2026-05-01T10:08:23.973Z</time></trkpt><trkpt lat="40.7630736" lon="14.8634518"><ele>441.40000000000003</ele><time>2026-05-01T10:08:24.969Z</time></trkpt><trkpt lat="40.7631121" lon="14.8633235"><ele>440.80000000000007</ele><time>2026-05-01T10:08:25.975Z</time></trkpt><trkpt lat="40.7631379" lon="14.8632015"><ele>440.2</ele><time>2026-05-01T10:08:26.975Z</time></trkpt><trkpt lat="40.7631547" lon="14.8630861"><ele>439.6</ele><time>2026-05-01T10:08:27.981Z</time></trkpt><trkpt lat="40.7631759" lon="14.8629681"><ele>439.0</ele><time>2026-05-01T10:08:28.985Z</time></trkpt><trkpt lat="40.7632152" lon="14.8628644"><ele>439.00000000000006</ele><time>2026-05-01T10:08:29.971Z</time></trkpt><trkpt lat="40.7632651" lon="14.8627677"><ele>439.0</ele><time>2026-05-01T10:08:30.967Z</time></trkpt><trkpt lat="40.7633244" lon="14.8626724"><ele>439.0</ele><time>2026-05-01T10:08:31.973Z</time></trkpt><trkpt lat="40.7633869" lon="14.8625786"><ele>439.0</ele><time>2026-05-01T10:08:32.978Z</time></trkpt><trkpt lat="40.763461" lon="14.8625122"><ele>439.00000000000006</ele><time>2026-05-01T10:08:33.973Z</time></trkpt><trkpt lat="40.7635277" lon="14.8624701"><ele>439.0</ele><time>2026-05-01T10:08:34.977Z</time></trkpt><trkpt lat="40.7635953" lon="14.8623938"><ele>439.00000000000006</ele><time>2026-05-01T10:08:36.973Z</time></trkpt><trkpt lat="40.7636532" lon="14.8623289"><ele>439.0</ele><time>2026-05-01T10:10:47.979Z</time></trkpt><trkpt lat="40.7635938" lon="14.8623937"><ele>439.0</ele><time>2026-05-01T10:11:10.977Z</time></trkpt><trkpt lat="40.7635279" lon="14.8624319"><ele>439.0</ele><time>2026-05-01T10:11:12.985Z</time></trkpt><trkpt lat="40.7634624" lon="14.8624992"><ele>439.00000000000006</ele><time>2026-05-01T10:11:14.983Z</time></trkpt><trkpt lat="40.7634152" lon="14.8625915"><ele>439.0</ele><time>2026-05-01T10:11:16.99Z</time></trkpt><trkpt lat="40.7633756" lon="14.8627209"><ele>439.0</ele><time>2026-05-01T10:11:18.974Z</time></trkpt><trkpt lat="40.763337" lon="14.8628476"><ele>439.0</ele><time>2026-05-01T10:11:20.975Z</time></trkpt><trkpt lat="40.7633212" lon="14.8629685"><ele>439.0</ele><time>2026-05-01T10:11:22.984Z</time></trkpt><trkpt lat="40.7633122" lon="14.8631121"><ele>439.0</ele><time>2026-05-01T10:11:24.972Z</time></trkpt><trkpt lat="40.7632972" lon="14.8632447"><ele>439.0</ele><time>2026-05-01T10:11:26.98Z</time></trkpt><trkpt lat="40.7633014" lon="14.8633336"><ele>439.00000000000006</ele><time>2026-05-01T10:11:27.973Z</time></trkpt><trkpt lat="40.763308" lon="14.8634282"><ele>439.0</ele><time>2026-05-01T10:11:28.974Z</time></trkpt><trkpt lat="40.7633156" lon="14.8635163"><ele>439.0</ele><time>2026-05-01T10:11:29.965Z</time></trkpt><trkpt lat="40.7633069" lon="14.8636728"><ele>439.0</ele><time>2026-05-01T10:11:31.98Z</time></trkpt><trkpt lat="40.7633084" lon="14.8637629"><ele>439.00000000000006</ele><time>2026-05-01T10:11:32.975Z</time></trkpt><trkpt lat="40.763324" lon="14.8638633"><ele>439.0</ele><time>2026-05-01T10:11:33.976Z</time></trkpt><trkpt lat="40.7633616" lon="14.8639776"><ele>439.50000000000006</ele><time>2026-05-01T10:11:34.98Z</time></trkpt><trkpt lat="40.7634204" lon="14.8640622"><ele>440.0</ele><time>2026-05-01T10:11:36.982Z</time></trkpt><trkpt lat="40.763479" lon="14.8640995"><ele>440.5</ele><time>2026-05-01T10:11:39.975Z</time></trkpt><trkpt lat="40.7635603" lon="14.8641163"><ele>441.0</ele><time>2026-05-01T10:11:42.97Z</time></trkpt><trkpt lat="40.7636445" lon="14.8641024"><ele>441.50000000000006</ele><time>2026-05-01T10:11:44.972Z</time></trkpt><trkpt lat="40.7636925" lon="14.8640279"><ele>442.0</ele><time>2026-05-01T10:11:46.975Z</time></trkpt><trkpt lat="40.7636923" lon="14.8639012"><ele>449.1666666666667</ele><time>2026-05-01T10:11:49.981Z</time></trkpt><trkpt lat="40.7637361" lon="14.8638395"><ele>456.33333333333337</ele><time>2026-05-01T10:11:54.948Z</time></trkpt><trkpt lat="40.7638166" lon="14.8638331"><ele>463.5</ele><time>2026-05-01T10:11:57.946Z</time></trkpt><trkpt lat="40.7638654" lon="14.8639367"><ele>470.66666666666663</ele><time>2026-05-01T10:11:59.946Z</time></trkpt><trkpt lat="40.7639659" lon="14.864024"><ele>477.8333333333333</ele><time>2026-05-01T10:12:01.948Z</time></trkpt><trkpt lat="40.7639601" lon="14.8641139"><ele>485.0</ele><time>2026-05-01T10:12:04.947Z</time></trkpt><trkpt lat="40.7638866" lon="14.8640823"><ele>485.0</ele><time>2026-05-01T10:12:06.955Z</time></trkpt><trkpt lat="40.7638591" lon="14.8638801"><ele>485.0</ele><time>2026-05-01T10:12:10.973Z</time></trkpt><trkpt lat="40.7638975" lon="14.8637368"><ele>485.0</ele><time>2026-05-01T10:12:12.96Z</time></trkpt><trkpt lat="40.7639514" lon="14.8636348"><ele>485.0</ele><time>2026-05-01T10:12:13.97Z</time></trkpt><trkpt lat="40.7639993" lon="14.8635479"><ele>485.0</ele><time>2026-05-01T10:12:14.947Z</time></trkpt><trkpt lat="40.7640339" lon="14.8634725"><ele>484.99999999999994</ele><time>2026-05-01T10:12:15.955Z</time></trkpt><trkpt lat="40.7640686" lon="14.8633681"><ele>485.0</ele><time>2026-05-01T10:12:17.984Z</time></trkpt><trkpt lat="40.76409" lon="14.8632867"><ele>485.0</ele><time>2026-05-01T10:12:20.956Z</time></trkpt><trkpt lat="40.7640374" lon="14.8633696"><ele>485.0</ele><time>2026-05-01T10:12:24.956Z</time></trkpt><trkpt lat="40.7640945" lon="14.8635023"><ele>484.99999999999994</ele><time>2026-05-01T10:12:26.955Z</time></trkpt><trkpt lat="40.7641466" lon="14.8635685"><ele>485.0</ele><time>2026-05-01T10:12:27.991Z</time></trkpt><trkpt lat="40.7642187" lon="14.8636574"><ele>485.0</ele><time>2026-05-01T10:12:28.969Z</time></trkpt><trkpt lat="40.7642734" lon="14.8637617"><ele>485.0</ele><time>2026-05-01T10:12:29.96Z</time></trkpt><trkpt lat="40.7643276" lon="14.8638503"><ele>485.0</ele><time>2026-05-01T10:12:30.965Z</time></trkpt><trkpt lat="40.7643647" lon="14.8639314"><ele>485.0</ele><time>2026-05-01T10:12:31.976Z</time></trkpt><trkpt lat="40.7643968" lon="14.8641123"><ele>485.0</ele><time>2026-05-01T10:12:33.958Z</time></trkpt><trkpt lat="40.7644032" lon="14.8642348"><ele>484.8333333333333</ele><time>2026-05-01T10:12:34.957Z</time></trkpt><trkpt lat="40.7643897" lon="14.8643476"><ele>484.66666666666663</ele><time>2026-05-01T10:12:36.094Z</time></trkpt><trkpt lat="40.7643616" lon="14.8644576"><ele>484.5</ele><time>2026-05-01T10:12:37.03Z</time></trkpt><trkpt lat="40.7643393" lon="14.8645618"><ele>484.33333333333337</ele><time>2026-05-01T10:12:37.982Z</time></trkpt><trkpt lat="40.7643388" lon="14.8647031"><ele>484.1666666666667</ele><time>2026-05-01T10:12:40.068Z</time></trkpt><trkpt lat="40.7643925" lon="14.8647715"><ele>484.0</ele><time>2026-05-01T10:12:42.985Z</time></trkpt><trkpt lat="40.7644595" lon="14.8647363"><ele>487.6</ele><time>2026-05-01T10:12:45.031Z</time></trkpt><trkpt lat="40.7645562" lon="14.8646434"><ele>491.2</ele><time>2026-05-01T10:12:46.969Z</time></trkpt><trkpt lat="40.7646444" lon="14.8645991"><ele>494.80000000000007</ele><time>2026-05-01T10:12:50.96Z</time></trkpt><trkpt lat="40.7647205" lon="14.8645994"><ele>498.40000000000003</ele><time>2026-05-01T10:12:52.977Z</time></trkpt><trkpt lat="40.764821" lon="14.8646131"><ele>502.0</ele><time>2026-05-01T10:12:54.985Z</time></trkpt><trkpt lat="40.7649127" lon="14.8646447"><ele>502.00000000000006</ele><time>2026-05-01T10:12:56.99Z</time></trkpt><trkpt lat="40.7649727" lon="14.8646788"><ele>502.0</ele><time>2026-05-01T10:12:59.063Z</time></trkpt><trkpt lat="40.7649783" lon="14.8648101"><ele>502.0</ele><time>2026-05-01T10:13:01.978Z</time></trkpt><trkpt lat="40.7649992" lon="14.8649185"><ele>502.0</ele><time>2026-05-01T10:13:04.037Z</time></trkpt><trkpt lat="40.7650277" lon="14.8650111"><ele>502.00000000000006</ele><time>2026-05-01T10:13:05.959Z</time></trkpt><trkpt lat="40.7650756" lon="14.8650675"><ele>502.0</ele><time>2026-05-01T10:13:07.973Z</time></trkpt><trkpt lat="40.7651538" lon="14.8651396"><ele>502.00000000000006</ele><time>2026-05-01T10:13:09.97Z</time></trkpt><trkpt lat="40.7652928" lon="14.8651995"><ele>502.0</ele><time>2026-05-01T10:13:12.043Z</time></trkpt><trkpt lat="40.7653682" lon="14.8652251"><ele>502.0</ele><time>2026-05-01T10:13:12.961Z</time></trkpt><trkpt lat="40.7654389" lon="14.8652391"><ele>502.0</ele><time>2026-05-01T10:13:13.976Z</time></trkpt><trkpt lat="40.765505" lon="14.8652443"><ele>502.00000000000006</ele><time>2026-05-01T10:13:14.947Z</time></trkpt><trkpt lat="40.7655852" lon="14.8652518"><ele>502.0</ele><time>2026-05-01T10:13:16.946Z</time></trkpt><trkpt lat="40.7656446" lon="14.8653537"><ele>502.00000000000006</ele><time>2026-05-01T10:13:18.967Z</time></trkpt><trkpt lat="40.7656558" lon="14.8654498"><ele>502.0</ele><time>2026-05-01T10:13:21.067Z</time></trkpt><trkpt lat="40.7656319" lon="14.8655417"><ele>502.0</ele><time>2026-05-01T10:13:50.988Z</time></trkpt><trkpt lat="40.7656149" lon="14.8656315"><ele>502.0</ele><time>2026-05-01T10:13:52.979Z</time></trkpt><trkpt lat="40.7656067" lon="14.8657338"><ele>502.00000000000006</ele><time>2026-05-01T10:13:55.066Z</time></trkpt><trkpt lat="40.7656211" lon="14.8658481"><ele>502.0</ele><time>2026-05-01T10:13:56.964Z</time></trkpt><trkpt lat="40.7656635" lon="14.8659606"><ele>502.6</ele><time>2026-05-01T10:13:58.993Z</time></trkpt><trkpt lat="40.7657434" lon="14.8660709"><ele>503.20000000000005</ele><time>2026-05-01T10:14:00.978Z</time></trkpt><trkpt lat="40.7658447" lon="14.8661443"><ele>503.8</ele><time>2026-05-01T10:14:02.977Z</time></trkpt><trkpt lat="40.7659049" lon="14.8661901"><ele>504.4</ele><time>2026-05-01T10:14:03.986Z</time></trkpt><trkpt lat="40.7660293" lon="14.8662251"><ele>505.0</ele><time>2026-05-01T10:14:05.974Z</time></trkpt><trkpt lat="40.7660971" lon="14.8662145"><ele>505.0</ele><time>2026-05-01T10:14:06.97Z</time></trkpt><trkpt lat="40.7661806" lon="14.8661688"><ele>505.0</ele><time>2026-05-01T10:14:08.98Z</time></trkpt><trkpt lat="40.7662521" lon="14.8661747"><ele>505.0</ele><time>2026-05-01T10:14:10.982Z</time></trkpt><trkpt lat="40.766342" lon="14.8662375"><ele>505.0</ele><time>2026-05-01T10:14:12.979Z</time></trkpt><trkpt lat="40.7664472" lon="14.8662943"><ele>505.0</ele><time>2026-05-01T10:14:14.98Z</time></trkpt><trkpt lat="40.7665585" lon="14.8663145"><ele>505.0</ele><time>2026-05-01T10:14:16.98Z</time></trkpt><trkpt lat="40.7666361" lon="14.8662951"><ele>505.0</ele><time>2026-05-01T10:14:19.97Z</time></trkpt><trkpt lat="40.7667137" lon="14.866364"><ele>505.0</ele><time>2026-05-01T10:14:22.969Z</time></trkpt><trkpt lat="40.7668302" lon="14.8663754"><ele>505.0</ele><time>2026-05-01T10:14:24.981Z</time></trkpt><trkpt lat="40.7669321" lon="14.8664034"><ele>505.0</ele><time>2026-05-01T10:14:26.98Z</time></trkpt><trkpt lat="40.7669955" lon="14.8664345"><ele>505.2</ele><time>2026-05-01T10:14:29.979Z</time></trkpt><trkpt lat="40.7669578" lon="14.8665695"><ele>505.4</ele><time>2026-05-01T10:14:32.974Z</time></trkpt><trkpt lat="40.7669132" lon="14.8666763"><ele>505.6</ele><time>2026-05-01T10:14:33.979Z</time></trkpt><trkpt lat="40.7668706" lon="14.8667808"><ele>505.8</ele><time>2026-05-01T10:14:34.971Z</time></trkpt><trkpt lat="40.7668185" lon="14.86686"><ele>506.0</ele><time>2026-05-01T10:14:35.968Z</time></trkpt><trkpt lat="40.7667568" lon="14.8669362"><ele>506.0</ele><time>2026-05-01T10:14:36.963Z</time></trkpt><trkpt lat="40.7666944" lon="14.8670134"><ele>506.0</ele><time>2026-05-01T10:14:37.979Z</time></trkpt><trkpt lat="40.7666326" lon="14.8670944"><ele>506.0</ele><time>2026-05-01T10:14:38.976Z</time></trkpt><trkpt lat="40.7665829" lon="14.8671836"><ele>506.0</ele><time>2026-05-01T10:14:39.974Z</time></trkpt><trkpt lat="40.7666274" lon="14.8672909"><ele>506.0</ele><time>2026-05-01T10:14:41.978Z</time></trkpt><trkpt lat="40.766712" lon="14.8674048"><ele>505.99999999999994</ele><time>2026-05-01T10:14:43.966Z</time></trkpt><trkpt lat="40.7667636" lon="14.8675069"><ele>506.0</ele><time>2026-05-01T10:14:44.979Z</time></trkpt><trkpt lat="40.7668243" lon="14.867612"><ele>506.0</ele><time>2026-05-01T10:14:45.971Z</time></trkpt><trkpt lat="40.7668599" lon="14.8676988"><ele>506.0</ele><time>2026-05-01T10:14:46.977Z</time></trkpt><trkpt lat="40.7669128" lon="14.8678257"><ele>505.99999999999994</ele><time>2026-05-01T10:14:48.981Z</time></trkpt><trkpt lat="40.7669541" lon="14.867892"><ele>506.0</ele><time>2026-05-01T10:14:51.982Z</time></trkpt><trkpt lat="40.7668908" lon="14.8678492"><ele>503.99999999999994</ele><time>2026-05-01T10:15:13.97Z</time></trkpt><trkpt lat="40.7668194" lon="14.8678065"><ele>502.0</ele><time>2026-05-01T10:15:15.984Z</time></trkpt><trkpt lat="40.7667431" lon="14.8677726"><ele>500.0</ele><time>2026-05-01T10:15:17.978Z</time></trkpt><trkpt lat="40.766621" lon="14.8677649"><ele>498.0</ele><time>2026-05-01T10:15:19.957Z</time></trkpt><trkpt lat="40.7665463" lon="14.8677584"><ele>495.99999999999994</ele><time>2026-05-01T10:15:20.973Z</time></trkpt><trkpt lat="40.7664764" lon="14.8677562"><ele>494.0</ele><time>2026-05-01T10:15:21.974Z</time></trkpt><trkpt lat="40.7664013" lon="14.8677469"><ele>494.0</ele><time>2026-05-01T10:15:22.977Z</time></trkpt><trkpt lat="40.7663285" lon="14.8677339"><ele>494.0</ele><time>2026-05-01T10:15:23.974Z</time></trkpt><trkpt lat="40.766229" lon="14.8677214"><ele>494.0</ele><time>2026-05-01T10:15:25.955Z</time></trkpt><trkpt lat="40.7662266" lon="14.8678354"><ele>494.0</ele><time>2026-05-01T10:15:28.98Z</time></trkpt><trkpt lat="40.7662471" lon="14.867945"><ele>494.0</ele><time>2026-05-01T10:15:30.992Z</time></trkpt><trkpt lat="40.7662534" lon="14.8680999"><ele>494.0</ele><time>2026-05-01T10:15:32.984Z</time></trkpt><trkpt lat="40.7662526" lon="14.8681923"><ele>494.0</ele><time>2026-05-01T10:15:33.98Z</time></trkpt><trkpt lat="40.7662923" lon="14.8683424"><ele>494.0</ele><time>2026-05-01T10:15:35.976Z</time></trkpt><trkpt lat="40.7663384" lon="14.8685062"><ele>494.0</ele><time>2026-05-01T10:15:37.983Z</time></trkpt><trkpt lat="40.7663901" lon="14.8685899"><ele>494.0</ele><time>2026-05-01T10:15:38.975Z</time></trkpt><trkpt lat="40.7664476" lon="14.8686873"><ele>490.16666666666663</ele><time>2026-05-01T10:15:39.972Z</time></trkpt><trkpt lat="40.7665126" lon="14.8687716"><ele>486.3333333333333</ele><time>2026-05-01T10:15:40.978Z</time></trkpt><trkpt lat="40.7665835" lon="14.8688612"><ele>482.5</ele><time>2026-05-01T10:15:41.972Z</time></trkpt><trkpt lat="40.7666597" lon="14.8689379"><ele>478.66666666666663</ele><time>2026-05-01T10:15:42.973Z</time></trkpt><trkpt lat="40.766733" lon="14.8690012"><ele>474.8333333333333</ele><time>2026-05-01T10:15:43.981Z</time></trkpt><trkpt lat="40.7667555" lon="14.8690926"><ele>471.0</ele><time>2026-05-01T10:15:45.985Z</time></trkpt><trkpt lat="40.7667548" lon="14.8691897"><ele>471.0</ele><time>2026-05-01T10:15:48.973Z</time></trkpt><trkpt lat="40.766805" lon="14.8692528"><ele>471.0</ele><time>2026-05-01T10:15:50.98Z</time></trkpt><trkpt lat="40.7668825" lon="14.8693103"><ele>471.0</ele><time>2026-05-01T10:15:52.979Z</time></trkpt><trkpt lat="40.7669534" lon="14.8693292"><ele>471.0</ele><time>2026-05-01T10:15:54.973Z</time></trkpt><trkpt lat="40.7663285" lon="14.8677339"><ele>475.6</ele><time>2026-05-01T10:15:23.974Z</time></trkpt><trkpt lat="40.766229" lon="14.8677214"><ele>480.20000000000005</ele><time>2026-05-01T10:15:25.955Z</time></trkpt><trkpt lat="40.7662266" lon="14.8678354"><ele>484.79999999999995</ele><time>2026-05-01T10:15:28.98Z</time></trkpt><trkpt lat="40.7662471" lon="14.867945"><ele>489.4</ele><time>2026-05-01T10:15:30.992Z</time></trkpt><trkpt lat="40.7662534" lon="14.8680999"><ele>494.0</ele><time>2026-05-01T10:15:32.984Z</time></trkpt><trkpt lat="40.7662526" lon="14.8681923"><ele>494.0</ele><time>2026-05-01T10:15:33.98Z</time></trkpt><trkpt lat="40.7662923" lon="14.8683424"><ele>494.0</ele><time>2026-05-01T10:15:35.976Z</time></trkpt><trkpt lat="40.7663384" lon="14.8685062"><ele>494.0</ele><time>2026-05-01T10:15:37.983Z</time></trkpt><trkpt lat="40.7663901" lon="14.8685899"><ele>494.0</ele><time>2026-05-01T10:15:38.975Z</time></trkpt><trkpt lat="40.7664476" lon="14.8686873"><ele>494.0</ele><time>2026-05-01T10:15:39.972Z</time></trkpt><trkpt lat="40.7665126" lon="14.8687716"><ele>490.16666666666663</ele><time>2026-05-01T10:15:40.978Z</time></trkpt><trkpt lat="40.7665835" lon="14.8688612"><ele>486.3333333333333</ele><time>2026-05-01T10:15:41.972Z</time></trkpt><trkpt lat="40.7666597" lon="14.8689379"><ele>482.5</ele><time>2026-05-01T10:15:42.973Z</time></trkpt><trkpt lat="40.766733" lon="14.8690012"><ele>478.66666666666663</ele><time>2026-05-01T10:15:43.981Z</time></trkpt><trkpt lat="40.7667555" lon="14.8690926"><ele>474.8333333333333</ele><time>2026-05-01T10:15:45.985Z</time></trkpt><trkpt lat="40.7667548" lon="14.8691897"><ele>471.0</ele><time>2026-05-01T10:15:48.973Z</time></trkpt><trkpt lat="40.766805" lon="14.8692528"><ele>473.1666666666667</ele><time>2026-05-01T10:15:50.98Z</time></trkpt><trkpt lat="40.7668825" lon="14.8693103"><ele>475.33333333333337</ele><time>2026-05-01T10:15:52.979Z</time></trkpt><trkpt lat="40.7669534" lon="14.8693292"><ele>477.5</ele><time>2026-05-01T10:15:54.973Z</time></trkpt><trkpt lat="40.7669514" lon="14.869422"><ele>479.6666666666667</ele><time>2026-05-01T10:16:00.974Z</time></trkpt><trkpt lat="40.7669388" lon="14.8695166"><ele>481.83333333333337</ele><time>2026-05-01T10:16:05.978Z</time></trkpt><trkpt lat="40.7668644" lon="14.8694563"><ele>484.0</ele><time>2026-05-01T10:16:10.974Z</time></trkpt><trkpt lat="40.7667927" lon="14.8694329"><ele>484.00000000000006</ele><time>2026-05-01T10:16:12.966Z</time></trkpt><trkpt lat="40.7667079" lon="14.8693885"><ele>484.0</ele><time>2026-05-01T10:16:14.972Z</time></trkpt><trkpt lat="40.766628" lon="14.8693391"><ele>484.0</ele><time>2026-05-01T10:16:16.976Z</time></trkpt><trkpt lat="40.7665463" lon="14.8693087"><ele>484.0</ele><time>2026-05-01T10:16:18.964Z</time></trkpt><trkpt lat="40.7664541" lon="14.8693252"><ele>484.00000000000006</ele><time>2026-05-01T10:16:20.973Z</time></trkpt><trkpt lat="40.7663884" lon="14.8693314"><ele>484.0</ele><time>2026-05-01T10:16:21.977Z</time></trkpt><trkpt lat="40.7663153" lon="14.8693028"><ele>481.83333333333337</ele><time>2026-05-01T10:16:22.977Z</time></trkpt><trkpt lat="40.766237" lon="14.8692574"><ele>479.6666666666667</ele><time>2026-05-01T10:16:23.969Z</time></trkpt><trkpt lat="40.7661495" lon="14.8691999"><ele>477.5</ele><time>2026-05-01T10:16:24.977Z</time></trkpt><trkpt lat="40.7660663" lon="14.8691339"><ele>475.33333333333337</ele><time>2026-05-01T10:16:25.979Z</time></trkpt><trkpt lat="40.7659868" lon="14.8690685"><ele>473.1666666666667</ele><time>2026-05-01T10:16:26.975Z</time></trkpt><trkpt lat="40.7659234" lon="14.8690185"><ele>471.0</ele><time>2026-05-01T10:16:27.961Z</time></trkpt><trkpt lat="40.7658472" lon="14.8689866"><ele>470.5</ele><time>2026-05-01T10:16:28.961Z</time></trkpt><trkpt lat="40.7657639" lon="14.8689596"><ele>470.0</ele><time>2026-05-01T10:16:29.974Z</time></trkpt><trkpt lat="40.7656788" lon="14.8689042"><ele>469.5</ele><time>2026-05-01T10:16:30.97Z</time></trkpt><trkpt lat="40.7656014" lon="14.8688333"><ele>469.0</ele><time>2026-05-01T10:16:31.968Z</time></trkpt><trkpt lat="40.7655295" lon="14.8687787"><ele>468.5</ele><time>2026-05-01T10:16:32.977Z</time></trkpt><trkpt lat="40.7654574" lon="14.8687383"><ele>468.0</ele><time>2026-05-01T10:16:33.978Z</time></trkpt><trkpt lat="40.7653737" lon="14.8687048"><ele>468.0</ele><time>2026-05-01T10:16:34.974Z</time></trkpt><trkpt lat="40.7652871" lon="14.8686707"><ele>467.99999999999994</ele><time>2026-05-01T10:16:35.972Z</time></trkpt><trkpt lat="40.7651938" lon="14.8686378"><ele>467.99999999999994</ele><time>2026-05-01T10:16:36.967Z</time></trkpt><trkpt lat="40.7650972" lon="14.8685971"><ele>468.0</ele><time>2026-05-01T10:16:37.983Z</time></trkpt><trkpt lat="40.7650042" lon="14.8685515"><ele>468.0</ele><time>2026-05-01T10:16:38.966Z</time></trkpt><trkpt lat="40.7649211" lon="14.8685045"><ele>470.4</ele><time>2026-05-01T10:16:39.974Z</time></trkpt><trkpt lat="40.7648383" lon="14.8684667"><ele>472.79999999999995</ele><time>2026-05-01T10:16:40.973Z</time></trkpt><trkpt lat="40.7647509" lon="14.8684422"><ele>475.2</ele><time>2026-05-01T10:16:41.975Z</time></trkpt><trkpt lat="40.764643" lon="14.8684451"><ele>477.6</ele><time>2026-05-01T10:16:42.976Z</time></trkpt><trkpt lat="40.7645424" lon="14.868442"><ele>480.0</ele><time>2026-05-01T10:16:43.977Z</time></trkpt><trkpt lat="40.7644457" lon="14.8684189"><ele>473.2</ele><time>2026-05-01T10:16:44.968Z</time></trkpt><trkpt lat="40.7643504" lon="14.8683901"><ele>466.4</ele><time>2026-05-01T10:16:45.973Z</time></trkpt><trkpt lat="40.7642483" lon="14.8683486"><ele>459.6</ele><time>2026-05-01T10:16:46.963Z</time></trkpt><trkpt lat="40.7641721" lon="14.868313"><ele>452.8</ele><time>2026-05-01T10:16:47.965Z</time></trkpt><trkpt lat="40.7641155" lon="14.8682727"><ele>446.0</ele><time>2026-05-01T10:16:48.962Z</time></trkpt><trkpt lat="40.7640459" lon="14.8681747"><ele>446.0</ele><time>2026-05-01T10:16:50.972Z</time></trkpt><trkpt lat="40.7639657" lon="14.8680337"><ele>446.0</ele><time>2026-05-01T10:16:52.957Z</time></trkpt><trkpt lat="40.763916" lon="14.8679571"><ele>446.0</ele><time>2026-05-01T10:16:54.974Z</time></trkpt><trkpt lat="40.7639081" lon="14.8678055"><ele>446.0</ele><time>2026-05-01T10:16:56.973Z</time></trkpt><trkpt lat="40.763917" lon="14.8677151"><ele>446.0</ele><time>2026-05-01T10:16:57.961Z</time></trkpt><trkpt lat="40.7639121" lon="14.8676299"><ele>443.99999999999994</ele><time>2026-05-01T10:16:58.975Z</time></trkpt><trkpt lat="40.7638888" lon="14.8675328"><ele>442.0</ele><time>2026-05-01T10:16:59.982Z</time></trkpt><trkpt lat="40.7638591" lon="14.8674426"><ele>440.0</ele><time>2026-05-01T10:17:00.97Z</time></trkpt><trkpt lat="40.7638259" lon="14.8673401"><ele>438.0</ele><time>2026-05-01T10:17:01.967Z</time></trkpt><trkpt lat="40.7637902" lon="14.86725"><ele>435.99999999999994</ele><time>2026-05-01T10:17:02.961Z</time></trkpt><trkpt lat="40.7637574" lon="14.8671683"><ele>434.0</ele><time>2026-05-01T10:17:03.977Z</time></trkpt><trkpt lat="40.7636721" lon="14.8670705"><ele>434.0</ele><time>2026-05-01T10:17:05.978Z</time></trkpt><trkpt lat="40.7635393" lon="14.8670437"><ele>434.0</ele><time>2026-05-01T10:17:07.98Z</time></trkpt><trkpt lat="40.7634523" lon="14.8670413"><ele>434.0</ele><time>2026-05-01T10:17:08.969Z</time></trkpt><trkpt lat="40.7633325" lon="14.8670446"><ele>434.0</ele><time>2026-05-01T10:17:09.968Z</time></trkpt><trkpt lat="40.7632102" lon="14.8670503"><ele>434.79999999999995</ele><time>2026-05-01T10:17:10.974Z</time></trkpt><trkpt lat="40.7631012" lon="14.8670501"><ele>435.59999999999997</ele><time>2026-05-01T10:17:11.981Z</time></trkpt><trkpt lat="40.7630087" lon="14.8670513"><ele>436.4</ele><time>2026-05-01T10:17:12.968Z</time></trkpt><trkpt lat="40.7629257" lon="14.867054"><ele>437.2</ele><time>2026-05-01T10:17:13.965Z</time></trkpt><trkpt lat="40.7628394" lon="14.8670457"><ele>438.0</ele><time>2026-05-01T10:17:14.973Z</time></trkpt><trkpt lat="40.7627591" lon="14.8670389"><ele>433.2</ele><time>2026-05-01T10:17:15.955Z</time></trkpt><trkpt lat="40.7626885" lon="14.867063"><ele>428.4</ele><time>2026-05-01T10:17:16.975Z</time></trkpt><trkpt lat="40.7626125" lon="14.8671216"><ele>423.59999999999997</ele><time>2026-05-01T10:17:17.965Z</time></trkpt><trkpt lat="40.7625296" lon="14.8671974"><ele>418.79999999999995</ele><time>2026-05-01T10:17:18.97Z</time></trkpt><trkpt lat="40.7624577" lon="14.8672756"><ele>414.0</ele><time>2026-05-01T10:17:19.973Z</time></trkpt><trkpt lat="40.7623716" lon="14.8673299"><ele>414.0</ele><time>2026-05-01T10:17:20.971Z</time></trkpt><trkpt lat="40.7622688" lon="14.8673799"><ele>414.0</ele><time>2026-05-01T10:17:21.954Z</time></trkpt><trkpt lat="40.7621819" lon="14.8674262"><ele>414.0</ele><time>2026-05-01T10:17:22.973Z</time></trkpt><trkpt lat="40.762112" lon="14.8674312"><ele>414.0</ele><time>2026-05-01T10:17:23.975Z</time></trkpt><trkpt lat="40.7620495" lon="14.8674025"><ele>414.0</ele><time>2026-05-01T10:17:24.972Z</time></trkpt><trkpt lat="40.7619946" lon="14.8673467"><ele>414.0</ele><time>2026-05-01T10:17:26.973Z</time></trkpt><trkpt lat="40.7619177" lon="14.8673692"><ele>414.0</ele><time>2026-05-01T10:17:29.969Z</time></trkpt><trkpt lat="40.7619866" lon="14.8674323"><ele>414.0</ele><time>2026-05-01T10:17:51.981Z</time></trkpt><trkpt lat="40.7619505" lon="14.867337"><ele>414.0</ele><time>2026-05-01T10:17:54.977Z</time></trkpt><trkpt lat="40.7619471" lon="14.8672013"><ele>414.0</ele><time>2026-05-01T10:17:56.975Z</time></trkpt><trkpt lat="40.761939" lon="14.8671094"><ele>414.0</ele><time>2026-05-01T10:17:57.976Z</time></trkpt><trkpt lat="40.7619285" lon="14.8670154"><ele>414.0</ele><time>2026-05-01T10:17:58.974Z</time></trkpt><trkpt lat="40.7619272" lon="14.8669013"><ele>413.6</ele><time>2026-05-01T10:17:59.976Z</time></trkpt><trkpt lat="40.7619256" lon="14.8667496"><ele>413.2</ele><time>2026-05-01T10:18:00.975Z</time></trkpt><trkpt lat="40.7619106" lon="14.8666052"><ele>412.8</ele><time>2026-05-01T10:18:01.969Z</time></trkpt><trkpt lat="40.761887" lon="14.866475"><ele>412.40000000000003</ele><time>2026-05-01T10:18:02.973Z</time></trkpt><trkpt lat="40.7619016" lon="14.8663841"><ele>412.0</ele><time>2026-05-01T10:18:03.975Z</time></trkpt><trkpt lat="40.7619188" lon="14.8662627"><ele>412.00000000000006</ele><time>2026-05-01T10:18:04.975Z</time></trkpt><trkpt lat="40.7619418" lon="14.8661582"><ele>412.0</ele><time>2026-05-01T10:18:05.986Z</time></trkpt><trkpt lat="40.7619651" lon="14.8660807"><ele>412.0</ele><time>2026-05-01T10:18:06.97Z</time></trkpt><trkpt lat="40.7620142" lon="14.8659526"><ele>412.0</ele><time>2026-05-01T10:18:08.976Z</time></trkpt><trkpt lat="40.7620486" lon="14.8658766"><ele>412.00000000000006</ele><time>2026-05-01T10:18:09.989Z</time></trkpt><trkpt lat="40.7620911" lon="14.8657929"><ele>412.0</ele><time>2026-05-01T10:18:10.972Z</time></trkpt><trkpt lat="40.7621196" lon="14.8656919"><ele>414.1666666666667</ele><time>2026-05-01T10:18:11.973Z</time></trkpt><trkpt lat="40.7621424" lon="14.8655832"><ele>416.33333333333337</ele><time>2026-05-01T10:18:12.969Z</time></trkpt><trkpt lat="40.7621779" lon="14.8654806"><ele>418.5</ele><time>2026-05-01T10:18:13.978Z</time></trkpt><trkpt lat="40.7622272" lon="14.8653841"><ele>420.66666666666663</ele><time>2026-05-01T10:18:14.968Z</time></trkpt><trkpt lat="40.7622838" lon="14.8652862"><ele>422.8333333333333</ele><time>2026-05-01T10:18:15.978Z</time></trkpt><trkpt lat="40.7623119" lon="14.8652092"><ele>425.0</ele><time>2026-05-01T10:18:16.974Z</time></trkpt><trkpt lat="40.7623449" lon="14.8650958"><ele>425.25</ele><time>2026-05-01T10:18:18.979Z</time></trkpt><trkpt lat="40.762391" lon="14.8649734"><ele>425.5</ele><time>2026-05-01T10:18:20.976Z</time></trkpt><trkpt lat="40.76245" lon="14.864805"><ele>425.75</ele><time>2026-05-01T10:18:22.984Z</time></trkpt><trkpt lat="40.7624936" lon="14.8646582"><ele>426.0</ele><time>2026-05-01T10:18:23.972Z</time></trkpt><trkpt lat="40.7625406" lon="14.864533"><ele>426.0</ele><time>2026-05-01T10:18:24.979Z</time></trkpt><trkpt lat="40.7626133" lon="14.8643999"><ele>426.0</ele><time>2026-05-01T10:18:25.981Z</time></trkpt><trkpt lat="40.762694" lon="14.864281"><ele>426.0</ele><time>2026-05-01T10:18:26.972Z</time></trkpt><trkpt lat="40.7627633" lon="14.864157"><ele>426.0</ele><time>2026-05-01T10:18:27.982Z</time></trkpt><trkpt lat="40.7628259" lon="14.8640088"><ele>429.25</ele><time>2026-05-01T10:18:28.962Z</time></trkpt><trkpt lat="40.7628889" lon="14.8638484"><ele>432.5</ele><time>2026-05-01T10:18:29.974Z</time></trkpt><trkpt lat="40.7629551" lon="14.8636971"><ele>435.75</ele><time>2026-05-01T10:18:30.977Z</time></trkpt><trkpt lat="40.7630073" lon="14.8635355"><ele>439.0</ele><time>2026-05-01T10:18:31.97Z</time></trkpt><trkpt lat="40.7630625" lon="14.8633791"><ele>439.0</ele><time>2026-05-01T10:18:32.969Z</time></trkpt><trkpt lat="40.7631054" lon="14.8632252"><ele>439.0</ele><time>2026-05-01T10:18:33.972Z</time></trkpt><trkpt lat="40.7631424" lon="14.863077"><ele>439.0</ele><time>2026-05-01T10:18:34.983Z</time></trkpt><trkpt lat="40.7631789" lon="14.8629501"><ele>439.0</ele><time>2026-05-01T10:18:35.976Z</time></trkpt><trkpt lat="40.763231" lon="14.8628757"><ele>439.0</ele><time>2026-05-01T10:18:36.972Z</time></trkpt><trkpt lat="40.7632833" lon="14.8628138"><ele>439.00000000000006</ele><time>2026-05-01T10:18:37.963Z</time></trkpt><trkpt lat="40.7633416" lon="14.862729"><ele>439.0</ele><time>2026-05-01T10:18:38.956Z</time></trkpt><trkpt lat="40.7634187" lon="14.8626351"><ele>439.0</ele><time>2026-05-01T10:18:39.975Z</time></trkpt><trkpt lat="40.7634839" lon="14.8625613"><ele>439.0</ele><time>2026-05-01T10:18:40.953Z</time></trkpt><trkpt lat="40.7635302" lon="14.8624819"><ele>439.00000000000006</ele><time>2026-05-01T10:18:41.969Z</time></trkpt><trkpt lat="40.7635661" lon="14.8624116"><ele>439.0</ele><time>2026-05-01T10:18:42.967Z</time></trkpt><trkpt lat="40.7636006" lon="14.8622984"><ele>439.0</ele><time>2026-05-01T10:18:44.973Z</time></trkpt><trkpt lat="40.7635264" lon="14.8623293"><ele>439.0</ele><time>2026-05-01T10:18:47.974Z</time></trkpt><trkpt lat="40.7634229" lon="14.8624087"><ele>439.0</ele><time>2026-05-01T10:18:49.966Z</time></trkpt><trkpt lat="40.7633748" lon="14.8624626"><ele>439.0</ele><time>2026-05-01T10:18:50.963Z</time></trkpt><trkpt lat="40.7633186" lon="14.8625758"><ele>439.0</ele><time>2026-05-01T10:18:52.951Z</time></trkpt><trkpt lat="40.7632896" lon="14.8627095"><ele>439.0</ele><time>2026-05-01T10:18:54.978Z</time></trkpt><trkpt lat="40.7632663" lon="14.8628538"><ele>439.0</ele><time>2026-05-01T10:18:56.99Z</time></trkpt><trkpt lat="40.7632486" lon="14.8630137"><ele>439.0</ele><time>2026-05-01T10:18:58.978Z</time></trkpt><trkpt lat="40.7632458" lon="14.8631218"><ele>439.0</ele><time>2026-05-01T10:18:59.978Z</time></trkpt><trkpt lat="40.7632439" lon="14.8632328"><ele>439.0</ele><time>2026-05-01T10:19:00.974Z</time></trkpt><trkpt lat="40.7632465" lon="14.8633364"><ele>439.6</ele><time>2026-05-01T10:19:01.98Z</time></trkpt><trkpt lat="40.7632551" lon="14.8634586"><ele>440.2</ele><time>2026-05-01T10:19:02.951Z</time></trkpt><trkpt lat="40.7632549" lon="14.8635927"><ele>440.80000000000007</ele><time>2026-05-01T10:19:03.965Z</time></trkpt><trkpt lat="40.7632644" lon="14.8637432"><ele>441.40000000000003</ele><time>2026-05-01T10:19:04.982Z</time></trkpt><trkpt lat="40.7632893" lon="14.8638798"><ele>442.0</ele><time>2026-05-01T10:19:05.976Z</time></trkpt><trkpt lat="40.7633256" lon="14.8639929"><ele>442.00000000000006</ele><time>2026-05-01T10:19:06.976Z</time></trkpt><trkpt lat="40.7633864" lon="14.8640702"><ele>442.0</ele><time>2026-05-01T10:19:07.975Z</time></trkpt><trkpt lat="40.7634891" lon="14.8640574"><ele>442.0</ele><time>2026-05-01T10:19:09.974Z</time></trkpt><trkpt lat="40.7635674" lon="14.8640962"><ele>442.0</ele><time>2026-05-01T10:19:13.982Z</time></trkpt><trkpt lat="40.763652" lon="14.8640633"><ele>442.00000000000006</ele><time>2026-05-01T10:19:15.976Z</time></trkpt><trkpt lat="40.7636973" lon="14.8639837"><ele>442.0</ele><time>2026-05-01T10:19:17.975Z</time></trkpt><trkpt lat="40.7636718" lon="14.8638537"><ele>448.14285714285717</ele><time>2026-05-01T10:19:21.051Z</time></trkpt><trkpt lat="40.7637352" lon="14.8638296"><ele>454.28571428571433</ele><time>2026-05-01T10:19:24.974Z</time></trkpt><trkpt lat="40.7638049" lon="14.8638545"><ele>460.42857142857144</ele><time>2026-05-01T10:19:26.952Z</time></trkpt><trkpt lat="40.7638559" lon="14.8639231"><ele>466.5714285714286</ele><time>2026-05-01T10:19:28.967Z</time></trkpt><trkpt lat="40.7639301" lon="14.8639647"><ele>472.7142857142857</ele><time>2026-05-01T10:19:30.968Z</time></trkpt><trkpt lat="40.7639692" lon="14.8638875"><ele>478.85714285714295</ele><time>2026-05-01T10:19:33.972Z</time></trkpt><trkpt lat="40.7639574" lon="14.8637841"><ele>485.00000000000006</ele><time>2026-05-01T10:19:35.966Z</time></trkpt><trkpt lat="40.7639423" lon="14.8636883"><ele>484.99999999999994</ele><time>2026-05-01T10:19:37.962Z</time></trkpt><trkpt lat="40.7639679" lon="14.8635982"><ele>485.0</ele><time>2026-05-01T10:19:39.979Z</time></trkpt><trkpt lat="40.7639943" lon="14.8635104"><ele>485.0</ele><time>2026-05-01T10:19:42.04Z</time></trkpt><trkpt lat="40.7640277" lon="14.8634049"><ele>485.0</ele><time>2026-05-01T10:19:43.976Z</time></trkpt><trkpt lat="40.7640796" lon="14.8632725"><ele>484.99999999999994</ele><time>2026-05-01T10:19:45.968Z</time></trkpt><trkpt lat="40.7641221" lon="14.8631655"><ele>485.0</ele><time>2026-05-01T10:19:47.976Z</time></trkpt><trkpt lat="40.76408" lon="14.8633028"><ele>485.0</ele><time>2026-05-01T10:19:53.981Z</time></trkpt><trkpt lat="40.764152" lon="14.8634351"><ele>485.0</ele><time>2026-05-01T10:19:55.973Z</time></trkpt><trkpt lat="40.7642308" lon="14.863531"><ele>485.0</ele><time>2026-05-01T10:19:56.977Z</time></trkpt><trkpt lat="40.7642833" lon="14.8636085"><ele>485.0</ele><time>2026-05-01T10:19:57.948Z</time></trkpt><trkpt lat="40.7643204" lon="14.8637325"><ele>485.0</ele><time>2026-05-01T10:19:59.977Z</time></trkpt><trkpt lat="40.764365" lon="14.8638118"><ele>484.8</ele><time>2026-05-01T10:20:00.973Z</time></trkpt><trkpt lat="40.7643901" lon="14.8639116"><ele>484.6</ele><time>2026-05-01T10:20:01.971Z</time></trkpt><trkpt lat="40.7643971" lon="14.8640387"><ele>484.4</ele><time>2026-05-01T10:20:02.962Z</time></trkpt><trkpt lat="40.7643789" lon="14.8641736"><ele>484.2</ele><time>2026-05-01T10:20:03.974Z</time></trkpt><trkpt lat="40.764346" lon="14.8643135"><ele>484.0</ele><time>2026-05-01T10:20:04.964Z</time></trkpt><trkpt lat="40.7643168" lon="14.8644481"><ele>484.00000000000006</ele><time>2026-05-01T10:20:05.976Z</time></trkpt><trkpt lat="40.7642982" lon="14.864541"><ele>484.0</ele><time>2026-05-01T10:20:06.978Z</time></trkpt><trkpt lat="40.7643219" lon="14.8646737"><ele>484.0</ele><time>2026-05-01T10:20:08.978Z</time></trkpt><trkpt lat="40.7643715" lon="14.8647294"><ele>484.0</ele><time>2026-05-01T10:20:10.979Z</time></trkpt><trkpt lat="40.76446" lon="14.8646922"><ele>484.00000000000006</ele><time>2026-05-01T10:20:13.984Z</time></trkpt><trkpt lat="40.7645446" lon="14.8646334"><ele>484.0</ele><time>2026-05-01T10:20:15.956Z</time></trkpt><trkpt lat="40.7646397" lon="14.8646072"><ele>487.6</ele><time>2026-05-01T10:20:18.983Z</time></trkpt><trkpt lat="40.7647241" lon="14.8646044"><ele>491.2</ele><time>2026-05-01T10:20:20.984Z</time></trkpt><trkpt lat="40.7648225" lon="14.8646218"><ele>494.80000000000007</ele><time>2026-05-01T10:20:22.974Z</time></trkpt><trkpt lat="40.7648961" lon="14.8646456"><ele>498.40000000000003</ele><time>2026-05-01T10:20:24.979Z</time></trkpt><trkpt lat="40.7649366" lon="14.864729"><ele>502.0</ele><time>2026-05-01T10:20:26.968Z</time></trkpt><trkpt lat="40.7649996" lon="14.8648642"><ele>502.00000000000006</ele><time>2026-05-01T10:20:28.984Z</time></trkpt><trkpt lat="40.7650345" lon="14.8649646"><ele>502.0</ele><time>2026-05-01T10:20:30.99Z</time></trkpt><trkpt lat="40.7650904" lon="14.8650359"><ele>502.0</ele><time>2026-05-01T10:20:32.957Z</time></trkpt><trkpt lat="40.7651484" lon="14.8651038"><ele>502.0</ele><time>2026-05-01T10:20:34.981Z</time></trkpt><trkpt lat="40.7652418" lon="14.8651734"><ele>502.00000000000006</ele><time>2026-05-01T10:20:36.983Z</time></trkpt><trkpt lat="40.7653039" lon="14.8652158"><ele>502.0</ele><time>2026-05-01T10:20:37.984Z</time></trkpt><trkpt lat="40.7653686" lon="14.865267"><ele>502.00000000000006</ele><time>2026-05-01T10:20:38.973Z</time></trkpt><trkpt lat="40.7654306" lon="14.8652823"><ele>502.0</ele><time>2026-05-01T10:20:39.972Z</time></trkpt><trkpt lat="40.7655011" lon="14.8652934"><ele>502.0</ele><time>2026-05-01T10:20:41.977Z</time></trkpt><trkpt lat="40.7655916" lon="14.8653286"><ele>502.0</ele><time>2026-05-01T10:20:44.983Z</time></trkpt><trkpt lat="40.765636" lon="14.8654482"><ele>502.00000000000006</ele><time>2026-05-01T10:20:46.974Z</time></trkpt><trkpt lat="40.7656239" lon="14.8655786"><ele>502.0</ele><time>2026-05-01T10:20:49.974Z</time></trkpt><trkpt lat="40.7656171" lon="14.8657224"><ele>502.00000000000006</ele><time>2026-05-01T10:20:51.982Z</time></trkpt><trkpt lat="40.7656377" lon="14.8658556"><ele>502.0</ele><time>2026-05-01T10:20:53.975Z</time></trkpt><trkpt lat="40.7657125" lon="14.8659648"><ele>502.0</ele><time>2026-05-01T10:20:55.97Z</time></trkpt><trkpt lat="40.7657652" lon="14.8660442"><ele>502.0</ele><time>2026-05-01T10:20:56.973Z</time></trkpt><trkpt lat="40.7658175" lon="14.8660931"><ele>502.00000000000006</ele><time>2026-05-01T10:20:57.982Z</time></trkpt><trkpt lat="40.7658856" lon="14.8661506"><ele>502.0</ele><time>2026-05-01T10:20:58.982Z</time></trkpt><trkpt lat="40.7659489" lon="14.866166"><ele>502.6</ele><time>2026-05-01T10:20:59.979Z</time></trkpt><trkpt lat="40.7660514" lon="14.8662121"><ele>503.20000000000005</ele><time>2026-05-01T10:21:01.975Z</time></trkpt><trkpt lat="40.7661976" lon="14.8662157"><ele>503.8</ele><time>2026-05-01T10:21:03.983Z</time></trkpt><trkpt lat="40.7662611" lon="14.8661815"><ele>504.4</ele><time>2026-05-01T10:21:04.968Z</time></trkpt><trkpt lat="40.7663254" lon="14.8661469"><ele>505.0</ele><time>2026-05-01T10:21:06.979Z</time></trkpt><trkpt lat="40.7663897" lon="14.8661762"><ele>505.0</ele><time>2026-05-01T10:21:08.98Z</time></trkpt><trkpt lat="40.7664732" lon="14.8662289"><ele>505.0</ele><time>2026-05-01T10:21:10.98Z</time></trkpt><trkpt lat="40.7665735" lon="14.8662772"><ele>505.0</ele><time>2026-05-01T10:21:12.976Z</time></trkpt><trkpt lat="40.7666465" lon="14.8662653"><ele>505.0</ele><time>2026-05-01T10:21:14.976Z</time></trkpt><trkpt lat="40.7667211" lon="14.8663273"><ele>505.0</ele><time>2026-05-01T10:21:17.969Z</time></trkpt><trkpt lat="40.7668035" lon="14.8664083"><ele>509.8</ele><time>2026-05-01T10:21:19.978Z</time></trkpt><trkpt lat="40.7669068" lon="14.8664454"><ele>514.6</ele><time>2026-05-01T10:21:21.971Z</time></trkpt><trkpt lat="40.7669976" lon="14.8664841"><ele>519.4</ele><time>2026-05-01T10:21:23.966Z</time></trkpt><trkpt lat="40.7670266" lon="14.8665674"><ele>524.2</ele><time>2026-05-01T10:21:27.969Z</time></trkpt><trkpt lat="40.7669661" lon="14.866689"><ele>529.0</ele><time>2026-05-01T10:21:29.993Z</time></trkpt><trkpt lat="40.7669125" lon="14.8667744"><ele>524.4</ele><time>2026-05-01T10:21:30.969Z</time></trkpt><trkpt lat="40.7668523" lon="14.8668501"><ele>519.8</ele><time>2026-05-01T10:21:31.975Z</time></trkpt><trkpt lat="40.7667828" lon="14.8669373"><ele>515.2</ele><time>2026-05-01T10:21:32.971Z</time></trkpt><trkpt lat="40.7667043" lon="14.8670315"><ele>510.6</ele><time>2026-05-01T10:21:33.974Z</time></trkpt><trkpt lat="40.7666324" lon="14.8671205"><ele>506.0</ele><time>2026-05-01T10:21:34.955Z</time></trkpt><trkpt lat="40.7665708" lon="14.8672008"><ele>505.99999999999994</ele><time>2026-05-01T10:21:35.975Z</time></trkpt><trkpt lat="40.7665725" lon="14.8672858"><ele>506.0</ele><time>2026-05-01T10:21:36.98Z</time></trkpt><trkpt lat="40.7666399" lon="14.8673901"><ele>506.0</ele><time>2026-05-01T10:21:37.971Z</time></trkpt><trkpt lat="40.7667181" lon="14.8674774"><ele>506.0</ele><time>2026-05-01T10:21:38.974Z</time></trkpt><trkpt lat="40.7667893" lon="14.8675693"><ele>505.99999999999994</ele><time>2026-05-01T10:21:39.968Z</time></trkpt><trkpt lat="40.7668371" lon="14.8676441"><ele>506.0</ele><time>2026-05-01T10:21:41.033Z</time></trkpt><trkpt lat="40.7668771" lon="14.8677306"><ele>507.8333333333333</ele><time>2026-05-01T10:21:42.037Z</time></trkpt><trkpt lat="40.7669048" lon="14.8678087"><ele>509.66666666666663</ele><time>2026-05-01T10:21:42.981Z</time></trkpt><trkpt lat="40.766939" lon="14.8678864"><ele>511.5</ele><time>2026-05-01T10:21:44.034Z</time></trkpt><trkpt lat="40.7668744" lon="14.8678985"><ele>513.3333333333334</ele><time>2026-05-01T10:21:48.953Z</time></trkpt><trkpt lat="40.7667756" lon="14.8678632"><ele>515.1666666666667</ele><time>2026-05-01T10:21:51.036Z</time></trkpt><trkpt lat="40.7666611" lon="14.8678349"><ele>517.0</ele><time>2026-05-01T10:21:52.968Z</time></trkpt><trkpt lat="40.7665785" lon="14.8678162"><ele>513.1666666666667</ele><time>2026-05-01T10:21:53.963Z</time></trkpt><trkpt lat="40.7664982" lon="14.8677957"><ele>509.33333333333337</ele><time>2026-05-01T10:21:54.972Z</time></trkpt><trkpt lat="40.7664244" lon="14.8677696"><ele>505.5</ele><time>2026-05-01T10:21:55.971Z</time></trkpt><trkpt lat="40.7663529" lon="14.8677456"><ele>501.66666666666663</ele><time>2026-05-01T10:21:56.983Z</time></trkpt><trkpt lat="40.7662635" lon="14.8677138"><ele>497.8333333333333</ele><time>2026-05-01T10:21:58.979Z</time></trkpt><trkpt lat="40.7662043" lon="14.8677589"><ele>494.0</ele><time>2026-05-01T10:22:00.977Z</time></trkpt><trkpt lat="40.7662082" lon="14.8678762"><ele>493.99999999999994</ele><time>2026-05-01T10:22:03.973Z</time></trkpt><trkpt lat="40.7662073" lon="14.8679695"><ele>494.0</ele><time>2026-05-01T10:22:05.976Z</time></trkpt><trkpt lat="40.7662181" lon="14.8681077"><ele>494.0</ele><time>2026-05-01T10:22:07.981Z</time></trkpt><trkpt lat="40.7662558" lon="14.8682465"><ele>494.0</ele><time>2026-05-01T10:22:09.971Z</time></trkpt><trkpt lat="40.7662907" lon="14.868317"><ele>493.99999999999994</ele><time>2026-05-01T10:22:10.969Z</time></trkpt><trkpt lat="40.7663561" lon="14.8684068"><ele>494.0</ele><time>2026-05-01T10:22:11.975Z</time></trkpt><trkpt lat="40.7664119" lon="14.8684846"><ele>490.16666666666663</ele><time>2026-05-01T10:22:12.972Z</time></trkpt><trkpt lat="40.7664595" lon="14.8685489"><ele>486.3333333333333</ele><time>2026-05-01T10:22:13.983Z</time></trkpt><trkpt lat="40.7665119" lon="14.8686115"><ele>482.5</ele><time>2026-05-01T10:22:14.974Z</time></trkpt><trkpt lat="40.7665872" lon="14.8686859"><ele>478.66666666666663</ele><time>2026-05-01T10:22:15.98Z</time></trkpt><trkpt lat="40.7666362" lon="14.8687439"><ele>474.8333333333333</ele><time>2026-05-01T10:22:16.976Z</time></trkpt><trkpt lat="40.7666674" lon="14.8688945"><ele>471.0</ele><time>2026-05-01T10:22:18.974Z</time></trkpt><trkpt lat="40.7666749" lon="14.8690334"><ele>471.0</ele><time>2026-05-01T10:22:20.967Z</time></trkpt><trkpt lat="40.7667231" lon="14.8691314"><ele>471.0</ele><time>2026-05-01T10:22:22.946Z</time></trkpt><trkpt lat="40.766796" lon="14.8692197"><ele>471.0</ele><time>2026-05-01T10:22:24.962Z</time></trkpt><trkpt lat="40.7668584" lon="14.8692596"><ele>471.0</ele><time>2026-05-01T10:22:27.964Z</time></trkpt><trkpt lat="40.7668686" lon="14.8693436"><ele>471.0</ele><time>2026-05-01T10:22:33.875Z</time></trkpt><trkpt lat="40.7668452" lon="14.8694481"><ele>471.0</ele><time>2026-05-01T10:22:37.876Z</time></trkpt><trkpt lat="40.7667826" lon="14.8694385"><ele>473.1666666666667</ele><time>2026-05-01T10:22:45.97Z</time></trkpt><trkpt lat="40.766721" lon="14.8693909"><ele>475.33333333333337</ele><time>2026-05-01T10:22:47.972Z</time></trkpt><trkpt lat="40.76666" lon="14.8693553"><ele>477.5</ele><time>2026-05-01T10:22:49.967Z</time></trkpt><trkpt lat="40.7665603" lon="14.8693132"><ele>479.6666666666667</ele><time>2026-05-01T10:22:51.972Z</time></trkpt><trkpt lat="40.7664913" lon="14.8693246"><ele>481.83333333333337</ele><time>2026-05-01T10:22:53.976Z</time></trkpt><trkpt lat="40.7663857" lon="14.8693324"><ele>484.0</ele><time>2026-05-01T10:22:55.978Z</time></trkpt><trkpt lat="40.7663275" lon="14.8693006"><ele>481.4</ele><time>2026-05-01T10:22:57.04Z</time></trkpt><trkpt lat="40.7662515" lon="14.8692309"><ele>478.79999999999995</ele><time>2026-05-01T10:22:57.975Z</time></trkpt><trkpt lat="40.7661741" lon="14.8691348"><ele>476.20000000000005</ele><time>2026-05-01T10:22:58.947Z</time></trkpt><trkpt lat="40.7660858" lon="14.869042"><ele>473.6</ele><time>2026-05-01T10:22:59.964Z</time></trkpt><trkpt lat="40.766006" lon="14.8689766"><ele>471.0</ele><time>2026-05-01T10:23:00.968Z</time></trkpt><trkpt lat="40.765936" lon="14.8689415"><ele>470.4</ele><time>2026-05-01T10:23:01.97Z</time></trkpt><trkpt lat="40.7658472" lon="14.8688936"><ele>469.8</ele><time>2026-05-01T10:23:02.977Z</time></trkpt><trkpt lat="40.765767" lon="14.8688348"><ele>469.19999999999993</ele><time>2026-05-01T10:23:04.056Z</time></trkpt><trkpt lat="40.7656785" lon="14.868772"><ele>468.59999999999997</ele><time>2026-05-01T10:23:05.028Z</time></trkpt><trkpt lat="40.7655918" lon="14.8687149"><ele>468.0</ele><time>2026-05-01T10:23:06.041Z</time></trkpt><trkpt lat="40.7655059" lon="14.8686786"><ele>468.0</ele><time>2026-05-01T10:23:06.966Z</time></trkpt><trkpt lat="40.7654023" lon="14.8686445"><ele>468.0</ele><time>2026-05-01T10:23:07.969Z</time></trkpt><trkpt lat="40.7652909" lon="14.8686113"><ele>468.0</ele><time>2026-05-01T10:23:08.965Z</time></trkpt><trkpt lat="40.7651754" lon="14.8685814"><ele>468.0</ele><time>2026-05-01T10:23:09.973Z</time></trkpt><trkpt lat="40.7650549" lon="14.8685472"><ele>470.4</ele><time>2026-05-01T10:23:10.968Z</time></trkpt><trkpt lat="40.76495" lon="14.868501"><ele>472.79999999999995</ele><time>2026-05-01T10:23:12.042Z</time></trkpt><trkpt lat="40.7648647" lon="14.8684636"><ele>475.2</ele><time>2026-05-01T10:23:12.97Z</time></trkpt><trkpt lat="40.7647824" lon="14.8684566"><ele>477.6</ele><time>2026-05-01T10:23:13.972Z</time></trkpt><trkpt lat="40.7646708" lon="14.8684396"><ele>480.0</ele><time>2026-05-01T10:23:14.983Z</time></trkpt><trkpt lat="40.7645577" lon="14.868433"><ele>474.8333333333333</ele><time>2026-05-01T10:23:16.046Z</time></trkpt><trkpt lat="40.7644671" lon="14.8684217"><ele>469.66666666666663</ele><time>2026-05-01T10:23:17.04Z</time></trkpt><trkpt lat="40.7643813" lon="14.8684251"><ele>464.5</ele><time>2026-05-01T10:23:17.97Z</time></trkpt><trkpt lat="40.764299" lon="14.8684041"><ele>459.3333333333333</ele><time>2026-05-01T10:23:18.973Z</time></trkpt><trkpt lat="40.7642261" lon="14.8683596"><ele>454.16666666666663</ele><time>2026-05-01T10:23:19.986Z</time></trkpt><trkpt lat="40.7641681" lon="14.8683213"><ele>449.0</ele><time>2026-05-01T10:23:21.032Z</time></trkpt><trkpt lat="40.7641018" lon="14.8682199"><ele>448.4</ele><time>2026-05-01T10:23:22.968Z</time></trkpt><trkpt lat="40.7640743" lon="14.8680674"><ele>447.79999999999995</ele><time>2026-05-01T10:23:24.963Z</time></trkpt><trkpt lat="40.7640203" lon="14.8680037"><ele>447.20000000000005</ele><time>2026-05-01T10:23:27.049Z</time></trkpt><trkpt lat="40.7640034" lon="14.8678416"><ele>446.6</ele><time>2026-05-01T10:23:28.975Z</time></trkpt><trkpt lat="40.7639901" lon="14.8677279"><ele>446.0</ele><time>2026-05-01T10:23:29.986Z</time></trkpt><trkpt lat="40.763976" lon="14.8676005"><ele>443.99999999999994</ele><time>2026-05-01T10:23:30.97Z</time></trkpt><trkpt lat="40.7639488" lon="14.8674612"><ele>442.0</ele><time>2026-05-01T10:23:31.969Z</time></trkpt><trkpt lat="40.7639202" lon="14.8673655"><ele>440.0</ele><time>2026-05-01T10:23:32.972Z</time></trkpt><trkpt lat="40.7638878" lon="14.86727"><ele>438.0</ele><time>2026-05-01T10:23:33.965Z</time></trkpt><trkpt lat="40.7638329" lon="14.8671917"><ele>435.99999999999994</ele><time>2026-05-01T10:23:34.969Z</time></trkpt><trkpt lat="40.7637736" lon="14.8671225"><ele>434.0</ele><time>2026-05-01T10:23:35.966Z</time></trkpt><trkpt lat="40.7637083" lon="14.86706"><ele>434.0</ele><time>2026-05-01T10:23:37.029Z</time></trkpt><trkpt lat="40.7636245" lon="14.8670246"><ele>434.0</ele><time>2026-05-01T10:23:37.959Z</time></trkpt><trkpt lat="40.7635238" lon="14.8670119"><ele>434.0</ele><time>2026-05-01T10:23:38.965Z</time></trkpt><trkpt lat="40.763426" lon="14.8670214"><ele>434.0</ele><time>2026-05-01T10:23:39.985Z</time></trkpt><trkpt lat="40.7633429" lon="14.8670241"><ele>434.0</ele><time>2026-05-01T10:23:40.964Z</time></trkpt><trkpt lat="40.7632502" lon="14.8670299"><ele>434.66666666666663</ele><time>2026-05-01T10:23:41.97Z</time></trkpt><trkpt lat="40.76315" lon="14.867038"><ele>435.3333333333333</ele><time>2026-05-01T10:23:42.974Z</time></trkpt><trkpt lat="40.763054" lon="14.8670444"><ele>436.0</ele><time>2026-05-01T10:23:43.994Z</time></trkpt><trkpt lat="40.762975" lon="14.8670437"><ele>436.66666666666663</ele><time>2026-05-01T10:23:44.987Z</time></trkpt><trkpt lat="40.7628978" lon="14.8670434"><ele>437.3333333333333</ele><time>2026-05-01T10:23:45.961Z</time></trkpt><trkpt lat="40.7628218" lon="14.8670392"><ele>438.0</ele><time>2026-05-01T10:23:47.037Z</time></trkpt><trkpt lat="40.7627544" lon="14.8670257"><ele>433.2</ele><time>2026-05-01T10:23:47.969Z</time></trkpt><trkpt lat="40.7626727" lon="14.8670353"><ele>428.4</ele><time>2026-05-01T10:23:48.979Z</time></trkpt><trkpt lat="40.7625863" lon="14.8670633"><ele>423.59999999999997</ele><time>2026-05-01T10:23:50.032Z</time></trkpt><trkpt lat="40.7624928" lon="14.8671409"><ele>418.79999999999995</ele><time>2026-05-01T10:23:51.05Z</time></trkpt><trkpt lat="40.7624239" lon="14.8672396"><ele>414.0</ele><time>2026-05-01T10:23:52.038Z</time></trkpt><trkpt lat="40.7623692" lon="14.8672976"><ele>414.0</ele><time>2026-05-01T10:23:52.978Z</time></trkpt><trkpt lat="40.7623022" lon="14.8673401"><ele>414.0</ele><time>2026-05-01T10:23:53.966Z</time></trkpt><trkpt lat="40.7622134" lon="14.8673809"><ele>414.0</ele><time>2026-05-01T10:23:54.977Z</time></trkpt><trkpt lat="40.7621386" lon="14.8673971"><ele>414.0</ele><time>2026-05-01T10:23:56.032Z</time></trkpt><trkpt lat="40.7620669" lon="14.8673857"><ele>414.0</ele><time>2026-05-01T10:23:56.953Z</time></trkpt><trkpt lat="40.7620078" lon="14.867351"><ele>414.0</ele><time>2026-05-01T10:23:57.969Z</time></trkpt><trkpt lat="40.7619252" lon="14.8673431"><ele>414.0</ele><time>2026-05-01T10:23:59.973Z</time></trkpt><trkpt lat="40.7618927" lon="14.8674275"><ele>414.0</ele><time>2026-05-01T10:24:02.981Z</time></trkpt><trkpt lat="40.7619412" lon="14.8674935"><ele>414.0</ele><time>2026-05-01T10:24:05.959Z</time></trkpt><trkpt lat="40.7619495" lon="14.8673868"><ele>414.0</ele><time>2026-05-01T10:25:32.977Z</time></trkpt><trkpt lat="40.7619219" lon="14.8672793"><ele>414.0</ele><time>2026-05-01T10:25:34.97Z</time></trkpt><trkpt lat="40.7619114" lon="14.8671358"><ele>414.0</ele><time>2026-05-01T10:25:36.97Z</time></trkpt><trkpt lat="40.7618925" lon="14.8669323"><ele>414.0</ele><time>2026-05-01T10:25:38.972Z</time></trkpt><trkpt lat="40.7618935" lon="14.8667921"><ele>414.0</ele><time>2026-05-01T10:25:39.967Z</time></trkpt><trkpt lat="40.761895" lon="14.866648"><ele>414.0</ele><time>2026-05-01T10:25:41.026Z</time></trkpt><trkpt lat="40.7618884" lon="14.8665252"><ele>414.0</ele><time>2026-05-01T10:25:42.018Z</time></trkpt><trkpt lat="40.7619007" lon="14.866413"><ele>414.0</ele><time>2026-05-01T10:25:42.961Z</time></trkpt><trkpt lat="40.7619544" lon="14.8662663"><ele>413.6666666666667</ele><time>2026-05-01T10:25:44.977Z</time></trkpt><trkpt lat="40.7620254" lon="14.866142"><ele>413.33333333333337</ele><time>2026-05-01T10:25:47.061Z</time></trkpt><trkpt lat="40.7620686" lon="14.8660769"><ele>413.0</ele><time>2026-05-01T10:25:47.966Z</time></trkpt><trkpt lat="40.7621021" lon="14.8659889"><ele>412.6666666666667</ele><time>2026-05-01T10:25:48.965Z</time></trkpt><trkpt lat="40.762125" lon="14.8658812"><ele>412.33333333333337</ele><time>2026-05-01T10:25:49.981Z</time></trkpt><trkpt lat="40.7621728" lon="14.8657581"><ele>412.0</ele><time>2026-05-01T10:25:50.971Z</time></trkpt><trkpt lat="40.7622316" lon="14.8656193"><ele>414.6</ele><time>2026-05-01T10:25:51.975Z</time></trkpt><trkpt lat="40.7622771" lon="14.8655058"><ele>417.20000000000005</ele><time>2026-05-01T10:25:52.97Z</time></trkpt><trkpt lat="40.7623077" lon="14.8653932"><ele>419.8</ele><time>2026-05-01T10:25:53.969Z</time></trkpt><trkpt lat="40.7623648" lon="14.8652975"><ele>422.4</ele><time>2026-05-01T10:25:54.959Z</time></trkpt><trkpt lat="40.7624117" lon="14.8652141"><ele>425.0</ele><time>2026-05-01T10:25:55.965Z</time></trkpt><trkpt lat="40.7624626" lon="14.8651055"><ele>425.2</ele><time>2026-05-01T10:25:57.979Z</time></trkpt><trkpt lat="40.7624755" lon="14.8649861"><ele>425.4</ele><time>2026-05-01T10:25:59.964Z</time></trkpt><trkpt lat="40.7625208" lon="14.8648569"><ele>425.6</ele><time>2026-05-01T10:26:02.044Z</time></trkpt><trkpt lat="40.7625584" lon="14.8647045"><ele>425.8</ele><time>2026-05-01T10:26:03.972Z</time></trkpt><trkpt lat="40.7625831" lon="14.8646039"><ele>426.0</ele><time>2026-05-01T10:26:04.966Z</time></trkpt><trkpt lat="40.7626354" lon="14.8644828"><ele>426.0</ele><time>2026-05-01T10:26:05.975Z</time></trkpt><trkpt lat="40.7626837" lon="14.8643625"><ele>426.0</ele><time>2026-05-01T10:26:06.978Z</time></trkpt><trkpt lat="40.7627335" lon="14.8642337"><ele>426.0</ele><time>2026-05-01T10:26:07.972Z</time></trkpt><trkpt lat="40.7627884" lon="14.8640613"><ele>426.0</ele><time>2026-05-01T10:26:08.991Z</time></trkpt><trkpt lat="40.7628361" lon="14.8639095"><ele>429.25</ele><time>2026-05-01T10:26:09.969Z</time></trkpt><trkpt lat="40.762885" lon="14.8637621"><ele>432.5</ele><time>2026-05-01T10:26:10.963Z</time></trkpt><trkpt lat="40.7629381" lon="14.8636083"><ele>435.75</ele><time>2026-05-01T10:26:12.024Z</time></trkpt><trkpt lat="40.7629944" lon="14.8634486"><ele>439.0</ele><time>2026-05-01T10:26:12.961Z</time></trkpt><trkpt lat="40.7630456" lon="14.8632998"><ele>439.00000000000006</ele><time>2026-05-01T10:26:13.965Z</time></trkpt><trkpt lat="40.7630787" lon="14.863158"><ele>439.0</ele><time>2026-05-01T10:26:14.972Z</time></trkpt><trkpt lat="40.7631154" lon="14.8630274"><ele>439.0</ele><time>2026-05-01T10:26:15.969Z</time></trkpt><trkpt lat="40.76315" lon="14.8629367"><ele>439.0</ele><time>2026-05-01T10:26:16.972Z</time></trkpt><trkpt lat="40.7631954" lon="14.8628696"><ele>439.00000000000006</ele><time>2026-05-01T10:26:17.969Z</time></trkpt><trkpt lat="40.7632507" lon="14.8627958"><ele>439.0</ele><time>2026-05-01T10:26:18.966Z</time></trkpt><trkpt lat="40.7633253" lon="14.8627136"><ele>439.00000000000006</ele><time>2026-05-01T10:26:20.058Z</time></trkpt><trkpt lat="40.7633844" lon="14.8626427"><ele>439.0</ele><time>2026-05-01T10:26:21.025Z</time></trkpt><trkpt lat="40.7634491" lon="14.8625247"><ele>439.0</ele><time>2026-05-01T10:26:22.973Z</time></trkpt><trkpt lat="40.7634833" lon="14.8624548"><ele>439.0</ele><time>2026-05-01T10:26:23.958Z</time></trkpt><trkpt lat="40.7635158" lon="14.8623823"><ele>439.00000000000006</ele><time>2026-05-01T10:26:26.02Z</time></trkpt><trkpt lat="40.7634276" lon="14.8624025"><ele>439.0</ele><time>2026-05-01T10:26:31.971Z</time></trkpt><trkpt lat="40.7633769" lon="14.8624652"><ele>439.00000000000006</ele><time>2026-05-01T10:26:33.965Z</time></trkpt><trkpt lat="40.7633166" lon="14.8625593"><ele>439.0</ele><time>2026-05-01T10:26:36.97Z</time></trkpt><trkpt lat="40.7632728" lon="14.8626278"><ele>439.0</ele><time>2026-05-01T10:26:38.97Z</time></trkpt><trkpt lat="40.7632234" lon="14.862711"><ele>439.0</ele><time>2026-05-01T10:26:41.028Z</time></trkpt><trkpt lat="40.7631879" lon="14.8627983"><ele>439.00000000000006</ele><time>2026-05-01T10:26:42.97Z</time></trkpt><trkpt lat="40.7631697" lon="14.8629396"><ele>439.0</ele><time>2026-05-01T10:26:44.984Z</time></trkpt><trkpt lat="40.76317" lon="14.863038"><ele>439.0</ele><time>2026-05-01T10:26:46.027Z</time></trkpt><trkpt lat="40.7631675" lon="14.8632947"><ele>439.0</ele><time>2026-05-01T10:26:47.034Z</time></trkpt><trkpt lat="40.7632136" lon="14.8634828"><ele>439.0</ele><time>2026-05-01T10:26:47.967Z</time></trkpt><trkpt lat="40.7632378" lon="14.8636585"><ele>439.50000000000006</ele><time>2026-05-01T10:26:48.977Z</time></trkpt><trkpt lat="40.7632763" lon="14.8637838"><ele>440.0</ele><time>2026-05-01T10:26:49.979Z</time></trkpt><trkpt lat="40.7633248" lon="14.8638699"><ele>440.5</ele><time>2026-05-01T10:26:50.982Z</time></trkpt><trkpt lat="40.7633766" lon="14.8639302"><ele>441.0</ele><time>2026-05-01T10:26:51.97Z</time></trkpt><trkpt lat="40.7634646" lon="14.8640162"><ele>441.50000000000006</ele><time>2026-05-01T10:26:53.983Z</time></trkpt><trkpt lat="40.7635306" lon="14.8640904"><ele>442.0</ele><time>2026-05-01T10:26:56.967Z</time></trkpt><trkpt lat="40.7635982" lon="14.8641206"><ele>448.14285714285717</ele><time>2026-05-01T10:26:58.975Z</time></trkpt><trkpt lat="40.763672" lon="14.8641289"><ele>454.28571428571433</ele><time>2026-05-01T10:27:00.97Z</time></trkpt><trkpt lat="40.7637217" lon="14.8640682"><ele>460.42857142857144</ele><time>2026-05-01T10:27:02.969Z</time></trkpt><trkpt lat="40.7636928" lon="14.8639658"><ele>466.5714285714286</ele><time>2026-05-01T10:27:06.036Z</time></trkpt><trkpt lat="40.7636824" lon="14.8638837"><ele>472.7142857142857</ele><time>2026-05-01T10:27:07.974Z</time></trkpt><trkpt lat="40.7637332" lon="14.8638278"><ele>478.85714285714295</ele><time>2026-05-01T10:27:13.977Z</time></trkpt><trkpt lat="40.7638127" lon="14.8638603"><ele>485.00000000000006</ele><time>2026-05-01T10:27:23.977Z</time></trkpt><trkpt lat="40.7638602" lon="14.8639398"><ele>484.99999999999994</ele><time>2026-05-01T10:27:26.972Z</time></trkpt><trkpt lat="40.7639046" lon="14.8638454"><ele>485.0</ele><time>2026-05-01T10:27:31.968Z</time></trkpt><trkpt lat="40.7639029" lon="14.8637348"><ele>485.0</ele><time>2026-05-01T10:27:33.969Z</time></trkpt><trkpt lat="40.7639263" lon="14.8636315"><ele>485.0</ele><time>2026-05-01T10:27:36.98Z</time></trkpt><trkpt lat="40.7639683" lon="14.8635126"><ele>484.99999999999994</ele><time>2026-05-01T10:27:39.968Z</time></trkpt><trkpt lat="40.7639978" lon="14.863418"><ele>485.0</ele><time>2026-05-01T10:27:41.975Z</time></trkpt><trkpt lat="40.7640456" lon="14.8633342"><ele>485.0</ele><time>2026-05-01T10:27:43.968Z</time></trkpt><trkpt lat="40.7640943" lon="14.8632702"><ele>485.0</ele><time>2026-05-01T10:27:45.969Z</time></trkpt><trkpt lat="40.7640776" lon="14.8633879"><ele>485.0</ele><time>2026-05-01T10:27:52.957Z</time></trkpt><trkpt lat="40.7641462" lon="14.8635036"><ele>485.0</ele><time>2026-05-01T10:27:54.981Z</time></trkpt><trkpt lat="40.7642393" lon="14.8636267"><ele>485.0</ele><time>2026-05-01T10:27:56.95Z</time></trkpt><trkpt lat="40.7642809" lon="14.8637074"><ele>484.99999999999994</ele><time>2026-05-01T10:27:58.951Z</time></trkpt><trkpt lat="40.7643564" lon="14.8638081"><ele>485.0</ele><time>2026-05-01T10:28:00.954Z</time></trkpt><trkpt lat="40.7643753" lon="14.863907"><ele>485.0</ele><time>2026-05-01T10:28:01.951Z</time></trkpt><trkpt lat="40.7643824" lon="14.8640213"><ele>485.0</ele><time>2026-05-01T10:28:02.951Z</time></trkpt><trkpt lat="40.764365" lon="14.8641272"><ele>484.99999999999994</ele><time>2026-05-01T10:28:03.966Z</time></trkpt><trkpt lat="40.7643328" lon="14.8642329"><ele>485.0</ele><time>2026-05-01T10:28:05.045Z</time></trkpt><trkpt lat="40.764299" lon="14.86433"><ele>484.8333333333333</ele><time>2026-05-01T10:28:06.061Z</time></trkpt><trkpt lat="40.7642925" lon="14.864425"><ele>484.66666666666663</ele><time>2026-05-01T10:28:06.98Z</time></trkpt><trkpt lat="40.7643462" lon="14.8645574"><ele>484.5</ele><time>2026-05-01T10:28:08.959Z</time></trkpt><trkpt lat="40.7644064" lon="14.8646308"><ele>484.33333333333337</ele><time>2026-05-01T10:28:11.039Z</time></trkpt><trkpt lat="40.7644823" lon="14.8646268"><ele>484.1666666666667</ele><time>2026-05-01T10:28:12.972Z</time></trkpt><trkpt lat="40.7645582" lon="14.8645968"><ele>484.0</ele><time>2026-05-01T10:28:14.96Z</time></trkpt><trkpt lat="40.7646447" lon="14.8646042"><ele>487.00000000000006</ele><time>2026-05-01T10:28:16.983Z</time></trkpt><trkpt lat="40.7647478" lon="14.8645855"><ele>490.0</ele><time>2026-05-01T10:28:18.978Z</time></trkpt><trkpt lat="40.7648356" lon="14.864599"><ele>493.0</ele><time>2026-05-01T10:28:20.961Z</time></trkpt><trkpt lat="40.7649225" lon="14.8645889"><ele>496.0</ele><time>2026-05-01T10:28:22.954Z</time></trkpt><trkpt lat="40.7649945" lon="14.8646058"><ele>499.00000000000006</ele><time>2026-05-01T10:28:24.965Z</time></trkpt><trkpt lat="40.7650521" lon="14.8646961"><ele>502.0</ele><time>2026-05-01T10:28:27.945Z</time></trkpt><trkpt lat="40.7650738" lon="14.8647742"><ele>502.0</ele><time>2026-05-01T10:28:29.979Z</time></trkpt><trkpt lat="40.7650873" lon="14.8648931"><ele>502.00000000000006</ele><time>2026-05-01T10:28:32.959Z</time></trkpt><trkpt lat="40.7651164" lon="14.8649775"><ele>502.00000000000006</ele><time>2026-05-01T10:28:34.975Z</time></trkpt><trkpt lat="40.7651759" lon="14.8650733"><ele>502.0</ele><time>2026-05-01T10:28:36.973Z</time></trkpt><trkpt lat="40.7652959" lon="14.86516"><ele>502.0</ele><time>2026-05-01T10:28:39.055Z</time></trkpt><trkpt lat="40.7653434" lon="14.8652163"><ele>502.00000000000006</ele><time>2026-05-01T10:28:40.027Z</time></trkpt><trkpt lat="40.76545" lon="14.8652607"><ele>502.0</ele><time>2026-05-01T10:28:41.973Z</time></trkpt><trkpt lat="40.7655129" lon="14.8652469"><ele>502.0</ele><time>2026-05-01T10:28:43.961Z</time></trkpt><trkpt lat="40.7655704" lon="14.8652845"><ele>502.0</ele><time>2026-05-01T10:28:45.972Z</time></trkpt><trkpt lat="40.7656276" lon="14.8653602"><ele>502.00000000000006</ele><time>2026-05-01T10:28:48.958Z</time></trkpt><trkpt lat="40.7656285" lon="14.8654846"><ele>502.0</ele><time>2026-05-01T10:28:52.037Z</time></trkpt><trkpt lat="40.7656146" lon="14.8656164"><ele>502.0</ele><time>2026-05-01T10:28:53.978Z</time></trkpt><trkpt lat="40.7656317" lon="14.8657669"><ele>502.0</ele><time>2026-05-01T10:28:55.973Z</time></trkpt><trkpt lat="40.7656978" lon="14.8659059"><ele>502.0</ele><time>2026-05-01T10:28:57.95Z</time></trkpt><trkpt lat="40.7658033" lon="14.8660294"><ele>502.0</ele><time>2026-05-01T10:28:59.947Z</time></trkpt><trkpt lat="40.7658553" lon="14.8660941"><ele>502.50000000000006</ele><time>2026-05-01T10:29:00.949Z</time></trkpt><trkpt lat="40.765915" lon="14.8661451"><ele>503.0</ele><time>2026-05-01T10:29:01.956Z</time></trkpt><trkpt lat="40.7659811" lon="14.8661938"><ele>503.5</ele><time>2026-05-01T10:29:02.947Z</time></trkpt><trkpt lat="40.7660503" lon="14.8662328"><ele>504.0</ele><time>2026-05-01T10:29:03.956Z</time></trkpt><trkpt lat="40.7661109" lon="14.8662615"><ele>504.50000000000006</ele><time>2026-05-01T10:29:04.965Z</time></trkpt><trkpt lat="40.7662097" lon="14.8662432"><ele>505.0</ele><time>2026-05-01T10:29:06.971Z</time></trkpt><trkpt lat="40.7662728" lon="14.8661973"><ele>505.00000000000006</ele><time>2026-05-01T10:29:08.963Z</time></trkpt><trkpt lat="40.7663378" lon="14.8662067"><ele>505.0</ele><time>2026-05-01T10:29:10.964Z</time></trkpt><trkpt lat="40.7664239" lon="14.8662569"><ele>505.0</ele><time>2026-05-01T10:29:12.974Z</time></trkpt><trkpt lat="40.7665362" lon="14.8663002"><ele>505.0</ele><time>2026-05-01T10:29:14.958Z</time></trkpt><trkpt lat="40.7666141" lon="14.8662921"><ele>505.00000000000006</ele><time>2026-05-01T10:29:16.966Z</time></trkpt><trkpt lat="40.7666823" lon="14.8663725"><ele>505.0</ele><time>2026-05-01T10:29:19.965Z</time></trkpt><trkpt lat="40.7667747" lon="14.8664307"><ele>509.8</ele><time>2026-05-01T10:29:21.968Z</time></trkpt><trkpt lat="40.7668979" lon="14.8664492"><ele>514.6</ele><time>2026-05-01T10:29:23.979Z</time></trkpt><trkpt lat="40.7669819" lon="14.8664455"><ele>519.4</ele><time>2026-05-01T10:29:25.966Z</time></trkpt><trkpt lat="40.7670021" lon="14.8665415"><ele>524.2</ele><time>2026-05-01T10:29:29.969Z</time></trkpt><trkpt lat="40.7669595" lon="14.866654"><ele>529.0</ele><time>2026-05-01T10:29:32.032Z</time></trkpt><trkpt lat="40.7669053" lon="14.8667428"><ele>524.4</ele><time>2026-05-01T10:29:32.959Z</time></trkpt><trkpt lat="40.7668396" lon="14.8668219"><ele>519.8</ele><time>2026-05-01T10:29:33.969Z</time></trkpt><trkpt lat="40.766767" lon="14.8668855"><ele>515.2</ele><time>2026-05-01T10:29:34.96Z</time></trkpt><trkpt lat="40.7667056" lon="14.8669624"><ele>510.6</ele><time>2026-05-01T10:29:35.976Z</time></trkpt><trkpt lat="40.766647" lon="14.8670704"><ele>506.0</ele><time>2026-05-01T10:29:36.96Z</time></trkpt><trkpt lat="40.7666033" lon="14.8671881"><ele>506.0</ele><time>2026-05-01T10:29:37.973Z</time></trkpt><trkpt lat="40.7666039" lon="14.8673199"><ele>506.0</ele><time>2026-05-01T10:29:39.983Z</time></trkpt><trkpt lat="40.7666253" lon="14.8674002"><ele>506.0</ele><time>2026-05-01T10:29:40.982Z</time></trkpt><trkpt lat="40.7666695" lon="14.8674942"><ele>506.0</ele><time>2026-05-01T10:29:41.973Z</time></trkpt><trkpt lat="40.7667253" lon="14.8676133"><ele>506.0</ele><time>2026-05-01T10:29:42.993Z</time></trkpt><trkpt lat="40.7667747" lon="14.8677335"><ele>507.8333333333333</ele><time>2026-05-01T10:29:43.964Z</time></trkpt><trkpt lat="40.7668192" lon="14.867809"><ele>509.66666666666663</ele><time>2026-05-01T10:29:44.971Z</time></trkpt><trkpt lat="40.766876" lon="14.8678783"><ele>511.5</ele><time>2026-05-01T10:29:46.967Z</time></trkpt><trkpt lat="40.7668146" lon="14.8678588"><ele>513.3333333333334</ele><time>2026-05-01T10:29:51.977Z</time></trkpt><trkpt lat="40.7667193" lon="14.8678298"><ele>515.1666666666667</ele><time>2026-05-01T10:29:53.973Z</time></trkpt><trkpt lat="40.7666568" lon="14.8678141"><ele>517.0</ele><time>2026-05-01T10:29:54.969Z</time></trkpt><trkpt lat="40.7665705" lon="14.8677995"><ele>513.1666666666667</ele><time>2026-05-01T10:29:55.967Z</time></trkpt><trkpt lat="40.76649" lon="14.8677895"><ele>509.33333333333337</ele><time>2026-05-01T10:29:56.957Z</time></trkpt><trkpt lat="40.7664029" lon="14.8677678"><ele>505.5</ele><time>2026-05-01T10:29:57.971Z</time></trkpt><trkpt lat="40.7663322" lon="14.8677389"><ele>501.66666666666663</ele><time>2026-05-01T10:29:58.972Z</time></trkpt><trkpt lat="40.7662537" lon="14.8677194"><ele>497.8333333333333</ele><time>2026-05-01T10:30:00.979Z</time></trkpt><trkpt lat="40.7662115" lon="14.8677822"><ele>494.0</ele><time>2026-05-01T10:30:02.975Z</time></trkpt><trkpt lat="40.7662183" lon="14.86789"><ele>494.0</ele><time>2026-05-01T10:30:04.979Z</time></trkpt><trkpt lat="40.7662265" lon="14.8680058"><ele>494.0</ele><time>2026-05-01T10:30:06.971Z</time></trkpt><trkpt lat="40.7662526" lon="14.8681136"><ele>494.0</ele><time>2026-05-01T10:30:08.977Z</time></trkpt><trkpt lat="40.7663305" lon="14.8682372"><ele>494.0</ele><time>2026-05-01T10:30:11.026Z</time></trkpt><trkpt lat="40.7663779" lon="14.8683022"><ele>494.0</ele><time>2026-05-01T10:30:12.033Z</time></trkpt><trkpt lat="40.766467" lon="14.868426"><ele>488.25</ele><time>2026-05-01T10:30:13.971Z</time></trkpt><trkpt lat="40.7665563" lon="14.8685351"><ele>482.5</ele><time>2026-05-01T10:30:15.973Z</time></trkpt><trkpt lat="40.7666504" lon="14.8686556"><ele>476.75</ele><time>2026-05-01T10:30:17.951Z</time></trkpt><trkpt lat="40.7667026" lon="14.8687865"><ele>471.0</ele><time>2026-05-01T10:30:20.032Z</time></trkpt><trkpt lat="40.7667193" lon="14.8689237"><ele>471.0</ele><time>2026-05-01T10:30:22.017Z</time></trkpt><trkpt lat="40.7667221" lon="14.8690522"><ele>471.0</ele><time>2026-05-01T10:30:23.978Z</time></trkpt><trkpt lat="40.7667889" lon="14.8691615"><ele>471.0</ele><time>2026-05-01T10:30:25.98Z</time></trkpt><trkpt lat="40.766861" lon="14.8692535"><ele>471.0</ele><time>2026-05-01T10:30:27.979Z</time></trkpt><trkpt lat="40.7669153" lon="14.8693063"><ele>471.0</ele><time>2026-05-01T10:30:30.067Z</time></trkpt><trkpt lat="40.7668978" lon="14.8693944"><ele>471.0</ele><time>2026-05-01T10:30:39.956Z</time></trkpt><trkpt lat="40.7668447" lon="14.8694454"><ele>471.00000000000006</ele><time>2026-05-01T10:30:46.967Z</time></trkpt><trkpt lat="40.7667802" lon="14.8694307"><ele>471.0</ele><time>2026-05-01T10:30:48.976Z</time></trkpt><trkpt lat="40.7667208" lon="14.8693867"><ele>471.00000000000006</ele><time>2026-05-01T10:30:50.972Z</time></trkpt><trkpt lat="40.7666542" lon="14.8693371"><ele>471.00000000000006</ele><time>2026-05-01T10:30:52.98Z</time></trkpt><trkpt lat="40.7665845" lon="14.869312"><ele>471.0</ele><time>2026-05-01T10:30:54.988Z</time></trkpt><trkpt lat="40.7665155" lon="14.8693142"><ele>471.00000000000006</ele><time>2026-05-01T10:30:56.953Z</time></trkpt><trkpt lat="40.7664233" lon="14.8693054"><ele>471.00000000000006</ele><time>2026-05-01T10:30:58.976Z</time></trkpt><trkpt lat="40.7663464" lon="14.8692317"><ele>471.00000000000006</ele><time>2026-05-01T10:31:00.98Z</time></trkpt><trkpt lat="40.7663021" lon="14.8691682"><ele>471.0</ele><time>2026-05-01T10:31:01.966Z</time></trkpt><trkpt lat="40.7662671" lon="14.8690961"><ele>471.00000000000006</ele><time>2026-05-01T10:31:02.976Z</time></trkpt><trkpt lat="40.7662206" lon="14.869029"><ele>471.00000000000006</ele><time>2026-05-01T10:31:04.02Z</time></trkpt><trkpt lat="40.7661578" lon="14.868975"><ele>471.0</ele><time>2026-05-01T10:31:05.039Z</time></trkpt><trkpt lat="40.7660882" lon="14.8689437"><ele>471.00000000000006</ele><time>2026-05-01T10:31:05.978Z</time></trkpt><trkpt lat="40.766011" lon="14.868908"><ele>471.00000000000006</ele><time>2026-05-01T10:31:06.954Z</time></trkpt><trkpt lat="40.7659308" lon="14.8688687"><ele>470.4</ele><time>2026-05-01T10:31:07.977Z</time></trkpt><trkpt lat="40.7658465" lon="14.8688171"><ele>469.8</ele><time>2026-05-01T10:31:08.975Z</time></trkpt><trkpt lat="40.7657576" lon="14.8687555"><ele>469.19999999999993</ele><time>2026-05-01T10:31:09.971Z</time></trkpt><trkpt lat="40.7656392" lon="14.8687302"><ele>468.59999999999997</ele><time>2026-05-01T10:31:11.02Z</time></trkpt><trkpt lat="40.7655397" lon="14.8686885"><ele>468.0</ele><time>2026-05-01T10:31:12.03Z</time></trkpt><trkpt lat="40.765449" lon="14.8686533"><ele>468.0</ele><time>2026-05-01T10:31:12.972Z</time></trkpt><trkpt lat="40.7653375" lon="14.8686258"><ele>468.0</ele><time>2026-05-01T10:31:13.975Z</time></trkpt><trkpt lat="40.7652154" lon="14.8685911"><ele>468.0</ele><time>2026-05-01T10:31:14.951Z</time></trkpt><trkpt lat="40.7650941" lon="14.8685492"><ele>468.0</ele><time>2026-05-01T10:31:15.974Z</time></trkpt><trkpt lat="40.7649893" lon="14.868493"><ele>470.4</ele><time>2026-05-01T10:31:16.969Z</time></trkpt><trkpt lat="40.7648983" lon="14.8684539"><ele>472.79999999999995</ele><time>2026-05-01T10:31:17.977Z</time></trkpt><trkpt lat="40.7648045" lon="14.8684337"><ele>475.2</ele><time>2026-05-01T10:31:19.021Z</time></trkpt><trkpt lat="40.7646917" lon="14.8684323"><ele>477.6</ele><time>2026-05-01T10:31:20.016Z</time></trkpt><trkpt lat="40.76459" lon="14.8684357"><ele>480.0</ele><time>2026-05-01T10:31:21.038Z</time></trkpt><trkpt lat="40.7644906" lon="14.8684289"><ele>473.8</ele><time>2026-05-01T10:31:22.033Z</time></trkpt><trkpt lat="40.7643976" lon="14.868412"><ele>467.6</ele><time>2026-05-01T10:31:22.964Z</time></trkpt><trkpt lat="40.7642918" lon="14.8683762"><ele>461.4</ele><time>2026-05-01T10:31:23.967Z</time></trkpt><trkpt lat="40.764201" lon="14.8683271"><ele>455.2</ele><time>2026-05-01T10:31:24.977Z</time></trkpt><trkpt lat="40.7641379" lon="14.8682815"><ele>449.0</ele><time>2026-05-01T10:31:25.963Z</time></trkpt><trkpt lat="40.7640711" lon="14.8682099"><ele>448.4</ele><time>2026-05-01T10:31:27.961Z</time></trkpt><trkpt lat="40.7640449" lon="14.868068"><ele>447.79999999999995</ele><time>2026-05-01T10:31:29.958Z</time></trkpt><trkpt lat="40.7639928" lon="14.8679522"><ele>447.20000000000005</ele><time>2026-05-01T10:31:31.964Z</time></trkpt><trkpt lat="40.7639459" lon="14.8678129"><ele>446.6</ele><time>2026-05-01T10:31:33.979Z</time></trkpt><trkpt lat="40.7639411" lon="14.8677283"><ele>446.0</ele><time>2026-05-01T10:31:34.964Z</time></trkpt><trkpt lat="40.7639262" lon="14.8675878"><ele>443.99999999999994</ele><time>2026-05-01T10:31:36.961Z</time></trkpt><trkpt lat="40.7639088" lon="14.8674989"><ele>442.0</ele><time>2026-05-01T10:31:37.967Z</time></trkpt><trkpt lat="40.7638858" lon="14.8674065"><ele>440.0</ele><time>2026-05-01T10:31:38.974Z</time></trkpt><trkpt lat="40.7638499" lon="14.8673188"><ele>438.0</ele><time>2026-05-01T10:31:39.966Z</time></trkpt><trkpt lat="40.7638021" lon="14.8672328"><ele>435.99999999999994</ele><time>2026-05-01T10:31:40.963Z</time></trkpt><trkpt lat="40.7637455" lon="14.8671627"><ele>434.0</ele><time>2026-05-01T10:31:41.961Z</time></trkpt><trkpt lat="40.7636774" lon="14.8671034"><ele>434.0</ele><time>2026-05-01T10:31:42.97Z</time></trkpt><trkpt lat="40.7636115" lon="14.8670547"><ele>434.0</ele><time>2026-05-01T10:31:43.968Z</time></trkpt><trkpt lat="40.763541" lon="14.8670161"><ele>434.0</ele><time>2026-05-01T10:31:44.959Z</time></trkpt><trkpt lat="40.7634471" lon="14.8670031"><ele>434.0</ele><time>2026-05-01T10:31:45.969Z</time></trkpt><trkpt lat="40.76334" lon="14.8669969"><ele>434.0</ele><time>2026-05-01T10:31:46.962Z</time></trkpt><trkpt lat="40.7632265" lon="14.8669952"><ele>434.79999999999995</ele><time>2026-05-01T10:31:47.967Z</time></trkpt><trkpt lat="40.7630894" lon="14.8670131"><ele>435.59999999999997</ele><time>2026-05-01T10:31:48.968Z</time></trkpt><trkpt lat="40.7629718" lon="14.8670264"><ele>436.4</ele><time>2026-05-01T10:31:49.961Z</time></trkpt><trkpt lat="40.7628791" lon="14.8670306"><ele>437.2</ele><time>2026-05-01T10:31:50.972Z</time></trkpt><trkpt lat="40.7627831" lon="14.8670379"><ele>438.0</ele><time>2026-05-01T10:31:51.961Z</time></trkpt><trkpt lat="40.762703" lon="14.8670415"><ele>434.0</ele><time>2026-05-01T10:31:52.975Z</time></trkpt><trkpt lat="40.762635" lon="14.867044"><ele>430.0</ele><time>2026-05-01T10:31:54.034Z</time></trkpt><trkpt lat="40.7625615" lon="14.8670626"><ele>426.0</ele><time>2026-05-01T10:31:55.012Z</time></trkpt><trkpt lat="40.762483" lon="14.8671097"><ele>422.0</ele><time>2026-05-01T10:31:56.018Z</time></trkpt><trkpt lat="40.7624223" lon="14.8671794"><ele>418.0</ele><time>2026-05-01T10:31:57.016Z</time></trkpt><trkpt lat="40.7623721" lon="14.867247"><ele>414.0</ele><time>2026-05-01T10:31:57.959Z</time></trkpt><trkpt lat="40.7622984" lon="14.8673002"><ele>414.0</ele><time>2026-05-01T10:31:59.021Z</time></trkpt><trkpt lat="40.7622182" lon="14.8673486"><ele>414.0</ele><time>2026-05-01T10:32:00.019Z</time></trkpt><trkpt lat="40.7621386" lon="14.8673712"><ele>414.0</ele><time>2026-05-01T10:32:01.019Z</time></trkpt><trkpt lat="40.7620523" lon="14.8673675"><ele>414.0</ele><time>2026-05-01T10:32:02.02Z</time></trkpt><trkpt lat="40.761989" lon="14.8673488"><ele>414.0</ele><time>2026-05-01T10:32:02.968Z</time></trkpt><trkpt lat="40.7618963" lon="14.8673427"><ele>414.0</ele><time>2026-05-01T10:32:05.041Z</time></trkpt><trkpt lat="40.7618508" lon="14.867403"><ele>410.8333333333333</ele><time>2026-05-01T10:34:44.946Z</time></trkpt><trkpt lat="40.7618517" lon="14.8674878"><ele>407.66666666666663</ele><time>2026-05-01T10:36:36.96Z</time></trkpt><trkpt lat="40.7617874" lon="14.8675005"><ele>404.5</ele><time>2026-05-01T10:38:17.974Z</time></trkpt><trkpt lat="40.7617037" lon="14.8674931"><ele>401.3333333333333</ele><time>2026-05-01T10:38:19.972Z</time></trkpt><trkpt lat="40.7616112" lon="14.8675347"><ele>398.16666666666663</ele><time>2026-05-01T10:38:21.983Z</time></trkpt><trkpt lat="40.7615288" lon="14.8676531"><ele>395.0</ele><time>2026-05-01T10:38:23.981Z</time></trkpt><trkpt lat="40.7615073" lon="14.8678084"><ele>394.99999999999994</ele><time>2026-05-01T10:38:25.967Z</time></trkpt><trkpt lat="40.7615127" lon="14.8678966"><ele>395.0</ele><time>2026-05-01T10:38:26.957Z</time></trkpt><trkpt lat="40.7615156" lon="14.8679961"><ele>395.0</ele><time>2026-05-01T10:38:27.966Z</time></trkpt><trkpt lat="40.7615133" lon="14.8680884"><ele>395.0</ele><time>2026-05-01T10:38:28.965Z</time></trkpt><trkpt lat="40.7614758" lon="14.8682261"><ele>394.99999999999994</ele><time>2026-05-01T10:38:30.967Z</time></trkpt><trkpt lat="40.7614417" lon="14.868303"><ele>395.0</ele><time>2026-05-01T10:38:31.967Z</time></trkpt><trkpt lat="40.7613942" lon="14.8683839"><ele>394.49999999999994</ele><time>2026-05-01T10:38:32.971Z</time></trkpt><trkpt lat="40.7613475" lon="14.8684694"><ele>394.0</ele><time>2026-05-01T10:38:33.968Z</time></trkpt><trkpt lat="40.7613086" lon="14.868558"><ele>393.5</ele><time>2026-05-01T10:38:34.961Z</time></trkpt><trkpt lat="40.7612686" lon="14.868654"><ele>393.0</ele><time>2026-05-01T10:38:35.965Z</time></trkpt><trkpt lat="40.7612364" lon="14.8687632"><ele>392.49999999999994</ele><time>2026-05-01T10:38:36.965Z</time></trkpt><trkpt lat="40.76121" lon="14.8688438"><ele>392.0</ele><time>2026-05-01T10:38:37.965Z</time></trkpt><trkpt lat="40.7611875" lon="14.8689714"><ele>392.0</ele><time>2026-05-01T10:38:39.968Z</time></trkpt><trkpt lat="40.7612152" lon="14.8691"><ele>392.0</ele><time>2026-05-01T10:38:41.976Z</time></trkpt><trkpt lat="40.761244" lon="14.8691772"><ele>392.0</ele><time>2026-05-01T10:38:42.963Z</time></trkpt><trkpt lat="40.7612548" lon="14.8692987"><ele>392.0</ele><time>2026-05-01T10:38:44.971Z</time></trkpt><trkpt lat="40.7612253" lon="14.8694594"><ele>392.0</ele><time>2026-05-01T10:38:46.977Z</time></trkpt><trkpt lat="40.7611895" lon="14.8695438"><ele>390.49999999999994</ele><time>2026-05-01T10:38:47.96Z</time></trkpt><trkpt lat="40.7611494" lon="14.8696257"><ele>389.0</ele><time>2026-05-01T10:38:48.972Z</time></trkpt><trkpt lat="40.7611187" lon="14.8697054"><ele>387.5</ele><time>2026-05-01T10:38:49.967Z</time></trkpt><trkpt lat="40.7611174" lon="14.8698524"><ele>386.0</ele><time>2026-05-01T10:38:51.954Z</time></trkpt><trkpt lat="40.7610926" lon="14.8699452"><ele>384.5</ele><time>2026-05-01T10:38:53.978Z</time></trkpt><trkpt lat="40.7610425" lon="14.8700056"><ele>383.0</ele><time>2026-05-01T10:38:54.975Z</time></trkpt><trkpt lat="40.7609889" lon="14.8700492"><ele>383.0</ele><time>2026-05-01T10:38:55.968Z</time></trkpt><trkpt lat="40.7609305" lon="14.870098"><ele>383.0</ele><time>2026-05-01T10:38:56.975Z</time></trkpt><trkpt lat="40.7608813" lon="14.8702265"><ele>383.0</ele><time>2026-05-01T10:38:58.966Z</time></trkpt><trkpt lat="40.76082" lon="14.8703126"><ele>383.0</ele><time>2026-05-01T10:39:01.971Z</time></trkpt><trkpt lat="40.7606977" lon="14.870327"><ele>383.0</ele><time>2026-05-01T10:39:03.971Z</time></trkpt><trkpt lat="40.7606253" lon="14.870321"><ele>382.83333333333337</ele><time>2026-05-01T10:39:04.983Z</time></trkpt><trkpt lat="40.760556" lon="14.8703218"><ele>382.6666666666667</ele><time>2026-05-01T10:39:05.959Z</time></trkpt><trkpt lat="40.7604922" lon="14.8703317"><ele>382.5</ele><time>2026-05-01T10:39:06.972Z</time></trkpt><trkpt lat="40.7604243" lon="14.8703478"><ele>382.3333333333333</ele><time>2026-05-01T10:39:07.97Z</time></trkpt><trkpt lat="40.7603261" lon="14.8703996"><ele>382.16666666666663</ele><time>2026-05-01T10:39:10.013Z</time></trkpt><trkpt lat="40.7602697" lon="14.8704953"><ele>382.0</ele><time>2026-05-01T10:39:11.974Z</time></trkpt><trkpt lat="40.760166" lon="14.8705565"><ele>380.40000000000003</ele><time>2026-05-01T10:39:13.967Z</time></trkpt><trkpt lat="40.760061" lon="14.8705692"><ele>378.8</ele><time>2026-05-01T10:39:15.03Z</time></trkpt><trkpt lat="40.7599362" lon="14.8705653"><ele>377.2</ele><time>2026-05-01T10:39:16.012Z</time></trkpt><trkpt lat="40.759824" lon="14.8705684"><ele>375.6</ele><time>2026-05-01T10:39:16.969Z</time></trkpt><trkpt lat="40.7597274" lon="14.8705871"><ele>374.0</ele><time>2026-05-01T10:39:17.967Z</time></trkpt><trkpt lat="40.7596493" lon="14.8706205"><ele>374.0</ele><time>2026-05-01T10:39:18.967Z</time></trkpt><trkpt lat="40.7595783" lon="14.8706467"><ele>374.0</ele><time>2026-05-01T10:39:19.964Z</time></trkpt><trkpt lat="40.7595108" lon="14.8706947"><ele>374.0</ele><time>2026-05-01T10:39:20.972Z</time></trkpt><trkpt lat="40.7594464" lon="14.8707342"><ele>374.0</ele><time>2026-05-01T10:39:21.957Z</time></trkpt><trkpt lat="40.75936" lon="14.8707731"><ele>374.0</ele><time>2026-05-01T10:39:22.951Z</time></trkpt><trkpt lat="40.7592531" lon="14.8708103"><ele>374.0</ele><time>2026-05-01T10:39:23.965Z</time></trkpt><trkpt lat="40.7591095" lon="14.8708854"><ele>375.79999999999995</ele><time>2026-05-01T10:39:25.024Z</time></trkpt><trkpt lat="40.7590072" lon="14.8709476"><ele>377.59999999999997</ele><time>2026-05-01T10:39:26.031Z</time></trkpt><trkpt lat="40.7589026" lon="14.8710023"><ele>379.4</ele><time>2026-05-01T10:39:27.017Z</time></trkpt><trkpt lat="40.7587945" lon="14.8710315"><ele>381.2</ele><time>2026-05-01T10:39:27.961Z</time></trkpt><trkpt lat="40.7586926" lon="14.871056"><ele>383.0</ele><time>2026-05-01T10:39:28.967Z</time></trkpt><trkpt lat="40.7586" lon="14.8710693"><ele>380.59999999999997</ele><time>2026-05-01T10:39:29.974Z</time></trkpt><trkpt lat="40.7585075" lon="14.8711014"><ele>378.2</ele><time>2026-05-01T10:39:31.047Z</time></trkpt><trkpt lat="40.7584177" lon="14.8711458"><ele>375.8</ele><time>2026-05-01T10:39:32.007Z</time></trkpt><trkpt lat="40.7583335" lon="14.871199"><ele>373.4</ele><time>2026-05-01T10:39:32.964Z</time></trkpt><trkpt lat="40.7582349" lon="14.8712485"><ele>371.0</ele><time>2026-05-01T10:39:33.97Z</time></trkpt><trkpt lat="40.7581258" lon="14.8713002"><ele>371.0</ele><time>2026-05-01T10:39:34.942Z</time></trkpt><trkpt lat="40.7580225" lon="14.871336"><ele>371.0</ele><time>2026-05-01T10:39:35.953Z</time></trkpt><trkpt lat="40.7579206" lon="14.8713724"><ele>371.0</ele><time>2026-05-01T10:39:36.945Z</time></trkpt><trkpt lat="40.7578154" lon="14.8714057"><ele>371.0</ele><time>2026-05-01T10:39:37.967Z</time></trkpt><trkpt lat="40.7576955" lon="14.8714089"><ele>371.0</ele><time>2026-05-01T10:39:38.963Z</time></trkpt><trkpt lat="40.7575775" lon="14.871406"><ele>370.20000000000005</ele><time>2026-05-01T10:39:39.964Z</time></trkpt><trkpt lat="40.757466" lon="14.8713797"><ele>369.40000000000003</ele><time>2026-05-01T10:39:40.951Z</time></trkpt><trkpt lat="40.7573477" lon="14.8713578"><ele>368.6</ele><time>2026-05-01T10:39:41.963Z</time></trkpt><trkpt lat="40.7572434" lon="14.8713604"><ele>367.8</ele><time>2026-05-01T10:39:42.959Z</time></trkpt><trkpt lat="40.757156" lon="14.8713456"><ele>367.0</ele><time>2026-05-01T10:39:43.962Z</time></trkpt><trkpt lat="40.7570506" lon="14.8713396"><ele>367.0</ele><time>2026-05-01T10:39:44.964Z</time></trkpt><trkpt lat="40.7569491" lon="14.8713282"><ele>367.0</ele><time>2026-05-01T10:39:45.963Z</time></trkpt><trkpt lat="40.7568516" lon="14.8713165"><ele>367.0</ele><time>2026-05-01T10:39:46.963Z</time></trkpt><trkpt lat="40.756771" lon="14.8713067"><ele>367.0</ele><time>2026-05-01T10:39:47.976Z</time></trkpt><trkpt lat="40.7566842" lon="14.8712796"><ele>367.0</ele><time>2026-05-01T10:39:48.967Z</time></trkpt><trkpt lat="40.7566187" lon="14.8712576"><ele>367.0</ele><time>2026-05-01T10:39:49.961Z</time></trkpt><trkpt lat="40.7565179" lon="14.871265"><ele>367.40000000000003</ele><time>2026-05-01T10:39:51.969Z</time></trkpt><trkpt lat="40.7563879" lon="14.8712926"><ele>367.8</ele><time>2026-05-01T10:39:53.966Z</time></trkpt><trkpt lat="40.7563036" lon="14.8713104"><ele>368.2</ele><time>2026-05-01T10:39:54.952Z</time></trkpt><trkpt lat="40.7561884" lon="14.8712936"><ele>368.6</ele><time>2026-05-01T10:39:56.963Z</time></trkpt><trkpt lat="40.7561262" lon="14.8712586"><ele>369.0</ele><time>2026-05-01T10:39:57.958Z</time></trkpt><trkpt lat="40.7560133" lon="14.8711729"><ele>369.6</ele><time>2026-05-01T10:39:59.962Z</time></trkpt><trkpt lat="40.7559475" lon="14.8711471"><ele>370.2</ele><time>2026-05-01T10:40:00.963Z</time></trkpt><trkpt lat="40.7558452" lon="14.8711481"><ele>370.8</ele><time>2026-05-01T10:40:01.966Z</time></trkpt><trkpt lat="40.7557401" lon="14.8711512"><ele>371.40000000000003</ele><time>2026-05-01T10:40:02.961Z</time></trkpt><trkpt lat="40.7556543" lon="14.8711859"><ele>372.0</ele><time>2026-05-01T10:40:03.941Z</time></trkpt><trkpt lat="40.7555342" lon="14.8712102"><ele>372.0</ele><time>2026-05-01T10:40:05.968Z</time></trkpt><trkpt lat="40.7554346" lon="14.8711522"><ele>372.0</ele><time>2026-05-01T10:40:07.967Z</time></trkpt><trkpt lat="40.7553613" lon="14.8710667"><ele>372.0</ele><time>2026-05-01T10:40:09.959Z</time></trkpt><trkpt lat="40.7552338" lon="14.8710276"><ele>372.0</ele><time>2026-05-01T10:40:11.967Z</time></trkpt><trkpt lat="40.7551621" lon="14.8710236"><ele>372.0</ele><time>2026-05-01T10:40:12.977Z</time></trkpt><trkpt lat="40.7550876" lon="14.8710327"><ele>370.5</ele><time>2026-05-01T10:40:13.967Z</time></trkpt><trkpt lat="40.7550165" lon="14.8710407"><ele>369.0</ele><time>2026-05-01T10:40:14.97Z</time></trkpt><trkpt lat="40.7549462" lon="14.8710749"><ele>367.5</ele><time>2026-05-01T10:40:15.966Z</time></trkpt><trkpt lat="40.7548725" lon="14.8711242"><ele>366.0</ele><time>2026-05-01T10:40:16.988Z</time></trkpt><trkpt lat="40.754795" lon="14.8711714"><ele>364.5</ele><time>2026-05-01T10:40:17.955Z</time></trkpt><trkpt lat="40.7547181" lon="14.8712259"><ele>363.0</ele><time>2026-05-01T10:40:18.962Z</time></trkpt><trkpt lat="40.7546643" lon="14.8713034"><ele>363.0</ele><time>2026-05-01T10:40:19.961Z</time></trkpt><trkpt lat="40.7546195" lon="14.8714122"><ele>363.0</ele><time>2026-05-01T10:40:20.966Z</time></trkpt><trkpt lat="40.7545934" lon="14.871557"><ele>363.0</ele><time>2026-05-01T10:40:21.96Z</time></trkpt><trkpt lat="40.7545512" lon="14.8716971"><ele>363.0</ele><time>2026-05-01T10:40:22.964Z</time></trkpt><trkpt lat="40.7545163" lon="14.8718419"><ele>363.0</ele><time>2026-05-01T10:40:23.971Z</time></trkpt><trkpt lat="40.754466" lon="14.8719706"><ele>365.79999999999995</ele><time>2026-05-01T10:40:24.965Z</time></trkpt><trkpt lat="40.7544135" lon="14.8721007"><ele>368.6</ele><time>2026-05-01T10:40:25.958Z</time></trkpt><trkpt lat="40.7543412" lon="14.8722203"><ele>371.4</ele><time>2026-05-01T10:40:26.962Z</time></trkpt><trkpt lat="40.7542764" lon="14.8723311"><ele>374.20000000000005</ele><time>2026-05-01T10:40:27.972Z</time></trkpt><trkpt lat="40.7542133" lon="14.8724592"><ele>377.0</ele><time>2026-05-01T10:40:28.964Z</time></trkpt><trkpt lat="40.7541675" lon="14.8725538"><ele>367.40000000000003</ele><time>2026-05-01T10:40:29.971Z</time></trkpt><trkpt lat="40.7541448" lon="14.8726686"><ele>357.8</ele><time>2026-05-01T10:40:30.961Z</time></trkpt><trkpt lat="40.754127" lon="14.8727912"><ele>348.2</ele><time>2026-05-01T10:40:31.96Z</time></trkpt><trkpt lat="40.7540994" lon="14.8729234"><ele>338.6</ele><time>2026-05-01T10:40:32.963Z</time></trkpt><trkpt lat="40.7540857" lon="14.8730461"><ele>329.0</ele><time>2026-05-01T10:40:33.971Z</time></trkpt><trkpt lat="40.7540843" lon="14.8731784"><ele>329.0</ele><time>2026-05-01T10:40:34.97Z</time></trkpt><trkpt lat="40.7540964" lon="14.8732997"><ele>329.0</ele><time>2026-05-01T10:40:35.965Z</time></trkpt><trkpt lat="40.7540894" lon="14.873384"><ele>329.0</ele><time>2026-05-01T10:40:36.966Z</time></trkpt><trkpt lat="40.7539829" lon="14.8734884"><ele>329.0</ele><time>2026-05-01T10:40:38.965Z</time></trkpt><trkpt lat="40.7539011" lon="14.873563"><ele>329.0</ele><time>2026-05-01T10:40:39.959Z</time></trkpt><trkpt lat="40.7538144" lon="14.8736568"><ele>330.6666666666667</ele><time>2026-05-01T10:40:40.967Z</time></trkpt><trkpt lat="40.7537324" lon="14.8737487"><ele>332.33333333333337</ele><time>2026-05-01T10:40:41.977Z</time></trkpt><trkpt lat="40.7536815" lon="14.873831"><ele>334.0</ele><time>2026-05-01T10:40:42.965Z</time></trkpt><trkpt lat="40.7536214" lon="14.873866"><ele>335.6666666666667</ele><time>2026-05-01T10:40:44.961Z</time></trkpt><trkpt lat="40.7535469" lon="14.8738452"><ele>337.3333333333333</ele><time>2026-05-01T10:40:45.969Z</time></trkpt><trkpt lat="40.7534795" lon="14.8738132"><ele>339.0</ele><time>2026-05-01T10:40:46.969Z</time></trkpt><trkpt lat="40.7534119" lon="14.8737641"><ele>339.0</ele><time>2026-05-01T10:40:47.957Z</time></trkpt><trkpt lat="40.7533391" lon="14.8737255"><ele>339.0</ele><time>2026-05-01T10:40:48.965Z</time></trkpt><trkpt lat="40.7532457" lon="14.8736947"><ele>339.0</ele><time>2026-05-01T10:40:49.963Z</time></trkpt><trkpt lat="40.753127" lon="14.8736978"><ele>339.0</ele><time>2026-05-01T10:40:50.966Z</time></trkpt><trkpt lat="40.7530141" lon="14.873706"><ele>339.0</ele><time>2026-05-01T10:40:51.959Z</time></trkpt><trkpt lat="40.7529003" lon="14.8737101"><ele>339.0</ele><time>2026-05-01T10:40:52.963Z</time></trkpt><trkpt lat="40.7527844" lon="14.8737112"><ele>339.0</ele><time>2026-05-01T10:40:53.967Z</time></trkpt><trkpt lat="40.7526745" lon="14.8737253"><ele>339.0</ele><time>2026-05-01T10:40:54.963Z</time></trkpt><trkpt lat="40.7525639" lon="14.873722"><ele>339.0</ele><time>2026-05-01T10:40:55.968Z</time></trkpt><trkpt lat="40.752474" lon="14.8736935"><ele>339.0</ele><time>2026-05-01T10:40:56.951Z</time></trkpt><trkpt lat="40.7523857" lon="14.8736661"><ele>338.6</ele><time>2026-05-01T10:40:57.967Z</time></trkpt><trkpt lat="40.7523087" lon="14.8736801"><ele>338.2</ele><time>2026-05-01T10:40:58.972Z</time></trkpt><trkpt lat="40.7522246" lon="14.8737072"><ele>337.8</ele><time>2026-05-01T10:40:59.969Z</time></trkpt><trkpt lat="40.7521275" lon="14.8737367"><ele>337.40000000000003</ele><time>2026-05-01T10:41:00.975Z</time></trkpt><trkpt lat="40.7520247" lon="14.8737463"><ele>337.0</ele><time>2026-05-01T10:41:01.962Z</time></trkpt><trkpt lat="40.7519187" lon="14.8737443"><ele>333.20000000000005</ele><time>2026-05-01T10:41:02.966Z</time></trkpt><trkpt lat="40.7518197" lon="14.8737499"><ele>329.40000000000003</ele><time>2026-05-01T10:41:03.973Z</time></trkpt><trkpt lat="40.75172" lon="14.8737739"><ele>325.6</ele><time>2026-05-01T10:41:04.97Z</time></trkpt><trkpt lat="40.7516079" lon="14.8737979"><ele>321.8</ele><time>2026-05-01T10:41:05.971Z</time></trkpt><trkpt lat="40.7514976" lon="14.8738262"><ele>318.0</ele><time>2026-05-01T10:41:06.967Z</time></trkpt><trkpt lat="40.7514046" lon="14.8738631"><ele>318.0</ele><time>2026-05-01T10:41:07.965Z</time></trkpt><trkpt lat="40.7513105" lon="14.8739123"><ele>318.0</ele><time>2026-05-01T10:41:08.962Z</time></trkpt><trkpt lat="40.7512231" lon="14.8739898"><ele>318.0</ele><time>2026-05-01T10:41:09.964Z</time></trkpt><trkpt lat="40.7511377" lon="14.8740784"><ele>318.0</ele><time>2026-05-01T10:41:10.958Z</time></trkpt><trkpt lat="40.7510568" lon="14.8741664"><ele>318.0</ele><time>2026-05-01T10:41:11.967Z</time></trkpt><trkpt lat="40.7509879" lon="14.8742612"><ele>315.6</ele><time>2026-05-01T10:41:12.969Z</time></trkpt><trkpt lat="40.7509226" lon="14.8743701"><ele>313.20000000000005</ele><time>2026-05-01T10:41:13.96Z</time></trkpt><trkpt lat="40.7508565" lon="14.8745099"><ele>310.8</ele><time>2026-05-01T10:41:14.968Z</time></trkpt><trkpt lat="40.7507798" lon="14.8746288"><ele>308.40000000000003</ele><time>2026-05-01T10:41:15.959Z</time></trkpt><trkpt lat="40.750712" lon="14.8747066"><ele>306.0</ele><time>2026-05-01T10:41:16.964Z</time></trkpt><trkpt lat="40.7506525" lon="14.8747616"><ele>306.0</ele><time>2026-05-01T10:41:17.966Z</time></trkpt><trkpt lat="40.7505898" lon="14.874829"><ele>306.0</ele><time>2026-05-01T10:41:18.965Z</time></trkpt><trkpt lat="40.7504963" lon="14.8748781"><ele>306.0</ele><time>2026-05-01T10:41:19.969Z</time></trkpt><trkpt lat="40.7504088" lon="14.8749332"><ele>306.0</ele><time>2026-05-01T10:41:20.971Z</time></trkpt><trkpt lat="40.750333" lon="14.8749873"><ele>306.0</ele><time>2026-05-01T10:41:21.959Z</time></trkpt><trkpt lat="40.7502507" lon="14.8750103"><ele>306.0</ele><time>2026-05-01T10:41:22.959Z</time></trkpt><trkpt lat="40.7501653" lon="14.875032"><ele>306.0</ele><time>2026-05-01T10:41:23.969Z</time></trkpt><trkpt lat="40.7501014" lon="14.8750145"><ele>306.0</ele><time>2026-05-01T10:41:27.955Z</time></trkpt><trkpt lat="40.7501578" lon="14.8749039"><ele>306.0</ele><time>2026-05-01T10:41:41.971Z</time></trkpt><trkpt lat="40.7502113" lon="14.8748067"><ele>306.0</ele><time>2026-05-01T10:41:43.958Z</time></trkpt><trkpt lat="40.750202" lon="14.8747091"><ele>306.0</ele><time>2026-05-01T10:41:45.963Z</time></trkpt><trkpt lat="40.7501875" lon="14.8745284"><ele>306.40000000000003</ele><time>2026-05-01T10:41:47.972Z</time></trkpt><trkpt lat="40.7501947" lon="14.8744026"><ele>306.8</ele><time>2026-05-01T10:41:48.965Z</time></trkpt><trkpt lat="40.7502028" lon="14.8742697"><ele>307.20000000000005</ele><time>2026-05-01T10:41:49.972Z</time></trkpt><trkpt lat="40.750201" lon="14.8741288"><ele>307.6</ele><time>2026-05-01T10:41:50.972Z</time></trkpt><trkpt lat="40.750197" lon="14.8739974"><ele>308.0</ele><time>2026-05-01T10:41:51.961Z</time></trkpt><trkpt lat="40.7501948" lon="14.8738757"><ele>308.0</ele><time>2026-05-01T10:41:52.964Z</time></trkpt><trkpt lat="40.7501984" lon="14.8737595"><ele>308.0</ele><time>2026-05-01T10:41:53.954Z</time></trkpt><trkpt lat="40.7502074" lon="14.873635"><ele>308.0</ele><time>2026-05-01T10:41:54.966Z</time></trkpt><trkpt lat="40.7502236" lon="14.8735152"><ele>308.0</ele><time>2026-05-01T10:41:55.967Z</time></trkpt><trkpt lat="40.7502427" lon="14.8733861"><ele>308.0</ele><time>2026-05-01T10:41:56.959Z</time></trkpt><trkpt lat="40.7502546" lon="14.8732558"><ele>312.6666666666667</ele><time>2026-05-01T10:41:57.966Z</time></trkpt><trkpt lat="40.7502649" lon="14.8731273"><ele>317.33333333333337</ele><time>2026-05-01T10:41:58.963Z</time></trkpt><trkpt lat="40.7502717" lon="14.8730096"><ele>322.0</ele><time>2026-05-01T10:41:59.953Z</time></trkpt><trkpt lat="40.750273" lon="14.8729076"><ele>326.6666666666667</ele><time>2026-05-01T10:42:00.958Z</time></trkpt><trkpt lat="40.7502792" lon="14.8727792"><ele>331.3333333333333</ele><time>2026-05-01T10:42:02.965Z</time></trkpt><trkpt lat="40.7503491" lon="14.8728307"><ele>336.0</ele><time>2026-05-01T10:42:09.967Z</time></trkpt><trkpt lat="40.7503682" lon="14.8729262"><ele>336.0</ele><time>2026-05-01T10:42:10.942Z</time></trkpt><trkpt lat="40.7503713" lon="14.8730363"><ele>336.0</ele><time>2026-05-01T10:42:11.963Z</time></trkpt><trkpt lat="40.7503797" lon="14.873126"><ele>336.0</ele><time>2026-05-01T10:42:12.957Z</time></trkpt><trkpt lat="40.7503943" lon="14.8732263"><ele>336.0</ele><time>2026-05-01T10:42:13.956Z</time></trkpt><trkpt lat="40.7504037" lon="14.873318"><ele>336.0</ele><time>2026-05-01T10:42:14.963Z</time></trkpt><trkpt lat="40.7504237" lon="14.8734132"><ele>336.0</ele><time>2026-05-01T10:42:15.961Z</time></trkpt><trkpt lat="40.7504584" lon="14.8734953"><ele>336.0</ele><time>2026-05-01T10:42:16.955Z</time></trkpt><trkpt lat="40.7505149" lon="14.8735608"><ele>336.0</ele><time>2026-05-01T10:42:17.963Z</time></trkpt><trkpt lat="40.7506253" lon="14.8735843"><ele>336.0</ele><time>2026-05-01T10:42:19.967Z</time></trkpt><trkpt lat="40.7506879" lon="14.8735494"><ele>336.0</ele><time>2026-05-01T10:42:20.969Z</time></trkpt><trkpt lat="40.7507426" lon="14.8735016"><ele>336.0</ele><time>2026-05-01T10:42:21.971Z</time></trkpt><trkpt lat="40.7507954" lon="14.8734472"><ele>336.0</ele><time>2026-05-01T10:42:22.961Z</time></trkpt><trkpt lat="40.7508732" lon="14.8733833"><ele>336.0</ele><time>2026-05-01T10:42:24.962Z</time></trkpt><trkpt lat="40.7508339" lon="14.8734788"><ele>336.0</ele><time>2026-05-01T10:42:29.969Z</time></trkpt><trkpt lat="40.7507246" lon="14.8735005"><ele>336.0</ele><time>2026-05-01T10:42:31.955Z</time></trkpt><trkpt lat="40.7506363" lon="14.8734231"><ele>336.0</ele><time>2026-05-01T10:42:33.962Z</time></trkpt><trkpt lat="40.7506104" lon="14.8733415"><ele>336.0</ele><time>2026-05-01T10:42:34.968Z</time></trkpt><trkpt lat="40.7506074" lon="14.8732347"><ele>336.0</ele><time>2026-05-01T10:42:35.966Z</time></trkpt><trkpt lat="40.7506178" lon="14.8731184"><ele>336.0</ele><time>2026-05-01T10:42:36.942Z</time></trkpt><trkpt lat="40.7506279" lon="14.8729966"><ele>336.0</ele><time>2026-05-01T10:42:37.958Z</time></trkpt><trkpt lat="40.750637" lon="14.8728925"><ele>336.0</ele><time>2026-05-01T10:42:38.959Z</time></trkpt><trkpt lat="40.7506359" lon="14.8727938"><ele>336.0</ele><time>2026-05-01T10:42:39.969Z</time></trkpt><trkpt lat="40.7506272" lon="14.8726989"><ele>336.0</ele><time>2026-05-01T10:42:40.943Z</time></trkpt><trkpt lat="40.7506105" lon="14.872598"><ele>336.0</ele><time>2026-05-01T10:42:41.96Z</time></trkpt><trkpt lat="40.7505827" lon="14.8724868"><ele>340.6666666666667</ele><time>2026-05-01T10:42:42.965Z</time></trkpt><trkpt lat="40.750538" lon="14.8723767"><ele>345.3333333333333</ele><time>2026-05-01T10:42:43.946Z</time></trkpt><trkpt lat="40.7505043" lon="14.8722757"><ele>350.0</ele><time>2026-05-01T10:42:44.964Z</time></trkpt><trkpt lat="40.7504913" lon="14.8721725"><ele>354.66666666666663</ele><time>2026-05-01T10:42:45.962Z</time></trkpt><trkpt lat="40.7504998" lon="14.8720694"><ele>359.3333333333333</ele><time>2026-05-01T10:42:46.966Z</time></trkpt><trkpt lat="40.7505141" lon="14.8719629"><ele>364.0</ele><time>2026-05-01T10:42:47.967Z</time></trkpt><trkpt lat="40.7505236" lon="14.8718543"><ele>368.79999999999995</ele><time>2026-05-01T10:42:48.984Z</time></trkpt><trkpt lat="40.750531" lon="14.8717396"><ele>373.59999999999997</ele><time>2026-05-01T10:42:49.947Z</time></trkpt><trkpt lat="40.750544" lon="14.87162"><ele>378.4</ele><time>2026-05-01T10:42:50.963Z</time></trkpt><trkpt lat="40.7505632" lon="14.8715006"><ele>383.2</ele><time>2026-05-01T10:42:51.969Z</time></trkpt><trkpt lat="40.7505906" lon="14.8713756"><ele>388.0</ele><time>2026-05-01T10:42:52.963Z</time></trkpt><trkpt lat="40.7506224" lon="14.87123"><ele>388.0</ele><time>2026-05-01T10:42:53.958Z</time></trkpt><trkpt lat="40.750659" lon="14.8710894"><ele>388.0</ele><time>2026-05-01T10:42:54.959Z</time></trkpt><trkpt lat="40.7506897" lon="14.8709371"><ele>388.0</ele><time>2026-05-01T10:42:55.968Z</time></trkpt><trkpt lat="40.7507152" lon="14.8708035"><ele>388.0</ele><time>2026-05-01T10:42:56.965Z</time></trkpt><trkpt lat="40.7507377" lon="14.8706973"><ele>388.0</ele><time>2026-05-01T10:42:57.956Z</time></trkpt><trkpt lat="40.7507603" lon="14.8705962"><ele>387.0</ele><time>2026-05-01T10:42:58.968Z</time></trkpt><trkpt lat="40.7508063" lon="14.8704905"><ele>386.0</ele><time>2026-05-01T10:42:59.973Z</time></trkpt><trkpt lat="40.7508658" lon="14.8703825"><ele>385.0</ele><time>2026-05-01T10:43:00.957Z</time></trkpt><trkpt lat="40.7509242" lon="14.8702824"><ele>384.0</ele><time>2026-05-01T10:43:01.956Z</time></trkpt><trkpt lat="40.7509801" lon="14.8701885"><ele>383.0</ele><time>2026-05-01T10:43:02.944Z</time></trkpt><trkpt lat="40.7510294" lon="14.8700939"><ele>386.0</ele><time>2026-05-01T10:43:03.954Z</time></trkpt><trkpt lat="40.751084" lon="14.8700113"><ele>389.0</ele><time>2026-05-01T10:43:04.961Z</time></trkpt><trkpt lat="40.7511534" lon="14.869925"><ele>392.0</ele><time>2026-05-01T10:43:05.96Z</time></trkpt><trkpt lat="40.7512018" lon="14.869816"><ele>395.0</ele><time>2026-05-01T10:43:06.947Z</time></trkpt><trkpt lat="40.7512123" lon="14.8696817"><ele>398.0</ele><time>2026-05-01T10:43:07.959Z</time></trkpt><trkpt lat="40.751193" lon="14.8695595"><ele>398.0</ele><time>2026-05-01T10:43:08.968Z</time></trkpt><trkpt lat="40.751156" lon="14.8694388"><ele>398.0</ele><time>2026-05-01T10:43:09.959Z</time></trkpt><trkpt lat="40.7511137" lon="14.8693111"><ele>398.0</ele><time>2026-05-01T10:43:10.971Z</time></trkpt><trkpt lat="40.7510811" lon="14.8691743"><ele>398.0</ele><time>2026-05-01T10:43:11.952Z</time></trkpt><trkpt lat="40.7510599" lon="14.8690422"><ele>398.0</ele><time>2026-05-01T10:43:12.958Z</time></trkpt><trkpt lat="40.7510458" lon="14.8689149"><ele>396.99999999999994</ele><time>2026-05-01T10:43:13.957Z</time></trkpt><trkpt lat="40.7510397" lon="14.8688201"><ele>396.0</ele><time>2026-05-01T10:43:14.966Z</time></trkpt><trkpt lat="40.7510344" lon="14.8687336"><ele>395.0</ele><time>2026-05-01T10:43:15.964Z</time></trkpt><trkpt lat="40.7510019" lon="14.8686355"><ele>394.0</ele><time>2026-05-01T10:43:16.963Z</time></trkpt><trkpt lat="40.7509467" lon="14.8685217"><ele>392.99999999999994</ele><time>2026-05-01T10:43:17.958Z</time></trkpt><trkpt lat="40.7508962" lon="14.8684057"><ele>392.0</ele><time>2026-05-01T10:43:18.946Z</time></trkpt><trkpt lat="40.7508451" lon="14.8682767"><ele>394.8333333333333</ele><time>2026-05-01T10:43:19.964Z</time></trkpt><trkpt lat="40.7508056" lon="14.8681584"><ele>397.66666666666663</ele><time>2026-05-01T10:43:20.957Z</time></trkpt><trkpt lat="40.7507942" lon="14.8680319"><ele>400.5</ele><time>2026-05-01T10:43:21.965Z</time></trkpt><trkpt lat="40.7507954" lon="14.8679063"><ele>403.33333333333337</ele><time>2026-05-01T10:43:22.963Z</time></trkpt><trkpt lat="40.7507999" lon="14.8678011"><ele>406.1666666666667</ele><time>2026-05-01T10:43:23.966Z</time></trkpt><trkpt lat="40.7508096" lon="14.8677186"><ele>409.0</ele><time>2026-05-01T10:43:24.963Z</time></trkpt><trkpt lat="40.7508112" lon="14.8675459"><ele>411.83333333333337</ele><time>2026-05-01T10:43:26.959Z</time></trkpt><trkpt lat="40.7508081" lon="14.8674457"><ele>414.6666666666667</ele><time>2026-05-01T10:43:27.961Z</time></trkpt><trkpt lat="40.7507972" lon="14.867337"><ele>417.5</ele><time>2026-05-01T10:43:28.961Z</time></trkpt><trkpt lat="40.7507742" lon="14.8672255"><ele>420.33333333333337</ele><time>2026-05-01T10:43:29.968Z</time></trkpt><trkpt lat="40.7507534" lon="14.8671104"><ele>423.1666666666667</ele><time>2026-05-01T10:43:30.965Z</time></trkpt><trkpt lat="40.7507426" lon="14.8670088"><ele>426.0</ele><time>2026-05-01T10:43:31.956Z</time></trkpt><trkpt lat="40.7507315" lon="14.866912"><ele>428.1666666666667</ele><time>2026-05-01T10:43:32.966Z</time></trkpt><trkpt lat="40.75069" lon="14.8667635"><ele>430.33333333333337</ele><time>2026-05-01T10:43:34.965Z</time></trkpt><trkpt lat="40.7506994" lon="14.866629"><ele>432.5</ele><time>2026-05-01T10:43:36.967Z</time></trkpt><trkpt lat="40.7507265" lon="14.866547"><ele>434.6666666666667</ele><time>2026-05-01T10:43:37.964Z</time></trkpt><trkpt lat="40.7507511" lon="14.8664683"><ele>436.83333333333337</ele><time>2026-05-01T10:43:38.968Z</time></trkpt><trkpt lat="40.7507566" lon="14.8663841"><ele>439.0</ele><time>2026-05-01T10:43:40.956Z</time></trkpt><trkpt lat="40.7506196" lon="14.8664453"><ele>439.0</ele><time>2026-05-01T10:43:45.974Z</time></trkpt><trkpt lat="40.7505159" lon="14.8664953"><ele>439.0</ele><time>2026-05-01T10:43:46.963Z</time></trkpt><trkpt lat="40.7504105" lon="14.8665336"><ele>439.0</ele><time>2026-05-01T10:43:47.969Z</time></trkpt><trkpt lat="40.75031" lon="14.866587"><ele>439.0</ele><time>2026-05-01T10:43:48.962Z</time></trkpt><trkpt lat="40.7502535" lon="14.8666501"><ele>439.0</ele><time>2026-05-01T10:43:49.963Z</time></trkpt><trkpt lat="40.7502222" lon="14.8667888"><ele>436.4</ele><time>2026-05-01T10:43:51.971Z</time></trkpt><trkpt lat="40.7502447" lon="14.8669079"><ele>433.79999999999995</ele><time>2026-05-01T10:43:53.967Z</time></trkpt><trkpt lat="40.7502761" lon="14.8670213"><ele>431.20000000000005</ele><time>2026-05-01T10:43:55.97Z</time></trkpt><trkpt lat="40.7502539" lon="14.867193"><ele>428.6</ele><time>2026-05-01T10:43:57.958Z</time></trkpt><trkpt lat="40.7502331" lon="14.8672855"><ele>426.0</ele><time>2026-05-01T10:43:58.968Z</time></trkpt><trkpt lat="40.7502165" lon="14.8674264"><ele>428.8</ele><time>2026-05-01T10:44:00.977Z</time></trkpt><trkpt lat="40.7501816" lon="14.86757"><ele>431.6</ele><time>2026-05-01T10:44:02.974Z</time></trkpt><trkpt lat="40.7501368" lon="14.8676542"><ele>434.4</ele><time>2026-05-01T10:44:03.974Z</time></trkpt><trkpt lat="40.7500757" lon="14.8677336"><ele>437.2</ele><time>2026-05-01T10:44:04.966Z</time></trkpt><trkpt lat="40.7500102" lon="14.8677975"><ele>440.0</ele><time>2026-05-01T10:44:05.972Z</time></trkpt><trkpt lat="40.7499215" lon="14.8678605"><ele>439.99999999999994</ele><time>2026-05-01T10:44:07.968Z</time></trkpt><trkpt lat="40.749909" lon="14.8679708"><ele>440.0</ele><time>2026-05-01T10:44:09.969Z</time></trkpt><trkpt lat="40.7499207" lon="14.8680636"><ele>440.0</ele><time>2026-05-01T10:44:10.972Z</time></trkpt><trkpt lat="40.749927" lon="14.8681625"><ele>440.0</ele><time>2026-05-01T10:44:11.972Z</time></trkpt><trkpt lat="40.7499356" lon="14.8682741"><ele>439.99999999999994</ele><time>2026-05-01T10:44:12.97Z</time></trkpt><trkpt lat="40.7499365" lon="14.8683708"><ele>440.0</ele><time>2026-05-01T10:44:13.965Z</time></trkpt><trkpt lat="40.7499445" lon="14.8684647"><ele>439.2</ele><time>2026-05-01T10:44:14.966Z</time></trkpt><trkpt lat="40.7499032" lon="14.8686042"><ele>438.4</ele><time>2026-05-01T10:44:16.974Z</time></trkpt><trkpt lat="40.7498752" lon="14.8687479"><ele>437.6</ele><time>2026-05-01T10:44:18.964Z</time></trkpt><trkpt lat="40.7498744" lon="14.8688389"><ele>436.8</ele><time>2026-05-01T10:44:20.966Z</time></trkpt><trkpt lat="40.749875" lon="14.8689745"><ele>436.0</ele><time>2026-05-01T10:44:22.968Z</time></trkpt><trkpt lat="40.7498505" lon="14.8690669"><ele>436.00000000000006</ele><time>2026-05-01T10:44:23.968Z</time></trkpt><trkpt lat="40.7498145" lon="14.869162"><ele>436.0</ele><time>2026-05-01T10:44:24.972Z</time></trkpt><trkpt lat="40.7497685" lon="14.8692616"><ele>436.0</ele><time>2026-05-01T10:44:25.972Z</time></trkpt><trkpt lat="40.7497269" lon="14.8693516"><ele>436.0</ele><time>2026-05-01T10:44:26.969Z</time></trkpt><trkpt lat="40.7496916" lon="14.8694346"><ele>436.00000000000006</ele><time>2026-05-01T10:44:27.97Z</time></trkpt><trkpt lat="40.7496605" lon="14.8695149"><ele>436.0</ele><time>2026-05-01T10:44:28.97Z</time></trkpt><trkpt lat="40.7496278" lon="14.8695984"><ele>437.8571428571429</ele><time>2026-05-01T10:44:29.98Z</time></trkpt><trkpt lat="40.7495972" lon="14.8696836"><ele>439.7142857142857</ele><time>2026-05-01T10:44:30.975Z</time></trkpt><trkpt lat="40.7495604" lon="14.8697684"><ele>441.57142857142856</ele><time>2026-05-01T10:44:31.962Z</time></trkpt><trkpt lat="40.7495254" lon="14.8698457"><ele>443.42857142857144</ele><time>2026-05-01T10:44:32.975Z</time></trkpt><trkpt lat="40.7494948" lon="14.8699214"><ele>445.2857142857142</ele><time>2026-05-01T10:44:33.973Z</time></trkpt><trkpt lat="40.7494492" lon="14.8699965"><ele>447.1428571428571</ele><time>2026-05-01T10:44:34.973Z</time></trkpt><trkpt lat="40.7493953" lon="14.8700597"><ele>449.0</ele><time>2026-05-01T10:44:35.96Z</time></trkpt><trkpt lat="40.7493332" lon="14.8700929"><ele>449.0</ele><time>2026-05-01T10:44:36.962Z</time></trkpt><trkpt lat="40.749225" lon="14.8700929"><ele>449.0</ele><time>2026-05-01T10:44:38.97Z</time></trkpt><trkpt lat="40.7492695" lon="14.8700075"><ele>449.0</ele><time>2026-05-01T10:44:41.976Z</time></trkpt><trkpt lat="40.7493827" lon="14.8699903"><ele>449.0</ele><time>2026-05-01T10:44:43.975Z</time></trkpt><trkpt lat="40.7494265" lon="14.8698893"><ele>449.0</ele><time>2026-05-01T10:44:45.983Z</time></trkpt><trkpt lat="40.7494409" lon="14.8698015"><ele>448.99999999999994</ele><time>2026-05-01T10:44:46.971Z</time></trkpt><trkpt lat="40.7494459" lon="14.8697176"><ele>449.0</ele><time>2026-05-01T10:44:47.973Z</time></trkpt><trkpt lat="40.7494266" lon="14.8696287"><ele>449.0</ele><time>2026-05-01T10:44:48.975Z</time></trkpt><trkpt lat="40.7493898" lon="14.8695432"><ele>449.0</ele><time>2026-05-01T10:44:49.978Z</time></trkpt><trkpt lat="40.7493654" lon="14.8693847"><ele>448.99999999999994</ele><time>2026-05-01T10:44:51.975Z</time></trkpt><trkpt lat="40.7493768" lon="14.8692956"><ele>449.0</ele><time>2026-05-01T10:44:52.978Z</time></trkpt><trkpt lat="40.7493823" lon="14.8691961"><ele>446.4</ele><time>2026-05-01T10:44:53.969Z</time></trkpt><trkpt lat="40.7493802" lon="14.8690824"><ele>443.79999999999995</ele><time>2026-05-01T10:44:54.976Z</time></trkpt><trkpt lat="40.7493802" lon="14.8689625"><ele>441.20000000000005</ele><time>2026-05-01T10:44:55.975Z</time></trkpt><trkpt lat="40.7493938" lon="14.8688344"><ele>438.6</ele><time>2026-05-01T10:44:56.976Z</time></trkpt><trkpt lat="40.7494105" lon="14.8686937"><ele>436.0</ele><time>2026-05-01T10:44:57.976Z</time></trkpt><trkpt lat="40.7494172" lon="14.8685554"><ele>436.8</ele><time>2026-05-01T10:44:58.977Z</time></trkpt><trkpt lat="40.7494158" lon="14.8684236"><ele>437.6</ele><time>2026-05-01T10:44:59.972Z</time></trkpt><trkpt lat="40.7494005" lon="14.8682959"><ele>438.4</ele><time>2026-05-01T10:45:00.967Z</time></trkpt><trkpt lat="40.7493816" lon="14.8681628"><ele>439.2</ele><time>2026-05-01T10:45:01.97Z</time></trkpt><trkpt lat="40.7493618" lon="14.8680251"><ele>440.0</ele><time>2026-05-01T10:45:02.963Z</time></trkpt><trkpt lat="40.7493401" lon="14.8678862"><ele>445.2</ele><time>2026-05-01T10:45:03.967Z</time></trkpt><trkpt lat="40.7493204" lon="14.8677607"><ele>450.4</ele><time>2026-05-01T10:45:04.968Z</time></trkpt><trkpt lat="40.7493002" lon="14.8676311"><ele>455.6</ele><time>2026-05-01T10:45:05.968Z</time></trkpt><trkpt lat="40.7492756" lon="14.8675089"><ele>460.8</ele><time>2026-05-01T10:45:06.969Z</time></trkpt><trkpt lat="40.7492542" lon="14.8673909"><ele>466.0</ele><time>2026-05-01T10:45:07.954Z</time></trkpt><trkpt lat="40.7492314" lon="14.8672614"><ele>467.4</ele><time>2026-05-01T10:45:08.946Z</time></trkpt><trkpt lat="40.7492187" lon="14.8671186"><ele>468.8</ele><time>2026-05-01T10:45:09.96Z</time></trkpt><trkpt lat="40.7492149" lon="14.8669781"><ele>470.19999999999993</ele><time>2026-05-01T10:45:10.949Z</time></trkpt><trkpt lat="40.7492091" lon="14.8668448"><ele>471.59999999999997</ele><time>2026-05-01T10:45:11.968Z</time></trkpt><trkpt lat="40.7492094" lon="14.8667067"><ele>473.0</ele><time>2026-05-01T10:45:12.949Z</time></trkpt><trkpt lat="40.7492148" lon="14.8665625"><ele>474.2</ele><time>2026-05-01T10:45:13.983Z</time></trkpt><trkpt lat="40.7492227" lon="14.8664196"><ele>475.4</ele><time>2026-05-01T10:45:14.965Z</time></trkpt><trkpt lat="40.7492272" lon="14.8662893"><ele>476.59999999999997</ele><time>2026-05-01T10:45:15.972Z</time></trkpt><trkpt lat="40.7492306" lon="14.8661677"><ele>477.79999999999995</ele><time>2026-05-01T10:45:16.973Z</time></trkpt><trkpt lat="40.7492382" lon="14.8660447"><ele>479.0</ele><time>2026-05-01T10:45:17.962Z</time></trkpt><trkpt lat="40.7492524" lon="14.8659222"><ele>480.49999999999994</ele><time>2026-05-01T10:45:18.97Z</time></trkpt><trkpt lat="40.749258" lon="14.8657981"><ele>482.0</ele><time>2026-05-01T10:45:19.977Z</time></trkpt><trkpt lat="40.749255" lon="14.865683"><ele>483.5</ele><time>2026-05-01T10:45:20.968Z</time></trkpt><trkpt lat="40.7492534" lon="14.8655863"><ele>485.0</ele><time>2026-05-01T10:45:21.974Z</time></trkpt><trkpt lat="40.7492524" lon="14.8654966"><ele>486.49999999999994</ele><time>2026-05-01T10:45:22.976Z</time></trkpt><trkpt lat="40.7492748" lon="14.8653407"><ele>488.0</ele><time>2026-05-01T10:45:24.986Z</time></trkpt><trkpt lat="40.749293" lon="14.8652333"><ele>487.99999999999994</ele><time>2026-05-01T10:45:26.972Z</time></trkpt><trkpt lat="40.7492457" lon="14.8651545"><ele>488.0</ele><time>2026-05-01T10:45:29.976Z</time></trkpt><trkpt lat="40.7491891" lon="14.8650613"><ele>488.0</ele><time>2026-05-01T10:45:32.975Z</time></trkpt><trkpt lat="40.7491773" lon="14.8649646"><ele>488.0</ele><time>2026-05-01T10:45:34.973Z</time></trkpt><trkpt lat="40.7492053" lon="14.8648501"><ele>487.99999999999994</ele><time>2026-05-01T10:45:36.971Z</time></trkpt><trkpt lat="40.7492222" lon="14.8647628"><ele>488.0</ele><time>2026-05-01T10:45:39.032Z</time></trkpt><trkpt lat="40.7492142" lon="14.8646675"><ele>489.99999999999994</ele><time>2026-05-01T10:45:40.976Z</time></trkpt><trkpt lat="40.7491308" lon="14.8646431"><ele>492.0</ele><time>2026-05-01T10:45:43.991Z</time></trkpt><trkpt lat="40.7490722" lon="14.8646115"><ele>494.0</ele><time>2026-05-01T10:45:44.991Z</time></trkpt><trkpt lat="40.7490108" lon="14.8645839"><ele>496.0</ele><time>2026-05-01T10:45:46.046Z</time></trkpt><trkpt lat="40.7489163" lon="14.8645623"><ele>497.99999999999994</ele><time>2026-05-01T10:45:47.97Z</time></trkpt><trkpt lat="40.7488363" lon="14.864523"><ele>500.0</ele><time>2026-05-01T10:45:49.977Z</time></trkpt><trkpt lat="40.7487902" lon="14.8644505"><ele>499.99999999999994</ele><time>2026-05-01T10:45:52.977Z</time></trkpt><trkpt lat="40.7488583" lon="14.8643344"><ele>500.0</ele><time>2026-05-01T10:45:55.97Z</time></trkpt><trkpt lat="40.7489418" lon="14.8643352"><ele>500.0</ele><time>2026-05-01T10:45:57.976Z</time></trkpt><trkpt lat="40.7490013" lon="14.8643005"><ele>500.0</ele><time>2026-05-01T10:45:59.981Z</time></trkpt><trkpt lat="40.749064" lon="14.8642414"><ele>499.99999999999994</ele><time>2026-05-01T10:46:02.974Z</time></trkpt><trkpt lat="40.7490088" lon="14.8641539"><ele>500.0</ele><time>2026-05-01T10:46:07.977Z</time></trkpt><trkpt lat="40.7489604" lon="14.8640859"><ele>503.0</ele><time>2026-05-01T10:46:10.017Z</time></trkpt><trkpt lat="40.7489131" lon="14.8639467"><ele>506.0</ele><time>2026-05-01T10:46:12.04Z</time></trkpt><trkpt lat="40.7489541" lon="14.8637897"><ele>509.0</ele><time>2026-05-01T10:46:13.986Z</time></trkpt><trkpt lat="40.7490067" lon="14.86374"><ele>512.0</ele><time>2026-05-01T10:46:14.977Z</time></trkpt><trkpt lat="40.7490998" lon="14.86369"><ele>515.0</ele><time>2026-05-01T10:46:16.979Z</time></trkpt><trkpt lat="40.7491364" lon="14.863598"><ele>515.0</ele><time>2026-05-01T10:46:18.974Z</time></trkpt><trkpt lat="40.7491211" lon="14.8634679"><ele>515.0</ele><time>2026-05-01T10:46:21.053Z</time></trkpt><trkpt lat="40.7490503" lon="14.8633532"><ele>515.0</ele><time>2026-05-01T10:46:22.973Z</time></trkpt><trkpt lat="40.7489802" lon="14.8632977"><ele>515.0</ele><time>2026-05-01T10:46:24.979Z</time></trkpt><trkpt lat="40.7489279" lon="14.8632279"><ele>515.0</ele><time>2026-05-01T10:46:26.973Z</time></trkpt><trkpt lat="40.7489912" lon="14.8631674"><ele>515.0</ele><time>2026-05-01T10:46:28.996Z</time></trkpt><trkpt lat="40.7490619" lon="14.8631429"><ele>517.8333333333333</ele><time>2026-05-01T10:46:30.972Z</time></trkpt><trkpt lat="40.7491343" lon="14.8630972"><ele>520.6666666666666</ele><time>2026-05-01T10:46:32.975Z</time></trkpt><trkpt lat="40.7491793" lon="14.8630018"><ele>523.5</ele><time>2026-05-01T10:46:34.982Z</time></trkpt><trkpt lat="40.7491901" lon="14.8629096"><ele>526.3333333333334</ele><time>2026-05-01T10:46:35.974Z</time></trkpt><trkpt lat="40.7492032" lon="14.8628002"><ele>529.1666666666667</ele><time>2026-05-01T10:46:36.975Z</time></trkpt><trkpt lat="40.7492137" lon="14.8627037"><ele>532.0</ele><time>2026-05-01T10:46:37.971Z</time></trkpt><trkpt lat="40.749209" lon="14.8626069"><ele>534.6666666666667</ele><time>2026-05-01T10:46:38.964Z</time></trkpt><trkpt lat="40.7491994" lon="14.8625058"><ele>537.3333333333334</ele><time>2026-05-01T10:46:39.972Z</time></trkpt><trkpt lat="40.7491914" lon="14.8624133"><ele>540.0</ele><time>2026-05-01T10:46:40.972Z</time></trkpt><trkpt lat="40.7491936" lon="14.8623239"><ele>542.6666666666666</ele><time>2026-05-01T10:46:41.977Z</time></trkpt><trkpt lat="40.7492086" lon="14.8622342"><ele>545.3333333333333</ele><time>2026-05-01T10:46:43.977Z</time></trkpt><trkpt lat="40.7491673" lon="14.8623379"><ele>548.0</ele><time>2026-05-01T10:46:46.962Z</time></trkpt><trkpt lat="40.7491452" lon="14.86246"><ele>548.0</ele><time>2026-05-01T10:46:48.977Z</time></trkpt><trkpt lat="40.7491002" lon="14.862591"><ele>548.0</ele><time>2026-05-01T10:46:50.998Z</time></trkpt><trkpt lat="40.7490296" lon="14.8624895"><ele>548.0</ele><time>2026-05-01T10:46:54.981Z</time></trkpt><trkpt lat="40.7490441" lon="14.8623359"><ele>548.0</ele><time>2026-05-01T10:46:56.982Z</time></trkpt><trkpt lat="40.7490694" lon="14.8622449"><ele>548.0</ele><time>2026-05-01T10:46:57.982Z</time></trkpt><trkpt lat="40.7491013" lon="14.8621493"><ele>548.0</ele><time>2026-05-01T10:46:58.988Z</time></trkpt><trkpt lat="40.7491411" lon="14.8620607"><ele>548.0</ele><time>2026-05-01T10:46:59.966Z</time></trkpt><trkpt lat="40.7491934" lon="14.8619736"><ele>548.0</ele><time>2026-05-01T10:47:00.971Z</time></trkpt><trkpt lat="40.7492411" lon="14.8619005"><ele>548.0</ele><time>2026-05-01T10:47:01.975Z</time></trkpt><trkpt lat="40.7492908" lon="14.8617588"><ele>548.0</ele><time>2026-05-01T10:47:03.974Z</time></trkpt><trkpt lat="40.7493159" lon="14.8616815"><ele>548.0</ele><time>2026-05-01T10:47:04.979Z</time></trkpt><trkpt lat="40.7493392" lon="14.8615416"><ele>551.1666666666666</ele><time>2026-05-01T10:47:06.976Z</time></trkpt><trkpt lat="40.749293" lon="14.8614099"><ele>554.3333333333333</ele><time>2026-05-01T10:47:08.974Z</time></trkpt><trkpt lat="40.7492462" lon="14.8613437"><ele>557.5</ele><time>2026-05-01T10:47:09.972Z</time></trkpt><trkpt lat="40.7491922" lon="14.8612204"><ele>560.6666666666666</ele><time>2026-05-01T10:47:11.978Z</time></trkpt><trkpt lat="40.7491928" lon="14.8611047"><ele>563.8333333333334</ele><time>2026-05-01T10:47:13.974Z</time></trkpt><trkpt lat="40.7491759" lon="14.8610242"><ele>567.0</ele><time>2026-05-01T10:47:14.973Z</time></trkpt><trkpt lat="40.749191" lon="14.8608855"><ele>569.3333333333334</ele><time>2026-05-01T10:47:16.983Z</time></trkpt><trkpt lat="40.7492554" lon="14.8608145"><ele>571.6666666666666</ele><time>2026-05-01T10:47:18.98Z</time></trkpt><trkpt lat="40.7493304" lon="14.8607499"><ele>574.0</ele><time>2026-05-01T10:47:20.98Z</time></trkpt><trkpt lat="40.7493681" lon="14.8606732"><ele>576.3333333333333</ele><time>2026-05-01T10:47:22.98Z</time></trkpt><trkpt lat="40.7493196" lon="14.8605995"><ele>578.6666666666666</ele><time>2026-05-01T10:47:25.977Z</time></trkpt><trkpt lat="40.749196" lon="14.8605748"><ele>581.0</ele><time>2026-05-01T10:47:27.981Z</time></trkpt><trkpt lat="40.7491193" lon="14.86056"><ele>581.0</ele><time>2026-05-01T10:47:28.979Z</time></trkpt><trkpt lat="40.7490377" lon="14.8605372"><ele>581.0</ele><time>2026-05-01T10:47:29.982Z</time></trkpt><trkpt lat="40.7489562" lon="14.8605161"><ele>581.0</ele><time>2026-05-01T10:47:30.981Z</time></trkpt><trkpt lat="40.7489023" lon="14.8604591"><ele>581.0</ele><time>2026-05-01T10:47:32.967Z</time></trkpt><trkpt lat="40.7489555" lon="14.8603832"><ele>581.0</ele><time>2026-05-01T10:47:34.953Z</time></trkpt><trkpt lat="40.7490227" lon="14.8603496"><ele>581.0</ele><time>2026-05-01T10:47:35.967Z</time></trkpt><trkpt lat="40.7490843" lon="14.8603058"><ele>581.0</ele><time>2026-05-01T10:47:36.976Z</time></trkpt><trkpt lat="40.7491362" lon="14.8602491"><ele>581.0</ele><time>2026-05-01T10:47:37.969Z</time></trkpt><trkpt lat="40.7492209" lon="14.8601601"><ele>581.0</ele><time>2026-05-01T10:47:39.986Z</time></trkpt><trkpt lat="40.749297" lon="14.8600399"><ele>581.0</ele><time>2026-05-01T10:47:41.966Z</time></trkpt><trkpt lat="40.7493752" lon="14.8599249"><ele>581.0</ele><time>2026-05-01T10:47:43.974Z</time></trkpt><trkpt lat="40.7494797" lon="14.8598684"><ele>582.2</ele><time>2026-05-01T10:47:45.95Z</time></trkpt><trkpt lat="40.7495769" lon="14.8598041"><ele>583.4000000000001</ele><time>2026-05-01T10:47:47.985Z</time></trkpt><trkpt lat="40.7494302" lon="14.859778"><ele>584.6</ele><time>2026-05-01T10:47:52.973Z</time></trkpt><trkpt lat="40.749355" lon="14.8597772"><ele>585.8000000000001</ele><time>2026-05-01T10:47:53.964Z</time></trkpt><trkpt lat="40.7492793" lon="14.8597709"><ele>587.0</ele><time>2026-05-01T10:47:54.971Z</time></trkpt><trkpt lat="40.7492059" lon="14.8597679"><ele>589.6666666666666</ele><time>2026-05-01T10:47:55.973Z</time></trkpt><trkpt lat="40.7491329" lon="14.8597508"><ele>592.3333333333333</ele><time>2026-05-01T10:47:56.981Z</time></trkpt><trkpt lat="40.7490626" lon="14.8597045"><ele>595.0</ele><time>2026-05-01T10:47:57.972Z</time></trkpt><trkpt lat="40.748989" lon="14.8596747"><ele>597.6666666666666</ele><time>2026-05-01T10:47:58.98Z</time></trkpt><trkpt lat="40.7489226" lon="14.8596416"><ele>600.3333333333334</ele><time>2026-05-01T10:47:59.965Z</time></trkpt><trkpt lat="40.7488576" lon="14.8595841"><ele>603.0</ele><time>2026-05-01T10:48:01.97Z</time></trkpt><trkpt lat="40.7489226" lon="14.8595299"><ele>603.0</ele><time>2026-05-01T10:48:05.987Z</time></trkpt><trkpt lat="40.7489993" lon="14.8595042"><ele>603.0</ele><time>2026-05-01T10:48:09.98Z</time></trkpt><trkpt lat="40.749059" lon="14.8594644"><ele>603.0</ele><time>2026-05-01T10:48:12.985Z</time></trkpt><trkpt lat="40.7491075" lon="14.8593951"><ele>603.0</ele><time>2026-05-01T10:48:14.978Z</time></trkpt><trkpt lat="40.7491584" lon="14.859327"><ele>603.0</ele><time>2026-05-01T10:48:17.99Z</time></trkpt><trkpt lat="40.7492068" lon="14.8592668"><ele>603.0</ele><time>2026-05-01T10:48:21.98Z</time></trkpt><trkpt lat="40.7491848" lon="14.8591609"><ele>603.0</ele><time>2026-05-01T10:48:24.971Z</time></trkpt><trkpt lat="40.7491501" lon="14.8590623"><ele>607.1999999999999</ele><time>2026-05-01T10:48:26.985Z</time></trkpt><trkpt lat="40.7491321" lon="14.8589717"><ele>611.4</ele><time>2026-05-01T10:48:27.982Z</time></trkpt><trkpt lat="40.7491106" lon="14.8588778"><ele>615.5999999999999</ele><time>2026-05-01T10:48:28.973Z</time></trkpt><trkpt lat="40.7490775" lon="14.8587235"><ele>619.8</ele><time>2026-05-01T10:48:30.963Z</time></trkpt><trkpt lat="40.7490747" lon="14.8586044"><ele>624.0</ele><time>2026-05-01T10:48:32.976Z</time></trkpt><trkpt lat="40.7490311" lon="14.8584559"><ele>626.6</ele><time>2026-05-01T10:48:34.979Z</time></trkpt><trkpt lat="40.7490063" lon="14.8583765"><ele>629.2</ele><time>2026-05-01T10:48:35.977Z</time></trkpt><trkpt lat="40.7489301" lon="14.8582645"><ele>631.8000000000001</ele><time>2026-05-01T10:48:37.953Z</time></trkpt><trkpt lat="40.7488327" lon="14.8581482"><ele>634.4</ele><time>2026-05-01T10:48:39.974Z</time></trkpt><trkpt lat="40.7487648" lon="14.8580844"><ele>637.0</ele><time>2026-05-01T10:48:40.974Z</time></trkpt><trkpt lat="40.7486918" lon="14.8580294"><ele>637.0</ele><time>2026-05-01T10:48:41.972Z</time></trkpt><trkpt lat="40.7486173" lon="14.8579789"><ele>637.0</ele><time>2026-05-01T10:48:42.974Z</time></trkpt><trkpt lat="40.7485377" lon="14.8579188"><ele>637.0</ele><time>2026-05-01T10:48:43.973Z</time></trkpt><trkpt lat="40.7484514" lon="14.8578564"><ele>637.0</ele><time>2026-05-01T10:48:44.974Z</time></trkpt><trkpt lat="40.7483654" lon="14.8577958"><ele>637.0</ele><time>2026-05-01T10:48:45.972Z</time></trkpt><trkpt lat="40.7482821" lon="14.8577237"><ele>637.4</ele><time>2026-05-01T10:48:46.975Z</time></trkpt><trkpt lat="40.7481995" lon="14.8576405"><ele>637.8000000000001</ele><time>2026-05-01T10:48:47.967Z</time></trkpt><trkpt lat="40.7481178" lon="14.8575499"><ele>638.2</ele><time>2026-05-01T10:48:48.98Z</time></trkpt><trkpt lat="40.7480449" lon="14.8574743"><ele>638.6</ele><time>2026-05-01T10:48:49.978Z</time></trkpt><trkpt lat="40.7479603" lon="14.8574263"><ele>639.0</ele><time>2026-05-01T10:48:50.972Z</time></trkpt><trkpt lat="40.74787" lon="14.8573945"><ele>641.5</ele><time>2026-05-01T10:48:51.976Z</time></trkpt><trkpt lat="40.7477793" lon="14.8573524"><ele>644.0</ele><time>2026-05-01T10:48:52.98Z</time></trkpt><trkpt lat="40.7476898" lon="14.8573072"><ele>646.5</ele><time>2026-05-01T10:48:53.982Z</time></trkpt><trkpt lat="40.7476185" lon="14.8572684"><ele>649.0</ele><time>2026-05-01T10:48:54.974Z</time></trkpt><trkpt lat="40.7475669" lon="14.8572168"><ele>651.5</ele><time>2026-05-01T10:48:56.979Z</time></trkpt><trkpt lat="40.7476066" lon="14.8571267"><ele>654.0</ele><time>2026-05-01T10:48:58.958Z</time></trkpt><trkpt lat="40.7476281" lon="14.8570421"><ele>654.0</ele><time>2026-05-01T10:48:59.983Z</time></trkpt><trkpt lat="40.7476317" lon="14.8568806"><ele>654.0</ele><time>2026-05-01T10:49:01.984Z</time></trkpt><trkpt lat="40.7476402" lon="14.856791"><ele>654.0</ele><time>2026-05-01T10:49:02.959Z</time></trkpt><trkpt lat="40.7476478" lon="14.8567064"><ele>654.0</ele><time>2026-05-01T10:49:03.963Z</time></trkpt><trkpt lat="40.7476424" lon="14.8566146"><ele>654.0</ele><time>2026-05-01T10:49:04.973Z</time></trkpt><trkpt lat="40.7476364" lon="14.8565067"><ele>654.0</ele><time>2026-05-01T10:49:05.975Z</time></trkpt><trkpt lat="40.7476341" lon="14.8563938"><ele>658.4000000000001</ele><time>2026-05-01T10:49:06.974Z</time></trkpt><trkpt lat="40.7476359" lon="14.856271"><ele>662.8</ele><time>2026-05-01T10:49:07.975Z</time></trkpt><trkpt lat="40.7476428" lon="14.8561401"><ele>667.2</ele><time>2026-05-01T10:49:08.953Z</time></trkpt><trkpt lat="40.747655" lon="14.8560066"><ele>671.5999999999999</ele><time>2026-05-01T10:49:09.975Z</time></trkpt><trkpt lat="40.7476931" lon="14.8558741"><ele>676.0</ele><time>2026-05-01T10:49:10.977Z</time></trkpt><trkpt lat="40.747727" lon="14.8557459"><ele>676.0</ele><time>2026-05-01T10:49:11.977Z</time></trkpt><trkpt lat="40.7477577" lon="14.8556407"><ele>676.0</ele><time>2026-05-01T10:49:12.988Z</time></trkpt><trkpt lat="40.7477704" lon="14.8555544"><ele>676.0</ele><time>2026-05-01T10:49:13.972Z</time></trkpt><trkpt lat="40.7477239" lon="14.8553667"><ele>676.0</ele><time>2026-05-01T10:49:15.978Z</time></trkpt><trkpt lat="40.7476664" lon="14.8552513"><ele>676.0</ele><time>2026-05-01T10:49:16.974Z</time></trkpt><trkpt lat="40.747627" lon="14.855146"><ele>679.8333333333334</ele><time>2026-05-01T10:49:17.98Z</time></trkpt><trkpt lat="40.7475884" lon="14.8550428"><ele>683.6666666666667</ele><time>2026-05-01T10:49:18.968Z</time></trkpt><trkpt lat="40.7475511" lon="14.8549323"><ele>687.5</ele><time>2026-05-01T10:49:19.982Z</time></trkpt><trkpt lat="40.747508" lon="14.8548279"><ele>691.3333333333334</ele><time>2026-05-01T10:49:20.973Z</time></trkpt><trkpt lat="40.7474627" lon="14.8547287"><ele>695.1666666666666</ele><time>2026-05-01T10:49:21.971Z</time></trkpt><trkpt lat="40.7474102" lon="14.8546294"><ele>699.0</ele><time>2026-05-01T10:49:22.97Z</time></trkpt><trkpt lat="40.7473408" lon="14.8545302"><ele>699.0</ele><time>2026-05-01T10:49:23.972Z</time></trkpt><trkpt lat="40.747259" lon="14.854441"><ele>699.0</ele><time>2026-05-01T10:49:24.964Z</time></trkpt><trkpt lat="40.7471793" lon="14.8543542"><ele>699.0</ele><time>2026-05-01T10:49:25.957Z</time></trkpt><trkpt lat="40.7471271" lon="14.85429"><ele>699.0</ele><time>2026-05-01T10:49:26.969Z</time></trkpt><trkpt lat="40.7471199" lon="14.8541908"><ele>699.0</ele><time>2026-05-01T10:49:28.967Z</time></trkpt><trkpt lat="40.7471956" lon="14.8540471"><ele>700.0</ele><time>2026-05-01T10:49:30.958Z</time></trkpt><trkpt lat="40.7472337" lon="14.8539686"><ele>701.0</ele><time>2026-05-01T10:49:31.973Z</time></trkpt><trkpt lat="40.7472711" lon="14.8538946"><ele>702.0</ele><time>2026-05-01T10:49:32.971Z</time></trkpt><trkpt lat="40.7473564" lon="14.8538358"><ele>703.0</ele><time>2026-05-01T10:49:35.975Z</time></trkpt><trkpt lat="40.7474294" lon="14.8538398"><ele>704.0</ele><time>2026-05-01T10:49:36.979Z</time></trkpt><trkpt lat="40.7474934" lon="14.8538327"><ele>705.0</ele><time>2026-05-01T10:49:37.947Z</time></trkpt><trkpt lat="40.7475651" lon="14.8538367"><ele>706.0</ele><time>2026-05-01T10:49:38.975Z</time></trkpt><trkpt lat="40.7476635" lon="14.8538283"><ele>702.8</ele><time>2026-05-01T10:49:39.969Z</time></trkpt><trkpt lat="40.7477522" lon="14.8538025"><ele>699.5999999999999</ele><time>2026-05-01T10:49:40.97Z</time></trkpt><trkpt lat="40.7478401" lon="14.8537442"><ele>696.4</ele><time>2026-05-01T10:49:41.965Z</time></trkpt><trkpt lat="40.7479379" lon="14.8536803"><ele>693.2</ele><time>2026-05-01T10:49:42.964Z</time></trkpt><trkpt lat="40.7480316" lon="14.8536086"><ele>690.0</ele><time>2026-05-01T10:49:43.966Z</time></trkpt><trkpt lat="40.7481083" lon="14.8535393"><ele>694.0</ele><time>2026-05-01T10:49:44.969Z</time></trkpt><trkpt lat="40.7481697" lon="14.8534539"><ele>698.0</ele><time>2026-05-01T10:49:45.957Z</time></trkpt><trkpt lat="40.7482059" lon="14.8533523"><ele>702.0</ele><time>2026-05-01T10:49:46.972Z</time></trkpt><trkpt lat="40.7482404" lon="14.8532351"><ele>706.0</ele><time>2026-05-01T10:49:47.977Z</time></trkpt><trkpt lat="40.7482768" lon="14.8531265"><ele>710.0</ele><time>2026-05-01T10:49:48.981Z</time></trkpt><trkpt lat="40.7482915" lon="14.8530313"><ele>714.0</ele><time>2026-05-01T10:49:49.976Z</time></trkpt><trkpt lat="40.7482765" lon="14.8529221"><ele>714.0</ele><time>2026-05-01T10:49:50.972Z</time></trkpt><trkpt lat="40.7482545" lon="14.8527913"><ele>714.0</ele><time>2026-05-01T10:49:51.982Z</time></trkpt><trkpt lat="40.7482345" lon="14.8526508"><ele>714.0</ele><time>2026-05-01T10:49:52.976Z</time></trkpt><trkpt lat="40.7482189" lon="14.8525181"><ele>714.0</ele><time>2026-05-01T10:49:53.976Z</time></trkpt><trkpt lat="40.7482098" lon="14.8523919"><ele>714.0</ele><time>2026-05-01T10:49:54.966Z</time></trkpt><trkpt lat="40.7481789" lon="14.8523138"><ele>714.0</ele><time>2026-05-01T10:49:58.97Z</time></trkpt><trkpt lat="40.7481942" lon="14.8524748"><ele>714.0</ele><time>2026-05-01T10:50:02.985Z</time></trkpt><trkpt lat="40.7482023" lon="14.8526039"><ele>714.0</ele><time>2026-05-01T10:50:03.979Z</time></trkpt><trkpt lat="40.7482001" lon="14.8527422"><ele>714.0</ele><time>2026-05-01T10:50:04.978Z</time></trkpt><trkpt lat="40.7481837" lon="14.8528488"><ele>714.0</ele><time>2026-05-01T10:50:05.974Z</time></trkpt><trkpt lat="40.7481457" lon="14.8529402"><ele>714.0</ele><time>2026-05-01T10:50:06.975Z</time></trkpt><trkpt lat="40.7481072" lon="14.8530074"><ele>714.0</ele><time>2026-05-01T10:50:07.966Z</time></trkpt><trkpt lat="40.7480406" lon="14.8530716"><ele>714.0</ele><time>2026-05-01T10:50:08.968Z</time></trkpt><trkpt lat="40.7479587" lon="14.8531339"><ele>714.0</ele><time>2026-05-01T10:50:09.971Z</time></trkpt><trkpt lat="40.7478645" lon="14.8531838"><ele>714.0</ele><time>2026-05-01T10:50:10.972Z</time></trkpt><trkpt lat="40.7477861" lon="14.8532205"><ele>714.0</ele><time>2026-05-01T10:50:11.966Z</time></trkpt><trkpt lat="40.747698" lon="14.853242"><ele>718.4000000000001</ele><time>2026-05-01T10:50:12.974Z</time></trkpt><trkpt lat="40.747598" lon="14.8532529"><ele>722.8</ele><time>2026-05-01T10:50:13.969Z</time></trkpt><trkpt lat="40.7474975" lon="14.8532658"><ele>727.2</ele><time>2026-05-01T10:50:14.974Z</time></trkpt><trkpt lat="40.7473925" lon="14.8532496"><ele>731.5999999999999</ele><time>2026-05-01T10:50:15.975Z</time></trkpt><trkpt lat="40.7472793" lon="14.8532145"><ele>736.0</ele><time>2026-05-01T10:50:16.974Z</time></trkpt><trkpt lat="40.7471783" lon="14.8531764"><ele>736.0</ele><time>2026-05-01T10:50:17.957Z</time></trkpt><trkpt lat="40.7471002" lon="14.8532076"><ele>736.0</ele><time>2026-05-01T10:50:19.977Z</time></trkpt><trkpt lat="40.7470693" lon="14.8533465"><ele>736.0</ele><time>2026-05-01T10:50:21.946Z</time></trkpt><trkpt lat="40.7469414" lon="14.8534414"><ele>736.0</ele><time>2026-05-01T10:50:23.97Z</time></trkpt><trkpt lat="40.7468125" lon="14.8534505"><ele>734.5999999999999</ele><time>2026-05-01T10:50:24.978Z</time></trkpt><trkpt lat="40.7466964" lon="14.8534526"><ele>733.2</ele><time>2026-05-01T10:50:25.969Z</time></trkpt><trkpt lat="40.7466209" lon="14.8534549"><ele>731.8</ele><time>2026-05-01T10:50:26.965Z</time></trkpt><trkpt lat="40.7465709" lon="14.8536054"><ele>730.4000000000001</ele><time>2026-05-01T10:50:29.963Z</time></trkpt><trkpt lat="40.7465503" lon="14.8537133"><ele>729.0</ele><time>2026-05-01T10:50:30.969Z</time></trkpt><trkpt lat="40.7465174" lon="14.8538354"><ele>729.0</ele><time>2026-05-01T10:50:31.965Z</time></trkpt><trkpt lat="40.7464659" lon="14.8539678"><ele>729.0</ele><time>2026-05-01T10:50:32.977Z</time></trkpt><trkpt lat="40.7464151" lon="14.8540887"><ele>729.0</ele><time>2026-05-01T10:50:33.969Z</time></trkpt><trkpt lat="40.7463735" lon="14.8541856"><ele>729.0</ele><time>2026-05-01T10:50:34.965Z</time></trkpt><trkpt lat="40.7463022" lon="14.8542734"><ele>729.0</ele><time>2026-05-01T10:50:36.99Z</time></trkpt><trkpt lat="40.7461844" lon="14.8543151"><ele>729.0</ele><time>2026-05-01T10:50:38.97Z</time></trkpt><trkpt lat="40.7461134" lon="14.8542969"><ele>729.0</ele><time>2026-05-01T10:50:39.967Z</time></trkpt><trkpt lat="40.7460471" lon="14.8542604"><ele>729.0</ele><time>2026-05-01T10:50:40.954Z</time></trkpt><trkpt lat="40.7459778" lon="14.854224"><ele>729.0</ele><time>2026-05-01T10:50:41.961Z</time></trkpt><trkpt lat="40.7458989" lon="14.8541705"><ele>729.0</ele><time>2026-05-01T10:50:42.972Z</time></trkpt><trkpt lat="40.7458129" lon="14.8540953"><ele>729.0</ele><time>2026-05-01T10:50:43.962Z</time></trkpt><trkpt lat="40.7457318" lon="14.8540314"><ele>729.0</ele><time>2026-05-01T10:50:44.97Z</time></trkpt><trkpt lat="40.745653" lon="14.854009"><ele>729.0</ele><time>2026-05-01T10:50:45.968Z</time></trkpt><trkpt lat="40.7455532" lon="14.8540293"><ele>729.0</ele><time>2026-05-01T10:50:46.973Z</time></trkpt><trkpt lat="40.745452" lon="14.8540446"><ele>729.0</ele><time>2026-05-01T10:50:47.967Z</time></trkpt><trkpt lat="40.7453856" lon="14.8540801"><ele>729.0</ele><time>2026-05-01T10:50:48.967Z</time></trkpt><trkpt lat="40.7453531" lon="14.8542006"><ele>724.2</ele><time>2026-05-01T10:50:50.962Z</time></trkpt><trkpt lat="40.7453662" lon="14.8543667"><ele>719.4000000000001</ele><time>2026-05-01T10:50:52.973Z</time></trkpt><trkpt lat="40.745299" lon="14.854492"><ele>714.6</ele><time>2026-05-01T10:50:54.974Z</time></trkpt><trkpt lat="40.745215" lon="14.8545528"><ele>709.8</ele><time>2026-05-01T10:50:56.968Z</time></trkpt><trkpt lat="40.7451416" lon="14.8545465"><ele>705.0</ele><time>2026-05-01T10:50:57.964Z</time></trkpt><trkpt lat="40.7450569" lon="14.8545322"><ele>705.0</ele><time>2026-05-01T10:50:58.978Z</time></trkpt><trkpt lat="40.7449854" lon="14.8545135"><ele>705.0</ele><time>2026-05-01T10:50:59.965Z</time></trkpt><trkpt lat="40.7448909" lon="14.854499"><ele>705.0</ele><time>2026-05-01T10:51:01.98Z</time></trkpt><trkpt lat="40.7448064" lon="14.8545975"><ele>705.0</ele><time>2026-05-01T10:51:03.982Z</time></trkpt><trkpt lat="40.7447476" lon="14.8546834"><ele>705.0</ele><time>2026-05-01T10:51:04.973Z</time></trkpt><trkpt lat="40.7446699" lon="14.8547638"><ele>705.0</ele><time>2026-05-01T10:51:05.977Z</time></trkpt><trkpt lat="40.7445752" lon="14.8548596"><ele>705.0</ele><time>2026-05-01T10:51:06.974Z</time></trkpt><trkpt lat="40.7444899" lon="14.8549508"><ele>705.0</ele><time>2026-05-01T10:51:07.962Z</time></trkpt><trkpt lat="40.7444184" lon="14.8550284"><ele>705.0</ele><time>2026-05-01T10:51:08.957Z</time></trkpt><trkpt lat="40.7443489" lon="14.8550957"><ele>705.0</ele><time>2026-05-01T10:51:09.97Z</time></trkpt><trkpt lat="40.7442742" lon="14.8551546"><ele>707.6</ele><time>2026-05-01T10:51:10.974Z</time></trkpt><trkpt lat="40.7441959" lon="14.8551952"><ele>710.2</ele><time>2026-05-01T10:51:11.981Z</time></trkpt><trkpt lat="40.7441259" lon="14.8552317"><ele>712.8</ele><time>2026-05-01T10:51:13.979Z</time></trkpt><trkpt lat="40.7440958" lon="14.8553353"><ele>715.4</ele><time>2026-05-01T10:51:16.972Z</time></trkpt><trkpt lat="40.7440797" lon="14.8554896"><ele>718.0</ele><time>2026-05-01T10:51:18.979Z</time></trkpt><trkpt lat="40.7440739" lon="14.8556504"><ele>718.0</ele><time>2026-05-01T10:51:20.973Z</time></trkpt><trkpt lat="40.7440836" lon="14.8557725"><ele>718.0</ele><time>2026-05-01T10:51:21.967Z</time></trkpt><trkpt lat="40.74408" lon="14.8559083"><ele>718.0</ele><time>2026-05-01T10:51:22.977Z</time></trkpt><trkpt lat="40.7440772" lon="14.8560454"><ele>718.0</ele><time>2026-05-01T10:51:23.976Z</time></trkpt><trkpt lat="40.7440654" lon="14.8561468"><ele>718.0</ele><time>2026-05-01T10:51:24.977Z</time></trkpt><trkpt lat="40.7440402" lon="14.856225"><ele>718.0</ele><time>2026-05-01T10:51:25.964Z</time></trkpt><trkpt lat="40.7439346" lon="14.8562467"><ele>717.6666666666667</ele><time>2026-05-01T10:51:27.969Z</time></trkpt><trkpt lat="40.7438567" lon="14.8561924"><ele>717.3333333333334</ele><time>2026-05-01T10:51:28.968Z</time></trkpt><trkpt lat="40.7437645" lon="14.8561297"><ele>717.0</ele><time>2026-05-01T10:51:29.968Z</time></trkpt><trkpt lat="40.7436843" lon="14.8560638"><ele>716.6666666666666</ele><time>2026-05-01T10:51:30.962Z</time></trkpt><trkpt lat="40.7436152" lon="14.8560029"><ele>716.3333333333333</ele><time>2026-05-01T10:51:31.968Z</time></trkpt><trkpt lat="40.7435506" lon="14.8559693"><ele>716.0</ele><time>2026-05-01T10:51:32.966Z</time></trkpt><trkpt lat="40.743487" lon="14.8559952"><ele>716.0</ele><time>2026-05-01T10:51:33.973Z</time></trkpt><trkpt lat="40.7434373" lon="14.8560506"><ele>716.0</ele><time>2026-05-01T10:51:34.98Z</time></trkpt><trkpt lat="40.7434117" lon="14.8562063"><ele>716.0</ele><time>2026-05-01T10:51:36.976Z</time></trkpt><trkpt lat="40.7434092" lon="14.8563066"><ele>716.0</ele><time>2026-05-01T10:51:37.978Z</time></trkpt><trkpt lat="40.7433938" lon="14.8563958"><ele>716.0</ele><time>2026-05-01T10:51:38.964Z</time></trkpt><trkpt lat="40.7433627" lon="14.8564843"><ele>716.0</ele><time>2026-05-01T10:51:39.972Z</time></trkpt><trkpt lat="40.7433045" lon="14.8565565"><ele>716.0</ele><time>2026-05-01T10:51:41.018Z</time></trkpt><trkpt lat="40.7432576" lon="14.8566316"><ele>716.0</ele><time>2026-05-01T10:51:42.01Z</time></trkpt><trkpt lat="40.7432291" lon="14.8567178"><ele>716.0</ele><time>2026-05-01T10:51:42.971Z</time></trkpt><trkpt lat="40.7432282" lon="14.8568035"><ele>716.0</ele><time>2026-05-01T10:51:43.978Z</time></trkpt><trkpt lat="40.7432351" lon="14.8568906"><ele>716.0</ele><time>2026-05-01T10:51:44.974Z</time></trkpt><trkpt lat="40.7432034" lon="14.8570594"><ele>716.0</ele><time>2026-05-01T10:51:46.971Z</time></trkpt><trkpt lat="40.7431661" lon="14.8571495"><ele>711.4</ele><time>2026-05-01T10:51:47.97Z</time></trkpt><trkpt lat="40.7431162" lon="14.8572419"><ele>706.8</ele><time>2026-05-01T10:51:48.976Z</time></trkpt><trkpt lat="40.7430716" lon="14.8573353"><ele>702.1999999999999</ele><time>2026-05-01T10:51:49.97Z</time></trkpt><trkpt lat="40.7430313" lon="14.8574144"><ele>697.5999999999999</ele><time>2026-05-01T10:51:51.09Z</time></trkpt><trkpt lat="40.7429582" lon="14.8575633"><ele>693.0</ele><time>2026-05-01T10:51:52.973Z</time></trkpt><trkpt lat="40.7429643" lon="14.8576714"><ele>690.5</ele><time>2026-05-01T10:51:55.043Z</time></trkpt><trkpt lat="40.7429988" lon="14.8577611"><ele>688.0</ele><time>2026-05-01T10:51:56.958Z</time></trkpt><trkpt lat="40.743012" lon="14.8578707"><ele>685.5</ele><time>2026-05-01T10:51:59.038Z</time></trkpt><trkpt lat="40.742997" lon="14.8579591"><ele>683.0</ele><time>2026-05-01T10:52:00.021Z</time></trkpt><trkpt lat="40.7429511" lon="14.8580279"><ele>680.5</ele><time>2026-05-01T10:52:00.973Z</time></trkpt><trkpt lat="40.7428727" lon="14.8580432"><ele>678.0</ele><time>2026-05-01T10:52:01.98Z</time></trkpt><trkpt lat="40.7427825" lon="14.8580369"><ele>683.5</ele><time>2026-05-01T10:52:02.972Z</time></trkpt><trkpt lat="40.7426976" lon="14.858047"><ele>689.0</ele><time>2026-05-01T10:52:03.981Z</time></trkpt><trkpt lat="40.7426245" lon="14.8580695"><ele>694.5</ele><time>2026-05-01T10:52:04.968Z</time></trkpt><trkpt lat="40.7425378" lon="14.8581028"><ele>700.0</ele><time>2026-05-01T10:52:06.052Z</time></trkpt><trkpt lat="40.7424412" lon="14.8581418"><ele>705.5</ele><time>2026-05-01T10:52:07.023Z</time></trkpt><trkpt lat="40.7423666" lon="14.858166"><ele>711.0</ele><time>2026-05-01T10:52:07.968Z</time></trkpt><trkpt lat="40.7423048" lon="14.8582054"><ele>711.0</ele><time>2026-05-01T10:52:09.976Z</time></trkpt><trkpt lat="40.7423352" lon="14.8583577"><ele>711.0</ele><time>2026-05-01T10:52:11.974Z</time></trkpt><trkpt lat="40.7423612" lon="14.8584533"><ele>711.0</ele><time>2026-05-01T10:52:12.972Z</time></trkpt><trkpt lat="40.7423908" lon="14.858537"><ele>711.0</ele><time>2026-05-01T10:52:13.952Z</time></trkpt><trkpt lat="40.7424279" lon="14.8586194"><ele>711.0</ele><time>2026-05-01T10:52:15.046Z</time></trkpt><trkpt lat="40.7424715" lon="14.858682"><ele>711.0</ele><time>2026-05-01T10:52:16.026Z</time></trkpt><trkpt lat="40.7425205" lon="14.8587469"><ele>711.7142857142858</ele><time>2026-05-01T10:52:17.012Z</time></trkpt><trkpt lat="40.7425754" lon="14.8588084"><ele>712.4285714285714</ele><time>2026-05-01T10:52:17.969Z</time></trkpt><trkpt lat="40.7426298" lon="14.8588613"><ele>713.1428571428571</ele><time>2026-05-01T10:52:18.968Z</time></trkpt><trkpt lat="40.7426834" lon="14.8589085"><ele>713.8571428571429</ele><time>2026-05-01T10:52:19.99Z</time></trkpt><trkpt lat="40.7427291" lon="14.8589665"><ele>714.5714285714286</ele><time>2026-05-01T10:52:21.031Z</time></trkpt><trkpt lat="40.7427665" lon="14.8590349"><ele>715.2857142857143</ele><time>2026-05-01T10:52:22.019Z</time></trkpt><trkpt lat="40.7428222" lon="14.8591632"><ele>716.0</ele><time>2026-05-01T10:52:23.963Z</time></trkpt><trkpt lat="40.7429066" lon="14.8592535"><ele>710.5714285714287</ele><time>2026-05-01T10:52:26.028Z</time></trkpt><trkpt lat="40.742966" lon="14.8592932"><ele>705.1428571428571</ele><time>2026-05-01T10:52:27.032Z</time></trkpt><trkpt lat="40.7430262" lon="14.8593422"><ele>699.7142857142858</ele><time>2026-05-01T10:52:27.958Z</time></trkpt><trkpt lat="40.7430817" lon="14.8593961"><ele>694.2857142857143</ele><time>2026-05-01T10:52:28.965Z</time></trkpt><trkpt lat="40.743134" lon="14.8594474"><ele>688.8571428571429</ele><time>2026-05-01T10:52:29.972Z</time></trkpt><trkpt lat="40.7431783" lon="14.8595141"><ele>683.4285714285714</ele><time>2026-05-01T10:52:31.014Z</time></trkpt><trkpt lat="40.7432257" lon="14.8595936"><ele>678.0</ele><time>2026-05-01T10:52:32.014Z</time></trkpt><trkpt lat="40.743272" lon="14.859673"><ele>678.0</ele><time>2026-05-01T10:52:32.97Z</time></trkpt><trkpt lat="40.7433175" lon="14.8597578"><ele>678.0</ele><time>2026-05-01T10:52:33.972Z</time></trkpt><trkpt lat="40.7433686" lon="14.8598405"><ele>678.0</ele><time>2026-05-01T10:52:34.984Z</time></trkpt><trkpt lat="40.7434074" lon="14.8599209"><ele>678.0</ele><time>2026-05-01T10:52:36.02Z</time></trkpt><trkpt lat="40.7434186" lon="14.8600868"><ele>678.0</ele><time>2026-05-01T10:52:37.962Z</time></trkpt><trkpt lat="40.7434009" lon="14.8602025"><ele>678.0</ele><time>2026-05-01T10:52:38.965Z</time></trkpt><trkpt lat="40.7433693" lon="14.8603277"><ele>677.0</ele><time>2026-05-01T10:52:39.983Z</time></trkpt><trkpt lat="40.7433266" lon="14.8604627"><ele>676.0</ele><time>2026-05-01T10:52:41.025Z</time></trkpt><trkpt lat="40.743281" lon="14.8605862"><ele>675.0</ele><time>2026-05-01T10:52:41.966Z</time></trkpt><trkpt lat="40.7432454" lon="14.8606771"><ele>674.0</ele><time>2026-05-01T10:52:42.972Z</time></trkpt><trkpt lat="40.7432114" lon="14.8607632"><ele>673.0</ele><time>2026-05-01T10:52:43.953Z</time></trkpt><trkpt lat="40.7431848" lon="14.8608572"><ele>672.0</ele><time>2026-05-01T10:52:44.975Z</time></trkpt><trkpt lat="40.7431559" lon="14.8609423"><ele>669.6666666666666</ele><time>2026-05-01T10:52:45.967Z</time></trkpt><trkpt lat="40.7431204" lon="14.8610131"><ele>667.3333333333334</ele><time>2026-05-01T10:52:46.968Z</time></trkpt><trkpt lat="40.7430724" lon="14.8610718"><ele>665.0</ele><time>2026-05-01T10:52:48.974Z</time></trkpt><trkpt lat="40.7429472" lon="14.861063"><ele>662.6666666666667</ele><time>2026-05-01T10:52:50.97Z</time></trkpt><trkpt lat="40.7428692" lon="14.8610686"><ele>660.3333333333334</ele><time>2026-05-01T10:52:51.975Z</time></trkpt><trkpt lat="40.7427969" lon="14.8610582"><ele>658.0</ele><time>2026-05-01T10:52:52.973Z</time></trkpt><trkpt lat="40.7426848" lon="14.8609906"><ele>661.3333333333334</ele><time>2026-05-01T10:52:54.97Z</time></trkpt><trkpt lat="40.7426165" lon="14.8609467"><ele>664.6666666666667</ele><time>2026-05-01T10:52:55.961Z</time></trkpt><trkpt lat="40.7425408" lon="14.8608874"><ele>668.0</ele><time>2026-05-01T10:52:56.969Z</time></trkpt><trkpt lat="40.7424776" lon="14.8608352"><ele>671.3333333333334</ele><time>2026-05-01T10:52:57.974Z</time></trkpt><trkpt lat="40.742405" lon="14.8607808"><ele>674.6666666666666</ele><time>2026-05-01T10:52:58.97Z</time></trkpt><trkpt lat="40.742314" lon="14.8607232"><ele>678.0</ele><time>2026-05-01T10:52:59.947Z</time></trkpt><trkpt lat="40.7422255" lon="14.8606674"><ele>678.0</ele><time>2026-05-01T10:53:00.975Z</time></trkpt><trkpt lat="40.7421427" lon="14.8606267"><ele>678.0</ele><time>2026-05-01T10:53:01.966Z</time></trkpt><trkpt lat="40.7420693" lon="14.8606002"><ele>678.0</ele><time>2026-05-01T10:53:02.963Z</time></trkpt><trkpt lat="40.7420031" lon="14.860572"><ele>678.0</ele><time>2026-05-01T10:53:03.96Z</time></trkpt><trkpt lat="40.7419395" lon="14.8605339"><ele>678.0</ele><time>2026-05-01T10:53:04.964Z</time></trkpt><trkpt lat="40.7418636" lon="14.8604989"><ele>678.0</ele><time>2026-05-01T10:53:05.964Z</time></trkpt><trkpt lat="40.7417995" lon="14.8604771"><ele>680.8333333333334</ele><time>2026-05-01T10:53:06.972Z</time></trkpt><trkpt lat="40.7417305" lon="14.8605118"><ele>683.6666666666666</ele><time>2026-05-01T10:53:09.961Z</time></trkpt><trkpt lat="40.7417416" lon="14.8606149"><ele>686.5</ele><time>2026-05-01T10:53:11.961Z</time></trkpt><trkpt lat="40.741775" lon="14.8606891"><ele>689.3333333333333</ele><time>2026-05-01T10:53:12.969Z</time></trkpt><trkpt lat="40.7418142" lon="14.8608128"><ele>692.1666666666666</ele><time>2026-05-01T10:53:13.97Z</time></trkpt><trkpt lat="40.7418481" lon="14.8609421"><ele>695.0</ele><time>2026-05-01T10:53:14.974Z</time></trkpt><trkpt lat="40.7418839" lon="14.8610899"><ele>687.6</ele><time>2026-05-01T10:53:15.97Z</time></trkpt><trkpt lat="40.7419025" lon="14.8612323"><ele>680.2</ele><time>2026-05-01T10:53:16.973Z</time></trkpt><trkpt lat="40.7419268" lon="14.8613508"><ele>672.8</ele><time>2026-05-01T10:53:17.97Z</time></trkpt><trkpt lat="40.7419471" lon="14.8614758"><ele>665.4</ele><time>2026-05-01T10:53:18.962Z</time></trkpt><trkpt lat="40.7419408" lon="14.8616101"><ele>658.0</ele><time>2026-05-01T10:53:19.972Z</time></trkpt><trkpt lat="40.7419057" lon="14.8617462"><ele>661.4</ele><time>2026-05-01T10:53:21.045Z</time></trkpt><trkpt lat="40.7418803" lon="14.8618549"><ele>664.8</ele><time>2026-05-01T10:53:22.028Z</time></trkpt><trkpt lat="40.7418631" lon="14.86196"><ele>668.2</ele><time>2026-05-01T10:53:22.97Z</time></trkpt><trkpt lat="40.7418412" lon="14.862054"><ele>671.6</ele><time>2026-05-01T10:53:23.968Z</time></trkpt><trkpt lat="40.7417503" lon="14.8621808"><ele>675.0</ele><time>2026-05-01T10:53:26.029Z</time></trkpt><trkpt lat="40.7416562" lon="14.8622359"><ele>675.0</ele><time>2026-05-01T10:53:27.033Z</time></trkpt><trkpt lat="40.7415471" lon="14.8622845"><ele>675.0</ele><time>2026-05-01T10:53:27.968Z</time></trkpt><trkpt lat="40.7414047" lon="14.862353"><ele>675.0</ele><time>2026-05-01T10:53:28.971Z</time></trkpt><trkpt lat="40.7412804" lon="14.8624272"><ele>675.0</ele><time>2026-05-01T10:53:29.965Z</time></trkpt><trkpt lat="40.7412016" lon="14.8624574"><ele>675.0</ele><time>2026-05-01T10:53:30.965Z</time></trkpt><trkpt lat="40.7412713" lon="14.862376"><ele>675.0</ele><time>2026-05-01T10:53:36.945Z</time></trkpt><trkpt lat="40.7413441" lon="14.8623496"><ele>675.0</ele><time>2026-05-01T10:53:37.945Z</time></trkpt><trkpt lat="40.7414096" lon="14.8623456"><ele>675.0</ele><time>2026-05-01T10:53:39.039Z</time></trkpt><trkpt lat="40.7415249" lon="14.8624097"><ele>675.0</ele><time>2026-05-01T10:53:40.969Z</time></trkpt><trkpt lat="40.741582" lon="14.8625085"><ele>675.4</ele><time>2026-05-01T10:53:42.966Z</time></trkpt><trkpt lat="40.7415663" lon="14.8626524"><ele>675.8</ele><time>2026-05-01T10:53:44.972Z</time></trkpt><trkpt lat="40.7415344" lon="14.8627599"><ele>676.2</ele><time>2026-05-01T10:53:45.982Z</time></trkpt><trkpt lat="40.7415067" lon="14.8628724"><ele>676.6</ele><time>2026-05-01T10:53:46.965Z</time></trkpt><trkpt lat="40.7414586" lon="14.8630138"><ele>677.0</ele><time>2026-05-01T10:53:47.958Z</time></trkpt><trkpt lat="40.7414054" lon="14.8631485"><ele>677.0</ele><time>2026-05-01T10:53:48.967Z</time></trkpt><trkpt lat="40.7413448" lon="14.8632698"><ele>677.0</ele><time>2026-05-01T10:53:49.967Z</time></trkpt><trkpt lat="40.7412917" lon="14.863366"><ele>677.0</ele><time>2026-05-01T10:53:50.974Z</time></trkpt><trkpt lat="40.7412257" lon="14.8634416"><ele>677.0</ele><time>2026-05-01T10:53:51.962Z</time></trkpt><trkpt lat="40.7411342" lon="14.863523"><ele>677.0</ele><time>2026-05-01T10:53:52.964Z</time></trkpt><trkpt lat="40.7410438" lon="14.8635896"><ele>680.4000000000001</ele><time>2026-05-01T10:53:54.028Z</time></trkpt><trkpt lat="40.7409787" lon="14.8637101"><ele>683.8000000000001</ele><time>2026-05-01T10:53:55.038Z</time></trkpt><trkpt lat="40.7408858" lon="14.8637503"><ele>687.2</ele><time>2026-05-01T10:53:56.031Z</time></trkpt><trkpt lat="40.740789" lon="14.8637908"><ele>690.6</ele><time>2026-05-01T10:53:56.972Z</time></trkpt><trkpt lat="40.7406923" lon="14.8638234"><ele>694.0</ele><time>2026-05-01T10:53:57.974Z</time></trkpt><trkpt lat="40.7405998" lon="14.8638447"><ele>694.0</ele><time>2026-05-01T10:53:58.97Z</time></trkpt><trkpt lat="40.7405219" lon="14.8638722"><ele>694.0</ele><time>2026-05-01T10:53:59.975Z</time></trkpt><trkpt lat="40.7404622" lon="14.8639153"><ele>694.0</ele><time>2026-05-01T10:54:02.022Z</time></trkpt><trkpt lat="40.7404166" lon="14.8640179"><ele>694.0</ele><time>2026-05-01T10:54:03.967Z</time></trkpt><trkpt lat="40.7404158" lon="14.8641586"><ele>694.0</ele><time>2026-05-01T10:54:06.04Z</time></trkpt><trkpt lat="40.7404151" lon="14.8642571"><ele>694.0</ele><time>2026-05-01T10:54:07.026Z</time></trkpt><trkpt lat="40.7403892" lon="14.8643678"><ele>694.4000000000001</ele><time>2026-05-01T10:54:07.972Z</time></trkpt><trkpt lat="40.740342" lon="14.864503"><ele>694.8</ele><time>2026-05-01T10:54:08.974Z</time></trkpt><trkpt lat="40.7402842" lon="14.8646076"><ele>695.2</ele><time>2026-05-01T10:54:10.044Z</time></trkpt><trkpt lat="40.7402101" lon="14.8646969"><ele>695.5999999999999</ele><time>2026-05-01T10:54:12.019Z</time></trkpt><trkpt lat="40.7400978" lon="14.8647365"><ele>696.0</ele><time>2026-05-01T10:54:13.966Z</time></trkpt><trkpt lat="40.740013" lon="14.8647495"><ele>696.0</ele><time>2026-05-01T10:54:14.97Z</time></trkpt><trkpt lat="40.7399265" lon="14.86476"><ele>696.0</ele><time>2026-05-01T10:54:15.976Z</time></trkpt><trkpt lat="40.7398393" lon="14.8647533"><ele>696.0</ele><time>2026-05-01T10:54:17.021Z</time></trkpt><trkpt lat="40.7397524" lon="14.8647499"><ele>696.0</ele><time>2026-05-01T10:54:17.967Z</time></trkpt><trkpt lat="40.7396619" lon="14.8647532"><ele>696.0</ele><time>2026-05-01T10:54:18.965Z</time></trkpt><trkpt lat="40.7395884" lon="14.8647541"><ele>696.0</ele><time>2026-05-01T10:54:19.952Z</time></trkpt><trkpt lat="40.73952" lon="14.8648021"><ele>696.0</ele><time>2026-05-01T10:54:22.964Z</time></trkpt><trkpt lat="40.739564" lon="14.8648787"><ele>696.0</ele><time>2026-05-01T10:54:26.975Z</time></trkpt><trkpt lat="40.7395048" lon="14.8649685"><ele>696.0</ele><time>2026-05-01T10:54:30.968Z</time></trkpt><trkpt lat="40.7393927" lon="14.8649916"><ele>696.0</ele><time>2026-05-01T10:54:32.969Z</time></trkpt><trkpt lat="40.7393278" lon="14.8649697"><ele>696.0</ele><time>2026-05-01T10:54:33.968Z</time></trkpt><trkpt lat="40.7392664" lon="14.8649495"><ele>696.0</ele><time>2026-05-01T10:54:34.963Z</time></trkpt><trkpt lat="40.7391976" lon="14.8649216"><ele>690.0</ele><time>2026-05-01T10:54:35.964Z</time></trkpt><trkpt lat="40.7391291" lon="14.8649076"><ele>684.0</ele><time>2026-05-01T10:54:36.971Z</time></trkpt><trkpt lat="40.7390508" lon="14.8648965"><ele>678.0</ele><time>2026-05-01T10:54:37.945Z</time></trkpt><trkpt lat="40.7389739" lon="14.8648931"><ele>672.0</ele><time>2026-05-01T10:54:38.952Z</time></trkpt><trkpt lat="40.73891" lon="14.8648987"><ele>666.0</ele><time>2026-05-01T10:54:39.959Z</time></trkpt><trkpt lat="40.7387898" lon="14.8649197"><ele>660.0</ele><time>2026-05-01T10:54:41.962Z</time></trkpt><trkpt lat="40.73869" lon="14.8648998"><ele>660.0</ele><time>2026-05-01T10:54:43.96Z</time></trkpt><trkpt lat="40.7386382" lon="14.8649485"><ele>660.0</ele><time>2026-05-01T10:54:46.968Z</time></trkpt><trkpt lat="40.7386297" lon="14.8650535"><ele>660.0</ele><time>2026-05-01T10:54:50.962Z</time></trkpt><trkpt lat="40.7386079" lon="14.8651919"><ele>660.0</ele><time>2026-05-01T10:54:52.97Z</time></trkpt><trkpt lat="40.7385484" lon="14.8652782"><ele>660.0</ele><time>2026-05-01T10:54:54.98Z</time></trkpt><trkpt lat="40.7384343" lon="14.8653005"><ele>655.1666666666666</ele><time>2026-05-01T10:54:56.967Z</time></trkpt><trkpt lat="40.7383374" lon="14.8653733"><ele>650.3333333333334</ele><time>2026-05-01T10:54:58.941Z</time></trkpt><trkpt lat="40.7383114" lon="14.8654504"><ele>645.5</ele><time>2026-05-01T10:54:59.973Z</time></trkpt><trkpt lat="40.7382814" lon="14.8655753"><ele>640.6666666666667</ele><time>2026-05-01T10:55:00.946Z</time></trkpt><trkpt lat="40.7382528" lon="14.8656733"><ele>635.8333333333334</ele><time>2026-05-01T10:55:01.963Z</time></trkpt><trkpt lat="40.7382088" lon="14.8657397"><ele>631.0</ele><time>2026-05-01T10:55:02.953Z</time></trkpt><trkpt lat="40.7381438" lon="14.865795"><ele>631.0</ele><time>2026-05-01T10:55:03.961Z</time></trkpt><trkpt lat="40.7380676" lon="14.8658515"><ele>631.0</ele><time>2026-05-01T10:55:04.946Z</time></trkpt><trkpt lat="40.7379815" lon="14.8659322"><ele>631.0</ele><time>2026-05-01T10:55:05.976Z</time></trkpt><trkpt lat="40.7378999" lon="14.8660197"><ele>631.0</ele><time>2026-05-01T10:55:06.967Z</time></trkpt><trkpt lat="40.7378273" lon="14.8661002"><ele>631.0</ele><time>2026-05-01T10:55:07.965Z</time></trkpt><trkpt lat="40.7377567" lon="14.8661626"><ele>630.6</ele><time>2026-05-01T10:55:08.971Z</time></trkpt><trkpt lat="40.7376773" lon="14.8662547"><ele>630.2</ele><time>2026-05-01T10:55:09.962Z</time></trkpt><trkpt lat="40.7375949" lon="14.8663549"><ele>629.8</ele><time>2026-05-01T10:55:10.967Z</time></trkpt><trkpt lat="40.7375031" lon="14.8664134"><ele>629.4</ele><time>2026-05-01T10:55:11.964Z</time></trkpt><trkpt lat="40.7374207" lon="14.8664363"><ele>629.0</ele><time>2026-05-01T10:55:12.961Z</time></trkpt><trkpt lat="40.7373219" lon="14.8664524"><ele>629.0</ele><time>2026-05-01T10:55:13.949Z</time></trkpt><trkpt lat="40.7372159" lon="14.8664585"><ele>629.0</ele><time>2026-05-01T10:55:14.968Z</time></trkpt><trkpt lat="40.7371283" lon="14.8664685"><ele>629.0</ele><time>2026-05-01T10:55:16.036Z</time></trkpt><trkpt lat="40.7370399" lon="14.8665099"><ele>629.0</ele><time>2026-05-01T10:55:17.959Z</time></trkpt><trkpt lat="40.7370113" lon="14.8666414"><ele>629.0</ele><time>2026-05-01T10:55:19.964Z</time></trkpt><trkpt lat="40.7370036" lon="14.8667372"><ele>624.0</ele><time>2026-05-01T10:55:20.958Z</time></trkpt><trkpt lat="40.7370063" lon="14.8668444"><ele>619.0</ele><time>2026-05-01T10:55:22.028Z</time></trkpt><trkpt lat="40.7370225" lon="14.8669395"><ele>614.0</ele><time>2026-05-01T10:55:22.965Z</time></trkpt><trkpt lat="40.7370607" lon="14.8670314"><ele>609.0</ele><time>2026-05-01T10:55:23.967Z</time></trkpt><trkpt lat="40.7370868" lon="14.8671347"><ele>604.0</ele><time>2026-05-01T10:55:24.971Z</time></trkpt><trkpt lat="40.7371038" lon="14.8672231"><ele>599.0</ele><time>2026-05-01T10:55:25.96Z</time></trkpt><trkpt lat="40.7370724" lon="14.8673088"><ele>599.0</ele><time>2026-05-01T10:55:26.948Z</time></trkpt><trkpt lat="40.7370158" lon="14.8673753"><ele>599.0</ele><time>2026-05-01T10:55:27.974Z</time></trkpt><trkpt lat="40.7369388" lon="14.8674179"><ele>599.0</ele><time>2026-05-01T10:55:28.971Z</time></trkpt><trkpt lat="40.7368448" lon="14.8674565"><ele>599.0</ele><time>2026-05-01T10:55:29.956Z</time></trkpt><trkpt lat="40.7367446" lon="14.8674931"><ele>599.0</ele><time>2026-05-01T10:55:31.028Z</time></trkpt><trkpt lat="40.7366714" lon="14.8675438"><ele>599.0</ele><time>2026-05-01T10:55:31.965Z</time></trkpt><trkpt lat="40.7365959" lon="14.867681"><ele>605.2</ele><time>2026-05-01T10:55:33.969Z</time></trkpt><trkpt lat="40.736541" lon="14.8677598"><ele>611.4</ele><time>2026-05-01T10:55:34.958Z</time></trkpt><trkpt lat="40.7364717" lon="14.8678198"><ele>617.6</ele><time>2026-05-01T10:55:35.964Z</time></trkpt><trkpt lat="40.7363823" lon="14.8678701"><ele>623.8</ele><time>2026-05-01T10:55:37.971Z</time></trkpt><trkpt lat="40.7363508" lon="14.8679866"><ele>630.0</ele><time>2026-05-01T10:55:40.985Z</time></trkpt><trkpt lat="40.736367" lon="14.8682121"><ele>630.0</ele><time>2026-05-01T10:55:42.978Z</time></trkpt><trkpt lat="40.7363627" lon="14.8683586"><ele>630.0</ele><time>2026-05-01T10:55:43.973Z</time></trkpt><trkpt lat="40.7363661" lon="14.8685214"><ele>630.0</ele><time>2026-05-01T10:55:44.977Z</time></trkpt><trkpt lat="40.7363788" lon="14.8686722"><ele>630.0</ele><time>2026-05-01T10:55:45.97Z</time></trkpt><trkpt lat="40.7363618" lon="14.868808"><ele>632.4</ele><time>2026-05-01T10:55:47.054Z</time></trkpt><trkpt lat="40.7362948" lon="14.868893"><ele>634.8</ele><time>2026-05-01T10:55:47.969Z</time></trkpt><trkpt lat="40.7361704" lon="14.8689263"><ele>637.2</ele><time>2026-05-01T10:55:48.974Z</time></trkpt><trkpt lat="40.7360426" lon="14.8689366"><ele>639.6</ele><time>2026-05-01T10:55:49.957Z</time></trkpt><trkpt lat="40.7359504" lon="14.8689397"><ele>642.0</ele><time>2026-05-01T10:55:51.032Z</time></trkpt><trkpt lat="40.735845" lon="14.8688578"><ele>642.0</ele><time>2026-05-01T10:55:52.971Z</time></trkpt><trkpt lat="40.7357691" lon="14.8688568"><ele>642.0</ele><time>2026-05-01T10:55:54.982Z</time></trkpt><trkpt lat="40.7357289" lon="14.8690194"><ele>642.0</ele><time>2026-05-01T10:55:56.982Z</time></trkpt><trkpt lat="40.7356516" lon="14.8691562"><ele>642.0</ele><time>2026-05-01T10:55:57.967Z</time></trkpt><trkpt lat="40.7355866" lon="14.8692265"><ele>642.0</ele><time>2026-05-01T10:55:58.986Z</time></trkpt><trkpt lat="40.7355008" lon="14.8692792"><ele>643.5</ele><time>2026-05-01T10:55:59.986Z</time></trkpt><trkpt lat="40.735442" lon="14.8693307"><ele>645.0</ele><time>2026-05-01T10:56:00.962Z</time></trkpt><trkpt lat="40.7353822" lon="14.8694267"><ele>646.5</ele><time>2026-05-01T10:56:01.962Z</time></trkpt><trkpt lat="40.7353207" lon="14.8695241"><ele>648.0</ele><time>2026-05-01T10:56:02.969Z</time></trkpt><trkpt lat="40.7352693" lon="14.8696101"><ele>649.5</ele><time>2026-05-01T10:56:03.972Z</time></trkpt><trkpt lat="40.735237" lon="14.8697102"><ele>651.0</ele><time>2026-05-01T10:56:04.964Z</time></trkpt><trkpt lat="40.7351935" lon="14.8698356"><ele>651.0</ele><time>2026-05-01T10:56:05.982Z</time></trkpt><trkpt lat="40.7351691" lon="14.8699715"><ele>651.0</ele><time>2026-05-01T10:56:06.954Z</time></trkpt><trkpt lat="40.7351364" lon="14.8700913"><ele>651.0</ele><time>2026-05-01T10:56:07.966Z</time></trkpt><trkpt lat="40.7350898" lon="14.8702073"><ele>651.0</ele><time>2026-05-01T10:56:08.975Z</time></trkpt><trkpt lat="40.7350361" lon="14.8702964"><ele>651.0</ele><time>2026-05-01T10:56:09.978Z</time></trkpt><trkpt lat="40.735006" lon="14.8704106"><ele>647.5999999999999</ele><time>2026-05-01T10:56:10.968Z</time></trkpt><trkpt lat="40.734979" lon="14.8705321"><ele>644.1999999999999</ele><time>2026-05-01T10:56:11.976Z</time></trkpt><trkpt lat="40.7349453" lon="14.8706445"><ele>640.8</ele><time>2026-05-01T10:56:12.973Z</time></trkpt><trkpt lat="40.7348831" lon="14.8707379"><ele>637.4</ele><time>2026-05-01T10:56:13.969Z</time></trkpt><trkpt lat="40.7348038" lon="14.8708139"><ele>634.0</ele><time>2026-05-01T10:56:14.966Z</time></trkpt><trkpt lat="40.7347184" lon="14.870871"><ele>634.0</ele><time>2026-05-01T10:56:16.058Z</time></trkpt><trkpt lat="40.7346322" lon="14.8708902"><ele>634.0</ele><time>2026-05-01T10:56:17.039Z</time></trkpt><trkpt lat="40.7345385" lon="14.8708885"><ele>634.0</ele><time>2026-05-01T10:56:17.97Z</time></trkpt><trkpt lat="40.7344426" lon="14.8708743"><ele>634.0</ele><time>2026-05-01T10:56:18.977Z</time></trkpt><trkpt lat="40.7343707" lon="14.8708297"><ele>634.0</ele><time>2026-05-01T10:56:19.989Z</time></trkpt><trkpt lat="40.7343083" lon="14.8707609"><ele>634.0</ele><time>2026-05-01T10:56:21.023Z</time></trkpt><trkpt lat="40.7342536" lon="14.8706892"><ele>634.6</ele><time>2026-05-01T10:56:22.023Z</time></trkpt><trkpt lat="40.7341976" lon="14.8706362"><ele>635.2</ele><time>2026-05-01T10:56:22.965Z</time></trkpt><trkpt lat="40.7341329" lon="14.8705383"><ele>635.8000000000001</ele><time>2026-05-01T10:56:24.962Z</time></trkpt><trkpt lat="40.7341149" lon="14.8704005"><ele>636.4</ele><time>2026-05-01T10:56:26.964Z</time></trkpt><trkpt lat="40.734063" lon="14.8702296"><ele>637.0</ele><time>2026-05-01T10:56:28.965Z</time></trkpt><trkpt lat="40.73403" lon="14.8701312"><ele>637.0</ele><time>2026-05-01T10:56:29.974Z</time></trkpt><trkpt lat="40.7339957" lon="14.8700442"><ele>637.0</ele><time>2026-05-01T10:56:32.042Z</time></trkpt><trkpt lat="40.7339173" lon="14.8700256"><ele>637.0</ele><time>2026-05-01T10:56:33.975Z</time></trkpt><trkpt lat="40.7338066" lon="14.870027"><ele>637.0</ele><time>2026-05-01T10:56:36.018Z</time></trkpt><trkpt lat="40.7337187" lon="14.8700666"><ele>637.0</ele><time>2026-05-01T10:56:37.965Z</time></trkpt><trkpt lat="40.7336125" lon="14.8701633"><ele>635.0</ele><time>2026-05-01T10:56:39.958Z</time></trkpt><trkpt lat="40.7335005" lon="14.8702227"><ele>633.0</ele><time>2026-05-01T10:56:41.968Z</time></trkpt><trkpt lat="40.7334107" lon="14.8701601"><ele>631.0</ele><time>2026-05-01T10:56:44.966Z</time></trkpt><trkpt lat="40.7333379" lon="14.8701602"><ele>629.0</ele><time>2026-05-01T10:56:46.992Z</time></trkpt><trkpt lat="40.733261" lon="14.8702465"><ele>627.0</ele><time>2026-05-01T10:56:48.972Z</time></trkpt><trkpt lat="40.7332169" lon="14.8703454"><ele>627.0</ele><time>2026-05-01T10:56:49.97Z</time></trkpt><trkpt lat="40.7331612" lon="14.8704191"><ele>627.0</ele><time>2026-05-01T10:56:50.971Z</time></trkpt><trkpt lat="40.7330914" lon="14.8704722"><ele>627.0</ele><time>2026-05-01T10:56:51.96Z</time></trkpt><trkpt lat="40.7330264" lon="14.8705209"><ele>627.0</ele><time>2026-05-01T10:56:52.966Z</time></trkpt><trkpt lat="40.7329718" lon="14.8705972"><ele>627.0</ele><time>2026-05-01T10:56:53.971Z</time></trkpt><trkpt lat="40.7329195" lon="14.8707274"><ele>627.0</ele><time>2026-05-01T10:56:54.971Z</time></trkpt><trkpt lat="40.7328601" lon="14.8708437"><ele>628.0</ele><time>2026-05-01T10:56:55.945Z</time></trkpt><trkpt lat="40.7328027" lon="14.8709549"><ele>629.0</ele><time>2026-05-01T10:56:56.96Z</time></trkpt><trkpt lat="40.7327301" lon="14.8710201"><ele>630.0</ele><time>2026-05-01T10:56:57.966Z</time></trkpt><trkpt lat="40.732638" lon="14.8710509"><ele>631.0</ele><time>2026-05-01T10:56:58.959Z</time></trkpt><trkpt lat="40.7325294" lon="14.871098"><ele>632.0</ele><time>2026-05-01T10:56:59.968Z</time></trkpt><trkpt lat="40.7324319" lon="14.871141"><ele>632.0</ele><time>2026-05-01T10:57:00.965Z</time></trkpt><trkpt lat="40.7323364" lon="14.8711782"><ele>632.0</ele><time>2026-05-01T10:57:01.943Z</time></trkpt><trkpt lat="40.7322426" lon="14.8712052"><ele>632.0</ele><time>2026-05-01T10:57:02.952Z</time></trkpt><trkpt lat="40.7321721" lon="14.871214"><ele>632.0</ele><time>2026-05-01T10:57:03.967Z</time></trkpt><trkpt lat="40.7320808" lon="14.8712299"><ele>632.0</ele><time>2026-05-01T10:57:05.967Z</time></trkpt><trkpt lat="40.7320099" lon="14.8712459"><ele>632.0</ele><time>2026-05-01T10:57:06.972Z</time></trkpt><trkpt lat="40.7319104" lon="14.8712648"><ele>630.8000000000001</ele><time>2026-05-01T10:57:07.964Z</time></trkpt><trkpt lat="40.731821" lon="14.871258"><ele>629.6</ele><time>2026-05-01T10:57:08.977Z</time></trkpt><trkpt lat="40.7317451" lon="14.8712627"><ele>628.4000000000001</ele><time>2026-05-01T10:57:09.97Z</time></trkpt><trkpt lat="40.7316456" lon="14.871361"><ele>627.2</ele><time>2026-05-01T10:57:11.963Z</time></trkpt><trkpt lat="40.7316084" lon="14.8714842"><ele>626.0</ele><time>2026-05-01T10:57:12.945Z</time></trkpt><trkpt lat="40.7315597" lon="14.8716202"><ele>626.0</ele><time>2026-05-01T10:57:13.967Z</time></trkpt><trkpt lat="40.7315161" lon="14.8717133"><ele>626.0</ele><time>2026-05-01T10:57:14.975Z</time></trkpt><trkpt lat="40.7314788" lon="14.8717976"><ele>626.0</ele><time>2026-05-01T10:57:15.958Z</time></trkpt><trkpt lat="40.7314334" lon="14.8719028"><ele>626.0</ele><time>2026-05-01T10:57:16.966Z</time></trkpt><trkpt lat="40.7313852" lon="14.8720091"><ele>626.0</ele><time>2026-05-01T10:57:17.971Z</time></trkpt><trkpt lat="40.7313408" lon="14.8721187"><ele>626.0</ele><time>2026-05-01T10:57:18.972Z</time></trkpt><trkpt lat="40.7313041" lon="14.8722146"><ele>627.0</ele><time>2026-05-01T10:57:19.976Z</time></trkpt><trkpt lat="40.7312683" lon="14.8722844"><ele>628.0</ele><time>2026-05-01T10:57:20.971Z</time></trkpt><trkpt lat="40.7312074" lon="14.8723403"><ele>629.0</ele><time>2026-05-01T10:57:22.968Z</time></trkpt><trkpt lat="40.7311569" lon="14.872255"><ele>630.0</ele><time>2026-05-01T10:57:24.972Z</time></trkpt><trkpt lat="40.7311023" lon="14.8721851"><ele>631.0</ele><time>2026-05-01T10:57:25.972Z</time></trkpt><trkpt lat="40.7310731" lon="14.8720814"><ele>632.0</ele><time>2026-05-01T10:57:26.959Z</time></trkpt><trkpt lat="40.731056" lon="14.8719794"><ele>630.8000000000001</ele><time>2026-05-01T10:57:27.971Z</time></trkpt><trkpt lat="40.7310326" lon="14.8718851"><ele>629.6</ele><time>2026-05-01T10:57:28.968Z</time></trkpt><trkpt lat="40.7310229" lon="14.8717981"><ele>628.4000000000001</ele><time>2026-05-01T10:57:29.971Z</time></trkpt><trkpt lat="40.7310535" lon="14.8716282"><ele>627.2</ele><time>2026-05-01T10:57:31.978Z</time></trkpt><trkpt lat="40.7310938" lon="14.8714946"><ele>626.0</ele><time>2026-05-01T10:57:33.97Z</time></trkpt><trkpt lat="40.7310779" lon="14.8713536"><ele>626.0</ele><time>2026-05-01T10:57:35.973Z</time></trkpt><trkpt lat="40.7310766" lon="14.8712045"><ele>626.0</ele><time>2026-05-01T10:57:37.974Z</time></trkpt><trkpt lat="40.7310884" lon="14.8711171"><ele>626.0</ele><time>2026-05-01T10:57:38.951Z</time></trkpt><trkpt lat="40.7311116" lon="14.8710288"><ele>626.0</ele><time>2026-05-01T10:57:39.963Z</time></trkpt><trkpt lat="40.7311429" lon="14.870935"><ele>626.0</ele><time>2026-05-01T10:57:40.971Z</time></trkpt><trkpt lat="40.7311671" lon="14.8708434"><ele>626.0</ele><time>2026-05-01T10:57:41.967Z</time></trkpt><trkpt lat="40.7311867" lon="14.8707502"><ele>625.6</ele><time>2026-05-01T10:57:42.963Z</time></trkpt><trkpt lat="40.7312085" lon="14.8706605"><ele>625.2</ele><time>2026-05-01T10:57:43.965Z</time></trkpt><trkpt lat="40.7312411" lon="14.8705815"><ele>624.8</ele><time>2026-05-01T10:57:44.969Z</time></trkpt><trkpt lat="40.7313042" lon="14.8705002"><ele>624.4</ele><time>2026-05-01T10:57:46.976Z</time></trkpt><trkpt lat="40.7311766" lon="14.8704461"><ele>624.0</ele><time>2026-05-01T10:57:49.966Z</time></trkpt><trkpt lat="40.7310669" lon="14.8704827"><ele>618.2</ele><time>2026-05-01T10:57:50.974Z</time></trkpt><trkpt lat="40.7309665" lon="14.8705226"><ele>612.4</ele><time>2026-05-01T10:57:51.967Z</time></trkpt><trkpt lat="40.730859" lon="14.8705828"><ele>606.6</ele><time>2026-05-01T10:57:52.961Z</time></trkpt><trkpt lat="40.7307713" lon="14.8706475"><ele>600.8</ele><time>2026-05-01T10:57:53.961Z</time></trkpt><trkpt lat="40.7306759" lon="14.8707097"><ele>595.0</ele><time>2026-05-01T10:57:54.964Z</time></trkpt><trkpt lat="40.7305758" lon="14.8707577"><ele>595.0</ele><time>2026-05-01T10:57:56.044Z</time></trkpt><trkpt lat="40.7304594" lon="14.8707881"><ele>595.0</ele><time>2026-05-01T10:57:56.962Z</time></trkpt><trkpt lat="40.7303503" lon="14.8708299"><ele>595.0</ele><time>2026-05-01T10:57:57.967Z</time></trkpt><trkpt lat="40.7302392" lon="14.8708942"><ele>595.0</ele><time>2026-05-01T10:57:58.959Z</time></trkpt><trkpt lat="40.7301415" lon="14.8709614"><ele>588.75</ele><time>2026-05-01T10:57:59.964Z</time></trkpt><trkpt lat="40.7300282" lon="14.871031"><ele>582.5</ele><time>2026-05-01T10:58:00.963Z</time></trkpt><trkpt lat="40.7299087" lon="14.8711006"><ele>576.25</ele><time>2026-05-01T10:58:01.969Z</time></trkpt><trkpt lat="40.7297914" lon="14.8711688"><ele>570.0</ele><time>2026-05-01T10:58:02.963Z</time></trkpt><trkpt lat="40.7296818" lon="14.8712274"><ele>570.0</ele><time>2026-05-01T10:58:03.952Z</time></trkpt><trkpt lat="40.7295752" lon="14.8712898"><ele>570.0</ele><time>2026-05-01T10:58:05.031Z</time></trkpt><trkpt lat="40.7294743" lon="14.8713583"><ele>570.0</ele><time>2026-05-01T10:58:06.033Z</time></trkpt><trkpt lat="40.7293784" lon="14.8714288"><ele>570.0</ele><time>2026-05-01T10:58:06.968Z</time></trkpt><trkpt lat="40.7292911" lon="14.8714941"><ele>570.0</ele><time>2026-05-01T10:58:07.964Z</time></trkpt><trkpt lat="40.7292247" lon="14.8715672"><ele>568.8</ele><time>2026-05-01T10:58:08.969Z</time></trkpt><trkpt lat="40.7291501" lon="14.8716492"><ele>567.6</ele><time>2026-05-01T10:58:09.968Z</time></trkpt><trkpt lat="40.7290662" lon="14.871741"><ele>566.4</ele><time>2026-05-01T10:58:10.971Z</time></trkpt><trkpt lat="40.7289854" lon="14.8718479"><ele>565.2</ele><time>2026-05-01T10:58:11.967Z</time></trkpt><trkpt lat="40.7288984" lon="14.8719521"><ele>564.0</ele><time>2026-05-01T10:58:12.966Z</time></trkpt><trkpt lat="40.7288091" lon="14.8720457"><ele>561.0</ele><time>2026-05-01T10:58:13.972Z</time></trkpt><trkpt lat="40.7287199" lon="14.8721342"><ele>558.0</ele><time>2026-05-01T10:58:15.048Z</time></trkpt><trkpt lat="40.7286299" lon="14.8722236"><ele>555.0</ele><time>2026-05-01T10:58:15.968Z</time></trkpt><trkpt lat="40.7285344" lon="14.8723167"><ele>552.0</ele><time>2026-05-01T10:58:16.969Z</time></trkpt><trkpt lat="40.7284468" lon="14.8724009"><ele>552.0</ele><time>2026-05-01T10:58:17.973Z</time></trkpt><trkpt lat="40.7283709" lon="14.8724948"><ele>552.0</ele><time>2026-05-01T10:58:18.957Z</time></trkpt><trkpt lat="40.7283014" lon="14.8725911"><ele>552.0</ele><time>2026-05-01T10:58:19.984Z</time></trkpt><trkpt lat="40.7282309" lon="14.8726888"><ele>552.0</ele><time>2026-05-01T10:58:20.97Z</time></trkpt><trkpt lat="40.728173" lon="14.8727961"><ele>552.0</ele><time>2026-05-01T10:58:22.058Z</time></trkpt><trkpt lat="40.7280975" lon="14.8729021"><ele>548.6</ele><time>2026-05-01T10:58:22.978Z</time></trkpt><trkpt lat="40.7280196" lon="14.8730025"><ele>545.2</ele><time>2026-05-01T10:58:23.982Z</time></trkpt><trkpt lat="40.7279399" lon="14.8731047"><ele>541.8</ele><time>2026-05-01T10:58:24.993Z</time></trkpt><trkpt lat="40.7278618" lon="14.873204"><ele>538.4</ele><time>2026-05-01T10:58:25.978Z</time></trkpt><trkpt lat="40.7277791" lon="14.8733081"><ele>535.0</ele><time>2026-05-01T10:58:26.977Z</time></trkpt><trkpt lat="40.7276945" lon="14.8734121"><ele>527.0</ele><time>2026-05-01T10:58:27.977Z</time></trkpt><trkpt lat="40.7276075" lon="14.8735096"><ele>519.0</ele><time>2026-05-01T10:58:28.981Z</time></trkpt><trkpt lat="40.7275214" lon="14.8736036"><ele>511.0</ele><time>2026-05-01T10:58:30.054Z</time></trkpt><trkpt lat="40.7274352" lon="14.8736945"><ele>503.0</ele><time>2026-05-01T10:58:30.974Z</time></trkpt><trkpt lat="40.7273451" lon="14.8737949"><ele>503.0</ele><time>2026-05-01T10:58:32.033Z</time></trkpt><trkpt lat="40.7272534" lon="14.8738897"><ele>502.99999999999994</ele><time>2026-05-01T10:58:32.989Z</time></trkpt><trkpt lat="40.7271693" lon="14.8739694"><ele>502.99999999999994</ele><time>2026-05-01T10:58:33.983Z</time></trkpt><trkpt lat="40.7270961" lon="14.8740486"><ele>503.0</ele><time>2026-05-01T10:58:35.001Z</time></trkpt><trkpt lat="40.7270162" lon="14.8741026"><ele>503.0</ele><time>2026-05-01T10:58:36.034Z</time></trkpt><trkpt lat="40.7269436" lon="14.8741333"><ele>502.66666666666663</ele><time>2026-05-01T10:58:36.981Z</time></trkpt><trkpt lat="40.7268757" lon="14.8741387"><ele>502.3333333333333</ele><time>2026-05-01T10:58:37.99Z</time></trkpt><trkpt lat="40.7268115" lon="14.8741376"><ele>502.0</ele><time>2026-05-01T10:58:39.035Z</time></trkpt><trkpt lat="40.7267048" lon="14.8740985"><ele>501.66666666666663</ele><time>2026-05-01T10:58:40.98Z</time></trkpt><trkpt lat="40.7266167" lon="14.8740339"><ele>501.3333333333333</ele><time>2026-05-01T10:58:42.976Z</time></trkpt><trkpt lat="40.7265466" lon="14.8740309"><ele>501.0</ele><time>2026-05-01T10:58:47.02Z</time></trkpt><trkpt lat="40.7265541" lon="14.874141"><ele>501.0</ele><time>2026-05-01T10:58:48.99Z</time></trkpt><trkpt lat="40.7266082" lon="14.8742611"><ele>501.0</ele><time>2026-05-01T10:58:50.978Z</time></trkpt><trkpt lat="40.7266988" lon="14.8743612"><ele>501.0</ele><time>2026-05-01T10:58:52.964Z</time></trkpt><trkpt lat="40.7267934" lon="14.8744355"><ele>501.0</ele><time>2026-05-01T10:58:54.964Z</time></trkpt><trkpt lat="40.7268398" lon="14.8745134"><ele>501.0</ele><time>2026-05-01T10:58:57.984Z</time></trkpt><trkpt lat="40.7267858" lon="14.8745775"><ele>496.0</ele><time>2026-05-01T10:58:59.958Z</time></trkpt><trkpt lat="40.7266867" lon="14.8746592"><ele>491.0</ele><time>2026-05-01T10:59:01.983Z</time></trkpt><trkpt lat="40.7266094" lon="14.8746879"><ele>486.0</ele><time>2026-05-01T10:59:02.981Z</time></trkpt><trkpt lat="40.7265186" lon="14.8747009"><ele>481.0</ele><time>2026-05-01T10:59:03.99Z</time></trkpt><trkpt lat="40.7264344" lon="14.8746957"><ele>476.0</ele><time>2026-05-01T10:59:04.978Z</time></trkpt><trkpt lat="40.7263485" lon="14.874684"><ele>475.99999999999994</ele><time>2026-05-01T10:59:05.978Z</time></trkpt><trkpt lat="40.7262755" lon="14.8746524"><ele>476.0</ele><time>2026-05-01T10:59:06.976Z</time></trkpt><trkpt lat="40.7262049" lon="14.8745985"><ele>476.0</ele><time>2026-05-01T10:59:07.985Z</time></trkpt><trkpt lat="40.7261373" lon="14.8745216"><ele>476.0</ele><time>2026-05-01T10:59:08.981Z</time></trkpt><trkpt lat="40.7260859" lon="14.8744345"><ele>475.99999999999994</ele><time>2026-05-01T10:59:10.03Z</time></trkpt><trkpt lat="40.7260322" lon="14.8743514"><ele>476.0</ele><time>2026-05-01T10:59:10.992Z</time></trkpt><trkpt lat="40.7259948" lon="14.8742592"><ele>473.4</ele><time>2026-05-01T10:59:12.03Z</time></trkpt><trkpt lat="40.7259549" lon="14.8741545"><ele>470.8</ele><time>2026-05-01T10:59:13.013Z</time></trkpt><trkpt lat="40.7259203" lon="14.8740368"><ele>468.19999999999993</ele><time>2026-05-01T10:59:13.989Z</time></trkpt><trkpt lat="40.7258861" lon="14.8739163"><ele>465.59999999999997</ele><time>2026-05-01T10:59:14.954Z</time></trkpt><trkpt lat="40.7258612" lon="14.8737745"><ele>463.0</ele><time>2026-05-01T10:59:15.975Z</time></trkpt><trkpt lat="40.725831" lon="14.8736245"><ele>463.0</ele><time>2026-05-01T10:59:16.978Z</time></trkpt><trkpt lat="40.7258078" lon="14.8734813"><ele>462.99999999999994</ele><time>2026-05-01T10:59:17.979Z</time></trkpt><trkpt lat="40.7257857" lon="14.8733455"><ele>462.99999999999994</ele><time>2026-05-01T10:59:19.02Z</time></trkpt><trkpt lat="40.7257616" lon="14.8732154"><ele>463.0</ele><time>2026-05-01T10:59:19.981Z</time></trkpt><trkpt lat="40.7257353" lon="14.8730884"><ele>463.0</ele><time>2026-05-01T10:59:20.986Z</time></trkpt><trkpt lat="40.725718" lon="14.8729655"><ele>463.33333333333337</ele><time>2026-05-01T10:59:21.983Z</time></trkpt><trkpt lat="40.725706" lon="14.8728461"><ele>463.6666666666667</ele><time>2026-05-01T10:59:22.98Z</time></trkpt><trkpt lat="40.725699" lon="14.8727254"><ele>464.0</ele><time>2026-05-01T10:59:23.968Z</time></trkpt><trkpt lat="40.7256956" lon="14.8726136"><ele>464.33333333333337</ele><time>2026-05-01T10:59:24.984Z</time></trkpt><trkpt lat="40.7256958" lon="14.8725063"><ele>464.6666666666667</ele><time>2026-05-01T10:59:25.981Z</time></trkpt><trkpt lat="40.7256897" lon="14.8723957"><ele>465.0</ele><time>2026-05-01T10:59:27.044Z</time></trkpt><trkpt lat="40.7256752" lon="14.8722775"><ele>465.0</ele><time>2026-05-01T10:59:27.969Z</time></trkpt><trkpt lat="40.7256554" lon="14.8721615"><ele>465.0</ele><time>2026-05-01T10:59:28.968Z</time></trkpt><trkpt lat="40.7256278" lon="14.8720599"><ele>465.0</ele><time>2026-05-01T10:59:29.962Z</time></trkpt><trkpt lat="40.7255868" lon="14.8719676"><ele>465.0</ele><time>2026-05-01T10:59:30.976Z</time></trkpt><trkpt lat="40.7255291" lon="14.8718683"><ele>465.0</ele><time>2026-05-01T10:59:31.968Z</time></trkpt><trkpt lat="40.7254726" lon="14.8717611"><ele>465.0</ele><time>2026-05-01T10:59:32.966Z</time></trkpt><trkpt lat="40.7254273" lon="14.8716385"><ele>463.8</ele><time>2026-05-01T10:59:33.967Z</time></trkpt><trkpt lat="40.7253816" lon="14.8714957"><ele>462.6</ele><time>2026-05-01T10:59:34.968Z</time></trkpt><trkpt lat="40.7253565" lon="14.8713526"><ele>461.4</ele><time>2026-05-01T10:59:35.974Z</time></trkpt><trkpt lat="40.7253236" lon="14.8712408"><ele>460.2</ele><time>2026-05-01T10:59:36.972Z</time></trkpt><trkpt lat="40.7252921" lon="14.8711492"><ele>459.0</ele><time>2026-05-01T10:59:37.965Z</time></trkpt><trkpt lat="40.725246" lon="14.8710895"><ele>453.79999999999995</ele><time>2026-05-01T10:59:38.964Z</time></trkpt><trkpt lat="40.7251582" lon="14.8710578"><ele>448.59999999999997</ele><time>2026-05-01T10:59:39.956Z</time></trkpt><trkpt lat="40.7250658" lon="14.8710467"><ele>443.4</ele><time>2026-05-01T10:59:40.97Z</time></trkpt><trkpt lat="40.724962" lon="14.871028"><ele>438.2</ele><time>2026-05-01T10:59:41.971Z</time></trkpt><trkpt lat="40.7248689" lon="14.8710015"><ele>433.0</ele><time>2026-05-01T10:59:42.967Z</time></trkpt><trkpt lat="40.7247875" lon="14.8709811"><ele>433.0</ele><time>2026-05-01T10:59:44.036Z</time></trkpt><trkpt lat="40.7247204" lon="14.8709595"><ele>432.99999999999994</ele><time>2026-05-01T10:59:45.037Z</time></trkpt><trkpt lat="40.7246298" lon="14.8709025"><ele>432.99999999999994</ele><time>2026-05-01T10:59:46.972Z</time></trkpt><trkpt lat="40.7245502" lon="14.8708697"><ele>433.0</ele><time>2026-05-01T10:59:48.974Z</time></trkpt><trkpt lat="40.7244277" lon="14.8708581"><ele>433.0</ele><time>2026-05-01T10:59:50.968Z</time></trkpt><trkpt lat="40.7243342" lon="14.8708609"><ele>432.75</ele><time>2026-05-01T10:59:52.056Z</time></trkpt><trkpt lat="40.7241262" lon="14.8708725"><ele>432.5</ele><time>2026-05-01T10:59:54.052Z</time></trkpt><trkpt lat="40.7240338" lon="14.8708665"><ele>432.25</ele><time>2026-05-01T10:59:54.978Z</time></trkpt><trkpt lat="40.7239409" lon="14.8708486"><ele>432.0</ele><time>2026-05-01T10:59:55.972Z</time></trkpt><trkpt lat="40.7238589" lon="14.8708212"><ele>432.0</ele><time>2026-05-01T10:59:56.986Z</time></trkpt><trkpt lat="40.7237809" lon="14.8707735"><ele>432.0</ele><time>2026-05-01T10:59:57.987Z</time></trkpt><trkpt lat="40.7237106" lon="14.8707162"><ele>432.0</ele><time>2026-05-01T10:59:59.981Z</time></trkpt><trkpt lat="40.7236569" lon="14.8706233"><ele>432.0</ele><time>2026-05-01T11:03:46.972Z</time></trkpt><trkpt lat="40.7235833" lon="14.870564"><ele>432.0</ele><time>2026-05-01T11:03:48.976Z</time></trkpt><trkpt lat="40.7235054" lon="14.8705356"><ele>432.0</ele><time>2026-05-01T11:03:50.986Z</time></trkpt><trkpt lat="40.7233647" lon="14.870635"><ele>429.6666666666667</ele><time>2026-05-01T11:03:53.968Z</time></trkpt><trkpt lat="40.7233103" lon="14.8706983"><ele>427.33333333333337</ele><time>2026-05-01T11:03:54.974Z</time></trkpt><trkpt lat="40.7232531" lon="14.8707699"><ele>425.0</ele><time>2026-05-01T11:03:55.966Z</time></trkpt><trkpt lat="40.7231785" lon="14.8708326"><ele>422.6666666666667</ele><time>2026-05-01T11:03:56.968Z</time></trkpt><trkpt lat="40.7230969" lon="14.870903"><ele>420.33333333333337</ele><time>2026-05-01T11:03:57.965Z</time></trkpt><trkpt lat="40.72303" lon="14.8709787"><ele>418.0</ele><time>2026-05-01T11:03:58.961Z</time></trkpt><trkpt lat="40.7229686" lon="14.8710515"><ele>416.1666666666667</ele><time>2026-05-01T11:03:59.965Z</time></trkpt><trkpt lat="40.7229138" lon="14.871131"><ele>414.33333333333337</ele><time>2026-05-01T11:04:00.968Z</time></trkpt><trkpt lat="40.7228503" lon="14.8712017"><ele>412.5</ele><time>2026-05-01T11:04:02.037Z</time></trkpt><trkpt lat="40.7227847" lon="14.8712598"><ele>410.66666666666663</ele><time>2026-05-01T11:04:02.963Z</time></trkpt><trkpt lat="40.7227274" lon="14.871305"><ele>408.8333333333333</ele><time>2026-05-01T11:04:03.963Z</time></trkpt><trkpt lat="40.7226082" lon="14.8713406"><ele>407.0</ele><time>2026-05-01T11:04:06.029Z</time></trkpt><trkpt lat="40.7225294" lon="14.8713387"><ele>405.5</ele><time>2026-05-01T11:04:07.032Z</time></trkpt><trkpt lat="40.7224357" lon="14.8713313"><ele>404.0</ele><time>2026-05-01T11:04:07.968Z</time></trkpt><trkpt lat="40.722308" lon="14.871301"><ele>402.5</ele><time>2026-05-01T11:04:08.977Z</time></trkpt><trkpt lat="40.7221674" lon="14.8712474"><ele>401.0</ele><time>2026-05-01T11:04:09.979Z</time></trkpt><trkpt lat="40.7220328" lon="14.8712272"><ele>398.0</ele><time>2026-05-01T11:04:11.028Z</time></trkpt><trkpt lat="40.7218957" lon="14.8712154"><ele>395.0</ele><time>2026-05-01T11:04:11.964Z</time></trkpt><trkpt lat="40.7217517" lon="14.8712075"><ele>392.0</ele><time>2026-05-01T11:04:12.964Z</time></trkpt><trkpt lat="40.7216232" lon="14.8711967"><ele>389.0</ele><time>2026-05-01T11:04:13.971Z</time></trkpt><trkpt lat="40.721509" lon="14.8711948"><ele>388.99999999999994</ele><time>2026-05-01T11:04:14.987Z</time></trkpt><trkpt lat="40.7214028" lon="14.8711878"><ele>389.0</ele><time>2026-05-01T11:04:15.975Z</time></trkpt><trkpt lat="40.7213148" lon="14.8711457"><ele>389.0</ele><time>2026-05-01T11:04:17.024Z</time></trkpt><trkpt lat="40.7212402" lon="14.8710962"><ele>389.0</ele><time>2026-05-01T11:04:17.97Z</time></trkpt><trkpt lat="40.7211838" lon="14.8710551"><ele>388.99999999999994</ele><time>2026-05-01T11:04:18.968Z</time></trkpt><trkpt lat="40.7211027" lon="14.8710396"><ele>389.0</ele><time>2026-05-01T11:04:20.992Z</time></trkpt><trkpt lat="40.7210754" lon="14.8711456"><ele>389.0</ele><time>2026-05-01T11:04:22.95Z</time></trkpt><trkpt lat="40.7210749" lon="14.8712363"><ele>389.0</ele><time>2026-05-01T11:04:23.969Z</time></trkpt><trkpt lat="40.7210847" lon="14.871365"><ele>389.0</ele><time>2026-05-01T11:04:25.043Z</time></trkpt><trkpt lat="40.7211078" lon="14.8715303"><ele>389.0</ele><time>2026-05-01T11:04:26.033Z</time></trkpt><trkpt lat="40.7211479" lon="14.8717039"><ele>389.0</ele><time>2026-05-01T11:04:27.039Z</time></trkpt><trkpt lat="40.7211766" lon="14.8718596"><ele>387.25</ele><time>2026-05-01T11:04:27.973Z</time></trkpt><trkpt lat="40.721219" lon="14.8719957"><ele>385.5</ele><time>2026-05-01T11:04:28.977Z</time></trkpt><trkpt lat="40.7212806" lon="14.8721277"><ele>383.75</ele><time>2026-05-01T11:04:29.949Z</time></trkpt><trkpt lat="40.7213506" lon="14.8722395"><ele>382.0</ele><time>2026-05-01T11:04:30.964Z</time></trkpt><trkpt lat="40.7214169" lon="14.8723566"><ele>382.0</ele><time>2026-05-01T11:04:31.966Z</time></trkpt><trkpt lat="40.7214582" lon="14.8725007"><ele>382.0</ele><time>2026-05-01T11:04:32.974Z</time></trkpt><trkpt lat="40.7214872" lon="14.8726576"><ele>382.0</ele><time>2026-05-01T11:04:34.084Z</time></trkpt><trkpt lat="40.721523" lon="14.8729492"><ele>380.0</ele><time>2026-05-01T11:04:36.038Z</time></trkpt><trkpt lat="40.7215315" lon="14.8730963"><ele>378.0</ele><time>2026-05-01T11:04:36.972Z</time></trkpt><trkpt lat="40.7215238" lon="14.8732382"><ele>376.0</ele><time>2026-05-01T11:04:37.987Z</time></trkpt><trkpt lat="40.7215276" lon="14.8733795"><ele>374.0</ele><time>2026-05-01T11:04:38.973Z</time></trkpt><trkpt lat="40.7215437" lon="14.8735122"><ele>372.0</ele><time>2026-05-01T11:04:39.98Z</time></trkpt><trkpt lat="40.7215707" lon="14.8736215"><ele>370.40000000000003</ele><time>2026-05-01T11:04:40.981Z</time></trkpt><trkpt lat="40.7215873" lon="14.8737044"><ele>368.8</ele><time>2026-05-01T11:04:42.049Z</time></trkpt><trkpt lat="40.7215208" lon="14.8737952"><ele>367.2</ele><time>2026-05-01T11:04:43.978Z</time></trkpt><trkpt lat="40.7214333" lon="14.8738111"><ele>365.6</ele><time>2026-05-01T11:04:45.013Z</time></trkpt><trkpt lat="40.7213363" lon="14.8738261"><ele>364.0</ele><time>2026-05-01T11:04:46.055Z</time></trkpt><trkpt lat="40.7211224" lon="14.8738943"><ele>361.8333333333333</ele><time>2026-05-01T11:04:47.963Z</time></trkpt><trkpt lat="40.7210262" lon="14.8739293"><ele>359.66666666666663</ele><time>2026-05-01T11:04:48.974Z</time></trkpt><trkpt lat="40.7209581" lon="14.8739563"><ele>357.5</ele><time>2026-05-01T11:04:49.978Z</time></trkpt><trkpt lat="40.7208932" lon="14.8739738"><ele>355.3333333333333</ele><time>2026-05-01T11:04:51.021Z</time></trkpt><trkpt lat="40.7207878" lon="14.8739958"><ele>353.1666666666667</ele><time>2026-05-01T11:04:52.968Z</time></trkpt><trkpt lat="40.720722" lon="14.873996"><ele>351.0</ele><time>2026-05-01T11:04:54.981Z</time></trkpt><trkpt lat="40.7206854" lon="14.8738996"><ele>351.0</ele><time>2026-05-01T11:04:57.982Z</time></trkpt><trkpt lat="40.720677" lon="14.8737538"><ele>351.0</ele><time>2026-05-01T11:05:00.087Z</time></trkpt><trkpt lat="40.7206252" lon="14.8736206"><ele>351.0</ele><time>2026-05-01T11:05:01.98Z</time></trkpt><trkpt lat="40.7205839" lon="14.8735066"><ele>351.0</ele><time>2026-05-01T11:05:03.971Z</time></trkpt><trkpt lat="40.7205903" lon="14.8733947"><ele>351.0</ele><time>2026-05-01T11:05:06.979Z</time></trkpt><trkpt lat="40.7206586" lon="14.8734216"><ele>351.0</ele><time>2026-05-01T11:05:09.977Z</time></trkpt><trkpt lat="40.7206602" lon="14.8735333"><ele>351.0</ele><time>2026-05-01T11:05:13.957Z</time></trkpt><trkpt lat="40.7207086" lon="14.8735884"><ele>351.0</ele><time>2026-05-01T11:05:28.976Z</time></trkpt><trkpt lat="40.7207493" lon="14.8736591"><ele>351.0</ele><time>2026-05-01T11:06:15.969Z</time></trkpt><trkpt lat="40.7208059" lon="14.8735962"><ele>351.0</ele><time>2026-05-01T11:06:35.971Z</time></trkpt><trkpt lat="40.720746" lon="14.8736313"><ele>351.0</ele><time>2026-05-01T11:07:33.96Z</time></trkpt><trkpt lat="40.7203991" lon="14.8738346"><ele>334.0</ele><time>2026-05-01T11:07:36.944Z</time></trkpt><trkpt lat="40.7198338" lon="14.8740768"><ele>334.0</ele><time>2026-05-01T11:07:38.935Z</time></trkpt></trkseg></trk></gpx>